<?xml version="1.0" encoding="UTF-8"?>
<gpx version="1.1" creator=" " xmlns="http://www.topografix.com/GPX/1/1" xmlns:xsi="http://www.w3.org/2001/XMLSchema-instance" xsi:schemaLocation="http://www.topografix.com/GPX/1/1 http://www.topografix.com/GPX/1/1/gpx.xsd">
<metadata>
<name>Bartholomä - Bad Wörishofen 2</name>
<desc></desc>
<link href="">
<text>  </text>
</link>
<time>2020-09-10T14:39:06Z</time>
</metadata>
<trk>
<trkseg>
<trkpt lat="48.283092" lon="10.470038">
<ele>456.823</ele>
</trkpt>
<trkpt lat="48.283092" lon="10.470038">
<ele>456.823</ele>
<time>2020-09-10T14:39:06Z</time>
</trkpt>
<trkpt lat="48.283089" lon="10.470018">
<ele>457.19</ele>
<time>2020-09-10T14:39:07Z</time>
</trkpt>
<trkpt lat="48.283089" lon="10.470016">
<ele>457.285</ele>
<time>2020-09-10T14:39:08Z</time>
</trkpt>
<trkpt lat="48.283089" lon="10.470014">
<ele>457.331</ele>
<time>2020-09-10T14:39:09Z</time>
</trkpt>
<trkpt lat="48.283089" lon="10.470015">
<ele>457.431</ele>
<time>2020-09-10T14:39:10Z</time>
</trkpt>
<trkpt lat="48.282909" lon="10.469895">
<ele>456.997</ele>
<time>2020-09-10T14:40:53Z</time>
</trkpt>
<trkpt lat="48.282883" lon="10.469883">
<ele>456.997</ele>
<time>2020-09-10T14:40:54Z</time>
</trkpt>
<trkpt lat="48.282837" lon="10.469887">
<ele>456.997</ele>
<time>2020-09-10T14:40:55Z</time>
</trkpt>
<trkpt lat="48.282814" lon="10.469891">
<ele>456.997</ele>
<time>2020-09-10T14:40:56Z</time>
</trkpt>
<trkpt lat="48.282791" lon="10.469892">
<ele>456.997</ele>
<time>2020-09-10T14:40:57Z</time>
</trkpt>
<trkpt lat="48.282761" lon="10.469897">
<ele>456.997</ele>
<time>2020-09-10T14:40:58Z</time>
</trkpt>
<trkpt lat="48.28273" lon="10.469901">
<ele>456.997</ele>
<time>2020-09-10T14:40:59Z</time>
</trkpt>
<trkpt lat="48.282703" lon="10.469912">
<ele>456.997</ele>
<time>2020-09-10T14:41:00Z</time>
</trkpt>
<trkpt lat="48.282681" lon="10.469924">
<ele>456.997</ele>
<time>2020-09-10T14:41:01Z</time>
</trkpt>
<trkpt lat="48.282658" lon="10.469933">
<ele>456.997</ele>
<time>2020-09-10T14:41:02Z</time>
</trkpt>
<trkpt lat="48.282642" lon="10.469938">
<ele>456.997</ele>
<time>2020-09-10T14:41:03Z</time>
</trkpt>
<trkpt lat="48.282623" lon="10.469958">
<ele>456.997</ele>
<time>2020-09-10T14:41:04Z</time>
</trkpt>
<trkpt lat="48.282616" lon="10.46996">
<ele>456.997</ele>
<time>2020-09-10T14:41:05Z</time>
</trkpt>
<trkpt lat="48.2826" lon="10.469966">
<ele>456.997</ele>
<time>2020-09-10T14:41:06Z</time>
</trkpt>
<trkpt lat="48.282597" lon="10.469975">
<ele>456.997</ele>
<time>2020-09-10T14:41:07Z</time>
</trkpt>
<trkpt lat="48.282589" lon="10.469968">
<ele>456.997</ele>
<time>2020-09-10T14:41:08Z</time>
</trkpt>
<trkpt lat="48.282585" lon="10.469968">
<ele>456.997</ele>
<time>2020-09-10T14:41:09Z</time>
</trkpt>
<trkpt lat="48.282551" lon="10.469981">
<ele>456.997</ele>
<time>2020-09-10T14:41:43Z</time>
</trkpt>
<trkpt lat="48.28252" lon="10.469987">
<ele>456.997</ele>
<time>2020-09-10T14:41:44Z</time>
</trkpt>
<trkpt lat="48.282486" lon="10.469998">
<ele>456.997</ele>
<time>2020-09-10T14:41:45Z</time>
</trkpt>
<trkpt lat="48.282444" lon="10.470006">
<ele>456.997</ele>
<time>2020-09-10T14:41:46Z</time>
</trkpt>
<trkpt lat="48.282398" lon="10.47001">
<ele>456.997</ele>
<time>2020-09-10T14:41:47Z</time>
</trkpt>
<trkpt lat="48.282352" lon="10.470005">
<ele>456.997</ele>
<time>2020-09-10T14:41:48Z</time>
</trkpt>
<trkpt lat="48.282303" lon="10.470006">
<ele>456.997</ele>
<time>2020-09-10T14:41:49Z</time>
</trkpt>
<trkpt lat="48.282253" lon="10.470012">
<ele>456.997</ele>
<time>2020-09-10T14:41:50Z</time>
</trkpt>
<trkpt lat="48.282207" lon="10.470016">
<ele>456.997</ele>
<time>2020-09-10T14:41:51Z</time>
</trkpt>
<trkpt lat="48.282162" lon="10.470027">
<ele>456.997</ele>
<time>2020-09-10T14:41:52Z</time>
</trkpt>
<trkpt lat="48.28212" lon="10.470037">
<ele>456.997</ele>
<time>2020-09-10T14:41:53Z</time>
</trkpt>
<trkpt lat="48.282074" lon="10.470046">
<ele>456.997</ele>
<time>2020-09-10T14:41:54Z</time>
</trkpt>
<trkpt lat="48.282028" lon="10.470057">
<ele>456.997</ele>
<time>2020-09-10T14:41:55Z</time>
</trkpt>
<trkpt lat="48.281982" lon="10.470071">
<ele>456.997</ele>
<time>2020-09-10T14:41:56Z</time>
</trkpt>
<trkpt lat="48.281933" lon="10.470083">
<ele>456.997</ele>
<time>2020-09-10T14:41:57Z</time>
</trkpt>
<trkpt lat="48.281887" lon="10.470098">
<ele>456.997</ele>
<time>2020-09-10T14:41:58Z</time>
</trkpt>
<trkpt lat="48.281841" lon="10.470119">
<ele>456.997</ele>
<time>2020-09-10T14:41:59Z</time>
</trkpt>
<trkpt lat="48.281796" lon="10.470141">
<ele>456.997</ele>
<time>2020-09-10T14:42:00Z</time>
</trkpt>
<trkpt lat="48.281746" lon="10.470157">
<ele>456.706</ele>
<time>2020-09-10T14:42:01Z</time>
</trkpt>
<trkpt lat="48.2817" lon="10.47018">
<ele>456.484</ele>
<time>2020-09-10T14:42:02Z</time>
</trkpt>
<trkpt lat="48.281647" lon="10.470207">
<ele>456.318</ele>
<time>2020-09-10T14:42:03Z</time>
</trkpt>
<trkpt lat="48.281597" lon="10.470228">
<ele>456.201</ele>
<time>2020-09-10T14:42:04Z</time>
</trkpt>
<trkpt lat="48.28154" lon="10.470255">
<ele>456.121</ele>
<time>2020-09-10T14:42:05Z</time>
</trkpt>
<trkpt lat="48.28149" lon="10.47027">
<ele>456.07</ele>
<time>2020-09-10T14:42:06Z</time>
</trkpt>
<trkpt lat="48.281445" lon="10.4703">
<ele>456.046</ele>
<time>2020-09-10T14:42:07Z</time>
</trkpt>
<trkpt lat="48.281391" lon="10.470335">
<ele>456.042</ele>
<time>2020-09-10T14:42:08Z</time>
</trkpt>
<trkpt lat="48.281334" lon="10.470362">
<ele>456.042</ele>
<time>2020-09-10T14:42:09Z</time>
</trkpt>
<trkpt lat="48.281281" lon="10.470388">
<ele>456.042</ele>
<time>2020-09-10T14:42:10Z</time>
</trkpt>
<trkpt lat="48.281223" lon="10.470415">
<ele>456.042</ele>
<time>2020-09-10T14:42:11Z</time>
</trkpt>
<trkpt lat="48.281174" lon="10.470437">
<ele>455.761</ele>
<time>2020-09-10T14:42:12Z</time>
</trkpt>
<trkpt lat="48.281116" lon="10.47046">
<ele>455.547</ele>
<time>2020-09-10T14:42:13Z</time>
</trkpt>
<trkpt lat="48.281063" lon="10.470487">
<ele>455.383</ele>
<time>2020-09-10T14:42:14Z</time>
</trkpt>
<trkpt lat="48.281013" lon="10.470515">
<ele>455.267</ele>
<time>2020-09-10T14:42:15Z</time>
</trkpt>
<trkpt lat="48.28096" lon="10.470544">
<ele>455.19</ele>
<time>2020-09-10T14:42:16Z</time>
</trkpt>
<trkpt lat="48.280914" lon="10.470573">
<ele>455.136</ele>
<time>2020-09-10T14:42:17Z</time>
</trkpt>
<trkpt lat="48.280869" lon="10.470607">
<ele>455.111</ele>
<time>2020-09-10T14:42:18Z</time>
</trkpt>
<trkpt lat="48.280823" lon="10.470636">
<ele>455.088</ele>
<time>2020-09-10T14:42:19Z</time>
</trkpt>
<trkpt lat="48.280773" lon="10.470665">
<ele>455.088</ele>
<time>2020-09-10T14:42:20Z</time>
</trkpt>
<trkpt lat="48.280727" lon="10.470692">
<ele>455.088</ele>
<time>2020-09-10T14:42:21Z</time>
</trkpt>
<trkpt lat="48.280678" lon="10.470715">
<ele>455.088</ele>
<time>2020-09-10T14:42:22Z</time>
</trkpt>
<trkpt lat="48.280628" lon="10.470737">
<ele>455.088</ele>
<time>2020-09-10T14:42:23Z</time>
</trkpt>
<trkpt lat="48.280582" lon="10.470762">
<ele>455.088</ele>
<time>2020-09-10T14:42:24Z</time>
</trkpt>
<trkpt lat="48.280537" lon="10.470792">
<ele>455.088</ele>
<time>2020-09-10T14:42:25Z</time>
</trkpt>
<trkpt lat="48.280491" lon="10.470825">
<ele>455.088</ele>
<time>2020-09-10T14:42:26Z</time>
</trkpt>
<trkpt lat="48.280445" lon="10.470845">
<ele>455.088</ele>
<time>2020-09-10T14:42:27Z</time>
</trkpt>
<trkpt lat="48.280399" lon="10.47087">
<ele>455.088</ele>
<time>2020-09-10T14:42:28Z</time>
</trkpt>
<trkpt lat="48.280357" lon="10.47089">
<ele>455.088</ele>
<time>2020-09-10T14:42:29Z</time>
</trkpt>
<trkpt lat="48.280323" lon="10.47091">
<ele>455.313</ele>
<time>2020-09-10T14:42:30Z</time>
</trkpt>
<trkpt lat="48.280293" lon="10.470923">
<ele>455.5</ele>
<time>2020-09-10T14:42:31Z</time>
</trkpt>
<trkpt lat="48.28027" lon="10.470937">
<ele>455.652</ele>
<time>2020-09-10T14:42:32Z</time>
</trkpt>
<trkpt lat="48.280239" lon="10.47095">
<ele>455.777</ele>
<time>2020-09-10T14:42:33Z</time>
</trkpt>
<trkpt lat="48.280216" lon="10.47096">
<ele>455.877</ele>
<time>2020-09-10T14:42:34Z</time>
</trkpt>
<trkpt lat="48.280201" lon="10.470968">
<ele>455.959</ele>
<time>2020-09-10T14:42:35Z</time>
</trkpt>
<trkpt lat="48.280182" lon="10.47097">
<ele>456.012</ele>
<time>2020-09-10T14:42:36Z</time>
</trkpt>
<trkpt lat="48.280163" lon="10.470974">
<ele>456.042</ele>
<time>2020-09-10T14:42:37Z</time>
</trkpt>
<trkpt lat="48.280144" lon="10.47098">
<ele>456.042</ele>
<time>2020-09-10T14:42:38Z</time>
</trkpt>
<trkpt lat="48.280117" lon="10.470986">
<ele>456.042</ele>
<time>2020-09-10T14:42:39Z</time>
</trkpt>
<trkpt lat="48.280087" lon="10.471002">
<ele>456.042</ele>
<time>2020-09-10T14:42:40Z</time>
</trkpt>
<trkpt lat="48.28006" lon="10.471025">
<ele>456.042</ele>
<time>2020-09-10T14:42:41Z</time>
</trkpt>
<trkpt lat="48.280022" lon="10.471055">
<ele>456.042</ele>
<time>2020-09-10T14:42:42Z</time>
</trkpt>
<trkpt lat="48.279984" lon="10.471079">
<ele>456.042</ele>
<time>2020-09-10T14:42:43Z</time>
</trkpt>
<trkpt lat="48.279945" lon="10.471098">
<ele>456.042</ele>
<time>2020-09-10T14:42:44Z</time>
</trkpt>
<trkpt lat="48.279907" lon="10.471123">
<ele>456.042</ele>
<time>2020-09-10T14:42:45Z</time>
</trkpt>
<trkpt lat="48.279865" lon="10.471148">
<ele>456.042</ele>
<time>2020-09-10T14:42:46Z</time>
</trkpt>
<trkpt lat="48.279819" lon="10.471163">
<ele>456.042</ele>
<time>2020-09-10T14:42:47Z</time>
</trkpt>
<trkpt lat="48.279774" lon="10.471182">
<ele>456.042</ele>
<time>2020-09-10T14:42:48Z</time>
</trkpt>
<trkpt lat="48.279728" lon="10.471198">
<ele>456.042</ele>
<time>2020-09-10T14:42:49Z</time>
</trkpt>
<trkpt lat="48.279686" lon="10.471217">
<ele>456.042</ele>
<time>2020-09-10T14:42:50Z</time>
</trkpt>
<trkpt lat="48.279648" lon="10.471244">
<ele>456.042</ele>
<time>2020-09-10T14:42:51Z</time>
</trkpt>
<trkpt lat="48.279606" lon="10.471267">
<ele>456.042</ele>
<time>2020-09-10T14:42:52Z</time>
</trkpt>
<trkpt lat="48.279564" lon="10.471285">
<ele>456.042</ele>
<time>2020-09-10T14:42:53Z</time>
</trkpt>
<trkpt lat="48.279518" lon="10.471307">
<ele>456.042</ele>
<time>2020-09-10T14:42:54Z</time>
</trkpt>
<trkpt lat="48.279484" lon="10.471326">
<ele>456.042</ele>
<time>2020-09-10T14:42:55Z</time>
</trkpt>
<trkpt lat="48.279442" lon="10.471349">
<ele>456.043</ele>
<time>2020-09-10T14:42:56Z</time>
</trkpt>
<trkpt lat="48.2794" lon="10.471374">
<ele>456.042</ele>
<time>2020-09-10T14:42:57Z</time>
</trkpt>
<trkpt lat="48.279358" lon="10.471399">
<ele>456.042</ele>
<time>2020-09-10T14:42:58Z</time>
</trkpt>
<trkpt lat="48.279312" lon="10.471432">
<ele>456.042</ele>
<time>2020-09-10T14:42:59Z</time>
</trkpt>
<trkpt lat="48.27927" lon="10.471462">
<ele>456.042</ele>
<time>2020-09-10T14:43:00Z</time>
</trkpt>
<trkpt lat="48.279224" lon="10.471498">
<ele>456.042</ele>
<time>2020-09-10T14:43:01Z</time>
</trkpt>
<trkpt lat="48.279182" lon="10.47153">
<ele>456.042</ele>
<time>2020-09-10T14:43:02Z</time>
</trkpt>
<trkpt lat="48.27914" lon="10.471562">
<ele>456.042</ele>
<time>2020-09-10T14:43:03Z</time>
</trkpt>
<trkpt lat="48.279095" lon="10.471594">
<ele>456.333</ele>
<time>2020-09-10T14:43:04Z</time>
</trkpt>
<trkpt lat="48.279053" lon="10.471623">
<ele>456.553</ele>
<time>2020-09-10T14:43:05Z</time>
</trkpt>
<trkpt lat="48.279011" lon="10.471653">
<ele>456.715</ele>
<time>2020-09-10T14:43:06Z</time>
</trkpt>
<trkpt lat="48.278965" lon="10.471684">
<ele>456.842</ele>
<time>2020-09-10T14:43:07Z</time>
</trkpt>
<trkpt lat="48.278923" lon="10.471711">
<ele>456.931</ele>
<time>2020-09-10T14:43:08Z</time>
</trkpt>
<trkpt lat="48.278881" lon="10.471737">
<ele>456.996</ele>
<time>2020-09-10T14:43:09Z</time>
</trkpt>
<trkpt lat="48.278839" lon="10.471764">
<ele>457.055</ele>
<time>2020-09-10T14:43:10Z</time>
</trkpt>
<trkpt lat="48.278801" lon="10.471793">
<ele>457.084</ele>
<time>2020-09-10T14:43:11Z</time>
</trkpt>
<trkpt lat="48.278759" lon="10.471825">
<ele>457.084</ele>
<time>2020-09-10T14:43:12Z</time>
</trkpt>
<trkpt lat="48.278717" lon="10.471856">
<ele>457.084</ele>
<time>2020-09-10T14:43:13Z</time>
</trkpt>
<trkpt lat="48.278675" lon="10.471879">
<ele>457.084</ele>
<time>2020-09-10T14:43:14Z</time>
</trkpt>
<trkpt lat="48.278633" lon="10.471904">
<ele>457.084</ele>
<time>2020-09-10T14:43:15Z</time>
</trkpt>
<trkpt lat="48.278584" lon="10.471937">
<ele>457.084</ele>
<time>2020-09-10T14:43:16Z</time>
</trkpt>
<trkpt lat="48.278542" lon="10.471969">
<ele>457.084</ele>
<time>2020-09-10T14:43:17Z</time>
</trkpt>
<trkpt lat="48.278496" lon="10.472">
<ele>457.084</ele>
<time>2020-09-10T14:43:18Z</time>
</trkpt>
<trkpt lat="48.278454" lon="10.47203">
<ele>457.084</ele>
<time>2020-09-10T14:43:19Z</time>
</trkpt>
<trkpt lat="48.278408" lon="10.472061">
<ele>457.084</ele>
<time>2020-09-10T14:43:20Z</time>
</trkpt>
<trkpt lat="48.278362" lon="10.472092">
<ele>457.084</ele>
<time>2020-09-10T14:43:21Z</time>
</trkpt>
<trkpt lat="48.27832" lon="10.472116">
<ele>457.084</ele>
<time>2020-09-10T14:43:22Z</time>
</trkpt>
<trkpt lat="48.278271" lon="10.472147">
<ele>457.084</ele>
<time>2020-09-10T14:43:23Z</time>
</trkpt>
<trkpt lat="48.278225" lon="10.472177">
<ele>457.084</ele>
<time>2020-09-10T14:43:24Z</time>
</trkpt>
<trkpt lat="48.278179" lon="10.472206">
<ele>457.084</ele>
<time>2020-09-10T14:43:25Z</time>
</trkpt>
<trkpt lat="48.27813" lon="10.472239">
<ele>457.084</ele>
<time>2020-09-10T14:43:26Z</time>
</trkpt>
<trkpt lat="48.278084" lon="10.472268">
<ele>457.084</ele>
<time>2020-09-10T14:43:27Z</time>
</trkpt>
<trkpt lat="48.278038" lon="10.472299">
<ele>457.084</ele>
<time>2020-09-10T14:43:28Z</time>
</trkpt>
<trkpt lat="48.277988" lon="10.472327">
<ele>457.084</ele>
<time>2020-09-10T14:43:29Z</time>
</trkpt>
<trkpt lat="48.277943" lon="10.472355">
<ele>457.084</ele>
<time>2020-09-10T14:43:30Z</time>
</trkpt>
<trkpt lat="48.277897" lon="10.472382">
<ele>457.084</ele>
<time>2020-09-10T14:43:31Z</time>
</trkpt>
<trkpt lat="48.277851" lon="10.472406">
<ele>457.084</ele>
<time>2020-09-10T14:43:32Z</time>
</trkpt>
<trkpt lat="48.277805" lon="10.47243">
<ele>457.084</ele>
<time>2020-09-10T14:43:33Z</time>
</trkpt>
<trkpt lat="48.27776" lon="10.472455">
<ele>457.084</ele>
<time>2020-09-10T14:43:34Z</time>
</trkpt>
<trkpt lat="48.277706" lon="10.47248">
<ele>457.084</ele>
<time>2020-09-10T14:43:35Z</time>
</trkpt>
<trkpt lat="48.277657" lon="10.472507">
<ele>457.084</ele>
<time>2020-09-10T14:43:36Z</time>
</trkpt>
<trkpt lat="48.277607" lon="10.472533">
<ele>457.084</ele>
<time>2020-09-10T14:43:37Z</time>
</trkpt>
<trkpt lat="48.277557" lon="10.472557">
<ele>457.084</ele>
<time>2020-09-10T14:43:38Z</time>
</trkpt>
<trkpt lat="48.277504" lon="10.472581">
<ele>457.299</ele>
<time>2020-09-10T14:43:39Z</time>
</trkpt>
<trkpt lat="48.277458" lon="10.472609">
<ele>457.503</ele>
<time>2020-09-10T14:43:40Z</time>
</trkpt>
<trkpt lat="48.277405" lon="10.472631">
<ele>457.666</ele>
<time>2020-09-10T14:43:41Z</time>
</trkpt>
<trkpt lat="48.277355" lon="10.47266">
<ele>457.795</ele>
<time>2020-09-10T14:43:42Z</time>
</trkpt>
<trkpt lat="48.277302" lon="10.472683">
<ele>457.895</ele>
<time>2020-09-10T14:43:43Z</time>
</trkpt>
<trkpt lat="48.277252" lon="10.472711">
<ele>457.968</ele>
<time>2020-09-10T14:43:44Z</time>
</trkpt>
<trkpt lat="48.277203" lon="10.472738">
<ele>458.016</ele>
<time>2020-09-10T14:43:45Z</time>
</trkpt>
<trkpt lat="48.277149" lon="10.472767">
<ele>458.038</ele>
<time>2020-09-10T14:43:46Z</time>
</trkpt>
<trkpt lat="48.2771" lon="10.472795">
<ele>458.038</ele>
<time>2020-09-10T14:43:47Z</time>
</trkpt>
<trkpt lat="48.27705" lon="10.472823">
<ele>458.038</ele>
<time>2020-09-10T14:43:48Z</time>
</trkpt>
<trkpt lat="48.277004" lon="10.472845">
<ele>458.038</ele>
<time>2020-09-10T14:43:49Z</time>
</trkpt>
<trkpt lat="48.276955" lon="10.472874">
<ele>458.038</ele>
<time>2020-09-10T14:43:50Z</time>
</trkpt>
<trkpt lat="48.276913" lon="10.472895">
<ele>458.038</ele>
<time>2020-09-10T14:43:51Z</time>
</trkpt>
<trkpt lat="48.276863" lon="10.472917">
<ele>458.038</ele>
<time>2020-09-10T14:43:52Z</time>
</trkpt>
<trkpt lat="48.276817" lon="10.472945">
<ele>458.038</ele>
<time>2020-09-10T14:43:53Z</time>
</trkpt>
<trkpt lat="48.276772" lon="10.472979">
<ele>458.039</ele>
<time>2020-09-10T14:43:54Z</time>
</trkpt>
<trkpt lat="48.276722" lon="10.473012">
<ele>458.038</ele>
<time>2020-09-10T14:43:55Z</time>
</trkpt>
<trkpt lat="48.276676" lon="10.473043">
<ele>458.039</ele>
<time>2020-09-10T14:43:56Z</time>
</trkpt>
<trkpt lat="48.276627" lon="10.473073">
<ele>458.038</ele>
<time>2020-09-10T14:43:57Z</time>
</trkpt>
<trkpt lat="48.276581" lon="10.473103">
<ele>458.038</ele>
<time>2020-09-10T14:43:58Z</time>
</trkpt>
<trkpt lat="48.276531" lon="10.473132">
<ele>458.038</ele>
<time>2020-09-10T14:43:59Z</time>
</trkpt>
<trkpt lat="48.276485" lon="10.473164">
<ele>458.038</ele>
<time>2020-09-10T14:44:00Z</time>
</trkpt>
<trkpt lat="48.27644" lon="10.473197">
<ele>458.038</ele>
<time>2020-09-10T14:44:01Z</time>
</trkpt>
<trkpt lat="48.27639" lon="10.473228">
<ele>458.038</ele>
<time>2020-09-10T14:44:02Z</time>
</trkpt>
<trkpt lat="48.276352" lon="10.473264">
<ele>458.038</ele>
<time>2020-09-10T14:44:03Z</time>
</trkpt>
<trkpt lat="48.276306" lon="10.4733">
<ele>458.038</ele>
<time>2020-09-10T14:44:04Z</time>
</trkpt>
<trkpt lat="48.27626" lon="10.473335">
<ele>458.038</ele>
<time>2020-09-10T14:44:05Z</time>
</trkpt>
<trkpt lat="48.276211" lon="10.473371">
<ele>458.038</ele>
<time>2020-09-10T14:44:06Z</time>
</trkpt>
<trkpt lat="48.276169" lon="10.473405">
<ele>458.038</ele>
<time>2020-09-10T14:44:07Z</time>
</trkpt>
<trkpt lat="48.276127" lon="10.473438">
<ele>458.038</ele>
<time>2020-09-10T14:44:08Z</time>
</trkpt>
<trkpt lat="48.276085" lon="10.47347">
<ele>458.038</ele>
<time>2020-09-10T14:44:09Z</time>
</trkpt>
<trkpt lat="48.276043" lon="10.473503">
<ele>458.038</ele>
<time>2020-09-10T14:44:10Z</time>
</trkpt>
<trkpt lat="48.275997" lon="10.473547">
<ele>458.038</ele>
<time>2020-09-10T14:44:11Z</time>
</trkpt>
<trkpt lat="48.275963" lon="10.473601">
<ele>458.038</ele>
<time>2020-09-10T14:44:12Z</time>
</trkpt>
<trkpt lat="48.275921" lon="10.473663">
<ele>458.038</ele>
<time>2020-09-10T14:44:13Z</time>
</trkpt>
<trkpt lat="48.275883" lon="10.473731">
<ele>458.038</ele>
<time>2020-09-10T14:44:14Z</time>
</trkpt>
<trkpt lat="48.275841" lon="10.473798">
<ele>458.038</ele>
<time>2020-09-10T14:44:15Z</time>
</trkpt>
<trkpt lat="48.275803" lon="10.473855">
<ele>458.318</ele>
<time>2020-09-10T14:44:16Z</time>
</trkpt>
<trkpt lat="48.275757" lon="10.473907">
<ele>458.532</ele>
<time>2020-09-10T14:44:17Z</time>
</trkpt>
<trkpt lat="48.275711" lon="10.47396">
<ele>458.694</ele>
<time>2020-09-10T14:44:18Z</time>
</trkpt>
<trkpt lat="48.275673" lon="10.474013">
<ele>458.798</ele>
<time>2020-09-10T14:44:19Z</time>
</trkpt>
<trkpt lat="48.275635" lon="10.474067">
<ele>458.913</ele>
<time>2020-09-10T14:44:20Z</time>
</trkpt>
<trkpt lat="48.275597" lon="10.474118">
<ele>458.996</ele>
<time>2020-09-10T14:44:21Z</time>
</trkpt>
<trkpt lat="48.275558" lon="10.474172">
<ele>459.052</ele>
<time>2020-09-10T14:44:22Z</time>
</trkpt>
<trkpt lat="48.275524" lon="10.474228">
<ele>459.08</ele>
<time>2020-09-10T14:44:23Z</time>
</trkpt>
<trkpt lat="48.275486" lon="10.474286">
<ele>459.08</ele>
<time>2020-09-10T14:44:24Z</time>
</trkpt>
<trkpt lat="48.275448" lon="10.474345">
<ele>459.08</ele>
<time>2020-09-10T14:44:25Z</time>
</trkpt>
<trkpt lat="48.275414" lon="10.474403">
<ele>459.08</ele>
<time>2020-09-10T14:44:26Z</time>
</trkpt>
<trkpt lat="48.275375" lon="10.47446">
<ele>459.08</ele>
<time>2020-09-10T14:44:27Z</time>
</trkpt>
<trkpt lat="48.275337" lon="10.474517">
<ele>459.08</ele>
<time>2020-09-10T14:44:28Z</time>
</trkpt>
<trkpt lat="48.275299" lon="10.474569">
<ele>459.08</ele>
<time>2020-09-10T14:44:29Z</time>
</trkpt>
<trkpt lat="48.275261" lon="10.474624">
<ele>459.08</ele>
<time>2020-09-10T14:44:30Z</time>
</trkpt>
<trkpt lat="48.275227" lon="10.474676">
<ele>459.08</ele>
<time>2020-09-10T14:44:31Z</time>
</trkpt>
<trkpt lat="48.275188" lon="10.474727">
<ele>459.08</ele>
<time>2020-09-10T14:44:32Z</time>
</trkpt>
<trkpt lat="48.275154" lon="10.474778">
<ele>459.08</ele>
<time>2020-09-10T14:44:33Z</time>
</trkpt>
<trkpt lat="48.27512" lon="10.474827">
<ele>459.08</ele>
<time>2020-09-10T14:44:34Z</time>
</trkpt>
<trkpt lat="48.275074" lon="10.474878">
<ele>459.08</ele>
<time>2020-09-10T14:44:35Z</time>
</trkpt>
<trkpt lat="48.275032" lon="10.474925">
<ele>459.08</ele>
<time>2020-09-10T14:44:36Z</time>
</trkpt>
<trkpt lat="48.27499" lon="10.474974">
<ele>459.08</ele>
<time>2020-09-10T14:44:37Z</time>
</trkpt>
<trkpt lat="48.274952" lon="10.475023">
<ele>459.08</ele>
<time>2020-09-10T14:44:38Z</time>
</trkpt>
<trkpt lat="48.27491" lon="10.475074">
<ele>459.08</ele>
<time>2020-09-10T14:44:39Z</time>
</trkpt>
<trkpt lat="48.274864" lon="10.47512">
<ele>459.08</ele>
<time>2020-09-10T14:44:40Z</time>
</trkpt>
<trkpt lat="48.274826" lon="10.475163">
<ele>459.08</ele>
<time>2020-09-10T14:44:41Z</time>
</trkpt>
<trkpt lat="48.274776" lon="10.4752">
<ele>459.08</ele>
<time>2020-09-10T14:44:42Z</time>
</trkpt>
<trkpt lat="48.274731" lon="10.475235">
<ele>459.322</ele>
<time>2020-09-10T14:44:43Z</time>
</trkpt>
<trkpt lat="48.274689" lon="10.475273">
<ele>459.513</ele>
<time>2020-09-10T14:44:44Z</time>
</trkpt>
<trkpt lat="48.274647" lon="10.47531">
<ele>459.657</ele>
<time>2020-09-10T14:44:45Z</time>
</trkpt>
<trkpt lat="48.274597" lon="10.475352">
<ele>459.761</ele>
<time>2020-09-10T14:44:46Z</time>
</trkpt>
<trkpt lat="48.274551" lon="10.475393">
<ele>459.839</ele>
<time>2020-09-10T14:44:47Z</time>
</trkpt>
<trkpt lat="48.274498" lon="10.475434">
<ele>459.886</ele>
<time>2020-09-10T14:44:48Z</time>
</trkpt>
<trkpt lat="48.274445" lon="10.475478">
<ele>459.919</ele>
<time>2020-09-10T14:44:49Z</time>
</trkpt>
<trkpt lat="48.274395" lon="10.475515">
<ele>459.721</ele>
<time>2020-09-10T14:44:50Z</time>
</trkpt>
<trkpt lat="48.274342" lon="10.475548">
<ele>459.548</ele>
<time>2020-09-10T14:44:51Z</time>
</trkpt>
<trkpt lat="48.274292" lon="10.47558">
<ele>459.402</ele>
<time>2020-09-10T14:44:52Z</time>
</trkpt>
<trkpt lat="48.274239" lon="10.47561">
<ele>459.289</ele>
<time>2020-09-10T14:44:53Z</time>
</trkpt>
<trkpt lat="48.274189" lon="10.475638">
<ele>459.204</ele>
<time>2020-09-10T14:44:54Z</time>
</trkpt>
<trkpt lat="48.274139" lon="10.475669">
<ele>459.143</ele>
<time>2020-09-10T14:44:55Z</time>
</trkpt>
<trkpt lat="48.274086" lon="10.475698">
<ele>459.101</ele>
<time>2020-09-10T14:44:56Z</time>
</trkpt>
<trkpt lat="48.274033" lon="10.47573">
<ele>459.08</ele>
<time>2020-09-10T14:44:57Z</time>
</trkpt>
<trkpt lat="48.273979" lon="10.475763">
<ele>459.08</ele>
<time>2020-09-10T14:44:58Z</time>
</trkpt>
<trkpt lat="48.27393" lon="10.475795">
<ele>459.08</ele>
<time>2020-09-10T14:44:59Z</time>
</trkpt>
<trkpt lat="48.27388" lon="10.475823">
<ele>459.08</ele>
<time>2020-09-10T14:45:00Z</time>
</trkpt>
<trkpt lat="48.273827" lon="10.475851">
<ele>459.338</ele>
<time>2020-09-10T14:45:01Z</time>
</trkpt>
<trkpt lat="48.273781" lon="10.475883">
<ele>459.538</ele>
<time>2020-09-10T14:45:02Z</time>
</trkpt>
<trkpt lat="48.273731" lon="10.475915">
<ele>459.688</ele>
<time>2020-09-10T14:45:03Z</time>
</trkpt>
<trkpt lat="48.273682" lon="10.475945">
<ele>459.798</ele>
<time>2020-09-10T14:45:04Z</time>
</trkpt>
<trkpt lat="48.273628" lon="10.475973">
<ele>459.875</ele>
<time>2020-09-10T14:45:05Z</time>
</trkpt>
<trkpt lat="48.273579" lon="10.476004">
<ele>459.923</ele>
<time>2020-09-10T14:45:06Z</time>
</trkpt>
<trkpt lat="48.273529" lon="10.476035">
<ele>459.945</ele>
<time>2020-09-10T14:45:07Z</time>
</trkpt>
<trkpt lat="48.273479" lon="10.476067">
<ele>459.948</ele>
<time>2020-09-10T14:45:08Z</time>
</trkpt>
<trkpt lat="48.27343" lon="10.476102">
<ele>459.948</ele>
<time>2020-09-10T14:45:09Z</time>
</trkpt>
<trkpt lat="48.273384" lon="10.476136">
<ele>459.948</ele>
<time>2020-09-10T14:45:10Z</time>
</trkpt>
<trkpt lat="48.273335" lon="10.476173">
<ele>459.948</ele>
<time>2020-09-10T14:45:11Z</time>
</trkpt>
<trkpt lat="48.273289" lon="10.476213">
<ele>459.948</ele>
<time>2020-09-10T14:45:12Z</time>
</trkpt>
<trkpt lat="48.273243" lon="10.476256">
<ele>459.948</ele>
<time>2020-09-10T14:45:13Z</time>
</trkpt>
<trkpt lat="48.273193" lon="10.476298">
<ele>459.948</ele>
<time>2020-09-10T14:45:14Z</time>
</trkpt>
<trkpt lat="48.273148" lon="10.476343">
<ele>459.948</ele>
<time>2020-09-10T14:45:15Z</time>
</trkpt>
<trkpt lat="48.273098" lon="10.476387">
<ele>459.948</ele>
<time>2020-09-10T14:45:16Z</time>
</trkpt>
<trkpt lat="48.273052" lon="10.47643">
<ele>459.948</ele>
<time>2020-09-10T14:45:17Z</time>
</trkpt>
<trkpt lat="48.273003" lon="10.476474">
<ele>459.948</ele>
<time>2020-09-10T14:45:18Z</time>
</trkpt>
<trkpt lat="48.272961" lon="10.476518">
<ele>459.948</ele>
<time>2020-09-10T14:45:19Z</time>
</trkpt>
<trkpt lat="48.272915" lon="10.476565">
<ele>459.948</ele>
<time>2020-09-10T14:45:20Z</time>
</trkpt>
<trkpt lat="48.272869" lon="10.476612">
<ele>459.948</ele>
<time>2020-09-10T14:45:21Z</time>
</trkpt>
<trkpt lat="48.272827" lon="10.476658">
<ele>459.948</ele>
<time>2020-09-10T14:45:22Z</time>
</trkpt>
<trkpt lat="48.272778" lon="10.476704">
<ele>459.948</ele>
<time>2020-09-10T14:45:23Z</time>
</trkpt>
<trkpt lat="48.272736" lon="10.476748">
<ele>459.948</ele>
<time>2020-09-10T14:45:24Z</time>
</trkpt>
<trkpt lat="48.272694" lon="10.476793">
<ele>459.948</ele>
<time>2020-09-10T14:45:25Z</time>
</trkpt>
<trkpt lat="48.272644" lon="10.47684">
<ele>459.948</ele>
<time>2020-09-10T14:45:26Z</time>
</trkpt>
<trkpt lat="48.272606" lon="10.476889">
<ele>459.948</ele>
<time>2020-09-10T14:45:27Z</time>
</trkpt>
<trkpt lat="48.27256" lon="10.476936">
<ele>460.18</ele>
<time>2020-09-10T14:45:28Z</time>
</trkpt>
<trkpt lat="48.272518" lon="10.476982">
<ele>460.345</ele>
<time>2020-09-10T14:45:29Z</time>
</trkpt>
<trkpt lat="48.272476" lon="10.477025">
<ele>460.515</ele>
<time>2020-09-10T14:45:30Z</time>
</trkpt>
<trkpt lat="48.272427" lon="10.47707">
<ele>460.651</ele>
<time>2020-09-10T14:45:31Z</time>
</trkpt>
<trkpt lat="48.272381" lon="10.477113">
<ele>460.756</ele>
<time>2020-09-10T14:45:32Z</time>
</trkpt>
<trkpt lat="48.272339" lon="10.477155">
<ele>460.832</ele>
<time>2020-09-10T14:45:33Z</time>
</trkpt>
<trkpt lat="48.272289" lon="10.477195">
<ele>460.879</ele>
<time>2020-09-10T14:45:34Z</time>
</trkpt>
<trkpt lat="48.272247" lon="10.477232">
<ele>460.903</ele>
<time>2020-09-10T14:45:35Z</time>
</trkpt>
<trkpt lat="48.272202" lon="10.477267">
<ele>460.903</ele>
<time>2020-09-10T14:45:36Z</time>
</trkpt>
<trkpt lat="48.272156" lon="10.477302">
<ele>460.903</ele>
<time>2020-09-10T14:45:37Z</time>
</trkpt>
<trkpt lat="48.27211" lon="10.477337">
<ele>460.903</ele>
<time>2020-09-10T14:45:38Z</time>
</trkpt>
<trkpt lat="48.27206" lon="10.477366">
<ele>460.903</ele>
<time>2020-09-10T14:45:39Z</time>
</trkpt>
<trkpt lat="48.272011" lon="10.477397">
<ele>460.903</ele>
<time>2020-09-10T14:45:40Z</time>
</trkpt>
<trkpt lat="48.271957" lon="10.477425">
<ele>460.903</ele>
<time>2020-09-10T14:45:41Z</time>
</trkpt>
<trkpt lat="48.271908" lon="10.477451">
<ele>460.903</ele>
<time>2020-09-10T14:45:42Z</time>
</trkpt>
<trkpt lat="48.271858" lon="10.477479">
<ele>460.903</ele>
<time>2020-09-10T14:45:43Z</time>
</trkpt>
<trkpt lat="48.271801" lon="10.477502">
<ele>460.903</ele>
<time>2020-09-10T14:45:44Z</time>
</trkpt>
<trkpt lat="48.271751" lon="10.477527">
<ele>460.903</ele>
<time>2020-09-10T14:45:45Z</time>
</trkpt>
<trkpt lat="48.271694" lon="10.477551">
<ele>460.903</ele>
<time>2020-09-10T14:45:46Z</time>
</trkpt>
<trkpt lat="48.271645" lon="10.477573">
<ele>460.903</ele>
<time>2020-09-10T14:45:47Z</time>
</trkpt>
<trkpt lat="48.271591" lon="10.477596">
<ele>460.903</ele>
<time>2020-09-10T14:45:48Z</time>
</trkpt>
<trkpt lat="48.271538" lon="10.477618">
<ele>460.903</ele>
<time>2020-09-10T14:45:49Z</time>
</trkpt>
<trkpt lat="48.271484" lon="10.477638">
<ele>460.903</ele>
<time>2020-09-10T14:45:50Z</time>
</trkpt>
<trkpt lat="48.271435" lon="10.477659">
<ele>460.903</ele>
<time>2020-09-10T14:45:51Z</time>
</trkpt>
<trkpt lat="48.271381" lon="10.47768">
<ele>460.903</ele>
<time>2020-09-10T14:45:52Z</time>
</trkpt>
<trkpt lat="48.271332" lon="10.477699">
<ele>461.168</ele>
<time>2020-09-10T14:45:53Z</time>
</trkpt>
<trkpt lat="48.271278" lon="10.477722">
<ele>461.376</ele>
<time>2020-09-10T14:45:54Z</time>
</trkpt>
<trkpt lat="48.271229" lon="10.477741">
<ele>461.538</ele>
<time>2020-09-10T14:45:55Z</time>
</trkpt>
<trkpt lat="48.271175" lon="10.477762">
<ele>461.654</ele>
<time>2020-09-10T14:45:56Z</time>
</trkpt>
<trkpt lat="48.271126" lon="10.47778">
<ele>461.737</ele>
<time>2020-09-10T14:45:57Z</time>
</trkpt>
<trkpt lat="48.271076" lon="10.477798">
<ele>461.789</ele>
<time>2020-09-10T14:45:58Z</time>
</trkpt>
<trkpt lat="48.271023" lon="10.477817">
<ele>461.832</ele>
<time>2020-09-10T14:45:59Z</time>
</trkpt>
<trkpt lat="48.270969" lon="10.477833">
<ele>461.858</ele>
<time>2020-09-10T14:46:00Z</time>
</trkpt>
<trkpt lat="48.270916" lon="10.47785">
<ele>461.858</ele>
<time>2020-09-10T14:46:01Z</time>
</trkpt>
<trkpt lat="48.270866" lon="10.47787">
<ele>461.858</ele>
<time>2020-09-10T14:46:02Z</time>
</trkpt>
<trkpt lat="48.270817" lon="10.47789">
<ele>461.858</ele>
<time>2020-09-10T14:46:03Z</time>
</trkpt>
<trkpt lat="48.270763" lon="10.47791">
<ele>461.858</ele>
<time>2020-09-10T14:46:04Z</time>
</trkpt>
<trkpt lat="48.270714" lon="10.477928">
<ele>461.858</ele>
<time>2020-09-10T14:46:05Z</time>
</trkpt>
<trkpt lat="48.270664" lon="10.477946">
<ele>461.858</ele>
<time>2020-09-10T14:46:06Z</time>
</trkpt>
<trkpt lat="48.270615" lon="10.477963">
<ele>461.858</ele>
<time>2020-09-10T14:46:07Z</time>
</trkpt>
<trkpt lat="48.270561" lon="10.47798">
<ele>461.858</ele>
<time>2020-09-10T14:46:08Z</time>
</trkpt>
<trkpt lat="48.270519" lon="10.477995">
<ele>461.858</ele>
<time>2020-09-10T14:46:09Z</time>
</trkpt>
<trkpt lat="48.27047" lon="10.478011">
<ele>461.858</ele>
<time>2020-09-10T14:46:10Z</time>
</trkpt>
<trkpt lat="48.270424" lon="10.47803">
<ele>461.858</ele>
<time>2020-09-10T14:46:11Z</time>
</trkpt>
<trkpt lat="48.270378" lon="10.478045">
<ele>461.858</ele>
<time>2020-09-10T14:46:12Z</time>
</trkpt>
<trkpt lat="48.270332" lon="10.478053">
<ele>461.858</ele>
<time>2020-09-10T14:46:13Z</time>
</trkpt>
<trkpt lat="48.270294" lon="10.478045">
<ele>462.111</ele>
<time>2020-09-10T14:46:14Z</time>
</trkpt>
<trkpt lat="48.270248" lon="10.47803">
<ele>462.311</ele>
<time>2020-09-10T14:46:15Z</time>
</trkpt>
<trkpt lat="48.270206" lon="10.478026">
<ele>462.467</ele>
<time>2020-09-10T14:46:16Z</time>
</trkpt>
<trkpt lat="48.270164" lon="10.478034">
<ele>462.582</ele>
<time>2020-09-10T14:46:17Z</time>
</trkpt>
<trkpt lat="48.270123" lon="10.478046">
<ele>462.667</ele>
<time>2020-09-10T14:46:18Z</time>
</trkpt>
<trkpt lat="48.270073" lon="10.47806">
<ele>462.729</ele>
<time>2020-09-10T14:46:19Z</time>
</trkpt>
<trkpt lat="48.270027" lon="10.478074">
<ele>462.786</ele>
<time>2020-09-10T14:46:20Z</time>
</trkpt>
<trkpt lat="48.269981" lon="10.478086">
<ele>462.813</ele>
<time>2020-09-10T14:46:21Z</time>
</trkpt>
<trkpt lat="48.269936" lon="10.478097">
<ele>462.813</ele>
<time>2020-09-10T14:46:22Z</time>
</trkpt>
<trkpt lat="48.26989" lon="10.478093">
<ele>462.813</ele>
<time>2020-09-10T14:46:23Z</time>
</trkpt>
<trkpt lat="48.269844" lon="10.478082">
<ele>462.813</ele>
<time>2020-09-10T14:46:24Z</time>
</trkpt>
<trkpt lat="48.269798" lon="10.478065">
<ele>462.813</ele>
<time>2020-09-10T14:46:25Z</time>
</trkpt>
<trkpt lat="48.269749" lon="10.478048">
<ele>462.813</ele>
<time>2020-09-10T14:46:26Z</time>
</trkpt>
<trkpt lat="48.269703" lon="10.478037">
<ele>462.813</ele>
<time>2020-09-10T14:46:27Z</time>
</trkpt>
<trkpt lat="48.26965" lon="10.478025">
<ele>462.813</ele>
<time>2020-09-10T14:46:28Z</time>
</trkpt>
<trkpt lat="48.269604" lon="10.478018">
<ele>462.813</ele>
<time>2020-09-10T14:46:29Z</time>
</trkpt>
<trkpt lat="48.269554" lon="10.478007">
<ele>462.813</ele>
<time>2020-09-10T14:46:30Z</time>
</trkpt>
<trkpt lat="48.269505" lon="10.477992">
<ele>462.813</ele>
<time>2020-09-10T14:46:31Z</time>
</trkpt>
<trkpt lat="48.269451" lon="10.477973">
<ele>462.813</ele>
<time>2020-09-10T14:46:32Z</time>
</trkpt>
<trkpt lat="48.269402" lon="10.47795">
<ele>462.813</ele>
<time>2020-09-10T14:46:33Z</time>
</trkpt>
<trkpt lat="48.269348" lon="10.477927">
<ele>462.813</ele>
<time>2020-09-10T14:46:34Z</time>
</trkpt>
<trkpt lat="48.269295" lon="10.477906">
<ele>462.813</ele>
<time>2020-09-10T14:46:35Z</time>
</trkpt>
<trkpt lat="48.269245" lon="10.477892">
<ele>462.813</ele>
<time>2020-09-10T14:46:36Z</time>
</trkpt>
<trkpt lat="48.269188" lon="10.477868">
<ele>462.813</ele>
<time>2020-09-10T14:46:37Z</time>
</trkpt>
<trkpt lat="48.269127" lon="10.47785">
<ele>462.813</ele>
<time>2020-09-10T14:46:38Z</time>
</trkpt>
<trkpt lat="48.26907" lon="10.477833">
<ele>462.813</ele>
<time>2020-09-10T14:46:39Z</time>
</trkpt>
<trkpt lat="48.269005" lon="10.477818">
<ele>462.813</ele>
<time>2020-09-10T14:46:40Z</time>
</trkpt>
<trkpt lat="48.26894" lon="10.477806">
<ele>462.813</ele>
<time>2020-09-10T14:46:41Z</time>
</trkpt>
<trkpt lat="48.268875" lon="10.477798">
<ele>462.524</ele>
<time>2020-09-10T14:46:42Z</time>
</trkpt>
<trkpt lat="48.26881" lon="10.477796">
<ele>462.306</ele>
<time>2020-09-10T14:46:43Z</time>
</trkpt>
<trkpt lat="48.268745" lon="10.477798">
<ele>462.145</ele>
<time>2020-09-10T14:46:44Z</time>
</trkpt>
<trkpt lat="48.268681" lon="10.477805">
<ele>462.032</ele>
<time>2020-09-10T14:46:45Z</time>
</trkpt>
<trkpt lat="48.268616" lon="10.477825">
<ele>461.953</ele>
<time>2020-09-10T14:46:46Z</time>
</trkpt>
<trkpt lat="48.268547" lon="10.477855">
<ele>461.903</ele>
<time>2020-09-10T14:46:47Z</time>
</trkpt>
<trkpt lat="48.268486" lon="10.477888">
<ele>461.88</ele>
<time>2020-09-10T14:46:48Z</time>
</trkpt>
<trkpt lat="48.268425" lon="10.477921">
<ele>461.858</ele>
<time>2020-09-10T14:46:49Z</time>
</trkpt>
<trkpt lat="48.268368" lon="10.477957">
<ele>461.858</ele>
<time>2020-09-10T14:46:50Z</time>
</trkpt>
<trkpt lat="48.268307" lon="10.477993">
<ele>461.858</ele>
<time>2020-09-10T14:46:51Z</time>
</trkpt>
<trkpt lat="48.268253" lon="10.478028">
<ele>461.858</ele>
<time>2020-09-10T14:46:52Z</time>
</trkpt>
<trkpt lat="48.2682" lon="10.478065">
<ele>461.858</ele>
<time>2020-09-10T14:46:53Z</time>
</trkpt>
<trkpt lat="48.268147" lon="10.478106">
<ele>461.858</ele>
<time>2020-09-10T14:46:54Z</time>
</trkpt>
<trkpt lat="48.268101" lon="10.478147">
<ele>461.858</ele>
<time>2020-09-10T14:46:55Z</time>
</trkpt>
<trkpt lat="48.268051" lon="10.478189">
<ele>461.858</ele>
<time>2020-09-10T14:46:56Z</time>
</trkpt>
<trkpt lat="48.268005" lon="10.47823">
<ele>461.858</ele>
<time>2020-09-10T14:46:57Z</time>
</trkpt>
<trkpt lat="48.26796" lon="10.478271">
<ele>461.858</ele>
<time>2020-09-10T14:46:58Z</time>
</trkpt>
<trkpt lat="48.267914" lon="10.478313">
<ele>461.858</ele>
<time>2020-09-10T14:46:59Z</time>
</trkpt>
<trkpt lat="48.267864" lon="10.478356">
<ele>461.858</ele>
<time>2020-09-10T14:47:00Z</time>
</trkpt>
<trkpt lat="48.267818" lon="10.478398">
<ele>461.858</ele>
<time>2020-09-10T14:47:01Z</time>
</trkpt>
<trkpt lat="48.267769" lon="10.478441">
<ele>461.858</ele>
<time>2020-09-10T14:47:02Z</time>
</trkpt>
<trkpt lat="48.267723" lon="10.478485">
<ele>461.858</ele>
<time>2020-09-10T14:47:03Z</time>
</trkpt>
<trkpt lat="48.267677" lon="10.478529">
<ele>461.858</ele>
<time>2020-09-10T14:47:04Z</time>
</trkpt>
<trkpt lat="48.267624" lon="10.478568">
<ele>461.858</ele>
<time>2020-09-10T14:47:05Z</time>
</trkpt>
<trkpt lat="48.267578" lon="10.478603">
<ele>462.082</ele>
<time>2020-09-10T14:47:06Z</time>
</trkpt>
<trkpt lat="48.267532" lon="10.478643">
<ele>462.257</ele>
<time>2020-09-10T14:47:07Z</time>
</trkpt>
<trkpt lat="48.267483" lon="10.478685">
<ele>462.391</ele>
<time>2020-09-10T14:47:08Z</time>
</trkpt>
<trkpt lat="48.267433" lon="10.478726">
<ele>462.485</ele>
<time>2020-09-10T14:47:09Z</time>
</trkpt>
<trkpt lat="48.267387" lon="10.478765">
<ele>462.585</ele>
<time>2020-09-10T14:47:10Z</time>
</trkpt>
<trkpt lat="48.267338" lon="10.478806">
<ele>462.658</ele>
<time>2020-09-10T14:47:11Z</time>
</trkpt>
<trkpt lat="48.267292" lon="10.478848">
<ele>462.704</ele>
<time>2020-09-10T14:47:12Z</time>
</trkpt>
<trkpt lat="48.267242" lon="10.478893">
<ele>462.727</ele>
<time>2020-09-10T14:47:13Z</time>
</trkpt>
<trkpt lat="48.267197" lon="10.478938">
<ele>462.727</ele>
<time>2020-09-10T14:47:14Z</time>
</trkpt>
<trkpt lat="48.267143" lon="10.478983">
<ele>462.727</ele>
<time>2020-09-10T14:47:15Z</time>
</trkpt>
<trkpt lat="48.267097" lon="10.479036">
<ele>462.727</ele>
<time>2020-09-10T14:47:16Z</time>
</trkpt>
<trkpt lat="48.267052" lon="10.47909">
<ele>462.727</ele>
<time>2020-09-10T14:47:17Z</time>
</trkpt>
<trkpt lat="48.267002" lon="10.479149">
<ele>462.727</ele>
<time>2020-09-10T14:47:18Z</time>
</trkpt>
<trkpt lat="48.266956" lon="10.479203">
<ele>462.727</ele>
<time>2020-09-10T14:47:19Z</time>
</trkpt>
<trkpt lat="48.266914" lon="10.479261">
<ele>462.727</ele>
<time>2020-09-10T14:47:20Z</time>
</trkpt>
<trkpt lat="48.266869" lon="10.479317">
<ele>463.013</ele>
<time>2020-09-10T14:47:21Z</time>
</trkpt>
<trkpt lat="48.266827" lon="10.479373">
<ele>463.235</ele>
<time>2020-09-10T14:47:22Z</time>
</trkpt>
<trkpt lat="48.266781" lon="10.479434">
<ele>463.401</ele>
<time>2020-09-10T14:47:23Z</time>
</trkpt>
<trkpt lat="48.266739" lon="10.479497">
<ele>463.521</ele>
<time>2020-09-10T14:47:24Z</time>
</trkpt>
<trkpt lat="48.266697" lon="10.479558">
<ele>463.606</ele>
<time>2020-09-10T14:47:25Z</time>
</trkpt>
<trkpt lat="48.266659" lon="10.479618">
<ele>463.657</ele>
<time>2020-09-10T14:47:26Z</time>
</trkpt>
<trkpt lat="48.266617" lon="10.479681">
<ele>463.682</ele>
<time>2020-09-10T14:47:27Z</time>
</trkpt>
<trkpt lat="48.266579" lon="10.479745">
<ele>463.682</ele>
<time>2020-09-10T14:47:28Z</time>
</trkpt>
<trkpt lat="48.266537" lon="10.479802">
<ele>463.682</ele>
<time>2020-09-10T14:47:29Z</time>
</trkpt>
<trkpt lat="48.266495" lon="10.479856">
<ele>463.682</ele>
<time>2020-09-10T14:47:30Z</time>
</trkpt>
<trkpt lat="48.266453" lon="10.479916">
<ele>463.682</ele>
<time>2020-09-10T14:47:31Z</time>
</trkpt>
<trkpt lat="48.266415" lon="10.479975">
<ele>463.682</ele>
<time>2020-09-10T14:47:32Z</time>
</trkpt>
<trkpt lat="48.266369" lon="10.480031">
<ele>463.682</ele>
<time>2020-09-10T14:47:33Z</time>
</trkpt>
<trkpt lat="48.266327" lon="10.480087">
<ele>463.682</ele>
<time>2020-09-10T14:47:34Z</time>
</trkpt>
<trkpt lat="48.266285" lon="10.480142">
<ele>463.682</ele>
<time>2020-09-10T14:47:35Z</time>
</trkpt>
<trkpt lat="48.266243" lon="10.480193">
<ele>463.682</ele>
<time>2020-09-10T14:47:36Z</time>
</trkpt>
<trkpt lat="48.266201" lon="10.480245">
<ele>463.96</ele>
<time>2020-09-10T14:47:37Z</time>
</trkpt>
<trkpt lat="48.266155" lon="10.480297">
<ele>464.185</ele>
<time>2020-09-10T14:47:38Z</time>
</trkpt>
<trkpt lat="48.266113" lon="10.480349">
<ele>464.338</ele>
<time>2020-09-10T14:47:39Z</time>
</trkpt>
<trkpt lat="48.266068" lon="10.4804">
<ele>464.502</ele>
<time>2020-09-10T14:47:40Z</time>
</trkpt>
<trkpt lat="48.266022" lon="10.480448">
<ele>464.425</ele>
<time>2020-09-10T14:47:41Z</time>
</trkpt>
<trkpt lat="48.265976" lon="10.480495">
<ele>464.344</ele>
<time>2020-09-10T14:47:42Z</time>
</trkpt>
<trkpt lat="48.265926" lon="10.48054">
<ele>464.26</ele>
<time>2020-09-10T14:47:43Z</time>
</trkpt>
<trkpt lat="48.265881" lon="10.480585">
<ele>464.173</ele>
<time>2020-09-10T14:47:44Z</time>
</trkpt>
<trkpt lat="48.265831" lon="10.480628">
<ele>464.108</ele>
<time>2020-09-10T14:47:45Z</time>
</trkpt>
<trkpt lat="48.265785" lon="10.48067">
<ele>464.031</ele>
<time>2020-09-10T14:47:46Z</time>
</trkpt>
<trkpt lat="48.265736" lon="10.480714">
<ele>463.988</ele>
<time>2020-09-10T14:47:47Z</time>
</trkpt>
<trkpt lat="48.265686" lon="10.480754">
<ele>463.963</ele>
<time>2020-09-10T14:47:48Z</time>
</trkpt>
<trkpt lat="48.265633" lon="10.480795">
<ele>463.942</ele>
<time>2020-09-10T14:47:49Z</time>
</trkpt>
<trkpt lat="48.265583" lon="10.480833">
<ele>463.942</ele>
<time>2020-09-10T14:47:50Z</time>
</trkpt>
<trkpt lat="48.265533" lon="10.480866">
<ele>463.942</ele>
<time>2020-09-10T14:47:51Z</time>
</trkpt>
<trkpt lat="48.265476" lon="10.480898">
<ele>463.942</ele>
<time>2020-09-10T14:47:52Z</time>
</trkpt>
<trkpt lat="48.265423" lon="10.480928">
<ele>463.942</ele>
<time>2020-09-10T14:47:53Z</time>
</trkpt>
<trkpt lat="48.265369" lon="10.48096">
<ele>463.942</ele>
<time>2020-09-10T14:47:54Z</time>
</trkpt>
<trkpt lat="48.265312" lon="10.480992">
<ele>463.942</ele>
<time>2020-09-10T14:47:55Z</time>
</trkpt>
<trkpt lat="48.265255" lon="10.481027">
<ele>463.942</ele>
<time>2020-09-10T14:47:56Z</time>
</trkpt>
<trkpt lat="48.265202" lon="10.48106">
<ele>463.942</ele>
<time>2020-09-10T14:47:57Z</time>
</trkpt>
<trkpt lat="48.265144" lon="10.481095">
<ele>463.942</ele>
<time>2020-09-10T14:47:58Z</time>
</trkpt>
<trkpt lat="48.265083" lon="10.481129">
<ele>463.942</ele>
<time>2020-09-10T14:47:59Z</time>
</trkpt>
<trkpt lat="48.265026" lon="10.481163">
<ele>463.942</ele>
<time>2020-09-10T14:48:00Z</time>
</trkpt>
<trkpt lat="48.264965" lon="10.481196">
<ele>463.942</ele>
<time>2020-09-10T14:48:01Z</time>
</trkpt>
<trkpt lat="48.264908" lon="10.481232">
<ele>463.942</ele>
<time>2020-09-10T14:48:02Z</time>
</trkpt>
<trkpt lat="48.264847" lon="10.481269">
<ele>463.942</ele>
<time>2020-09-10T14:48:03Z</time>
</trkpt>
<trkpt lat="48.264786" lon="10.481309">
<ele>463.942</ele>
<time>2020-09-10T14:48:04Z</time>
</trkpt>
<trkpt lat="48.264725" lon="10.481347">
<ele>463.942</ele>
<time>2020-09-10T14:48:05Z</time>
</trkpt>
<trkpt lat="48.264668" lon="10.481382">
<ele>463.942</ele>
<time>2020-09-10T14:48:06Z</time>
</trkpt>
<trkpt lat="48.264606" lon="10.481418">
<ele>463.942</ele>
<time>2020-09-10T14:48:07Z</time>
</trkpt>
<trkpt lat="48.264545" lon="10.481455">
<ele>463.942</ele>
<time>2020-09-10T14:48:08Z</time>
</trkpt>
<trkpt lat="48.264484" lon="10.481489">
<ele>463.942</ele>
<time>2020-09-10T14:48:09Z</time>
</trkpt>
<trkpt lat="48.264427" lon="10.481524">
<ele>463.942</ele>
<time>2020-09-10T14:48:10Z</time>
</trkpt>
<trkpt lat="48.264362" lon="10.481562">
<ele>463.942</ele>
<time>2020-09-10T14:48:11Z</time>
</trkpt>
<trkpt lat="48.264305" lon="10.481598">
<ele>463.942</ele>
<time>2020-09-10T14:48:12Z</time>
</trkpt>
<trkpt lat="48.264248" lon="10.481638">
<ele>463.942</ele>
<time>2020-09-10T14:48:13Z</time>
</trkpt>
<trkpt lat="48.264191" lon="10.48168">
<ele>463.942</ele>
<time>2020-09-10T14:48:14Z</time>
</trkpt>
<trkpt lat="48.264133" lon="10.481718">
<ele>463.942</ele>
<time>2020-09-10T14:48:15Z</time>
</trkpt>
<trkpt lat="48.264069" lon="10.481757">
<ele>463.942</ele>
<time>2020-09-10T14:48:16Z</time>
</trkpt>
<trkpt lat="48.264008" lon="10.481797">
<ele>463.942</ele>
<time>2020-09-10T14:48:17Z</time>
</trkpt>
<trkpt lat="48.263947" lon="10.481835">
<ele>463.942</ele>
<time>2020-09-10T14:48:18Z</time>
</trkpt>
<trkpt lat="48.263889" lon="10.481874">
<ele>463.942</ele>
<time>2020-09-10T14:48:19Z</time>
</trkpt>
<trkpt lat="48.263828" lon="10.481916">
<ele>463.942</ele>
<time>2020-09-10T14:48:20Z</time>
</trkpt>
<trkpt lat="48.263771" lon="10.481958">
<ele>463.942</ele>
<time>2020-09-10T14:48:21Z</time>
</trkpt>
<trkpt lat="48.263706" lon="10.482">
<ele>463.942</ele>
<time>2020-09-10T14:48:22Z</time>
</trkpt>
<trkpt lat="48.263649" lon="10.482042">
<ele>464.234</ele>
<time>2020-09-10T14:48:23Z</time>
</trkpt>
<trkpt lat="48.263596" lon="10.482086">
<ele>464.462</ele>
<time>2020-09-10T14:48:24Z</time>
</trkpt>
<trkpt lat="48.263542" lon="10.482126">
<ele>464.632</ele>
<time>2020-09-10T14:48:25Z</time>
</trkpt>
<trkpt lat="48.263485" lon="10.482166">
<ele>464.759</ele>
<time>2020-09-10T14:48:26Z</time>
</trkpt>
<trkpt lat="48.263432" lon="10.482205">
<ele>464.852</ele>
<time>2020-09-10T14:48:27Z</time>
</trkpt>
<trkpt lat="48.263378" lon="10.482245">
<ele>464.908</ele>
<time>2020-09-10T14:48:28Z</time>
</trkpt>
<trkpt lat="48.263321" lon="10.482287">
<ele>464.954</ele>
<time>2020-09-10T14:48:29Z</time>
</trkpt>
<trkpt lat="48.263268" lon="10.482327">
<ele>464.984</ele>
<time>2020-09-10T14:48:30Z</time>
</trkpt>
<trkpt lat="48.263218" lon="10.482368">
<ele>465.266</ele>
<time>2020-09-10T14:48:31Z</time>
</trkpt>
<trkpt lat="48.263161" lon="10.482411">
<ele>465.486</ele>
<time>2020-09-10T14:48:32Z</time>
</trkpt>
<trkpt lat="48.263107" lon="10.482453">
<ele>465.655</ele>
<time>2020-09-10T14:48:33Z</time>
</trkpt>
<trkpt lat="48.263054" lon="10.482495">
<ele>465.777</ele>
<time>2020-09-10T14:48:34Z</time>
</trkpt>
<trkpt lat="48.263" lon="10.482536">
<ele>465.862</ele>
<time>2020-09-10T14:48:35Z</time>
</trkpt>
<trkpt lat="48.262951" lon="10.482578">
<ele>465.913</ele>
<time>2020-09-10T14:48:36Z</time>
</trkpt>
<trkpt lat="48.262894" lon="10.48262">
<ele>465.937</ele>
<time>2020-09-10T14:48:37Z</time>
</trkpt>
<trkpt lat="48.26284" lon="10.48266">
<ele>465.94</ele>
<time>2020-09-10T14:48:38Z</time>
</trkpt>
<trkpt lat="48.262791" lon="10.482704">
<ele>465.94</ele>
<time>2020-09-10T14:48:39Z</time>
</trkpt>
<trkpt lat="48.262737" lon="10.482743">
<ele>465.94</ele>
<time>2020-09-10T14:48:40Z</time>
</trkpt>
<trkpt lat="48.262684" lon="10.482785">
<ele>465.94</ele>
<time>2020-09-10T14:48:41Z</time>
</trkpt>
<trkpt lat="48.262634" lon="10.482825">
<ele>465.94</ele>
<time>2020-09-10T14:48:42Z</time>
</trkpt>
<trkpt lat="48.262581" lon="10.482863">
<ele>465.94</ele>
<time>2020-09-10T14:48:43Z</time>
</trkpt>
<trkpt lat="48.262531" lon="10.482903">
<ele>465.94</ele>
<time>2020-09-10T14:48:44Z</time>
</trkpt>
<trkpt lat="48.262478" lon="10.482944">
<ele>465.94</ele>
<time>2020-09-10T14:48:45Z</time>
</trkpt>
<trkpt lat="48.262428" lon="10.482982">
<ele>465.94</ele>
<time>2020-09-10T14:48:46Z</time>
</trkpt>
<trkpt lat="48.262371" lon="10.483022">
<ele>465.94</ele>
<time>2020-09-10T14:48:47Z</time>
</trkpt>
<trkpt lat="48.262321" lon="10.483063">
<ele>465.94</ele>
<time>2020-09-10T14:48:48Z</time>
</trkpt>
<trkpt lat="48.262264" lon="10.483105">
<ele>465.94</ele>
<time>2020-09-10T14:48:49Z</time>
</trkpt>
<trkpt lat="48.262207" lon="10.483145">
<ele>466.176</ele>
<time>2020-09-10T14:48:50Z</time>
</trkpt>
<trkpt lat="48.262154" lon="10.483185">
<ele>466.372</ele>
<time>2020-09-10T14:48:51Z</time>
</trkpt>
<trkpt lat="48.2621" lon="10.483224">
<ele>466.534</ele>
<time>2020-09-10T14:48:52Z</time>
</trkpt>
<trkpt lat="48.262047" lon="10.48326">
<ele>466.661</ele>
<time>2020-09-10T14:48:53Z</time>
</trkpt>
<trkpt lat="48.26199" lon="10.483297">
<ele>466.759</ele>
<time>2020-09-10T14:48:54Z</time>
</trkpt>
<trkpt lat="48.261936" lon="10.483333">
<ele>466.828</ele>
<time>2020-09-10T14:48:55Z</time>
</trkpt>
<trkpt lat="48.261883" lon="10.483368">
<ele>466.864</ele>
<time>2020-09-10T14:48:56Z</time>
</trkpt>
<trkpt lat="48.261822" lon="10.483403">
<ele>466.658</ele>
<time>2020-09-10T14:48:57Z</time>
</trkpt>
<trkpt lat="48.261765" lon="10.483438">
<ele>466.468</ele>
<time>2020-09-10T14:48:58Z</time>
</trkpt>
<trkpt lat="48.261707" lon="10.48347">
<ele>466.417</ele>
<time>2020-09-10T14:48:59Z</time>
</trkpt>
<trkpt lat="48.26165" lon="10.483503">
<ele>466.312</ele>
<time>2020-09-10T14:49:00Z</time>
</trkpt>
<trkpt lat="48.261589" lon="10.483537">
<ele>466.238</ele>
<time>2020-09-10T14:49:01Z</time>
</trkpt>
<trkpt lat="48.261528" lon="10.483572">
<ele>466.193</ele>
<time>2020-09-10T14:49:02Z</time>
</trkpt>
<trkpt lat="48.261463" lon="10.483605">
<ele>466.171</ele>
<time>2020-09-10T14:49:03Z</time>
</trkpt>
<trkpt lat="48.261402" lon="10.483637">
<ele>466.171</ele>
<time>2020-09-10T14:49:04Z</time>
</trkpt>
<trkpt lat="48.261333" lon="10.48367">
<ele>466.182</ele>
<time>2020-09-10T14:49:05Z</time>
</trkpt>
<trkpt lat="48.261269" lon="10.4837">
<ele>466.193</ele>
<time>2020-09-10T14:49:06Z</time>
</trkpt>
<trkpt lat="48.261196" lon="10.48373">
<ele>465.955</ele>
<time>2020-09-10T14:49:07Z</time>
</trkpt>
<trkpt lat="48.261131" lon="10.48376">
<ele>465.763</ele>
<time>2020-09-10T14:49:08Z</time>
</trkpt>
<trkpt lat="48.261059" lon="10.483787">
<ele>465.635</ele>
<time>2020-09-10T14:49:09Z</time>
</trkpt>
<trkpt lat="48.260983" lon="10.483812">
<ele>465.503</ele>
<time>2020-09-10T14:49:10Z</time>
</trkpt>
<trkpt lat="48.26091" lon="10.483836">
<ele>465.157</ele>
<time>2020-09-10T14:49:11Z</time>
</trkpt>
<trkpt lat="48.260838" lon="10.483863">
<ele>464.882</ele>
<time>2020-09-10T14:49:12Z</time>
</trkpt>
<trkpt lat="48.260761" lon="10.483887">
<ele>464.675</ele>
<time>2020-09-10T14:49:13Z</time>
</trkpt>
<trkpt lat="48.260685" lon="10.483907">
<ele>464.523</ele>
<time>2020-09-10T14:49:14Z</time>
</trkpt>
<trkpt lat="48.260612" lon="10.483926">
<ele>464.364</ele>
<time>2020-09-10T14:49:15Z</time>
</trkpt>
<trkpt lat="48.260536" lon="10.483945">
<ele>464.313</ele>
<time>2020-09-10T14:49:16Z</time>
</trkpt>
<trkpt lat="48.26046" lon="10.483959">
<ele>464.29</ele>
<time>2020-09-10T14:49:17Z</time>
</trkpt>
<trkpt lat="48.260384" lon="10.483974">
<ele>464.29</ele>
<time>2020-09-10T14:49:18Z</time>
</trkpt>
<trkpt lat="48.260315" lon="10.483985">
<ele>464.29</ele>
<time>2020-09-10T14:49:19Z</time>
</trkpt>
<trkpt lat="48.260239" lon="10.483994">
<ele>464.29</ele>
<time>2020-09-10T14:49:20Z</time>
</trkpt>
<trkpt lat="48.260166" lon="10.484003">
<ele>464.032</ele>
<time>2020-09-10T14:49:21Z</time>
</trkpt>
<trkpt lat="48.260098" lon="10.484012">
<ele>463.835</ele>
<time>2020-09-10T14:49:22Z</time>
</trkpt>
<trkpt lat="48.260029" lon="10.484018">
<ele>463.684</ele>
<time>2020-09-10T14:49:23Z</time>
</trkpt>
<trkpt lat="48.25996" lon="10.484025">
<ele>463.569</ele>
<time>2020-09-10T14:49:24Z</time>
</trkpt>
<trkpt lat="48.259895" lon="10.48403">
<ele>463.492</ele>
<time>2020-09-10T14:49:25Z</time>
</trkpt>
<trkpt lat="48.259827" lon="10.484035">
<ele>463.451</ele>
<time>2020-09-10T14:49:26Z</time>
</trkpt>
<trkpt lat="48.259758" lon="10.48404">
<ele>463.169</ele>
<time>2020-09-10T14:49:27Z</time>
</trkpt>
<trkpt lat="48.259689" lon="10.484047">
<ele>462.961</ele>
<time>2020-09-10T14:49:28Z</time>
</trkpt>
<trkpt lat="48.259624" lon="10.484052">
<ele>462.818</ele>
<time>2020-09-10T14:49:29Z</time>
</trkpt>
<trkpt lat="48.259556" lon="10.484058">
<ele>462.663</ele>
<time>2020-09-10T14:49:30Z</time>
</trkpt>
<trkpt lat="48.259487" lon="10.484065">
<ele>462.545</ele>
<time>2020-09-10T14:49:31Z</time>
</trkpt>
<trkpt lat="48.259418" lon="10.48407">
<ele>462.46</ele>
<time>2020-09-10T14:49:32Z</time>
</trkpt>
<trkpt lat="48.25935" lon="10.484078">
<ele>462.405</ele>
<time>2020-09-10T14:49:33Z</time>
</trkpt>
<trkpt lat="48.259281" lon="10.48409">
<ele>462.379</ele>
<time>2020-09-10T14:49:34Z</time>
</trkpt>
<trkpt lat="48.259212" lon="10.484101">
<ele>462.379</ele>
<time>2020-09-10T14:49:35Z</time>
</trkpt>
<trkpt lat="48.259144" lon="10.484117">
<ele>462.379</ele>
<time>2020-09-10T14:49:36Z</time>
</trkpt>
<trkpt lat="48.259079" lon="10.484132">
<ele>462.379</ele>
<time>2020-09-10T14:49:37Z</time>
</trkpt>
<trkpt lat="48.25901" lon="10.484148">
<ele>462.379</ele>
<time>2020-09-10T14:49:38Z</time>
</trkpt>
<trkpt lat="48.258942" lon="10.484171">
<ele>462.379</ele>
<time>2020-09-10T14:49:39Z</time>
</trkpt>
<trkpt lat="48.258877" lon="10.484196">
<ele>462.612</ele>
<time>2020-09-10T14:49:40Z</time>
</trkpt>
<trkpt lat="48.258812" lon="10.48422">
<ele>462.806</ele>
<time>2020-09-10T14:49:41Z</time>
</trkpt>
<trkpt lat="48.258743" lon="10.484248">
<ele>462.967</ele>
<time>2020-09-10T14:49:42Z</time>
</trkpt>
<trkpt lat="48.258682" lon="10.48428">
<ele>463.095</ele>
<time>2020-09-10T14:49:43Z</time>
</trkpt>
<trkpt lat="48.258617" lon="10.484308">
<ele>463.194</ele>
<time>2020-09-10T14:49:44Z</time>
</trkpt>
<trkpt lat="48.258553" lon="10.484343">
<ele>463.266</ele>
<time>2020-09-10T14:49:45Z</time>
</trkpt>
<trkpt lat="48.258492" lon="10.48438">
<ele>463.312</ele>
<time>2020-09-10T14:49:46Z</time>
</trkpt>
<trkpt lat="48.258427" lon="10.484415">
<ele>463.334</ele>
<time>2020-09-10T14:49:47Z</time>
</trkpt>
<trkpt lat="48.258366" lon="10.484449">
<ele>463.334</ele>
<time>2020-09-10T14:49:48Z</time>
</trkpt>
<trkpt lat="48.258305" lon="10.484487">
<ele>463.334</ele>
<time>2020-09-10T14:49:49Z</time>
</trkpt>
<trkpt lat="48.258247" lon="10.484525">
<ele>463.334</ele>
<time>2020-09-10T14:49:50Z</time>
</trkpt>
<trkpt lat="48.25819" lon="10.484567">
<ele>463.334</ele>
<time>2020-09-10T14:49:51Z</time>
</trkpt>
<trkpt lat="48.258133" lon="10.484615">
<ele>463.334</ele>
<time>2020-09-10T14:49:52Z</time>
</trkpt>
<trkpt lat="48.258076" lon="10.48466">
<ele>463.334</ele>
<time>2020-09-10T14:49:53Z</time>
</trkpt>
<trkpt lat="48.258018" lon="10.48471">
<ele>463.57</ele>
<time>2020-09-10T14:49:54Z</time>
</trkpt>
<trkpt lat="48.257965" lon="10.484761">
<ele>463.756</ele>
<time>2020-09-10T14:49:55Z</time>
</trkpt>
<trkpt lat="48.257908" lon="10.484814">
<ele>463.895</ele>
<time>2020-09-10T14:49:56Z</time>
</trkpt>
<trkpt lat="48.257858" lon="10.484862">
<ele>464.003</ele>
<time>2020-09-10T14:49:57Z</time>
</trkpt>
<trkpt lat="48.257809" lon="10.48491">
<ele>464.076</ele>
<time>2020-09-10T14:49:58Z</time>
</trkpt>
<trkpt lat="48.257759" lon="10.484955">
<ele>464.13</ele>
<time>2020-09-10T14:49:59Z</time>
</trkpt>
<trkpt lat="48.25771" lon="10.485001">
<ele>464.179</ele>
<time>2020-09-10T14:50:00Z</time>
</trkpt>
<trkpt lat="48.257664" lon="10.485051">
<ele>464.203</ele>
<time>2020-09-10T14:50:01Z</time>
</trkpt>
<trkpt lat="48.257618" lon="10.485099">
<ele>464.203</ele>
<time>2020-09-10T14:50:02Z</time>
</trkpt>
<trkpt lat="48.257572" lon="10.485155">
<ele>464.465</ele>
<time>2020-09-10T14:50:03Z</time>
</trkpt>
<trkpt lat="48.257519" lon="10.485213">
<ele>464.677</ele>
<time>2020-09-10T14:50:04Z</time>
</trkpt>
<trkpt lat="48.257473" lon="10.485263">
<ele>464.837</ele>
<time>2020-09-10T14:50:05Z</time>
</trkpt>
<trkpt lat="48.257423" lon="10.485318">
<ele>464.956</ele>
<time>2020-09-10T14:50:06Z</time>
</trkpt>
<trkpt lat="48.257374" lon="10.485378">
<ele>465.042</ele>
<time>2020-09-10T14:50:07Z</time>
</trkpt>
<trkpt lat="48.25732" lon="10.485436">
<ele>465.092</ele>
<time>2020-09-10T14:50:08Z</time>
</trkpt>
<trkpt lat="48.257278" lon="10.485491">
<ele>465.132</ele>
<time>2020-09-10T14:50:09Z</time>
</trkpt>
<trkpt lat="48.257221" lon="10.48554">
<ele>465.158</ele>
<time>2020-09-10T14:50:10Z</time>
</trkpt>
<trkpt lat="48.257168" lon="10.485592">
<ele>465.418</ele>
<time>2020-09-10T14:50:11Z</time>
</trkpt>
<trkpt lat="48.257118" lon="10.485641">
<ele>465.618</ele>
<time>2020-09-10T14:50:12Z</time>
</trkpt>
<trkpt lat="48.257057" lon="10.485694">
<ele>465.772</ele>
<time>2020-09-10T14:50:13Z</time>
</trkpt>
<trkpt lat="48.257004" lon="10.485744">
<ele>465.88</ele>
<time>2020-09-10T14:50:14Z</time>
</trkpt>
<trkpt lat="48.25695" lon="10.485788">
<ele>465.957</ele>
<time>2020-09-10T14:50:15Z</time>
</trkpt>
<trkpt lat="48.256893" lon="10.485833">
<ele>466.002</ele>
<time>2020-09-10T14:50:16Z</time>
</trkpt>
<trkpt lat="48.256836" lon="10.485874">
<ele>466.027</ele>
<time>2020-09-10T14:50:17Z</time>
</trkpt>
<trkpt lat="48.256783" lon="10.485915">
<ele>466.027</ele>
<time>2020-09-10T14:50:18Z</time>
</trkpt>
<trkpt lat="48.256725" lon="10.485955">
<ele>466.027</ele>
<time>2020-09-10T14:50:19Z</time>
</trkpt>
<trkpt lat="48.256668" lon="10.485995">
<ele>466.027</ele>
<time>2020-09-10T14:50:20Z</time>
</trkpt>
<trkpt lat="48.256611" lon="10.486037">
<ele>466.027</ele>
<time>2020-09-10T14:50:21Z</time>
</trkpt>
<trkpt lat="48.256554" lon="10.48608">
<ele>466.027</ele>
<time>2020-09-10T14:50:22Z</time>
</trkpt>
<trkpt lat="48.256496" lon="10.486123">
<ele>466.027</ele>
<time>2020-09-10T14:50:23Z</time>
</trkpt>
<trkpt lat="48.256439" lon="10.486163">
<ele>466.027</ele>
<time>2020-09-10T14:50:24Z</time>
</trkpt>
<trkpt lat="48.256382" lon="10.486201">
<ele>466.28</ele>
<time>2020-09-10T14:50:25Z</time>
</trkpt>
<trkpt lat="48.256329" lon="10.486245">
<ele>466.477</ele>
<time>2020-09-10T14:50:26Z</time>
</trkpt>
<trkpt lat="48.256271" lon="10.486291">
<ele>466.628</ele>
<time>2020-09-10T14:50:27Z</time>
</trkpt>
<trkpt lat="48.25621" lon="10.486339">
<ele>466.744</ele>
<time>2020-09-10T14:50:28Z</time>
</trkpt>
<trkpt lat="48.256157" lon="10.486387">
<ele>466.822</ele>
<time>2020-09-10T14:50:29Z</time>
</trkpt>
<trkpt lat="48.2561" lon="10.486433">
<ele>466.905</ele>
<time>2020-09-10T14:50:30Z</time>
</trkpt>
<trkpt lat="48.256042" lon="10.486484">
<ele>466.957</ele>
<time>2020-09-10T14:50:31Z</time>
</trkpt>
<trkpt lat="48.255981" lon="10.486534">
<ele>466.983</ele>
<time>2020-09-10T14:50:32Z</time>
</trkpt>
<trkpt lat="48.25592" lon="10.486587">
<ele>466.983</ele>
<time>2020-09-10T14:50:33Z</time>
</trkpt>
<trkpt lat="48.255867" lon="10.48664">
<ele>466.983</ele>
<time>2020-09-10T14:50:34Z</time>
</trkpt>
<trkpt lat="48.25581" lon="10.486695">
<ele>466.983</ele>
<time>2020-09-10T14:50:35Z</time>
</trkpt>
<trkpt lat="48.255753" lon="10.486752">
<ele>466.983</ele>
<time>2020-09-10T14:50:36Z</time>
</trkpt>
<trkpt lat="48.255703" lon="10.486812">
<ele>466.765</ele>
<time>2020-09-10T14:50:37Z</time>
</trkpt>
<trkpt lat="48.255653" lon="10.486874">
<ele>466.594</ele>
<time>2020-09-10T14:50:38Z</time>
</trkpt>
<trkpt lat="48.255604" lon="10.486937">
<ele>466.476</ele>
<time>2020-09-10T14:50:39Z</time>
</trkpt>
<trkpt lat="48.255558" lon="10.486999">
<ele>466.351</ele>
<time>2020-09-10T14:50:40Z</time>
</trkpt>
<trkpt lat="48.255505" lon="10.487063">
<ele>466.253</ele>
<time>2020-09-10T14:50:41Z</time>
</trkpt>
<trkpt lat="48.255459" lon="10.487129">
<ele>466.181</ele>
<time>2020-09-10T14:50:42Z</time>
</trkpt>
<trkpt lat="48.255417" lon="10.487196">
<ele>466.136</ele>
<time>2020-09-10T14:50:43Z</time>
</trkpt>
<trkpt lat="48.255367" lon="10.487266">
<ele>466.114</ele>
<time>2020-09-10T14:50:44Z</time>
</trkpt>
<trkpt lat="48.255325" lon="10.487335">
<ele>466.114</ele>
<time>2020-09-10T14:50:45Z</time>
</trkpt>
<trkpt lat="48.255283" lon="10.487407">
<ele>466.114</ele>
<time>2020-09-10T14:50:46Z</time>
</trkpt>
<trkpt lat="48.255241" lon="10.487473">
<ele>466.114</ele>
<time>2020-09-10T14:50:47Z</time>
</trkpt>
<trkpt lat="48.255203" lon="10.487535">
<ele>466.114</ele>
<time>2020-09-10T14:50:48Z</time>
</trkpt>
<trkpt lat="48.255165" lon="10.487597">
<ele>466.114</ele>
<time>2020-09-10T14:50:49Z</time>
</trkpt>
<trkpt lat="48.255127" lon="10.487668">
<ele>466.114</ele>
<time>2020-09-10T14:50:50Z</time>
</trkpt>
<trkpt lat="48.255089" lon="10.487741">
<ele>466.114</ele>
<time>2020-09-10T14:50:51Z</time>
</trkpt>
<trkpt lat="48.255051" lon="10.487814">
<ele>466.114</ele>
<time>2020-09-10T14:50:52Z</time>
</trkpt>
<trkpt lat="48.255013" lon="10.487887">
<ele>466.114</ele>
<time>2020-09-10T14:50:53Z</time>
</trkpt>
<trkpt lat="48.254974" lon="10.487952">
<ele>466.114</ele>
<time>2020-09-10T14:50:54Z</time>
</trkpt>
<trkpt lat="48.25494" lon="10.488027">
<ele>466.114</ele>
<time>2020-09-10T14:50:55Z</time>
</trkpt>
<trkpt lat="48.254906" lon="10.488101">
<ele>466.114</ele>
<time>2020-09-10T14:50:56Z</time>
</trkpt>
<trkpt lat="48.254871" lon="10.488172">
<ele>466.329</ele>
<time>2020-09-10T14:50:57Z</time>
</trkpt>
<trkpt lat="48.254841" lon="10.48824">
<ele>466.499</ele>
<time>2020-09-10T14:50:58Z</time>
</trkpt>
<trkpt lat="48.254807" lon="10.488313">
<ele>466.617</ele>
<time>2020-09-10T14:50:59Z</time>
</trkpt>
<trkpt lat="48.254772" lon="10.488384">
<ele>466.745</ele>
<time>2020-09-10T14:51:00Z</time>
</trkpt>
<trkpt lat="48.254734" lon="10.488457">
<ele>466.844</ele>
<time>2020-09-10T14:51:01Z</time>
</trkpt>
<trkpt lat="48.2547" lon="10.48853">
<ele>466.917</ele>
<time>2020-09-10T14:51:02Z</time>
</trkpt>
<trkpt lat="48.254669" lon="10.488598">
<ele>466.96</ele>
<time>2020-09-10T14:51:03Z</time>
</trkpt>
<trkpt lat="48.254639" lon="10.488668">
<ele>466.983</ele>
<time>2020-09-10T14:51:04Z</time>
</trkpt>
<trkpt lat="48.254608" lon="10.48874">
<ele>466.983</ele>
<time>2020-09-10T14:51:05Z</time>
</trkpt>
<trkpt lat="48.254574" lon="10.488815">
<ele>466.983</ele>
<time>2020-09-10T14:51:06Z</time>
</trkpt>
<trkpt lat="48.254536" lon="10.488892">
<ele>466.983</ele>
<time>2020-09-10T14:51:07Z</time>
</trkpt>
<trkpt lat="48.254501" lon="10.488971">
<ele>466.983</ele>
<time>2020-09-10T14:51:08Z</time>
</trkpt>
<trkpt lat="48.254463" lon="10.489046">
<ele>466.983</ele>
<time>2020-09-10T14:51:09Z</time>
</trkpt>
<trkpt lat="48.254429" lon="10.489118">
<ele>466.983</ele>
<time>2020-09-10T14:51:10Z</time>
</trkpt>
<trkpt lat="48.254395" lon="10.489186">
<ele>466.983</ele>
<time>2020-09-10T14:51:11Z</time>
</trkpt>
<trkpt lat="48.25436" lon="10.489255">
<ele>466.983</ele>
<time>2020-09-10T14:51:12Z</time>
</trkpt>
<trkpt lat="48.254326" lon="10.489325">
<ele>466.983</ele>
<time>2020-09-10T14:51:13Z</time>
</trkpt>
<trkpt lat="48.254295" lon="10.489391">
<ele>466.983</ele>
<time>2020-09-10T14:51:14Z</time>
</trkpt>
<trkpt lat="48.254261" lon="10.489457">
<ele>466.983</ele>
<time>2020-09-10T14:51:15Z</time>
</trkpt>
<trkpt lat="48.254223" lon="10.489522">
<ele>466.983</ele>
<time>2020-09-10T14:51:16Z</time>
</trkpt>
<trkpt lat="48.254189" lon="10.489585">
<ele>466.983</ele>
<time>2020-09-10T14:51:17Z</time>
</trkpt>
<trkpt lat="48.254154" lon="10.48965">
<ele>466.983</ele>
<time>2020-09-10T14:51:18Z</time>
</trkpt>
<trkpt lat="48.254112" lon="10.489713">
<ele>466.983</ele>
<time>2020-09-10T14:51:19Z</time>
</trkpt>
<trkpt lat="48.254078" lon="10.489779">
<ele>466.983</ele>
<time>2020-09-10T14:51:20Z</time>
</trkpt>
<trkpt lat="48.25404" lon="10.489842">
<ele>466.983</ele>
<time>2020-09-10T14:51:21Z</time>
</trkpt>
<trkpt lat="48.254005" lon="10.489903">
<ele>467.286</ele>
<time>2020-09-10T14:51:22Z</time>
</trkpt>
<trkpt lat="48.253967" lon="10.489964">
<ele>467.52</ele>
<time>2020-09-10T14:51:23Z</time>
</trkpt>
<trkpt lat="48.253929" lon="10.490022">
<ele>467.692</ele>
<time>2020-09-10T14:51:24Z</time>
</trkpt>
<trkpt lat="48.253891" lon="10.49008">
<ele>467.826</ele>
<time>2020-09-10T14:51:25Z</time>
</trkpt>
<trkpt lat="48.253853" lon="10.49014">
<ele>467.913</ele>
<time>2020-09-10T14:51:26Z</time>
</trkpt>
<trkpt lat="48.253811" lon="10.490198">
<ele>467.969</ele>
<time>2020-09-10T14:51:27Z</time>
</trkpt>
<trkpt lat="48.253769" lon="10.490253">
<ele>468</ele>
<time>2020-09-10T14:51:28Z</time>
</trkpt>
<trkpt lat="48.253727" lon="10.490308">
<ele>468.025</ele>
<time>2020-09-10T14:51:29Z</time>
</trkpt>
<trkpt lat="48.253685" lon="10.490364">
<ele>468.025</ele>
<time>2020-09-10T14:51:30Z</time>
</trkpt>
<trkpt lat="48.253639" lon="10.49042">
<ele>468.025</ele>
<time>2020-09-10T14:51:31Z</time>
</trkpt>
<trkpt lat="48.253597" lon="10.490477">
<ele>468.025</ele>
<time>2020-09-10T14:51:32Z</time>
</trkpt>
<trkpt lat="48.253555" lon="10.490536">
<ele>468.025</ele>
<time>2020-09-10T14:51:33Z</time>
</trkpt>
<trkpt lat="48.25351" lon="10.490586">
<ele>468.025</ele>
<time>2020-09-10T14:51:34Z</time>
</trkpt>
<trkpt lat="48.253464" lon="10.490635">
<ele>468.025</ele>
<time>2020-09-10T14:51:35Z</time>
</trkpt>
<trkpt lat="48.253414" lon="10.490685">
<ele>468.025</ele>
<time>2020-09-10T14:51:36Z</time>
</trkpt>
<trkpt lat="48.253365" lon="10.490737">
<ele>467.806</ele>
<time>2020-09-10T14:51:37Z</time>
</trkpt>
<trkpt lat="48.253315" lon="10.490795">
<ele>467.633</ele>
<time>2020-09-10T14:51:38Z</time>
</trkpt>
<trkpt lat="48.253265" lon="10.490853">
<ele>467.516</ele>
<time>2020-09-10T14:51:39Z</time>
</trkpt>
<trkpt lat="48.253212" lon="10.490909">
<ele>467.387</ele>
<time>2020-09-10T14:51:40Z</time>
</trkpt>
<trkpt lat="48.253162" lon="10.490961">
<ele>467.289</ele>
<time>2020-09-10T14:51:41Z</time>
</trkpt>
<trkpt lat="48.253109" lon="10.491018">
<ele>467.219</ele>
<time>2020-09-10T14:51:42Z</time>
</trkpt>
<trkpt lat="48.253056" lon="10.491072">
<ele>467.176</ele>
<time>2020-09-10T14:51:43Z</time>
</trkpt>
<trkpt lat="48.253002" lon="10.491129">
<ele>467.156</ele>
<time>2020-09-10T14:51:44Z</time>
</trkpt>
<trkpt lat="48.252949" lon="10.491185">
<ele>467.156</ele>
<time>2020-09-10T14:51:45Z</time>
</trkpt>
<trkpt lat="48.252903" lon="10.491248">
<ele>467.156</ele>
<time>2020-09-10T14:51:46Z</time>
</trkpt>
<trkpt lat="48.252853" lon="10.491315">
<ele>467.156</ele>
<time>2020-09-10T14:51:47Z</time>
</trkpt>
<trkpt lat="48.252815" lon="10.49138">
<ele>467.156</ele>
<time>2020-09-10T14:51:48Z</time>
</trkpt>
<trkpt lat="48.252769" lon="10.491442">
<ele>467.156</ele>
<time>2020-09-10T14:51:49Z</time>
</trkpt>
<trkpt lat="48.25272" lon="10.491493">
<ele>467.156</ele>
<time>2020-09-10T14:51:50Z</time>
</trkpt>
<trkpt lat="48.252666" lon="10.49154">
<ele>467.156</ele>
<time>2020-09-10T14:51:51Z</time>
</trkpt>
<trkpt lat="48.252617" lon="10.491582">
<ele>467.156</ele>
<time>2020-09-10T14:51:52Z</time>
</trkpt>
<trkpt lat="48.25256" lon="10.49162">
<ele>467.156</ele>
<time>2020-09-10T14:51:53Z</time>
</trkpt>
<trkpt lat="48.252502" lon="10.491656">
<ele>467.156</ele>
<time>2020-09-10T14:51:54Z</time>
</trkpt>
<trkpt lat="48.252441" lon="10.491696">
<ele>466.904</ele>
<time>2020-09-10T14:51:55Z</time>
</trkpt>
<trkpt lat="48.252388" lon="10.491736">
<ele>466.703</ele>
<time>2020-09-10T14:51:56Z</time>
</trkpt>
<trkpt lat="48.252331" lon="10.491776">
<ele>466.548</ele>
<time>2020-09-10T14:51:57Z</time>
</trkpt>
<trkpt lat="48.252274" lon="10.491817">
<ele>466.435</ele>
<time>2020-09-10T14:51:58Z</time>
</trkpt>
<trkpt lat="48.25222" lon="10.491857">
<ele>466.357</ele>
<time>2020-09-10T14:51:59Z</time>
</trkpt>
<trkpt lat="48.252163" lon="10.491898">
<ele>466.276</ele>
<time>2020-09-10T14:52:00Z</time>
</trkpt>
<trkpt lat="48.252106" lon="10.49194">
<ele>466.225</ele>
<time>2020-09-10T14:52:01Z</time>
</trkpt>
<trkpt lat="48.252052" lon="10.49198">
<ele>466.201</ele>
<time>2020-09-10T14:52:02Z</time>
</trkpt>
<trkpt lat="48.251995" lon="10.49202">
<ele>466.201</ele>
<time>2020-09-10T14:52:03Z</time>
</trkpt>
<trkpt lat="48.251938" lon="10.492062">
<ele>466.201</ele>
<time>2020-09-10T14:52:04Z</time>
</trkpt>
<trkpt lat="48.251881" lon="10.492102">
<ele>466.201</ele>
<time>2020-09-10T14:52:05Z</time>
</trkpt>
<trkpt lat="48.251823" lon="10.49214">
<ele>466.201</ele>
<time>2020-09-10T14:52:06Z</time>
</trkpt>
<trkpt lat="48.25177" lon="10.492178">
<ele>466.201</ele>
<time>2020-09-10T14:52:07Z</time>
</trkpt>
<trkpt lat="48.251713" lon="10.492216">
<ele>466.201</ele>
<time>2020-09-10T14:52:08Z</time>
</trkpt>
<trkpt lat="48.251656" lon="10.492251">
<ele>466.201</ele>
<time>2020-09-10T14:52:09Z</time>
</trkpt>
<trkpt lat="48.251598" lon="10.492293">
<ele>466.201</ele>
<time>2020-09-10T14:52:10Z</time>
</trkpt>
<trkpt lat="48.251545" lon="10.492338">
<ele>466.201</ele>
<time>2020-09-10T14:52:11Z</time>
</trkpt>
<trkpt lat="48.251488" lon="10.49238">
<ele>466.201</ele>
<time>2020-09-10T14:52:12Z</time>
</trkpt>
<trkpt lat="48.251434" lon="10.492419">
<ele>466.201</ele>
<time>2020-09-10T14:52:13Z</time>
</trkpt>
<trkpt lat="48.251381" lon="10.492458">
<ele>466.201</ele>
<time>2020-09-10T14:52:14Z</time>
</trkpt>
<trkpt lat="48.251324" lon="10.492496">
<ele>466.201</ele>
<time>2020-09-10T14:52:15Z</time>
</trkpt>
<trkpt lat="48.25127" lon="10.492535">
<ele>466.2</ele>
<time>2020-09-10T14:52:16Z</time>
</trkpt>
<trkpt lat="48.251221" lon="10.492575">
<ele>466.201</ele>
<time>2020-09-10T14:52:17Z</time>
</trkpt>
<trkpt lat="48.251163" lon="10.492619">
<ele>466.201</ele>
<time>2020-09-10T14:52:18Z</time>
</trkpt>
<trkpt lat="48.251114" lon="10.492661">
<ele>466.201</ele>
<time>2020-09-10T14:52:19Z</time>
</trkpt>
<trkpt lat="48.25106" lon="10.492704">
<ele>466.201</ele>
<time>2020-09-10T14:52:20Z</time>
</trkpt>
<trkpt lat="48.251007" lon="10.492746">
<ele>466.2</ele>
<time>2020-09-10T14:52:21Z</time>
</trkpt>
<trkpt lat="48.250957" lon="10.492794">
<ele>466.201</ele>
<time>2020-09-10T14:52:22Z</time>
</trkpt>
<trkpt lat="48.250904" lon="10.492836">
<ele>466.201</ele>
<time>2020-09-10T14:52:23Z</time>
</trkpt>
<trkpt lat="48.250851" lon="10.49288">
<ele>466.201</ele>
<time>2020-09-10T14:52:24Z</time>
</trkpt>
<trkpt lat="48.250797" lon="10.492924">
<ele>466.43</ele>
<time>2020-09-10T14:52:25Z</time>
</trkpt>
<trkpt lat="48.250748" lon="10.49297">
<ele>466.608</ele>
<time>2020-09-10T14:52:26Z</time>
</trkpt>
<trkpt lat="48.250702" lon="10.493016">
<ele>466.749</ele>
<time>2020-09-10T14:52:27Z</time>
</trkpt>
<trkpt lat="48.250652" lon="10.493065">
<ele>466.852</ele>
<time>2020-09-10T14:52:28Z</time>
</trkpt>
<trkpt lat="48.250607" lon="10.493114">
<ele>466.924</ele>
<time>2020-09-10T14:52:29Z</time>
</trkpt>
<trkpt lat="48.250561" lon="10.493158">
<ele>466.997</ele>
<time>2020-09-10T14:52:30Z</time>
</trkpt>
<trkpt lat="48.250511" lon="10.493203">
<ele>467.046</ele>
<time>2020-09-10T14:52:31Z</time>
</trkpt>
<trkpt lat="48.250469" lon="10.493245">
<ele>467.07</ele>
<time>2020-09-10T14:52:32Z</time>
</trkpt>
<trkpt lat="48.25042" lon="10.493288">
<ele>467.069</ele>
<time>2020-09-10T14:52:33Z</time>
</trkpt>
<trkpt lat="48.250374" lon="10.49333">
<ele>467.07</ele>
<time>2020-09-10T14:52:34Z</time>
</trkpt>
<trkpt lat="48.250328" lon="10.493372">
<ele>467.07</ele>
<time>2020-09-10T14:52:35Z</time>
</trkpt>
<trkpt lat="48.250282" lon="10.493417">
<ele>467.07</ele>
<time>2020-09-10T14:52:36Z</time>
</trkpt>
<trkpt lat="48.250237" lon="10.493462">
<ele>467.07</ele>
<time>2020-09-10T14:52:37Z</time>
</trkpt>
<trkpt lat="48.250187" lon="10.493503">
<ele>467.07</ele>
<time>2020-09-10T14:52:38Z</time>
</trkpt>
<trkpt lat="48.250141" lon="10.493544">
<ele>467.07</ele>
<time>2020-09-10T14:52:39Z</time>
</trkpt>
<trkpt lat="48.250092" lon="10.493585">
<ele>467.303</ele>
<time>2020-09-10T14:52:40Z</time>
</trkpt>
<trkpt lat="48.250046" lon="10.493627">
<ele>467.499</ele>
<time>2020-09-10T14:52:41Z</time>
</trkpt>
<trkpt lat="48.249992" lon="10.493667">
<ele>467.66</ele>
<time>2020-09-10T14:52:42Z</time>
</trkpt>
<trkpt lat="48.249943" lon="10.493704">
<ele>467.789</ele>
<time>2020-09-10T14:52:43Z</time>
</trkpt>
<trkpt lat="48.249889" lon="10.493739">
<ele>467.887</ele>
<time>2020-09-10T14:52:44Z</time>
</trkpt>
<trkpt lat="48.24984" lon="10.493773">
<ele>467.958</ele>
<time>2020-09-10T14:52:45Z</time>
</trkpt>
<trkpt lat="48.249786" lon="10.493807">
<ele>468.003</ele>
<time>2020-09-10T14:52:46Z</time>
</trkpt>
<trkpt lat="48.249737" lon="10.493837">
<ele>468.025</ele>
<time>2020-09-10T14:52:47Z</time>
</trkpt>
<trkpt lat="48.249683" lon="10.493869">
<ele>468.025</ele>
<time>2020-09-10T14:52:48Z</time>
</trkpt>
<trkpt lat="48.24963" lon="10.4939">
<ele>468.025</ele>
<time>2020-09-10T14:52:49Z</time>
</trkpt>
<trkpt lat="48.249577" lon="10.493932">
<ele>468.025</ele>
<time>2020-09-10T14:52:50Z</time>
</trkpt>
<trkpt lat="48.249523" lon="10.493961">
<ele>468.025</ele>
<time>2020-09-10T14:52:51Z</time>
</trkpt>
<trkpt lat="48.24947" lon="10.493992">
<ele>468.025</ele>
<time>2020-09-10T14:52:52Z</time>
</trkpt>
<trkpt lat="48.249416" lon="10.49402">
<ele>468.025</ele>
<time>2020-09-10T14:52:53Z</time>
</trkpt>
<trkpt lat="48.249363" lon="10.49405">
<ele>468.025</ele>
<time>2020-09-10T14:52:54Z</time>
</trkpt>
<trkpt lat="48.249306" lon="10.494077">
<ele>468.025</ele>
<time>2020-09-10T14:52:55Z</time>
</trkpt>
<trkpt lat="48.249256" lon="10.494102">
<ele>468.025</ele>
<time>2020-09-10T14:52:56Z</time>
</trkpt>
<trkpt lat="48.249199" lon="10.494126">
<ele>468.025</ele>
<time>2020-09-10T14:52:57Z</time>
</trkpt>
<trkpt lat="48.249149" lon="10.49415">
<ele>468.025</ele>
<time>2020-09-10T14:52:58Z</time>
</trkpt>
<trkpt lat="48.249096" lon="10.494173">
<ele>468.025</ele>
<time>2020-09-10T14:52:59Z</time>
</trkpt>
<trkpt lat="48.249039" lon="10.494193">
<ele>468.025</ele>
<time>2020-09-10T14:53:00Z</time>
</trkpt>
<trkpt lat="48.248985" lon="10.494213">
<ele>468.025</ele>
<time>2020-09-10T14:53:01Z</time>
</trkpt>
<trkpt lat="48.248936" lon="10.494233">
<ele>468.025</ele>
<time>2020-09-10T14:53:02Z</time>
</trkpt>
<trkpt lat="48.248878" lon="10.494252">
<ele>468.025</ele>
<time>2020-09-10T14:53:03Z</time>
</trkpt>
<trkpt lat="48.248825" lon="10.494268">
<ele>468.025</ele>
<time>2020-09-10T14:53:04Z</time>
</trkpt>
<trkpt lat="48.248775" lon="10.494286">
<ele>468.025</ele>
<time>2020-09-10T14:53:05Z</time>
</trkpt>
<trkpt lat="48.248722" lon="10.494302">
<ele>468.025</ele>
<time>2020-09-10T14:53:06Z</time>
</trkpt>
<trkpt lat="48.248672" lon="10.494318">
<ele>468.025</ele>
<time>2020-09-10T14:53:07Z</time>
</trkpt>
<trkpt lat="48.248615" lon="10.494336">
<ele>468.255</ele>
<time>2020-09-10T14:53:08Z</time>
</trkpt>
<trkpt lat="48.248566" lon="10.494359">
<ele>468.421</ele>
<time>2020-09-10T14:53:09Z</time>
</trkpt>
<trkpt lat="48.248516" lon="10.494382">
<ele>468.59</ele>
<time>2020-09-10T14:53:10Z</time>
</trkpt>
<trkpt lat="48.248466" lon="10.494408">
<ele>468.727</ele>
<time>2020-09-10T14:53:11Z</time>
</trkpt>
<trkpt lat="48.248417" lon="10.494435">
<ele>468.832</ele>
<time>2020-09-10T14:53:12Z</time>
</trkpt>
<trkpt lat="48.248367" lon="10.494467">
<ele>468.908</ele>
<time>2020-09-10T14:53:13Z</time>
</trkpt>
<trkpt lat="48.248322" lon="10.4945">
<ele>468.957</ele>
<time>2020-09-10T14:53:14Z</time>
</trkpt>
<trkpt lat="48.248272" lon="10.494535">
<ele>468.981</ele>
<time>2020-09-10T14:53:15Z</time>
</trkpt>
<trkpt lat="48.248226" lon="10.494569">
<ele>468.981</ele>
<time>2020-09-10T14:53:16Z</time>
</trkpt>
<trkpt lat="48.248184" lon="10.494598">
<ele>468.981</ele>
<time>2020-09-10T14:53:17Z</time>
</trkpt>
<trkpt lat="48.248142" lon="10.494623">
<ele>468.981</ele>
<time>2020-09-10T14:53:18Z</time>
</trkpt>
<trkpt lat="48.2481" lon="10.49465">
<ele>468.981</ele>
<time>2020-09-10T14:53:19Z</time>
</trkpt>
<trkpt lat="48.248066" lon="10.494674">
<ele>468.981</ele>
<time>2020-09-10T14:53:20Z</time>
</trkpt>
<trkpt lat="48.248035" lon="10.494693">
<ele>468.981</ele>
<time>2020-09-10T14:53:21Z</time>
</trkpt>
<trkpt lat="48.248001" lon="10.494709">
<ele>468.981</ele>
<time>2020-09-10T14:53:22Z</time>
</trkpt>
<trkpt lat="48.247971" lon="10.49472">
<ele>468.981</ele>
<time>2020-09-10T14:53:23Z</time>
</trkpt>
<trkpt lat="48.24794" lon="10.494721">
<ele>468.981</ele>
<time>2020-09-10T14:53:24Z</time>
</trkpt>
<trkpt lat="48.24791" lon="10.494709">
<ele>468.981</ele>
<time>2020-09-10T14:53:25Z</time>
</trkpt>
<trkpt lat="48.24789" lon="10.494672">
<ele>468.981</ele>
<time>2020-09-10T14:53:26Z</time>
</trkpt>
<trkpt lat="48.247875" lon="10.494618">
<ele>468.981</ele>
<time>2020-09-10T14:53:27Z</time>
</trkpt>
<trkpt lat="48.24786" lon="10.494565">
<ele>468.981</ele>
<time>2020-09-10T14:53:28Z</time>
</trkpt>
<trkpt lat="48.247829" lon="10.494516">
<ele>468.981</ele>
<time>2020-09-10T14:53:29Z</time>
</trkpt>
<trkpt lat="48.247799" lon="10.49448">
<ele>468.981</ele>
<time>2020-09-10T14:53:30Z</time>
</trkpt>
<trkpt lat="48.247761" lon="10.494455">
<ele>468.981</ele>
<time>2020-09-10T14:53:31Z</time>
</trkpt>
<trkpt lat="48.247711" lon="10.49444">
<ele>468.981</ele>
<time>2020-09-10T14:53:32Z</time>
</trkpt>
<trkpt lat="48.247669" lon="10.494432">
<ele>468.981</ele>
<time>2020-09-10T14:53:33Z</time>
</trkpt>
<trkpt lat="48.247623" lon="10.494422">
<ele>468.981</ele>
<time>2020-09-10T14:53:34Z</time>
</trkpt>
<trkpt lat="48.247574" lon="10.494411">
<ele>468.981</ele>
<time>2020-09-10T14:53:35Z</time>
</trkpt>
<trkpt lat="48.247528" lon="10.494405">
<ele>468.981</ele>
<time>2020-09-10T14:53:36Z</time>
</trkpt>
<trkpt lat="48.247475" lon="10.4944">
<ele>468.981</ele>
<time>2020-09-10T14:53:37Z</time>
</trkpt>
<trkpt lat="48.247425" lon="10.494397">
<ele>469.266</ele>
<time>2020-09-10T14:53:38Z</time>
</trkpt>
<trkpt lat="48.247375" lon="10.494397">
<ele>469.463</ele>
<time>2020-09-10T14:53:39Z</time>
</trkpt>
<trkpt lat="48.247322" lon="10.494399">
<ele>469.664</ele>
<time>2020-09-10T14:53:40Z</time>
</trkpt>
<trkpt lat="48.247272" lon="10.494403">
<ele>469.825</ele>
<time>2020-09-10T14:53:41Z</time>
</trkpt>
<trkpt lat="48.247219" lon="10.494408">
<ele>469.944</ele>
<time>2020-09-10T14:53:42Z</time>
</trkpt>
<trkpt lat="48.247173" lon="10.49441">
<ele>470.029</ele>
<time>2020-09-10T14:53:43Z</time>
</trkpt>
<trkpt lat="48.24712" lon="10.494415">
<ele>470.083</ele>
<time>2020-09-10T14:53:44Z</time>
</trkpt>
<trkpt lat="48.247074" lon="10.494422">
<ele>470.11</ele>
<time>2020-09-10T14:53:45Z</time>
</trkpt>
<trkpt lat="48.247021" lon="10.494427">
<ele>470.11</ele>
<time>2020-09-10T14:53:46Z</time>
</trkpt>
<trkpt lat="48.246979" lon="10.494433">
<ele>470.11</ele>
<time>2020-09-10T14:53:47Z</time>
</trkpt>
<trkpt lat="48.246937" lon="10.494438">
<ele>470.11</ele>
<time>2020-09-10T14:53:48Z</time>
</trkpt>
<trkpt lat="48.246891" lon="10.494445">
<ele>470.11</ele>
<time>2020-09-10T14:53:49Z</time>
</trkpt>
<trkpt lat="48.246853" lon="10.494456">
<ele>470.11</ele>
<time>2020-09-10T14:53:50Z</time>
</trkpt>
<trkpt lat="48.246811" lon="10.494471">
<ele>470.11</ele>
<time>2020-09-10T14:53:51Z</time>
</trkpt>
<trkpt lat="48.246769" lon="10.494485">
<ele>470.11</ele>
<time>2020-09-10T14:53:52Z</time>
</trkpt>
<trkpt lat="48.246727" lon="10.494498">
<ele>470.11</ele>
<time>2020-09-10T14:53:53Z</time>
</trkpt>
<trkpt lat="48.246689" lon="10.49451">
<ele>470.11</ele>
<time>2020-09-10T14:53:54Z</time>
</trkpt>
<trkpt lat="48.246647" lon="10.494522">
<ele>470.11</ele>
<time>2020-09-10T14:53:55Z</time>
</trkpt>
<trkpt lat="48.246605" lon="10.494537">
<ele>470.377</ele>
<time>2020-09-10T14:53:56Z</time>
</trkpt>
<trkpt lat="48.246567" lon="10.494554">
<ele>470.588</ele>
<time>2020-09-10T14:53:57Z</time>
</trkpt>
<trkpt lat="48.246529" lon="10.494572">
<ele>470.749</ele>
<time>2020-09-10T14:53:58Z</time>
</trkpt>
<trkpt lat="48.246494" lon="10.494585">
<ele>470.861</ele>
<time>2020-09-10T14:53:59Z</time>
</trkpt>
<trkpt lat="48.24646" lon="10.494598">
<ele>470.981</ele>
<time>2020-09-10T14:54:00Z</time>
</trkpt>
<trkpt lat="48.246429" lon="10.494612">
<ele>471.069</ele>
<time>2020-09-10T14:54:01Z</time>
</trkpt>
<trkpt lat="48.246395" lon="10.494617">
<ele>471.125</ele>
<time>2020-09-10T14:54:02Z</time>
</trkpt>
<trkpt lat="48.246361" lon="10.494615">
<ele>471.153</ele>
<time>2020-09-10T14:54:03Z</time>
</trkpt>
<trkpt lat="48.246323" lon="10.494613">
<ele>471.153</ele>
<time>2020-09-10T14:54:04Z</time>
</trkpt>
<trkpt lat="48.246288" lon="10.494602">
<ele>471.153</ele>
<time>2020-09-10T14:54:05Z</time>
</trkpt>
<trkpt lat="48.246254" lon="10.494587">
<ele>471.153</ele>
<time>2020-09-10T14:54:06Z</time>
</trkpt>
<trkpt lat="48.246216" lon="10.494569">
<ele>471.153</ele>
<time>2020-09-10T14:54:07Z</time>
</trkpt>
<trkpt lat="48.24617" lon="10.494552">
<ele>471.153</ele>
<time>2020-09-10T14:54:08Z</time>
</trkpt>
<trkpt lat="48.246124" lon="10.49455">
<ele>471.153</ele>
<time>2020-09-10T14:54:09Z</time>
</trkpt>
<trkpt lat="48.246078" lon="10.494552">
<ele>471.153</ele>
<time>2020-09-10T14:54:10Z</time>
</trkpt>
<trkpt lat="48.246033" lon="10.494554">
<ele>471.459</ele>
<time>2020-09-10T14:54:11Z</time>
</trkpt>
<trkpt lat="48.245987" lon="10.494558">
<ele>471.69</ele>
<time>2020-09-10T14:54:12Z</time>
</trkpt>
<trkpt lat="48.245941" lon="10.49456">
<ele>471.851</ele>
<time>2020-09-10T14:54:13Z</time>
</trkpt>
<trkpt lat="48.245895" lon="10.494562">
<ele>471.964</ele>
<time>2020-09-10T14:54:14Z</time>
</trkpt>
<trkpt lat="48.245846" lon="10.494565">
<ele>472.031</ele>
<time>2020-09-10T14:54:15Z</time>
</trkpt>
<trkpt lat="48.245804" lon="10.494567">
<ele>472.08</ele>
<time>2020-09-10T14:54:16Z</time>
</trkpt>
<trkpt lat="48.245758" lon="10.494567">
<ele>472.109</ele>
<time>2020-09-10T14:54:17Z</time>
</trkpt>
<trkpt lat="48.245712" lon="10.494569">
<ele>472.109</ele>
<time>2020-09-10T14:54:18Z</time>
</trkpt>
<trkpt lat="48.245667" lon="10.494571">
<ele>472.109</ele>
<time>2020-09-10T14:54:19Z</time>
</trkpt>
<trkpt lat="48.245617" lon="10.494572">
<ele>472.109</ele>
<time>2020-09-10T14:54:20Z</time>
</trkpt>
<trkpt lat="48.245571" lon="10.494574">
<ele>472.421</ele>
<time>2020-09-10T14:54:21Z</time>
</trkpt>
<trkpt lat="48.245518" lon="10.494571">
<ele>472.664</ele>
<time>2020-09-10T14:54:22Z</time>
</trkpt>
<trkpt lat="48.245472" lon="10.494569">
<ele>472.848</ele>
<time>2020-09-10T14:54:23Z</time>
</trkpt>
<trkpt lat="48.245419" lon="10.494569">
<ele>472.979</ele>
<time>2020-09-10T14:54:24Z</time>
</trkpt>
<trkpt lat="48.245365" lon="10.494567">
<ele>473.068</ele>
<time>2020-09-10T14:54:25Z</time>
</trkpt>
<trkpt lat="48.245316" lon="10.494562">
<ele>473.122</ele>
<time>2020-09-10T14:54:26Z</time>
</trkpt>
<trkpt lat="48.245258" lon="10.494556">
<ele>473.152</ele>
<time>2020-09-10T14:54:27Z</time>
</trkpt>
<trkpt lat="48.245205" lon="10.494552">
<ele>473.152</ele>
<time>2020-09-10T14:54:28Z</time>
</trkpt>
<trkpt lat="48.245152" lon="10.494548">
<ele>473.152</ele>
<time>2020-09-10T14:54:29Z</time>
</trkpt>
<trkpt lat="48.245094" lon="10.494546">
<ele>473.152</ele>
<time>2020-09-10T14:54:30Z</time>
</trkpt>
<trkpt lat="48.245037" lon="10.494541">
<ele>473.152</ele>
<time>2020-09-10T14:54:31Z</time>
</trkpt>
<trkpt lat="48.24498" lon="10.494535">
<ele>473.152</ele>
<time>2020-09-10T14:54:32Z</time>
</trkpt>
<trkpt lat="48.244923" lon="10.49453">
<ele>472.878</ele>
<time>2020-09-10T14:54:33Z</time>
</trkpt>
<trkpt lat="48.244862" lon="10.494525">
<ele>472.667</ele>
<time>2020-09-10T14:54:34Z</time>
</trkpt>
<trkpt lat="48.244801" lon="10.494522">
<ele>472.508</ele>
<time>2020-09-10T14:54:35Z</time>
</trkpt>
<trkpt lat="48.244736" lon="10.494518">
<ele>472.392</ele>
<time>2020-09-10T14:54:36Z</time>
</trkpt>
<trkpt lat="48.244678" lon="10.494514">
<ele>472.315</ele>
<time>2020-09-10T14:54:37Z</time>
</trkpt>
<trkpt lat="48.244617" lon="10.494512">
<ele>472.274</ele>
<time>2020-09-10T14:54:38Z</time>
</trkpt>
<trkpt lat="48.244553" lon="10.494505">
<ele>472.007</ele>
<time>2020-09-10T14:54:39Z</time>
</trkpt>
<trkpt lat="48.244492" lon="10.4945">
<ele>471.778</ele>
<time>2020-09-10T14:54:40Z</time>
</trkpt>
<trkpt lat="48.244427" lon="10.494493">
<ele>471.613</ele>
<time>2020-09-10T14:54:41Z</time>
</trkpt>
<trkpt lat="48.244366" lon="10.494485">
<ele>471.482</ele>
<time>2020-09-10T14:54:42Z</time>
</trkpt>
<trkpt lat="48.244305" lon="10.494476">
<ele>471.381</ele>
<time>2020-09-10T14:54:43Z</time>
</trkpt>
<trkpt lat="48.244244" lon="10.494472">
<ele>471.309</ele>
<time>2020-09-10T14:54:44Z</time>
</trkpt>
<trkpt lat="48.244183" lon="10.494464">
<ele>471.262</ele>
<time>2020-09-10T14:54:45Z</time>
</trkpt>
<trkpt lat="48.244129" lon="10.494453">
<ele>471.24</ele>
<time>2020-09-10T14:54:46Z</time>
</trkpt>
<trkpt lat="48.244076" lon="10.494441">
<ele>471.24</ele>
<time>2020-09-10T14:54:47Z</time>
</trkpt>
<trkpt lat="48.244019" lon="10.494425">
<ele>471.24</ele>
<time>2020-09-10T14:54:48Z</time>
</trkpt>
<trkpt lat="48.243969" lon="10.494401">
<ele>471.24</ele>
<time>2020-09-10T14:54:49Z</time>
</trkpt>
<trkpt lat="48.243919" lon="10.494376">
<ele>471.24</ele>
<time>2020-09-10T14:54:50Z</time>
</trkpt>
<trkpt lat="48.243862" lon="10.494353">
<ele>471.24</ele>
<time>2020-09-10T14:54:51Z</time>
</trkpt>
<trkpt lat="48.243809" lon="10.494326">
<ele>471.24</ele>
<time>2020-09-10T14:54:52Z</time>
</trkpt>
<trkpt lat="48.243755" lon="10.494295">
<ele>471.24</ele>
<time>2020-09-10T14:54:53Z</time>
</trkpt>
<trkpt lat="48.243706" lon="10.494265">
<ele>471.24</ele>
<time>2020-09-10T14:54:54Z</time>
</trkpt>
<trkpt lat="48.243656" lon="10.494231">
<ele>471.24</ele>
<time>2020-09-10T14:54:55Z</time>
</trkpt>
<trkpt lat="48.243603" lon="10.4942">
<ele>471.24</ele>
<time>2020-09-10T14:54:56Z</time>
</trkpt>
<trkpt lat="48.243553" lon="10.494173">
<ele>471.499</ele>
<time>2020-09-10T14:54:57Z</time>
</trkpt>
<trkpt lat="48.243504" lon="10.494145">
<ele>471.703</ele>
<time>2020-09-10T14:54:58Z</time>
</trkpt>
<trkpt lat="48.243454" lon="10.494119">
<ele>471.845</ele>
<time>2020-09-10T14:54:59Z</time>
</trkpt>
<trkpt lat="48.243397" lon="10.494095">
<ele>471.998</ele>
<time>2020-09-10T14:55:00Z</time>
</trkpt>
<trkpt lat="48.243343" lon="10.494074">
<ele>472.117</ele>
<time>2020-09-10T14:55:01Z</time>
</trkpt>
<trkpt lat="48.243294" lon="10.494057">
<ele>472.202</ele>
<time>2020-09-10T14:55:02Z</time>
</trkpt>
<trkpt lat="48.243237" lon="10.494041">
<ele>472.254</ele>
<time>2020-09-10T14:55:03Z</time>
</trkpt>
<trkpt lat="48.243183" lon="10.494024">
<ele>472.516</ele>
<time>2020-09-10T14:55:04Z</time>
</trkpt>
<trkpt lat="48.243134" lon="10.494007">
<ele>472.745</ele>
<time>2020-09-10T14:55:05Z</time>
</trkpt>
<trkpt lat="48.243076" lon="10.493988">
<ele>472.901</ele>
<time>2020-09-10T14:55:06Z</time>
</trkpt>
<trkpt lat="48.243027" lon="10.493968">
<ele>473.015</ele>
<time>2020-09-10T14:55:07Z</time>
</trkpt>
<trkpt lat="48.242973" lon="10.493947">
<ele>473.097</ele>
<time>2020-09-10T14:55:08Z</time>
</trkpt>
<trkpt lat="48.24292" lon="10.493925">
<ele>473.159</ele>
<time>2020-09-10T14:55:09Z</time>
</trkpt>
<trkpt lat="48.24287" lon="10.4939">
<ele>473.213</ele>
<time>2020-09-10T14:55:10Z</time>
</trkpt>
<trkpt lat="48.242821" lon="10.493874">
<ele>473.239</ele>
<time>2020-09-10T14:55:11Z</time>
</trkpt>
<trkpt lat="48.242771" lon="10.493838">
<ele>473.515</ele>
<time>2020-09-10T14:55:12Z</time>
</trkpt>
<trkpt lat="48.242722" lon="10.4938">
<ele>473.729</ele>
<time>2020-09-10T14:55:13Z</time>
</trkpt>
<trkpt lat="48.242672" lon="10.493756">
<ele>473.893</ele>
<time>2020-09-10T14:55:14Z</time>
</trkpt>
<trkpt lat="48.242622" lon="10.493711">
<ele>474.012</ele>
<time>2020-09-10T14:55:15Z</time>
</trkpt>
<trkpt lat="48.242573" lon="10.493667">
<ele>474.094</ele>
<time>2020-09-10T14:55:16Z</time>
</trkpt>
<trkpt lat="48.242519" lon="10.49362">
<ele>474.15</ele>
<time>2020-09-10T14:55:17Z</time>
</trkpt>
<trkpt lat="48.242466" lon="10.493575">
<ele>474.174</ele>
<time>2020-09-10T14:55:18Z</time>
</trkpt>
<trkpt lat="48.242413" lon="10.493531">
<ele>474.195</ele>
<time>2020-09-10T14:55:19Z</time>
</trkpt>
<trkpt lat="48.242355" lon="10.493488">
<ele>474.195</ele>
<time>2020-09-10T14:55:20Z</time>
</trkpt>
<trkpt lat="48.242294" lon="10.493443">
<ele>474.195</ele>
<time>2020-09-10T14:55:21Z</time>
</trkpt>
<trkpt lat="48.242237" lon="10.493398">
<ele>474.195</ele>
<time>2020-09-10T14:55:22Z</time>
</trkpt>
<trkpt lat="48.242176" lon="10.493358">
<ele>474.195</ele>
<time>2020-09-10T14:55:23Z</time>
</trkpt>
<trkpt lat="48.242115" lon="10.49332">
<ele>473.928</ele>
<time>2020-09-10T14:55:24Z</time>
</trkpt>
<trkpt lat="48.24205" lon="10.493288">
<ele>473.724</ele>
<time>2020-09-10T14:55:25Z</time>
</trkpt>
<trkpt lat="48.241985" lon="10.493268">
<ele>473.569</ele>
<time>2020-09-10T14:55:26Z</time>
</trkpt>
<trkpt lat="48.241913" lon="10.493255">
<ele>473.481</ele>
<time>2020-09-10T14:55:27Z</time>
</trkpt>
<trkpt lat="48.24184" lon="10.493247">
<ele>473.154</ele>
<time>2020-09-10T14:55:28Z</time>
</trkpt>
<trkpt lat="48.241768" lon="10.493243">
<ele>472.913</ele>
<time>2020-09-10T14:55:29Z</time>
</trkpt>
<trkpt lat="48.241699" lon="10.493242">
<ele>472.69</ele>
<time>2020-09-10T14:55:30Z</time>
</trkpt>
<trkpt lat="48.241631" lon="10.493245">
<ele>472.529</ele>
<time>2020-09-10T14:55:31Z</time>
</trkpt>
<trkpt lat="48.241558" lon="10.493245">
<ele>472.426</ele>
<time>2020-09-10T14:55:32Z</time>
</trkpt>
<trkpt lat="48.241493" lon="10.493243">
<ele>472.353</ele>
<time>2020-09-10T14:55:33Z</time>
</trkpt>
<trkpt lat="48.241428" lon="10.493238">
<ele>472.306</ele>
<time>2020-09-10T14:55:34Z</time>
</trkpt>
<trkpt lat="48.241364" lon="10.493238">
<ele>472.283</ele>
<time>2020-09-10T14:55:35Z</time>
</trkpt>
<trkpt lat="48.241295" lon="10.493237">
<ele>472.283</ele>
<time>2020-09-10T14:55:36Z</time>
</trkpt>
<trkpt lat="48.24123" lon="10.493237">
<ele>472.283</ele>
<time>2020-09-10T14:55:37Z</time>
</trkpt>
<trkpt lat="48.241161" lon="10.493232">
<ele>472.283</ele>
<time>2020-09-10T14:55:38Z</time>
</trkpt>
<trkpt lat="48.241096" lon="10.493226">
<ele>472.283</ele>
<time>2020-09-10T14:55:39Z</time>
</trkpt>
<trkpt lat="48.241028" lon="10.493221">
<ele>472.283</ele>
<time>2020-09-10T14:55:40Z</time>
</trkpt>
<trkpt lat="48.240955" lon="10.493223">
<ele>472.283</ele>
<time>2020-09-10T14:55:41Z</time>
</trkpt>
<trkpt lat="48.240887" lon="10.493225">
<ele>472.283</ele>
<time>2020-09-10T14:55:42Z</time>
</trkpt>
<trkpt lat="48.240814" lon="10.493225">
<ele>472.01</ele>
<time>2020-09-10T14:55:43Z</time>
</trkpt>
<trkpt lat="48.240738" lon="10.493226">
<ele>471.8</ele>
<time>2020-09-10T14:55:44Z</time>
</trkpt>
<trkpt lat="48.240665" lon="10.49323">
<ele>471.641</ele>
<time>2020-09-10T14:55:45Z</time>
</trkpt>
<trkpt lat="48.240593" lon="10.493232">
<ele>471.549</ele>
<time>2020-09-10T14:55:46Z</time>
</trkpt>
<trkpt lat="48.240517" lon="10.493235">
<ele>471.236</ele>
<time>2020-09-10T14:55:47Z</time>
</trkpt>
<trkpt lat="48.240437" lon="10.493238">
<ele>471.006</ele>
<time>2020-09-10T14:55:48Z</time>
</trkpt>
<trkpt lat="48.24036" lon="10.493243">
<ele>470.843</ele>
<time>2020-09-10T14:55:49Z</time>
</trkpt>
<trkpt lat="48.240284" lon="10.49325">
<ele>470.689</ele>
<time>2020-09-10T14:55:50Z</time>
</trkpt>
<trkpt lat="48.240204" lon="10.493261">
<ele>470.593</ele>
<time>2020-09-10T14:55:51Z</time>
</trkpt>
<trkpt lat="48.240128" lon="10.493275">
<ele>470.528</ele>
<time>2020-09-10T14:55:52Z</time>
</trkpt>
<trkpt lat="48.240051" lon="10.49329">
<ele>470.225</ele>
<time>2020-09-10T14:55:53Z</time>
</trkpt>
<trkpt lat="48.239979" lon="10.493305">
<ele>469.991</ele>
<time>2020-09-10T14:55:54Z</time>
</trkpt>
<trkpt lat="48.23991" lon="10.493319">
<ele>469.766</ele>
<time>2020-09-10T14:55:55Z</time>
</trkpt>
<trkpt lat="48.239845" lon="10.49333">
<ele>469.638</ele>
<time>2020-09-10T14:55:56Z</time>
</trkpt>
<trkpt lat="48.239777" lon="10.493345">
<ele>469.74</ele>
<time>2020-09-10T14:55:57Z</time>
</trkpt>
<trkpt lat="48.239712" lon="10.49336">
<ele>469.836</ele>
<time>2020-09-10T14:55:58Z</time>
</trkpt>
<trkpt lat="48.239655" lon="10.493368">
<ele>469.915</ele>
<time>2020-09-10T14:55:59Z</time>
</trkpt>
<trkpt lat="48.23959" lon="10.493375">
<ele>469.997</ele>
<time>2020-09-10T14:56:00Z</time>
</trkpt>
<trkpt lat="48.239529" lon="10.493379">
<ele>470.045</ele>
<time>2020-09-10T14:56:01Z</time>
</trkpt>
<trkpt lat="48.239464" lon="10.493381">
<ele>470.144</ele>
<time>2020-09-10T14:56:02Z</time>
</trkpt>
<trkpt lat="48.239403" lon="10.493383">
<ele>470.215</ele>
<time>2020-09-10T14:56:03Z</time>
</trkpt>
<trkpt lat="48.239346" lon="10.493389">
<ele>470.262</ele>
<time>2020-09-10T14:56:04Z</time>
</trkpt>
<trkpt lat="48.239285" lon="10.493392">
<ele>470.284</ele>
<time>2020-09-10T14:56:05Z</time>
</trkpt>
<trkpt lat="48.239223" lon="10.493393">
<ele>470.284</ele>
<time>2020-09-10T14:56:06Z</time>
</trkpt>
<trkpt lat="48.239166" lon="10.493393">
<ele>470.284</ele>
<time>2020-09-10T14:56:07Z</time>
</trkpt>
<trkpt lat="48.239109" lon="10.493393">
<ele>470.284</ele>
<time>2020-09-10T14:56:08Z</time>
</trkpt>
<trkpt lat="48.239052" lon="10.49339">
<ele>470.284</ele>
<time>2020-09-10T14:56:09Z</time>
</trkpt>
<trkpt lat="48.238995" lon="10.49339">
<ele>470.284</ele>
<time>2020-09-10T14:56:10Z</time>
</trkpt>
<trkpt lat="48.238937" lon="10.493385">
<ele>470.284</ele>
<time>2020-09-10T14:56:11Z</time>
</trkpt>
<trkpt lat="48.238884" lon="10.493383">
<ele>470.284</ele>
<time>2020-09-10T14:56:12Z</time>
</trkpt>
<trkpt lat="48.238834" lon="10.493383">
<ele>470.546</ele>
<time>2020-09-10T14:56:13Z</time>
</trkpt>
<trkpt lat="48.238781" lon="10.493382">
<ele>470.751</ele>
<time>2020-09-10T14:56:14Z</time>
</trkpt>
<trkpt lat="48.238731" lon="10.493385">
<ele>470.91</ele>
<time>2020-09-10T14:56:15Z</time>
</trkpt>
<trkpt lat="48.238678" lon="10.493381">
<ele>471.028</ele>
<time>2020-09-10T14:56:16Z</time>
</trkpt>
<trkpt lat="48.238628" lon="10.49337">
<ele>471.115</ele>
<time>2020-09-10T14:56:17Z</time>
</trkpt>
<trkpt lat="48.238575" lon="10.493357">
<ele>471.168</ele>
<time>2020-09-10T14:56:18Z</time>
</trkpt>
<trkpt lat="48.238525" lon="10.493343">
<ele>471.212</ele>
<time>2020-09-10T14:56:19Z</time>
</trkpt>
<trkpt lat="48.23848" lon="10.493337">
<ele>471.469</ele>
<time>2020-09-10T14:56:20Z</time>
</trkpt>
<trkpt lat="48.238438" lon="10.493333">
<ele>471.663</ele>
<time>2020-09-10T14:56:21Z</time>
</trkpt>
<trkpt lat="48.238392" lon="10.493332">
<ele>471.82</ele>
<time>2020-09-10T14:56:22Z</time>
</trkpt>
<trkpt lat="48.238346" lon="10.493335">
<ele>471.948</ele>
<time>2020-09-10T14:56:23Z</time>
</trkpt>
<trkpt lat="48.2383" lon="10.493341">
<ele>472.048</ele>
<time>2020-09-10T14:56:24Z</time>
</trkpt>
<trkpt lat="48.238247" lon="10.493348">
<ele>472.123</ele>
<time>2020-09-10T14:56:25Z</time>
</trkpt>
<trkpt lat="48.238201" lon="10.493358">
<ele>472.172</ele>
<time>2020-09-10T14:56:26Z</time>
</trkpt>
<trkpt lat="48.238148" lon="10.493373">
<ele>472.196</ele>
<time>2020-09-10T14:56:27Z</time>
</trkpt>
<trkpt lat="48.238094" lon="10.493392">
<ele>472.196</ele>
<time>2020-09-10T14:56:28Z</time>
</trkpt>
<trkpt lat="48.238041" lon="10.493413">
<ele>472.196</ele>
<time>2020-09-10T14:56:29Z</time>
</trkpt>
<trkpt lat="48.237988" lon="10.493437">
<ele>472.196</ele>
<time>2020-09-10T14:56:30Z</time>
</trkpt>
<trkpt lat="48.237934" lon="10.493463">
<ele>472.196</ele>
<time>2020-09-10T14:56:31Z</time>
</trkpt>
<trkpt lat="48.237885" lon="10.493494">
<ele>472.196</ele>
<time>2020-09-10T14:56:32Z</time>
</trkpt>
<trkpt lat="48.237827" lon="10.493524">
<ele>472.196</ele>
<time>2020-09-10T14:56:33Z</time>
</trkpt>
<trkpt lat="48.237778" lon="10.49355">
<ele>472.196</ele>
<time>2020-09-10T14:56:34Z</time>
</trkpt>
<trkpt lat="48.237724" lon="10.493578">
<ele>472.196</ele>
<time>2020-09-10T14:56:35Z</time>
</trkpt>
<trkpt lat="48.237667" lon="10.493607">
<ele>472.196</ele>
<time>2020-09-10T14:56:36Z</time>
</trkpt>
<trkpt lat="48.23761" lon="10.493635">
<ele>472.196</ele>
<time>2020-09-10T14:56:37Z</time>
</trkpt>
<trkpt lat="48.237553" lon="10.493664">
<ele>472.196</ele>
<time>2020-09-10T14:56:38Z</time>
</trkpt>
<trkpt lat="48.237495" lon="10.493691">
<ele>472.392</ele>
<time>2020-09-10T14:56:39Z</time>
</trkpt>
<trkpt lat="48.237438" lon="10.493716">
<ele>472.576</ele>
<time>2020-09-10T14:56:40Z</time>
</trkpt>
<trkpt lat="48.237385" lon="10.49374">
<ele>472.726</ele>
<time>2020-09-10T14:56:41Z</time>
</trkpt>
<trkpt lat="48.237328" lon="10.493762">
<ele>472.845</ele>
<time>2020-09-10T14:56:42Z</time>
</trkpt>
<trkpt lat="48.237267" lon="10.493781">
<ele>472.936</ele>
<time>2020-09-10T14:56:43Z</time>
</trkpt>
<trkpt lat="48.237209" lon="10.493802">
<ele>473.002</ele>
<time>2020-09-10T14:56:44Z</time>
</trkpt>
<trkpt lat="48.237152" lon="10.49382">
<ele>473.044</ele>
<time>2020-09-10T14:56:45Z</time>
</trkpt>
<trkpt lat="48.237095" lon="10.493837">
<ele>473.065</ele>
<time>2020-09-10T14:56:46Z</time>
</trkpt>
<trkpt lat="48.237038" lon="10.493852">
<ele>473.066</ele>
<time>2020-09-10T14:56:47Z</time>
</trkpt>
<trkpt lat="48.236977" lon="10.493867">
<ele>473.066</ele>
<time>2020-09-10T14:56:48Z</time>
</trkpt>
<trkpt lat="48.236919" lon="10.493879">
<ele>473.066</ele>
<time>2020-09-10T14:56:49Z</time>
</trkpt>
<trkpt lat="48.236862" lon="10.493892">
<ele>473.066</ele>
<time>2020-09-10T14:56:50Z</time>
</trkpt>
<trkpt lat="48.236805" lon="10.493902">
<ele>473.065</ele>
<time>2020-09-10T14:56:51Z</time>
</trkpt>
<trkpt lat="48.236748" lon="10.493912">
<ele>473.066</ele>
<time>2020-09-10T14:56:52Z</time>
</trkpt>
<trkpt lat="48.236691" lon="10.493918">
<ele>473.066</ele>
<time>2020-09-10T14:56:53Z</time>
</trkpt>
<trkpt lat="48.236633" lon="10.493925">
<ele>473.066</ele>
<time>2020-09-10T14:56:54Z</time>
</trkpt>
<trkpt lat="48.236576" lon="10.493932">
<ele>473.066</ele>
<time>2020-09-10T14:56:55Z</time>
</trkpt>
<trkpt lat="48.236519" lon="10.493934">
<ele>473.066</ele>
<time>2020-09-10T14:56:56Z</time>
</trkpt>
<trkpt lat="48.236458" lon="10.493938">
<ele>473.066</ele>
<time>2020-09-10T14:56:57Z</time>
</trkpt>
<trkpt lat="48.236401" lon="10.493943">
<ele>473.066</ele>
<time>2020-09-10T14:56:58Z</time>
</trkpt>
<trkpt lat="48.236343" lon="10.493949">
<ele>473.066</ele>
<time>2020-09-10T14:56:59Z</time>
</trkpt>
<trkpt lat="48.236286" lon="10.493953">
<ele>473.066</ele>
<time>2020-09-10T14:57:00Z</time>
</trkpt>
<trkpt lat="48.236225" lon="10.493959">
<ele>473.065</ele>
<time>2020-09-10T14:57:01Z</time>
</trkpt>
<trkpt lat="48.236168" lon="10.493967">
<ele>473.066</ele>
<time>2020-09-10T14:57:02Z</time>
</trkpt>
<trkpt lat="48.236111" lon="10.493972">
<ele>473.359</ele>
<time>2020-09-10T14:57:03Z</time>
</trkpt>
<trkpt lat="48.236057" lon="10.493976">
<ele>473.584</ele>
<time>2020-09-10T14:57:04Z</time>
</trkpt>
<trkpt lat="48.235996" lon="10.493982">
<ele>473.76</ele>
<time>2020-09-10T14:57:05Z</time>
</trkpt>
<trkpt lat="48.235939" lon="10.493988">
<ele>473.889</ele>
<time>2020-09-10T14:57:06Z</time>
</trkpt>
<trkpt lat="48.235882" lon="10.493993">
<ele>473.974</ele>
<time>2020-09-10T14:57:07Z</time>
</trkpt>
<trkpt lat="48.235825" lon="10.493995">
<ele>474.033</ele>
<time>2020-09-10T14:57:08Z</time>
</trkpt>
<trkpt lat="48.235767" lon="10.493999">
<ele>474.079</ele>
<time>2020-09-10T14:57:09Z</time>
</trkpt>
<trkpt lat="48.23571" lon="10.494005">
<ele>474.109</ele>
<time>2020-09-10T14:57:10Z</time>
</trkpt>
<trkpt lat="48.235653" lon="10.494014">
<ele>474.109</ele>
<time>2020-09-10T14:57:11Z</time>
</trkpt>
<trkpt lat="48.235592" lon="10.49402">
<ele>474.109</ele>
<time>2020-09-10T14:57:12Z</time>
</trkpt>
<trkpt lat="48.235535" lon="10.494024">
<ele>474.109</ele>
<time>2020-09-10T14:57:13Z</time>
</trkpt>
<trkpt lat="48.235477" lon="10.494032">
<ele>474.109</ele>
<time>2020-09-10T14:57:14Z</time>
</trkpt>
<trkpt lat="48.23542" lon="10.494039">
<ele>474.109</ele>
<time>2020-09-10T14:57:15Z</time>
</trkpt>
<trkpt lat="48.235367" lon="10.494045">
<ele>474.109</ele>
<time>2020-09-10T14:57:16Z</time>
</trkpt>
<trkpt lat="48.23531" lon="10.494052">
<ele>474.109</ele>
<time>2020-09-10T14:57:17Z</time>
</trkpt>
<trkpt lat="48.235249" lon="10.494058">
<ele>474.109</ele>
<time>2020-09-10T14:57:18Z</time>
</trkpt>
<trkpt lat="48.235188" lon="10.494063">
<ele>474.109</ele>
<time>2020-09-10T14:57:19Z</time>
</trkpt>
<trkpt lat="48.23513" lon="10.494066">
<ele>474.109</ele>
<time>2020-09-10T14:57:20Z</time>
</trkpt>
<trkpt lat="48.235073" lon="10.494072">
<ele>474.109</ele>
<time>2020-09-10T14:57:21Z</time>
</trkpt>
<trkpt lat="48.235012" lon="10.494075">
<ele>474.109</ele>
<time>2020-09-10T14:57:22Z</time>
</trkpt>
<trkpt lat="48.234955" lon="10.494081">
<ele>474.109</ele>
<time>2020-09-10T14:57:23Z</time>
</trkpt>
<trkpt lat="48.234894" lon="10.494085">
<ele>474.109</ele>
<time>2020-09-10T14:57:24Z</time>
</trkpt>
<trkpt lat="48.234829" lon="10.49409">
<ele>474.109</ele>
<time>2020-09-10T14:57:25Z</time>
</trkpt>
<trkpt lat="48.234768" lon="10.494095">
<ele>474.109</ele>
<time>2020-09-10T14:57:26Z</time>
</trkpt>
<trkpt lat="48.234711" lon="10.4941">
<ele>474.109</ele>
<time>2020-09-10T14:57:27Z</time>
</trkpt>
<trkpt lat="48.23465" lon="10.494103">
<ele>474.109</ele>
<time>2020-09-10T14:57:28Z</time>
</trkpt>
<trkpt lat="48.234589" lon="10.494108">
<ele>474.109</ele>
<time>2020-09-10T14:57:29Z</time>
</trkpt>
<trkpt lat="48.234528" lon="10.494114">
<ele>474.109</ele>
<time>2020-09-10T14:57:30Z</time>
</trkpt>
<trkpt lat="48.234467" lon="10.494121">
<ele>474.109</ele>
<time>2020-09-10T14:57:31Z</time>
</trkpt>
<trkpt lat="48.234402" lon="10.494126">
<ele>474.109</ele>
<time>2020-09-10T14:57:32Z</time>
</trkpt>
<trkpt lat="48.234341" lon="10.494133">
<ele>474.109</ele>
<time>2020-09-10T14:57:33Z</time>
</trkpt>
<trkpt lat="48.23428" lon="10.49414">
<ele>474.109</ele>
<time>2020-09-10T14:57:34Z</time>
</trkpt>
<trkpt lat="48.234219" lon="10.49415">
<ele>474.109</ele>
<time>2020-09-10T14:57:35Z</time>
</trkpt>
<trkpt lat="48.234158" lon="10.494158">
<ele>474.109</ele>
<time>2020-09-10T14:57:36Z</time>
</trkpt>
<trkpt lat="48.234097" lon="10.494168">
<ele>474.109</ele>
<time>2020-09-10T14:57:37Z</time>
</trkpt>
<trkpt lat="48.234035" lon="10.494175">
<ele>474.109</ele>
<time>2020-09-10T14:57:38Z</time>
</trkpt>
<trkpt lat="48.233974" lon="10.494184">
<ele>474.109</ele>
<time>2020-09-10T14:57:39Z</time>
</trkpt>
<trkpt lat="48.23391" lon="10.494192">
<ele>474.109</ele>
<time>2020-09-10T14:57:40Z</time>
</trkpt>
<trkpt lat="48.233849" lon="10.494202">
<ele>474.109</ele>
<time>2020-09-10T14:57:41Z</time>
</trkpt>
<trkpt lat="48.233788" lon="10.49421">
<ele>474.109</ele>
<time>2020-09-10T14:57:42Z</time>
</trkpt>
<trkpt lat="48.233727" lon="10.494219">
<ele>474.109</ele>
<time>2020-09-10T14:57:43Z</time>
</trkpt>
<trkpt lat="48.233665" lon="10.494227">
<ele>474.36</ele>
<time>2020-09-10T14:57:44Z</time>
</trkpt>
<trkpt lat="48.233608" lon="10.494235">
<ele>474.342</ele>
<time>2020-09-10T14:57:45Z</time>
</trkpt>
<trkpt lat="48.233547" lon="10.494245">
<ele>474.323</ele>
<time>2020-09-10T14:57:46Z</time>
</trkpt>
<trkpt lat="48.233486" lon="10.494255">
<ele>474.303</ele>
<time>2020-09-10T14:57:47Z</time>
</trkpt>
<trkpt lat="48.233425" lon="10.494265">
<ele>474.285</ele>
<time>2020-09-10T14:57:48Z</time>
</trkpt>
<trkpt lat="48.233364" lon="10.494277">
<ele>474.268</ele>
<time>2020-09-10T14:57:49Z</time>
</trkpt>
<trkpt lat="48.233307" lon="10.494287">
<ele>474.251</ele>
<time>2020-09-10T14:57:50Z</time>
</trkpt>
<trkpt lat="48.233246" lon="10.494295">
<ele>474.235</ele>
<time>2020-09-10T14:57:51Z</time>
</trkpt>
<trkpt lat="48.233189" lon="10.494302">
<ele>474.22</ele>
<time>2020-09-10T14:57:52Z</time>
</trkpt>
<trkpt lat="48.233128" lon="10.494309">
<ele>474.442</ele>
<time>2020-09-10T14:57:53Z</time>
</trkpt>
<trkpt lat="48.23307" lon="10.49432">
<ele>474.627</ele>
<time>2020-09-10T14:57:54Z</time>
</trkpt>
<trkpt lat="48.233009" lon="10.49433">
<ele>474.771</ele>
<time>2020-09-10T14:57:55Z</time>
</trkpt>
<trkpt lat="48.232948" lon="10.49434">
<ele>474.878</ele>
<time>2020-09-10T14:57:56Z</time>
</trkpt>
<trkpt lat="48.232891" lon="10.494349">
<ele>474.953</ele>
<time>2020-09-10T14:57:57Z</time>
</trkpt>
<trkpt lat="48.23283" lon="10.494357">
<ele>475.002</ele>
<time>2020-09-10T14:57:58Z</time>
</trkpt>
<trkpt lat="48.232769" lon="10.494366">
<ele>475.04</ele>
<time>2020-09-10T14:57:59Z</time>
</trkpt>
<trkpt lat="48.232712" lon="10.494373">
<ele>475.065</ele>
<time>2020-09-10T14:58:00Z</time>
</trkpt>
<trkpt lat="48.232658" lon="10.494383">
<ele>475.065</ele>
<time>2020-09-10T14:58:01Z</time>
</trkpt>
<trkpt lat="48.232601" lon="10.494393">
<ele>475.065</ele>
<time>2020-09-10T14:58:02Z</time>
</trkpt>
<trkpt lat="48.23254" lon="10.494403">
<ele>475.065</ele>
<time>2020-09-10T14:58:03Z</time>
</trkpt>
<trkpt lat="48.232483" lon="10.494415">
<ele>475.065</ele>
<time>2020-09-10T14:58:04Z</time>
</trkpt>
<trkpt lat="48.232426" lon="10.494429">
<ele>475.065</ele>
<time>2020-09-10T14:58:05Z</time>
</trkpt>
<trkpt lat="48.232372" lon="10.494441">
<ele>475.354</ele>
<time>2020-09-10T14:58:06Z</time>
</trkpt>
<trkpt lat="48.232311" lon="10.494455">
<ele>475.309</ele>
<time>2020-09-10T14:58:07Z</time>
</trkpt>
<trkpt lat="48.23225" lon="10.494467">
<ele>475.267</ele>
<time>2020-09-10T14:58:08Z</time>
</trkpt>
<trkpt lat="48.232193" lon="10.494481">
<ele>475.282</ele>
<time>2020-09-10T14:58:09Z</time>
</trkpt>
<trkpt lat="48.232132" lon="10.494497">
<ele>475.235</ele>
<time>2020-09-10T14:58:10Z</time>
</trkpt>
<trkpt lat="48.232075" lon="10.494512">
<ele>475.192</ele>
<time>2020-09-10T14:58:11Z</time>
</trkpt>
<trkpt lat="48.232018" lon="10.494527">
<ele>475.155</ele>
<time>2020-09-10T14:58:12Z</time>
</trkpt>
<trkpt lat="48.231953" lon="10.494541">
<ele>475.122</ele>
<time>2020-09-10T14:58:13Z</time>
</trkpt>
<trkpt lat="48.231895" lon="10.494555">
<ele>475.091</ele>
<time>2020-09-10T14:58:14Z</time>
</trkpt>
<trkpt lat="48.231834" lon="10.494571">
<ele>475.065</ele>
<time>2020-09-10T14:58:15Z</time>
</trkpt>
<trkpt lat="48.231777" lon="10.494583">
<ele>475.065</ele>
<time>2020-09-10T14:58:16Z</time>
</trkpt>
<trkpt lat="48.23172" lon="10.494596">
<ele>475.325</ele>
<time>2020-09-10T14:58:17Z</time>
</trkpt>
<trkpt lat="48.231663" lon="10.494612">
<ele>475.53</ele>
<time>2020-09-10T14:58:18Z</time>
</trkpt>
<trkpt lat="48.231598" lon="10.494625">
<ele>475.672</ele>
<time>2020-09-10T14:58:19Z</time>
</trkpt>
<trkpt lat="48.231541" lon="10.494642">
<ele>475.826</ele>
<time>2020-09-10T14:58:20Z</time>
</trkpt>
<trkpt lat="48.231483" lon="10.494657">
<ele>475.943</ele>
<time>2020-09-10T14:58:21Z</time>
</trkpt>
<trkpt lat="48.231422" lon="10.494672">
<ele>476.028</ele>
<time>2020-09-10T14:58:22Z</time>
</trkpt>
<trkpt lat="48.231365" lon="10.494686">
<ele>476.082</ele>
<time>2020-09-10T14:58:23Z</time>
</trkpt>
<trkpt lat="48.231304" lon="10.494701">
<ele>476.108</ele>
<time>2020-09-10T14:58:24Z</time>
</trkpt>
<trkpt lat="48.231243" lon="10.494717">
<ele>476.108</ele>
<time>2020-09-10T14:58:25Z</time>
</trkpt>
<trkpt lat="48.231186" lon="10.494732">
<ele>476.108</ele>
<time>2020-09-10T14:58:26Z</time>
</trkpt>
<trkpt lat="48.231125" lon="10.494747">
<ele>476.108</ele>
<time>2020-09-10T14:58:27Z</time>
</trkpt>
<trkpt lat="48.231068" lon="10.494761">
<ele>476.108</ele>
<time>2020-09-10T14:58:28Z</time>
</trkpt>
<trkpt lat="48.231007" lon="10.494775">
<ele>476.108</ele>
<time>2020-09-10T14:58:29Z</time>
</trkpt>
<trkpt lat="48.230946" lon="10.494788">
<ele>476.108</ele>
<time>2020-09-10T14:58:30Z</time>
</trkpt>
<trkpt lat="48.230885" lon="10.494802">
<ele>476.108</ele>
<time>2020-09-10T14:58:31Z</time>
</trkpt>
<trkpt lat="48.230827" lon="10.494814">
<ele>476.108</ele>
<time>2020-09-10T14:58:32Z</time>
</trkpt>
<trkpt lat="48.230766" lon="10.494824">
<ele>476.108</ele>
<time>2020-09-10T14:58:33Z</time>
</trkpt>
<trkpt lat="48.230709" lon="10.494831">
<ele>476.108</ele>
<time>2020-09-10T14:58:34Z</time>
</trkpt>
<trkpt lat="48.230648" lon="10.49484">
<ele>476.362</ele>
<time>2020-09-10T14:58:35Z</time>
</trkpt>
<trkpt lat="48.230587" lon="10.494845">
<ele>476.56</ele>
<time>2020-09-10T14:58:36Z</time>
</trkpt>
<trkpt lat="48.230522" lon="10.49485">
<ele>476.713</ele>
<time>2020-09-10T14:58:37Z</time>
</trkpt>
<trkpt lat="48.230461" lon="10.494854">
<ele>476.826</ele>
<time>2020-09-10T14:58:38Z</time>
</trkpt>
<trkpt lat="48.2304" lon="10.494856">
<ele>476.905</ele>
<time>2020-09-10T14:58:39Z</time>
</trkpt>
<trkpt lat="48.230339" lon="10.494858">
<ele>476.987</ele>
<time>2020-09-10T14:58:40Z</time>
</trkpt>
<trkpt lat="48.230274" lon="10.494856">
<ele>477.04</ele>
<time>2020-09-10T14:58:41Z</time>
</trkpt>
<trkpt lat="48.230213" lon="10.494856">
<ele>477.064</ele>
<time>2020-09-10T14:58:42Z</time>
</trkpt>
<trkpt lat="48.230152" lon="10.494856">
<ele>477.064</ele>
<time>2020-09-10T14:58:43Z</time>
</trkpt>
<trkpt lat="48.230087" lon="10.494855">
<ele>477.064</ele>
<time>2020-09-10T14:58:44Z</time>
</trkpt>
<trkpt lat="48.230022" lon="10.494852">
<ele>477.064</ele>
<time>2020-09-10T14:58:45Z</time>
</trkpt>
<trkpt lat="48.229958" lon="10.494848">
<ele>477.064</ele>
<time>2020-09-10T14:58:46Z</time>
</trkpt>
<trkpt lat="48.229893" lon="10.494843">
<ele>477.064</ele>
<time>2020-09-10T14:58:47Z</time>
</trkpt>
<trkpt lat="48.229832" lon="10.494835">
<ele>477.065</ele>
<time>2020-09-10T14:58:48Z</time>
</trkpt>
<trkpt lat="48.229767" lon="10.494824">
<ele>477.064</ele>
<time>2020-09-10T14:58:49Z</time>
</trkpt>
<trkpt lat="48.229702" lon="10.494815">
<ele>477.064</ele>
<time>2020-09-10T14:58:50Z</time>
</trkpt>
<trkpt lat="48.229637" lon="10.494805">
<ele>477.065</ele>
<time>2020-09-10T14:58:51Z</time>
</trkpt>
<trkpt lat="48.229572" lon="10.494795">
<ele>477.064</ele>
<time>2020-09-10T14:58:52Z</time>
</trkpt>
<trkpt lat="48.229507" lon="10.494783">
<ele>477.064</ele>
<time>2020-09-10T14:58:53Z</time>
</trkpt>
<trkpt lat="48.229443" lon="10.494772">
<ele>477.064</ele>
<time>2020-09-10T14:58:54Z</time>
</trkpt>
<trkpt lat="48.229378" lon="10.494758">
<ele>477.064</ele>
<time>2020-09-10T14:58:55Z</time>
</trkpt>
<trkpt lat="48.229313" lon="10.494745">
<ele>477.064</ele>
<time>2020-09-10T14:58:56Z</time>
</trkpt>
<trkpt lat="48.229248" lon="10.494732">
<ele>477.064</ele>
<time>2020-09-10T14:58:57Z</time>
</trkpt>
<trkpt lat="48.229183" lon="10.494718">
<ele>477.064</ele>
<time>2020-09-10T14:58:58Z</time>
</trkpt>
<trkpt lat="48.229118" lon="10.494703">
<ele>477.064</ele>
<time>2020-09-10T14:58:59Z</time>
</trkpt>
<trkpt lat="48.22905" lon="10.49469">
<ele>477.065</ele>
<time>2020-09-10T14:59:00Z</time>
</trkpt>
<trkpt lat="48.228981" lon="10.494681">
<ele>477.064</ele>
<time>2020-09-10T14:59:01Z</time>
</trkpt>
<trkpt lat="48.228916" lon="10.494674">
<ele>477.064</ele>
<time>2020-09-10T14:59:02Z</time>
</trkpt>
<trkpt lat="48.228851" lon="10.49467">
<ele>477.064</ele>
<time>2020-09-10T14:59:03Z</time>
</trkpt>
<trkpt lat="48.228783" lon="10.49467">
<ele>477.064</ele>
<time>2020-09-10T14:59:04Z</time>
</trkpt>
<trkpt lat="48.228714" lon="10.494668">
<ele>477.064</ele>
<time>2020-09-10T14:59:05Z</time>
</trkpt>
<trkpt lat="48.228649" lon="10.494668">
<ele>477.064</ele>
<time>2020-09-10T14:59:06Z</time>
</trkpt>
<trkpt lat="48.228584" lon="10.49467">
<ele>477.065</ele>
<time>2020-09-10T14:59:07Z</time>
</trkpt>
<trkpt lat="48.228516" lon="10.494676">
<ele>477.064</ele>
<time>2020-09-10T14:59:08Z</time>
</trkpt>
<trkpt lat="48.228451" lon="10.494683">
<ele>477.064</ele>
<time>2020-09-10T14:59:09Z</time>
</trkpt>
<trkpt lat="48.228386" lon="10.494693">
<ele>477.064</ele>
<time>2020-09-10T14:59:10Z</time>
</trkpt>
<trkpt lat="48.228317" lon="10.494705">
<ele>477.064</ele>
<time>2020-09-10T14:59:11Z</time>
</trkpt>
<trkpt lat="48.228252" lon="10.494718">
<ele>477.064</ele>
<time>2020-09-10T14:59:12Z</time>
</trkpt>
<trkpt lat="48.228188" lon="10.494734">
<ele>477.064</ele>
<time>2020-09-10T14:59:13Z</time>
</trkpt>
<trkpt lat="48.228123" lon="10.49475">
<ele>477.064</ele>
<time>2020-09-10T14:59:14Z</time>
</trkpt>
<trkpt lat="48.228054" lon="10.49477">
<ele>477.065</ele>
<time>2020-09-10T14:59:15Z</time>
</trkpt>
<trkpt lat="48.227993" lon="10.494793">
<ele>477.065</ele>
<time>2020-09-10T14:59:16Z</time>
</trkpt>
<trkpt lat="48.227924" lon="10.494819">
<ele>477.064</ele>
<time>2020-09-10T14:59:17Z</time>
</trkpt>
<trkpt lat="48.227859" lon="10.494843">
<ele>477.064</ele>
<time>2020-09-10T14:59:18Z</time>
</trkpt>
<trkpt lat="48.227795" lon="10.49487">
<ele>477.065</ele>
<time>2020-09-10T14:59:19Z</time>
</trkpt>
<trkpt lat="48.227726" lon="10.494898">
<ele>477.064</ele>
<time>2020-09-10T14:59:20Z</time>
</trkpt>
<trkpt lat="48.227661" lon="10.494929">
<ele>476.775</ele>
<time>2020-09-10T14:59:21Z</time>
</trkpt>
<trkpt lat="48.2276" lon="10.494965">
<ele>476.556</ele>
<time>2020-09-10T14:59:22Z</time>
</trkpt>
<trkpt lat="48.227539" lon="10.495003">
<ele>476.388</ele>
<time>2020-09-10T14:59:23Z</time>
</trkpt>
<trkpt lat="48.227478" lon="10.495044">
<ele>476.266</ele>
<time>2020-09-10T14:59:24Z</time>
</trkpt>
<trkpt lat="48.227417" lon="10.495084">
<ele>476.184</ele>
<time>2020-09-10T14:59:25Z</time>
</trkpt>
<trkpt lat="48.227356" lon="10.495127">
<ele>476.132</ele>
<time>2020-09-10T14:59:26Z</time>
</trkpt>
<trkpt lat="48.227291" lon="10.49517">
<ele>476.108</ele>
<time>2020-09-10T14:59:27Z</time>
</trkpt>
<trkpt lat="48.227234" lon="10.495216">
<ele>476.108</ele>
<time>2020-09-10T14:59:28Z</time>
</trkpt>
<trkpt lat="48.227173" lon="10.495263">
<ele>476.108</ele>
<time>2020-09-10T14:59:29Z</time>
</trkpt>
<trkpt lat="48.227116" lon="10.495313">
<ele>476.108</ele>
<time>2020-09-10T14:59:30Z</time>
</trkpt>
<trkpt lat="48.227058" lon="10.495365">
<ele>476.108</ele>
<time>2020-09-10T14:59:31Z</time>
</trkpt>
<trkpt lat="48.226997" lon="10.49542">
<ele>476.108</ele>
<time>2020-09-10T14:59:32Z</time>
</trkpt>
<trkpt lat="48.226944" lon="10.495479">
<ele>476.108</ele>
<time>2020-09-10T14:59:33Z</time>
</trkpt>
<trkpt lat="48.226887" lon="10.495537">
<ele>476.108</ele>
<time>2020-09-10T14:59:34Z</time>
</trkpt>
<trkpt lat="48.226833" lon="10.4956">
<ele>476.108</ele>
<time>2020-09-10T14:59:35Z</time>
</trkpt>
<trkpt lat="48.226776" lon="10.495662">
<ele>476.108</ele>
<time>2020-09-10T14:59:36Z</time>
</trkpt>
<trkpt lat="48.226719" lon="10.495725">
<ele>476.108</ele>
<time>2020-09-10T14:59:37Z</time>
</trkpt>
<trkpt lat="48.226665" lon="10.49579">
<ele>476.108</ele>
<time>2020-09-10T14:59:38Z</time>
</trkpt>
<trkpt lat="48.226608" lon="10.495857">
<ele>476.108</ele>
<time>2020-09-10T14:59:39Z</time>
</trkpt>
<trkpt lat="48.226547" lon="10.495924">
<ele>476.108</ele>
<time>2020-09-10T14:59:40Z</time>
</trkpt>
<trkpt lat="48.226494" lon="10.49599">
<ele>476.108</ele>
<time>2020-09-10T14:59:41Z</time>
</trkpt>
<trkpt lat="48.226437" lon="10.496057">
<ele>476.108</ele>
<time>2020-09-10T14:59:42Z</time>
</trkpt>
<trkpt lat="48.226379" lon="10.496123">
<ele>475.837</ele>
<time>2020-09-10T14:59:43Z</time>
</trkpt>
<trkpt lat="48.226326" lon="10.49619">
<ele>475.63</ele>
<time>2020-09-10T14:59:44Z</time>
</trkpt>
<trkpt lat="48.226269" lon="10.496255">
<ele>475.473</ele>
<time>2020-09-10T14:59:45Z</time>
</trkpt>
<trkpt lat="48.226215" lon="10.49632">
<ele>475.356</ele>
<time>2020-09-10T14:59:46Z</time>
</trkpt>
<trkpt lat="48.226154" lon="10.49638">
<ele>475.272</ele>
<time>2020-09-10T14:59:47Z</time>
</trkpt>
<trkpt lat="48.226097" lon="10.49644">
<ele>475.221</ele>
<time>2020-09-10T14:59:48Z</time>
</trkpt>
<trkpt lat="48.22604" lon="10.496496">
<ele>475.178</ele>
<time>2020-09-10T14:59:49Z</time>
</trkpt>
<trkpt lat="48.225983" lon="10.496551">
<ele>475.152</ele>
<time>2020-09-10T14:59:50Z</time>
</trkpt>
<trkpt lat="48.225922" lon="10.496603">
<ele>475.152</ele>
<time>2020-09-10T14:59:51Z</time>
</trkpt>
<trkpt lat="48.225861" lon="10.496655">
<ele>475.152</ele>
<time>2020-09-10T14:59:52Z</time>
</trkpt>
<trkpt lat="48.2258" lon="10.496703">
<ele>475.152</ele>
<time>2020-09-10T14:59:53Z</time>
</trkpt>
<trkpt lat="48.225742" lon="10.49675">
<ele>475.152</ele>
<time>2020-09-10T14:59:54Z</time>
</trkpt>
<trkpt lat="48.225681" lon="10.496792">
<ele>475.152</ele>
<time>2020-09-10T14:59:55Z</time>
</trkpt>
<trkpt lat="48.225624" lon="10.496832">
<ele>475.152</ele>
<time>2020-09-10T14:59:56Z</time>
</trkpt>
<trkpt lat="48.225563" lon="10.496869">
<ele>475.152</ele>
<time>2020-09-10T14:59:57Z</time>
</trkpt>
<trkpt lat="48.225498" lon="10.496902">
<ele>475.152</ele>
<time>2020-09-10T14:59:58Z</time>
</trkpt>
<trkpt lat="48.225437" lon="10.496935">
<ele>475.152</ele>
<time>2020-09-10T14:59:59Z</time>
</trkpt>
<trkpt lat="48.22538" lon="10.496964">
<ele>475.152</ele>
<time>2020-09-10T15:00:00Z</time>
</trkpt>
<trkpt lat="48.225323" lon="10.49699">
<ele>475.152</ele>
<time>2020-09-10T15:00:01Z</time>
</trkpt>
<trkpt lat="48.225266" lon="10.497016">
<ele>475.152</ele>
<time>2020-09-10T15:00:02Z</time>
</trkpt>
<trkpt lat="48.225208" lon="10.497044">
<ele>475.13</ele>
<time>2020-09-10T15:00:03Z</time>
</trkpt>
<trkpt lat="48.225151" lon="10.497066">
<ele>475.311</ele>
<time>2020-09-10T15:00:04Z</time>
</trkpt>
<trkpt lat="48.225098" lon="10.497091">
<ele>475.455</ele>
<time>2020-09-10T15:00:05Z</time>
</trkpt>
<trkpt lat="48.225044" lon="10.497113">
<ele>475.566</ele>
<time>2020-09-10T15:00:06Z</time>
</trkpt>
<trkpt lat="48.224987" lon="10.497135">
<ele>475.648</ele>
<time>2020-09-10T15:00:07Z</time>
</trkpt>
<trkpt lat="48.224934" lon="10.497154">
<ele>475.704</ele>
<time>2020-09-10T15:00:08Z</time>
</trkpt>
<trkpt lat="48.22488" lon="10.497175">
<ele>475.74</ele>
<time>2020-09-10T15:00:09Z</time>
</trkpt>
<trkpt lat="48.224823" lon="10.497196">
<ele>475.961</ele>
<time>2020-09-10T15:00:10Z</time>
</trkpt>
<trkpt lat="48.22477" lon="10.497219">
<ele>476.128</ele>
<time>2020-09-10T15:00:11Z</time>
</trkpt>
<trkpt lat="48.224712" lon="10.497236">
<ele>476.188</ele>
<time>2020-09-10T15:00:12Z</time>
</trkpt>
<trkpt lat="48.224655" lon="10.497255">
<ele>476.432</ele>
<time>2020-09-10T15:00:13Z</time>
</trkpt>
<trkpt lat="48.224598" lon="10.497273">
<ele>476.554</ele>
<time>2020-09-10T15:00:14Z</time>
</trkpt>
<trkpt lat="48.224545" lon="10.497296">
<ele>476.638</ele>
<time>2020-09-10T15:00:15Z</time>
</trkpt>
<trkpt lat="48.224491" lon="10.497318">
<ele>476.689</ele>
<time>2020-09-10T15:00:16Z</time>
</trkpt>
<trkpt lat="48.224438" lon="10.49734">
<ele>476.713</ele>
<time>2020-09-10T15:00:17Z</time>
</trkpt>
<trkpt lat="48.224384" lon="10.497365">
<ele>476.717</ele>
<time>2020-09-10T15:00:18Z</time>
</trkpt>
<trkpt lat="48.224327" lon="10.497391">
<ele>476.928</ele>
<time>2020-09-10T15:00:19Z</time>
</trkpt>
<trkpt lat="48.224277" lon="10.497415">
<ele>477.128</ele>
<time>2020-09-10T15:00:20Z</time>
</trkpt>
<trkpt lat="48.224228" lon="10.497443">
<ele>477.293</ele>
<time>2020-09-10T15:00:21Z</time>
</trkpt>
<trkpt lat="48.224174" lon="10.497472">
<ele>477.426</ele>
<time>2020-09-10T15:00:22Z</time>
</trkpt>
<trkpt lat="48.224125" lon="10.497501">
<ele>477.528</ele>
<time>2020-09-10T15:00:23Z</time>
</trkpt>
<trkpt lat="48.224075" lon="10.497534">
<ele>477.603</ele>
<time>2020-09-10T15:00:24Z</time>
</trkpt>
<trkpt lat="48.22403" lon="10.497569">
<ele>477.65</ele>
<time>2020-09-10T15:00:25Z</time>
</trkpt>
<trkpt lat="48.223976" lon="10.497604">
<ele>477.673</ele>
<time>2020-09-10T15:00:26Z</time>
</trkpt>
<trkpt lat="48.223927" lon="10.497642">
<ele>477.673</ele>
<time>2020-09-10T15:00:27Z</time>
</trkpt>
<trkpt lat="48.223873" lon="10.49768">
<ele>477.673</ele>
<time>2020-09-10T15:00:28Z</time>
</trkpt>
<trkpt lat="48.223827" lon="10.49772">
<ele>477.907</ele>
<time>2020-09-10T15:00:29Z</time>
</trkpt>
<trkpt lat="48.223774" lon="10.497764">
<ele>478.128</ele>
<time>2020-09-10T15:00:30Z</time>
</trkpt>
<trkpt lat="48.223728" lon="10.49781">
<ele>478.31</ele>
<time>2020-09-10T15:00:31Z</time>
</trkpt>
<trkpt lat="48.223682" lon="10.497853">
<ele>478.454</ele>
<time>2020-09-10T15:00:32Z</time>
</trkpt>
<trkpt lat="48.223637" lon="10.4979">
<ele>478.563</ele>
<time>2020-09-10T15:00:33Z</time>
</trkpt>
<trkpt lat="48.223587" lon="10.497947">
<ele>478.641</ele>
<time>2020-09-10T15:00:34Z</time>
</trkpt>
<trkpt lat="48.223545" lon="10.497996">
<ele>478.692</ele>
<time>2020-09-10T15:00:35Z</time>
</trkpt>
<trkpt lat="48.223495" lon="10.498047">
<ele>478.717</ele>
<time>2020-09-10T15:00:36Z</time>
</trkpt>
<trkpt lat="48.22345" lon="10.498096">
<ele>478.717</ele>
<time>2020-09-10T15:00:37Z</time>
</trkpt>
<trkpt lat="48.223408" lon="10.49815">
<ele>478.717</ele>
<time>2020-09-10T15:00:38Z</time>
</trkpt>
<trkpt lat="48.223362" lon="10.498205">
<ele>478.717</ele>
<time>2020-09-10T15:00:39Z</time>
</trkpt>
<trkpt lat="48.223316" lon="10.498263">
<ele>478.717</ele>
<time>2020-09-10T15:00:40Z</time>
</trkpt>
<trkpt lat="48.223274" lon="10.498322">
<ele>478.717</ele>
<time>2020-09-10T15:00:41Z</time>
</trkpt>
<trkpt lat="48.223232" lon="10.498382">
<ele>478.717</ele>
<time>2020-09-10T15:00:42Z</time>
</trkpt>
<trkpt lat="48.22319" lon="10.498443">
<ele>478.717</ele>
<time>2020-09-10T15:00:43Z</time>
</trkpt>
<trkpt lat="48.223152" lon="10.498507">
<ele>478.717</ele>
<time>2020-09-10T15:00:44Z</time>
</trkpt>
<trkpt lat="48.223114" lon="10.498573">
<ele>478.717</ele>
<time>2020-09-10T15:00:45Z</time>
</trkpt>
<trkpt lat="48.223072" lon="10.498642">
<ele>478.717</ele>
<time>2020-09-10T15:00:46Z</time>
</trkpt>
<trkpt lat="48.223038" lon="10.498712">
<ele>478.717</ele>
<time>2020-09-10T15:00:47Z</time>
</trkpt>
<trkpt lat="48.223" lon="10.498782">
<ele>478.717</ele>
<time>2020-09-10T15:00:48Z</time>
</trkpt>
<trkpt lat="48.222961" lon="10.498857">
<ele>478.717</ele>
<time>2020-09-10T15:00:49Z</time>
</trkpt>
<trkpt lat="48.222923" lon="10.498928">
<ele>478.717</ele>
<time>2020-09-10T15:00:50Z</time>
</trkpt>
<trkpt lat="48.222893" lon="10.499002">
<ele>478.717</ele>
<time>2020-09-10T15:00:51Z</time>
</trkpt>
<trkpt lat="48.222858" lon="10.499077">
<ele>478.717</ele>
<time>2020-09-10T15:00:52Z</time>
</trkpt>
<trkpt lat="48.222828" lon="10.499153">
<ele>478.717</ele>
<time>2020-09-10T15:00:53Z</time>
</trkpt>
<trkpt lat="48.222794" lon="10.49923">
<ele>478.717</ele>
<time>2020-09-10T15:00:54Z</time>
</trkpt>
<trkpt lat="48.222763" lon="10.49931">
<ele>478.717</ele>
<time>2020-09-10T15:00:55Z</time>
</trkpt>
<trkpt lat="48.222733" lon="10.499388">
<ele>478.717</ele>
<time>2020-09-10T15:00:56Z</time>
</trkpt>
<trkpt lat="48.222702" lon="10.499469">
<ele>478.717</ele>
<time>2020-09-10T15:00:57Z</time>
</trkpt>
<trkpt lat="48.222672" lon="10.499547">
<ele>478.717</ele>
<time>2020-09-10T15:00:58Z</time>
</trkpt>
<trkpt lat="48.222645" lon="10.499626">
<ele>478.717</ele>
<time>2020-09-10T15:00:59Z</time>
</trkpt>
<trkpt lat="48.222614" lon="10.499706">
<ele>478.717</ele>
<time>2020-09-10T15:01:00Z</time>
</trkpt>
<trkpt lat="48.222588" lon="10.499788">
<ele>478.717</ele>
<time>2020-09-10T15:01:01Z</time>
</trkpt>
<trkpt lat="48.222557" lon="10.499869">
<ele>478.717</ele>
<time>2020-09-10T15:01:02Z</time>
</trkpt>
<trkpt lat="48.22253" lon="10.499951">
<ele>478.717</ele>
<time>2020-09-10T15:01:03Z</time>
</trkpt>
<trkpt lat="48.2225" lon="10.500033">
<ele>478.717</ele>
<time>2020-09-10T15:01:04Z</time>
</trkpt>
<trkpt lat="48.222469" lon="10.500113">
<ele>478.717</ele>
<time>2020-09-10T15:01:05Z</time>
</trkpt>
<trkpt lat="48.222435" lon="10.500194">
<ele>478.717</ele>
<time>2020-09-10T15:01:06Z</time>
</trkpt>
<trkpt lat="48.222401" lon="10.500274">
<ele>478.717</ele>
<time>2020-09-10T15:01:07Z</time>
</trkpt>
<trkpt lat="48.22237" lon="10.500352">
<ele>478.717</ele>
<time>2020-09-10T15:01:08Z</time>
</trkpt>
<trkpt lat="48.222336" lon="10.500431">
<ele>478.717</ele>
<time>2020-09-10T15:01:09Z</time>
</trkpt>
<trkpt lat="48.222301" lon="10.500506">
<ele>478.717</ele>
<time>2020-09-10T15:01:10Z</time>
</trkpt>
<trkpt lat="48.222267" lon="10.500582">
<ele>478.717</ele>
<time>2020-09-10T15:01:11Z</time>
</trkpt>
<trkpt lat="48.222229" lon="10.500653">
<ele>478.717</ele>
<time>2020-09-10T15:01:12Z</time>
</trkpt>
<trkpt lat="48.222191" lon="10.500727">
<ele>478.717</ele>
<time>2020-09-10T15:01:13Z</time>
</trkpt>
<trkpt lat="48.222157" lon="10.500797">
<ele>478.717</ele>
<time>2020-09-10T15:01:14Z</time>
</trkpt>
<trkpt lat="48.222115" lon="10.500865">
<ele>478.717</ele>
<time>2020-09-10T15:01:15Z</time>
</trkpt>
<trkpt lat="48.222076" lon="10.500932">
<ele>478.717</ele>
<time>2020-09-10T15:01:16Z</time>
</trkpt>
<trkpt lat="48.222034" lon="10.500997">
<ele>478.717</ele>
<time>2020-09-10T15:01:17Z</time>
</trkpt>
<trkpt lat="48.221992" lon="10.50106">
<ele>478.717</ele>
<time>2020-09-10T15:01:18Z</time>
</trkpt>
<trkpt lat="48.221947" lon="10.501122">
<ele>478.717</ele>
<time>2020-09-10T15:01:19Z</time>
</trkpt>
<trkpt lat="48.221905" lon="10.501182">
<ele>478.717</ele>
<time>2020-09-10T15:01:20Z</time>
</trkpt>
<trkpt lat="48.221863" lon="10.50124">
<ele>478.717</ele>
<time>2020-09-10T15:01:21Z</time>
</trkpt>
<trkpt lat="48.221817" lon="10.501296">
<ele>478.717</ele>
<time>2020-09-10T15:01:22Z</time>
</trkpt>
<trkpt lat="48.221775" lon="10.501351">
<ele>478.717</ele>
<time>2020-09-10T15:01:23Z</time>
</trkpt>
<trkpt lat="48.221729" lon="10.501407">
<ele>478.717</ele>
<time>2020-09-10T15:01:24Z</time>
</trkpt>
<trkpt lat="48.221684" lon="10.501458">
<ele>478.717</ele>
<time>2020-09-10T15:01:25Z</time>
</trkpt>
<trkpt lat="48.221638" lon="10.501508">
<ele>478.717</ele>
<time>2020-09-10T15:01:26Z</time>
</trkpt>
<trkpt lat="48.221592" lon="10.501558">
<ele>478.717</ele>
<time>2020-09-10T15:01:27Z</time>
</trkpt>
<trkpt lat="48.221546" lon="10.501605">
<ele>478.717</ele>
<time>2020-09-10T15:01:28Z</time>
</trkpt>
<trkpt lat="48.221497" lon="10.50165">
<ele>478.717</ele>
<time>2020-09-10T15:01:29Z</time>
</trkpt>
<trkpt lat="48.221447" lon="10.501694">
<ele>478.717</ele>
<time>2020-09-10T15:01:30Z</time>
</trkpt>
<trkpt lat="48.221394" lon="10.501737">
<ele>478.717</ele>
<time>2020-09-10T15:01:31Z</time>
</trkpt>
<trkpt lat="48.221348" lon="10.501779">
<ele>478.717</ele>
<time>2020-09-10T15:01:32Z</time>
</trkpt>
<trkpt lat="48.221294" lon="10.50182">
<ele>478.717</ele>
<time>2020-09-10T15:01:33Z</time>
</trkpt>
<trkpt lat="48.221249" lon="10.501857">
<ele>478.976</ele>
<time>2020-09-10T15:01:34Z</time>
</trkpt>
<trkpt lat="48.221195" lon="10.501889">
<ele>479.179</ele>
<time>2020-09-10T15:01:35Z</time>
</trkpt>
<trkpt lat="48.221146" lon="10.501923">
<ele>479.333</ele>
<time>2020-09-10T15:01:36Z</time>
</trkpt>
<trkpt lat="48.221096" lon="10.501954">
<ele>479.448</ele>
<time>2020-09-10T15:01:37Z</time>
</trkpt>
<trkpt lat="48.221043" lon="10.50198">
<ele>479.512</ele>
<time>2020-09-10T15:01:38Z</time>
</trkpt>
<trkpt lat="48.220989" lon="10.502007">
<ele>479.803</ele>
<time>2020-09-10T15:01:39Z</time>
</trkpt>
<trkpt lat="48.22094" lon="10.502033">
<ele>480.058</ele>
<time>2020-09-10T15:01:40Z</time>
</trkpt>
<trkpt lat="48.22089" lon="10.502059">
<ele>480.25</ele>
<time>2020-09-10T15:01:41Z</time>
</trkpt>
<trkpt lat="48.220837" lon="10.502082">
<ele>480.383</ele>
<time>2020-09-10T15:01:42Z</time>
</trkpt>
<trkpt lat="48.220787" lon="10.502105">
<ele>480.485</ele>
<time>2020-09-10T15:01:43Z</time>
</trkpt>
<trkpt lat="48.220737" lon="10.502126">
<ele>480.559</ele>
<time>2020-09-10T15:01:44Z</time>
</trkpt>
<trkpt lat="48.220684" lon="10.50214">
<ele>480.607</ele>
<time>2020-09-10T15:01:45Z</time>
</trkpt>
<trkpt lat="48.220631" lon="10.502157">
<ele>480.631</ele>
<time>2020-09-10T15:01:46Z</time>
</trkpt>
<trkpt lat="48.220577" lon="10.502172">
<ele>480.631</ele>
<time>2020-09-10T15:01:47Z</time>
</trkpt>
<trkpt lat="48.220524" lon="10.502187">
<ele>480.864</ele>
<time>2020-09-10T15:01:48Z</time>
</trkpt>
<trkpt lat="48.220474" lon="10.502199">
<ele>481.03</ele>
<time>2020-09-10T15:01:49Z</time>
</trkpt>
<trkpt lat="48.220417" lon="10.50221">
<ele>481.202</ele>
<time>2020-09-10T15:01:50Z</time>
</trkpt>
<trkpt lat="48.22036" lon="10.502218">
<ele>481.338</ele>
<time>2020-09-10T15:01:51Z</time>
</trkpt>
<trkpt lat="48.220306" lon="10.502222">
<ele>481.442</ele>
<time>2020-09-10T15:01:52Z</time>
</trkpt>
<trkpt lat="48.220249" lon="10.502225">
<ele>481.517</ele>
<time>2020-09-10T15:01:53Z</time>
</trkpt>
<trkpt lat="48.220196" lon="10.502227">
<ele>481.561</ele>
<time>2020-09-10T15:01:54Z</time>
</trkpt>
<trkpt lat="48.220142" lon="10.502227">
<ele>481.842</ele>
<time>2020-09-10T15:01:55Z</time>
</trkpt>
<trkpt lat="48.220089" lon="10.502227">
<ele>482.079</ele>
<time>2020-09-10T15:01:56Z</time>
</trkpt>
<trkpt lat="48.220032" lon="10.502225">
<ele>482.244</ele>
<time>2020-09-10T15:01:57Z</time>
</trkpt>
<trkpt lat="48.219982" lon="10.50222">
<ele>482.37</ele>
<time>2020-09-10T15:01:58Z</time>
</trkpt>
<trkpt lat="48.219925" lon="10.502215">
<ele>482.455</ele>
<time>2020-09-10T15:01:59Z</time>
</trkpt>
<trkpt lat="48.219868" lon="10.50221">
<ele>482.546</ele>
<time>2020-09-10T15:02:00Z</time>
</trkpt>
<trkpt lat="48.219814" lon="10.502199">
<ele>482.604</ele>
<time>2020-09-10T15:02:01Z</time>
</trkpt>
<trkpt lat="48.219761" lon="10.502191">
<ele>482.631</ele>
<time>2020-09-10T15:02:02Z</time>
</trkpt>
<trkpt lat="48.219704" lon="10.502176">
<ele>482.631</ele>
<time>2020-09-10T15:02:03Z</time>
</trkpt>
<trkpt lat="48.21965" lon="10.502164">
<ele>482.726</ele>
<time>2020-09-10T15:02:04Z</time>
</trkpt>
<trkpt lat="48.219593" lon="10.502147">
<ele>482.8</ele>
<time>2020-09-10T15:02:05Z</time>
</trkpt>
<trkpt lat="48.219536" lon="10.50213">
<ele>482.857</ele>
<time>2020-09-10T15:02:06Z</time>
</trkpt>
<trkpt lat="48.219479" lon="10.50211">
<ele>482.899</ele>
<time>2020-09-10T15:02:07Z</time>
</trkpt>
<trkpt lat="48.219425" lon="10.502089">
<ele>482.929</ele>
<time>2020-09-10T15:02:08Z</time>
</trkpt>
<trkpt lat="48.219372" lon="10.502065">
<ele>482.955</ele>
<time>2020-09-10T15:02:09Z</time>
</trkpt>
<trkpt lat="48.219311" lon="10.50204">
<ele>482.971</ele>
<time>2020-09-10T15:02:10Z</time>
</trkpt>
<trkpt lat="48.219257" lon="10.502013">
<ele>483.158</ele>
<time>2020-09-10T15:02:11Z</time>
</trkpt>
<trkpt lat="48.2192" lon="10.501984">
<ele>483.361</ele>
<time>2020-09-10T15:02:12Z</time>
</trkpt>
<trkpt lat="48.219143" lon="10.501952">
<ele>483.428</ele>
<time>2020-09-10T15:02:13Z</time>
</trkpt>
<trkpt lat="48.21909" lon="10.501919">
<ele>483.579</ele>
<time>2020-09-10T15:02:14Z</time>
</trkpt>
<trkpt lat="48.219036" lon="10.501882">
<ele>483.687</ele>
<time>2020-09-10T15:02:15Z</time>
</trkpt>
<trkpt lat="48.218979" lon="10.501843">
<ele>483.762</ele>
<time>2020-09-10T15:02:16Z</time>
</trkpt>
<trkpt lat="48.218922" lon="10.501801">
<ele>483.808</ele>
<time>2020-09-10T15:02:17Z</time>
</trkpt>
<trkpt lat="48.218868" lon="10.50176">
<ele>483.83</ele>
<time>2020-09-10T15:02:18Z</time>
</trkpt>
<trkpt lat="48.218815" lon="10.501719">
<ele>483.85</ele>
<time>2020-09-10T15:02:19Z</time>
</trkpt>
<trkpt lat="48.218758" lon="10.501674">
<ele>483.85</ele>
<time>2020-09-10T15:02:20Z</time>
</trkpt>
<trkpt lat="48.218704" lon="10.501627">
<ele>483.85</ele>
<time>2020-09-10T15:02:21Z</time>
</trkpt>
<trkpt lat="48.218655" lon="10.501576">
<ele>483.85</ele>
<time>2020-09-10T15:02:22Z</time>
</trkpt>
<trkpt lat="48.218601" lon="10.501527">
<ele>483.85</ele>
<time>2020-09-10T15:02:23Z</time>
</trkpt>
<trkpt lat="48.218548" lon="10.501474">
<ele>483.85</ele>
<time>2020-09-10T15:02:24Z</time>
</trkpt>
<trkpt lat="48.218491" lon="10.501422">
<ele>483.85</ele>
<time>2020-09-10T15:02:25Z</time>
</trkpt>
<trkpt lat="48.218441" lon="10.501368">
<ele>483.85</ele>
<time>2020-09-10T15:02:26Z</time>
</trkpt>
<trkpt lat="48.218388" lon="10.501313">
<ele>483.85</ele>
<time>2020-09-10T15:02:27Z</time>
</trkpt>
<trkpt lat="48.21833" lon="10.501259">
<ele>483.85</ele>
<time>2020-09-10T15:02:28Z</time>
</trkpt>
<trkpt lat="48.218277" lon="10.5012">
<ele>483.85</ele>
<time>2020-09-10T15:02:29Z</time>
</trkpt>
<trkpt lat="48.218224" lon="10.501143">
<ele>483.85</ele>
<time>2020-09-10T15:02:30Z</time>
</trkpt>
<trkpt lat="48.21817" lon="10.501083">
<ele>483.85</ele>
<time>2020-09-10T15:02:31Z</time>
</trkpt>
<trkpt lat="48.218109" lon="10.501025">
<ele>483.567</ele>
<time>2020-09-10T15:02:32Z</time>
</trkpt>
<trkpt lat="48.218052" lon="10.500967">
<ele>483.352</ele>
<time>2020-09-10T15:02:33Z</time>
</trkpt>
<trkpt lat="48.217995" lon="10.500911">
<ele>483.19</ele>
<time>2020-09-10T15:02:34Z</time>
</trkpt>
<trkpt lat="48.217937" lon="10.50085">
<ele>483.072</ele>
<time>2020-09-10T15:02:35Z</time>
</trkpt>
<trkpt lat="48.217873" lon="10.50079">
<ele>482.991</ele>
<time>2020-09-10T15:02:36Z</time>
</trkpt>
<trkpt lat="48.217815" lon="10.500729">
<ele>482.94</ele>
<time>2020-09-10T15:02:37Z</time>
</trkpt>
<trkpt lat="48.217751" lon="10.500667">
<ele>482.913</ele>
<time>2020-09-10T15:02:38Z</time>
</trkpt>
<trkpt lat="48.21769" lon="10.500605">
<ele>482.892</ele>
<time>2020-09-10T15:02:39Z</time>
</trkpt>
<trkpt lat="48.217625" lon="10.500542">
<ele>482.655</ele>
<time>2020-09-10T15:02:40Z</time>
</trkpt>
<trkpt lat="48.217556" lon="10.500482">
<ele>482.455</ele>
<time>2020-09-10T15:02:41Z</time>
</trkpt>
<trkpt lat="48.217487" lon="10.500422">
<ele>482.295</ele>
<time>2020-09-10T15:02:42Z</time>
</trkpt>
<trkpt lat="48.217419" lon="10.500365">
<ele>482.168</ele>
<time>2020-09-10T15:02:43Z</time>
</trkpt>
<trkpt lat="48.21735" lon="10.500308">
<ele>482.091</ele>
<time>2020-09-10T15:02:44Z</time>
</trkpt>
<trkpt lat="48.217285" lon="10.500253">
<ele>481.775</ele>
<time>2020-09-10T15:02:45Z</time>
</trkpt>
<trkpt lat="48.217213" lon="10.500202">
<ele>481.529</ele>
<time>2020-09-10T15:02:46Z</time>
</trkpt>
<trkpt lat="48.21714" lon="10.500154">
<ele>481.344</ele>
<time>2020-09-10T15:02:47Z</time>
</trkpt>
<trkpt lat="48.217064" lon="10.500113">
<ele>481.217</ele>
<time>2020-09-10T15:02:48Z</time>
</trkpt>
<trkpt lat="48.216988" lon="10.500073">
<ele>481.138</ele>
<time>2020-09-10T15:02:49Z</time>
</trkpt>
<trkpt lat="48.216911" lon="10.500037">
<ele>481.057</ele>
<time>2020-09-10T15:02:50Z</time>
</trkpt>
<trkpt lat="48.216835" lon="10.500004">
<ele>480.77</ele>
<time>2020-09-10T15:02:51Z</time>
</trkpt>
<trkpt lat="48.216759" lon="10.499973">
<ele>480.549</ele>
<time>2020-09-10T15:02:52Z</time>
</trkpt>
<trkpt lat="48.216682" lon="10.499942">
<ele>480.304</ele>
<time>2020-09-10T15:02:53Z</time>
</trkpt>
<trkpt lat="48.216606" lon="10.499909">
<ele>480.181</ele>
<time>2020-09-10T15:02:54Z</time>
</trkpt>
<trkpt lat="48.216534" lon="10.499882">
<ele>480.1</ele>
<time>2020-09-10T15:02:55Z</time>
</trkpt>
<trkpt lat="48.216457" lon="10.499859">
<ele>480.046</ele>
<time>2020-09-10T15:02:56Z</time>
</trkpt>
<trkpt lat="48.216381" lon="10.49984">
<ele>480.024</ele>
<time>2020-09-10T15:02:57Z</time>
</trkpt>
<trkpt lat="48.216305" lon="10.499825">
<ele>480.022</ele>
<time>2020-09-10T15:02:58Z</time>
</trkpt>
<trkpt lat="48.216232" lon="10.499804">
<ele>480.022</ele>
<time>2020-09-10T15:02:59Z</time>
</trkpt>
<trkpt lat="48.21616" lon="10.499792">
<ele>480.022</ele>
<time>2020-09-10T15:03:00Z</time>
</trkpt>
<trkpt lat="48.216087" lon="10.499782">
<ele>480.022</ele>
<time>2020-09-10T15:03:01Z</time>
</trkpt>
<trkpt lat="48.216019" lon="10.499773">
<ele>480.022</ele>
<time>2020-09-10T15:03:02Z</time>
</trkpt>
<trkpt lat="48.215954" lon="10.499784">
<ele>480.022</ele>
<time>2020-09-10T15:03:03Z</time>
</trkpt>
<trkpt lat="48.215897" lon="10.499822">
<ele>480.022</ele>
<time>2020-09-10T15:03:04Z</time>
</trkpt>
<trkpt lat="48.215858" lon="10.49989">
<ele>480.022</ele>
<time>2020-09-10T15:03:05Z</time>
</trkpt>
<trkpt lat="48.215843" lon="10.499982">
<ele>480.022</ele>
<time>2020-09-10T15:03:06Z</time>
</trkpt>
<trkpt lat="48.215839" lon="10.500083">
<ele>480.022</ele>
<time>2020-09-10T15:03:07Z</time>
</trkpt>
<trkpt lat="48.215847" lon="10.500181">
<ele>480.022</ele>
<time>2020-09-10T15:03:08Z</time>
</trkpt>
<trkpt lat="48.215851" lon="10.500277">
<ele>480.022</ele>
<time>2020-09-10T15:03:09Z</time>
</trkpt>
<trkpt lat="48.215851" lon="10.500368">
<ele>480.022</ele>
<time>2020-09-10T15:03:10Z</time>
</trkpt>
<trkpt lat="48.215843" lon="10.50046">
<ele>480.022</ele>
<time>2020-09-10T15:03:11Z</time>
</trkpt>
<trkpt lat="48.215832" lon="10.50055">
<ele>480.022</ele>
<time>2020-09-10T15:03:12Z</time>
</trkpt>
<trkpt lat="48.21582" lon="10.500636">
<ele>480.022</ele>
<time>2020-09-10T15:03:13Z</time>
</trkpt>
<trkpt lat="48.215809" lon="10.500722">
<ele>480.022</ele>
<time>2020-09-10T15:03:14Z</time>
</trkpt>
<trkpt lat="48.215794" lon="10.500806">
<ele>480.022</ele>
<time>2020-09-10T15:03:15Z</time>
</trkpt>
<trkpt lat="48.215775" lon="10.500887">
<ele>480.305</ele>
<time>2020-09-10T15:03:16Z</time>
</trkpt>
<trkpt lat="48.215752" lon="10.500967">
<ele>480.532</ele>
<time>2020-09-10T15:03:17Z</time>
</trkpt>
<trkpt lat="48.215725" lon="10.501043">
<ele>480.711</ele>
<time>2020-09-10T15:03:18Z</time>
</trkpt>
<trkpt lat="48.215694" lon="10.501117">
<ele>480.833</ele>
<time>2020-09-10T15:03:19Z</time>
</trkpt>
<trkpt lat="48.215664" lon="10.501188">
<ele>480.96</ele>
<time>2020-09-10T15:03:20Z</time>
</trkpt>
<trkpt lat="48.21563" lon="10.50126">
<ele>481.291</ele>
<time>2020-09-10T15:03:21Z</time>
</trkpt>
<trkpt lat="48.215595" lon="10.501331">
<ele>481.551</ele>
<time>2020-09-10T15:03:22Z</time>
</trkpt>
<trkpt lat="48.215561" lon="10.501403">
<ele>481.743</ele>
<time>2020-09-10T15:03:23Z</time>
</trkpt>
<trkpt lat="48.21553" lon="10.501476">
<ele>481.951</ele>
<time>2020-09-10T15:03:24Z</time>
</trkpt>
<trkpt lat="48.215492" lon="10.501543">
<ele>482.034</ele>
<time>2020-09-10T15:03:25Z</time>
</trkpt>
<trkpt lat="48.215454" lon="10.501606">
<ele>482.086</ele>
<time>2020-09-10T15:03:26Z</time>
</trkpt>
<trkpt lat="48.215405" lon="10.501663">
<ele>482.106</ele>
<time>2020-09-10T15:03:27Z</time>
</trkpt>
<trkpt lat="48.215355" lon="10.501717">
<ele>482.109</ele>
<time>2020-09-10T15:03:28Z</time>
</trkpt>
<trkpt lat="48.215302" lon="10.50176">
<ele>482.109</ele>
<time>2020-09-10T15:03:29Z</time>
</trkpt>
<trkpt lat="48.215244" lon="10.501801">
<ele>482.109</ele>
<time>2020-09-10T15:03:30Z</time>
</trkpt>
<trkpt lat="48.215187" lon="10.501842">
<ele>482.109</ele>
<time>2020-09-10T15:03:31Z</time>
</trkpt>
<trkpt lat="48.21513" lon="10.501881">
<ele>482.109</ele>
<time>2020-09-10T15:03:32Z</time>
</trkpt>
<trkpt lat="48.215069" lon="10.501915">
<ele>482.109</ele>
<time>2020-09-10T15:03:33Z</time>
</trkpt>
<trkpt lat="48.215012" lon="10.501946">
<ele>482.109</ele>
<time>2020-09-10T15:03:34Z</time>
</trkpt>
<trkpt lat="48.214954" lon="10.501971">
<ele>482.109</ele>
<time>2020-09-10T15:03:35Z</time>
</trkpt>
<trkpt lat="48.214893" lon="10.501989">
<ele>482.109</ele>
<time>2020-09-10T15:03:36Z</time>
</trkpt>
<trkpt lat="48.214832" lon="10.501996">
<ele>482.109</ele>
<time>2020-09-10T15:03:37Z</time>
</trkpt>
<trkpt lat="48.214771" lon="10.501995">
<ele>482.109</ele>
<time>2020-09-10T15:03:38Z</time>
</trkpt>
<trkpt lat="48.21471" lon="10.501982">
<ele>482.109</ele>
<time>2020-09-10T15:03:39Z</time>
</trkpt>
<trkpt lat="48.214649" lon="10.501963">
<ele>482.109</ele>
<time>2020-09-10T15:03:40Z</time>
</trkpt>
<trkpt lat="48.214592" lon="10.50194">
<ele>482.109</ele>
<time>2020-09-10T15:03:41Z</time>
</trkpt>
<trkpt lat="48.214539" lon="10.501915">
<ele>482.109</ele>
<time>2020-09-10T15:03:42Z</time>
</trkpt>
<trkpt lat="48.214481" lon="10.501886">
<ele>482.109</ele>
<time>2020-09-10T15:03:43Z</time>
</trkpt>
<trkpt lat="48.214428" lon="10.501858">
<ele>482.109</ele>
<time>2020-09-10T15:03:44Z</time>
</trkpt>
<trkpt lat="48.214375" lon="10.50183">
<ele>482.109</ele>
<time>2020-09-10T15:03:45Z</time>
</trkpt>
<trkpt lat="48.214317" lon="10.501801">
<ele>482.109</ele>
<time>2020-09-10T15:03:46Z</time>
</trkpt>
<trkpt lat="48.21426" lon="10.501774">
<ele>482.109</ele>
<time>2020-09-10T15:03:47Z</time>
</trkpt>
<trkpt lat="48.214199" lon="10.501746">
<ele>482.109</ele>
<time>2020-09-10T15:03:48Z</time>
</trkpt>
<trkpt lat="48.214138" lon="10.501723">
<ele>482.109</ele>
<time>2020-09-10T15:03:49Z</time>
</trkpt>
<trkpt lat="48.214069" lon="10.501703">
<ele>482.109</ele>
<time>2020-09-10T15:03:50Z</time>
</trkpt>
<trkpt lat="48.214001" lon="10.501688">
<ele>482.109</ele>
<time>2020-09-10T15:03:51Z</time>
</trkpt>
<trkpt lat="48.213932" lon="10.501681">
<ele>482.109</ele>
<time>2020-09-10T15:03:52Z</time>
</trkpt>
<trkpt lat="48.21386" lon="10.501679">
<ele>482.109</ele>
<time>2020-09-10T15:03:53Z</time>
</trkpt>
<trkpt lat="48.213791" lon="10.501681">
<ele>482.109</ele>
<time>2020-09-10T15:03:54Z</time>
</trkpt>
<trkpt lat="48.213722" lon="10.501694">
<ele>482.109</ele>
<time>2020-09-10T15:03:55Z</time>
</trkpt>
<trkpt lat="48.213654" lon="10.50171">
<ele>482.109</ele>
<time>2020-09-10T15:03:56Z</time>
</trkpt>
<trkpt lat="48.213585" lon="10.50173">
<ele>482.109</ele>
<time>2020-09-10T15:03:57Z</time>
</trkpt>
<trkpt lat="48.213524" lon="10.50175">
<ele>482.109</ele>
<time>2020-09-10T15:03:58Z</time>
</trkpt>
<trkpt lat="48.213459" lon="10.501772">
<ele>482.109</ele>
<time>2020-09-10T15:03:59Z</time>
</trkpt>
<trkpt lat="48.213398" lon="10.501793">
<ele>482.109</ele>
<time>2020-09-10T15:04:00Z</time>
</trkpt>
<trkpt lat="48.213337" lon="10.501818">
<ele>482.109</ele>
<time>2020-09-10T15:04:01Z</time>
</trkpt>
<trkpt lat="48.213276" lon="10.501845">
<ele>482.109</ele>
<time>2020-09-10T15:04:02Z</time>
</trkpt>
<trkpt lat="48.213215" lon="10.501872">
<ele>482.109</ele>
<time>2020-09-10T15:04:03Z</time>
</trkpt>
<trkpt lat="48.213158" lon="10.501895">
<ele>482.109</ele>
<time>2020-09-10T15:04:04Z</time>
</trkpt>
<trkpt lat="48.2131" lon="10.501922">
<ele>482.109</ele>
<time>2020-09-10T15:04:05Z</time>
</trkpt>
<trkpt lat="48.213043" lon="10.501946">
<ele>482.109</ele>
<time>2020-09-10T15:04:06Z</time>
</trkpt>
<trkpt lat="48.212986" lon="10.501977">
<ele>482.109</ele>
<time>2020-09-10T15:04:07Z</time>
</trkpt>
<trkpt lat="48.212929" lon="10.502008">
<ele>482.109</ele>
<time>2020-09-10T15:04:08Z</time>
</trkpt>
<trkpt lat="48.212875" lon="10.502038">
<ele>482.109</ele>
<time>2020-09-10T15:04:09Z</time>
</trkpt>
<trkpt lat="48.212818" lon="10.502067">
<ele>482.109</ele>
<time>2020-09-10T15:04:10Z</time>
</trkpt>
<trkpt lat="48.212761" lon="10.502096">
<ele>482.109</ele>
<time>2020-09-10T15:04:11Z</time>
</trkpt>
<trkpt lat="48.212708" lon="10.502127">
<ele>482.109</ele>
<time>2020-09-10T15:04:12Z</time>
</trkpt>
<trkpt lat="48.212654" lon="10.50216">
<ele>482.109</ele>
<time>2020-09-10T15:04:13Z</time>
</trkpt>
<trkpt lat="48.212597" lon="10.502195">
<ele>482.109</ele>
<time>2020-09-10T15:04:14Z</time>
</trkpt>
<trkpt lat="48.212543" lon="10.502231">
<ele>482.109</ele>
<time>2020-09-10T15:04:15Z</time>
</trkpt>
<trkpt lat="48.21249" lon="10.502267">
<ele>482.109</ele>
<time>2020-09-10T15:04:16Z</time>
</trkpt>
<trkpt lat="48.212433" lon="10.502306">
<ele>482.109</ele>
<time>2020-09-10T15:04:17Z</time>
</trkpt>
<trkpt lat="48.212383" lon="10.502346">
<ele>482.109</ele>
<time>2020-09-10T15:04:18Z</time>
</trkpt>
<trkpt lat="48.21233" lon="10.502387">
<ele>482.109</ele>
<time>2020-09-10T15:04:19Z</time>
</trkpt>
<trkpt lat="48.212276" lon="10.502428">
<ele>482.109</ele>
<time>2020-09-10T15:04:20Z</time>
</trkpt>
<trkpt lat="48.212227" lon="10.50247">
<ele>482.109</ele>
<time>2020-09-10T15:04:21Z</time>
</trkpt>
<trkpt lat="48.212177" lon="10.502511">
<ele>482.109</ele>
<time>2020-09-10T15:04:22Z</time>
</trkpt>
<trkpt lat="48.212128" lon="10.502551">
<ele>482.109</ele>
<time>2020-09-10T15:04:23Z</time>
</trkpt>
<trkpt lat="48.21207" lon="10.502591">
<ele>482.369</ele>
<time>2020-09-10T15:04:24Z</time>
</trkpt>
<trkpt lat="48.212021" lon="10.502631">
<ele>482.571</ele>
<time>2020-09-10T15:04:25Z</time>
</trkpt>
<trkpt lat="48.211971" lon="10.502673">
<ele>482.727</ele>
<time>2020-09-10T15:04:26Z</time>
</trkpt>
<trkpt lat="48.211914" lon="10.502715">
<ele>482.843</ele>
<time>2020-09-10T15:04:27Z</time>
</trkpt>
<trkpt lat="48.211864" lon="10.502758">
<ele>482.926</ele>
<time>2020-09-10T15:04:28Z</time>
</trkpt>
<trkpt lat="48.211811" lon="10.502802">
<ele>482.987</ele>
<time>2020-09-10T15:04:29Z</time>
</trkpt>
<trkpt lat="48.211765" lon="10.502843">
<ele>483.041</ele>
<time>2020-09-10T15:04:30Z</time>
</trkpt>
<trkpt lat="48.211712" lon="10.502887">
<ele>483.066</ele>
<time>2020-09-10T15:04:31Z</time>
</trkpt>
<trkpt lat="48.211662" lon="10.50293">
<ele>483.066</ele>
<time>2020-09-10T15:04:32Z</time>
</trkpt>
<trkpt lat="48.211613" lon="10.50297">
<ele>483.066</ele>
<time>2020-09-10T15:04:33Z</time>
</trkpt>
<trkpt lat="48.211559" lon="10.50301">
<ele>483.066</ele>
<time>2020-09-10T15:04:34Z</time>
</trkpt>
<trkpt lat="48.21151" lon="10.50305">
<ele>483.066</ele>
<time>2020-09-10T15:04:35Z</time>
</trkpt>
<trkpt lat="48.211456" lon="10.503087">
<ele>483.066</ele>
<time>2020-09-10T15:04:36Z</time>
</trkpt>
<trkpt lat="48.211411" lon="10.503123">
<ele>483.066</ele>
<time>2020-09-10T15:04:37Z</time>
</trkpt>
<trkpt lat="48.211357" lon="10.50316">
<ele>483.066</ele>
<time>2020-09-10T15:04:38Z</time>
</trkpt>
<trkpt lat="48.211308" lon="10.503197">
<ele>483.258</ele>
<time>2020-09-10T15:04:39Z</time>
</trkpt>
<trkpt lat="48.211258" lon="10.503232">
<ele>483.439</ele>
<time>2020-09-10T15:04:40Z</time>
</trkpt>
<trkpt lat="48.211208" lon="10.503263">
<ele>483.59</ele>
<time>2020-09-10T15:04:41Z</time>
</trkpt>
<trkpt lat="48.211155" lon="10.503295">
<ele>483.711</ele>
<time>2020-09-10T15:04:42Z</time>
</trkpt>
<trkpt lat="48.211109" lon="10.503324">
<ele>483.804</ele>
<time>2020-09-10T15:04:43Z</time>
</trkpt>
<trkpt lat="48.211056" lon="10.503353">
<ele>483.873</ele>
<time>2020-09-10T15:04:44Z</time>
</trkpt>
<trkpt lat="48.211006" lon="10.503383">
<ele>483.916</ele>
<time>2020-09-10T15:04:45Z</time>
</trkpt>
<trkpt lat="48.210957" lon="10.503414">
<ele>483.937</ele>
<time>2020-09-10T15:04:46Z</time>
</trkpt>
<trkpt lat="48.210903" lon="10.503442">
<ele>483.937</ele>
<time>2020-09-10T15:04:47Z</time>
</trkpt>
<trkpt lat="48.210854" lon="10.503471">
<ele>483.937</ele>
<time>2020-09-10T15:04:48Z</time>
</trkpt>
<trkpt lat="48.210804" lon="10.503498">
<ele>483.937</ele>
<time>2020-09-10T15:04:49Z</time>
</trkpt>
<trkpt lat="48.210754" lon="10.503527">
<ele>483.937</ele>
<time>2020-09-10T15:04:50Z</time>
</trkpt>
<trkpt lat="48.210701" lon="10.503556">
<ele>483.937</ele>
<time>2020-09-10T15:04:51Z</time>
</trkpt>
<trkpt lat="48.210655" lon="10.503587">
<ele>483.937</ele>
<time>2020-09-10T15:04:52Z</time>
</trkpt>
<trkpt lat="48.210602" lon="10.503612">
<ele>483.937</ele>
<time>2020-09-10T15:04:53Z</time>
</trkpt>
<trkpt lat="48.210548" lon="10.503633">
<ele>483.937</ele>
<time>2020-09-10T15:04:54Z</time>
</trkpt>
<trkpt lat="48.210499" lon="10.503652">
<ele>483.937</ele>
<time>2020-09-10T15:04:55Z</time>
</trkpt>
<trkpt lat="48.210445" lon="10.503666">
<ele>483.937</ele>
<time>2020-09-10T15:04:56Z</time>
</trkpt>
<trkpt lat="48.210392" lon="10.503682">
<ele>483.937</ele>
<time>2020-09-10T15:04:57Z</time>
</trkpt>
<trkpt lat="48.210335" lon="10.503694">
<ele>483.937</ele>
<time>2020-09-10T15:04:58Z</time>
</trkpt>
<trkpt lat="48.210278" lon="10.503703">
<ele>483.937</ele>
<time>2020-09-10T15:04:59Z</time>
</trkpt>
<trkpt lat="48.210224" lon="10.503716">
<ele>483.937</ele>
<time>2020-09-10T15:05:00Z</time>
</trkpt>
<trkpt lat="48.210171" lon="10.503729">
<ele>484.225</ele>
<time>2020-09-10T15:05:01Z</time>
</trkpt>
<trkpt lat="48.210114" lon="10.503739">
<ele>484.445</ele>
<time>2020-09-10T15:05:02Z</time>
</trkpt>
<trkpt lat="48.210056" lon="10.50375">
<ele>484.616</ele>
<time>2020-09-10T15:05:03Z</time>
</trkpt>
<trkpt lat="48.210003" lon="10.503758">
<ele>484.736</ele>
<time>2020-09-10T15:05:04Z</time>
</trkpt>
<trkpt lat="48.209949" lon="10.503766">
<ele>484.818</ele>
<time>2020-09-10T15:05:05Z</time>
</trkpt>
<trkpt lat="48.209892" lon="10.503772">
<ele>484.87</ele>
<time>2020-09-10T15:05:06Z</time>
</trkpt>
<trkpt lat="48.209839" lon="10.503778">
<ele>484.89</ele>
<time>2020-09-10T15:05:07Z</time>
</trkpt>
<trkpt lat="48.209785" lon="10.503781">
<ele>484.894</ele>
<time>2020-09-10T15:05:08Z</time>
</trkpt>
<trkpt lat="48.209728" lon="10.503789">
<ele>484.894</ele>
<time>2020-09-10T15:05:09Z</time>
</trkpt>
<trkpt lat="48.209675" lon="10.503794">
<ele>485.125</ele>
<time>2020-09-10T15:05:10Z</time>
</trkpt>
<trkpt lat="48.209621" lon="10.503796">
<ele>485.318</ele>
<time>2020-09-10T15:05:11Z</time>
</trkpt>
<trkpt lat="48.209568" lon="10.503797">
<ele>485.479</ele>
<time>2020-09-10T15:05:12Z</time>
</trkpt>
<trkpt lat="48.209515" lon="10.503797">
<ele>485.61</ele>
<time>2020-09-10T15:05:13Z</time>
</trkpt>
<trkpt lat="48.209461" lon="10.503794">
<ele>485.71</ele>
<time>2020-09-10T15:05:14Z</time>
</trkpt>
<trkpt lat="48.209412" lon="10.503792">
<ele>485.771</ele>
<time>2020-09-10T15:05:15Z</time>
</trkpt>
<trkpt lat="48.209362" lon="10.503789">
<ele>486.055</ele>
<time>2020-09-10T15:05:16Z</time>
</trkpt>
<trkpt lat="48.209312" lon="10.503789">
<ele>486.275</ele>
<time>2020-09-10T15:05:17Z</time>
</trkpt>
<trkpt lat="48.209263" lon="10.503787">
<ele>486.434</ele>
<time>2020-09-10T15:05:18Z</time>
</trkpt>
<trkpt lat="48.209213" lon="10.503783">
<ele>486.538</ele>
<time>2020-09-10T15:05:19Z</time>
</trkpt>
<trkpt lat="48.209167" lon="10.503781">
<ele>486.855</ele>
<time>2020-09-10T15:05:20Z</time>
</trkpt>
<trkpt lat="48.209122" lon="10.503781">
<ele>487.112</ele>
<time>2020-09-10T15:05:21Z</time>
</trkpt>
<trkpt lat="48.209072" lon="10.503778">
<ele>487.312</ele>
<time>2020-09-10T15:05:22Z</time>
</trkpt>
<trkpt lat="48.209026" lon="10.503777">
<ele>487.455</ele>
<time>2020-09-10T15:05:23Z</time>
</trkpt>
<trkpt lat="48.208977" lon="10.503773">
<ele>487.53</ele>
<time>2020-09-10T15:05:24Z</time>
</trkpt>
<trkpt lat="48.208931" lon="10.50377">
<ele>487.839</ele>
<time>2020-09-10T15:05:25Z</time>
</trkpt>
<trkpt lat="48.208881" lon="10.503766">
<ele>488.083</ele>
<time>2020-09-10T15:05:26Z</time>
</trkpt>
<trkpt lat="48.208836" lon="10.503764">
<ele>488.268</ele>
<time>2020-09-10T15:05:27Z</time>
</trkpt>
<trkpt lat="48.208782" lon="10.503762">
<ele>488.399</ele>
<time>2020-09-10T15:05:28Z</time>
</trkpt>
<trkpt lat="48.208736" lon="10.503758">
<ele>488.477</ele>
<time>2020-09-10T15:05:29Z</time>
</trkpt>
<trkpt lat="48.208683" lon="10.503756">
<ele>488.56</ele>
<time>2020-09-10T15:05:30Z</time>
</trkpt>
<trkpt lat="48.208637" lon="10.50375">
<ele>488.612</ele>
<time>2020-09-10T15:05:31Z</time>
</trkpt>
<trkpt lat="48.208584" lon="10.503747">
<ele>488.636</ele>
<time>2020-09-10T15:05:32Z</time>
</trkpt>
<trkpt lat="48.208538" lon="10.503741">
<ele>488.636</ele>
<time>2020-09-10T15:05:33Z</time>
</trkpt>
<trkpt lat="48.208485" lon="10.503736">
<ele>488.636</ele>
<time>2020-09-10T15:05:34Z</time>
</trkpt>
<trkpt lat="48.208435" lon="10.503732">
<ele>488.89</ele>
<time>2020-09-10T15:05:35Z</time>
</trkpt>
<trkpt lat="48.208385" lon="10.503727">
<ele>489.089</ele>
<time>2020-09-10T15:05:36Z</time>
</trkpt>
<trkpt lat="48.208332" lon="10.503722">
<ele>489.242</ele>
<time>2020-09-10T15:05:37Z</time>
</trkpt>
<trkpt lat="48.208282" lon="10.503718">
<ele>489.357</ele>
<time>2020-09-10T15:05:38Z</time>
</trkpt>
<trkpt lat="48.208229" lon="10.503714">
<ele>489.437</ele>
<time>2020-09-10T15:05:39Z</time>
</trkpt>
<trkpt lat="48.208179" lon="10.503708">
<ele>489.517</ele>
<time>2020-09-10T15:05:40Z</time>
</trkpt>
<trkpt lat="48.208122" lon="10.503705">
<ele>489.569</ele>
<time>2020-09-10T15:05:41Z</time>
</trkpt>
<trkpt lat="48.208069" lon="10.503701">
<ele>489.594</ele>
<time>2020-09-10T15:05:42Z</time>
</trkpt>
<trkpt lat="48.208015" lon="10.503695">
<ele>489.594</ele>
<time>2020-09-10T15:05:43Z</time>
</trkpt>
<trkpt lat="48.207958" lon="10.503689">
<ele>489.594</ele>
<time>2020-09-10T15:05:44Z</time>
</trkpt>
<trkpt lat="48.207897" lon="10.503683">
<ele>489.594</ele>
<time>2020-09-10T15:05:45Z</time>
</trkpt>
<trkpt lat="48.207844" lon="10.503678">
<ele>489.594</ele>
<time>2020-09-10T15:05:46Z</time>
</trkpt>
<trkpt lat="48.20779" lon="10.503674">
<ele>489.594</ele>
<time>2020-09-10T15:05:47Z</time>
</trkpt>
<trkpt lat="48.207733" lon="10.50367">
<ele>489.808</ele>
<time>2020-09-10T15:05:48Z</time>
</trkpt>
<trkpt lat="48.207676" lon="10.503666">
<ele>489.958</ele>
<time>2020-09-10T15:05:49Z</time>
</trkpt>
<trkpt lat="48.207623" lon="10.503665">
<ele>490.11</ele>
<time>2020-09-10T15:05:50Z</time>
</trkpt>
<trkpt lat="48.207569" lon="10.503663">
<ele>490.234</ele>
<time>2020-09-10T15:05:51Z</time>
</trkpt>
<trkpt lat="48.207508" lon="10.503663">
<ele>490.328</ele>
<time>2020-09-10T15:05:52Z</time>
</trkpt>
<trkpt lat="48.207455" lon="10.503661">
<ele>490.399</ele>
<time>2020-09-10T15:05:53Z</time>
</trkpt>
<trkpt lat="48.207397" lon="10.50366">
<ele>490.444</ele>
<time>2020-09-10T15:05:54Z</time>
</trkpt>
<trkpt lat="48.207336" lon="10.503658">
<ele>490.465</ele>
<time>2020-09-10T15:05:55Z</time>
</trkpt>
<trkpt lat="48.207275" lon="10.503658">
<ele>490.465</ele>
<time>2020-09-10T15:05:56Z</time>
</trkpt>
<trkpt lat="48.207211" lon="10.503658">
<ele>490.465</ele>
<time>2020-09-10T15:05:57Z</time>
</trkpt>
<trkpt lat="48.20715" lon="10.503658">
<ele>490.247</ele>
<time>2020-09-10T15:05:58Z</time>
</trkpt>
<trkpt lat="48.207085" lon="10.50366">
<ele>490.096</ele>
<time>2020-09-10T15:05:59Z</time>
</trkpt>
<trkpt lat="48.207024" lon="10.503661">
<ele>489.94</ele>
<time>2020-09-10T15:06:00Z</time>
</trkpt>
<trkpt lat="48.206959" lon="10.503661">
<ele>489.816</ele>
<time>2020-09-10T15:06:01Z</time>
</trkpt>
<trkpt lat="48.206894" lon="10.503663">
<ele>489.723</ele>
<time>2020-09-10T15:06:02Z</time>
</trkpt>
<trkpt lat="48.206829" lon="10.503665">
<ele>489.656</ele>
<time>2020-09-10T15:06:03Z</time>
</trkpt>
<trkpt lat="48.20676" lon="10.503666">
<ele>489.615</ele>
<time>2020-09-10T15:06:04Z</time>
</trkpt>
<trkpt lat="48.206696" lon="10.50367">
<ele>489.594</ele>
<time>2020-09-10T15:06:05Z</time>
</trkpt>
<trkpt lat="48.206631" lon="10.503674">
<ele>489.594</ele>
<time>2020-09-10T15:06:06Z</time>
</trkpt>
<trkpt lat="48.206562" lon="10.50368">
<ele>489.594</ele>
<time>2020-09-10T15:06:07Z</time>
</trkpt>
<trkpt lat="48.206493" lon="10.503687">
<ele>489.594</ele>
<time>2020-09-10T15:06:08Z</time>
</trkpt>
<trkpt lat="48.206429" lon="10.503692">
<ele>489.594</ele>
<time>2020-09-10T15:06:09Z</time>
</trkpt>
<trkpt lat="48.20636" lon="10.503695">
<ele>489.594</ele>
<time>2020-09-10T15:06:10Z</time>
</trkpt>
<trkpt lat="48.206291" lon="10.503699">
<ele>489.594</ele>
<time>2020-09-10T15:06:11Z</time>
</trkpt>
<trkpt lat="48.206219" lon="10.503707">
<ele>489.594</ele>
<time>2020-09-10T15:06:12Z</time>
</trkpt>
<trkpt lat="48.206154" lon="10.503716">
<ele>489.594</ele>
<time>2020-09-10T15:06:13Z</time>
</trkpt>
<trkpt lat="48.206085" lon="10.503727">
<ele>489.332</ele>
<time>2020-09-10T15:06:14Z</time>
</trkpt>
<trkpt lat="48.20602" lon="10.503736">
<ele>489.129</ele>
<time>2020-09-10T15:06:15Z</time>
</trkpt>
<trkpt lat="48.205952" lon="10.503743">
<ele>488.973</ele>
<time>2020-09-10T15:06:16Z</time>
</trkpt>
<trkpt lat="48.205883" lon="10.503754">
<ele>488.859</ele>
<time>2020-09-10T15:06:17Z</time>
</trkpt>
<trkpt lat="48.205818" lon="10.503764">
<ele>488.778</ele>
<time>2020-09-10T15:06:18Z</time>
</trkpt>
<trkpt lat="48.20575" lon="10.503778">
<ele>488.717</ele>
<time>2020-09-10T15:06:19Z</time>
</trkpt>
<trkpt lat="48.205677" lon="10.503792">
<ele>488.663</ele>
<time>2020-09-10T15:06:20Z</time>
</trkpt>
<trkpt lat="48.205612" lon="10.503805">
<ele>488.636</ele>
<time>2020-09-10T15:06:21Z</time>
</trkpt>
<trkpt lat="48.205544" lon="10.503819">
<ele>488.636</ele>
<time>2020-09-10T15:06:22Z</time>
</trkpt>
<trkpt lat="48.205475" lon="10.50383">
<ele>488.636</ele>
<time>2020-09-10T15:06:23Z</time>
</trkpt>
<trkpt lat="48.205406" lon="10.503841">
<ele>488.636</ele>
<time>2020-09-10T15:06:24Z</time>
</trkpt>
<trkpt lat="48.205338" lon="10.503857">
<ele>488.382</ele>
<time>2020-09-10T15:06:25Z</time>
</trkpt>
<trkpt lat="48.205269" lon="10.50387">
<ele>488.185</ele>
<time>2020-09-10T15:06:26Z</time>
</trkpt>
<trkpt lat="48.205196" lon="10.503885">
<ele>488.033</ele>
<time>2020-09-10T15:06:27Z</time>
</trkpt>
<trkpt lat="48.205132" lon="10.503899">
<ele>487.918</ele>
<time>2020-09-10T15:06:28Z</time>
</trkpt>
<trkpt lat="48.205063" lon="10.503913">
<ele>487.837</ele>
<time>2020-09-10T15:06:29Z</time>
</trkpt>
<trkpt lat="48.204994" lon="10.50393">
<ele>487.757</ele>
<time>2020-09-10T15:06:30Z</time>
</trkpt>
<trkpt lat="48.204929" lon="10.503944">
<ele>487.704</ele>
<time>2020-09-10T15:06:31Z</time>
</trkpt>
<trkpt lat="48.204865" lon="10.503963">
<ele>487.679</ele>
<time>2020-09-10T15:06:32Z</time>
</trkpt>
<trkpt lat="48.2048" lon="10.503982">
<ele>487.679</ele>
<time>2020-09-10T15:06:33Z</time>
</trkpt>
<trkpt lat="48.204735" lon="10.504001">
<ele>487.679</ele>
<time>2020-09-10T15:06:34Z</time>
</trkpt>
<trkpt lat="48.204674" lon="10.504018">
<ele>487.679</ele>
<time>2020-09-10T15:06:35Z</time>
</trkpt>
<trkpt lat="48.204613" lon="10.504037">
<ele>487.679</ele>
<time>2020-09-10T15:06:36Z</time>
</trkpt>
<trkpt lat="48.204552" lon="10.504053">
<ele>487.913</ele>
<time>2020-09-10T15:06:37Z</time>
</trkpt>
<trkpt lat="48.204491" lon="10.504072">
<ele>488.101</ele>
<time>2020-09-10T15:06:38Z</time>
</trkpt>
<trkpt lat="48.204433" lon="10.504088">
<ele>488.232</ele>
<time>2020-09-10T15:06:39Z</time>
</trkpt>
<trkpt lat="48.204372" lon="10.504107">
<ele>488.372</ele>
<time>2020-09-10T15:06:40Z</time>
</trkpt>
<trkpt lat="48.204315" lon="10.504125">
<ele>488.481</ele>
<time>2020-09-10T15:06:41Z</time>
</trkpt>
<trkpt lat="48.204262" lon="10.504144">
<ele>488.555</ele>
<time>2020-09-10T15:06:42Z</time>
</trkpt>
<trkpt lat="48.204205" lon="10.50416">
<ele>488.859</ele>
<time>2020-09-10T15:06:43Z</time>
</trkpt>
<trkpt lat="48.204147" lon="10.504179">
<ele>489.096</ele>
<time>2020-09-10T15:06:44Z</time>
</trkpt>
<trkpt lat="48.204094" lon="10.504196">
<ele>489.323</ele>
<time>2020-09-10T15:06:45Z</time>
</trkpt>
<trkpt lat="48.204041" lon="10.504217">
<ele>489.453</ele>
<time>2020-09-10T15:06:46Z</time>
</trkpt>
<trkpt lat="48.203983" lon="10.50424">
<ele>489.544</ele>
<time>2020-09-10T15:06:47Z</time>
</trkpt>
<trkpt lat="48.203926" lon="10.504267">
<ele>489.605</ele>
<time>2020-09-10T15:06:48Z</time>
</trkpt>
<trkpt lat="48.203873" lon="10.504293">
<ele>489.652</ele>
<time>2020-09-10T15:06:49Z</time>
</trkpt>
<trkpt lat="48.203819" lon="10.504321">
<ele>489.681</ele>
<time>2020-09-10T15:06:50Z</time>
</trkpt>
<trkpt lat="48.203762" lon="10.504352">
<ele>489.681</ele>
<time>2020-09-10T15:06:51Z</time>
</trkpt>
<trkpt lat="48.203709" lon="10.504385">
<ele>489.681</ele>
<time>2020-09-10T15:06:52Z</time>
</trkpt>
<trkpt lat="48.203655" lon="10.504424">
<ele>489.681</ele>
<time>2020-09-10T15:06:53Z</time>
</trkpt>
<trkpt lat="48.203606" lon="10.504463">
<ele>489.681</ele>
<time>2020-09-10T15:06:54Z</time>
</trkpt>
<trkpt lat="48.203556" lon="10.504501">
<ele>489.681</ele>
<time>2020-09-10T15:06:55Z</time>
</trkpt>
<trkpt lat="48.203499" lon="10.504541">
<ele>489.681</ele>
<time>2020-09-10T15:06:56Z</time>
</trkpt>
<trkpt lat="48.203449" lon="10.504587">
<ele>489.681</ele>
<time>2020-09-10T15:06:57Z</time>
</trkpt>
<trkpt lat="48.2034" lon="10.504635">
<ele>489.681</ele>
<time>2020-09-10T15:06:58Z</time>
</trkpt>
<trkpt lat="48.203354" lon="10.504686">
<ele>489.681</ele>
<time>2020-09-10T15:06:59Z</time>
</trkpt>
<trkpt lat="48.203304" lon="10.504745">
<ele>489.681</ele>
<time>2020-09-10T15:07:00Z</time>
</trkpt>
<trkpt lat="48.203262" lon="10.504808">
<ele>489.681</ele>
<time>2020-09-10T15:07:01Z</time>
</trkpt>
<trkpt lat="48.203213" lon="10.504879">
<ele>489.681</ele>
<time>2020-09-10T15:07:02Z</time>
</trkpt>
<trkpt lat="48.203167" lon="10.504953">
<ele>489.681</ele>
<time>2020-09-10T15:07:03Z</time>
</trkpt>
<trkpt lat="48.203125" lon="10.505028">
<ele>489.681</ele>
<time>2020-09-10T15:07:04Z</time>
</trkpt>
<trkpt lat="48.203083" lon="10.505107">
<ele>489.681</ele>
<time>2020-09-10T15:07:05Z</time>
</trkpt>
<trkpt lat="48.203041" lon="10.505189">
<ele>489.681</ele>
<time>2020-09-10T15:07:06Z</time>
</trkpt>
<trkpt lat="48.203003" lon="10.505273">
<ele>489.681</ele>
<time>2020-09-10T15:07:07Z</time>
</trkpt>
<trkpt lat="48.202969" lon="10.505359">
<ele>489.422</ele>
<time>2020-09-10T15:07:08Z</time>
</trkpt>
<trkpt lat="48.202934" lon="10.505446">
<ele>489.242</ele>
<time>2020-09-10T15:07:09Z</time>
</trkpt>
<trkpt lat="48.2029" lon="10.505537">
<ele>489.058</ele>
<time>2020-09-10T15:07:10Z</time>
</trkpt>
<trkpt lat="48.202866" lon="10.505629">
<ele>488.91</ele>
<time>2020-09-10T15:07:11Z</time>
</trkpt>
<trkpt lat="48.202835" lon="10.505721">
<ele>488.809</ele>
<time>2020-09-10T15:07:12Z</time>
</trkpt>
<trkpt lat="48.202805" lon="10.505817">
<ele>488.463</ele>
<time>2020-09-10T15:07:13Z</time>
</trkpt>
<trkpt lat="48.202774" lon="10.505916">
<ele>488.192</ele>
<time>2020-09-10T15:07:14Z</time>
</trkpt>
<trkpt lat="48.202744" lon="10.506012">
<ele>487.99</ele>
<time>2020-09-10T15:07:15Z</time>
</trkpt>
<trkpt lat="48.202709" lon="10.506104">
<ele>487.808</ele>
<time>2020-09-10T15:07:16Z</time>
</trkpt>
<trkpt lat="48.202675" lon="10.506201">
<ele>487.72</ele>
<time>2020-09-10T15:07:17Z</time>
</trkpt>
<trkpt lat="48.202644" lon="10.506293">
<ele>487.665</ele>
<time>2020-09-10T15:07:18Z</time>
</trkpt>
<trkpt lat="48.202614" lon="10.506387">
<ele>487.621</ele>
<time>2020-09-10T15:07:19Z</time>
</trkpt>
<trkpt lat="48.202579" lon="10.506477">
<ele>487.592</ele>
<time>2020-09-10T15:07:20Z</time>
</trkpt>
<trkpt lat="48.202541" lon="10.506563">
<ele>487.592</ele>
<time>2020-09-10T15:07:21Z</time>
</trkpt>
<trkpt lat="48.202503" lon="10.506647">
<ele>487.343</ele>
<time>2020-09-10T15:07:22Z</time>
</trkpt>
<trkpt lat="48.202457" lon="10.506724">
<ele>487.149</ele>
<time>2020-09-10T15:07:23Z</time>
</trkpt>
<trkpt lat="48.202412" lon="10.5068">
<ele>487</ele>
<time>2020-09-10T15:07:24Z</time>
</trkpt>
<trkpt lat="48.202362" lon="10.506869">
<ele>486.89</ele>
<time>2020-09-10T15:07:25Z</time>
</trkpt>
<trkpt lat="48.202312" lon="10.506934">
<ele>486.814</ele>
<time>2020-09-10T15:07:26Z</time>
</trkpt>
<trkpt lat="48.202259" lon="10.507">
<ele>486.767</ele>
<time>2020-09-10T15:07:27Z</time>
</trkpt>
<trkpt lat="48.202209" lon="10.507064">
<ele>486.741</ele>
<time>2020-09-10T15:07:28Z</time>
</trkpt>
<trkpt lat="48.202156" lon="10.50712">
<ele>486.721</ele>
<time>2020-09-10T15:07:29Z</time>
</trkpt>
<trkpt lat="48.202106" lon="10.507175">
<ele>486.721</ele>
<time>2020-09-10T15:07:30Z</time>
</trkpt>
<trkpt lat="48.202057" lon="10.507232">
<ele>486.721</ele>
<time>2020-09-10T15:07:31Z</time>
</trkpt>
<trkpt lat="48.202" lon="10.507286">
<ele>486.721</ele>
<time>2020-09-10T15:07:32Z</time>
</trkpt>
<trkpt lat="48.201946" lon="10.507343">
<ele>486.721</ele>
<time>2020-09-10T15:07:33Z</time>
</trkpt>
<trkpt lat="48.201893" lon="10.507399">
<ele>486.721</ele>
<time>2020-09-10T15:07:34Z</time>
</trkpt>
<trkpt lat="48.201836" lon="10.507454">
<ele>486.721</ele>
<time>2020-09-10T15:07:35Z</time>
</trkpt>
<trkpt lat="48.201786" lon="10.507506">
<ele>486.721</ele>
<time>2020-09-10T15:07:36Z</time>
</trkpt>
<trkpt lat="48.201733" lon="10.50756">
<ele>486.721</ele>
<time>2020-09-10T15:07:37Z</time>
</trkpt>
<trkpt lat="48.201683" lon="10.507608">
<ele>486.721</ele>
<time>2020-09-10T15:07:38Z</time>
</trkpt>
<trkpt lat="48.201626" lon="10.50766">
<ele>486.721</ele>
<time>2020-09-10T15:07:39Z</time>
</trkpt>
<trkpt lat="48.201569" lon="10.50771">
<ele>486.721</ele>
<time>2020-09-10T15:07:40Z</time>
</trkpt>
<trkpt lat="48.201519" lon="10.507764">
<ele>486.721</ele>
<time>2020-09-10T15:07:41Z</time>
</trkpt>
<trkpt lat="48.201469" lon="10.507813">
<ele>486.721</ele>
<time>2020-09-10T15:07:42Z</time>
</trkpt>
<trkpt lat="48.201416" lon="10.507864">
<ele>486.721</ele>
<time>2020-09-10T15:07:43Z</time>
</trkpt>
<trkpt lat="48.201366" lon="10.507913">
<ele>486.721</ele>
<time>2020-09-10T15:07:44Z</time>
</trkpt>
<trkpt lat="48.201317" lon="10.507967">
<ele>486.721</ele>
<time>2020-09-10T15:07:45Z</time>
</trkpt>
<trkpt lat="48.201267" lon="10.508017">
<ele>486.721</ele>
<time>2020-09-10T15:07:46Z</time>
</trkpt>
<trkpt lat="48.201214" lon="10.508068">
<ele>486.721</ele>
<time>2020-09-10T15:07:47Z</time>
</trkpt>
<trkpt lat="48.201168" lon="10.508117">
<ele>486.721</ele>
<time>2020-09-10T15:07:48Z</time>
</trkpt>
<trkpt lat="48.201115" lon="10.508165">
<ele>486.721</ele>
<time>2020-09-10T15:07:49Z</time>
</trkpt>
<trkpt lat="48.201065" lon="10.508212">
<ele>486.721</ele>
<time>2020-09-10T15:07:50Z</time>
</trkpt>
<trkpt lat="48.201012" lon="10.508254">
<ele>486.721</ele>
<time>2020-09-10T15:07:51Z</time>
</trkpt>
<trkpt lat="48.200958" lon="10.508291">
<ele>486.721</ele>
<time>2020-09-10T15:07:52Z</time>
</trkpt>
<trkpt lat="48.200905" lon="10.508327">
<ele>486.721</ele>
<time>2020-09-10T15:07:53Z</time>
</trkpt>
<trkpt lat="48.200851" lon="10.508359">
<ele>486.721</ele>
<time>2020-09-10T15:07:54Z</time>
</trkpt>
<trkpt lat="48.20079" lon="10.508392">
<ele>486.721</ele>
<time>2020-09-10T15:07:55Z</time>
</trkpt>
<trkpt lat="48.200737" lon="10.508426">
<ele>486.721</ele>
<time>2020-09-10T15:07:56Z</time>
</trkpt>
<trkpt lat="48.200684" lon="10.508455">
<ele>486.721</ele>
<time>2020-09-10T15:07:57Z</time>
</trkpt>
<trkpt lat="48.200626" lon="10.508482">
<ele>486.721</ele>
<time>2020-09-10T15:07:58Z</time>
</trkpt>
<trkpt lat="48.200573" lon="10.508507">
<ele>486.721</ele>
<time>2020-09-10T15:07:59Z</time>
</trkpt>
<trkpt lat="48.20052" lon="10.508527">
<ele>486.721</ele>
<time>2020-09-10T15:08:00Z</time>
</trkpt>
<trkpt lat="48.200462" lon="10.508547">
<ele>486.721</ele>
<time>2020-09-10T15:08:01Z</time>
</trkpt>
<trkpt lat="48.200413" lon="10.508565">
<ele>486.721</ele>
<time>2020-09-10T15:08:02Z</time>
</trkpt>
<trkpt lat="48.200363" lon="10.508581">
<ele>486.721</ele>
<time>2020-09-10T15:08:03Z</time>
</trkpt>
<trkpt lat="48.20031" lon="10.508595">
<ele>486.721</ele>
<time>2020-09-10T15:08:04Z</time>
</trkpt>
<trkpt lat="48.200264" lon="10.508608">
<ele>486.721</ele>
<time>2020-09-10T15:08:05Z</time>
</trkpt>
<trkpt lat="48.200218" lon="10.508616">
<ele>486.721</ele>
<time>2020-09-10T15:08:06Z</time>
</trkpt>
<trkpt lat="48.200172" lon="10.508622">
<ele>486.721</ele>
<time>2020-09-10T15:08:07Z</time>
</trkpt>
<trkpt lat="48.200134" lon="10.508625">
<ele>486.721</ele>
<time>2020-09-10T15:08:08Z</time>
</trkpt>
<trkpt lat="48.2001" lon="10.508629">
<ele>486.721</ele>
<time>2020-09-10T15:08:09Z</time>
</trkpt>
<trkpt lat="48.200069" lon="10.508629">
<ele>486.721</ele>
<time>2020-09-10T15:08:10Z</time>
</trkpt>
<trkpt lat="48.200039" lon="10.508629">
<ele>486.721</ele>
<time>2020-09-10T15:08:11Z</time>
</trkpt>
<trkpt lat="48.200012" lon="10.508632">
<ele>486.721</ele>
<time>2020-09-10T15:08:12Z</time>
</trkpt>
<trkpt lat="48.199986" lon="10.508645">
<ele>486.721</ele>
<time>2020-09-10T15:08:13Z</time>
</trkpt>
<trkpt lat="48.19997" lon="10.508672">
<ele>486.721</ele>
<time>2020-09-10T15:08:14Z</time>
</trkpt>
<trkpt lat="48.199963" lon="10.508705">
<ele>486.721</ele>
<time>2020-09-10T15:08:15Z</time>
</trkpt>
<trkpt lat="48.199963" lon="10.508743">
<ele>486.721</ele>
<time>2020-09-10T15:08:16Z</time>
</trkpt>
<trkpt lat="48.199963" lon="10.508788">
<ele>486.721</ele>
<time>2020-09-10T15:08:17Z</time>
</trkpt>
<trkpt lat="48.199966" lon="10.508845">
<ele>486.721</ele>
<time>2020-09-10T15:08:18Z</time>
</trkpt>
<trkpt lat="48.199966" lon="10.508904">
<ele>486.721</ele>
<time>2020-09-10T15:08:19Z</time>
</trkpt>
<trkpt lat="48.19997" lon="10.508962">
<ele>486.721</ele>
<time>2020-09-10T15:08:20Z</time>
</trkpt>
<trkpt lat="48.199966" lon="10.509025">
<ele>486.721</ele>
<time>2020-09-10T15:08:21Z</time>
</trkpt>
<trkpt lat="48.19997" lon="10.509093">
<ele>486.721</ele>
<time>2020-09-10T15:08:22Z</time>
</trkpt>
<trkpt lat="48.199974" lon="10.50916">
<ele>486.721</ele>
<time>2020-09-10T15:08:23Z</time>
</trkpt>
<trkpt lat="48.199974" lon="10.509232">
<ele>486.721</ele>
<time>2020-09-10T15:08:24Z</time>
</trkpt>
<trkpt lat="48.199978" lon="10.509303">
<ele>486.721</ele>
<time>2020-09-10T15:08:25Z</time>
</trkpt>
<trkpt lat="48.199982" lon="10.509377">
<ele>486.721</ele>
<time>2020-09-10T15:08:26Z</time>
</trkpt>
<trkpt lat="48.199989" lon="10.509448">
<ele>486.721</ele>
<time>2020-09-10T15:08:27Z</time>
</trkpt>
<trkpt lat="48.199997" lon="10.509521">
<ele>486.941</ele>
<time>2020-09-10T15:08:28Z</time>
</trkpt>
<trkpt lat="48.200005" lon="10.509595">
<ele>487.091</ele>
<time>2020-09-10T15:08:29Z</time>
</trkpt>
<trkpt lat="48.200016" lon="10.509666">
<ele>487.244</ele>
<time>2020-09-10T15:08:30Z</time>
</trkpt>
<trkpt lat="48.200027" lon="10.509738">
<ele>487.367</ele>
<time>2020-09-10T15:08:31Z</time>
</trkpt>
<trkpt lat="48.200043" lon="10.509811">
<ele>487.459</ele>
<time>2020-09-10T15:08:32Z</time>
</trkpt>
<trkpt lat="48.200058" lon="10.509885">
<ele>487.527</ele>
<time>2020-09-10T15:08:33Z</time>
</trkpt>
<trkpt lat="48.200069" lon="10.509957">
<ele>487.571</ele>
<time>2020-09-10T15:08:34Z</time>
</trkpt>
<trkpt lat="48.200073" lon="10.510029">
<ele>487.592</ele>
<time>2020-09-10T15:08:35Z</time>
</trkpt>
<trkpt lat="48.200085" lon="10.510097">
<ele>487.836</ele>
<time>2020-09-10T15:08:36Z</time>
</trkpt>
<trkpt lat="48.200092" lon="10.510165">
<ele>488.028</ele>
<time>2020-09-10T15:08:37Z</time>
</trkpt>
<trkpt lat="48.200104" lon="10.510236">
<ele>488.177</ele>
<time>2020-09-10T15:08:38Z</time>
</trkpt>
<trkpt lat="48.200115" lon="10.510303">
<ele>488.279</ele>
<time>2020-09-10T15:08:39Z</time>
</trkpt>
<trkpt lat="48.20013" lon="10.510372">
<ele>488.389</ele>
<time>2020-09-10T15:08:40Z</time>
</trkpt>
<trkpt lat="48.200142" lon="10.51044">
<ele>488.471</ele>
<time>2020-09-10T15:08:41Z</time>
</trkpt>
<trkpt lat="48.200161" lon="10.510509">
<ele>488.524</ele>
<time>2020-09-10T15:08:42Z</time>
</trkpt>
<trkpt lat="48.200176" lon="10.510578">
<ele>488.549</ele>
<time>2020-09-10T15:08:43Z</time>
</trkpt>
<trkpt lat="48.200191" lon="10.510649">
<ele>488.812</ele>
<time>2020-09-10T15:08:44Z</time>
</trkpt>
<trkpt lat="48.200199" lon="10.510718">
<ele>489.015</ele>
<time>2020-09-10T15:08:45Z</time>
</trkpt>
<trkpt lat="48.200207" lon="10.51079">
<ele>489.169</ele>
<time>2020-09-10T15:08:46Z</time>
</trkpt>
<trkpt lat="48.200207" lon="10.510859">
<ele>489.284</ele>
<time>2020-09-10T15:08:47Z</time>
</trkpt>
<trkpt lat="48.200203" lon="10.510925">
<ele>489.348</ele>
<time>2020-09-10T15:08:48Z</time>
</trkpt>
<trkpt lat="48.200195" lon="10.510986">
<ele>489.618</ele>
<time>2020-09-10T15:08:49Z</time>
</trkpt>
<trkpt lat="48.20018" lon="10.511046">
<ele>489.849</ele>
<time>2020-09-10T15:08:50Z</time>
</trkpt>
<trkpt lat="48.200169" lon="10.511115">
<ele>490.025</ele>
<time>2020-09-10T15:08:51Z</time>
</trkpt>
<trkpt lat="48.200153" lon="10.51118">
<ele>490.147</ele>
<time>2020-09-10T15:08:52Z</time>
</trkpt>
<trkpt lat="48.200134" lon="10.511244">
<ele>490.243</ele>
<time>2020-09-10T15:08:53Z</time>
</trkpt>
<trkpt lat="48.200108" lon="10.511302">
<ele>490.311</ele>
<time>2020-09-10T15:08:54Z</time>
</trkpt>
<trkpt lat="48.200089" lon="10.51136">
<ele>490.357</ele>
<time>2020-09-10T15:08:55Z</time>
</trkpt>
<trkpt lat="48.200062" lon="10.51142">
<ele>490.378</ele>
<time>2020-09-10T15:08:56Z</time>
</trkpt>
<trkpt lat="48.200039" lon="10.51148">
<ele>490.378</ele>
<time>2020-09-10T15:08:57Z</time>
</trkpt>
<trkpt lat="48.200012" lon="10.511539">
<ele>490.378</ele>
<time>2020-09-10T15:08:58Z</time>
</trkpt>
<trkpt lat="48.199993" lon="10.5116">
<ele>490.378</ele>
<time>2020-09-10T15:08:59Z</time>
</trkpt>
<trkpt lat="48.199974" lon="10.511662">
<ele>490.61</ele>
<time>2020-09-10T15:09:00Z</time>
</trkpt>
<trkpt lat="48.199951" lon="10.511728">
<ele>490.807</ele>
<time>2020-09-10T15:09:01Z</time>
</trkpt>
<trkpt lat="48.19994" lon="10.511793">
<ele>490.969</ele>
<time>2020-09-10T15:09:02Z</time>
</trkpt>
<trkpt lat="48.199928" lon="10.511864">
<ele>491.096</ele>
<time>2020-09-10T15:09:03Z</time>
</trkpt>
<trkpt lat="48.199921" lon="10.511937">
<ele>491.194</ele>
<time>2020-09-10T15:09:04Z</time>
</trkpt>
<trkpt lat="48.199921" lon="10.512009">
<ele>491.267</ele>
<time>2020-09-10T15:09:05Z</time>
</trkpt>
<trkpt lat="48.199924" lon="10.512078">
<ele>491.313</ele>
<time>2020-09-10T15:09:06Z</time>
</trkpt>
<trkpt lat="48.199932" lon="10.512147">
<ele>491.335</ele>
<time>2020-09-10T15:09:07Z</time>
</trkpt>
<trkpt lat="48.19994" lon="10.512214">
<ele>491.335</ele>
<time>2020-09-10T15:09:08Z</time>
</trkpt>
<trkpt lat="48.199947" lon="10.51228">
<ele>491.335</ele>
<time>2020-09-10T15:09:09Z</time>
</trkpt>
<trkpt lat="48.199959" lon="10.512348">
<ele>491.335</ele>
<time>2020-09-10T15:09:10Z</time>
</trkpt>
<trkpt lat="48.19997" lon="10.512415">
<ele>491.335</ele>
<time>2020-09-10T15:09:11Z</time>
</trkpt>
<trkpt lat="48.199978" lon="10.51248">
<ele>491.335</ele>
<time>2020-09-10T15:09:12Z</time>
</trkpt>
<trkpt lat="48.199986" lon="10.512547">
<ele>491.626</ele>
<time>2020-09-10T15:09:13Z</time>
</trkpt>
<trkpt lat="48.199982" lon="10.512607">
<ele>491.851</ele>
<time>2020-09-10T15:09:14Z</time>
</trkpt>
<trkpt lat="48.199959" lon="10.512656">
<ele>492.023</ele>
<time>2020-09-10T15:09:15Z</time>
</trkpt>
<trkpt lat="48.199932" lon="10.512698">
<ele>492.155</ele>
<time>2020-09-10T15:09:16Z</time>
</trkpt>
<trkpt lat="48.199886" lon="10.512725">
<ele>492.24</ele>
<time>2020-09-10T15:09:17Z</time>
</trkpt>
<trkpt lat="48.199841" lon="10.512735">
<ele>492.302</ele>
<time>2020-09-10T15:09:18Z</time>
</trkpt>
<trkpt lat="48.199802" lon="10.512742">
<ele>492.35</ele>
<time>2020-09-10T15:09:19Z</time>
</trkpt>
<trkpt lat="48.199757" lon="10.51274">
<ele>492.38</ele>
<time>2020-09-10T15:09:20Z</time>
</trkpt>
<trkpt lat="48.199711" lon="10.512735">
<ele>492.671</ele>
<time>2020-09-10T15:09:21Z</time>
</trkpt>
<trkpt lat="48.199657" lon="10.51273">
<ele>492.9</ele>
<time>2020-09-10T15:09:22Z</time>
</trkpt>
<trkpt lat="48.199612" lon="10.512723">
<ele>493.065</ele>
<time>2020-09-10T15:09:23Z</time>
</trkpt>
<trkpt lat="48.199558" lon="10.512713">
<ele>493.186</ele>
<time>2020-09-10T15:09:24Z</time>
</trkpt>
<trkpt lat="48.199516" lon="10.512691">
<ele>493.264</ele>
<time>2020-09-10T15:09:25Z</time>
</trkpt>
<trkpt lat="48.199467" lon="10.512664">
<ele>493.31</ele>
<time>2020-09-10T15:09:26Z</time>
</trkpt>
<trkpt lat="48.199425" lon="10.512631">
<ele>493.333</ele>
<time>2020-09-10T15:09:27Z</time>
</trkpt>
<trkpt lat="48.199383" lon="10.512595">
<ele>493.552</ele>
<time>2020-09-10T15:09:28Z</time>
</trkpt>
<trkpt lat="48.199337" lon="10.512558">
<ele>493.701</ele>
<time>2020-09-10T15:09:29Z</time>
</trkpt>
<trkpt lat="48.199291" lon="10.512518">
<ele>493.856</ele>
<time>2020-09-10T15:09:30Z</time>
</trkpt>
<trkpt lat="48.199245" lon="10.512484">
<ele>493.981</ele>
<time>2020-09-10T15:09:31Z</time>
</trkpt>
<trkpt lat="48.199192" lon="10.512448">
<ele>494.076</ele>
<time>2020-09-10T15:09:32Z</time>
</trkpt>
<trkpt lat="48.199142" lon="10.51242">
<ele>494.146</ele>
<time>2020-09-10T15:09:33Z</time>
</trkpt>
<trkpt lat="48.199093" lon="10.512397">
<ele>494.189</ele>
<time>2020-09-10T15:09:34Z</time>
</trkpt>
<trkpt lat="48.199039" lon="10.512382">
<ele>494.209</ele>
<time>2020-09-10T15:09:35Z</time>
</trkpt>
<trkpt lat="48.198986" lon="10.512371">
<ele>494.209</ele>
<time>2020-09-10T15:09:36Z</time>
</trkpt>
<trkpt lat="48.198929" lon="10.512362">
<ele>494.209</ele>
<time>2020-09-10T15:09:37Z</time>
</trkpt>
<trkpt lat="48.198879" lon="10.512355">
<ele>494.443</ele>
<time>2020-09-10T15:09:38Z</time>
</trkpt>
<trkpt lat="48.19883" lon="10.512352">
<ele>494.608</ele>
<time>2020-09-10T15:09:39Z</time>
</trkpt>
<trkpt lat="48.198772" lon="10.512348">
<ele>494.777</ele>
<time>2020-09-10T15:09:40Z</time>
</trkpt>
<trkpt lat="48.198723" lon="10.512346">
<ele>494.913</ele>
<time>2020-09-10T15:09:41Z</time>
</trkpt>
<trkpt lat="48.198669" lon="10.512346">
<ele>495.019</ele>
<time>2020-09-10T15:09:42Z</time>
</trkpt>
<trkpt lat="48.19862" lon="10.512352">
<ele>495.095</ele>
<time>2020-09-10T15:09:43Z</time>
</trkpt>
<trkpt lat="48.19857" lon="10.512359">
<ele>495.144</ele>
<time>2020-09-10T15:09:44Z</time>
</trkpt>
<trkpt lat="48.198517" lon="10.512366">
<ele>495.167</ele>
<time>2020-09-10T15:09:45Z</time>
</trkpt>
<trkpt lat="48.198467" lon="10.51237">
<ele>495.411</ele>
<time>2020-09-10T15:09:46Z</time>
</trkpt>
<trkpt lat="48.198414" lon="10.512371">
<ele>495.606</ele>
<time>2020-09-10T15:09:47Z</time>
</trkpt>
<trkpt lat="48.198364" lon="10.512371">
<ele>495.755</ele>
<time>2020-09-10T15:09:48Z</time>
</trkpt>
<trkpt lat="48.198315" lon="10.512377">
<ele>495.859</ele>
<time>2020-09-10T15:09:49Z</time>
</trkpt>
<trkpt lat="48.198265" lon="10.512387">
<ele>496.18</ele>
<time>2020-09-10T15:09:50Z</time>
</trkpt>
<trkpt lat="48.198212" lon="10.5124">
<ele>496.438</ele>
<time>2020-09-10T15:09:51Z</time>
</trkpt>
<trkpt lat="48.198162" lon="10.512417">
<ele>496.637</ele>
<time>2020-09-10T15:09:52Z</time>
</trkpt>
<trkpt lat="48.198112" lon="10.512435">
<ele>496.778</ele>
<time>2020-09-10T15:09:53Z</time>
</trkpt>
<trkpt lat="48.198063" lon="10.512455">
<ele>496.869</ele>
<time>2020-09-10T15:09:54Z</time>
</trkpt>
<trkpt lat="48.198013" lon="10.512475">
<ele>496.925</ele>
<time>2020-09-10T15:09:55Z</time>
</trkpt>
<trkpt lat="48.19796" lon="10.512499">
<ele>497.211</ele>
<time>2020-09-10T15:09:56Z</time>
</trkpt>
<trkpt lat="48.19791" lon="10.51252">
<ele>497.428</ele>
<time>2020-09-10T15:09:57Z</time>
</trkpt>
<trkpt lat="48.197857" lon="10.51254">
<ele>497.588</ele>
<time>2020-09-10T15:09:58Z</time>
</trkpt>
<trkpt lat="48.197807" lon="10.512562">
<ele>497.689</ele>
<time>2020-09-10T15:09:59Z</time>
</trkpt>
<trkpt lat="48.197754" lon="10.512585">
<ele>497.8</ele>
<time>2020-09-10T15:10:00Z</time>
</trkpt>
<trkpt lat="48.197704" lon="10.512608">
<ele>497.88</ele>
<time>2020-09-10T15:10:01Z</time>
</trkpt>
<trkpt lat="48.197651" lon="10.512631">
<ele>497.728</ele>
<time>2020-09-10T15:10:02Z</time>
</trkpt>
<trkpt lat="48.197594" lon="10.512656">
<ele>497.58</ele>
<time>2020-09-10T15:10:03Z</time>
</trkpt>
<trkpt lat="48.197533" lon="10.512687">
<ele>497.512</ele>
<time>2020-09-10T15:10:04Z</time>
</trkpt>
<trkpt lat="48.197472" lon="10.51272">
<ele>497.367</ele>
<time>2020-09-10T15:10:05Z</time>
</trkpt>
<trkpt lat="48.197414" lon="10.512756">
<ele>497.262</ele>
<time>2020-09-10T15:10:06Z</time>
</trkpt>
<trkpt lat="48.19735" lon="10.51279">
<ele>497.186</ele>
<time>2020-09-10T15:10:07Z</time>
</trkpt>
<trkpt lat="48.197281" lon="10.512828">
<ele>497.152</ele>
<time>2020-09-10T15:10:08Z</time>
</trkpt>
<trkpt lat="48.197208" lon="10.512867">
<ele>496.864</ele>
<time>2020-09-10T15:10:09Z</time>
</trkpt>
<trkpt lat="48.197136" lon="10.512907">
<ele>496.612</ele>
<time>2020-09-10T15:10:10Z</time>
</trkpt>
<trkpt lat="48.197056" lon="10.51294">
<ele>496.456</ele>
<time>2020-09-10T15:10:11Z</time>
</trkpt>
<trkpt lat="48.196976" lon="10.512972">
<ele>496.034</ele>
<time>2020-09-10T15:10:12Z</time>
</trkpt>
<trkpt lat="48.196899" lon="10.512999">
<ele>495.701</ele>
<time>2020-09-10T15:10:13Z</time>
</trkpt>
<trkpt lat="48.196815" lon="10.513022">
<ele>495.49</ele>
<time>2020-09-10T15:10:14Z</time>
</trkpt>
<trkpt lat="48.196735" lon="10.513041">
<ele>495.046</ele>
<time>2020-09-10T15:10:15Z</time>
</trkpt>
<trkpt lat="48.196651" lon="10.513059">
<ele>494.712</ele>
<time>2020-09-10T15:10:16Z</time>
</trkpt>
<trkpt lat="48.196568" lon="10.513072">
<ele>494.44</ele>
<time>2020-09-10T15:10:17Z</time>
</trkpt>
<trkpt lat="48.196484" lon="10.513085">
<ele>494.297</ele>
<time>2020-09-10T15:10:18Z</time>
</trkpt>
<trkpt lat="48.196404" lon="10.513096">
<ele>494.193</ele>
<time>2020-09-10T15:10:19Z</time>
</trkpt>
<trkpt lat="48.196327" lon="10.513108">
<ele>494.112</ele>
<time>2020-09-10T15:10:20Z</time>
</trkpt>
<trkpt lat="48.196251" lon="10.513122">
<ele>494.06</ele>
<time>2020-09-10T15:10:21Z</time>
</trkpt>
<trkpt lat="48.196178" lon="10.513133">
<ele>494.035</ele>
<time>2020-09-10T15:10:22Z</time>
</trkpt>
<trkpt lat="48.196106" lon="10.513144">
<ele>494.035</ele>
<time>2020-09-10T15:10:23Z</time>
</trkpt>
<trkpt lat="48.196033" lon="10.51315">
<ele>494.035</ele>
<time>2020-09-10T15:10:24Z</time>
</trkpt>
<trkpt lat="48.195965" lon="10.513155">
<ele>494.035</ele>
<time>2020-09-10T15:10:25Z</time>
</trkpt>
<trkpt lat="48.1959" lon="10.513155">
<ele>494.035</ele>
<time>2020-09-10T15:10:26Z</time>
</trkpt>
<trkpt lat="48.195835" lon="10.513148">
<ele>494.035</ele>
<time>2020-09-10T15:10:27Z</time>
</trkpt>
<trkpt lat="48.19577" lon="10.513142">
<ele>494.035</ele>
<time>2020-09-10T15:10:28Z</time>
</trkpt>
<trkpt lat="48.195709" lon="10.513133">
<ele>494.035</ele>
<time>2020-09-10T15:10:29Z</time>
</trkpt>
<trkpt lat="48.195648" lon="10.513124">
<ele>494.035</ele>
<time>2020-09-10T15:10:30Z</time>
</trkpt>
<trkpt lat="48.195591" lon="10.513115">
<ele>494.035</ele>
<time>2020-09-10T15:10:31Z</time>
</trkpt>
<trkpt lat="48.19553" lon="10.513106">
<ele>494.035</ele>
<time>2020-09-10T15:10:32Z</time>
</trkpt>
<trkpt lat="48.195473" lon="10.513096">
<ele>494.298</ele>
<time>2020-09-10T15:10:33Z</time>
</trkpt>
<trkpt lat="48.195412" lon="10.513088">
<ele>494.505</ele>
<time>2020-09-10T15:10:34Z</time>
</trkpt>
<trkpt lat="48.195354" lon="10.513077">
<ele>494.666</ele>
<time>2020-09-10T15:10:35Z</time>
</trkpt>
<trkpt lat="48.195293" lon="10.513063">
<ele>494.784</ele>
<time>2020-09-10T15:10:36Z</time>
</trkpt>
<trkpt lat="48.195236" lon="10.513052">
<ele>494.868</ele>
<time>2020-09-10T15:10:37Z</time>
</trkpt>
<trkpt lat="48.195179" lon="10.513045">
<ele>494.912</ele>
<time>2020-09-10T15:10:38Z</time>
</trkpt>
<trkpt lat="48.195118" lon="10.513041">
<ele>495.159</ele>
<time>2020-09-10T15:10:39Z</time>
</trkpt>
<trkpt lat="48.195057" lon="10.513043">
<ele>495.369</ele>
<time>2020-09-10T15:10:40Z</time>
</trkpt>
<trkpt lat="48.195" lon="10.513043">
<ele>495.521</ele>
<time>2020-09-10T15:10:41Z</time>
</trkpt>
<trkpt lat="48.194939" lon="10.513041">
<ele>495.641</ele>
<time>2020-09-10T15:10:42Z</time>
</trkpt>
<trkpt lat="48.194874" lon="10.513043">
<ele>495.735</ele>
<time>2020-09-10T15:10:43Z</time>
</trkpt>
<trkpt lat="48.194813" lon="10.513048">
<ele>495.801</ele>
<time>2020-09-10T15:10:44Z</time>
</trkpt>
<trkpt lat="48.194752" lon="10.513057">
<ele>495.844</ele>
<time>2020-09-10T15:10:45Z</time>
</trkpt>
<trkpt lat="48.194691" lon="10.513068">
<ele>495.865</ele>
<time>2020-09-10T15:10:46Z</time>
</trkpt>
<trkpt lat="48.194626" lon="10.513085">
<ele>495.865</ele>
<time>2020-09-10T15:10:47Z</time>
</trkpt>
<trkpt lat="48.194565" lon="10.513106">
<ele>495.865</ele>
<time>2020-09-10T15:10:48Z</time>
</trkpt>
<trkpt lat="48.194508" lon="10.513129">
<ele>495.865</ele>
<time>2020-09-10T15:10:49Z</time>
</trkpt>
<trkpt lat="48.194447" lon="10.513157">
<ele>495.865</ele>
<time>2020-09-10T15:10:50Z</time>
</trkpt>
<trkpt lat="48.194386" lon="10.513188">
<ele>495.865</ele>
<time>2020-09-10T15:10:51Z</time>
</trkpt>
<trkpt lat="48.194324" lon="10.51322">
<ele>495.61</ele>
<time>2020-09-10T15:10:52Z</time>
</trkpt>
<trkpt lat="48.194267" lon="10.513253">
<ele>495.416</ele>
<time>2020-09-10T15:10:53Z</time>
</trkpt>
<trkpt lat="48.194206" lon="10.51329">
<ele>495.265</ele>
<time>2020-09-10T15:10:54Z</time>
</trkpt>
<trkpt lat="48.194145" lon="10.513329">
<ele>495.157</ele>
<time>2020-09-10T15:10:55Z</time>
</trkpt>
<trkpt lat="48.194088" lon="10.513364">
<ele>495.082</ele>
<time>2020-09-10T15:10:56Z</time>
</trkpt>
<trkpt lat="48.194031" lon="10.5134">
<ele>495.035</ele>
<time>2020-09-10T15:10:57Z</time>
</trkpt>
<trkpt lat="48.19397" lon="10.513437">
<ele>495.013</ele>
<time>2020-09-10T15:10:58Z</time>
</trkpt>
<trkpt lat="48.193909" lon="10.513472">
<ele>494.993</ele>
<time>2020-09-10T15:10:59Z</time>
</trkpt>
<trkpt lat="48.193848" lon="10.513504">
<ele>494.993</ele>
<time>2020-09-10T15:11:00Z</time>
</trkpt>
<trkpt lat="48.193787" lon="10.513535">
<ele>494.993</ele>
<time>2020-09-10T15:11:01Z</time>
</trkpt>
<trkpt lat="48.193729" lon="10.513563">
<ele>494.993</ele>
<time>2020-09-10T15:11:02Z</time>
</trkpt>
<trkpt lat="48.193668" lon="10.513588">
<ele>494.993</ele>
<time>2020-09-10T15:11:03Z</time>
</trkpt>
<trkpt lat="48.193611" lon="10.513612">
<ele>494.993</ele>
<time>2020-09-10T15:11:04Z</time>
</trkpt>
<trkpt lat="48.19355" lon="10.513634">
<ele>494.993</ele>
<time>2020-09-10T15:11:05Z</time>
</trkpt>
<trkpt lat="48.193493" lon="10.513653">
<ele>495.213</ele>
<time>2020-09-10T15:11:06Z</time>
</trkpt>
<trkpt lat="48.193436" lon="10.513674">
<ele>495.387</ele>
<time>2020-09-10T15:11:07Z</time>
</trkpt>
<trkpt lat="48.193378" lon="10.51369">
<ele>495.524</ele>
<time>2020-09-10T15:11:08Z</time>
</trkpt>
<trkpt lat="48.193321" lon="10.513705">
<ele>495.618</ele>
<time>2020-09-10T15:11:09Z</time>
</trkpt>
<trkpt lat="48.193264" lon="10.51372">
<ele>495.716</ele>
<time>2020-09-10T15:11:10Z</time>
</trkpt>
<trkpt lat="48.193207" lon="10.513739">
<ele>496.042</ele>
<time>2020-09-10T15:11:11Z</time>
</trkpt>
<trkpt lat="48.193153" lon="10.513763">
<ele>496.304</ele>
<time>2020-09-10T15:11:12Z</time>
</trkpt>
<trkpt lat="48.1931" lon="10.513789">
<ele>496.505</ele>
<time>2020-09-10T15:11:13Z</time>
</trkpt>
<trkpt lat="48.19305" lon="10.513822">
<ele>496.709</ele>
<time>2020-09-10T15:11:14Z</time>
</trkpt>
<trkpt lat="48.193001" lon="10.513857">
<ele>497.061</ele>
<time>2020-09-10T15:11:15Z</time>
</trkpt>
<trkpt lat="48.192955" lon="10.513894">
<ele>497.32</ele>
<time>2020-09-10T15:11:16Z</time>
</trkpt>
<trkpt lat="48.192909" lon="10.513931">
<ele>497.509</ele>
<time>2020-09-10T15:11:17Z</time>
</trkpt>
<trkpt lat="48.192867" lon="10.513973">
<ele>497.622</ele>
<time>2020-09-10T15:11:18Z</time>
</trkpt>
<trkpt lat="48.192822" lon="10.51402">
<ele>497.703</ele>
<time>2020-09-10T15:11:19Z</time>
</trkpt>
<trkpt lat="48.192772" lon="10.51407">
<ele>497.788</ele>
<time>2020-09-10T15:11:20Z</time>
</trkpt>
<trkpt lat="48.19273" lon="10.514113">
<ele>497.842</ele>
<time>2020-09-10T15:11:21Z</time>
</trkpt>
<trkpt lat="48.192684" lon="10.51416">
<ele>497.868</ele>
<time>2020-09-10T15:11:22Z</time>
</trkpt>
<trkpt lat="48.192638" lon="10.514212">
<ele>497.868</ele>
<time>2020-09-10T15:11:23Z</time>
</trkpt>
<trkpt lat="48.192585" lon="10.514263">
<ele>497.868</ele>
<time>2020-09-10T15:11:24Z</time>
</trkpt>
<trkpt lat="48.192532" lon="10.514311">
<ele>497.868</ele>
<time>2020-09-10T15:11:25Z</time>
</trkpt>
<trkpt lat="48.192474" lon="10.514355">
<ele>497.868</ele>
<time>2020-09-10T15:11:26Z</time>
</trkpt>
<trkpt lat="48.192417" lon="10.514397">
<ele>497.868</ele>
<time>2020-09-10T15:11:27Z</time>
</trkpt>
<trkpt lat="48.192364" lon="10.514439">
<ele>497.868</ele>
<time>2020-09-10T15:11:28Z</time>
</trkpt>
<trkpt lat="48.19231" lon="10.514477">
<ele>497.868</ele>
<time>2020-09-10T15:11:29Z</time>
</trkpt>
<trkpt lat="48.192257" lon="10.514517">
<ele>497.868</ele>
<time>2020-09-10T15:11:30Z</time>
</trkpt>
<trkpt lat="48.192211" lon="10.514562">
<ele>497.868</ele>
<time>2020-09-10T15:11:31Z</time>
</trkpt>
<trkpt lat="48.192158" lon="10.514606">
<ele>497.868</ele>
<time>2020-09-10T15:11:32Z</time>
</trkpt>
<trkpt lat="48.192108" lon="10.514655">
<ele>497.868</ele>
<time>2020-09-10T15:11:33Z</time>
</trkpt>
<trkpt lat="48.192059" lon="10.514713">
<ele>497.868</ele>
<time>2020-09-10T15:11:34Z</time>
</trkpt>
<trkpt lat="48.192013" lon="10.514775">
<ele>497.868</ele>
<time>2020-09-10T15:11:35Z</time>
</trkpt>
<trkpt lat="48.191963" lon="10.514843">
<ele>497.868</ele>
<time>2020-09-10T15:11:36Z</time>
</trkpt>
<trkpt lat="48.191917" lon="10.514914">
<ele>497.623</ele>
<time>2020-09-10T15:11:37Z</time>
</trkpt>
<trkpt lat="48.191875" lon="10.51499">
<ele>497.429</ele>
<time>2020-09-10T15:11:38Z</time>
</trkpt>
<trkpt lat="48.191837" lon="10.515069">
<ele>497.3</ele>
<time>2020-09-10T15:11:39Z</time>
</trkpt>
<trkpt lat="48.191799" lon="10.515151">
<ele>497.16</ele>
<time>2020-09-10T15:11:40Z</time>
</trkpt>
<trkpt lat="48.191765" lon="10.515237">
<ele>497.056</ele>
<time>2020-09-10T15:11:41Z</time>
</trkpt>
<trkpt lat="48.191734" lon="10.515325">
<ele>496.982</ele>
<time>2020-09-10T15:11:42Z</time>
</trkpt>
<trkpt lat="48.191719" lon="10.515415">
<ele>496.934</ele>
<time>2020-09-10T15:11:43Z</time>
</trkpt>
<trkpt lat="48.1917" lon="10.515512">
<ele>496.91</ele>
<time>2020-09-10T15:11:44Z</time>
</trkpt>
<trkpt lat="48.191689" lon="10.515607">
<ele>496.91</ele>
<time>2020-09-10T15:11:45Z</time>
</trkpt>
<trkpt lat="48.191673" lon="10.515704">
<ele>496.91</ele>
<time>2020-09-10T15:11:46Z</time>
</trkpt>
<trkpt lat="48.191662" lon="10.515797">
<ele>496.91</ele>
<time>2020-09-10T15:11:47Z</time>
</trkpt>
<trkpt lat="48.191654" lon="10.515892">
<ele>496.678</ele>
<time>2020-09-10T15:11:48Z</time>
</trkpt>
<trkpt lat="48.191639" lon="10.515988">
<ele>496.512</ele>
<time>2020-09-10T15:11:49Z</time>
</trkpt>
<trkpt lat="48.191628" lon="10.516086">
<ele>496.34</ele>
<time>2020-09-10T15:11:50Z</time>
</trkpt>
<trkpt lat="48.191601" lon="10.516178">
<ele>496.203</ele>
<time>2020-09-10T15:11:51Z</time>
</trkpt>
<trkpt lat="48.191574" lon="10.516267">
<ele>496.1</ele>
<time>2020-09-10T15:11:52Z</time>
</trkpt>
<trkpt lat="48.191532" lon="10.51635">
<ele>496.023</ele>
<time>2020-09-10T15:11:53Z</time>
</trkpt>
<trkpt lat="48.191494" lon="10.516427">
<ele>495.975</ele>
<time>2020-09-10T15:11:54Z</time>
</trkpt>
<trkpt lat="48.191448" lon="10.516499">
<ele>495.951</ele>
<time>2020-09-10T15:11:55Z</time>
</trkpt>
<trkpt lat="48.191399" lon="10.516567">
<ele>495.951</ele>
<time>2020-09-10T15:11:56Z</time>
</trkpt>
<trkpt lat="48.191345" lon="10.516628">
<ele>495.951</ele>
<time>2020-09-10T15:11:57Z</time>
</trkpt>
<trkpt lat="48.191299" lon="10.516685">
<ele>495.951</ele>
<time>2020-09-10T15:11:58Z</time>
</trkpt>
<trkpt lat="48.191246" lon="10.51674">
<ele>495.951</ele>
<time>2020-09-10T15:11:59Z</time>
</trkpt>
<trkpt lat="48.1912" lon="10.516789">
<ele>495.951</ele>
<time>2020-09-10T15:12:00Z</time>
</trkpt>
<trkpt lat="48.191154" lon="10.516835">
<ele>495.951</ele>
<time>2020-09-10T15:12:01Z</time>
</trkpt>
<trkpt lat="48.191105" lon="10.516878">
<ele>496.194</ele>
<time>2020-09-10T15:12:02Z</time>
</trkpt>
<trkpt lat="48.191063" lon="10.516919">
<ele>496.384</ele>
<time>2020-09-10T15:12:03Z</time>
</trkpt>
<trkpt lat="48.191017" lon="10.516957">
<ele>496.508</ele>
<time>2020-09-10T15:12:04Z</time>
</trkpt>
<trkpt lat="48.190975" lon="10.516994">
<ele>496.871</ele>
<time>2020-09-10T15:12:05Z</time>
</trkpt>
<trkpt lat="48.190929" lon="10.517028">
<ele>497.152</ele>
<time>2020-09-10T15:12:06Z</time>
</trkpt>
<trkpt lat="48.190887" lon="10.517061">
<ele>497.326</ele>
<time>2020-09-10T15:12:07Z</time>
</trkpt>
<trkpt lat="48.190845" lon="10.517097">
<ele>497.706</ele>
<time>2020-09-10T15:12:08Z</time>
</trkpt>
<trkpt lat="48.190807" lon="10.517133">
<ele>498.267</ele>
<time>2020-09-10T15:12:09Z</time>
</trkpt>
<trkpt lat="48.190769" lon="10.517173">
<ele>498.752</ele>
<time>2020-09-10T15:12:10Z</time>
</trkpt>
<trkpt lat="48.190735" lon="10.517213">
<ele>499.139</ele>
<time>2020-09-10T15:12:11Z</time>
</trkpt>
<trkpt lat="48.190701" lon="10.517252">
<ele>499.395</ele>
<time>2020-09-10T15:12:12Z</time>
</trkpt>
<trkpt lat="48.190666" lon="10.517292">
<ele>499.811</ele>
<time>2020-09-10T15:12:13Z</time>
</trkpt>
<trkpt lat="48.190632" lon="10.51734">
<ele>500.14</ele>
<time>2020-09-10T15:12:14Z</time>
</trkpt>
<trkpt lat="48.190598" lon="10.517393">
<ele>500.375</ele>
<time>2020-09-10T15:12:15Z</time>
</trkpt>
<trkpt lat="48.190559" lon="10.517447">
<ele>500.524</ele>
<time>2020-09-10T15:12:16Z</time>
</trkpt>
<trkpt lat="48.190517" lon="10.517506">
<ele>500.574</ele>
<time>2020-09-10T15:12:17Z</time>
</trkpt>
<trkpt lat="48.190483" lon="10.517563">
<ele>500.375</ele>
<time>2020-09-10T15:12:18Z</time>
</trkpt>
<trkpt lat="48.190441" lon="10.517623">
<ele>500.239</ele>
<time>2020-09-10T15:12:19Z</time>
</trkpt>
<trkpt lat="48.190403" lon="10.517685">
<ele>500.082</ele>
<time>2020-09-10T15:12:20Z</time>
</trkpt>
<trkpt lat="48.190365" lon="10.517747">
<ele>499.955</ele>
<time>2020-09-10T15:12:21Z</time>
</trkpt>
<trkpt lat="48.190327" lon="10.517808">
<ele>499.848</ele>
<time>2020-09-10T15:12:22Z</time>
</trkpt>
<trkpt lat="48.190289" lon="10.51787">
<ele>499.772</ele>
<time>2020-09-10T15:12:23Z</time>
</trkpt>
<trkpt lat="48.190254" lon="10.51793">
<ele>499.722</ele>
<time>2020-09-10T15:12:24Z</time>
</trkpt>
<trkpt lat="48.190212" lon="10.517988">
<ele>499.698</ele>
<time>2020-09-10T15:12:25Z</time>
</trkpt>
<trkpt lat="48.190174" lon="10.518046">
<ele>499.698</ele>
<time>2020-09-10T15:12:26Z</time>
</trkpt>
<trkpt lat="48.190132" lon="10.518102">
<ele>499.698</ele>
<time>2020-09-10T15:12:27Z</time>
</trkpt>
<trkpt lat="48.19009" lon="10.518155">
<ele>499.698</ele>
<time>2020-09-10T15:12:28Z</time>
</trkpt>
<trkpt lat="48.190044" lon="10.518206">
<ele>499.698</ele>
<time>2020-09-10T15:12:29Z</time>
</trkpt>
<trkpt lat="48.189999" lon="10.518255">
<ele>499.698</ele>
<time>2020-09-10T15:12:30Z</time>
</trkpt>
<trkpt lat="48.189957" lon="10.518307">
<ele>499.698</ele>
<time>2020-09-10T15:12:31Z</time>
</trkpt>
<trkpt lat="48.189907" lon="10.518353">
<ele>499.698</ele>
<time>2020-09-10T15:12:32Z</time>
</trkpt>
<trkpt lat="48.189865" lon="10.518398">
<ele>499.698</ele>
<time>2020-09-10T15:12:33Z</time>
</trkpt>
<trkpt lat="48.189823" lon="10.518442">
<ele>499.698</ele>
<time>2020-09-10T15:12:34Z</time>
</trkpt>
<trkpt lat="48.189785" lon="10.518482">
<ele>499.968</ele>
<time>2020-09-10T15:12:35Z</time>
</trkpt>
<trkpt lat="48.189747" lon="10.51852">
<ele>500.18</ele>
<time>2020-09-10T15:12:36Z</time>
</trkpt>
<trkpt lat="48.189713" lon="10.518558">
<ele>500.312</ele>
<time>2020-09-10T15:12:37Z</time>
</trkpt>
<trkpt lat="48.189678" lon="10.518597">
<ele>500.666</ele>
<time>2020-09-10T15:12:38Z</time>
</trkpt>
<trkpt lat="48.189644" lon="10.51863">
<ele>500.938</ele>
<time>2020-09-10T15:12:39Z</time>
</trkpt>
<trkpt lat="48.18961" lon="10.518664">
<ele>501.416</ele>
<time>2020-09-10T15:12:40Z</time>
</trkpt>
<trkpt lat="48.189579" lon="10.518698">
<ele>501.769</ele>
<time>2020-09-10T15:12:41Z</time>
</trkpt>
<trkpt lat="48.189545" lon="10.518735">
<ele>502.314</ele>
<time>2020-09-10T15:12:42Z</time>
</trkpt>
<trkpt lat="48.189514" lon="10.518771">
<ele>502.736</ele>
<time>2020-09-10T15:12:43Z</time>
</trkpt>
<trkpt lat="48.18948" lon="10.518809">
<ele>503.018</ele>
<time>2020-09-10T15:12:44Z</time>
</trkpt>
<trkpt lat="48.189445" lon="10.51885">
<ele>503.509</ele>
<time>2020-09-10T15:12:45Z</time>
</trkpt>
<trkpt lat="48.189415" lon="10.518891">
<ele>503.874</ele>
<time>2020-09-10T15:12:46Z</time>
</trkpt>
<trkpt lat="48.189381" lon="10.518932">
<ele>504.105</ele>
<time>2020-09-10T15:12:47Z</time>
</trkpt>
<trkpt lat="48.18935" lon="10.518972">
<ele>504.557</ele>
<time>2020-09-10T15:12:48Z</time>
</trkpt>
<trkpt lat="48.189316" lon="10.519011">
<ele>504.865</ele>
<time>2020-09-10T15:12:49Z</time>
</trkpt>
<trkpt lat="48.189289" lon="10.519052">
<ele>505.128</ele>
<time>2020-09-10T15:12:50Z</time>
</trkpt>
<trkpt lat="48.189255" lon="10.519092">
<ele>505.312</ele>
<time>2020-09-10T15:12:51Z</time>
</trkpt>
<trkpt lat="48.189228" lon="10.519132">
<ele>505.707</ele>
<time>2020-09-10T15:12:52Z</time>
</trkpt>
<trkpt lat="48.189194" lon="10.519168">
<ele>506.005</ele>
<time>2020-09-10T15:12:53Z</time>
</trkpt>
<trkpt lat="48.189163" lon="10.519207">
<ele>506.237</ele>
<time>2020-09-10T15:12:54Z</time>
</trkpt>
<trkpt lat="48.189133" lon="10.519247">
<ele>506.408</ele>
<time>2020-09-10T15:12:55Z</time>
</trkpt>
<trkpt lat="48.189102" lon="10.519289">
<ele>506.542</ele>
<time>2020-09-10T15:12:56Z</time>
</trkpt>
<trkpt lat="48.189072" lon="10.519331">
<ele>506.847</ele>
<time>2020-09-10T15:12:57Z</time>
</trkpt>
<trkpt lat="48.189041" lon="10.519372">
<ele>507.076</ele>
<time>2020-09-10T15:12:58Z</time>
</trkpt>
<trkpt lat="48.189014" lon="10.519406">
<ele>507.233</ele>
<time>2020-09-10T15:12:59Z</time>
</trkpt>
<trkpt lat="48.188988" lon="10.519442">
<ele>507.366</ele>
<time>2020-09-10T15:13:00Z</time>
</trkpt>
<trkpt lat="48.188957" lon="10.519478">
<ele>507.786</ele>
<time>2020-09-10T15:13:01Z</time>
</trkpt>
<trkpt lat="48.188934" lon="10.519511">
<ele>508.123</ele>
<time>2020-09-10T15:13:02Z</time>
</trkpt>
<trkpt lat="48.188908" lon="10.519545">
<ele>508.391</ele>
<time>2020-09-10T15:13:03Z</time>
</trkpt>
<trkpt lat="48.188885" lon="10.51958">
<ele>508.594</ele>
<time>2020-09-10T15:13:04Z</time>
</trkpt>
<trkpt lat="48.188862" lon="10.519615">
<ele>508.826</ele>
<time>2020-09-10T15:13:05Z</time>
</trkpt>
<trkpt lat="48.188839" lon="10.519651">
<ele>508.904</ele>
<time>2020-09-10T15:13:06Z</time>
</trkpt>
<trkpt lat="48.188812" lon="10.519685">
<ele>508.94</ele>
<time>2020-09-10T15:13:07Z</time>
</trkpt>
<trkpt lat="48.188789" lon="10.519714">
<ele>508.94</ele>
<time>2020-09-10T15:13:08Z</time>
</trkpt>
<trkpt lat="48.188759" lon="10.519752">
<ele>508.94</ele>
<time>2020-09-10T15:13:09Z</time>
</trkpt>
<trkpt lat="48.188736" lon="10.519788">
<ele>508.94</ele>
<time>2020-09-10T15:13:10Z</time>
</trkpt>
<trkpt lat="48.188709" lon="10.519825">
<ele>508.94</ele>
<time>2020-09-10T15:13:11Z</time>
</trkpt>
<trkpt lat="48.188683" lon="10.51986">
<ele>508.94</ele>
<time>2020-09-10T15:13:12Z</time>
</trkpt>
<trkpt lat="48.18866" lon="10.519895">
<ele>508.94</ele>
<time>2020-09-10T15:13:13Z</time>
</trkpt>
<trkpt lat="48.188629" lon="10.519934">
<ele>508.94</ele>
<time>2020-09-10T15:13:14Z</time>
</trkpt>
<trkpt lat="48.188602" lon="10.519972">
<ele>508.94</ele>
<time>2020-09-10T15:13:15Z</time>
</trkpt>
<trkpt lat="48.188576" lon="10.520008">
<ele>508.94</ele>
<time>2020-09-10T15:13:16Z</time>
</trkpt>
<trkpt lat="48.188545" lon="10.520045">
<ele>508.94</ele>
<time>2020-09-10T15:13:17Z</time>
</trkpt>
<trkpt lat="48.188515" lon="10.520082">
<ele>508.94</ele>
<time>2020-09-10T15:13:18Z</time>
</trkpt>
<trkpt lat="48.188488" lon="10.520123">
<ele>508.94</ele>
<time>2020-09-10T15:13:19Z</time>
</trkpt>
<trkpt lat="48.188457" lon="10.520164">
<ele>508.94</ele>
<time>2020-09-10T15:13:20Z</time>
</trkpt>
<trkpt lat="48.188427" lon="10.520205">
<ele>508.94</ele>
<time>2020-09-10T15:13:21Z</time>
</trkpt>
<trkpt lat="48.188396" lon="10.520247">
<ele>508.94</ele>
<time>2020-09-10T15:13:22Z</time>
</trkpt>
<trkpt lat="48.188362" lon="10.520284">
<ele>508.94</ele>
<time>2020-09-10T15:13:23Z</time>
</trkpt>
<trkpt lat="48.188335" lon="10.520315">
<ele>508.94</ele>
<time>2020-09-10T15:13:24Z</time>
</trkpt>
<trkpt lat="48.188305" lon="10.520347">
<ele>508.94</ele>
<time>2020-09-10T15:13:25Z</time>
</trkpt>
<trkpt lat="48.188274" lon="10.520378">
<ele>508.94</ele>
<time>2020-09-10T15:13:26Z</time>
</trkpt>
<trkpt lat="48.188251" lon="10.520403">
<ele>508.94</ele>
<time>2020-09-10T15:13:27Z</time>
</trkpt>
<trkpt lat="48.188221" lon="10.520423">
<ele>508.94</ele>
<time>2020-09-10T15:13:28Z</time>
</trkpt>
<trkpt lat="48.18819" lon="10.520448">
<ele>508.94</ele>
<time>2020-09-10T15:13:29Z</time>
</trkpt>
<trkpt lat="48.18816" lon="10.520465">
<ele>508.94</ele>
<time>2020-09-10T15:13:30Z</time>
</trkpt>
<trkpt lat="48.188122" lon="10.520485">
<ele>508.659</ele>
<time>2020-09-10T15:13:31Z</time>
</trkpt>
<trkpt lat="48.188084" lon="10.520507">
<ele>508.427</ele>
<time>2020-09-10T15:13:32Z</time>
</trkpt>
<trkpt lat="48.188042" lon="10.520527">
<ele>508.255</ele>
<time>2020-09-10T15:13:33Z</time>
</trkpt>
<trkpt lat="48.187988" lon="10.520545">
<ele>508.129</ele>
<time>2020-09-10T15:13:34Z</time>
</trkpt>
<trkpt lat="48.187943" lon="10.520562">
<ele>508.045</ele>
<time>2020-09-10T15:13:35Z</time>
</trkpt>
<trkpt lat="48.187889" lon="10.520581">
<ele>508</ele>
<time>2020-09-10T15:13:36Z</time>
</trkpt>
<trkpt lat="48.187836" lon="10.5206">
<ele>507.985</ele>
<time>2020-09-10T15:13:37Z</time>
</trkpt>
<trkpt lat="48.187778" lon="10.520617">
<ele>507.98</ele>
<time>2020-09-10T15:13:38Z</time>
</trkpt>
<trkpt lat="48.187725" lon="10.520632">
<ele>507.98</ele>
<time>2020-09-10T15:13:39Z</time>
</trkpt>
<trkpt lat="48.187668" lon="10.520643">
<ele>507.98</ele>
<time>2020-09-10T15:13:40Z</time>
</trkpt>
<trkpt lat="48.187614" lon="10.520659">
<ele>507.98</ele>
<time>2020-09-10T15:13:41Z</time>
</trkpt>
<trkpt lat="48.187553" lon="10.520679">
<ele>507.98</ele>
<time>2020-09-10T15:13:42Z</time>
</trkpt>
<trkpt lat="48.187496" lon="10.5207">
<ele>507.98</ele>
<time>2020-09-10T15:13:43Z</time>
</trkpt>
<trkpt lat="48.187443" lon="10.520717">
<ele>507.98</ele>
<time>2020-09-10T15:13:44Z</time>
</trkpt>
<trkpt lat="48.187389" lon="10.520735">
<ele>507.98</ele>
<time>2020-09-10T15:13:45Z</time>
</trkpt>
<trkpt lat="48.187332" lon="10.520747">
<ele>508.205</ele>
<time>2020-09-10T15:13:46Z</time>
</trkpt>
<trkpt lat="48.187283" lon="10.520758">
<ele>508.379</ele>
<time>2020-09-10T15:13:47Z</time>
</trkpt>
<trkpt lat="48.187233" lon="10.520772">
<ele>508.513</ele>
<time>2020-09-10T15:13:48Z</time>
</trkpt>
<trkpt lat="48.187191" lon="10.52079">
<ele>508.607</ele>
<time>2020-09-10T15:13:49Z</time>
</trkpt>
<trkpt lat="48.187145" lon="10.52081">
<ele>508.706</ele>
<time>2020-09-10T15:13:50Z</time>
</trkpt>
<trkpt lat="48.187107" lon="10.520831">
<ele>508.78</ele>
<time>2020-09-10T15:13:51Z</time>
</trkpt>
<trkpt lat="48.187061" lon="10.520848">
<ele>508.827</ele>
<time>2020-09-10T15:13:52Z</time>
</trkpt>
<trkpt lat="48.187016" lon="10.520858">
<ele>509.075</ele>
<time>2020-09-10T15:13:53Z</time>
</trkpt>
<trkpt lat="48.186966" lon="10.520866">
<ele>509.32</ele>
<time>2020-09-10T15:13:54Z</time>
</trkpt>
<trkpt lat="48.186909" lon="10.520877">
<ele>509.487</ele>
<time>2020-09-10T15:13:55Z</time>
</trkpt>
<trkpt lat="48.186855" lon="10.520888">
<ele>509.5</ele>
<time>2020-09-10T15:13:56Z</time>
</trkpt>
<trkpt lat="48.186794" lon="10.520888">
<ele>509.344</ele>
<time>2020-09-10T15:13:57Z</time>
</trkpt>
<trkpt lat="48.186733" lon="10.520884">
<ele>509.203</ele>
<time>2020-09-10T15:13:58Z</time>
</trkpt>
<trkpt lat="48.186672" lon="10.520864">
<ele>509.119</ele>
<time>2020-09-10T15:13:59Z</time>
</trkpt>
<trkpt lat="48.186619" lon="10.52083">
<ele>508.756</ele>
<time>2020-09-10T15:14:00Z</time>
</trkpt>
<trkpt lat="48.186565" lon="10.520781">
<ele>508.473</ele>
<time>2020-09-10T15:14:01Z</time>
</trkpt>
<trkpt lat="48.186512" lon="10.520716">
<ele>508.236</ele>
<time>2020-09-10T15:14:02Z</time>
</trkpt>
<trkpt lat="48.186466" lon="10.520643">
<ele>508.06</ele>
<time>2020-09-10T15:14:03Z</time>
</trkpt>
<trkpt lat="48.18642" lon="10.520563">
<ele>507.961</ele>
<time>2020-09-10T15:14:04Z</time>
</trkpt>
<trkpt lat="48.186378" lon="10.520476">
<ele>507.64</ele>
<time>2020-09-10T15:14:05Z</time>
</trkpt>
<trkpt lat="48.186337" lon="10.520391">
<ele>507.387</ele>
<time>2020-09-10T15:14:06Z</time>
</trkpt>
<trkpt lat="48.186279" lon="10.520317">
<ele>507.201</ele>
<time>2020-09-10T15:14:07Z</time>
</trkpt>
<trkpt lat="48.186222" lon="10.520245">
<ele>507.075</ele>
<time>2020-09-10T15:14:08Z</time>
</trkpt>
<trkpt lat="48.186153" lon="10.520184">
<ele>507</ele>
<time>2020-09-10T15:14:09Z</time>
</trkpt>
<trkpt lat="48.186085" lon="10.520131">
<ele>506.657</ele>
<time>2020-09-10T15:14:10Z</time>
</trkpt>
<trkpt lat="48.186012" lon="10.520081">
<ele>506.427</ele>
<time>2020-09-10T15:14:11Z</time>
</trkpt>
<trkpt lat="48.185932" lon="10.52003">
<ele>505.986</ele>
<time>2020-09-10T15:14:12Z</time>
</trkpt>
<trkpt lat="48.185856" lon="10.51998">
<ele>505.323</ele>
<time>2020-09-10T15:14:13Z</time>
</trkpt>
<trkpt lat="48.185772" lon="10.519928">
<ele>504.866</ele>
<time>2020-09-10T15:14:14Z</time>
</trkpt>
<trkpt lat="48.185692" lon="10.519876">
<ele>504.166</ele>
<time>2020-09-10T15:14:15Z</time>
</trkpt>
<trkpt lat="48.185604" lon="10.51982">
<ele>503.318</ele>
<time>2020-09-10T15:14:16Z</time>
</trkpt>
<trkpt lat="48.18552" lon="10.519767">
<ele>502.75</ele>
<time>2020-09-10T15:14:17Z</time>
</trkpt>
<trkpt lat="48.185432" lon="10.519714">
<ele>502.054</ele>
<time>2020-09-10T15:14:18Z</time>
</trkpt>
<trkpt lat="48.185337" lon="10.519667">
<ele>501.28</ele>
<time>2020-09-10T15:14:19Z</time>
</trkpt>
<trkpt lat="48.185246" lon="10.51963">
<ele>500.68</ele>
<time>2020-09-10T15:14:20Z</time>
</trkpt>
<trkpt lat="48.185146" lon="10.519608">
<ele>499.946</ele>
<time>2020-09-10T15:14:21Z</time>
</trkpt>
<trkpt lat="48.185047" lon="10.519599">
<ele>499.459</ele>
<time>2020-09-10T15:14:22Z</time>
</trkpt>
<trkpt lat="48.184952" lon="10.519603">
<ele>498.812</ele>
<time>2020-09-10T15:14:23Z</time>
</trkpt>
<trkpt lat="48.184864" lon="10.519624">
<ele>498.335</ele>
<time>2020-09-10T15:14:24Z</time>
</trkpt>
<trkpt lat="48.18478" lon="10.519657">
<ele>497.985</ele>
<time>2020-09-10T15:14:25Z</time>
</trkpt>
<trkpt lat="48.184704" lon="10.519695">
<ele>497.753</ele>
<time>2020-09-10T15:14:26Z</time>
</trkpt>
<trkpt lat="48.184624" lon="10.519716">
<ele>497.561</ele>
<time>2020-09-10T15:14:27Z</time>
</trkpt>
<trkpt lat="48.184551" lon="10.519708">
<ele>497.505</ele>
<time>2020-09-10T15:14:28Z</time>
</trkpt>
<trkpt lat="48.184486" lon="10.519666">
<ele>497.461</ele>
<time>2020-09-10T15:14:29Z</time>
</trkpt>
<trkpt lat="48.184433" lon="10.519593">
<ele>497.433</ele>
<time>2020-09-10T15:14:30Z</time>
</trkpt>
<trkpt lat="48.184391" lon="10.519505">
<ele>497.433</ele>
<time>2020-09-10T15:14:31Z</time>
</trkpt>
<trkpt lat="48.184357" lon="10.51941">
<ele>497.193</ele>
<time>2020-09-10T15:14:32Z</time>
</trkpt>
<trkpt lat="48.184326" lon="10.519319">
<ele>496.998</ele>
<time>2020-09-10T15:14:33Z</time>
</trkpt>
<trkpt lat="48.184292" lon="10.519225">
<ele>496.845</ele>
<time>2020-09-10T15:14:34Z</time>
</trkpt>
<trkpt lat="48.184258" lon="10.519135">
<ele>496.733</ele>
<time>2020-09-10T15:14:35Z</time>
</trkpt>
<trkpt lat="48.184227" lon="10.519046">
<ele>496.654</ele>
<time>2020-09-10T15:14:36Z</time>
</trkpt>
<trkpt lat="48.184196" lon="10.518958">
<ele>496.607</ele>
<time>2020-09-10T15:14:37Z</time>
</trkpt>
<trkpt lat="48.184162" lon="10.518871">
<ele>496.582</ele>
<time>2020-09-10T15:14:38Z</time>
</trkpt>
<trkpt lat="48.184135" lon="10.518785">
<ele>496.561</ele>
<time>2020-09-10T15:14:39Z</time>
</trkpt>
<trkpt lat="48.184105" lon="10.5187">
<ele>496.561</ele>
<time>2020-09-10T15:14:40Z</time>
</trkpt>
<trkpt lat="48.184074" lon="10.518617">
<ele>496.561</ele>
<time>2020-09-10T15:14:41Z</time>
</trkpt>
<trkpt lat="48.184044" lon="10.518535">
<ele>496.561</ele>
<time>2020-09-10T15:14:42Z</time>
</trkpt>
<trkpt lat="48.18401" lon="10.518452">
<ele>496.561</ele>
<time>2020-09-10T15:14:43Z</time>
</trkpt>
<trkpt lat="48.183983" lon="10.518369">
<ele>496.561</ele>
<time>2020-09-10T15:14:44Z</time>
</trkpt>
<trkpt lat="48.183949" lon="10.518285">
<ele>496.561</ele>
<time>2020-09-10T15:14:45Z</time>
</trkpt>
<trkpt lat="48.183918" lon="10.5182">
<ele>496.561</ele>
<time>2020-09-10T15:14:46Z</time>
</trkpt>
<trkpt lat="48.183887" lon="10.518117">
<ele>496.561</ele>
<time>2020-09-10T15:14:47Z</time>
</trkpt>
<trkpt lat="48.183857" lon="10.518035">
<ele>496.561</ele>
<time>2020-09-10T15:14:48Z</time>
</trkpt>
<trkpt lat="48.183826" lon="10.517954">
<ele>496.561</ele>
<time>2020-09-10T15:14:49Z</time>
</trkpt>
<trkpt lat="48.1838" lon="10.517873">
<ele>496.561</ele>
<time>2020-09-10T15:14:50Z</time>
</trkpt>
<trkpt lat="48.183769" lon="10.517793">
<ele>496.561</ele>
<time>2020-09-10T15:14:51Z</time>
</trkpt>
<trkpt lat="48.183743" lon="10.51772">
<ele>496.561</ele>
<time>2020-09-10T15:14:52Z</time>
</trkpt>
<trkpt lat="48.18372" lon="10.517651">
<ele>496.561</ele>
<time>2020-09-10T15:14:53Z</time>
</trkpt>
<trkpt lat="48.183693" lon="10.51758">
<ele>496.561</ele>
<time>2020-09-10T15:14:54Z</time>
</trkpt>
<trkpt lat="48.183666" lon="10.517513">
<ele>496.561</ele>
<time>2020-09-10T15:14:55Z</time>
</trkpt>
<trkpt lat="48.183643" lon="10.517448">
<ele>496.796</ele>
<time>2020-09-10T15:14:56Z</time>
</trkpt>
<trkpt lat="48.183624" lon="10.51739">
<ele>496.985</ele>
<time>2020-09-10T15:14:57Z</time>
</trkpt>
<trkpt lat="48.183605" lon="10.517337">
<ele>497.132</ele>
<time>2020-09-10T15:14:58Z</time>
</trkpt>
<trkpt lat="48.18359" lon="10.517292">
<ele>497.239</ele>
<time>2020-09-10T15:14:59Z</time>
</trkpt>
<trkpt lat="48.183575" lon="10.517248">
<ele>497.564</ele>
<time>2020-09-10T15:15:00Z</time>
</trkpt>
<trkpt lat="48.183556" lon="10.51721">
<ele>497.829</ele>
<time>2020-09-10T15:15:01Z</time>
</trkpt>
<trkpt lat="48.18354" lon="10.517177">
<ele>498.04</ele>
<time>2020-09-10T15:15:02Z</time>
</trkpt>
<trkpt lat="48.183517" lon="10.517141">
<ele>498.202</ele>
<time>2020-09-10T15:15:03Z</time>
</trkpt>
<trkpt lat="48.183487" lon="10.517115">
<ele>498.312</ele>
<time>2020-09-10T15:15:04Z</time>
</trkpt>
<trkpt lat="48.183449" lon="10.517101">
<ele>498.397</ele>
<time>2020-09-10T15:15:05Z</time>
</trkpt>
<trkpt lat="48.183411" lon="10.517106">
<ele>498.452</ele>
<time>2020-09-10T15:15:06Z</time>
</trkpt>
<trkpt lat="48.183369" lon="10.51712">
<ele>498.478</ele>
<time>2020-09-10T15:15:07Z</time>
</trkpt>
<trkpt lat="48.183319" lon="10.517133">
<ele>498.478</ele>
<time>2020-09-10T15:15:08Z</time>
</trkpt>
<trkpt lat="48.183273" lon="10.517148">
<ele>498.478</ele>
<time>2020-09-10T15:15:09Z</time>
</trkpt>
<trkpt lat="48.183224" lon="10.517162">
<ele>498.478</ele>
<time>2020-09-10T15:15:10Z</time>
</trkpt>
<trkpt lat="48.183174" lon="10.517175">
<ele>498.478</ele>
<time>2020-09-10T15:15:11Z</time>
</trkpt>
<trkpt lat="48.183121" lon="10.517187">
<ele>498.478</ele>
<time>2020-09-10T15:15:12Z</time>
</trkpt>
<trkpt lat="48.183071" lon="10.517197">
<ele>498.478</ele>
<time>2020-09-10T15:15:13Z</time>
</trkpt>
<trkpt lat="48.183022" lon="10.517206">
<ele>498.478</ele>
<time>2020-09-10T15:15:14Z</time>
</trkpt>
<trkpt lat="48.182968" lon="10.517219">
<ele>498.478</ele>
<time>2020-09-10T15:15:15Z</time>
</trkpt>
<trkpt lat="48.182919" lon="10.51723">
<ele>498.478</ele>
<time>2020-09-10T15:15:16Z</time>
</trkpt>
<trkpt lat="48.182865" lon="10.517244">
<ele>498.74</ele>
<time>2020-09-10T15:15:17Z</time>
</trkpt>
<trkpt lat="48.182819" lon="10.517261">
<ele>498.948</ele>
<time>2020-09-10T15:15:18Z</time>
</trkpt>
<trkpt lat="48.182766" lon="10.517273">
<ele>499.09</ele>
<time>2020-09-10T15:15:19Z</time>
</trkpt>
<trkpt lat="48.182716" lon="10.51729">
<ele>499.242</ele>
<time>2020-09-10T15:15:20Z</time>
</trkpt>
<trkpt lat="48.182663" lon="10.517303">
<ele>499.358</ele>
<time>2020-09-10T15:15:21Z</time>
</trkpt>
<trkpt lat="48.182613" lon="10.517313">
<ele>499.443</ele>
<time>2020-09-10T15:15:22Z</time>
</trkpt>
<trkpt lat="48.18256" lon="10.517323">
<ele>499.498</ele>
<time>2020-09-10T15:15:23Z</time>
</trkpt>
<trkpt lat="48.182507" lon="10.517332">
<ele>499.524</ele>
<time>2020-09-10T15:15:24Z</time>
</trkpt>
<trkpt lat="48.182457" lon="10.517337">
<ele>499.524</ele>
<time>2020-09-10T15:15:25Z</time>
</trkpt>
<trkpt lat="48.1824" lon="10.51734">
<ele>499.524</ele>
<time>2020-09-10T15:15:26Z</time>
</trkpt>
<trkpt lat="48.182346" lon="10.517342">
<ele>499.524</ele>
<time>2020-09-10T15:15:27Z</time>
</trkpt>
<trkpt lat="48.182293" lon="10.517343">
<ele>499.524</ele>
<time>2020-09-10T15:15:28Z</time>
</trkpt>
<trkpt lat="48.182236" lon="10.517343">
<ele>499.524</ele>
<time>2020-09-10T15:15:29Z</time>
</trkpt>
<trkpt lat="48.182182" lon="10.517342">
<ele>499.524</ele>
<time>2020-09-10T15:15:30Z</time>
</trkpt>
<trkpt lat="48.182129" lon="10.517342">
<ele>499.524</ele>
<time>2020-09-10T15:15:31Z</time>
</trkpt>
<trkpt lat="48.182076" lon="10.517343">
<ele>499.524</ele>
<time>2020-09-10T15:15:32Z</time>
</trkpt>
<trkpt lat="48.182022" lon="10.517346">
<ele>499.819</ele>
<time>2020-09-10T15:15:33Z</time>
</trkpt>
<trkpt lat="48.181969" lon="10.517344">
<ele>500.047</ele>
<time>2020-09-10T15:15:34Z</time>
</trkpt>
<trkpt lat="48.181911" lon="10.517343">
<ele>500.217</ele>
<time>2020-09-10T15:15:35Z</time>
</trkpt>
<trkpt lat="48.181858" lon="10.517343">
<ele>500.347</ele>
<time>2020-09-10T15:15:36Z</time>
</trkpt>
<trkpt lat="48.181805" lon="10.51734">
<ele>500.434</ele>
<time>2020-09-10T15:15:37Z</time>
</trkpt>
<trkpt lat="48.181747" lon="10.517337">
<ele>500.481</ele>
<time>2020-09-10T15:15:38Z</time>
</trkpt>
<trkpt lat="48.181694" lon="10.51733">
<ele>500.541</ele>
<time>2020-09-10T15:15:39Z</time>
</trkpt>
<trkpt lat="48.181641" lon="10.517318">
<ele>500.57</ele>
<time>2020-09-10T15:15:40Z</time>
</trkpt>
<trkpt lat="48.181583" lon="10.517308">
<ele>500.57</ele>
<time>2020-09-10T15:15:41Z</time>
</trkpt>
<trkpt lat="48.181526" lon="10.517302">
<ele>500.57</ele>
<time>2020-09-10T15:15:42Z</time>
</trkpt>
<trkpt lat="48.181469" lon="10.517295">
<ele>500.714</ele>
<time>2020-09-10T15:15:43Z</time>
</trkpt>
<trkpt lat="48.181416" lon="10.517286">
<ele>501.007</ele>
<time>2020-09-10T15:15:44Z</time>
</trkpt>
<trkpt lat="48.181358" lon="10.517278">
<ele>501.229</ele>
<time>2020-09-10T15:15:45Z</time>
</trkpt>
<trkpt lat="48.181297" lon="10.517267">
<ele>501.393</ele>
<time>2020-09-10T15:15:46Z</time>
</trkpt>
<trkpt lat="48.18124" lon="10.517255">
<ele>501.51</ele>
<time>2020-09-10T15:15:47Z</time>
</trkpt>
<trkpt lat="48.181187" lon="10.517244">
<ele>501.613</ele>
<time>2020-09-10T15:15:48Z</time>
</trkpt>
<trkpt lat="48.181129" lon="10.517237">
<ele>501.689</ele>
<time>2020-09-10T15:15:49Z</time>
</trkpt>
<trkpt lat="48.181072" lon="10.517223">
<ele>501.758</ele>
<time>2020-09-10T15:15:50Z</time>
</trkpt>
<trkpt lat="48.181019" lon="10.51721">
<ele>501.79</ele>
<time>2020-09-10T15:15:51Z</time>
</trkpt>
<trkpt lat="48.180965" lon="10.517197">
<ele>501.79</ele>
<time>2020-09-10T15:15:52Z</time>
</trkpt>
<trkpt lat="48.180908" lon="10.517183">
<ele>501.79</ele>
<time>2020-09-10T15:15:53Z</time>
</trkpt>
<trkpt lat="48.180855" lon="10.517168">
<ele>501.79</ele>
<time>2020-09-10T15:15:54Z</time>
</trkpt>
<trkpt lat="48.180801" lon="10.517157">
<ele>501.79</ele>
<time>2020-09-10T15:15:55Z</time>
</trkpt>
<trkpt lat="48.18074" lon="10.517145">
<ele>501.79</ele>
<time>2020-09-10T15:15:56Z</time>
</trkpt>
<trkpt lat="48.180687" lon="10.517135">
<ele>501.79</ele>
<time>2020-09-10T15:15:57Z</time>
</trkpt>
<trkpt lat="48.180634" lon="10.517123">
<ele>501.79</ele>
<time>2020-09-10T15:15:58Z</time>
</trkpt>
<trkpt lat="48.180576" lon="10.517115">
<ele>501.79</ele>
<time>2020-09-10T15:15:59Z</time>
</trkpt>
<trkpt lat="48.180519" lon="10.517106">
<ele>501.79</ele>
<time>2020-09-10T15:16:00Z</time>
</trkpt>
<trkpt lat="48.180458" lon="10.517098">
<ele>501.79</ele>
<time>2020-09-10T15:16:01Z</time>
</trkpt>
<trkpt lat="48.180405" lon="10.517092">
<ele>501.79</ele>
<time>2020-09-10T15:16:02Z</time>
</trkpt>
<trkpt lat="48.180347" lon="10.517082">
<ele>501.79</ele>
<time>2020-09-10T15:16:03Z</time>
</trkpt>
<trkpt lat="48.18029" lon="10.517074">
<ele>501.79</ele>
<time>2020-09-10T15:16:04Z</time>
</trkpt>
<trkpt lat="48.180233" lon="10.517065">
<ele>502.068</ele>
<time>2020-09-10T15:16:05Z</time>
</trkpt>
<trkpt lat="48.18018" lon="10.517058">
<ele>502.283</ele>
<time>2020-09-10T15:16:06Z</time>
</trkpt>
<trkpt lat="48.180122" lon="10.517052">
<ele>502.45</ele>
<time>2020-09-10T15:16:07Z</time>
</trkpt>
<trkpt lat="48.180069" lon="10.517043">
<ele>502.573</ele>
<time>2020-09-10T15:16:08Z</time>
</trkpt>
<trkpt lat="48.180012" lon="10.517035">
<ele>502.66</ele>
<time>2020-09-10T15:16:09Z</time>
</trkpt>
<trkpt lat="48.179955" lon="10.517026">
<ele>502.751</ele>
<time>2020-09-10T15:16:10Z</time>
</trkpt>
<trkpt lat="48.179897" lon="10.517018">
<ele>502.808</ele>
<time>2020-09-10T15:16:11Z</time>
</trkpt>
<trkpt lat="48.179844" lon="10.517009">
<ele>502.836</ele>
<time>2020-09-10T15:16:12Z</time>
</trkpt>
<trkpt lat="48.179787" lon="10.517">
<ele>502.836</ele>
<time>2020-09-10T15:16:13Z</time>
</trkpt>
<trkpt lat="48.179729" lon="10.516993">
<ele>503.122</ele>
<time>2020-09-10T15:16:14Z</time>
</trkpt>
<trkpt lat="48.179676" lon="10.516989">
<ele>503.345</ele>
<time>2020-09-10T15:16:15Z</time>
</trkpt>
<trkpt lat="48.179619" lon="10.516985">
<ele>503.512</ele>
<time>2020-09-10T15:16:16Z</time>
</trkpt>
<trkpt lat="48.179562" lon="10.51698">
<ele>503.636</ele>
<time>2020-09-10T15:16:17Z</time>
</trkpt>
<trkpt lat="48.179504" lon="10.516975">
<ele>503.728</ele>
<time>2020-09-10T15:16:18Z</time>
</trkpt>
<trkpt lat="48.179447" lon="10.51697">
<ele>503.795</ele>
<time>2020-09-10T15:16:19Z</time>
</trkpt>
<trkpt lat="48.179394" lon="10.516965">
<ele>503.854</ele>
<time>2020-09-10T15:16:20Z</time>
</trkpt>
<trkpt lat="48.179337" lon="10.516959">
<ele>503.882</ele>
<time>2020-09-10T15:16:21Z</time>
</trkpt>
<trkpt lat="48.179276" lon="10.516953">
<ele>503.882</ele>
<time>2020-09-10T15:16:22Z</time>
</trkpt>
<trkpt lat="48.179218" lon="10.516947">
<ele>503.882</ele>
<time>2020-09-10T15:16:23Z</time>
</trkpt>
<trkpt lat="48.179161" lon="10.51694">
<ele>503.882</ele>
<time>2020-09-10T15:16:24Z</time>
</trkpt>
<trkpt lat="48.179104" lon="10.516935">
<ele>504.138</ele>
<time>2020-09-10T15:16:25Z</time>
</trkpt>
<trkpt lat="48.179043" lon="10.51693">
<ele>504.338</ele>
<time>2020-09-10T15:16:26Z</time>
</trkpt>
<trkpt lat="48.178986" lon="10.516925">
<ele>504.488</ele>
<time>2020-09-10T15:16:27Z</time>
</trkpt>
<trkpt lat="48.178928" lon="10.51692">
<ele>504.604</ele>
<time>2020-09-10T15:16:28Z</time>
</trkpt>
<trkpt lat="48.178871" lon="10.516915">
<ele>504.683</ele>
<time>2020-09-10T15:16:29Z</time>
</trkpt>
<trkpt lat="48.178814" lon="10.516912">
<ele>504.764</ele>
<time>2020-09-10T15:16:30Z</time>
</trkpt>
<trkpt lat="48.178749" lon="10.516909">
<ele>504.816</ele>
<time>2020-09-10T15:16:31Z</time>
</trkpt>
<trkpt lat="48.178692" lon="10.516905">
<ele>504.841</ele>
<time>2020-09-10T15:16:32Z</time>
</trkpt>
<trkpt lat="48.178635" lon="10.516902">
<ele>504.841</ele>
<time>2020-09-10T15:16:33Z</time>
</trkpt>
<trkpt lat="48.178574" lon="10.516896">
<ele>504.841</ele>
<time>2020-09-10T15:16:34Z</time>
</trkpt>
<trkpt lat="48.178516" lon="10.516893">
<ele>504.841</ele>
<time>2020-09-10T15:16:35Z</time>
</trkpt>
<trkpt lat="48.178455" lon="10.516893">
<ele>504.841</ele>
<time>2020-09-10T15:16:36Z</time>
</trkpt>
<trkpt lat="48.178394" lon="10.516893">
<ele>504.841</ele>
<time>2020-09-10T15:16:37Z</time>
</trkpt>
<trkpt lat="48.178337" lon="10.516891">
<ele>504.841</ele>
<time>2020-09-10T15:16:38Z</time>
</trkpt>
<trkpt lat="48.178276" lon="10.51689">
<ele>504.841</ele>
<time>2020-09-10T15:16:39Z</time>
</trkpt>
<trkpt lat="48.178219" lon="10.516888">
<ele>504.841</ele>
<time>2020-09-10T15:16:40Z</time>
</trkpt>
<trkpt lat="48.178158" lon="10.516887">
<ele>504.841</ele>
<time>2020-09-10T15:16:41Z</time>
</trkpt>
<trkpt lat="48.178097" lon="10.516886">
<ele>504.841</ele>
<time>2020-09-10T15:16:42Z</time>
</trkpt>
<trkpt lat="48.178032" lon="10.516884">
<ele>504.841</ele>
<time>2020-09-10T15:16:43Z</time>
</trkpt>
<trkpt lat="48.177971" lon="10.516884">
<ele>504.841</ele>
<time>2020-09-10T15:16:44Z</time>
</trkpt>
<trkpt lat="48.17791" lon="10.516882">
<ele>504.841</ele>
<time>2020-09-10T15:16:45Z</time>
</trkpt>
<trkpt lat="48.177853" lon="10.516882">
<ele>504.841</ele>
<time>2020-09-10T15:16:46Z</time>
</trkpt>
<trkpt lat="48.177792" lon="10.516882">
<ele>504.841</ele>
<time>2020-09-10T15:16:47Z</time>
</trkpt>
<trkpt lat="48.177731" lon="10.516884">
<ele>504.841</ele>
<time>2020-09-10T15:16:48Z</time>
</trkpt>
<trkpt lat="48.17767" lon="10.516884">
<ele>504.841</ele>
<time>2020-09-10T15:16:49Z</time>
</trkpt>
<trkpt lat="48.177605" lon="10.516884">
<ele>504.841</ele>
<time>2020-09-10T15:16:50Z</time>
</trkpt>
<trkpt lat="48.177544" lon="10.516887">
<ele>504.841</ele>
<time>2020-09-10T15:16:51Z</time>
</trkpt>
<trkpt lat="48.177483" lon="10.516887">
<ele>504.841</ele>
<time>2020-09-10T15:16:52Z</time>
</trkpt>
<trkpt lat="48.177425" lon="10.516888">
<ele>504.841</ele>
<time>2020-09-10T15:16:53Z</time>
</trkpt>
<trkpt lat="48.177368" lon="10.51689">
<ele>504.841</ele>
<time>2020-09-10T15:16:54Z</time>
</trkpt>
<trkpt lat="48.177307" lon="10.516893">
<ele>504.841</ele>
<time>2020-09-10T15:16:55Z</time>
</trkpt>
<trkpt lat="48.177246" lon="10.516893">
<ele>504.841</ele>
<time>2020-09-10T15:16:56Z</time>
</trkpt>
<trkpt lat="48.177185" lon="10.516893">
<ele>504.841</ele>
<time>2020-09-10T15:16:57Z</time>
</trkpt>
<trkpt lat="48.17712" lon="10.516893">
<ele>504.841</ele>
<time>2020-09-10T15:16:58Z</time>
</trkpt>
<trkpt lat="48.177059" lon="10.516896">
<ele>504.841</ele>
<time>2020-09-10T15:16:59Z</time>
</trkpt>
<trkpt lat="48.176998" lon="10.516898">
<ele>504.841</ele>
<time>2020-09-10T15:17:00Z</time>
</trkpt>
<trkpt lat="48.176937" lon="10.516902">
<ele>504.841</ele>
<time>2020-09-10T15:17:01Z</time>
</trkpt>
<trkpt lat="48.176876" lon="10.516905">
<ele>504.841</ele>
<time>2020-09-10T15:17:02Z</time>
</trkpt>
<trkpt lat="48.176815" lon="10.516911">
<ele>504.841</ele>
<time>2020-09-10T15:17:03Z</time>
</trkpt>
<trkpt lat="48.176754" lon="10.516915">
<ele>504.841</ele>
<time>2020-09-10T15:17:04Z</time>
</trkpt>
<trkpt lat="48.176693" lon="10.51692">
<ele>504.841</ele>
<time>2020-09-10T15:17:05Z</time>
</trkpt>
<trkpt lat="48.176632" lon="10.516925">
<ele>504.841</ele>
<time>2020-09-10T15:17:06Z</time>
</trkpt>
<trkpt lat="48.176567" lon="10.51693">
<ele>504.841</ele>
<time>2020-09-10T15:17:07Z</time>
</trkpt>
<trkpt lat="48.176506" lon="10.516932">
<ele>504.841</ele>
<time>2020-09-10T15:17:08Z</time>
</trkpt>
<trkpt lat="48.176445" lon="10.516933">
<ele>504.841</ele>
<time>2020-09-10T15:17:09Z</time>
</trkpt>
<trkpt lat="48.176384" lon="10.516942">
<ele>504.841</ele>
<time>2020-09-10T15:17:10Z</time>
</trkpt>
<trkpt lat="48.176323" lon="10.516951">
<ele>504.841</ele>
<time>2020-09-10T15:17:11Z</time>
</trkpt>
<trkpt lat="48.176266" lon="10.516955">
<ele>504.841</ele>
<time>2020-09-10T15:17:12Z</time>
</trkpt>
<trkpt lat="48.176205" lon="10.516959">
<ele>504.841</ele>
<time>2020-09-10T15:17:13Z</time>
</trkpt>
<trkpt lat="48.17614" lon="10.516968">
<ele>504.841</ele>
<time>2020-09-10T15:17:14Z</time>
</trkpt>
<trkpt lat="48.176083" lon="10.516975">
<ele>504.841</ele>
<time>2020-09-10T15:17:15Z</time>
</trkpt>
<trkpt lat="48.176025" lon="10.516985">
<ele>504.841</ele>
<time>2020-09-10T15:17:16Z</time>
</trkpt>
<trkpt lat="48.175968" lon="10.516992">
<ele>504.841</ele>
<time>2020-09-10T15:17:17Z</time>
</trkpt>
<trkpt lat="48.175907" lon="10.516998">
<ele>504.841</ele>
<time>2020-09-10T15:17:18Z</time>
</trkpt>
<trkpt lat="48.175846" lon="10.517009">
<ele>504.841</ele>
<time>2020-09-10T15:17:19Z</time>
</trkpt>
<trkpt lat="48.175789" lon="10.51702">
<ele>504.841</ele>
<time>2020-09-10T15:17:20Z</time>
</trkpt>
<trkpt lat="48.175728" lon="10.517026">
<ele>504.841</ele>
<time>2020-09-10T15:17:21Z</time>
</trkpt>
<trkpt lat="48.175671" lon="10.517032">
<ele>504.841</ele>
<time>2020-09-10T15:17:22Z</time>
</trkpt>
<trkpt lat="48.175613" lon="10.51704">
<ele>505.086</ele>
<time>2020-09-10T15:17:23Z</time>
</trkpt>
<trkpt lat="48.175552" lon="10.517049">
<ele>505.277</ele>
<time>2020-09-10T15:17:24Z</time>
</trkpt>
<trkpt lat="48.175495" lon="10.517057">
<ele>505.42</ele>
<time>2020-09-10T15:17:25Z</time>
</trkpt>
<trkpt lat="48.175438" lon="10.517065">
<ele>505.529</ele>
<time>2020-09-10T15:17:26Z</time>
</trkpt>
<trkpt lat="48.175377" lon="10.517075">
<ele>505.601</ele>
<time>2020-09-10T15:17:27Z</time>
</trkpt>
<trkpt lat="48.175323" lon="10.517085">
<ele>505.65</ele>
<time>2020-09-10T15:17:28Z</time>
</trkpt>
<trkpt lat="48.175262" lon="10.517094">
<ele>505.689</ele>
<time>2020-09-10T15:17:29Z</time>
</trkpt>
<trkpt lat="48.175205" lon="10.517103">
<ele>505.713</ele>
<time>2020-09-10T15:17:30Z</time>
</trkpt>
<trkpt lat="48.175148" lon="10.517112">
<ele>505.713</ele>
<time>2020-09-10T15:17:31Z</time>
</trkpt>
<trkpt lat="48.175091" lon="10.517122">
<ele>505.713</ele>
<time>2020-09-10T15:17:32Z</time>
</trkpt>
<trkpt lat="48.175034" lon="10.517131">
<ele>505.713</ele>
<time>2020-09-10T15:17:33Z</time>
</trkpt>
<trkpt lat="48.174969" lon="10.517145">
<ele>505.713</ele>
<time>2020-09-10T15:17:34Z</time>
</trkpt>
<trkpt lat="48.174911" lon="10.517157">
<ele>505.713</ele>
<time>2020-09-10T15:17:35Z</time>
</trkpt>
<trkpt lat="48.174854" lon="10.517168">
<ele>505.713</ele>
<time>2020-09-10T15:17:36Z</time>
</trkpt>
<trkpt lat="48.174797" lon="10.517179">
<ele>505.713</ele>
<time>2020-09-10T15:17:37Z</time>
</trkpt>
<trkpt lat="48.17474" lon="10.517192">
<ele>505.713</ele>
<time>2020-09-10T15:17:38Z</time>
</trkpt>
<trkpt lat="48.174679" lon="10.517204">
<ele>505.713</ele>
<time>2020-09-10T15:17:39Z</time>
</trkpt>
<trkpt lat="48.174622" lon="10.517219">
<ele>505.713</ele>
<time>2020-09-10T15:17:40Z</time>
</trkpt>
<trkpt lat="48.174561" lon="10.517232">
<ele>505.713</ele>
<time>2020-09-10T15:17:41Z</time>
</trkpt>
<trkpt lat="48.174503" lon="10.517246">
<ele>505.713</ele>
<time>2020-09-10T15:17:42Z</time>
</trkpt>
<trkpt lat="48.174446" lon="10.517262">
<ele>505.713</ele>
<time>2020-09-10T15:17:43Z</time>
</trkpt>
<trkpt lat="48.174385" lon="10.517278">
<ele>505.713</ele>
<time>2020-09-10T15:17:44Z</time>
</trkpt>
<trkpt lat="48.174328" lon="10.517295">
<ele>505.713</ele>
<time>2020-09-10T15:17:45Z</time>
</trkpt>
<trkpt lat="48.174267" lon="10.51731">
<ele>505.713</ele>
<time>2020-09-10T15:17:46Z</time>
</trkpt>
<trkpt lat="48.17421" lon="10.517322">
<ele>505.713</ele>
<time>2020-09-10T15:17:47Z</time>
</trkpt>
<trkpt lat="48.174149" lon="10.517335">
<ele>505.713</ele>
<time>2020-09-10T15:17:48Z</time>
</trkpt>
<trkpt lat="48.174088" lon="10.51735">
<ele>505.713</ele>
<time>2020-09-10T15:17:49Z</time>
</trkpt>
<trkpt lat="48.174026" lon="10.517365">
<ele>505.713</ele>
<time>2020-09-10T15:17:50Z</time>
</trkpt>
<trkpt lat="48.173965" lon="10.517378">
<ele>505.713</ele>
<time>2020-09-10T15:17:51Z</time>
</trkpt>
<trkpt lat="48.173904" lon="10.517391">
<ele>505.713</ele>
<time>2020-09-10T15:17:52Z</time>
</trkpt>
<trkpt lat="48.173843" lon="10.517407">
<ele>505.713</ele>
<time>2020-09-10T15:17:53Z</time>
</trkpt>
<trkpt lat="48.173782" lon="10.51742">
<ele>505.713</ele>
<time>2020-09-10T15:17:54Z</time>
</trkpt>
<trkpt lat="48.173721" lon="10.517432">
<ele>505.713</ele>
<time>2020-09-10T15:17:55Z</time>
</trkpt>
<trkpt lat="48.17366" lon="10.517444">
<ele>505.713</ele>
<time>2020-09-10T15:17:56Z</time>
</trkpt>
<trkpt lat="48.173599" lon="10.517451">
<ele>505.713</ele>
<time>2020-09-10T15:17:57Z</time>
</trkpt>
<trkpt lat="48.173534" lon="10.517462">
<ele>505.713</ele>
<time>2020-09-10T15:17:58Z</time>
</trkpt>
<trkpt lat="48.173477" lon="10.517473">
<ele>505.713</ele>
<time>2020-09-10T15:17:59Z</time>
</trkpt>
<trkpt lat="48.173416" lon="10.517483">
<ele>505.713</ele>
<time>2020-09-10T15:18:00Z</time>
</trkpt>
<trkpt lat="48.173359" lon="10.517491">
<ele>505.713</ele>
<time>2020-09-10T15:18:01Z</time>
</trkpt>
<trkpt lat="48.173298" lon="10.517497">
<ele>505.713</ele>
<time>2020-09-10T15:18:02Z</time>
</trkpt>
<trkpt lat="48.173237" lon="10.5175">
<ele>505.713</ele>
<time>2020-09-10T15:18:03Z</time>
</trkpt>
<trkpt lat="48.173176" lon="10.517504">
<ele>505.713</ele>
<time>2020-09-10T15:18:04Z</time>
</trkpt>
<trkpt lat="48.173111" lon="10.5175">
<ele>505.713</ele>
<time>2020-09-10T15:18:05Z</time>
</trkpt>
<trkpt lat="48.17305" lon="10.517495">
<ele>505.713</ele>
<time>2020-09-10T15:18:06Z</time>
</trkpt>
<trkpt lat="48.172985" lon="10.517487">
<ele>505.713</ele>
<time>2020-09-10T15:18:07Z</time>
</trkpt>
<trkpt lat="48.172924" lon="10.51748">
<ele>505.713</ele>
<time>2020-09-10T15:18:08Z</time>
</trkpt>
<trkpt lat="48.172867" lon="10.517473">
<ele>505.713</ele>
<time>2020-09-10T15:18:09Z</time>
</trkpt>
<trkpt lat="48.172802" lon="10.517465">
<ele>505.713</ele>
<time>2020-09-10T15:18:10Z</time>
</trkpt>
<trkpt lat="48.172745" lon="10.517455">
<ele>505.713</ele>
<time>2020-09-10T15:18:11Z</time>
</trkpt>
<trkpt lat="48.172684" lon="10.517445">
<ele>505.991</ele>
<time>2020-09-10T15:18:12Z</time>
</trkpt>
<trkpt lat="48.172619" lon="10.517435">
<ele>506.206</ele>
<time>2020-09-10T15:18:13Z</time>
</trkpt>
<trkpt lat="48.172558" lon="10.51742">
<ele>506.369</ele>
<time>2020-09-10T15:18:14Z</time>
</trkpt>
<trkpt lat="48.172501" lon="10.517406">
<ele>506.489</ele>
<time>2020-09-10T15:18:15Z</time>
</trkpt>
<trkpt lat="48.17244" lon="10.51739">
<ele>506.574</ele>
<time>2020-09-10T15:18:16Z</time>
</trkpt>
<trkpt lat="48.172382" lon="10.517374">
<ele>506.626</ele>
<time>2020-09-10T15:18:17Z</time>
</trkpt>
<trkpt lat="48.172321" lon="10.517359">
<ele>506.65</ele>
<time>2020-09-10T15:18:18Z</time>
</trkpt>
<trkpt lat="48.17226" lon="10.517346">
<ele>506.672</ele>
<time>2020-09-10T15:18:19Z</time>
</trkpt>
<trkpt lat="48.172203" lon="10.517335">
<ele>506.673</ele>
<time>2020-09-10T15:18:20Z</time>
</trkpt>
<trkpt lat="48.172146" lon="10.51732">
<ele>506.673</ele>
<time>2020-09-10T15:18:21Z</time>
</trkpt>
<trkpt lat="48.172085" lon="10.517304">
<ele>506.672</ele>
<time>2020-09-10T15:18:22Z</time>
</trkpt>
<trkpt lat="48.172028" lon="10.51729">
<ele>506.673</ele>
<time>2020-09-10T15:18:23Z</time>
</trkpt>
<trkpt lat="48.171967" lon="10.517273">
<ele>506.672</ele>
<time>2020-09-10T15:18:24Z</time>
</trkpt>
<trkpt lat="48.171902" lon="10.517257">
<ele>506.673</ele>
<time>2020-09-10T15:18:25Z</time>
</trkpt>
<trkpt lat="48.171844" lon="10.517238">
<ele>506.672</ele>
<time>2020-09-10T15:18:26Z</time>
</trkpt>
<trkpt lat="48.171787" lon="10.51722">
<ele>506.672</ele>
<time>2020-09-10T15:18:27Z</time>
</trkpt>
<trkpt lat="48.17173" lon="10.517204">
<ele>506.673</ele>
<time>2020-09-10T15:18:28Z</time>
</trkpt>
<trkpt lat="48.171673" lon="10.517187">
<ele>506.673</ele>
<time>2020-09-10T15:18:29Z</time>
</trkpt>
<trkpt lat="48.171616" lon="10.517166">
<ele>506.673</ele>
<time>2020-09-10T15:18:30Z</time>
</trkpt>
<trkpt lat="48.171558" lon="10.517145">
<ele>506.672</ele>
<time>2020-09-10T15:18:31Z</time>
</trkpt>
<trkpt lat="48.171501" lon="10.517122">
<ele>506.673</ele>
<time>2020-09-10T15:18:32Z</time>
</trkpt>
<trkpt lat="48.171448" lon="10.517092">
<ele>506.673</ele>
<time>2020-09-10T15:18:33Z</time>
</trkpt>
<trkpt lat="48.171391" lon="10.517061">
<ele>506.673</ele>
<time>2020-09-10T15:18:34Z</time>
</trkpt>
<trkpt lat="48.171337" lon="10.517032">
<ele>506.673</ele>
<time>2020-09-10T15:18:35Z</time>
</trkpt>
<trkpt lat="48.17128" lon="10.517001">
<ele>506.673</ele>
<time>2020-09-10T15:18:36Z</time>
</trkpt>
<trkpt lat="48.171227" lon="10.516967">
<ele>506.673</ele>
<time>2020-09-10T15:18:37Z</time>
</trkpt>
<trkpt lat="48.171173" lon="10.516927">
<ele>506.673</ele>
<time>2020-09-10T15:18:38Z</time>
</trkpt>
<trkpt lat="48.17112" lon="10.516886">
<ele>506.672</ele>
<time>2020-09-10T15:18:39Z</time>
</trkpt>
<trkpt lat="48.171066" lon="10.51685">
<ele>506.673</ele>
<time>2020-09-10T15:18:40Z</time>
</trkpt>
<trkpt lat="48.171009" lon="10.516829">
<ele>506.673</ele>
<time>2020-09-10T15:18:41Z</time>
</trkpt>
<trkpt lat="48.170952" lon="10.516813">
<ele>506.673</ele>
<time>2020-09-10T15:18:42Z</time>
</trkpt>
<trkpt lat="48.170891" lon="10.516809">
<ele>506.672</ele>
<time>2020-09-10T15:18:43Z</time>
</trkpt>
<trkpt lat="48.170834" lon="10.516813">
<ele>506.672</ele>
<time>2020-09-10T15:18:44Z</time>
</trkpt>
<trkpt lat="48.170776" lon="10.516829">
<ele>506.927</ele>
<time>2020-09-10T15:18:45Z</time>
</trkpt>
<trkpt lat="48.170715" lon="10.516852">
<ele>507.126</ele>
<time>2020-09-10T15:18:46Z</time>
</trkpt>
<trkpt lat="48.170654" lon="10.516871">
<ele>507.278</ele>
<time>2020-09-10T15:18:47Z</time>
</trkpt>
<trkpt lat="48.170597" lon="10.516891">
<ele>507.394</ele>
<time>2020-09-10T15:18:48Z</time>
</trkpt>
<trkpt lat="48.170536" lon="10.516913">
<ele>507.474</ele>
<time>2020-09-10T15:18:49Z</time>
</trkpt>
<trkpt lat="48.170479" lon="10.516933">
<ele>507.555</ele>
<time>2020-09-10T15:18:50Z</time>
</trkpt>
<trkpt lat="48.170422" lon="10.516959">
<ele>507.607</ele>
<time>2020-09-10T15:18:51Z</time>
</trkpt>
<trkpt lat="48.170364" lon="10.516984">
<ele>507.632</ele>
<time>2020-09-10T15:18:52Z</time>
</trkpt>
<trkpt lat="48.170307" lon="10.517">
<ele>507.632</ele>
<time>2020-09-10T15:18:53Z</time>
</trkpt>
<trkpt lat="48.170246" lon="10.517015">
<ele>507.632</ele>
<time>2020-09-10T15:18:54Z</time>
</trkpt>
<trkpt lat="48.170189" lon="10.517032">
<ele>507.632</ele>
<time>2020-09-10T15:18:55Z</time>
</trkpt>
<trkpt lat="48.170132" lon="10.517045">
<ele>507.632</ele>
<time>2020-09-10T15:18:56Z</time>
</trkpt>
<trkpt lat="48.170074" lon="10.517056">
<ele>507.632</ele>
<time>2020-09-10T15:18:57Z</time>
</trkpt>
<trkpt lat="48.170013" lon="10.517068">
<ele>507.632</ele>
<time>2020-09-10T15:18:58Z</time>
</trkpt>
<trkpt lat="48.16996" lon="10.517083">
<ele>507.632</ele>
<time>2020-09-10T15:18:59Z</time>
</trkpt>
<trkpt lat="48.169903" lon="10.517103">
<ele>507.632</ele>
<time>2020-09-10T15:19:00Z</time>
</trkpt>
<trkpt lat="48.169849" lon="10.51712">
<ele>507.632</ele>
<time>2020-09-10T15:19:01Z</time>
</trkpt>
<trkpt lat="48.169792" lon="10.517135">
<ele>507.632</ele>
<time>2020-09-10T15:19:02Z</time>
</trkpt>
<trkpt lat="48.169739" lon="10.517154">
<ele>507.632</ele>
<time>2020-09-10T15:19:03Z</time>
</trkpt>
<trkpt lat="48.169685" lon="10.517172">
<ele>507.632</ele>
<time>2020-09-10T15:19:04Z</time>
</trkpt>
<trkpt lat="48.169624" lon="10.51719">
<ele>507.632</ele>
<time>2020-09-10T15:19:05Z</time>
</trkpt>
<trkpt lat="48.169571" lon="10.517204">
<ele>507.632</ele>
<time>2020-09-10T15:19:06Z</time>
</trkpt>
<trkpt lat="48.169514" lon="10.517219">
<ele>507.632</ele>
<time>2020-09-10T15:19:07Z</time>
</trkpt>
<trkpt lat="48.169456" lon="10.517232">
<ele>507.632</ele>
<time>2020-09-10T15:19:08Z</time>
</trkpt>
<trkpt lat="48.169395" lon="10.517246">
<ele>507.632</ele>
<time>2020-09-10T15:19:09Z</time>
</trkpt>
<trkpt lat="48.169338" lon="10.517265">
<ele>507.632</ele>
<time>2020-09-10T15:19:10Z</time>
</trkpt>
<trkpt lat="48.169281" lon="10.517288">
<ele>507.632</ele>
<time>2020-09-10T15:19:11Z</time>
</trkpt>
<trkpt lat="48.169228" lon="10.517308">
<ele>507.632</ele>
<time>2020-09-10T15:19:12Z</time>
</trkpt>
<trkpt lat="48.169167" lon="10.51734">
<ele>507.632</ele>
<time>2020-09-10T15:19:13Z</time>
</trkpt>
<trkpt lat="48.169109" lon="10.517375">
<ele>507.632</ele>
<time>2020-09-10T15:19:14Z</time>
</trkpt>
<trkpt lat="48.169056" lon="10.517411">
<ele>507.632</ele>
<time>2020-09-10T15:19:15Z</time>
</trkpt>
<trkpt lat="48.168999" lon="10.517448">
<ele>507.632</ele>
<time>2020-09-10T15:19:16Z</time>
</trkpt>
<trkpt lat="48.168938" lon="10.517485">
<ele>507.632</ele>
<time>2020-09-10T15:19:17Z</time>
</trkpt>
<trkpt lat="48.16888" lon="10.517525">
<ele>507.632</ele>
<time>2020-09-10T15:19:18Z</time>
</trkpt>
<trkpt lat="48.168823" lon="10.517563">
<ele>507.632</ele>
<time>2020-09-10T15:19:19Z</time>
</trkpt>
<trkpt lat="48.168766" lon="10.517602">
<ele>507.632</ele>
<time>2020-09-10T15:19:20Z</time>
</trkpt>
<trkpt lat="48.168709" lon="10.517647">
<ele>507.632</ele>
<time>2020-09-10T15:19:21Z</time>
</trkpt>
<trkpt lat="48.168652" lon="10.51769">
<ele>507.632</ele>
<time>2020-09-10T15:19:22Z</time>
</trkpt>
<trkpt lat="48.168602" lon="10.517732">
<ele>507.632</ele>
<time>2020-09-10T15:19:23Z</time>
</trkpt>
<trkpt lat="48.168545" lon="10.51778">
<ele>507.632</ele>
<time>2020-09-10T15:19:24Z</time>
</trkpt>
<trkpt lat="48.168495" lon="10.517833">
<ele>507.632</ele>
<time>2020-09-10T15:19:25Z</time>
</trkpt>
<trkpt lat="48.168446" lon="10.517892">
<ele>507.632</ele>
<time>2020-09-10T15:19:26Z</time>
</trkpt>
<trkpt lat="48.168404" lon="10.517946">
<ele>507.632</ele>
<time>2020-09-10T15:19:27Z</time>
</trkpt>
<trkpt lat="48.168354" lon="10.518001">
<ele>507.632</ele>
<time>2020-09-10T15:19:28Z</time>
</trkpt>
<trkpt lat="48.168308" lon="10.518052">
<ele>507.632</ele>
<time>2020-09-10T15:19:29Z</time>
</trkpt>
<trkpt lat="48.168255" lon="10.518095">
<ele>507.632</ele>
<time>2020-09-10T15:19:30Z</time>
</trkpt>
<trkpt lat="48.168205" lon="10.518132">
<ele>507.632</ele>
<time>2020-09-10T15:19:31Z</time>
</trkpt>
<trkpt lat="48.168152" lon="10.518162">
<ele>507.632</ele>
<time>2020-09-10T15:19:32Z</time>
</trkpt>
<trkpt lat="48.168091" lon="10.518187">
<ele>507.632</ele>
<time>2020-09-10T15:19:33Z</time>
</trkpt>
<trkpt lat="48.168034" lon="10.518209">
<ele>507.632</ele>
<time>2020-09-10T15:19:34Z</time>
</trkpt>
<trkpt lat="48.167976" lon="10.51823">
<ele>507.632</ele>
<time>2020-09-10T15:19:35Z</time>
</trkpt>
<trkpt lat="48.167919" lon="10.518253">
<ele>507.632</ele>
<time>2020-09-10T15:19:36Z</time>
</trkpt>
<trkpt lat="48.167862" lon="10.518275">
<ele>507.632</ele>
<time>2020-09-10T15:19:37Z</time>
</trkpt>
<trkpt lat="48.167801" lon="10.518298">
<ele>507.632</ele>
<time>2020-09-10T15:19:38Z</time>
</trkpt>
<trkpt lat="48.167751" lon="10.518323">
<ele>507.632</ele>
<time>2020-09-10T15:19:39Z</time>
</trkpt>
<trkpt lat="48.167698" lon="10.518354">
<ele>507.632</ele>
<time>2020-09-10T15:19:40Z</time>
</trkpt>
<trkpt lat="48.167648" lon="10.518386">
<ele>507.632</ele>
<time>2020-09-10T15:19:41Z</time>
</trkpt>
<trkpt lat="48.167599" lon="10.518415">
<ele>507.632</ele>
<time>2020-09-10T15:19:42Z</time>
</trkpt>
<trkpt lat="48.167549" lon="10.518435">
<ele>507.632</ele>
<time>2020-09-10T15:19:43Z</time>
</trkpt>
<trkpt lat="48.1675" lon="10.518443">
<ele>507.632</ele>
<time>2020-09-10T15:19:44Z</time>
</trkpt>
<trkpt lat="48.167439" lon="10.518451">
<ele>507.632</ele>
<time>2020-09-10T15:19:45Z</time>
</trkpt>
<trkpt lat="48.167385" lon="10.518456">
<ele>507.632</ele>
<time>2020-09-10T15:19:46Z</time>
</trkpt>
<trkpt lat="48.167332" lon="10.518468">
<ele>507.632</ele>
<time>2020-09-10T15:19:47Z</time>
</trkpt>
<trkpt lat="48.167274" lon="10.518488">
<ele>507.632</ele>
<time>2020-09-10T15:19:48Z</time>
</trkpt>
<trkpt lat="48.167221" lon="10.518517">
<ele>507.632</ele>
<time>2020-09-10T15:19:49Z</time>
</trkpt>
<trkpt lat="48.167168" lon="10.518549">
<ele>507.632</ele>
<time>2020-09-10T15:19:50Z</time>
</trkpt>
<trkpt lat="48.16711" lon="10.51858">
<ele>507.632</ele>
<time>2020-09-10T15:19:51Z</time>
</trkpt>
<trkpt lat="48.167053" lon="10.518612">
<ele>507.632</ele>
<time>2020-09-10T15:19:52Z</time>
</trkpt>
<trkpt lat="48.167" lon="10.51864">
<ele>507.632</ele>
<time>2020-09-10T15:19:53Z</time>
</trkpt>
<trkpt lat="48.166946" lon="10.518668">
<ele>507.632</ele>
<time>2020-09-10T15:19:54Z</time>
</trkpt>
<trkpt lat="48.166885" lon="10.518696">
<ele>507.632</ele>
<time>2020-09-10T15:19:55Z</time>
</trkpt>
<trkpt lat="48.166832" lon="10.518719">
<ele>507.632</ele>
<time>2020-09-10T15:19:56Z</time>
</trkpt>
<trkpt lat="48.166782" lon="10.518727">
<ele>507.632</ele>
<time>2020-09-10T15:19:57Z</time>
</trkpt>
<trkpt lat="48.166729" lon="10.518713">
<ele>507.632</ele>
<time>2020-09-10T15:19:58Z</time>
</trkpt>
<trkpt lat="48.166683" lon="10.518683">
<ele>507.632</ele>
<time>2020-09-10T15:19:59Z</time>
</trkpt>
<trkpt lat="48.166637" lon="10.518643">
<ele>507.632</ele>
<time>2020-09-10T15:20:00Z</time>
</trkpt>
<trkpt lat="48.166592" lon="10.518606">
<ele>507.632</ele>
<time>2020-09-10T15:20:01Z</time>
</trkpt>
<trkpt lat="48.16655" lon="10.518577">
<ele>507.632</ele>
<time>2020-09-10T15:20:02Z</time>
</trkpt>
<trkpt lat="48.166508" lon="10.518554">
<ele>507.632</ele>
<time>2020-09-10T15:20:03Z</time>
</trkpt>
<trkpt lat="48.166462" lon="10.518533">
<ele>507.632</ele>
<time>2020-09-10T15:20:04Z</time>
</trkpt>
<trkpt lat="48.166416" lon="10.51851">
<ele>507.632</ele>
<time>2020-09-10T15:20:05Z</time>
</trkpt>
<trkpt lat="48.16637" lon="10.518488">
<ele>507.632</ele>
<time>2020-09-10T15:20:06Z</time>
</trkpt>
<trkpt lat="48.166325" lon="10.518465">
<ele>507.632</ele>
<time>2020-09-10T15:20:07Z</time>
</trkpt>
<trkpt lat="48.166267" lon="10.518438">
<ele>507.632</ele>
<time>2020-09-10T15:20:08Z</time>
</trkpt>
<trkpt lat="48.166218" lon="10.518412">
<ele>507.632</ele>
<time>2020-09-10T15:20:09Z</time>
</trkpt>
<trkpt lat="48.166164" lon="10.518385">
<ele>507.632</ele>
<time>2020-09-10T15:20:10Z</time>
</trkpt>
<trkpt lat="48.166111" lon="10.518358">
<ele>507.632</ele>
<time>2020-09-10T15:20:11Z</time>
</trkpt>
<trkpt lat="48.166054" lon="10.518333">
<ele>507.632</ele>
<time>2020-09-10T15:20:12Z</time>
</trkpt>
<trkpt lat="48.166" lon="10.518304">
<ele>507.632</ele>
<time>2020-09-10T15:20:13Z</time>
</trkpt>
<trkpt lat="48.165943" lon="10.518275">
<ele>507.632</ele>
<time>2020-09-10T15:20:14Z</time>
</trkpt>
<trkpt lat="48.16589" lon="10.518248">
<ele>507.632</ele>
<time>2020-09-10T15:20:15Z</time>
</trkpt>
<trkpt lat="48.16584" lon="10.518222">
<ele>507.632</ele>
<time>2020-09-10T15:20:16Z</time>
</trkpt>
<trkpt lat="48.165783" lon="10.518195">
<ele>507.632</ele>
<time>2020-09-10T15:20:17Z</time>
</trkpt>
<trkpt lat="48.16573" lon="10.518172">
<ele>507.632</ele>
<time>2020-09-10T15:20:18Z</time>
</trkpt>
<trkpt lat="48.165676" lon="10.518148">
<ele>507.632</ele>
<time>2020-09-10T15:20:19Z</time>
</trkpt>
<trkpt lat="48.165619" lon="10.518124">
<ele>507.632</ele>
<time>2020-09-10T15:20:20Z</time>
</trkpt>
<trkpt lat="48.165569" lon="10.518093">
<ele>507.632</ele>
<time>2020-09-10T15:20:21Z</time>
</trkpt>
<trkpt lat="48.165516" lon="10.518055">
<ele>507.632</ele>
<time>2020-09-10T15:20:22Z</time>
</trkpt>
<trkpt lat="48.16547" lon="10.518004">
<ele>507.632</ele>
<time>2020-09-10T15:20:23Z</time>
</trkpt>
<trkpt lat="48.165424" lon="10.517945">
<ele>507.632</ele>
<time>2020-09-10T15:20:24Z</time>
</trkpt>
<trkpt lat="48.165382" lon="10.517879">
<ele>507.632</ele>
<time>2020-09-10T15:20:25Z</time>
</trkpt>
<trkpt lat="48.165352" lon="10.517805">
<ele>507.632</ele>
<time>2020-09-10T15:20:26Z</time>
</trkpt>
<trkpt lat="48.165318" lon="10.517726">
<ele>507.632</ele>
<time>2020-09-10T15:20:27Z</time>
</trkpt>
<trkpt lat="48.165287" lon="10.517649">
<ele>507.632</ele>
<time>2020-09-10T15:20:28Z</time>
</trkpt>
<trkpt lat="48.165257" lon="10.517571">
<ele>507.632</ele>
<time>2020-09-10T15:20:29Z</time>
</trkpt>
<trkpt lat="48.165226" lon="10.517495">
<ele>507.632</ele>
<time>2020-09-10T15:20:30Z</time>
</trkpt>
<trkpt lat="48.165192" lon="10.51742">
<ele>507.632</ele>
<time>2020-09-10T15:20:31Z</time>
</trkpt>
<trkpt lat="48.165157" lon="10.517344">
<ele>507.632</ele>
<time>2020-09-10T15:20:32Z</time>
</trkpt>
<trkpt lat="48.165127" lon="10.517271">
<ele>507.632</ele>
<time>2020-09-10T15:20:33Z</time>
</trkpt>
<trkpt lat="48.165092" lon="10.517197">
<ele>507.632</ele>
<time>2020-09-10T15:20:34Z</time>
</trkpt>
<trkpt lat="48.165058" lon="10.517125">
<ele>507.632</ele>
<time>2020-09-10T15:20:35Z</time>
</trkpt>
<trkpt lat="48.16502" lon="10.517058">
<ele>507.632</ele>
<time>2020-09-10T15:20:36Z</time>
</trkpt>
<trkpt lat="48.164978" lon="10.517">
<ele>507.632</ele>
<time>2020-09-10T15:20:37Z</time>
</trkpt>
<trkpt lat="48.164932" lon="10.516947">
<ele>507.632</ele>
<time>2020-09-10T15:20:38Z</time>
</trkpt>
<trkpt lat="48.164883" lon="10.516898">
<ele>507.632</ele>
<time>2020-09-10T15:20:39Z</time>
</trkpt>
<trkpt lat="48.164833" lon="10.516862">
<ele>507.632</ele>
<time>2020-09-10T15:20:40Z</time>
</trkpt>
<trkpt lat="48.164776" lon="10.516837">
<ele>507.632</ele>
<time>2020-09-10T15:20:41Z</time>
</trkpt>
<trkpt lat="48.164719" lon="10.516823">
<ele>507.632</ele>
<time>2020-09-10T15:20:42Z</time>
</trkpt>
<trkpt lat="48.164661" lon="10.516815">
<ele>507.632</ele>
<time>2020-09-10T15:20:43Z</time>
</trkpt>
<trkpt lat="48.1646" lon="10.516812">
<ele>507.632</ele>
<time>2020-09-10T15:20:44Z</time>
</trkpt>
<trkpt lat="48.164539" lon="10.516812">
<ele>507.632</ele>
<time>2020-09-10T15:20:45Z</time>
</trkpt>
<trkpt lat="48.164482" lon="10.516812">
<ele>507.88</ele>
<time>2020-09-10T15:20:46Z</time>
</trkpt>
<trkpt lat="48.164425" lon="10.516812">
<ele>508.074</ele>
<time>2020-09-10T15:20:47Z</time>
</trkpt>
<trkpt lat="48.164371" lon="10.516813">
<ele>508.223</ele>
<time>2020-09-10T15:20:48Z</time>
</trkpt>
<trkpt lat="48.164307" lon="10.516817">
<ele>508.323</ele>
<time>2020-09-10T15:20:49Z</time>
</trkpt>
<trkpt lat="48.164253" lon="10.516823">
<ele>508.434</ele>
<time>2020-09-10T15:20:50Z</time>
</trkpt>
<trkpt lat="48.164192" lon="10.516833">
<ele>508.514</ele>
<time>2020-09-10T15:20:51Z</time>
</trkpt>
<trkpt lat="48.164135" lon="10.516847">
<ele>508.565</ele>
<time>2020-09-10T15:20:52Z</time>
</trkpt>
<trkpt lat="48.164078" lon="10.516867">
<ele>508.591</ele>
<time>2020-09-10T15:20:53Z</time>
</trkpt>
<trkpt lat="48.164021" lon="10.51689">
<ele>508.591</ele>
<time>2020-09-10T15:20:54Z</time>
</trkpt>
<trkpt lat="48.163963" lon="10.516919">
<ele>508.591</ele>
<time>2020-09-10T15:20:55Z</time>
</trkpt>
<trkpt lat="48.16391" lon="10.516949">
<ele>508.591</ele>
<time>2020-09-10T15:20:56Z</time>
</trkpt>
<trkpt lat="48.163853" lon="10.516976">
<ele>508.591</ele>
<time>2020-09-10T15:20:57Z</time>
</trkpt>
<trkpt lat="48.163799" lon="10.517005">
<ele>508.591</ele>
<time>2020-09-10T15:20:58Z</time>
</trkpt>
<trkpt lat="48.163746" lon="10.517035">
<ele>508.591</ele>
<time>2020-09-10T15:20:59Z</time>
</trkpt>
<trkpt lat="48.163689" lon="10.517066">
<ele>508.823</ele>
<time>2020-09-10T15:21:00Z</time>
</trkpt>
<trkpt lat="48.163635" lon="10.517098">
<ele>509.02</ele>
<time>2020-09-10T15:21:01Z</time>
</trkpt>
<trkpt lat="48.163582" lon="10.517129">
<ele>509.181</ele>
<time>2020-09-10T15:21:02Z</time>
</trkpt>
<trkpt lat="48.163525" lon="10.517159">
<ele>509.31</ele>
<time>2020-09-10T15:21:03Z</time>
</trkpt>
<trkpt lat="48.163471" lon="10.517188">
<ele>509.41</ele>
<time>2020-09-10T15:21:04Z</time>
</trkpt>
<trkpt lat="48.163418" lon="10.517217">
<ele>509.481</ele>
<time>2020-09-10T15:21:05Z</time>
</trkpt>
<trkpt lat="48.163361" lon="10.517244">
<ele>509.529</ele>
<time>2020-09-10T15:21:06Z</time>
</trkpt>
<trkpt lat="48.163303" lon="10.517271">
<ele>509.551</ele>
<time>2020-09-10T15:21:07Z</time>
</trkpt>
<trkpt lat="48.16325" lon="10.517295">
<ele>509.551</ele>
<time>2020-09-10T15:21:08Z</time>
</trkpt>
<trkpt lat="48.163197" lon="10.51732">
<ele>509.551</ele>
<time>2020-09-10T15:21:09Z</time>
</trkpt>
<trkpt lat="48.163139" lon="10.517343">
<ele>509.551</ele>
<time>2020-09-10T15:21:10Z</time>
</trkpt>
<trkpt lat="48.16309" lon="10.517367">
<ele>509.551</ele>
<time>2020-09-10T15:21:11Z</time>
</trkpt>
<trkpt lat="48.163036" lon="10.517391">
<ele>509.551</ele>
<time>2020-09-10T15:21:12Z</time>
</trkpt>
<trkpt lat="48.162983" lon="10.517411">
<ele>509.551</ele>
<time>2020-09-10T15:21:13Z</time>
</trkpt>
<trkpt lat="48.16293" lon="10.51743">
<ele>509.551</ele>
<time>2020-09-10T15:21:14Z</time>
</trkpt>
<trkpt lat="48.162876" lon="10.517449">
<ele>509.551</ele>
<time>2020-09-10T15:21:15Z</time>
</trkpt>
<trkpt lat="48.162827" lon="10.517467">
<ele>509.817</ele>
<time>2020-09-10T15:21:16Z</time>
</trkpt>
<trkpt lat="48.162773" lon="10.517485">
<ele>510.027</ele>
<time>2020-09-10T15:21:17Z</time>
</trkpt>
<trkpt lat="48.16272" lon="10.517504">
<ele>510.192</ele>
<time>2020-09-10T15:21:18Z</time>
</trkpt>
<trkpt lat="48.16267" lon="10.517525">
<ele>510.306</ele>
<time>2020-09-10T15:21:19Z</time>
</trkpt>
<trkpt lat="48.162621" lon="10.517549">
<ele>510.426</ele>
<time>2020-09-10T15:21:20Z</time>
</trkpt>
<trkpt lat="48.162571" lon="10.517575">
<ele>510.514</ele>
<time>2020-09-10T15:21:21Z</time>
</trkpt>
<trkpt lat="48.162518" lon="10.517603">
<ele>510.568</ele>
<time>2020-09-10T15:21:22Z</time>
</trkpt>
<trkpt lat="48.162472" lon="10.517633">
<ele>510.893</ele>
<time>2020-09-10T15:21:23Z</time>
</trkpt>
<trkpt lat="48.162426" lon="10.517667">
<ele>511.207</ele>
<time>2020-09-10T15:21:24Z</time>
</trkpt>
<trkpt lat="48.16238" lon="10.517703">
<ele>511.409</ele>
<time>2020-09-10T15:21:25Z</time>
</trkpt>
<trkpt lat="48.162334" lon="10.51774">
<ele>511.561</ele>
<time>2020-09-10T15:21:26Z</time>
</trkpt>
<trkpt lat="48.162285" lon="10.517778">
<ele>511.661</ele>
<time>2020-09-10T15:21:27Z</time>
</trkpt>
<trkpt lat="48.162243" lon="10.517817">
<ele>511.732</ele>
<time>2020-09-10T15:21:28Z</time>
</trkpt>
<trkpt lat="48.162193" lon="10.517854">
<ele>511.784</ele>
<time>2020-09-10T15:21:29Z</time>
</trkpt>
<trkpt lat="48.162148" lon="10.51789">
<ele>511.819</ele>
<time>2020-09-10T15:21:30Z</time>
</trkpt>
<trkpt lat="48.162098" lon="10.517929">
<ele>511.819</ele>
<time>2020-09-10T15:21:31Z</time>
</trkpt>
<trkpt lat="48.162052" lon="10.517962">
<ele>511.819</ele>
<time>2020-09-10T15:21:32Z</time>
</trkpt>
<trkpt lat="48.162003" lon="10.517995">
<ele>511.819</ele>
<time>2020-09-10T15:21:33Z</time>
</trkpt>
<trkpt lat="48.161953" lon="10.518027">
<ele>511.819</ele>
<time>2020-09-10T15:21:34Z</time>
</trkpt>
<trkpt lat="48.161903" lon="10.518053">
<ele>511.819</ele>
<time>2020-09-10T15:21:35Z</time>
</trkpt>
<trkpt lat="48.161854" lon="10.518073">
<ele>511.819</ele>
<time>2020-09-10T15:21:36Z</time>
</trkpt>
<trkpt lat="48.1618" lon="10.518082">
<ele>512.035</ele>
<time>2020-09-10T15:21:37Z</time>
</trkpt>
<trkpt lat="48.161751" lon="10.518086">
<ele>512.207</ele>
<time>2020-09-10T15:21:38Z</time>
</trkpt>
<trkpt lat="48.161697" lon="10.518086">
<ele>512.326</ele>
<time>2020-09-10T15:21:39Z</time>
</trkpt>
<trkpt lat="48.161648" lon="10.518078">
<ele>512.454</ele>
<time>2020-09-10T15:21:40Z</time>
</trkpt>
<trkpt lat="48.161594" lon="10.518059">
<ele>512.552</ele>
<time>2020-09-10T15:21:41Z</time>
</trkpt>
<trkpt lat="48.161545" lon="10.518032">
<ele>512.623</ele>
<time>2020-09-10T15:21:42Z</time>
</trkpt>
<trkpt lat="48.161503" lon="10.517999">
<ele>512.67</ele>
<time>2020-09-10T15:21:43Z</time>
</trkpt>
<trkpt lat="48.161461" lon="10.517957">
<ele>512.692</ele>
<time>2020-09-10T15:21:44Z</time>
</trkpt>
<trkpt lat="48.161423" lon="10.517913">
<ele>512.692</ele>
<time>2020-09-10T15:21:45Z</time>
</trkpt>
<trkpt lat="48.161385" lon="10.517866">
<ele>512.692</ele>
<time>2020-09-10T15:21:46Z</time>
</trkpt>
<trkpt lat="48.161358" lon="10.51782">
<ele>512.924</ele>
<time>2020-09-10T15:21:47Z</time>
</trkpt>
<trkpt lat="48.161327" lon="10.517772">
<ele>513.109</ele>
<time>2020-09-10T15:21:48Z</time>
</trkpt>
<trkpt lat="48.161308" lon="10.517723">
<ele>513.24</ele>
<time>2020-09-10T15:21:49Z</time>
</trkpt>
<trkpt lat="48.161282" lon="10.517673">
<ele>513.38</ele>
<time>2020-09-10T15:21:50Z</time>
</trkpt>
<trkpt lat="48.161263" lon="10.517625">
<ele>513.49</ele>
<time>2020-09-10T15:21:51Z</time>
</trkpt>
<trkpt lat="48.161243" lon="10.517579">
<ele>513.565</ele>
<time>2020-09-10T15:21:52Z</time>
</trkpt>
<trkpt lat="48.161221" lon="10.51753">
<ele>513.866</ele>
<time>2020-09-10T15:21:53Z</time>
</trkpt>
<trkpt lat="48.161198" lon="10.517483">
<ele>514.105</ele>
<time>2020-09-10T15:21:54Z</time>
</trkpt>
<trkpt lat="48.161179" lon="10.517435">
<ele>514.339</ele>
<time>2020-09-10T15:21:55Z</time>
</trkpt>
<trkpt lat="48.161156" lon="10.517388">
<ele>514.446</ele>
<time>2020-09-10T15:21:56Z</time>
</trkpt>
<trkpt lat="48.161137" lon="10.517343">
<ele>514.787</ele>
<time>2020-09-10T15:21:57Z</time>
</trkpt>
<trkpt lat="48.161114" lon="10.517299">
<ele>515.039</ele>
<time>2020-09-10T15:21:58Z</time>
</trkpt>
<trkpt lat="48.161091" lon="10.517252">
<ele>515.227</ele>
<time>2020-09-10T15:21:59Z</time>
</trkpt>
<trkpt lat="48.161072" lon="10.517206">
<ele>515.398</ele>
<time>2020-09-10T15:22:00Z</time>
</trkpt>
<trkpt lat="48.161049" lon="10.517162">
<ele>515.497</ele>
<time>2020-09-10T15:22:01Z</time>
</trkpt>
<trkpt lat="48.16103" lon="10.517115">
<ele>515.79</ele>
<time>2020-09-10T15:22:02Z</time>
</trkpt>
<trkpt lat="48.161011" lon="10.51707">
<ele>516.021</ele>
<time>2020-09-10T15:22:03Z</time>
</trkpt>
<trkpt lat="48.160984" lon="10.517025">
<ele>516.195</ele>
<time>2020-09-10T15:22:04Z</time>
</trkpt>
<trkpt lat="48.160965" lon="10.516985">
<ele>516.347</ele>
<time>2020-09-10T15:22:05Z</time>
</trkpt>
<trkpt lat="48.160946" lon="10.516943">
<ele>516.675</ele>
<time>2020-09-10T15:22:06Z</time>
</trkpt>
<trkpt lat="48.160923" lon="10.516903">
<ele>516.92</ele>
<time>2020-09-10T15:22:07Z</time>
</trkpt>
<trkpt lat="48.160904" lon="10.516863">
<ele>517.094</ele>
<time>2020-09-10T15:22:08Z</time>
</trkpt>
<trkpt lat="48.160885" lon="10.516823">
<ele>517.219</ele>
<time>2020-09-10T15:22:09Z</time>
</trkpt>
<trkpt lat="48.160866" lon="10.51678">
<ele>517.33</ele>
<time>2020-09-10T15:22:10Z</time>
</trkpt>
<trkpt lat="48.160847" lon="10.516739">
<ele>517.408</ele>
<time>2020-09-10T15:22:11Z</time>
</trkpt>
<trkpt lat="48.160824" lon="10.516697">
<ele>517.717</ele>
<time>2020-09-10T15:22:12Z</time>
</trkpt>
<trkpt lat="48.160805" lon="10.516653">
<ele>517.962</ele>
<time>2020-09-10T15:22:13Z</time>
</trkpt>
<trkpt lat="48.160786" lon="10.516609">
<ele>518.211</ele>
<time>2020-09-10T15:22:14Z</time>
</trkpt>
<trkpt lat="48.160763" lon="10.516568">
<ele>518.313</ele>
<time>2020-09-10T15:22:15Z</time>
</trkpt>
<trkpt lat="48.160748" lon="10.516523">
<ele>518.661</ele>
<time>2020-09-10T15:22:16Z</time>
</trkpt>
<trkpt lat="48.160725" lon="10.516481">
<ele>518.926</ele>
<time>2020-09-10T15:22:17Z</time>
</trkpt>
<trkpt lat="48.160706" lon="10.516438">
<ele>519.106</ele>
<time>2020-09-10T15:22:18Z</time>
</trkpt>
<trkpt lat="48.160686" lon="10.516398">
<ele>519.234</ele>
<time>2020-09-10T15:22:19Z</time>
</trkpt>
<trkpt lat="48.160664" lon="10.516358">
<ele>519.555</ele>
<time>2020-09-10T15:22:20Z</time>
</trkpt>
<trkpt lat="48.160645" lon="10.516316">
<ele>519.811</ele>
<time>2020-09-10T15:22:21Z</time>
</trkpt>
<trkpt lat="48.160625" lon="10.516278">
<ele>520.009</ele>
<time>2020-09-10T15:22:22Z</time>
</trkpt>
<trkpt lat="48.16061" lon="10.51624">
<ele>520.151</ele>
<time>2020-09-10T15:22:23Z</time>
</trkpt>
<trkpt lat="48.160591" lon="10.516202">
<ele>520.223</ele>
<time>2020-09-10T15:22:24Z</time>
</trkpt>
<trkpt lat="48.160572" lon="10.516165">
<ele>520.529</ele>
<time>2020-09-10T15:22:25Z</time>
</trkpt>
<trkpt lat="48.160553" lon="10.516127">
<ele>520.771</ele>
<time>2020-09-10T15:22:26Z</time>
</trkpt>
<trkpt lat="48.160534" lon="10.516088">
<ele>520.958</ele>
<time>2020-09-10T15:22:27Z</time>
</trkpt>
<trkpt lat="48.160515" lon="10.516052">
<ele>521.062</ele>
<time>2020-09-10T15:22:28Z</time>
</trkpt>
<trkpt lat="48.160496" lon="10.516014">
<ele>521.401</ele>
<time>2020-09-10T15:22:29Z</time>
</trkpt>
<trkpt lat="48.160477" lon="10.515977">
<ele>521.709</ele>
<time>2020-09-10T15:22:30Z</time>
</trkpt>
<trkpt lat="48.160461" lon="10.515941">
<ele>521.942</ele>
<time>2020-09-10T15:22:31Z</time>
</trkpt>
<trkpt lat="48.160446" lon="10.515905">
<ele>522.11</ele>
<time>2020-09-10T15:22:32Z</time>
</trkpt>
<trkpt lat="48.160427" lon="10.515868">
<ele>522.223</ele>
<time>2020-09-10T15:22:33Z</time>
</trkpt>
<trkpt lat="48.160412" lon="10.51583">
<ele>522.292</ele>
<time>2020-09-10T15:22:34Z</time>
</trkpt>
<trkpt lat="48.160393" lon="10.515794">
<ele>522.604</ele>
<time>2020-09-10T15:22:35Z</time>
</trkpt>
<trkpt lat="48.160374" lon="10.515759">
<ele>522.848</ele>
<time>2020-09-10T15:22:36Z</time>
</trkpt>
<trkpt lat="48.160358" lon="10.515721">
<ele>523.004</ele>
<time>2020-09-10T15:22:37Z</time>
</trkpt>
<trkpt lat="48.160339" lon="10.515687">
<ele>523.403</ele>
<time>2020-09-10T15:22:38Z</time>
</trkpt>
<trkpt lat="48.160324" lon="10.51565">
<ele>523.697</ele>
<time>2020-09-10T15:22:39Z</time>
</trkpt>
<trkpt lat="48.160305" lon="10.515615">
<ele>523.972</ele>
<time>2020-09-10T15:22:40Z</time>
</trkpt>
<trkpt lat="48.16029" lon="10.515576">
<ele>524.158</ele>
<time>2020-09-10T15:22:41Z</time>
</trkpt>
<trkpt lat="48.160267" lon="10.515541">
<ele>524.539</ele>
<time>2020-09-10T15:22:42Z</time>
</trkpt>
<trkpt lat="48.160252" lon="10.515505">
<ele>524.823</ele>
<time>2020-09-10T15:22:43Z</time>
</trkpt>
<trkpt lat="48.160233" lon="10.515467">
<ele>525.043</ele>
<time>2020-09-10T15:22:44Z</time>
</trkpt>
<trkpt lat="48.160217" lon="10.515429">
<ele>525.172</ele>
<time>2020-09-10T15:22:45Z</time>
</trkpt>
<trkpt lat="48.160198" lon="10.515391">
<ele>525.547</ele>
<time>2020-09-10T15:22:46Z</time>
</trkpt>
<trkpt lat="48.160183" lon="10.515355">
<ele>525.792</ele>
<time>2020-09-10T15:22:47Z</time>
</trkpt>
<trkpt lat="48.160168" lon="10.515317">
<ele>525.956</ele>
<time>2020-09-10T15:22:48Z</time>
</trkpt>
<trkpt lat="48.160145" lon="10.515281">
<ele>526.07</ele>
<time>2020-09-10T15:22:49Z</time>
</trkpt>
<trkpt lat="48.16013" lon="10.515244">
<ele>526.407</ele>
<time>2020-09-10T15:22:50Z</time>
</trkpt>
<trkpt lat="48.16011" lon="10.515207">
<ele>526.674</ele>
<time>2020-09-10T15:22:51Z</time>
</trkpt>
<trkpt lat="48.160095" lon="10.51517">
<ele>526.883</ele>
<time>2020-09-10T15:22:52Z</time>
</trkpt>
<trkpt lat="48.160076" lon="10.515134">
<ele>527.035</ele>
<time>2020-09-10T15:22:53Z</time>
</trkpt>
<trkpt lat="48.160061" lon="10.515097">
<ele>527.113</ele>
<time>2020-09-10T15:22:54Z</time>
</trkpt>
<trkpt lat="48.160042" lon="10.51506">
<ele>527.469</ele>
<time>2020-09-10T15:22:55Z</time>
</trkpt>
<trkpt lat="48.160027" lon="10.515025">
<ele>527.751</ele>
<time>2020-09-10T15:22:56Z</time>
</trkpt>
<trkpt lat="48.160007" lon="10.514988">
<ele>527.969</ele>
<time>2020-09-10T15:22:57Z</time>
</trkpt>
<trkpt lat="48.159992" lon="10.514954">
<ele>528.092</ele>
<time>2020-09-10T15:22:58Z</time>
</trkpt>
<trkpt lat="48.159977" lon="10.514918">
<ele>528.431</ele>
<time>2020-09-10T15:22:59Z</time>
</trkpt>
<trkpt lat="48.159958" lon="10.514881">
<ele>528.73</ele>
<time>2020-09-10T15:23:00Z</time>
</trkpt>
<trkpt lat="48.159939" lon="10.514845">
<ele>528.961</ele>
<time>2020-09-10T15:23:01Z</time>
</trkpt>
<trkpt lat="48.15992" lon="10.514807">
<ele>529.104</ele>
<time>2020-09-10T15:23:02Z</time>
</trkpt>
<trkpt lat="48.159904" lon="10.51477">
<ele>529.475</ele>
<time>2020-09-10T15:23:03Z</time>
</trkpt>
<trkpt lat="48.159885" lon="10.514731">
<ele>529.773</ele>
<time>2020-09-10T15:23:04Z</time>
</trkpt>
<trkpt lat="48.159866" lon="10.514694">
<ele>529.999</ele>
<time>2020-09-10T15:23:05Z</time>
</trkpt>
<trkpt lat="48.159847" lon="10.514657">
<ele>530.135</ele>
<time>2020-09-10T15:23:06Z</time>
</trkpt>
<trkpt lat="48.159828" lon="10.514619">
<ele>530.52</ele>
<time>2020-09-10T15:23:07Z</time>
</trkpt>
<trkpt lat="48.159809" lon="10.514582">
<ele>530.768</ele>
<time>2020-09-10T15:23:08Z</time>
</trkpt>
<trkpt lat="48.159794" lon="10.514542">
<ele>530.955</ele>
<time>2020-09-10T15:23:09Z</time>
</trkpt>
<trkpt lat="48.159775" lon="10.514506">
<ele>531.121</ele>
<time>2020-09-10T15:23:10Z</time>
</trkpt>
<trkpt lat="48.159756" lon="10.51447">
<ele>531.221</ele>
<time>2020-09-10T15:23:11Z</time>
</trkpt>
<trkpt lat="48.15974" lon="10.514435">
<ele>531.578</ele>
<time>2020-09-10T15:23:12Z</time>
</trkpt>
<trkpt lat="48.159725" lon="10.514399">
<ele>531.824</ele>
<time>2020-09-10T15:23:13Z</time>
</trkpt>
<trkpt lat="48.15971" lon="10.514361">
<ele>532.261</ele>
<time>2020-09-10T15:23:14Z</time>
</trkpt>
<trkpt lat="48.159695" lon="10.514323">
<ele>532.697</ele>
<time>2020-09-10T15:23:15Z</time>
</trkpt>
<trkpt lat="48.159676" lon="10.514288">
<ele>532.958</ele>
<time>2020-09-10T15:23:16Z</time>
</trkpt>
<trkpt lat="48.15966" lon="10.514254">
<ele>533.112</ele>
<time>2020-09-10T15:23:17Z</time>
</trkpt>
<trkpt lat="48.159645" lon="10.514216">
<ele>533.213</ele>
<time>2020-09-10T15:23:18Z</time>
</trkpt>
<trkpt lat="48.159626" lon="10.514181">
<ele>533.532</ele>
<time>2020-09-10T15:23:19Z</time>
</trkpt>
<trkpt lat="48.159611" lon="10.514143">
<ele>533.787</ele>
<time>2020-09-10T15:23:20Z</time>
</trkpt>
<trkpt lat="48.159592" lon="10.514105">
<ele>533.955</ele>
<time>2020-09-10T15:23:21Z</time>
</trkpt>
<trkpt lat="48.159576" lon="10.514067">
<ele>534.352</ele>
<time>2020-09-10T15:23:22Z</time>
</trkpt>
<trkpt lat="48.159561" lon="10.514029">
<ele>534.676</ele>
<time>2020-09-10T15:23:23Z</time>
</trkpt>
<trkpt lat="48.159546" lon="10.513992">
<ele>534.932</ele>
<time>2020-09-10T15:23:24Z</time>
</trkpt>
<trkpt lat="48.159527" lon="10.513952">
<ele>535.088</ele>
<time>2020-09-10T15:23:25Z</time>
</trkpt>
<trkpt lat="48.159512" lon="10.513911">
<ele>535.469</ele>
<time>2020-09-10T15:23:26Z</time>
</trkpt>
<trkpt lat="48.159492" lon="10.513871">
<ele>535.782</ele>
<time>2020-09-10T15:23:27Z</time>
</trkpt>
<trkpt lat="48.159477" lon="10.51383">
<ele>535.937</ele>
<time>2020-09-10T15:23:28Z</time>
</trkpt>
<trkpt lat="48.159454" lon="10.513789">
<ele>536.32</ele>
<time>2020-09-10T15:23:29Z</time>
</trkpt>
<trkpt lat="48.159439" lon="10.513748">
<ele>536.636</ele>
<time>2020-09-10T15:23:30Z</time>
</trkpt>
<trkpt lat="48.15942" lon="10.513708">
<ele>536.883</ele>
<time>2020-09-10T15:23:31Z</time>
</trkpt>
<trkpt lat="48.159405" lon="10.513668">
<ele>537.066</ele>
<time>2020-09-10T15:23:32Z</time>
</trkpt>
<trkpt lat="48.159386" lon="10.51363">
<ele>537.186</ele>
<time>2020-09-10T15:23:33Z</time>
</trkpt>
<trkpt lat="48.15937" lon="10.513592">
<ele>537.249</ele>
<time>2020-09-10T15:23:34Z</time>
</trkpt>
<trkpt lat="48.159355" lon="10.513556">
<ele>537.53</ele>
<time>2020-09-10T15:23:35Z</time>
</trkpt>
<trkpt lat="48.159344" lon="10.513518">
<ele>537.748</ele>
<time>2020-09-10T15:23:36Z</time>
</trkpt>
<trkpt lat="48.159328" lon="10.513481">
<ele>537.892</ele>
<time>2020-09-10T15:23:37Z</time>
</trkpt>
<trkpt lat="48.159317" lon="10.513443">
<ele>538.247</ele>
<time>2020-09-10T15:23:38Z</time>
</trkpt>
<trkpt lat="48.159302" lon="10.513406">
<ele>538.517</ele>
<time>2020-09-10T15:23:39Z</time>
</trkpt>
<trkpt lat="48.159286" lon="10.513367">
<ele>538.772</ele>
<time>2020-09-10T15:23:40Z</time>
</trkpt>
<trkpt lat="48.159271" lon="10.513329">
<ele>538.971</ele>
<time>2020-09-10T15:23:41Z</time>
</trkpt>
<trkpt lat="48.159256" lon="10.51329">
<ele>539.09</ele>
<time>2020-09-10T15:23:42Z</time>
</trkpt>
<trkpt lat="48.159248" lon="10.513251">
<ele>539.39</ele>
<time>2020-09-10T15:23:43Z</time>
</trkpt>
<trkpt lat="48.159233" lon="10.513211">
<ele>539.62</ele>
<time>2020-09-10T15:23:44Z</time>
</trkpt>
<trkpt lat="48.159222" lon="10.513173">
<ele>539.792</ele>
<time>2020-09-10T15:23:45Z</time>
</trkpt>
<trkpt lat="48.159206" lon="10.513131">
<ele>539.915</ele>
<time>2020-09-10T15:23:46Z</time>
</trkpt>
<trkpt lat="48.159191" lon="10.513093">
<ele>540.237</ele>
<time>2020-09-10T15:23:47Z</time>
</trkpt>
<trkpt lat="48.159176" lon="10.513056">
<ele>540.453</ele>
<time>2020-09-10T15:23:48Z</time>
</trkpt>
<trkpt lat="48.159161" lon="10.513015">
<ele>540.657</ele>
<time>2020-09-10T15:23:49Z</time>
</trkpt>
<trkpt lat="48.159149" lon="10.512975">
<ele>540.801</ele>
<time>2020-09-10T15:23:50Z</time>
</trkpt>
<trkpt lat="48.159134" lon="10.512935">
<ele>540.891</ele>
<time>2020-09-10T15:23:51Z</time>
</trkpt>
<trkpt lat="48.159122" lon="10.512895">
<ele>541.189</ele>
<time>2020-09-10T15:23:52Z</time>
</trkpt>
<trkpt lat="48.159107" lon="10.512855">
<ele>541.428</ele>
<time>2020-09-10T15:23:53Z</time>
</trkpt>
<trkpt lat="48.159096" lon="10.512815">
<ele>541.607</ele>
<time>2020-09-10T15:23:54Z</time>
</trkpt>
<trkpt lat="48.159088" lon="10.512772">
<ele>541.786</ele>
<time>2020-09-10T15:23:55Z</time>
</trkpt>
<trkpt lat="48.159073" lon="10.512729">
<ele>541.877</ele>
<time>2020-09-10T15:23:56Z</time>
</trkpt>
<trkpt lat="48.159058" lon="10.512685">
<ele>541.933</ele>
<time>2020-09-10T15:23:57Z</time>
</trkpt>
<trkpt lat="48.159046" lon="10.512641">
<ele>541.965</ele>
<time>2020-09-10T15:23:58Z</time>
</trkpt>
<trkpt lat="48.159027" lon="10.512597">
<ele>542.26</ele>
<time>2020-09-10T15:23:59Z</time>
</trkpt>
<trkpt lat="48.159016" lon="10.512553">
<ele>542.513</ele>
<time>2020-09-10T15:24:00Z</time>
</trkpt>
<trkpt lat="48.159" lon="10.512508">
<ele>542.696</ele>
<time>2020-09-10T15:24:01Z</time>
</trkpt>
<trkpt lat="48.158989" lon="10.512462">
<ele>542.841</ele>
<time>2020-09-10T15:24:02Z</time>
</trkpt>
<trkpt lat="48.158974" lon="10.512417">
<ele>542.948</ele>
<time>2020-09-10T15:24:03Z</time>
</trkpt>
<trkpt lat="48.158958" lon="10.512373">
<ele>543.027</ele>
<time>2020-09-10T15:24:04Z</time>
</trkpt>
<trkpt lat="48.158947" lon="10.512328">
<ele>543.078</ele>
<time>2020-09-10T15:24:05Z</time>
</trkpt>
<trkpt lat="48.158939" lon="10.512283">
<ele>543.102</ele>
<time>2020-09-10T15:24:06Z</time>
</trkpt>
<trkpt lat="48.158928" lon="10.51224">
<ele>543.36</ele>
<time>2020-09-10T15:24:07Z</time>
</trkpt>
<trkpt lat="48.158913" lon="10.512197">
<ele>543.568</ele>
<time>2020-09-10T15:24:08Z</time>
</trkpt>
<trkpt lat="48.158901" lon="10.512152">
<ele>543.71</ele>
<time>2020-09-10T15:24:09Z</time>
</trkpt>
<trkpt lat="48.15889" lon="10.512109">
<ele>543.864</ele>
<time>2020-09-10T15:24:10Z</time>
</trkpt>
<trkpt lat="48.158875" lon="10.512065">
<ele>543.985</ele>
<time>2020-09-10T15:24:11Z</time>
</trkpt>
<trkpt lat="48.158863" lon="10.512021">
<ele>544.071</ele>
<time>2020-09-10T15:24:12Z</time>
</trkpt>
<trkpt lat="48.158848" lon="10.511975">
<ele>544.122</ele>
<time>2020-09-10T15:24:13Z</time>
</trkpt>
<trkpt lat="48.158836" lon="10.51193">
<ele>544.367</ele>
<time>2020-09-10T15:24:14Z</time>
</trkpt>
<trkpt lat="48.158829" lon="10.511887">
<ele>544.579</ele>
<time>2020-09-10T15:24:15Z</time>
</trkpt>
<trkpt lat="48.158817" lon="10.511841">
<ele>544.721</ele>
<time>2020-09-10T15:24:16Z</time>
</trkpt>
<trkpt lat="48.158802" lon="10.511795">
<ele>544.822</ele>
<time>2020-09-10T15:24:17Z</time>
</trkpt>
<trkpt lat="48.158794" lon="10.511751">
<ele>544.9</ele>
<time>2020-09-10T15:24:18Z</time>
</trkpt>
<trkpt lat="48.158783" lon="10.51171">
<ele>544.955</ele>
<time>2020-09-10T15:24:19Z</time>
</trkpt>
<trkpt lat="48.158768" lon="10.511675">
<ele>545.004</ele>
<time>2020-09-10T15:24:20Z</time>
</trkpt>
<trkpt lat="48.15876" lon="10.511645">
<ele>545.028</ele>
<time>2020-09-10T15:24:21Z</time>
</trkpt>
<trkpt lat="48.158745" lon="10.511612">
<ele>545.028</ele>
<time>2020-09-10T15:24:22Z</time>
</trkpt>
<trkpt lat="48.158741" lon="10.511583">
<ele>545.028</ele>
<time>2020-09-10T15:24:23Z</time>
</trkpt>
<trkpt lat="48.158733" lon="10.511552">
<ele>545.028</ele>
<time>2020-09-10T15:24:24Z</time>
</trkpt>
<trkpt lat="48.15873" lon="10.511515">
<ele>545.028</ele>
<time>2020-09-10T15:24:25Z</time>
</trkpt>
<trkpt lat="48.158714" lon="10.511483">
<ele>545.028</ele>
<time>2020-09-10T15:24:26Z</time>
</trkpt>
<trkpt lat="48.158703" lon="10.511447">
<ele>545.028</ele>
<time>2020-09-10T15:24:27Z</time>
</trkpt>
<trkpt lat="48.158695" lon="10.511407">
<ele>545.028</ele>
<time>2020-09-10T15:24:28Z</time>
</trkpt>
<trkpt lat="48.158688" lon="10.511363">
<ele>545.028</ele>
<time>2020-09-10T15:24:29Z</time>
</trkpt>
<trkpt lat="48.158676" lon="10.511327">
<ele>545.028</ele>
<time>2020-09-10T15:24:30Z</time>
</trkpt>
<trkpt lat="48.158669" lon="10.511288">
<ele>545.028</ele>
<time>2020-09-10T15:24:31Z</time>
</trkpt>
<trkpt lat="48.158657" lon="10.51125">
<ele>545.028</ele>
<time>2020-09-10T15:24:32Z</time>
</trkpt>
<trkpt lat="48.158649" lon="10.51121">
<ele>545.028</ele>
<time>2020-09-10T15:24:33Z</time>
</trkpt>
<trkpt lat="48.158638" lon="10.511168">
<ele>545.028</ele>
<time>2020-09-10T15:24:34Z</time>
</trkpt>
<trkpt lat="48.15863" lon="10.511127">
<ele>545.028</ele>
<time>2020-09-10T15:24:35Z</time>
</trkpt>
<trkpt lat="48.158615" lon="10.511084">
<ele>545.028</ele>
<time>2020-09-10T15:24:36Z</time>
</trkpt>
<trkpt lat="48.158604" lon="10.51104">
<ele>545.028</ele>
<time>2020-09-10T15:24:37Z</time>
</trkpt>
<trkpt lat="48.158596" lon="10.510995">
<ele>545.028</ele>
<time>2020-09-10T15:24:38Z</time>
</trkpt>
<trkpt lat="48.158581" lon="10.510946">
<ele>545.028</ele>
<time>2020-09-10T15:24:39Z</time>
</trkpt>
<trkpt lat="48.158566" lon="10.510899">
<ele>545.028</ele>
<time>2020-09-10T15:24:40Z</time>
</trkpt>
<trkpt lat="48.15855" lon="10.510854">
<ele>545.028</ele>
<time>2020-09-10T15:24:41Z</time>
</trkpt>
<trkpt lat="48.158531" lon="10.510808">
<ele>545.028</ele>
<time>2020-09-10T15:24:42Z</time>
</trkpt>
<trkpt lat="48.158512" lon="10.510763">
<ele>545.028</ele>
<time>2020-09-10T15:24:43Z</time>
</trkpt>
<trkpt lat="48.158501" lon="10.510715">
<ele>545.028</ele>
<time>2020-09-10T15:24:44Z</time>
</trkpt>
<trkpt lat="48.158482" lon="10.510668">
<ele>545.028</ele>
<time>2020-09-10T15:24:45Z</time>
</trkpt>
<trkpt lat="48.158466" lon="10.510623">
<ele>545.028</ele>
<time>2020-09-10T15:24:46Z</time>
</trkpt>
<trkpt lat="48.158447" lon="10.51058">
<ele>545.028</ele>
<time>2020-09-10T15:24:47Z</time>
</trkpt>
<trkpt lat="48.158428" lon="10.510535">
<ele>545.028</ele>
<time>2020-09-10T15:24:48Z</time>
</trkpt>
<trkpt lat="48.158405" lon="10.510489">
<ele>545.028</ele>
<time>2020-09-10T15:24:49Z</time>
</trkpt>
<trkpt lat="48.158386" lon="10.510448">
<ele>545.028</ele>
<time>2020-09-10T15:24:50Z</time>
</trkpt>
<trkpt lat="48.158367" lon="10.510397">
<ele>545.028</ele>
<time>2020-09-10T15:24:51Z</time>
</trkpt>
<trkpt lat="48.158344" lon="10.510348">
<ele>545.028</ele>
<time>2020-09-10T15:24:52Z</time>
</trkpt>
<trkpt lat="48.158325" lon="10.510301">
<ele>545.028</ele>
<time>2020-09-10T15:24:53Z</time>
</trkpt>
<trkpt lat="48.158306" lon="10.510252">
<ele>545.028</ele>
<time>2020-09-10T15:24:54Z</time>
</trkpt>
<trkpt lat="48.158279" lon="10.510201">
<ele>545.028</ele>
<time>2020-09-10T15:24:55Z</time>
</trkpt>
<trkpt lat="48.158253" lon="10.510152">
<ele>545.028</ele>
<time>2020-09-10T15:24:56Z</time>
</trkpt>
<trkpt lat="48.158226" lon="10.510105">
<ele>545.028</ele>
<time>2020-09-10T15:24:57Z</time>
</trkpt>
<trkpt lat="48.158195" lon="10.510058">
<ele>545.028</ele>
<time>2020-09-10T15:24:58Z</time>
</trkpt>
<trkpt lat="48.158165" lon="10.51001">
<ele>545.028</ele>
<time>2020-09-10T15:24:59Z</time>
</trkpt>
<trkpt lat="48.158134" lon="10.509958">
<ele>544.807</ele>
<time>2020-09-10T15:25:00Z</time>
</trkpt>
<trkpt lat="48.158108" lon="10.509912">
<ele>544.626</ele>
<time>2020-09-10T15:25:01Z</time>
</trkpt>
<trkpt lat="48.158073" lon="10.509867">
<ele>544.48</ele>
<time>2020-09-10T15:25:02Z</time>
</trkpt>
<trkpt lat="48.158043" lon="10.509821">
<ele>544.367</ele>
<time>2020-09-10T15:25:03Z</time>
</trkpt>
<trkpt lat="48.158012" lon="10.509779">
<ele>544.277</ele>
<time>2020-09-10T15:25:04Z</time>
</trkpt>
<trkpt lat="48.157974" lon="10.509735">
<ele>544.224</ele>
<time>2020-09-10T15:25:05Z</time>
</trkpt>
<trkpt lat="48.15794" lon="10.509688">
<ele>543.939</ele>
<time>2020-09-10T15:25:06Z</time>
</trkpt>
<trkpt lat="48.157898" lon="10.509641">
<ele>543.717</ele>
<time>2020-09-10T15:25:07Z</time>
</trkpt>
<trkpt lat="48.157856" lon="10.50959">
<ele>543.551</ele>
<time>2020-09-10T15:25:08Z</time>
</trkpt>
<trkpt lat="48.157814" lon="10.509537">
<ele>543.447</ele>
<time>2020-09-10T15:25:09Z</time>
</trkpt>
<trkpt lat="48.157764" lon="10.50948">
<ele>543.062</ele>
<time>2020-09-10T15:25:10Z</time>
</trkpt>
<trkpt lat="48.157715" lon="10.509423">
<ele>542.758</ele>
<time>2020-09-10T15:25:11Z</time>
</trkpt>
<trkpt lat="48.157658" lon="10.50937">
<ele>542.534</ele>
<time>2020-09-10T15:25:12Z</time>
</trkpt>
<trkpt lat="48.157597" lon="10.509315">
<ele>542.409</ele>
<time>2020-09-10T15:25:13Z</time>
</trkpt>
<trkpt lat="48.157532" lon="10.509262">
<ele>542.038</ele>
<time>2020-09-10T15:25:14Z</time>
</trkpt>
<trkpt lat="48.157463" lon="10.509209">
<ele>541.755</ele>
<time>2020-09-10T15:25:15Z</time>
</trkpt>
<trkpt lat="48.157394" lon="10.509157">
<ele>541.582</ele>
<time>2020-09-10T15:25:16Z</time>
</trkpt>
<trkpt lat="48.157322" lon="10.509103">
<ele>541.168</ele>
<time>2020-09-10T15:25:17Z</time>
</trkpt>
<trkpt lat="48.157242" lon="10.50905">
<ele>540.907</ele>
<time>2020-09-10T15:25:18Z</time>
</trkpt>
<trkpt lat="48.157162" lon="10.509004">
<ele>540.427</ele>
<time>2020-09-10T15:25:19Z</time>
</trkpt>
<trkpt lat="48.157074" lon="10.508964">
<ele>540.038</ele>
<time>2020-09-10T15:25:20Z</time>
</trkpt>
<trkpt lat="48.156986" lon="10.508926">
<ele>539.512</ele>
<time>2020-09-10T15:25:21Z</time>
</trkpt>
<trkpt lat="48.156898" lon="10.508891">
<ele>538.828</ele>
<time>2020-09-10T15:25:22Z</time>
</trkpt>
<trkpt lat="48.156807" lon="10.50886">
<ele>538.368</ele>
<time>2020-09-10T15:25:23Z</time>
</trkpt>
<trkpt lat="48.156712" lon="10.508828">
<ele>537.723</ele>
<time>2020-09-10T15:25:24Z</time>
</trkpt>
<trkpt lat="48.156612" lon="10.508797">
<ele>537.307</ele>
<time>2020-09-10T15:25:25Z</time>
</trkpt>
<trkpt lat="48.156513" lon="10.508767">
<ele>536.674</ele>
<time>2020-09-10T15:25:26Z</time>
</trkpt>
<trkpt lat="48.156414" lon="10.508737">
<ele>536.189</ele>
<time>2020-09-10T15:25:27Z</time>
</trkpt>
<trkpt lat="48.156311" lon="10.508702">
<ele>535.654</ele>
<time>2020-09-10T15:25:28Z</time>
</trkpt>
<trkpt lat="48.156212" lon="10.508662">
<ele>535.261</ele>
<time>2020-09-10T15:25:29Z</time>
</trkpt>
<trkpt lat="48.156105" lon="10.50861">
<ele>534.72</ele>
<time>2020-09-10T15:25:30Z</time>
</trkpt>
<trkpt lat="48.156006" lon="10.508552">
<ele>534.071</ele>
<time>2020-09-10T15:25:31Z</time>
</trkpt>
<trkpt lat="48.155899" lon="10.508482">
<ele>533.325</ele>
<time>2020-09-10T15:25:32Z</time>
</trkpt>
<trkpt lat="48.155796" lon="10.508405">
<ele>532.5</ele>
<time>2020-09-10T15:25:33Z</time>
</trkpt>
<trkpt lat="48.155697" lon="10.50832">
<ele>531.561</ele>
<time>2020-09-10T15:25:34Z</time>
</trkpt>
<trkpt lat="48.155598" lon="10.508224">
<ele>530.923</ele>
<time>2020-09-10T15:25:35Z</time>
</trkpt>
<trkpt lat="48.155499" lon="10.508121">
<ele>530.144</ele>
<time>2020-09-10T15:25:36Z</time>
</trkpt>
<trkpt lat="48.155396" lon="10.508019">
<ele>529.263</ele>
<time>2020-09-10T15:25:37Z</time>
</trkpt>
<trkpt lat="48.155296" lon="10.50792">
<ele>528.692</ele>
<time>2020-09-10T15:25:38Z</time>
</trkpt>
<trkpt lat="48.155197" lon="10.507818">
<ele>528.032</ele>
<time>2020-09-10T15:25:39Z</time>
</trkpt>
<trkpt lat="48.155102" lon="10.507709">
<ele>527.278</ele>
<time>2020-09-10T15:25:40Z</time>
</trkpt>
<trkpt lat="48.155014" lon="10.50759">
<ele>526.777</ele>
<time>2020-09-10T15:25:41Z</time>
</trkpt>
<trkpt lat="48.154926" lon="10.50747">
<ele>526.087</ele>
<time>2020-09-10T15:25:42Z</time>
</trkpt>
<trkpt lat="48.154842" lon="10.50735">
<ele>525.561</ele>
<time>2020-09-10T15:25:43Z</time>
</trkpt>
<trkpt lat="48.154755" lon="10.507238">
<ele>525.187</ele>
<time>2020-09-10T15:25:44Z</time>
</trkpt>
<trkpt lat="48.154667" lon="10.507135">
<ele>524.926</ele>
<time>2020-09-10T15:25:45Z</time>
</trkpt>
<trkpt lat="48.154583" lon="10.507032">
<ele>524.746</ele>
<time>2020-09-10T15:25:46Z</time>
</trkpt>
<trkpt lat="48.154495" lon="10.506932">
<ele>524.643</ele>
<time>2020-09-10T15:25:47Z</time>
</trkpt>
<trkpt lat="48.154419" lon="10.506837">
<ele>524.591</ele>
<time>2020-09-10T15:25:48Z</time>
</trkpt>
<trkpt lat="48.154339" lon="10.506745">
<ele>524.565</ele>
<time>2020-09-10T15:25:49Z</time>
</trkpt>
<trkpt lat="48.154259" lon="10.506663">
<ele>524.565</ele>
<time>2020-09-10T15:25:50Z</time>
</trkpt>
<trkpt lat="48.154179" lon="10.506588">
<ele>524.565</ele>
<time>2020-09-10T15:25:51Z</time>
</trkpt>
<trkpt lat="48.154102" lon="10.506518">
<ele>524.565</ele>
<time>2020-09-10T15:25:52Z</time>
</trkpt>
<trkpt lat="48.15403" lon="10.506452">
<ele>524.565</ele>
<time>2020-09-10T15:25:53Z</time>
</trkpt>
<trkpt lat="48.153957" lon="10.50639">
<ele>524.565</ele>
<time>2020-09-10T15:25:54Z</time>
</trkpt>
<trkpt lat="48.153885" lon="10.50633">
<ele>524.565</ele>
<time>2020-09-10T15:25:55Z</time>
</trkpt>
<trkpt lat="48.153809" lon="10.506271">
<ele>524.824</ele>
<time>2020-09-10T15:25:56Z</time>
</trkpt>
<trkpt lat="48.15374" lon="10.506217">
<ele>525.031</ele>
<time>2020-09-10T15:25:57Z</time>
</trkpt>
<trkpt lat="48.153664" lon="10.506162">
<ele>525.196</ele>
<time>2020-09-10T15:25:58Z</time>
</trkpt>
<trkpt lat="48.153587" lon="10.506108">
<ele>525.313</ele>
<time>2020-09-10T15:25:59Z</time>
</trkpt>
<trkpt lat="48.153515" lon="10.506055">
<ele>525.434</ele>
<time>2020-09-10T15:26:00Z</time>
</trkpt>
<trkpt lat="48.153439" lon="10.505995">
<ele>525.76</ele>
<time>2020-09-10T15:26:01Z</time>
</trkpt>
<trkpt lat="48.153362" lon="10.505937">
<ele>526.018</ele>
<time>2020-09-10T15:26:02Z</time>
</trkpt>
<trkpt lat="48.153286" lon="10.505877">
<ele>526.207</ele>
<time>2020-09-10T15:26:03Z</time>
</trkpt>
<trkpt lat="48.153214" lon="10.505821">
<ele>526.414</ele>
<time>2020-09-10T15:26:04Z</time>
</trkpt>
<trkpt lat="48.153133" lon="10.505767">
<ele>526.489</ele>
<time>2020-09-10T15:26:05Z</time>
</trkpt>
<trkpt lat="48.153061" lon="10.505711">
<ele>526.818</ele>
<time>2020-09-10T15:26:06Z</time>
</trkpt>
<trkpt lat="48.152988" lon="10.505656">
<ele>527.056</ele>
<time>2020-09-10T15:26:07Z</time>
</trkpt>
<trkpt lat="48.152916" lon="10.505606">
<ele>527.219</ele>
<time>2020-09-10T15:26:08Z</time>
</trkpt>
<trkpt lat="48.152847" lon="10.505555">
<ele>527.33</ele>
<time>2020-09-10T15:26:09Z</time>
</trkpt>
<trkpt lat="48.152782" lon="10.505504">
<ele>527.446</ele>
<time>2020-09-10T15:26:10Z</time>
</trkpt>
<trkpt lat="48.152714" lon="10.50545">
<ele>527.825</ele>
<time>2020-09-10T15:26:11Z</time>
</trkpt>
<trkpt lat="48.152649" lon="10.505401">
<ele>528.128</ele>
<time>2020-09-10T15:26:12Z</time>
</trkpt>
<trkpt lat="48.152584" lon="10.505348">
<ele>528.362</ele>
<time>2020-09-10T15:26:13Z</time>
</trkpt>
<trkpt lat="48.152523" lon="10.505298">
<ele>528.629</ele>
<time>2020-09-10T15:26:14Z</time>
</trkpt>
<trkpt lat="48.152466" lon="10.505252">
<ele>528.745</ele>
<time>2020-09-10T15:26:15Z</time>
</trkpt>
<trkpt lat="48.152409" lon="10.505207">
<ele>528.805</ele>
<time>2020-09-10T15:26:16Z</time>
</trkpt>
<trkpt lat="48.152351" lon="10.505166">
<ele>529.052</ele>
<time>2020-09-10T15:26:17Z</time>
</trkpt>
<trkpt lat="48.152302" lon="10.505125">
<ele>529.224</ele>
<time>2020-09-10T15:26:18Z</time>
</trkpt>
<trkpt lat="48.152248" lon="10.505084">
<ele>529.344</ele>
<time>2020-09-10T15:26:19Z</time>
</trkpt>
<trkpt lat="48.152199" lon="10.50504">
<ele>529.472</ele>
<time>2020-09-10T15:26:20Z</time>
</trkpt>
<trkpt lat="48.152153" lon="10.504998">
<ele>529.564</ele>
<time>2020-09-10T15:26:21Z</time>
</trkpt>
<trkpt lat="48.152111" lon="10.504962">
<ele>529.864</ele>
<time>2020-09-10T15:26:22Z</time>
</trkpt>
<trkpt lat="48.152065" lon="10.504927">
<ele>530.109</ele>
<time>2020-09-10T15:26:23Z</time>
</trkpt>
<trkpt lat="48.152023" lon="10.504887">
<ele>530.296</ele>
<time>2020-09-10T15:26:24Z</time>
</trkpt>
<trkpt lat="48.151981" lon="10.504844">
<ele>530.49</ele>
<time>2020-09-10T15:26:25Z</time>
</trkpt>
<trkpt lat="48.151939" lon="10.504799">
<ele>530.563</ele>
<time>2020-09-10T15:26:26Z</time>
</trkpt>
<trkpt lat="48.151901" lon="10.504755">
<ele>530.859</ele>
<time>2020-09-10T15:26:27Z</time>
</trkpt>
<trkpt lat="48.151855" lon="10.504713">
<ele>531.077</ele>
<time>2020-09-10T15:26:28Z</time>
</trkpt>
<trkpt lat="48.151814" lon="10.504678">
<ele>531.241</ele>
<time>2020-09-10T15:26:29Z</time>
</trkpt>
<trkpt lat="48.151768" lon="10.50464">
<ele>531.383</ele>
<time>2020-09-10T15:26:30Z</time>
</trkpt>
<trkpt lat="48.151722" lon="10.504597">
<ele>531.492</ele>
<time>2020-09-10T15:26:31Z</time>
</trkpt>
<trkpt lat="48.151688" lon="10.50455">
<ele>531.569</ele>
<time>2020-09-10T15:26:32Z</time>
</trkpt>
<trkpt lat="48.151646" lon="10.504501">
<ele>531.616</ele>
<time>2020-09-10T15:26:33Z</time>
</trkpt>
<trkpt lat="48.151608" lon="10.504447">
<ele>531.901</ele>
<time>2020-09-10T15:26:34Z</time>
</trkpt>
<trkpt lat="48.151577" lon="10.504391">
<ele>532.156</ele>
<time>2020-09-10T15:26:35Z</time>
</trkpt>
<trkpt lat="48.151543" lon="10.504328">
<ele>532.325</ele>
<time>2020-09-10T15:26:36Z</time>
</trkpt>
<trkpt lat="48.151508" lon="10.504265">
<ele>532.452</ele>
<time>2020-09-10T15:26:37Z</time>
</trkpt>
<trkpt lat="48.151478" lon="10.504196">
<ele>532.539</ele>
<time>2020-09-10T15:26:38Z</time>
</trkpt>
<trkpt lat="48.151455" lon="10.504122">
<ele>532.606</ele>
<time>2020-09-10T15:26:39Z</time>
</trkpt>
<trkpt lat="48.151432" lon="10.504042">
<ele>532.656</ele>
<time>2020-09-10T15:26:40Z</time>
</trkpt>
<trkpt lat="48.151424" lon="10.503959">
<ele>532.37</ele>
<time>2020-09-10T15:26:41Z</time>
</trkpt>
<trkpt lat="48.151421" lon="10.503871">
<ele>532.125</ele>
<time>2020-09-10T15:26:42Z</time>
</trkpt>
<trkpt lat="48.151417" lon="10.50378">
<ele>531.973</ele>
<time>2020-09-10T15:26:43Z</time>
</trkpt>
<trkpt lat="48.151413" lon="10.503692">
<ele>531.568</ele>
<time>2020-09-10T15:26:44Z</time>
</trkpt>
<trkpt lat="48.151402" lon="10.503603">
<ele>531.263</ele>
<time>2020-09-10T15:26:45Z</time>
</trkpt>
<trkpt lat="48.151386" lon="10.503519">
<ele>531.048</ele>
<time>2020-09-10T15:26:46Z</time>
</trkpt>
<trkpt lat="48.151363" lon="10.503435">
<ele>530.906</ele>
<time>2020-09-10T15:26:47Z</time>
</trkpt>
<trkpt lat="48.151337" lon="10.503357">
<ele>530.819</ele>
<time>2020-09-10T15:26:48Z</time>
</trkpt>
<trkpt lat="48.15131" lon="10.503284">
<ele>530.76</ele>
<time>2020-09-10T15:26:49Z</time>
</trkpt>
<trkpt lat="48.151279" lon="10.503223">
<ele>530.709</ele>
<time>2020-09-10T15:26:50Z</time>
</trkpt>
<trkpt lat="48.151253" lon="10.50318">
<ele>530.48</ele>
<time>2020-09-10T15:26:51Z</time>
</trkpt>
<trkpt lat="48.151222" lon="10.503153">
<ele>530.238</ele>
<time>2020-09-10T15:26:52Z</time>
</trkpt>
<trkpt lat="48.151192" lon="10.503141">
<ele>530.092</ele>
<time>2020-09-10T15:26:53Z</time>
</trkpt>
<trkpt lat="48.151165" lon="10.503137">
<ele>529.98</ele>
<time>2020-09-10T15:26:54Z</time>
</trkpt>
<trkpt lat="48.151138" lon="10.503139">
<ele>529.906</ele>
<time>2020-09-10T15:26:55Z</time>
</trkpt>
<trkpt lat="48.151112" lon="10.503159">
<ele>529.632</ele>
<time>2020-09-10T15:26:56Z</time>
</trkpt>
<trkpt lat="48.151089" lon="10.503192">
<ele>529.419</ele>
<time>2020-09-10T15:26:57Z</time>
</trkpt>
<trkpt lat="48.151062" lon="10.503237">
<ele>529.254</ele>
<time>2020-09-10T15:26:58Z</time>
</trkpt>
<trkpt lat="48.151035" lon="10.503284">
<ele>529.132</ele>
<time>2020-09-10T15:26:59Z</time>
</trkpt>
<trkpt lat="48.151005" lon="10.503326">
<ele>529.005</ele>
<time>2020-09-10T15:27:00Z</time>
</trkpt>
<trkpt lat="48.15097" lon="10.503372">
<ele>528.919</ele>
<time>2020-09-10T15:27:01Z</time>
</trkpt>
<trkpt lat="48.15094" lon="10.503422">
<ele>528.867</ele>
<time>2020-09-10T15:27:02Z</time>
</trkpt>
<trkpt lat="48.150898" lon="10.50347">
<ele>528.847</ele>
<time>2020-09-10T15:27:03Z</time>
</trkpt>
<trkpt lat="48.150864" lon="10.503517">
<ele>528.847</ele>
<time>2020-09-10T15:27:04Z</time>
</trkpt>
<trkpt lat="48.150822" lon="10.50356">
<ele>528.847</ele>
<time>2020-09-10T15:27:05Z</time>
</trkpt>
<trkpt lat="48.150787" lon="10.503607">
<ele>528.847</ele>
<time>2020-09-10T15:27:06Z</time>
</trkpt>
<trkpt lat="48.150749" lon="10.503652">
<ele>528.847</ele>
<time>2020-09-10T15:27:07Z</time>
</trkpt>
<trkpt lat="48.150711" lon="10.503689">
<ele>528.847</ele>
<time>2020-09-10T15:27:08Z</time>
</trkpt>
<trkpt lat="48.150673" lon="10.503727">
<ele>528.847</ele>
<time>2020-09-10T15:27:09Z</time>
</trkpt>
<trkpt lat="48.150631" lon="10.503764">
<ele>528.847</ele>
<time>2020-09-10T15:27:10Z</time>
</trkpt>
<trkpt lat="48.150585" lon="10.503796">
<ele>528.847</ele>
<time>2020-09-10T15:27:11Z</time>
</trkpt>
<trkpt lat="48.150547" lon="10.503823">
<ele>529.177</ele>
<time>2020-09-10T15:27:12Z</time>
</trkpt>
<trkpt lat="48.150501" lon="10.503852">
<ele>529.429</ele>
<time>2020-09-10T15:27:13Z</time>
</trkpt>
<trkpt lat="48.150455" lon="10.503881">
<ele>529.627</ele>
<time>2020-09-10T15:27:14Z</time>
</trkpt>
<trkpt lat="48.150414" lon="10.503915">
<ele>529.764</ele>
<time>2020-09-10T15:27:15Z</time>
</trkpt>
<trkpt lat="48.150364" lon="10.503952">
<ele>529.863</ele>
<time>2020-09-10T15:27:16Z</time>
</trkpt>
<trkpt lat="48.150318" lon="10.503988">
<ele>529.913</ele>
<time>2020-09-10T15:27:17Z</time>
</trkpt>
<trkpt lat="48.150276" lon="10.504025">
<ele>530.212</ele>
<time>2020-09-10T15:27:18Z</time>
</trkpt>
<trkpt lat="48.15023" lon="10.504066">
<ele>530.427</ele>
<time>2020-09-10T15:27:19Z</time>
</trkpt>
<trkpt lat="48.150192" lon="10.504106">
<ele>530.615</ele>
<time>2020-09-10T15:27:20Z</time>
</trkpt>
<trkpt lat="48.15015" lon="10.504149">
<ele>530.761</ele>
<time>2020-09-10T15:27:21Z</time>
</trkpt>
<trkpt lat="48.150108" lon="10.504198">
<ele>530.874</ele>
<time>2020-09-10T15:27:22Z</time>
</trkpt>
<trkpt lat="48.150066" lon="10.504247">
<ele>530.953</ele>
<time>2020-09-10T15:27:23Z</time>
</trkpt>
<trkpt lat="48.150024" lon="10.504298">
<ele>531.004</ele>
<time>2020-09-10T15:27:24Z</time>
</trkpt>
<trkpt lat="48.149975" lon="10.504347">
<ele>531.032</ele>
<time>2020-09-10T15:27:25Z</time>
</trkpt>
<trkpt lat="48.149925" lon="10.504395">
<ele>531.032</ele>
<time>2020-09-10T15:27:26Z</time>
</trkpt>
<trkpt lat="48.149872" lon="10.504438">
<ele>530.759</ele>
<time>2020-09-10T15:27:27Z</time>
</trkpt>
<trkpt lat="48.149815" lon="10.504478">
<ele>530.546</ele>
<time>2020-09-10T15:27:28Z</time>
</trkpt>
<trkpt lat="48.149757" lon="10.50451">
<ele>530.406</ele>
<time>2020-09-10T15:27:29Z</time>
</trkpt>
<trkpt lat="48.149689" lon="10.504531">
<ele>530.261</ele>
<time>2020-09-10T15:27:30Z</time>
</trkpt>
<trkpt lat="48.14962" lon="10.504548">
<ele>529.853</ele>
<time>2020-09-10T15:27:31Z</time>
</trkpt>
<trkpt lat="48.149551" lon="10.504562">
<ele>529.535</ele>
<time>2020-09-10T15:27:32Z</time>
</trkpt>
<trkpt lat="48.149479" lon="10.504571">
<ele>529.29</ele>
<time>2020-09-10T15:27:33Z</time>
</trkpt>
<trkpt lat="48.149406" lon="10.504579">
<ele>529.15</ele>
<time>2020-09-10T15:27:34Z</time>
</trkpt>
<trkpt lat="48.149334" lon="10.504579">
<ele>528.682</ele>
<time>2020-09-10T15:27:35Z</time>
</trkpt>
<trkpt lat="48.149258" lon="10.504579">
<ele>528.416</ele>
<time>2020-09-10T15:27:36Z</time>
</trkpt>
<trkpt lat="48.149181" lon="10.504581">
<ele>528.235</ele>
<time>2020-09-10T15:27:37Z</time>
</trkpt>
<trkpt lat="48.149113" lon="10.504588">
<ele>528.119</ele>
<time>2020-09-10T15:27:38Z</time>
</trkpt>
<trkpt lat="48.149036" lon="10.504592">
<ele>528.042</ele>
<time>2020-09-10T15:27:39Z</time>
</trkpt>
<trkpt lat="48.148964" lon="10.504594">
<ele>527.706</ele>
<time>2020-09-10T15:27:40Z</time>
</trkpt>
<trkpt lat="48.148888" lon="10.504594">
<ele>527.441</ele>
<time>2020-09-10T15:27:41Z</time>
</trkpt>
<trkpt lat="48.148811" lon="10.504588">
<ele>527.24</ele>
<time>2020-09-10T15:27:42Z</time>
</trkpt>
<trkpt lat="48.148731" lon="10.504583">
<ele>527.1</ele>
<time>2020-09-10T15:27:43Z</time>
</trkpt>
<trkpt lat="48.148655" lon="10.504583">
<ele>527.012</ele>
<time>2020-09-10T15:27:44Z</time>
</trkpt>
<trkpt lat="48.148575" lon="10.504587">
<ele>526.682</ele>
<time>2020-09-10T15:27:45Z</time>
</trkpt>
<trkpt lat="48.148495" lon="10.50459">
<ele>526.426</ele>
<time>2020-09-10T15:27:46Z</time>
</trkpt>
<trkpt lat="48.148407" lon="10.504596">
<ele>526.27</ele>
<time>2020-09-10T15:27:47Z</time>
</trkpt>
<trkpt lat="48.148323" lon="10.504597">
<ele>525.888</ele>
<time>2020-09-10T15:27:48Z</time>
</trkpt>
<trkpt lat="48.148235" lon="10.504599">
<ele>525.624</ele>
<time>2020-09-10T15:27:49Z</time>
</trkpt>
<trkpt lat="48.148151" lon="10.504603">
<ele>525.386</ele>
<time>2020-09-10T15:27:50Z</time>
</trkpt>
<trkpt lat="48.14806" lon="10.50461">
<ele>524.953</ele>
<time>2020-09-10T15:27:51Z</time>
</trkpt>
<trkpt lat="48.147972" lon="10.504623">
<ele>524.663</ele>
<time>2020-09-10T15:27:52Z</time>
</trkpt>
<trkpt lat="48.147884" lon="10.504643">
<ele>524.152</ele>
<time>2020-09-10T15:27:53Z</time>
</trkpt>
<trkpt lat="48.147793" lon="10.504662">
<ele>523.748</ele>
<time>2020-09-10T15:27:54Z</time>
</trkpt>
<trkpt lat="48.147705" lon="10.504686">
<ele>523.493</ele>
<time>2020-09-10T15:27:55Z</time>
</trkpt>
<trkpt lat="48.14761" lon="10.504713">
<ele>522.923</ele>
<time>2020-09-10T15:27:56Z</time>
</trkpt>
<trkpt lat="48.147518" lon="10.504742">
<ele>522.604</ele>
<time>2020-09-10T15:27:57Z</time>
</trkpt>
<trkpt lat="48.147423" lon="10.504766">
<ele>522.428</ele>
<time>2020-09-10T15:27:58Z</time>
</trkpt>
<trkpt lat="48.147327" lon="10.504785">
<ele>522.041</ele>
<time>2020-09-10T15:27:59Z</time>
</trkpt>
<trkpt lat="48.147232" lon="10.504804">
<ele>521.713</ele>
<time>2020-09-10T15:28:00Z</time>
</trkpt>
<trkpt lat="48.147141" lon="10.504822">
<ele>521.508</ele>
<time>2020-09-10T15:28:01Z</time>
</trkpt>
<trkpt lat="48.147041" lon="10.504837">
<ele>521.074</ele>
<time>2020-09-10T15:28:02Z</time>
</trkpt>
<trkpt lat="48.14695" lon="10.504847">
<ele>520.737</ele>
<time>2020-09-10T15:28:03Z</time>
</trkpt>
<trkpt lat="48.146854" lon="10.504851">
<ele>520.533</ele>
<time>2020-09-10T15:28:04Z</time>
</trkpt>
<trkpt lat="48.146755" lon="10.504848">
<ele>520.051</ele>
<time>2020-09-10T15:28:05Z</time>
</trkpt>
<trkpt lat="48.14666" lon="10.50484">
<ele>519.679</ele>
<time>2020-09-10T15:28:06Z</time>
</trkpt>
<trkpt lat="48.146561" lon="10.504839">
<ele>519.365</ele>
<time>2020-09-10T15:28:07Z</time>
</trkpt>
<trkpt lat="48.146469" lon="10.504837">
<ele>519.197</ele>
<time>2020-09-10T15:28:08Z</time>
</trkpt>
<trkpt lat="48.14637" lon="10.504835">
<ele>519.076</ele>
<time>2020-09-10T15:28:09Z</time>
</trkpt>
<trkpt lat="48.146278" lon="10.504835">
<ele>518.748</ele>
<time>2020-09-10T15:28:10Z</time>
</trkpt>
<trkpt lat="48.146187" lon="10.504849">
<ele>518.49</ele>
<time>2020-09-10T15:28:11Z</time>
</trkpt>
<trkpt lat="48.146099" lon="10.504881">
<ele>518.3</ele>
<time>2020-09-10T15:28:12Z</time>
</trkpt>
<trkpt lat="48.146015" lon="10.504927">
<ele>518.173</ele>
<time>2020-09-10T15:28:13Z</time>
</trkpt>
<trkpt lat="48.145935" lon="10.504983">
<ele>518.072</ele>
<time>2020-09-10T15:28:14Z</time>
</trkpt>
<trkpt lat="48.145855" lon="10.505044">
<ele>517.999</ele>
<time>2020-09-10T15:28:15Z</time>
</trkpt>
<trkpt lat="48.145782" lon="10.505107">
<ele>517.951</ele>
<time>2020-09-10T15:28:16Z</time>
</trkpt>
<trkpt lat="48.145706" lon="10.505168">
<ele>517.928</ele>
<time>2020-09-10T15:28:17Z</time>
</trkpt>
<trkpt lat="48.145626" lon="10.505228">
<ele>517.928</ele>
<time>2020-09-10T15:28:18Z</time>
</trkpt>
<trkpt lat="48.145554" lon="10.505285">
<ele>517.928</ele>
<time>2020-09-10T15:28:19Z</time>
</trkpt>
<trkpt lat="48.145477" lon="10.505338">
<ele>517.928</ele>
<time>2020-09-10T15:28:20Z</time>
</trkpt>
<trkpt lat="48.145397" lon="10.505385">
<ele>517.645</ele>
<time>2020-09-10T15:28:21Z</time>
</trkpt>
<trkpt lat="48.145321" lon="10.505428">
<ele>517.423</ele>
<time>2020-09-10T15:28:22Z</time>
</trkpt>
<trkpt lat="48.145241" lon="10.50547">
<ele>517.257</ele>
<time>2020-09-10T15:28:23Z</time>
</trkpt>
<trkpt lat="48.145164" lon="10.505504">
<ele>517.131</ele>
<time>2020-09-10T15:28:24Z</time>
</trkpt>
<trkpt lat="48.145081" lon="10.505532">
<ele>517.045</ele>
<time>2020-09-10T15:28:25Z</time>
</trkpt>
<trkpt lat="48.145" lon="10.505555">
<ele>516.993</ele>
<time>2020-09-10T15:28:26Z</time>
</trkpt>
<trkpt lat="48.144913" lon="10.505572">
<ele>516.968</ele>
<time>2020-09-10T15:28:27Z</time>
</trkpt>
<trkpt lat="48.144825" lon="10.505583">
<ele>516.968</ele>
<time>2020-09-10T15:28:28Z</time>
</trkpt>
<trkpt lat="48.144741" lon="10.505589">
<ele>516.753</ele>
<time>2020-09-10T15:28:29Z</time>
</trkpt>
<trkpt lat="48.144653" lon="10.505587">
<ele>516.55</ele>
<time>2020-09-10T15:28:30Z</time>
</trkpt>
<trkpt lat="48.144566" lon="10.505583">
<ele>516.383</ele>
<time>2020-09-10T15:28:31Z</time>
</trkpt>
<trkpt lat="48.144478" lon="10.505583">
<ele>516.251</ele>
<time>2020-09-10T15:28:32Z</time>
</trkpt>
<trkpt lat="48.14439" lon="10.505585">
<ele>516.15</ele>
<time>2020-09-10T15:28:33Z</time>
</trkpt>
<trkpt lat="48.144302" lon="10.505595">
<ele>516.087</ele>
<time>2020-09-10T15:28:34Z</time>
</trkpt>
<trkpt lat="48.144215" lon="10.50561">
<ele>515.82</ele>
<time>2020-09-10T15:28:35Z</time>
</trkpt>
<trkpt lat="48.144127" lon="10.505631">
<ele>515.616</ele>
<time>2020-09-10T15:28:36Z</time>
</trkpt>
<trkpt lat="48.144039" lon="10.50566">
<ele>515.456</ele>
<time>2020-09-10T15:28:37Z</time>
</trkpt>
<trkpt lat="48.143955" lon="10.505695">
<ele>515.352</ele>
<time>2020-09-10T15:28:38Z</time>
</trkpt>
<trkpt lat="48.143871" lon="10.505736">
<ele>515.279</ele>
<time>2020-09-10T15:28:39Z</time>
</trkpt>
<trkpt lat="48.143787" lon="10.505784">
<ele>514.908</ele>
<time>2020-09-10T15:28:40Z</time>
</trkpt>
<trkpt lat="48.143703" lon="10.505836">
<ele>514.611</ele>
<time>2020-09-10T15:28:41Z</time>
</trkpt>
<trkpt lat="48.143623" lon="10.505895">
<ele>514.382</ele>
<time>2020-09-10T15:28:42Z</time>
</trkpt>
<trkpt lat="48.143543" lon="10.505958">
<ele>514.218</ele>
<time>2020-09-10T15:28:43Z</time>
</trkpt>
<trkpt lat="48.143467" lon="10.506028">
<ele>514.091</ele>
<time>2020-09-10T15:28:44Z</time>
</trkpt>
<trkpt lat="48.143391" lon="10.5061">
<ele>514.015</ele>
<time>2020-09-10T15:28:45Z</time>
</trkpt>
<trkpt lat="48.143311" lon="10.506168">
<ele>513.733</ele>
<time>2020-09-10T15:28:46Z</time>
</trkpt>
<trkpt lat="48.143234" lon="10.506232">
<ele>513.522</ele>
<time>2020-09-10T15:28:47Z</time>
</trkpt>
<trkpt lat="48.14315" lon="10.506289">
<ele>513.376</ele>
<time>2020-09-10T15:28:48Z</time>
</trkpt>
<trkpt lat="48.14307" lon="10.506333">
<ele>513.282</ele>
<time>2020-09-10T15:28:49Z</time>
</trkpt>
<trkpt lat="48.142986" lon="10.506367">
<ele>513.182</ele>
<time>2020-09-10T15:28:50Z</time>
</trkpt>
<trkpt lat="48.142899" lon="10.506392">
<ele>513.109</ele>
<time>2020-09-10T15:28:51Z</time>
</trkpt>
<trkpt lat="48.142818" lon="10.506414">
<ele>513.063</ele>
<time>2020-09-10T15:28:52Z</time>
</trkpt>
<trkpt lat="48.142731" lon="10.506438">
<ele>513.04</ele>
<time>2020-09-10T15:28:53Z</time>
</trkpt>
<trkpt lat="48.142654" lon="10.50646">
<ele>513.04</ele>
<time>2020-09-10T15:28:54Z</time>
</trkpt>
<trkpt lat="48.14257" lon="10.506479">
<ele>513.04</ele>
<time>2020-09-10T15:28:55Z</time>
</trkpt>
<trkpt lat="48.14249" lon="10.506502">
<ele>513.04</ele>
<time>2020-09-10T15:28:56Z</time>
</trkpt>
<trkpt lat="48.14241" lon="10.506521">
<ele>513.04</ele>
<time>2020-09-10T15:28:57Z</time>
</trkpt>
<trkpt lat="48.142334" lon="10.50654">
<ele>513.041</ele>
<time>2020-09-10T15:28:58Z</time>
</trkpt>
<trkpt lat="48.142262" lon="10.506557">
<ele>513.04</ele>
<time>2020-09-10T15:28:59Z</time>
</trkpt>
<trkpt lat="48.142185" lon="10.506572">
<ele>513.04</ele>
<time>2020-09-10T15:29:00Z</time>
</trkpt>
<trkpt lat="48.142113" lon="10.506586">
<ele>513.04</ele>
<time>2020-09-10T15:29:01Z</time>
</trkpt>
<trkpt lat="48.14204" lon="10.506601">
<ele>513.31</ele>
<time>2020-09-10T15:29:02Z</time>
</trkpt>
<trkpt lat="48.141975" lon="10.506616">
<ele>513.522</ele>
<time>2020-09-10T15:29:03Z</time>
</trkpt>
<trkpt lat="48.141907" lon="10.506632">
<ele>513.685</ele>
<time>2020-09-10T15:29:04Z</time>
</trkpt>
<trkpt lat="48.141842" lon="10.506657">
<ele>513.809</ele>
<time>2020-09-10T15:29:05Z</time>
</trkpt>
<trkpt lat="48.141777" lon="10.506691">
<ele>513.897</ele>
<time>2020-09-10T15:29:06Z</time>
</trkpt>
<trkpt lat="48.141716" lon="10.506737">
<ele>513.948</ele>
<time>2020-09-10T15:29:07Z</time>
</trkpt>
<trkpt lat="48.141659" lon="10.506793">
<ele>513.976</ele>
<time>2020-09-10T15:29:08Z</time>
</trkpt>
<trkpt lat="48.141605" lon="10.506862">
<ele>514</ele>
<time>2020-09-10T15:29:09Z</time>
</trkpt>
<trkpt lat="48.14156" lon="10.506936">
<ele>514</ele>
<time>2020-09-10T15:29:10Z</time>
</trkpt>
<trkpt lat="48.141518" lon="10.507015">
<ele>514</ele>
<time>2020-09-10T15:29:11Z</time>
</trkpt>
<trkpt lat="48.141479" lon="10.507095">
<ele>514.252</ele>
<time>2020-09-10T15:29:12Z</time>
</trkpt>
<trkpt lat="48.141438" lon="10.507174">
<ele>514.447</ele>
<time>2020-09-10T15:29:13Z</time>
</trkpt>
<trkpt lat="48.141396" lon="10.507253">
<ele>514.595</ele>
<time>2020-09-10T15:29:14Z</time>
</trkpt>
<trkpt lat="48.141357" lon="10.50733">
<ele>514.703</ele>
<time>2020-09-10T15:29:15Z</time>
</trkpt>
<trkpt lat="48.141312" lon="10.507403">
<ele>514.78</ele>
<time>2020-09-10T15:29:16Z</time>
</trkpt>
<trkpt lat="48.141266" lon="10.507475">
<ele>514.83</ele>
<time>2020-09-10T15:29:17Z</time>
</trkpt>
<trkpt lat="48.141224" lon="10.507542">
<ele>514.853</ele>
<time>2020-09-10T15:29:18Z</time>
</trkpt>
<trkpt lat="48.141182" lon="10.507607">
<ele>514.873</ele>
<time>2020-09-10T15:29:19Z</time>
</trkpt>
<trkpt lat="48.141132" lon="10.507667">
<ele>514.873</ele>
<time>2020-09-10T15:29:20Z</time>
</trkpt>
<trkpt lat="48.141083" lon="10.507722">
<ele>514.873</ele>
<time>2020-09-10T15:29:21Z</time>
</trkpt>
<trkpt lat="48.141033" lon="10.507771">
<ele>514.873</ele>
<time>2020-09-10T15:29:22Z</time>
</trkpt>
<trkpt lat="48.140984" lon="10.507813">
<ele>515.136</ele>
<time>2020-09-10T15:29:23Z</time>
</trkpt>
<trkpt lat="48.14093" lon="10.507852">
<ele>515.346</ele>
<time>2020-09-10T15:29:24Z</time>
</trkpt>
<trkpt lat="48.140877" lon="10.50788">
<ele>515.504</ele>
<time>2020-09-10T15:29:25Z</time>
</trkpt>
<trkpt lat="48.140823" lon="10.507904">
<ele>515.626</ele>
<time>2020-09-10T15:29:26Z</time>
</trkpt>
<trkpt lat="48.140766" lon="10.507921">
<ele>515.71</ele>
<time>2020-09-10T15:29:27Z</time>
</trkpt>
<trkpt lat="48.140709" lon="10.507938">
<ele>515.751</ele>
<time>2020-09-10T15:29:28Z</time>
</trkpt>
<trkpt lat="48.140656" lon="10.507954">
<ele>516.015</ele>
<time>2020-09-10T15:29:29Z</time>
</trkpt>
<trkpt lat="48.140602" lon="10.507963">
<ele>516.244</ele>
<time>2020-09-10T15:29:30Z</time>
</trkpt>
<trkpt lat="48.140545" lon="10.50797">
<ele>516.411</ele>
<time>2020-09-10T15:29:31Z</time>
</trkpt>
<trkpt lat="48.140491" lon="10.507977">
<ele>516.543</ele>
<time>2020-09-10T15:29:32Z</time>
</trkpt>
<trkpt lat="48.140438" lon="10.507986">
<ele>516.647</ele>
<time>2020-09-10T15:29:33Z</time>
</trkpt>
<trkpt lat="48.140377" lon="10.507994">
<ele>516.712</ele>
<time>2020-09-10T15:29:34Z</time>
</trkpt>
<trkpt lat="48.140324" lon="10.508">
<ele>516.979</ele>
<time>2020-09-10T15:29:35Z</time>
</trkpt>
<trkpt lat="48.14027" lon="10.508009">
<ele>517.186</ele>
<time>2020-09-10T15:29:36Z</time>
</trkpt>
<trkpt lat="48.140213" lon="10.508017">
<ele>517.346</ele>
<time>2020-09-10T15:29:37Z</time>
</trkpt>
<trkpt lat="48.140152" lon="10.508025">
<ele>517.45</ele>
<time>2020-09-10T15:29:38Z</time>
</trkpt>
<trkpt lat="48.140095" lon="10.508032">
<ele>517.523</ele>
<time>2020-09-10T15:29:39Z</time>
</trkpt>
<trkpt lat="48.140038" lon="10.50803">
<ele>517.597</ele>
<time>2020-09-10T15:29:40Z</time>
</trkpt>
<trkpt lat="48.139984" lon="10.508027">
<ele>517.644</ele>
<time>2020-09-10T15:29:41Z</time>
</trkpt>
<trkpt lat="48.139923" lon="10.508019">
<ele>517.667</ele>
<time>2020-09-10T15:29:42Z</time>
</trkpt>
<trkpt lat="48.139866" lon="10.508007">
<ele>517.666</ele>
<time>2020-09-10T15:29:43Z</time>
</trkpt>
<trkpt lat="48.139812" lon="10.50799">
<ele>517.667</ele>
<time>2020-09-10T15:29:44Z</time>
</trkpt>
<trkpt lat="48.139755" lon="10.50797">
<ele>517.666</ele>
<time>2020-09-10T15:29:45Z</time>
</trkpt>
<trkpt lat="48.139694" lon="10.50795">
<ele>517.667</ele>
<time>2020-09-10T15:29:46Z</time>
</trkpt>
<trkpt lat="48.139633" lon="10.507927">
<ele>517.667</ele>
<time>2020-09-10T15:29:47Z</time>
</trkpt>
<trkpt lat="48.139572" lon="10.507905">
<ele>517.667</ele>
<time>2020-09-10T15:29:48Z</time>
</trkpt>
<trkpt lat="48.139507" lon="10.507885">
<ele>517.667</ele>
<time>2020-09-10T15:29:49Z</time>
</trkpt>
<trkpt lat="48.139442" lon="10.507871">
<ele>517.667</ele>
<time>2020-09-10T15:29:50Z</time>
</trkpt>
<trkpt lat="48.139381" lon="10.507858">
<ele>517.667</ele>
<time>2020-09-10T15:29:51Z</time>
</trkpt>
<trkpt lat="48.139317" lon="10.507852">
<ele>517.667</ele>
<time>2020-09-10T15:29:52Z</time>
</trkpt>
<trkpt lat="48.139252" lon="10.50785">
<ele>517.667</ele>
<time>2020-09-10T15:29:53Z</time>
</trkpt>
<trkpt lat="48.139187" lon="10.507852">
<ele>517.667</ele>
<time>2020-09-10T15:29:54Z</time>
</trkpt>
<trkpt lat="48.139122" lon="10.507856">
<ele>517.667</ele>
<time>2020-09-10T15:29:55Z</time>
</trkpt>
<trkpt lat="48.139057" lon="10.507865">
<ele>517.667</ele>
<time>2020-09-10T15:29:56Z</time>
</trkpt>
<trkpt lat="48.138992" lon="10.507872">
<ele>517.666</ele>
<time>2020-09-10T15:29:57Z</time>
</trkpt>
<trkpt lat="48.138931" lon="10.50788">
<ele>517.667</ele>
<time>2020-09-10T15:29:58Z</time>
</trkpt>
<trkpt lat="48.138866" lon="10.50789">
<ele>517.667</ele>
<time>2020-09-10T15:29:59Z</time>
</trkpt>
<trkpt lat="48.138805" lon="10.507902">
<ele>517.667</ele>
<time>2020-09-10T15:30:00Z</time>
</trkpt>
<trkpt lat="48.138744" lon="10.507913">
<ele>517.667</ele>
<time>2020-09-10T15:30:01Z</time>
</trkpt>
<trkpt lat="48.13868" lon="10.50793">
<ele>517.666</ele>
<time>2020-09-10T15:30:02Z</time>
</trkpt>
<trkpt lat="48.138615" lon="10.507954">
<ele>517.667</ele>
<time>2020-09-10T15:30:03Z</time>
</trkpt>
<trkpt lat="48.13855" lon="10.507981">
<ele>517.667</ele>
<time>2020-09-10T15:30:04Z</time>
</trkpt>
<trkpt lat="48.138485" lon="10.508019">
<ele>517.667</ele>
<time>2020-09-10T15:30:05Z</time>
</trkpt>
<trkpt lat="48.138424" lon="10.508068">
<ele>517.666</ele>
<time>2020-09-10T15:30:06Z</time>
</trkpt>
<trkpt lat="48.138371" lon="10.508124">
<ele>517.666</ele>
<time>2020-09-10T15:30:07Z</time>
</trkpt>
<trkpt lat="48.138317" lon="10.508188">
<ele>517.451</ele>
<time>2020-09-10T15:30:08Z</time>
</trkpt>
<trkpt lat="48.138264" lon="10.508254">
<ele>517.299</ele>
<time>2020-09-10T15:30:09Z</time>
</trkpt>
<trkpt lat="48.138206" lon="10.508317">
<ele>517.145</ele>
<time>2020-09-10T15:30:10Z</time>
</trkpt>
<trkpt lat="48.138153" lon="10.508382">
<ele>517.021</ele>
<time>2020-09-10T15:30:11Z</time>
</trkpt>
<trkpt lat="48.138096" lon="10.508443">
<ele>516.926</ele>
<time>2020-09-10T15:30:12Z</time>
</trkpt>
<trkpt lat="48.138035" lon="10.508505">
<ele>516.858</ele>
<time>2020-09-10T15:30:13Z</time>
</trkpt>
<trkpt lat="48.137978" lon="10.508568">
<ele>516.814</ele>
<time>2020-09-10T15:30:14Z</time>
</trkpt>
<trkpt lat="48.13792" lon="10.50863">
<ele>516.793</ele>
<time>2020-09-10T15:30:15Z</time>
</trkpt>
<trkpt lat="48.137863" lon="10.508688">
<ele>516.793</ele>
<time>2020-09-10T15:30:16Z</time>
</trkpt>
<trkpt lat="48.137802" lon="10.50875">
<ele>516.793</ele>
<time>2020-09-10T15:30:17Z</time>
</trkpt>
<trkpt lat="48.137745" lon="10.508817">
<ele>516.793</ele>
<time>2020-09-10T15:30:18Z</time>
</trkpt>
<trkpt lat="48.137691" lon="10.508879">
<ele>516.793</ele>
<time>2020-09-10T15:30:19Z</time>
</trkpt>
<trkpt lat="48.137638" lon="10.508939">
<ele>516.793</ele>
<time>2020-09-10T15:30:20Z</time>
</trkpt>
<trkpt lat="48.137573" lon="10.509">
<ele>516.793</ele>
<time>2020-09-10T15:30:21Z</time>
</trkpt>
<trkpt lat="48.13752" lon="10.509062">
<ele>516.793</ele>
<time>2020-09-10T15:30:22Z</time>
</trkpt>
<trkpt lat="48.137466" lon="10.509128">
<ele>516.793</ele>
<time>2020-09-10T15:30:23Z</time>
</trkpt>
<trkpt lat="48.137409" lon="10.509193">
<ele>516.793</ele>
<time>2020-09-10T15:30:24Z</time>
</trkpt>
<trkpt lat="48.137356" lon="10.50926">
<ele>516.793</ele>
<time>2020-09-10T15:30:25Z</time>
</trkpt>
<trkpt lat="48.137302" lon="10.509323">
<ele>516.793</ele>
<time>2020-09-10T15:30:26Z</time>
</trkpt>
<trkpt lat="48.137249" lon="10.509387">
<ele>516.793</ele>
<time>2020-09-10T15:30:27Z</time>
</trkpt>
<trkpt lat="48.137192" lon="10.509452">
<ele>516.793</ele>
<time>2020-09-10T15:30:28Z</time>
</trkpt>
<trkpt lat="48.137138" lon="10.509517">
<ele>516.793</ele>
<time>2020-09-10T15:30:29Z</time>
</trkpt>
<trkpt lat="48.137085" lon="10.509584">
<ele>516.793</ele>
<time>2020-09-10T15:30:30Z</time>
</trkpt>
<trkpt lat="48.137024" lon="10.509648">
<ele>516.793</ele>
<time>2020-09-10T15:30:31Z</time>
</trkpt>
<trkpt lat="48.136974" lon="10.509714">
<ele>516.793</ele>
<time>2020-09-10T15:30:32Z</time>
</trkpt>
<trkpt lat="48.136921" lon="10.509777">
<ele>516.793</ele>
<time>2020-09-10T15:30:33Z</time>
</trkpt>
<trkpt lat="48.136868" lon="10.509838">
<ele>516.793</ele>
<time>2020-09-10T15:30:34Z</time>
</trkpt>
<trkpt lat="48.13681" lon="10.509896">
<ele>516.793</ele>
<time>2020-09-10T15:30:35Z</time>
</trkpt>
<trkpt lat="48.136757" lon="10.509952">
<ele>516.793</ele>
<time>2020-09-10T15:30:36Z</time>
</trkpt>
<trkpt lat="48.136696" lon="10.510003">
<ele>516.793</ele>
<time>2020-09-10T15:30:37Z</time>
</trkpt>
<trkpt lat="48.136642" lon="10.510056">
<ele>516.793</ele>
<time>2020-09-10T15:30:38Z</time>
</trkpt>
<trkpt lat="48.136589" lon="10.510108">
<ele>516.793</ele>
<time>2020-09-10T15:30:39Z</time>
</trkpt>
<trkpt lat="48.136536" lon="10.510159">
<ele>517.023</ele>
<time>2020-09-10T15:30:40Z</time>
</trkpt>
<trkpt lat="48.136482" lon="10.510204">
<ele>517.217</ele>
<time>2020-09-10T15:30:41Z</time>
</trkpt>
<trkpt lat="48.136429" lon="10.510255">
<ele>517.379</ele>
<time>2020-09-10T15:30:42Z</time>
</trkpt>
<trkpt lat="48.136372" lon="10.510302">
<ele>517.508</ele>
<time>2020-09-10T15:30:43Z</time>
</trkpt>
<trkpt lat="48.136318" lon="10.510349">
<ele>517.609</ele>
<time>2020-09-10T15:30:44Z</time>
</trkpt>
<trkpt lat="48.136265" lon="10.510399">
<ele>517.683</ele>
<time>2020-09-10T15:30:45Z</time>
</trkpt>
<trkpt lat="48.136204" lon="10.510448">
<ele>517.73</ele>
<time>2020-09-10T15:30:46Z</time>
</trkpt>
<trkpt lat="48.13615" lon="10.510498">
<ele>517.753</ele>
<time>2020-09-10T15:30:47Z</time>
</trkpt>
<trkpt lat="48.136089" lon="10.510549">
<ele>517.753</ele>
<time>2020-09-10T15:30:48Z</time>
</trkpt>
<trkpt lat="48.136032" lon="10.510594">
<ele>517.753</ele>
<time>2020-09-10T15:30:49Z</time>
</trkpt>
<trkpt lat="48.135971" lon="10.510642">
<ele>517.753</ele>
<time>2020-09-10T15:30:50Z</time>
</trkpt>
<trkpt lat="48.135906" lon="10.510685">
<ele>517.753</ele>
<time>2020-09-10T15:30:51Z</time>
</trkpt>
<trkpt lat="48.135845" lon="10.510726">
<ele>517.753</ele>
<time>2020-09-10T15:30:52Z</time>
</trkpt>
<trkpt lat="48.135788" lon="10.51077">
<ele>517.753</ele>
<time>2020-09-10T15:30:53Z</time>
</trkpt>
<trkpt lat="48.135731" lon="10.510815">
<ele>517.753</ele>
<time>2020-09-10T15:30:54Z</time>
</trkpt>
<trkpt lat="48.135674" lon="10.51086">
<ele>517.753</ele>
<time>2020-09-10T15:30:55Z</time>
</trkpt>
<trkpt lat="48.135616" lon="10.510906">
<ele>517.753</ele>
<time>2020-09-10T15:30:56Z</time>
</trkpt>
<trkpt lat="48.135555" lon="10.510955">
<ele>517.753</ele>
<time>2020-09-10T15:30:57Z</time>
</trkpt>
<trkpt lat="48.135498" lon="10.511003">
<ele>517.753</ele>
<time>2020-09-10T15:30:58Z</time>
</trkpt>
<trkpt lat="48.135441" lon="10.511051">
<ele>517.753</ele>
<time>2020-09-10T15:30:59Z</time>
</trkpt>
<trkpt lat="48.135384" lon="10.511102">
<ele>517.753</ele>
<time>2020-09-10T15:31:00Z</time>
</trkpt>
<trkpt lat="48.135326" lon="10.511153">
<ele>517.753</ele>
<time>2020-09-10T15:31:01Z</time>
</trkpt>
<trkpt lat="48.135273" lon="10.511202">
<ele>517.753</ele>
<time>2020-09-10T15:31:02Z</time>
</trkpt>
<trkpt lat="48.135212" lon="10.511251">
<ele>517.754</ele>
<time>2020-09-10T15:31:03Z</time>
</trkpt>
<trkpt lat="48.135159" lon="10.5113">
<ele>517.753</ele>
<time>2020-09-10T15:31:04Z</time>
</trkpt>
<trkpt lat="48.135098" lon="10.511353">
<ele>517.753</ele>
<time>2020-09-10T15:31:05Z</time>
</trkpt>
<trkpt lat="48.13504" lon="10.511403">
<ele>517.753</ele>
<time>2020-09-10T15:31:06Z</time>
</trkpt>
<trkpt lat="48.134983" lon="10.511456">
<ele>517.753</ele>
<time>2020-09-10T15:31:07Z</time>
</trkpt>
<trkpt lat="48.13493" lon="10.511507">
<ele>517.753</ele>
<time>2020-09-10T15:31:08Z</time>
</trkpt>
<trkpt lat="48.134869" lon="10.511559">
<ele>517.753</ele>
<time>2020-09-10T15:31:09Z</time>
</trkpt>
<trkpt lat="48.134819" lon="10.51161">
<ele>517.753</ele>
<time>2020-09-10T15:31:10Z</time>
</trkpt>
<trkpt lat="48.134769" lon="10.511665">
<ele>517.753</ele>
<time>2020-09-10T15:31:11Z</time>
</trkpt>
<trkpt lat="48.134716" lon="10.511717">
<ele>517.753</ele>
<time>2020-09-10T15:31:12Z</time>
</trkpt>
<trkpt lat="48.134666" lon="10.511768">
<ele>517.753</ele>
<time>2020-09-10T15:31:13Z</time>
</trkpt>
<trkpt lat="48.134609" lon="10.511817">
<ele>517.753</ele>
<time>2020-09-10T15:31:14Z</time>
</trkpt>
<trkpt lat="48.134556" lon="10.511866">
<ele>517.753</ele>
<time>2020-09-10T15:31:15Z</time>
</trkpt>
<trkpt lat="48.13451" lon="10.511913">
<ele>517.753</ele>
<time>2020-09-10T15:31:16Z</time>
</trkpt>
<trkpt lat="48.134457" lon="10.511964">
<ele>517.753</ele>
<time>2020-09-10T15:31:17Z</time>
</trkpt>
<trkpt lat="48.134411" lon="10.512013">
<ele>517.753</ele>
<time>2020-09-10T15:31:18Z</time>
</trkpt>
<trkpt lat="48.134361" lon="10.512063">
<ele>517.965</ele>
<time>2020-09-10T15:31:19Z</time>
</trkpt>
<trkpt lat="48.134312" lon="10.512114">
<ele>518.164</ele>
<time>2020-09-10T15:31:20Z</time>
</trkpt>
<trkpt lat="48.134266" lon="10.512163">
<ele>518.329</ele>
<time>2020-09-10T15:31:21Z</time>
</trkpt>
<trkpt lat="48.134216" lon="10.512216">
<ele>518.462</ele>
<time>2020-09-10T15:31:22Z</time>
</trkpt>
<trkpt lat="48.134167" lon="10.512265">
<ele>518.567</ele>
<time>2020-09-10T15:31:23Z</time>
</trkpt>
<trkpt lat="48.134121" lon="10.512314">
<ele>518.643</ele>
<time>2020-09-10T15:31:24Z</time>
</trkpt>
<trkpt lat="48.134075" lon="10.512362">
<ele>518.691</ele>
<time>2020-09-10T15:31:25Z</time>
</trkpt>
<trkpt lat="48.134026" lon="10.512415">
<ele>518.714</ele>
<time>2020-09-10T15:31:26Z</time>
</trkpt>
<trkpt lat="48.133984" lon="10.512465">
<ele>518.714</ele>
<time>2020-09-10T15:31:27Z</time>
</trkpt>
<trkpt lat="48.133934" lon="10.51252">
<ele>518.714</ele>
<time>2020-09-10T15:31:28Z</time>
</trkpt>
<trkpt lat="48.133888" lon="10.512574">
<ele>518.714</ele>
<time>2020-09-10T15:31:29Z</time>
</trkpt>
<trkpt lat="48.133842" lon="10.512631">
<ele>518.714</ele>
<time>2020-09-10T15:31:30Z</time>
</trkpt>
<trkpt lat="48.133797" lon="10.512689">
<ele>518.714</ele>
<time>2020-09-10T15:31:31Z</time>
</trkpt>
<trkpt lat="48.133751" lon="10.512746">
<ele>518.714</ele>
<time>2020-09-10T15:31:32Z</time>
</trkpt>
<trkpt lat="48.133701" lon="10.512805">
<ele>518.714</ele>
<time>2020-09-10T15:31:33Z</time>
</trkpt>
<trkpt lat="48.133663" lon="10.512867">
<ele>518.714</ele>
<time>2020-09-10T15:31:34Z</time>
</trkpt>
<trkpt lat="48.133617" lon="10.51293">
<ele>518.714</ele>
<time>2020-09-10T15:31:35Z</time>
</trkpt>
<trkpt lat="48.133572" lon="10.512995">
<ele>518.714</ele>
<time>2020-09-10T15:31:36Z</time>
</trkpt>
<trkpt lat="48.13353" lon="10.513062">
<ele>518.714</ele>
<time>2020-09-10T15:31:37Z</time>
</trkpt>
<trkpt lat="48.133492" lon="10.513129">
<ele>518.714</ele>
<time>2020-09-10T15:31:38Z</time>
</trkpt>
<trkpt lat="48.133453" lon="10.513197">
<ele>518.714</ele>
<time>2020-09-10T15:31:39Z</time>
</trkpt>
<trkpt lat="48.133411" lon="10.513266">
<ele>518.714</ele>
<time>2020-09-10T15:31:40Z</time>
</trkpt>
<trkpt lat="48.133373" lon="10.513335">
<ele>518.714</ele>
<time>2020-09-10T15:31:41Z</time>
</trkpt>
<trkpt lat="48.133339" lon="10.513406">
<ele>518.714</ele>
<time>2020-09-10T15:31:42Z</time>
</trkpt>
<trkpt lat="48.133305" lon="10.513479">
<ele>518.714</ele>
<time>2020-09-10T15:31:43Z</time>
</trkpt>
<trkpt lat="48.13327" lon="10.513555">
<ele>518.714</ele>
<time>2020-09-10T15:31:44Z</time>
</trkpt>
<trkpt lat="48.13324" lon="10.513632">
<ele>518.714</ele>
<time>2020-09-10T15:31:45Z</time>
</trkpt>
<trkpt lat="48.133209" lon="10.51371">
<ele>518.714</ele>
<time>2020-09-10T15:31:46Z</time>
</trkpt>
<trkpt lat="48.133179" lon="10.513787">
<ele>518.714</ele>
<time>2020-09-10T15:31:47Z</time>
</trkpt>
<trkpt lat="48.133152" lon="10.513865">
<ele>518.714</ele>
<time>2020-09-10T15:31:48Z</time>
</trkpt>
<trkpt lat="48.133125" lon="10.513945">
<ele>518.927</ele>
<time>2020-09-10T15:31:49Z</time>
</trkpt>
<trkpt lat="48.133099" lon="10.514026">
<ele>519.129</ele>
<time>2020-09-10T15:31:50Z</time>
</trkpt>
<trkpt lat="48.133072" lon="10.514105">
<ele>519.295</ele>
<time>2020-09-10T15:31:51Z</time>
</trkpt>
<trkpt lat="48.133045" lon="10.514187">
<ele>519.427</ele>
<time>2020-09-10T15:31:52Z</time>
</trkpt>
<trkpt lat="48.133022" lon="10.514267">
<ele>519.529</ele>
<time>2020-09-10T15:31:53Z</time>
</trkpt>
<trkpt lat="48.132996" lon="10.514346">
<ele>519.604</ele>
<time>2020-09-10T15:31:54Z</time>
</trkpt>
<trkpt lat="48.132969" lon="10.514428">
<ele>519.652</ele>
<time>2020-09-10T15:31:55Z</time>
</trkpt>
<trkpt lat="48.132942" lon="10.514508">
<ele>519.674</ele>
<time>2020-09-10T15:31:56Z</time>
</trkpt>
<trkpt lat="48.132912" lon="10.514588">
<ele>519.674</ele>
<time>2020-09-10T15:31:57Z</time>
</trkpt>
<trkpt lat="48.132889" lon="10.514667">
<ele>519.674</ele>
<time>2020-09-10T15:31:58Z</time>
</trkpt>
<trkpt lat="48.132862" lon="10.514747">
<ele>519.674</ele>
<time>2020-09-10T15:31:59Z</time>
</trkpt>
<trkpt lat="48.132835" lon="10.514824">
<ele>519.674</ele>
<time>2020-09-10T15:32:00Z</time>
</trkpt>
<trkpt lat="48.132805" lon="10.514898">
<ele>519.674</ele>
<time>2020-09-10T15:32:01Z</time>
</trkpt>
<trkpt lat="48.132774" lon="10.514971">
<ele>519.674</ele>
<time>2020-09-10T15:32:02Z</time>
</trkpt>
<trkpt lat="48.13274" lon="10.515038">
<ele>519.674</ele>
<time>2020-09-10T15:32:03Z</time>
</trkpt>
<trkpt lat="48.132702" lon="10.515107">
<ele>519.674</ele>
<time>2020-09-10T15:32:04Z</time>
</trkpt>
<trkpt lat="48.132664" lon="10.51517">
<ele>519.674</ele>
<time>2020-09-10T15:32:05Z</time>
</trkpt>
<trkpt lat="48.132626" lon="10.515233">
<ele>519.674</ele>
<time>2020-09-10T15:32:06Z</time>
</trkpt>
<trkpt lat="48.132587" lon="10.515295">
<ele>519.674</ele>
<time>2020-09-10T15:32:07Z</time>
</trkpt>
<trkpt lat="48.132545" lon="10.515358">
<ele>519.674</ele>
<time>2020-09-10T15:32:08Z</time>
</trkpt>
<trkpt lat="48.132504" lon="10.51542">
<ele>519.674</ele>
<time>2020-09-10T15:32:09Z</time>
</trkpt>
<trkpt lat="48.132462" lon="10.515482">
<ele>519.93</ele>
<time>2020-09-10T15:32:10Z</time>
</trkpt>
<trkpt lat="48.13242" lon="10.515547">
<ele>520.145</ele>
<time>2020-09-10T15:32:11Z</time>
</trkpt>
<trkpt lat="48.132374" lon="10.51561">
<ele>520.322</ele>
<time>2020-09-10T15:32:12Z</time>
</trkpt>
<trkpt lat="48.132328" lon="10.515673">
<ele>520.465</ele>
<time>2020-09-10T15:32:13Z</time>
</trkpt>
<trkpt lat="48.132286" lon="10.515738">
<ele>520.572</ele>
<time>2020-09-10T15:32:14Z</time>
</trkpt>
<trkpt lat="48.13224" lon="10.515802">
<ele>520.649</ele>
<time>2020-09-10T15:32:15Z</time>
</trkpt>
<trkpt lat="48.132198" lon="10.515863">
<ele>520.699</ele>
<time>2020-09-10T15:32:16Z</time>
</trkpt>
<trkpt lat="48.132156" lon="10.515924">
<ele>520.722</ele>
<time>2020-09-10T15:32:17Z</time>
</trkpt>
<trkpt lat="48.132111" lon="10.515986">
<ele>520.722</ele>
<time>2020-09-10T15:32:18Z</time>
</trkpt>
<trkpt lat="48.132069" lon="10.51605">
<ele>520.722</ele>
<time>2020-09-10T15:32:19Z</time>
</trkpt>
<trkpt lat="48.132027" lon="10.516115">
<ele>520.722</ele>
<time>2020-09-10T15:32:20Z</time>
</trkpt>
<trkpt lat="48.131989" lon="10.516182">
<ele>520.722</ele>
<time>2020-09-10T15:32:21Z</time>
</trkpt>
<trkpt lat="48.131943" lon="10.516249">
<ele>520.722</ele>
<time>2020-09-10T15:32:22Z</time>
</trkpt>
<trkpt lat="48.131901" lon="10.516315">
<ele>520.722</ele>
<time>2020-09-10T15:32:23Z</time>
</trkpt>
<trkpt lat="48.131866" lon="10.516385">
<ele>520.722</ele>
<time>2020-09-10T15:32:24Z</time>
</trkpt>
<trkpt lat="48.131824" lon="10.516455">
<ele>520.722</ele>
<time>2020-09-10T15:32:25Z</time>
</trkpt>
<trkpt lat="48.131786" lon="10.516528">
<ele>520.722</ele>
<time>2020-09-10T15:32:26Z</time>
</trkpt>
<trkpt lat="48.131748" lon="10.516603">
<ele>520.722</ele>
<time>2020-09-10T15:32:27Z</time>
</trkpt>
<trkpt lat="48.13171" lon="10.516678">
<ele>520.722</ele>
<time>2020-09-10T15:32:28Z</time>
</trkpt>
<trkpt lat="48.13168" lon="10.516756">
<ele>520.722</ele>
<time>2020-09-10T15:32:29Z</time>
</trkpt>
<trkpt lat="48.131649" lon="10.516835">
<ele>520.722</ele>
<time>2020-09-10T15:32:30Z</time>
</trkpt>
<trkpt lat="48.131615" lon="10.516913">
<ele>520.722</ele>
<time>2020-09-10T15:32:31Z</time>
</trkpt>
<trkpt lat="48.131584" lon="10.516991">
<ele>520.722</ele>
<time>2020-09-10T15:32:32Z</time>
</trkpt>
<trkpt lat="48.131554" lon="10.51707">
<ele>520.722</ele>
<time>2020-09-10T15:32:33Z</time>
</trkpt>
<trkpt lat="48.131527" lon="10.517152">
<ele>520.722</ele>
<time>2020-09-10T15:32:34Z</time>
</trkpt>
<trkpt lat="48.1315" lon="10.517236">
<ele>520.722</ele>
<time>2020-09-10T15:32:35Z</time>
</trkpt>
<trkpt lat="48.13147" lon="10.517317">
<ele>520.722</ele>
<time>2020-09-10T15:32:36Z</time>
</trkpt>
<trkpt lat="48.131443" lon="10.517399">
<ele>520.963</ele>
<time>2020-09-10T15:32:37Z</time>
</trkpt>
<trkpt lat="48.131413" lon="10.51748">
<ele>521.153</ele>
<time>2020-09-10T15:32:38Z</time>
</trkpt>
<trkpt lat="48.131382" lon="10.517562">
<ele>521.284</ele>
<time>2020-09-10T15:32:39Z</time>
</trkpt>
<trkpt lat="48.131355" lon="10.517645">
<ele>521.425</ele>
<time>2020-09-10T15:32:40Z</time>
</trkpt>
<trkpt lat="48.131329" lon="10.517728">
<ele>521.531</ele>
<time>2020-09-10T15:32:41Z</time>
</trkpt>
<trkpt lat="48.131306" lon="10.517812">
<ele>521.609</ele>
<time>2020-09-10T15:32:42Z</time>
</trkpt>
<trkpt lat="48.131275" lon="10.517896">
<ele>521.659</ele>
<time>2020-09-10T15:32:43Z</time>
</trkpt>
<trkpt lat="48.131248" lon="10.517977">
<ele>521.683</ele>
<time>2020-09-10T15:32:44Z</time>
</trkpt>
<trkpt lat="48.131218" lon="10.518059">
<ele>521.683</ele>
<time>2020-09-10T15:32:45Z</time>
</trkpt>
<trkpt lat="48.131191" lon="10.518139">
<ele>521.683</ele>
<time>2020-09-10T15:32:46Z</time>
</trkpt>
<trkpt lat="48.131165" lon="10.51822">
<ele>521.683</ele>
<time>2020-09-10T15:32:47Z</time>
</trkpt>
<trkpt lat="48.131138" lon="10.5183">
<ele>521.683</ele>
<time>2020-09-10T15:32:48Z</time>
</trkpt>
<trkpt lat="48.131111" lon="10.518378">
<ele>521.876</ele>
<time>2020-09-10T15:32:49Z</time>
</trkpt>
<trkpt lat="48.131084" lon="10.518456">
<ele>522.058</ele>
<time>2020-09-10T15:32:50Z</time>
</trkpt>
<trkpt lat="48.131058" lon="10.518535">
<ele>522.208</ele>
<time>2020-09-10T15:32:51Z</time>
</trkpt>
<trkpt lat="48.131031" lon="10.518615">
<ele>522.311</ele>
<time>2020-09-10T15:32:52Z</time>
</trkpt>
<trkpt lat="48.131012" lon="10.518692">
<ele>522.644</ele>
<time>2020-09-10T15:32:53Z</time>
</trkpt>
<trkpt lat="48.130989" lon="10.518769">
<ele>522.913</ele>
<time>2020-09-10T15:32:54Z</time>
</trkpt>
<trkpt lat="48.130962" lon="10.518847">
<ele>523.12</ele>
<time>2020-09-10T15:32:55Z</time>
</trkpt>
<trkpt lat="48.130939" lon="10.518924">
<ele>523.274</ele>
<time>2020-09-10T15:32:56Z</time>
</trkpt>
<trkpt lat="48.130917" lon="10.519">
<ele>523.392</ele>
<time>2020-09-10T15:32:57Z</time>
</trkpt>
<trkpt lat="48.13089" lon="10.519077">
<ele>523.447</ele>
<time>2020-09-10T15:32:58Z</time>
</trkpt>
<trkpt lat="48.130871" lon="10.519152">
<ele>523.49</ele>
<time>2020-09-10T15:32:59Z</time>
</trkpt>
<trkpt lat="48.130852" lon="10.519226">
<ele>523.517</ele>
<time>2020-09-10T15:33:00Z</time>
</trkpt>
<trkpt lat="48.130829" lon="10.519303">
<ele>523.517</ele>
<time>2020-09-10T15:33:01Z</time>
</trkpt>
<trkpt lat="48.130806" lon="10.519379">
<ele>523.517</ele>
<time>2020-09-10T15:33:02Z</time>
</trkpt>
<trkpt lat="48.130787" lon="10.519455">
<ele>523.517</ele>
<time>2020-09-10T15:33:03Z</time>
</trkpt>
<trkpt lat="48.13076" lon="10.519533">
<ele>523.517</ele>
<time>2020-09-10T15:33:04Z</time>
</trkpt>
<trkpt lat="48.130741" lon="10.519609">
<ele>523.517</ele>
<time>2020-09-10T15:33:05Z</time>
</trkpt>
<trkpt lat="48.130718" lon="10.519689">
<ele>523.517</ele>
<time>2020-09-10T15:33:06Z</time>
</trkpt>
<trkpt lat="48.130695" lon="10.519769">
<ele>523.759</ele>
<time>2020-09-10T15:33:07Z</time>
</trkpt>
<trkpt lat="48.130665" lon="10.519848">
<ele>523.951</ele>
<time>2020-09-10T15:33:08Z</time>
</trkpt>
<trkpt lat="48.130638" lon="10.519925">
<ele>524.081</ele>
<time>2020-09-10T15:33:09Z</time>
</trkpt>
<trkpt lat="48.130608" lon="10.520001">
<ele>524.222</ele>
<time>2020-09-10T15:33:10Z</time>
</trkpt>
<trkpt lat="48.130573" lon="10.520075">
<ele>524.329</ele>
<time>2020-09-10T15:33:11Z</time>
</trkpt>
<trkpt lat="48.130535" lon="10.520146">
<ele>524.405</ele>
<time>2020-09-10T15:33:12Z</time>
</trkpt>
<trkpt lat="48.130501" lon="10.520217">
<ele>524.455</ele>
<time>2020-09-10T15:33:13Z</time>
</trkpt>
<trkpt lat="48.130459" lon="10.520285">
<ele>524.478</ele>
<time>2020-09-10T15:33:14Z</time>
</trkpt>
<trkpt lat="48.130417" lon="10.520351">
<ele>524.478</ele>
<time>2020-09-10T15:33:15Z</time>
</trkpt>
<trkpt lat="48.130375" lon="10.520415">
<ele>524.478</ele>
<time>2020-09-10T15:33:16Z</time>
</trkpt>
<trkpt lat="48.130337" lon="10.520476">
<ele>524.478</ele>
<time>2020-09-10T15:33:17Z</time>
</trkpt>
<trkpt lat="48.130295" lon="10.52054">
<ele>524.478</ele>
<time>2020-09-10T15:33:18Z</time>
</trkpt>
<trkpt lat="48.130249" lon="10.520603">
<ele>524.478</ele>
<time>2020-09-10T15:33:19Z</time>
</trkpt>
<trkpt lat="48.130207" lon="10.520667">
<ele>524.478</ele>
<time>2020-09-10T15:33:20Z</time>
</trkpt>
<trkpt lat="48.130169" lon="10.520728">
<ele>524.478</ele>
<time>2020-09-10T15:33:21Z</time>
</trkpt>
<trkpt lat="48.130123" lon="10.520791">
<ele>524.478</ele>
<time>2020-09-10T15:33:22Z</time>
</trkpt>
<trkpt lat="48.130077" lon="10.520856">
<ele>524.478</ele>
<time>2020-09-10T15:33:23Z</time>
</trkpt>
<trkpt lat="48.130039" lon="10.520921">
<ele>524.478</ele>
<time>2020-09-10T15:33:24Z</time>
</trkpt>
<trkpt lat="48.129997" lon="10.520986">
<ele>524.733</ele>
<time>2020-09-10T15:33:25Z</time>
</trkpt>
<trkpt lat="48.129959" lon="10.52105">
<ele>524.932</ele>
<time>2020-09-10T15:33:26Z</time>
</trkpt>
<trkpt lat="48.129917" lon="10.521115">
<ele>525.084</ele>
<time>2020-09-10T15:33:27Z</time>
</trkpt>
<trkpt lat="48.129879" lon="10.52118">
<ele>525.198</ele>
<time>2020-09-10T15:33:28Z</time>
</trkpt>
<trkpt lat="48.129837" lon="10.521245">
<ele>525.278</ele>
<time>2020-09-10T15:33:29Z</time>
</trkpt>
<trkpt lat="48.129799" lon="10.521312">
<ele>525.36</ele>
<time>2020-09-10T15:33:30Z</time>
</trkpt>
<trkpt lat="48.129761" lon="10.521381">
<ele>525.413</ele>
<time>2020-09-10T15:33:31Z</time>
</trkpt>
<trkpt lat="48.129723" lon="10.52145">
<ele>525.439</ele>
<time>2020-09-10T15:33:32Z</time>
</trkpt>
<trkpt lat="48.129684" lon="10.521516">
<ele>525.439</ele>
<time>2020-09-10T15:33:33Z</time>
</trkpt>
<trkpt lat="48.129646" lon="10.521584">
<ele>525.439</ele>
<time>2020-09-10T15:33:34Z</time>
</trkpt>
<trkpt lat="48.129612" lon="10.521654">
<ele>525.439</ele>
<time>2020-09-10T15:33:35Z</time>
</trkpt>
<trkpt lat="48.129574" lon="10.521724">
<ele>525.439</ele>
<time>2020-09-10T15:33:36Z</time>
</trkpt>
<trkpt lat="48.129539" lon="10.521795">
<ele>525.439</ele>
<time>2020-09-10T15:33:37Z</time>
</trkpt>
<trkpt lat="48.129501" lon="10.521866">
<ele>525.439</ele>
<time>2020-09-10T15:33:38Z</time>
</trkpt>
<trkpt lat="48.129467" lon="10.521939">
<ele>525.439</ele>
<time>2020-09-10T15:33:39Z</time>
</trkpt>
<trkpt lat="48.129429" lon="10.522013">
<ele>525.439</ele>
<time>2020-09-10T15:33:40Z</time>
</trkpt>
<trkpt lat="48.129391" lon="10.522086">
<ele>525.439</ele>
<time>2020-09-10T15:33:41Z</time>
</trkpt>
<trkpt lat="48.129356" lon="10.522163">
<ele>525.439</ele>
<time>2020-09-10T15:33:42Z</time>
</trkpt>
<trkpt lat="48.129322" lon="10.522241">
<ele>525.439</ele>
<time>2020-09-10T15:33:43Z</time>
</trkpt>
<trkpt lat="48.129284" lon="10.522314">
<ele>525.439</ele>
<time>2020-09-10T15:33:44Z</time>
</trkpt>
<trkpt lat="48.129246" lon="10.522389">
<ele>525.439</ele>
<time>2020-09-10T15:33:45Z</time>
</trkpt>
<trkpt lat="48.129211" lon="10.522469">
<ele>525.439</ele>
<time>2020-09-10T15:33:46Z</time>
</trkpt>
<trkpt lat="48.129173" lon="10.522543">
<ele>525.439</ele>
<time>2020-09-10T15:33:47Z</time>
</trkpt>
<trkpt lat="48.129135" lon="10.522622">
<ele>525.439</ele>
<time>2020-09-10T15:33:48Z</time>
</trkpt>
<trkpt lat="48.129101" lon="10.5227">
<ele>525.224</ele>
<time>2020-09-10T15:33:49Z</time>
</trkpt>
<trkpt lat="48.129066" lon="10.522777">
<ele>525.023</ele>
<time>2020-09-10T15:33:50Z</time>
</trkpt>
<trkpt lat="48.129032" lon="10.522852">
<ele>524.857</ele>
<time>2020-09-10T15:33:51Z</time>
</trkpt>
<trkpt lat="48.128998" lon="10.522926">
<ele>524.724</ele>
<time>2020-09-10T15:33:52Z</time>
</trkpt>
<trkpt lat="48.12896" lon="10.523">
<ele>524.622</ele>
<time>2020-09-10T15:33:53Z</time>
</trkpt>
<trkpt lat="48.128925" lon="10.523075">
<ele>524.549</ele>
<time>2020-09-10T15:33:54Z</time>
</trkpt>
<trkpt lat="48.128887" lon="10.523149">
<ele>524.501</ele>
<time>2020-09-10T15:33:55Z</time>
</trkpt>
<trkpt lat="48.128853" lon="10.52322">
<ele>524.478</ele>
<time>2020-09-10T15:33:56Z</time>
</trkpt>
<trkpt lat="48.128815" lon="10.523293">
<ele>524.478</ele>
<time>2020-09-10T15:33:57Z</time>
</trkpt>
<trkpt lat="48.128777" lon="10.523361">
<ele>524.478</ele>
<time>2020-09-10T15:33:58Z</time>
</trkpt>
<trkpt lat="48.128738" lon="10.523433">
<ele>524.478</ele>
<time>2020-09-10T15:33:59Z</time>
</trkpt>
<trkpt lat="48.128696" lon="10.523501">
<ele>524.478</ele>
<time>2020-09-10T15:34:00Z</time>
</trkpt>
<trkpt lat="48.128658" lon="10.523571">
<ele>524.478</ele>
<time>2020-09-10T15:34:01Z</time>
</trkpt>
<trkpt lat="48.12862" lon="10.52364">
<ele>524.478</ele>
<time>2020-09-10T15:34:02Z</time>
</trkpt>
<trkpt lat="48.128582" lon="10.523707">
<ele>524.478</ele>
<time>2020-09-10T15:34:03Z</time>
</trkpt>
<trkpt lat="48.128544" lon="10.523775">
<ele>524.478</ele>
<time>2020-09-10T15:34:04Z</time>
</trkpt>
<trkpt lat="48.128506" lon="10.523842">
<ele>524.478</ele>
<time>2020-09-10T15:34:05Z</time>
</trkpt>
<trkpt lat="48.128468" lon="10.523911">
<ele>524.701</ele>
<time>2020-09-10T15:34:06Z</time>
</trkpt>
<trkpt lat="48.128429" lon="10.52398">
<ele>524.875</ele>
<time>2020-09-10T15:34:07Z</time>
</trkpt>
<trkpt lat="48.128391" lon="10.524052">
<ele>525.014</ele>
<time>2020-09-10T15:34:08Z</time>
</trkpt>
<trkpt lat="48.128353" lon="10.524122">
<ele>525.108</ele>
<time>2020-09-10T15:34:09Z</time>
</trkpt>
<trkpt lat="48.128315" lon="10.524194">
<ele>525.21</ele>
<time>2020-09-10T15:34:10Z</time>
</trkpt>
<trkpt lat="48.128281" lon="10.524268">
<ele>525.283</ele>
<time>2020-09-10T15:34:11Z</time>
</trkpt>
<trkpt lat="48.128246" lon="10.524343">
<ele>525.329</ele>
<time>2020-09-10T15:34:12Z</time>
</trkpt>
<trkpt lat="48.128212" lon="10.52442">
<ele>525.352</ele>
<time>2020-09-10T15:34:13Z</time>
</trkpt>
<trkpt lat="48.128181" lon="10.524497">
<ele>525.352</ele>
<time>2020-09-10T15:34:14Z</time>
</trkpt>
<trkpt lat="48.128151" lon="10.524575">
<ele>525.352</ele>
<time>2020-09-10T15:34:15Z</time>
</trkpt>
<trkpt lat="48.12812" lon="10.524652">
<ele>525.352</ele>
<time>2020-09-10T15:34:16Z</time>
</trkpt>
<trkpt lat="48.12809" lon="10.524727">
<ele>525.352</ele>
<time>2020-09-10T15:34:17Z</time>
</trkpt>
<trkpt lat="48.128059" lon="10.524805">
<ele>525.352</ele>
<time>2020-09-10T15:34:18Z</time>
</trkpt>
<trkpt lat="48.128033" lon="10.524881">
<ele>525.352</ele>
<time>2020-09-10T15:34:19Z</time>
</trkpt>
<trkpt lat="48.128006" lon="10.524961">
<ele>525.352</ele>
<time>2020-09-10T15:34:20Z</time>
</trkpt>
<trkpt lat="48.127983" lon="10.525042">
<ele>525.352</ele>
<time>2020-09-10T15:34:21Z</time>
</trkpt>
<trkpt lat="48.127956" lon="10.525124">
<ele>525.352</ele>
<time>2020-09-10T15:34:22Z</time>
</trkpt>
<trkpt lat="48.127937" lon="10.525206">
<ele>525.352</ele>
<time>2020-09-10T15:34:23Z</time>
</trkpt>
<trkpt lat="48.127918" lon="10.525285">
<ele>525.352</ele>
<time>2020-09-10T15:34:24Z</time>
</trkpt>
<trkpt lat="48.127895" lon="10.525367">
<ele>525.352</ele>
<time>2020-09-10T15:34:25Z</time>
</trkpt>
<trkpt lat="48.12788" lon="10.52545">
<ele>525.352</ele>
<time>2020-09-10T15:34:26Z</time>
</trkpt>
<trkpt lat="48.127861" lon="10.525535">
<ele>525.352</ele>
<time>2020-09-10T15:34:27Z</time>
</trkpt>
<trkpt lat="48.127842" lon="10.52562">
<ele>525.352</ele>
<time>2020-09-10T15:34:28Z</time>
</trkpt>
<trkpt lat="48.127827" lon="10.525704">
<ele>525.352</ele>
<time>2020-09-10T15:34:29Z</time>
</trkpt>
<trkpt lat="48.127811" lon="10.525786">
<ele>525.352</ele>
<time>2020-09-10T15:34:30Z</time>
</trkpt>
<trkpt lat="48.127796" lon="10.525867">
<ele>525.352</ele>
<time>2020-09-10T15:34:31Z</time>
</trkpt>
<trkpt lat="48.127781" lon="10.525953">
<ele>525.352</ele>
<time>2020-09-10T15:34:32Z</time>
</trkpt>
<trkpt lat="48.127766" lon="10.52604">
<ele>525.352</ele>
<time>2020-09-10T15:34:33Z</time>
</trkpt>
<trkpt lat="48.127754" lon="10.526125">
<ele>525.352</ele>
<time>2020-09-10T15:34:34Z</time>
</trkpt>
<trkpt lat="48.127735" lon="10.52621">
<ele>525.352</ele>
<time>2020-09-10T15:34:35Z</time>
</trkpt>
<trkpt lat="48.127724" lon="10.526297">
<ele>525.352</ele>
<time>2020-09-10T15:34:36Z</time>
</trkpt>
<trkpt lat="48.127705" lon="10.526383">
<ele>525.352</ele>
<time>2020-09-10T15:34:37Z</time>
</trkpt>
<trkpt lat="48.127693" lon="10.526468">
<ele>525.352</ele>
<time>2020-09-10T15:34:38Z</time>
</trkpt>
<trkpt lat="48.127678" lon="10.526555">
<ele>525.352</ele>
<time>2020-09-10T15:34:39Z</time>
</trkpt>
<trkpt lat="48.127663" lon="10.526643">
<ele>525.586</ele>
<time>2020-09-10T15:34:40Z</time>
</trkpt>
<trkpt lat="48.127647" lon="10.526733">
<ele>525.783</ele>
<time>2020-09-10T15:34:41Z</time>
</trkpt>
<trkpt lat="48.127632" lon="10.526821">
<ele>525.946</ele>
<time>2020-09-10T15:34:42Z</time>
</trkpt>
<trkpt lat="48.127621" lon="10.526911">
<ele>526.074</ele>
<time>2020-09-10T15:34:43Z</time>
</trkpt>
<trkpt lat="48.127605" lon="10.526997">
<ele>526.173</ele>
<time>2020-09-10T15:34:44Z</time>
</trkpt>
<trkpt lat="48.127594" lon="10.527085">
<ele>526.245</ele>
<time>2020-09-10T15:34:45Z</time>
</trkpt>
<trkpt lat="48.127579" lon="10.527172">
<ele>526.291</ele>
<time>2020-09-10T15:34:46Z</time>
</trkpt>
<trkpt lat="48.127563" lon="10.527259">
<ele>526.313</ele>
<time>2020-09-10T15:34:47Z</time>
</trkpt>
<trkpt lat="48.127556" lon="10.527347">
<ele>526.313</ele>
<time>2020-09-10T15:34:48Z</time>
</trkpt>
<trkpt lat="48.127544" lon="10.527432">
<ele>526.313</ele>
<time>2020-09-10T15:34:49Z</time>
</trkpt>
<trkpt lat="48.127533" lon="10.527514">
<ele>526.313</ele>
<time>2020-09-10T15:34:50Z</time>
</trkpt>
<trkpt lat="48.127525" lon="10.527598">
<ele>526.313</ele>
<time>2020-09-10T15:34:51Z</time>
</trkpt>
<trkpt lat="48.12751" lon="10.527681">
<ele>526.313</ele>
<time>2020-09-10T15:34:52Z</time>
</trkpt>
<trkpt lat="48.127499" lon="10.527765">
<ele>526.313</ele>
<time>2020-09-10T15:34:53Z</time>
</trkpt>
<trkpt lat="48.127491" lon="10.52785">
<ele>526.596</ele>
<time>2020-09-10T15:34:54Z</time>
</trkpt>
<trkpt lat="48.127476" lon="10.527933">
<ele>526.819</ele>
<time>2020-09-10T15:34:55Z</time>
</trkpt>
<trkpt lat="48.127468" lon="10.528019">
<ele>526.988</ele>
<time>2020-09-10T15:34:56Z</time>
</trkpt>
<trkpt lat="48.127453" lon="10.528101">
<ele>527.116</ele>
<time>2020-09-10T15:34:57Z</time>
</trkpt>
<trkpt lat="48.127438" lon="10.528185">
<ele>527.209</ele>
<time>2020-09-10T15:34:58Z</time>
</trkpt>
<trkpt lat="48.127422" lon="10.528269">
<ele>527.275</ele>
<time>2020-09-10T15:34:59Z</time>
</trkpt>
<trkpt lat="48.127403" lon="10.52835">
<ele>527.333</ele>
<time>2020-09-10T15:35:00Z</time>
</trkpt>
<trkpt lat="48.12738" lon="10.52843">
<ele>527.361</ele>
<time>2020-09-10T15:35:01Z</time>
</trkpt>
<trkpt lat="48.127354" lon="10.528507">
<ele>527.361</ele>
<time>2020-09-10T15:35:02Z</time>
</trkpt>
<trkpt lat="48.127331" lon="10.528579">
<ele>527.361</ele>
<time>2020-09-10T15:35:03Z</time>
</trkpt>
<trkpt lat="48.1273" lon="10.52865">
<ele>527.622</ele>
<time>2020-09-10T15:35:04Z</time>
</trkpt>
<trkpt lat="48.12727" lon="10.528721">
<ele>527.824</ele>
<time>2020-09-10T15:35:05Z</time>
</trkpt>
<trkpt lat="48.127232" lon="10.528787">
<ele>527.979</ele>
<time>2020-09-10T15:35:06Z</time>
</trkpt>
<trkpt lat="48.127197" lon="10.528852">
<ele>528.098</ele>
<time>2020-09-10T15:35:07Z</time>
</trkpt>
<trkpt lat="48.127159" lon="10.528916">
<ele>528.179</ele>
<time>2020-09-10T15:35:08Z</time>
</trkpt>
<trkpt lat="48.127121" lon="10.528983">
<ele>528.241</ele>
<time>2020-09-10T15:35:09Z</time>
</trkpt>
<trkpt lat="48.127083" lon="10.52905">
<ele>528.296</ele>
<time>2020-09-10T15:35:10Z</time>
</trkpt>
<trkpt lat="48.127045" lon="10.529117">
<ele>528.322</ele>
<time>2020-09-10T15:35:11Z</time>
</trkpt>
<trkpt lat="48.12701" lon="10.529186">
<ele>528.322</ele>
<time>2020-09-10T15:35:12Z</time>
</trkpt>
<trkpt lat="48.126976" lon="10.529255">
<ele>528.322</ele>
<time>2020-09-10T15:35:13Z</time>
</trkpt>
<trkpt lat="48.126938" lon="10.529325">
<ele>528.322</ele>
<time>2020-09-10T15:35:14Z</time>
</trkpt>
<trkpt lat="48.126904" lon="10.529395">
<ele>528.322</ele>
<time>2020-09-10T15:35:15Z</time>
</trkpt>
<trkpt lat="48.126865" lon="10.529469">
<ele>528.322</ele>
<time>2020-09-10T15:35:16Z</time>
</trkpt>
<trkpt lat="48.126835" lon="10.529542">
<ele>528.322</ele>
<time>2020-09-10T15:35:17Z</time>
</trkpt>
<trkpt lat="48.126801" lon="10.529617">
<ele>528.322</ele>
<time>2020-09-10T15:35:18Z</time>
</trkpt>
<trkpt lat="48.126766" lon="10.529692">
<ele>528.322</ele>
<time>2020-09-10T15:35:19Z</time>
</trkpt>
<trkpt lat="48.126736" lon="10.529765">
<ele>528.322</ele>
<time>2020-09-10T15:35:20Z</time>
</trkpt>
<trkpt lat="48.126705" lon="10.529836">
<ele>528.322</ele>
<time>2020-09-10T15:35:21Z</time>
</trkpt>
<trkpt lat="48.126671" lon="10.529906">
<ele>528.322</ele>
<time>2020-09-10T15:35:22Z</time>
</trkpt>
<trkpt lat="48.12664" lon="10.529982">
<ele>528.322</ele>
<time>2020-09-10T15:35:23Z</time>
</trkpt>
<trkpt lat="48.12661" lon="10.53006">
<ele>528.322</ele>
<time>2020-09-10T15:35:24Z</time>
</trkpt>
<trkpt lat="48.126583" lon="10.530137">
<ele>528.322</ele>
<time>2020-09-10T15:35:25Z</time>
</trkpt>
<trkpt lat="48.126553" lon="10.530215">
<ele>528.322</ele>
<time>2020-09-10T15:35:26Z</time>
</trkpt>
<trkpt lat="48.126522" lon="10.530293">
<ele>528.322</ele>
<time>2020-09-10T15:35:27Z</time>
</trkpt>
<trkpt lat="48.126492" lon="10.53037">
<ele>528.322</ele>
<time>2020-09-10T15:35:28Z</time>
</trkpt>
<trkpt lat="48.126461" lon="10.530445">
<ele>528.322</ele>
<time>2020-09-10T15:35:29Z</time>
</trkpt>
<trkpt lat="48.126434" lon="10.530519">
<ele>528.322</ele>
<time>2020-09-10T15:35:30Z</time>
</trkpt>
<trkpt lat="48.126408" lon="10.530594">
<ele>528.322</ele>
<time>2020-09-10T15:35:31Z</time>
</trkpt>
<trkpt lat="48.126377" lon="10.53067">
<ele>528.322</ele>
<time>2020-09-10T15:35:32Z</time>
</trkpt>
<trkpt lat="48.126354" lon="10.530745">
<ele>528.322</ele>
<time>2020-09-10T15:35:33Z</time>
</trkpt>
<trkpt lat="48.126328" lon="10.530823">
<ele>528.322</ele>
<time>2020-09-10T15:35:34Z</time>
</trkpt>
<trkpt lat="48.126297" lon="10.530898">
<ele>528.322</ele>
<time>2020-09-10T15:35:35Z</time>
</trkpt>
<trkpt lat="48.12627" lon="10.530973">
<ele>528.322</ele>
<time>2020-09-10T15:35:36Z</time>
</trkpt>
<trkpt lat="48.126244" lon="10.531051">
<ele>528.54</ele>
<time>2020-09-10T15:35:37Z</time>
</trkpt>
<trkpt lat="48.126221" lon="10.531126">
<ele>528.714</ele>
<time>2020-09-10T15:35:38Z</time>
</trkpt>
<trkpt lat="48.126194" lon="10.531203">
<ele>528.832</ele>
<time>2020-09-10T15:35:39Z</time>
</trkpt>
<trkpt lat="48.126167" lon="10.53128">
<ele>528.959</ele>
<time>2020-09-10T15:35:40Z</time>
</trkpt>
<trkpt lat="48.126144" lon="10.531357">
<ele>529.058</ele>
<time>2020-09-10T15:35:41Z</time>
</trkpt>
<trkpt lat="48.126122" lon="10.531434">
<ele>529.128</ele>
<time>2020-09-10T15:35:42Z</time>
</trkpt>
<trkpt lat="48.126099" lon="10.531509">
<ele>529.175</ele>
<time>2020-09-10T15:35:43Z</time>
</trkpt>
<trkpt lat="48.126072" lon="10.531587">
<ele>529.197</ele>
<time>2020-09-10T15:35:44Z</time>
</trkpt>
<trkpt lat="48.126049" lon="10.531663">
<ele>529.197</ele>
<time>2020-09-10T15:35:45Z</time>
</trkpt>
<trkpt lat="48.126026" lon="10.531736">
<ele>529.197</ele>
<time>2020-09-10T15:35:46Z</time>
</trkpt>
<trkpt lat="48.125999" lon="10.53181">
<ele>529.197</ele>
<time>2020-09-10T15:35:47Z</time>
</trkpt>
<trkpt lat="48.125969" lon="10.531878">
<ele>529.197</ele>
<time>2020-09-10T15:35:48Z</time>
</trkpt>
<trkpt lat="48.125935" lon="10.531937">
<ele>529.197</ele>
<time>2020-09-10T15:35:49Z</time>
</trkpt>
<trkpt lat="48.125896" lon="10.531994">
<ele>529.197</ele>
<time>2020-09-10T15:35:50Z</time>
</trkpt>
<trkpt lat="48.125854" lon="10.532052">
<ele>529.197</ele>
<time>2020-09-10T15:35:51Z</time>
</trkpt>
<trkpt lat="48.125805" lon="10.532106">
<ele>529.197</ele>
<time>2020-09-10T15:35:52Z</time>
</trkpt>
<trkpt lat="48.125755" lon="10.53216">
<ele>529.197</ele>
<time>2020-09-10T15:35:53Z</time>
</trkpt>
<trkpt lat="48.125706" lon="10.532205">
<ele>529.197</ele>
<time>2020-09-10T15:35:54Z</time>
</trkpt>
<trkpt lat="48.125656" lon="10.532251">
<ele>529.197</ele>
<time>2020-09-10T15:35:55Z</time>
</trkpt>
<trkpt lat="48.125603" lon="10.532297">
<ele>529.472</ele>
<time>2020-09-10T15:35:56Z</time>
</trkpt>
<trkpt lat="48.125553" lon="10.532339">
<ele>529.685</ele>
<time>2020-09-10T15:35:57Z</time>
</trkpt>
<trkpt lat="48.125504" lon="10.532381">
<ele>529.847</ele>
<time>2020-09-10T15:35:58Z</time>
</trkpt>
<trkpt lat="48.12545" lon="10.532421">
<ele>529.955</ele>
<time>2020-09-10T15:35:59Z</time>
</trkpt>
<trkpt lat="48.125401" lon="10.532463">
<ele>530.074</ele>
<time>2020-09-10T15:36:00Z</time>
</trkpt>
<trkpt lat="48.125351" lon="10.532502">
<ele>530.161</ele>
<time>2020-09-10T15:36:01Z</time>
</trkpt>
<trkpt lat="48.125301" lon="10.53254">
<ele>530.219</ele>
<time>2020-09-10T15:36:02Z</time>
</trkpt>
<trkpt lat="48.125252" lon="10.532578">
<ele>530.246</ele>
<time>2020-09-10T15:36:03Z</time>
</trkpt>
<trkpt lat="48.125206" lon="10.53262">
<ele>530.245</ele>
<time>2020-09-10T15:36:04Z</time>
</trkpt>
<trkpt lat="48.125156" lon="10.53266">
<ele>530.245</ele>
<time>2020-09-10T15:36:05Z</time>
</trkpt>
<trkpt lat="48.125114" lon="10.532703">
<ele>530.245</ele>
<time>2020-09-10T15:36:06Z</time>
</trkpt>
<trkpt lat="48.125065" lon="10.53275">
<ele>530.245</ele>
<time>2020-09-10T15:36:07Z</time>
</trkpt>
<trkpt lat="48.125023" lon="10.532798">
<ele>530.478</ele>
<time>2020-09-10T15:36:08Z</time>
</trkpt>
<trkpt lat="48.124977" lon="10.53285">
<ele>530.645</ele>
<time>2020-09-10T15:36:09Z</time>
</trkpt>
<trkpt lat="48.124931" lon="10.532902">
<ele>530.817</ele>
<time>2020-09-10T15:36:10Z</time>
</trkpt>
<trkpt lat="48.124893" lon="10.532959">
<ele>530.955</ele>
<time>2020-09-10T15:36:11Z</time>
</trkpt>
<trkpt lat="48.124855" lon="10.533018">
<ele>531.06</ele>
<time>2020-09-10T15:36:12Z</time>
</trkpt>
<trkpt lat="48.124813" lon="10.533083">
<ele>531.137</ele>
<time>2020-09-10T15:36:13Z</time>
</trkpt>
<trkpt lat="48.124779" lon="10.533152">
<ele>531.184</ele>
<time>2020-09-10T15:36:14Z</time>
</trkpt>
<trkpt lat="48.124741" lon="10.533221">
<ele>531.207</ele>
<time>2020-09-10T15:36:15Z</time>
</trkpt>
<trkpt lat="48.124699" lon="10.533292">
<ele>531.207</ele>
<time>2020-09-10T15:36:16Z</time>
</trkpt>
<trkpt lat="48.124664" lon="10.533361">
<ele>531.207</ele>
<time>2020-09-10T15:36:17Z</time>
</trkpt>
<trkpt lat="48.124626" lon="10.533431">
<ele>530.99</ele>
<time>2020-09-10T15:36:18Z</time>
</trkpt>
<trkpt lat="48.124592" lon="10.533504">
<ele>530.838</ele>
<time>2020-09-10T15:36:19Z</time>
</trkpt>
<trkpt lat="48.124557" lon="10.533573">
<ele>530.684</ele>
<time>2020-09-10T15:36:20Z</time>
</trkpt>
<trkpt lat="48.124516" lon="10.533643">
<ele>530.561</ele>
<time>2020-09-10T15:36:21Z</time>
</trkpt>
<trkpt lat="48.124477" lon="10.533715">
<ele>530.466</ele>
<time>2020-09-10T15:36:22Z</time>
</trkpt>
<trkpt lat="48.124439" lon="10.533785">
<ele>530.398</ele>
<time>2020-09-10T15:36:23Z</time>
</trkpt>
<trkpt lat="48.124401" lon="10.533858">
<ele>530.354</ele>
<time>2020-09-10T15:36:24Z</time>
</trkpt>
<trkpt lat="48.124363" lon="10.53393">
<ele>530.332</ele>
<time>2020-09-10T15:36:25Z</time>
</trkpt>
<trkpt lat="48.124325" lon="10.534002">
<ele>530.332</ele>
<time>2020-09-10T15:36:26Z</time>
</trkpt>
<trkpt lat="48.124279" lon="10.53407">
<ele>530.332</ele>
<time>2020-09-10T15:36:27Z</time>
</trkpt>
<trkpt lat="48.124241" lon="10.534141">
<ele>530.332</ele>
<time>2020-09-10T15:36:28Z</time>
</trkpt>
<trkpt lat="48.124203" lon="10.534208">
<ele>530.118</ele>
<time>2020-09-10T15:36:29Z</time>
</trkpt>
<trkpt lat="48.124161" lon="10.53428">
<ele>529.916</ele>
<time>2020-09-10T15:36:30Z</time>
</trkpt>
<trkpt lat="48.124119" lon="10.534353">
<ele>529.749</ele>
<time>2020-09-10T15:36:31Z</time>
</trkpt>
<trkpt lat="48.124077" lon="10.534424">
<ele>529.617</ele>
<time>2020-09-10T15:36:32Z</time>
</trkpt>
<trkpt lat="48.124039" lon="10.534497">
<ele>529.515</ele>
<time>2020-09-10T15:36:33Z</time>
</trkpt>
<trkpt lat="48.123993" lon="10.534569">
<ele>529.441</ele>
<time>2020-09-10T15:36:34Z</time>
</trkpt>
<trkpt lat="48.123951" lon="10.534643">
<ele>529.394</ele>
<time>2020-09-10T15:36:35Z</time>
</trkpt>
<trkpt lat="48.123913" lon="10.534717">
<ele>529.371</ele>
<time>2020-09-10T15:36:36Z</time>
</trkpt>
<trkpt lat="48.123875" lon="10.534792">
<ele>529.371</ele>
<time>2020-09-10T15:36:37Z</time>
</trkpt>
<trkpt lat="48.123837" lon="10.534868">
<ele>529.371</ele>
<time>2020-09-10T15:36:38Z</time>
</trkpt>
<trkpt lat="48.123798" lon="10.534944">
<ele>529.371</ele>
<time>2020-09-10T15:36:39Z</time>
</trkpt>
<trkpt lat="48.123764" lon="10.535019">
<ele>529.371</ele>
<time>2020-09-10T15:36:40Z</time>
</trkpt>
<trkpt lat="48.123722" lon="10.535094">
<ele>529.371</ele>
<time>2020-09-10T15:36:41Z</time>
</trkpt>
<trkpt lat="48.123688" lon="10.53517">
<ele>529.371</ele>
<time>2020-09-10T15:36:42Z</time>
</trkpt>
<trkpt lat="48.123653" lon="10.535247">
<ele>529.371</ele>
<time>2020-09-10T15:36:43Z</time>
</trkpt>
<trkpt lat="48.123615" lon="10.53532">
<ele>529.371</ele>
<time>2020-09-10T15:36:44Z</time>
</trkpt>
<trkpt lat="48.123581" lon="10.535396">
<ele>529.371</ele>
<time>2020-09-10T15:36:45Z</time>
</trkpt>
<trkpt lat="48.123543" lon="10.535469">
<ele>529.371</ele>
<time>2020-09-10T15:36:46Z</time>
</trkpt>
<trkpt lat="48.123505" lon="10.535542">
<ele>529.371</ele>
<time>2020-09-10T15:36:47Z</time>
</trkpt>
<trkpt lat="48.123466" lon="10.535615">
<ele>529.371</ele>
<time>2020-09-10T15:36:48Z</time>
</trkpt>
<trkpt lat="48.123428" lon="10.535688">
<ele>529.371</ele>
<time>2020-09-10T15:36:49Z</time>
</trkpt>
<trkpt lat="48.12339" lon="10.535758">
<ele>529.371</ele>
<time>2020-09-10T15:36:50Z</time>
</trkpt>
<trkpt lat="48.123356" lon="10.535828">
<ele>529.371</ele>
<time>2020-09-10T15:36:51Z</time>
</trkpt>
<trkpt lat="48.123314" lon="10.5359">
<ele>529.371</ele>
<time>2020-09-10T15:36:52Z</time>
</trkpt>
<trkpt lat="48.123276" lon="10.53597">
<ele>529.371</ele>
<time>2020-09-10T15:36:53Z</time>
</trkpt>
<trkpt lat="48.123238" lon="10.536038">
<ele>529.371</ele>
<time>2020-09-10T15:36:54Z</time>
</trkpt>
<trkpt lat="48.123203" lon="10.536108">
<ele>529.371</ele>
<time>2020-09-10T15:36:55Z</time>
</trkpt>
<trkpt lat="48.123165" lon="10.53618">
<ele>529.371</ele>
<time>2020-09-10T15:36:56Z</time>
</trkpt>
<trkpt lat="48.123131" lon="10.536251">
<ele>529.371</ele>
<time>2020-09-10T15:36:57Z</time>
</trkpt>
<trkpt lat="48.1231" lon="10.536324">
<ele>529.371</ele>
<time>2020-09-10T15:36:58Z</time>
</trkpt>
<trkpt lat="48.123062" lon="10.536393">
<ele>529.371</ele>
<time>2020-09-10T15:36:59Z</time>
</trkpt>
<trkpt lat="48.123028" lon="10.536462">
<ele>529.371</ele>
<time>2020-09-10T15:37:00Z</time>
</trkpt>
<trkpt lat="48.122993" lon="10.536531">
<ele>529.371</ele>
<time>2020-09-10T15:37:01Z</time>
</trkpt>
<trkpt lat="48.122959" lon="10.536602">
<ele>529.371</ele>
<time>2020-09-10T15:37:02Z</time>
</trkpt>
<trkpt lat="48.122929" lon="10.536674">
<ele>529.371</ele>
<time>2020-09-10T15:37:03Z</time>
</trkpt>
<trkpt lat="48.122894" lon="10.536749">
<ele>529.371</ele>
<time>2020-09-10T15:37:04Z</time>
</trkpt>
<trkpt lat="48.122864" lon="10.536823">
<ele>529.371</ele>
<time>2020-09-10T15:37:05Z</time>
</trkpt>
<trkpt lat="48.122837" lon="10.536897">
<ele>529.371</ele>
<time>2020-09-10T15:37:06Z</time>
</trkpt>
<trkpt lat="48.122807" lon="10.536967">
<ele>529.371</ele>
<time>2020-09-10T15:37:07Z</time>
</trkpt>
<trkpt lat="48.122784" lon="10.537043">
<ele>529.371</ele>
<time>2020-09-10T15:37:08Z</time>
</trkpt>
<trkpt lat="48.122757" lon="10.537124">
<ele>529.371</ele>
<time>2020-09-10T15:37:09Z</time>
</trkpt>
<trkpt lat="48.122726" lon="10.537198">
<ele>529.371</ele>
<time>2020-09-10T15:37:10Z</time>
</trkpt>
<trkpt lat="48.122692" lon="10.537273">
<ele>529.371</ele>
<time>2020-09-10T15:37:11Z</time>
</trkpt>
<trkpt lat="48.122665" lon="10.537352">
<ele>529.371</ele>
<time>2020-09-10T15:37:12Z</time>
</trkpt>
<trkpt lat="48.122631" lon="10.537428">
<ele>529.371</ele>
<time>2020-09-10T15:37:13Z</time>
</trkpt>
<trkpt lat="48.122601" lon="10.53751">
<ele>529.371</ele>
<time>2020-09-10T15:37:14Z</time>
</trkpt>
<trkpt lat="48.12257" lon="10.537588">
<ele>529.371</ele>
<time>2020-09-10T15:37:15Z</time>
</trkpt>
<trkpt lat="48.122543" lon="10.537662">
<ele>529.371</ele>
<time>2020-09-10T15:37:16Z</time>
</trkpt>
<trkpt lat="48.122513" lon="10.537732">
<ele>529.371</ele>
<time>2020-09-10T15:37:17Z</time>
</trkpt>
<trkpt lat="48.122478" lon="10.537802">
<ele>529.371</ele>
<time>2020-09-10T15:37:18Z</time>
</trkpt>
<trkpt lat="48.122448" lon="10.537868">
<ele>529.371</ele>
<time>2020-09-10T15:37:19Z</time>
</trkpt>
<trkpt lat="48.122398" lon="10.53793">
<ele>529.371</ele>
<time>2020-09-10T15:37:20Z</time>
</trkpt>
<trkpt lat="48.122353" lon="10.537977">
<ele>529.371</ele>
<time>2020-09-10T15:37:21Z</time>
</trkpt>
<trkpt lat="48.122311" lon="10.538012">
<ele>529.371</ele>
<time>2020-09-10T15:37:22Z</time>
</trkpt>
<trkpt lat="48.122257" lon="10.53804">
<ele>529.371</ele>
<time>2020-09-10T15:37:23Z</time>
</trkpt>
<trkpt lat="48.122208" lon="10.53804">
<ele>529.371</ele>
<time>2020-09-10T15:37:24Z</time>
</trkpt>
<trkpt lat="48.122154" lon="10.538047">
<ele>529.371</ele>
<time>2020-09-10T15:37:25Z</time>
</trkpt>
<trkpt lat="48.122101" lon="10.538042">
<ele>529.371</ele>
<time>2020-09-10T15:37:26Z</time>
</trkpt>
<trkpt lat="48.122047" lon="10.538051">
<ele>529.371</ele>
<time>2020-09-10T15:37:27Z</time>
</trkpt>
<trkpt lat="48.121986" lon="10.538058">
<ele>529.371</ele>
<time>2020-09-10T15:37:28Z</time>
</trkpt>
<trkpt lat="48.121929" lon="10.538072">
<ele>529.371</ele>
<time>2020-09-10T15:37:29Z</time>
</trkpt>
<trkpt lat="48.121868" lon="10.5381">
<ele>529.371</ele>
<time>2020-09-10T15:37:30Z</time>
</trkpt>
<trkpt lat="48.121811" lon="10.538138">
<ele>529.371</ele>
<time>2020-09-10T15:37:31Z</time>
</trkpt>
<trkpt lat="48.121761" lon="10.538189">
<ele>529.371</ele>
<time>2020-09-10T15:37:32Z</time>
</trkpt>
<trkpt lat="48.121719" lon="10.538252">
<ele>529.371</ele>
<time>2020-09-10T15:37:33Z</time>
</trkpt>
<trkpt lat="48.121685" lon="10.538325">
<ele>529.371</ele>
<time>2020-09-10T15:37:34Z</time>
</trkpt>
<trkpt lat="48.121658" lon="10.538404">
<ele>529.371</ele>
<time>2020-09-10T15:37:35Z</time>
</trkpt>
<trkpt lat="48.121639" lon="10.538488">
<ele>529.371</ele>
<time>2020-09-10T15:37:36Z</time>
</trkpt>
<trkpt lat="48.121624" lon="10.538572">
<ele>529.371</ele>
<time>2020-09-10T15:37:37Z</time>
</trkpt>
<trkpt lat="48.121601" lon="10.53865">
<ele>529.371</ele>
<time>2020-09-10T15:37:38Z</time>
</trkpt>
<trkpt lat="48.121582" lon="10.538729">
<ele>529.371</ele>
<time>2020-09-10T15:37:39Z</time>
</trkpt>
<trkpt lat="48.121567" lon="10.538812">
<ele>529.371</ele>
<time>2020-09-10T15:37:40Z</time>
</trkpt>
<trkpt lat="48.121555" lon="10.538897">
<ele>529.371</ele>
<time>2020-09-10T15:37:41Z</time>
</trkpt>
<trkpt lat="48.12154" lon="10.538979">
<ele>529.371</ele>
<time>2020-09-10T15:37:42Z</time>
</trkpt>
<trkpt lat="48.121529" lon="10.539059">
<ele>529.371</ele>
<time>2020-09-10T15:37:43Z</time>
</trkpt>
<trkpt lat="48.12151" lon="10.53914">
<ele>529.371</ele>
<time>2020-09-10T15:37:44Z</time>
</trkpt>
<trkpt lat="48.121498" lon="10.53922">
<ele>529.371</ele>
<time>2020-09-10T15:37:45Z</time>
</trkpt>
<trkpt lat="48.121483" lon="10.539303">
<ele>529.371</ele>
<time>2020-09-10T15:37:46Z</time>
</trkpt>
<trkpt lat="48.121468" lon="10.539392">
<ele>529.371</ele>
<time>2020-09-10T15:37:47Z</time>
</trkpt>
<trkpt lat="48.121452" lon="10.539478">
<ele>529.585</ele>
<time>2020-09-10T15:37:48Z</time>
</trkpt>
<trkpt lat="48.121437" lon="10.539561">
<ele>529.738</ele>
<time>2020-09-10T15:37:49Z</time>
</trkpt>
<trkpt lat="48.121422" lon="10.539641">
<ele>529.896</ele>
<time>2020-09-10T15:37:50Z</time>
</trkpt>
<trkpt lat="48.121403" lon="10.539717">
<ele>530.02</ele>
<time>2020-09-10T15:37:51Z</time>
</trkpt>
<trkpt lat="48.121376" lon="10.539791">
<ele>530.113</ele>
<time>2020-09-10T15:37:52Z</time>
</trkpt>
<trkpt lat="48.121349" lon="10.539859">
<ele>530.181</ele>
<time>2020-09-10T15:37:53Z</time>
</trkpt>
<trkpt lat="48.121315" lon="10.539915">
<ele>530.224</ele>
<time>2020-09-10T15:37:54Z</time>
</trkpt>
<trkpt lat="48.121284" lon="10.539971">
<ele>530.245</ele>
<time>2020-09-10T15:37:55Z</time>
</trkpt>
<trkpt lat="48.12125" lon="10.54003">
<ele>530.245</ele>
<time>2020-09-10T15:37:56Z</time>
</trkpt>
<trkpt lat="48.121212" lon="10.540082">
<ele>530.245</ele>
<time>2020-09-10T15:37:57Z</time>
</trkpt>
<trkpt lat="48.121174" lon="10.540131">
<ele>530.495</ele>
<time>2020-09-10T15:37:58Z</time>
</trkpt>
<trkpt lat="48.121128" lon="10.540167">
<ele>530.677</ele>
<time>2020-09-10T15:37:59Z</time>
</trkpt>
<trkpt lat="48.121075" lon="10.540195">
<ele>530.865</ele>
<time>2020-09-10T15:38:00Z</time>
</trkpt>
<trkpt lat="48.121017" lon="10.540242">
<ele>531.021</ele>
<time>2020-09-10T15:38:01Z</time>
</trkpt>
<trkpt lat="48.120964" lon="10.540274">
<ele>531.137</ele>
<time>2020-09-10T15:38:02Z</time>
</trkpt>
<trkpt lat="48.120914" lon="10.540272">
<ele>531.22</ele>
<time>2020-09-10T15:38:03Z</time>
</trkpt>
<trkpt lat="48.120857" lon="10.54027">
<ele>531.27</ele>
<time>2020-09-10T15:38:04Z</time>
</trkpt>
<trkpt lat="48.1208" lon="10.540276">
<ele>531.294</ele>
<time>2020-09-10T15:38:05Z</time>
</trkpt>
<trkpt lat="48.120747" lon="10.540276">
<ele>531.294</ele>
<time>2020-09-10T15:38:06Z</time>
</trkpt>
<trkpt lat="48.120689" lon="10.540279">
<ele>531.294</ele>
<time>2020-09-10T15:38:07Z</time>
</trkpt>
<trkpt lat="48.120636" lon="10.540286">
<ele>531.294</ele>
<time>2020-09-10T15:38:08Z</time>
</trkpt>
<trkpt lat="48.120583" lon="10.540312">
<ele>531.294</ele>
<time>2020-09-10T15:38:09Z</time>
</trkpt>
<trkpt lat="48.120522" lon="10.540348">
<ele>531.294</ele>
<time>2020-09-10T15:38:10Z</time>
</trkpt>
<trkpt lat="48.120461" lon="10.540386">
<ele>531.647</ele>
<time>2020-09-10T15:38:11Z</time>
</trkpt>
<trkpt lat="48.120403" lon="10.540428">
<ele>531.91</ele>
<time>2020-09-10T15:38:12Z</time>
</trkpt>
<trkpt lat="48.12035" lon="10.540473">
<ele>532.105</ele>
<time>2020-09-10T15:38:13Z</time>
</trkpt>
<trkpt lat="48.1203" lon="10.540517">
<ele>532.254</ele>
<time>2020-09-10T15:38:14Z</time>
</trkpt>
<trkpt lat="48.120247" lon="10.540565">
<ele>532.349</ele>
<time>2020-09-10T15:38:15Z</time>
</trkpt>
<trkpt lat="48.120197" lon="10.540617">
<ele>532.406</ele>
<time>2020-09-10T15:38:16Z</time>
</trkpt>
<trkpt lat="48.120155" lon="10.540669">
<ele>532.431</ele>
<time>2020-09-10T15:38:17Z</time>
</trkpt>
<trkpt lat="48.120106" lon="10.540726">
<ele>532.431</ele>
<time>2020-09-10T15:38:18Z</time>
</trkpt>
<trkpt lat="48.12006" lon="10.540778">
<ele>532.431</ele>
<time>2020-09-10T15:38:19Z</time>
</trkpt>
<trkpt lat="48.12001" lon="10.54082">
<ele>532.431</ele>
<time>2020-09-10T15:38:20Z</time>
</trkpt>
<trkpt lat="48.119957" lon="10.540848">
<ele>532.431</ele>
<time>2020-09-10T15:38:21Z</time>
</trkpt>
<trkpt lat="48.1199" lon="10.54085">
<ele>532.431</ele>
<time>2020-09-10T15:38:22Z</time>
</trkpt>
<trkpt lat="48.119839" lon="10.540827">
<ele>532.431</ele>
<time>2020-09-10T15:38:23Z</time>
</trkpt>
<trkpt lat="48.119789" lon="10.540789">
<ele>532.193</ele>
<time>2020-09-10T15:38:24Z</time>
</trkpt>
<trkpt lat="48.119751" lon="10.540733">
<ele>532.007</ele>
<time>2020-09-10T15:38:25Z</time>
</trkpt>
<trkpt lat="48.119717" lon="10.540675">
<ele>531.867</ele>
<time>2020-09-10T15:38:26Z</time>
</trkpt>
<trkpt lat="48.119671" lon="10.540633">
<ele>531.762</ele>
<time>2020-09-10T15:38:27Z</time>
</trkpt>
<trkpt lat="48.119614" lon="10.540604">
<ele>531.686</ele>
<time>2020-09-10T15:38:28Z</time>
</trkpt>
<trkpt lat="48.119553" lon="10.54058">
<ele>531.631</ele>
<time>2020-09-10T15:38:29Z</time>
</trkpt>
<trkpt lat="48.119495" lon="10.54056">
<ele>531.58</ele>
<time>2020-09-10T15:38:30Z</time>
</trkpt>
<trkpt lat="48.119442" lon="10.540546">
<ele>531.556</ele>
<time>2020-09-10T15:38:31Z</time>
</trkpt>
<trkpt lat="48.119381" lon="10.540546">
<ele>531.556</ele>
<time>2020-09-10T15:38:32Z</time>
</trkpt>
<trkpt lat="48.119328" lon="10.540554">
<ele>531.556</ele>
<time>2020-09-10T15:38:33Z</time>
</trkpt>
<trkpt lat="48.119286" lon="10.540555">
<ele>531.556</ele>
<time>2020-09-10T15:38:34Z</time>
</trkpt>
<trkpt lat="48.119251" lon="10.54055">
<ele>531.556</ele>
<time>2020-09-10T15:38:35Z</time>
</trkpt>
<trkpt lat="48.119221" lon="10.54055">
<ele>531.556</ele>
<time>2020-09-10T15:38:36Z</time>
</trkpt>
<trkpt lat="48.119194" lon="10.540552">
<ele>531.556</ele>
<time>2020-09-10T15:38:37Z</time>
</trkpt>
<trkpt lat="48.119164" lon="10.54056">
<ele>531.556</ele>
<time>2020-09-10T15:38:38Z</time>
</trkpt>
<trkpt lat="48.119129" lon="10.540575">
<ele>531.556</ele>
<time>2020-09-10T15:38:39Z</time>
</trkpt>
<trkpt lat="48.119087" lon="10.5406">
<ele>531.556</ele>
<time>2020-09-10T15:38:40Z</time>
</trkpt>
<trkpt lat="48.119041" lon="10.540626">
<ele>531.556</ele>
<time>2020-09-10T15:38:41Z</time>
</trkpt>
<trkpt lat="48.118992" lon="10.540647">
<ele>531.26</ele>
<time>2020-09-10T15:38:42Z</time>
</trkpt>
<trkpt lat="48.118938" lon="10.540668">
<ele>531.013</ele>
<time>2020-09-10T15:38:43Z</time>
</trkpt>
<trkpt lat="48.118885" lon="10.540687">
<ele>530.845</ele>
<time>2020-09-10T15:38:44Z</time>
</trkpt>
<trkpt lat="48.118828" lon="10.540702">
<ele>530.74</ele>
<time>2020-09-10T15:38:45Z</time>
</trkpt>
<trkpt lat="48.118771" lon="10.54072">
<ele>530.672</ele>
<time>2020-09-10T15:38:46Z</time>
</trkpt>
<trkpt lat="48.118713" lon="10.540742">
<ele>530.633</ele>
<time>2020-09-10T15:38:47Z</time>
</trkpt>
<trkpt lat="48.118664" lon="10.540762">
<ele>530.614</ele>
<time>2020-09-10T15:38:48Z</time>
</trkpt>
<trkpt lat="48.118603" lon="10.540789">
<ele>530.595</ele>
<time>2020-09-10T15:38:49Z</time>
</trkpt>
<trkpt lat="48.118549" lon="10.540818">
<ele>530.595</ele>
<time>2020-09-10T15:38:50Z</time>
</trkpt>
<trkpt lat="48.1185" lon="10.54085">
<ele>530.595</ele>
<time>2020-09-10T15:38:51Z</time>
</trkpt>
<trkpt lat="48.118443" lon="10.540883">
<ele>530.595</ele>
<time>2020-09-10T15:38:52Z</time>
</trkpt>
<trkpt lat="48.118397" lon="10.540918">
<ele>530.595</ele>
<time>2020-09-10T15:38:53Z</time>
</trkpt>
<trkpt lat="48.118343" lon="10.540956">
<ele>530.595</ele>
<time>2020-09-10T15:38:54Z</time>
</trkpt>
<trkpt lat="48.118298" lon="10.540994">
<ele>530.595</ele>
<time>2020-09-10T15:38:55Z</time>
</trkpt>
<trkpt lat="48.118248" lon="10.541032">
<ele>530.595</ele>
<time>2020-09-10T15:38:56Z</time>
</trkpt>
<trkpt lat="48.118206" lon="10.541076">
<ele>530.595</ele>
<time>2020-09-10T15:38:57Z</time>
</trkpt>
<trkpt lat="48.118156" lon="10.541118">
<ele>530.595</ele>
<time>2020-09-10T15:38:58Z</time>
</trkpt>
<trkpt lat="48.118111" lon="10.541163">
<ele>530.595</ele>
<time>2020-09-10T15:38:59Z</time>
</trkpt>
<trkpt lat="48.118061" lon="10.541208">
<ele>530.595</ele>
<time>2020-09-10T15:39:00Z</time>
</trkpt>
<trkpt lat="48.118011" lon="10.541253">
<ele>530.595</ele>
<time>2020-09-10T15:39:01Z</time>
</trkpt>
<trkpt lat="48.117966" lon="10.5413">
<ele>530.595</ele>
<time>2020-09-10T15:39:02Z</time>
</trkpt>
<trkpt lat="48.11792" lon="10.541347">
<ele>530.595</ele>
<time>2020-09-10T15:39:03Z</time>
</trkpt>
<trkpt lat="48.117878" lon="10.541393">
<ele>530.595</ele>
<time>2020-09-10T15:39:04Z</time>
</trkpt>
<trkpt lat="48.117832" lon="10.541442">
<ele>530.595</ele>
<time>2020-09-10T15:39:05Z</time>
</trkpt>
<trkpt lat="48.117794" lon="10.541495">
<ele>530.595</ele>
<time>2020-09-10T15:39:06Z</time>
</trkpt>
<trkpt lat="48.117752" lon="10.54155">
<ele>530.595</ele>
<time>2020-09-10T15:39:07Z</time>
</trkpt>
<trkpt lat="48.11771" lon="10.541603">
<ele>530.595</ele>
<time>2020-09-10T15:39:08Z</time>
</trkpt>
<trkpt lat="48.117664" lon="10.541655">
<ele>530.595</ele>
<time>2020-09-10T15:39:09Z</time>
</trkpt>
<trkpt lat="48.117622" lon="10.541712">
<ele>530.595</ele>
<time>2020-09-10T15:39:10Z</time>
</trkpt>
<trkpt lat="48.117584" lon="10.54177">
<ele>530.595</ele>
<time>2020-09-10T15:39:11Z</time>
</trkpt>
<trkpt lat="48.117538" lon="10.541821">
<ele>530.595</ele>
<time>2020-09-10T15:39:12Z</time>
</trkpt>
<trkpt lat="48.117493" lon="10.541877">
<ele>530.595</ele>
<time>2020-09-10T15:39:13Z</time>
</trkpt>
<trkpt lat="48.117455" lon="10.541926">
<ele>530.858</ele>
<time>2020-09-10T15:39:14Z</time>
</trkpt>
<trkpt lat="48.117409" lon="10.541979">
<ele>531.06</ele>
<time>2020-09-10T15:39:15Z</time>
</trkpt>
<trkpt lat="48.117367" lon="10.54203">
<ele>531.213</ele>
<time>2020-09-10T15:39:16Z</time>
</trkpt>
<trkpt lat="48.117325" lon="10.542084">
<ele>531.33</ele>
<time>2020-09-10T15:39:17Z</time>
</trkpt>
<trkpt lat="48.117275" lon="10.542135">
<ele>531.414</ele>
<time>2020-09-10T15:39:18Z</time>
</trkpt>
<trkpt lat="48.117229" lon="10.542182">
<ele>531.475</ele>
<time>2020-09-10T15:39:19Z</time>
</trkpt>
<trkpt lat="48.117184" lon="10.542227">
<ele>531.531</ele>
<time>2020-09-10T15:39:20Z</time>
</trkpt>
<trkpt lat="48.117134" lon="10.542268">
<ele>531.556</ele>
<time>2020-09-10T15:39:21Z</time>
</trkpt>
<trkpt lat="48.117088" lon="10.542308">
<ele>531.556</ele>
<time>2020-09-10T15:39:22Z</time>
</trkpt>
<trkpt lat="48.117035" lon="10.542352">
<ele>531.556</ele>
<time>2020-09-10T15:39:23Z</time>
</trkpt>
<trkpt lat="48.116989" lon="10.542397">
<ele>531.819</ele>
<time>2020-09-10T15:39:24Z</time>
</trkpt>
<trkpt lat="48.11694" lon="10.542443">
<ele>532.021</ele>
<time>2020-09-10T15:39:25Z</time>
</trkpt>
<trkpt lat="48.116894" lon="10.542483">
<ele>532.18</ele>
<time>2020-09-10T15:39:26Z</time>
</trkpt>
<trkpt lat="48.11684" lon="10.542523">
<ele>532.294</ele>
<time>2020-09-10T15:39:27Z</time>
</trkpt>
<trkpt lat="48.116795" lon="10.542563">
<ele>532.378</ele>
<time>2020-09-10T15:39:28Z</time>
</trkpt>
<trkpt lat="48.116749" lon="10.542605">
<ele>532.438</ele>
<time>2020-09-10T15:39:29Z</time>
</trkpt>
<trkpt lat="48.116699" lon="10.542646">
<ele>532.492</ele>
<time>2020-09-10T15:39:30Z</time>
</trkpt>
<trkpt lat="48.116653" lon="10.542686">
<ele>532.518</ele>
<time>2020-09-10T15:39:31Z</time>
</trkpt>
<trkpt lat="48.116608" lon="10.542727">
<ele>532.518</ele>
<time>2020-09-10T15:39:32Z</time>
</trkpt>
<trkpt lat="48.116558" lon="10.542767">
<ele>532.518</ele>
<time>2020-09-10T15:39:33Z</time>
</trkpt>
<trkpt lat="48.116512" lon="10.542807">
<ele>532.518</ele>
<time>2020-09-10T15:39:34Z</time>
</trkpt>
<trkpt lat="48.11647" lon="10.542844">
<ele>532.518</ele>
<time>2020-09-10T15:39:35Z</time>
</trkpt>
<trkpt lat="48.116421" lon="10.542878">
<ele>532.518</ele>
<time>2020-09-10T15:39:36Z</time>
</trkpt>
<trkpt lat="48.116375" lon="10.542913">
<ele>532.518</ele>
<time>2020-09-10T15:39:37Z</time>
</trkpt>
<trkpt lat="48.116322" lon="10.542947">
<ele>532.518</ele>
<time>2020-09-10T15:39:38Z</time>
</trkpt>
<trkpt lat="48.116272" lon="10.542982">
<ele>532.712</ele>
<time>2020-09-10T15:39:39Z</time>
</trkpt>
<trkpt lat="48.116219" lon="10.543014">
<ele>532.898</ele>
<time>2020-09-10T15:39:40Z</time>
</trkpt>
<trkpt lat="48.116165" lon="10.543043">
<ele>533.051</ele>
<time>2020-09-10T15:39:41Z</time>
</trkpt>
<trkpt lat="48.116112" lon="10.543072">
<ele>533.173</ele>
<time>2020-09-10T15:39:42Z</time>
</trkpt>
<trkpt lat="48.116058" lon="10.543097">
<ele>533.266</ele>
<time>2020-09-10T15:39:43Z</time>
</trkpt>
<trkpt lat="48.116001" lon="10.543125">
<ele>533.331</ele>
<time>2020-09-10T15:39:44Z</time>
</trkpt>
<trkpt lat="48.115948" lon="10.543148">
<ele>533.372</ele>
<time>2020-09-10T15:39:45Z</time>
</trkpt>
<trkpt lat="48.115894" lon="10.543171">
<ele>533.393</ele>
<time>2020-09-10T15:39:46Z</time>
</trkpt>
<trkpt lat="48.115841" lon="10.543197">
<ele>533.392</ele>
<time>2020-09-10T15:39:47Z</time>
</trkpt>
<trkpt lat="48.115791" lon="10.543221">
<ele>533.392</ele>
<time>2020-09-10T15:39:48Z</time>
</trkpt>
<trkpt lat="48.115738" lon="10.543252">
<ele>533.393</ele>
<time>2020-09-10T15:39:49Z</time>
</trkpt>
<trkpt lat="48.115688" lon="10.54328">
<ele>533.392</ele>
<time>2020-09-10T15:39:50Z</time>
</trkpt>
<trkpt lat="48.115635" lon="10.543308">
<ele>533.392</ele>
<time>2020-09-10T15:39:51Z</time>
</trkpt>
<trkpt lat="48.115582" lon="10.543337">
<ele>533.393</ele>
<time>2020-09-10T15:39:52Z</time>
</trkpt>
<trkpt lat="48.115536" lon="10.54337">
<ele>533.392</ele>
<time>2020-09-10T15:39:53Z</time>
</trkpt>
<trkpt lat="48.115482" lon="10.543406">
<ele>533.392</ele>
<time>2020-09-10T15:39:54Z</time>
</trkpt>
<trkpt lat="48.115437" lon="10.543439">
<ele>533.393</ele>
<time>2020-09-10T15:39:55Z</time>
</trkpt>
<trkpt lat="48.115383" lon="10.543473">
<ele>533.392</ele>
<time>2020-09-10T15:39:56Z</time>
</trkpt>
<trkpt lat="48.115334" lon="10.543509">
<ele>533.392</ele>
<time>2020-09-10T15:39:57Z</time>
</trkpt>
<trkpt lat="48.115288" lon="10.543544">
<ele>533.392</ele>
<time>2020-09-10T15:39:58Z</time>
</trkpt>
<trkpt lat="48.115238" lon="10.543578">
<ele>533.392</ele>
<time>2020-09-10T15:39:59Z</time>
</trkpt>
<trkpt lat="48.115189" lon="10.543612">
<ele>533.392</ele>
<time>2020-09-10T15:40:00Z</time>
</trkpt>
<trkpt lat="48.115143" lon="10.543647">
<ele>533.392</ele>
<time>2020-09-10T15:40:01Z</time>
</trkpt>
<trkpt lat="48.115097" lon="10.543682">
<ele>533.392</ele>
<time>2020-09-10T15:40:02Z</time>
</trkpt>
<trkpt lat="48.115051" lon="10.543717">
<ele>533.392</ele>
<time>2020-09-10T15:40:03Z</time>
</trkpt>
<trkpt lat="48.115009" lon="10.543752">
<ele>533.393</ele>
<time>2020-09-10T15:40:04Z</time>
</trkpt>
<trkpt lat="48.11496" lon="10.543787">
<ele>533.393</ele>
<time>2020-09-10T15:40:05Z</time>
</trkpt>
<trkpt lat="48.114918" lon="10.543822">
<ele>533.393</ele>
<time>2020-09-10T15:40:06Z</time>
</trkpt>
<trkpt lat="48.114868" lon="10.543857">
<ele>533.392</ele>
<time>2020-09-10T15:40:07Z</time>
</trkpt>
<trkpt lat="48.114819" lon="10.543892">
<ele>533.392</ele>
<time>2020-09-10T15:40:08Z</time>
</trkpt>
<trkpt lat="48.114773" lon="10.543929">
<ele>533.392</ele>
<time>2020-09-10T15:40:09Z</time>
</trkpt>
<trkpt lat="48.114727" lon="10.543962">
<ele>533.628</ele>
<time>2020-09-10T15:40:10Z</time>
</trkpt>
<trkpt lat="48.114681" lon="10.543992">
<ele>533.823</ele>
<time>2020-09-10T15:40:11Z</time>
</trkpt>
<trkpt lat="48.114632" lon="10.544022">
<ele>533.985</ele>
<time>2020-09-10T15:40:12Z</time>
</trkpt>
<trkpt lat="48.114586" lon="10.544051">
<ele>534.113</ele>
<time>2020-09-10T15:40:13Z</time>
</trkpt>
<trkpt lat="48.114536" lon="10.544084">
<ele>534.194</ele>
<time>2020-09-10T15:40:14Z</time>
</trkpt>
<trkpt lat="48.114491" lon="10.544115">
<ele>534.53</ele>
<time>2020-09-10T15:40:15Z</time>
</trkpt>
<trkpt lat="48.114441" lon="10.544145">
<ele>534.799</ele>
<time>2020-09-10T15:40:16Z</time>
</trkpt>
<trkpt lat="48.114395" lon="10.544178">
<ele>535.001</ele>
<time>2020-09-10T15:40:17Z</time>
</trkpt>
<trkpt lat="48.114342" lon="10.544213">
<ele>535.144</ele>
<time>2020-09-10T15:40:18Z</time>
</trkpt>
<trkpt lat="48.114296" lon="10.544248">
<ele>535.231</ele>
<time>2020-09-10T15:40:19Z</time>
</trkpt>
<trkpt lat="48.114246" lon="10.544285">
<ele>535.32</ele>
<time>2020-09-10T15:40:20Z</time>
</trkpt>
<trkpt lat="48.114197" lon="10.544325">
<ele>535.376</ele>
<time>2020-09-10T15:40:21Z</time>
</trkpt>
<trkpt lat="48.114151" lon="10.544367">
<ele>535.403</ele>
<time>2020-09-10T15:40:22Z</time>
</trkpt>
<trkpt lat="48.114105" lon="10.544412">
<ele>535.403</ele>
<time>2020-09-10T15:40:23Z</time>
</trkpt>
<trkpt lat="48.114059" lon="10.544456">
<ele>535.403</ele>
<time>2020-09-10T15:40:24Z</time>
</trkpt>
<trkpt lat="48.114017" lon="10.544503">
<ele>535.403</ele>
<time>2020-09-10T15:40:25Z</time>
</trkpt>
<trkpt lat="48.113972" lon="10.54455">
<ele>535.403</ele>
<time>2020-09-10T15:40:26Z</time>
</trkpt>
<trkpt lat="48.113926" lon="10.544598">
<ele>535.403</ele>
<time>2020-09-10T15:40:27Z</time>
</trkpt>
<trkpt lat="48.113884" lon="10.544645">
<ele>535.403</ele>
<time>2020-09-10T15:40:28Z</time>
</trkpt>
<trkpt lat="48.113838" lon="10.54469">
<ele>535.403</ele>
<time>2020-09-10T15:40:29Z</time>
</trkpt>
<trkpt lat="48.113792" lon="10.544735">
<ele>535.403</ele>
<time>2020-09-10T15:40:30Z</time>
</trkpt>
<trkpt lat="48.11375" lon="10.544778">
<ele>535.403</ele>
<time>2020-09-10T15:40:31Z</time>
</trkpt>
<trkpt lat="48.113705" lon="10.544824">
<ele>535.403</ele>
<time>2020-09-10T15:40:32Z</time>
</trkpt>
<trkpt lat="48.113659" lon="10.544867">
<ele>535.403</ele>
<time>2020-09-10T15:40:33Z</time>
</trkpt>
<trkpt lat="48.113613" lon="10.544909">
<ele>535.403</ele>
<time>2020-09-10T15:40:34Z</time>
</trkpt>
<trkpt lat="48.113571" lon="10.544953">
<ele>535.403</ele>
<time>2020-09-10T15:40:35Z</time>
</trkpt>
<trkpt lat="48.113525" lon="10.544995">
<ele>535.403</ele>
<time>2020-09-10T15:40:36Z</time>
</trkpt>
<trkpt lat="48.11348" lon="10.545035">
<ele>535.403</ele>
<time>2020-09-10T15:40:37Z</time>
</trkpt>
<trkpt lat="48.113434" lon="10.545078">
<ele>535.403</ele>
<time>2020-09-10T15:40:38Z</time>
</trkpt>
<trkpt lat="48.113388" lon="10.545118">
<ele>535.403</ele>
<time>2020-09-10T15:40:39Z</time>
</trkpt>
<trkpt lat="48.113346" lon="10.545158">
<ele>535.403</ele>
<time>2020-09-10T15:40:40Z</time>
</trkpt>
<trkpt lat="48.1133" lon="10.5452">
<ele>535.403</ele>
<time>2020-09-10T15:40:41Z</time>
</trkpt>
<trkpt lat="48.113255" lon="10.545241">
<ele>535.403</ele>
<time>2020-09-10T15:40:42Z</time>
</trkpt>
<trkpt lat="48.113209" lon="10.54528">
<ele>535.403</ele>
<time>2020-09-10T15:40:43Z</time>
</trkpt>
<trkpt lat="48.113159" lon="10.545317">
<ele>535.403</ele>
<time>2020-09-10T15:40:44Z</time>
</trkpt>
<trkpt lat="48.113121" lon="10.545354">
<ele>535.403</ele>
<time>2020-09-10T15:40:45Z</time>
</trkpt>
<trkpt lat="48.113075" lon="10.54539">
<ele>535.403</ele>
<time>2020-09-10T15:40:46Z</time>
</trkpt>
<trkpt lat="48.113029" lon="10.545425">
<ele>535.403</ele>
<time>2020-09-10T15:40:47Z</time>
</trkpt>
<trkpt lat="48.112988" lon="10.545459">
<ele>535.634</ele>
<time>2020-09-10T15:40:48Z</time>
</trkpt>
<trkpt lat="48.112942" lon="10.545492">
<ele>535.8</ele>
<time>2020-09-10T15:40:49Z</time>
</trkpt>
<trkpt lat="48.112896" lon="10.545524">
<ele>535.97</ele>
<time>2020-09-10T15:40:50Z</time>
</trkpt>
<trkpt lat="48.112854" lon="10.545557">
<ele>536.107</ele>
<time>2020-09-10T15:40:51Z</time>
</trkpt>
<trkpt lat="48.112804" lon="10.54559">
<ele>536.215</ele>
<time>2020-09-10T15:40:52Z</time>
</trkpt>
<trkpt lat="48.112762" lon="10.545624">
<ele>536.293</ele>
<time>2020-09-10T15:40:53Z</time>
</trkpt>
<trkpt lat="48.112713" lon="10.545655">
<ele>536.342</ele>
<time>2020-09-10T15:40:54Z</time>
</trkpt>
<trkpt lat="48.112667" lon="10.545687">
<ele>536.365</ele>
<time>2020-09-10T15:40:55Z</time>
</trkpt>
<trkpt lat="48.112617" lon="10.54572">
<ele>536.365</ele>
<time>2020-09-10T15:40:56Z</time>
</trkpt>
<trkpt lat="48.112568" lon="10.545753">
<ele>536.365</ele>
<time>2020-09-10T15:40:57Z</time>
</trkpt>
<trkpt lat="48.112522" lon="10.545787">
<ele>536.365</ele>
<time>2020-09-10T15:40:58Z</time>
</trkpt>
<trkpt lat="48.112473" lon="10.545821">
<ele>536.365</ele>
<time>2020-09-10T15:40:59Z</time>
</trkpt>
<trkpt lat="48.112427" lon="10.545855">
<ele>536.365</ele>
<time>2020-09-10T15:41:00Z</time>
</trkpt>
<trkpt lat="48.112377" lon="10.545892">
<ele>536.365</ele>
<time>2020-09-10T15:41:01Z</time>
</trkpt>
<trkpt lat="48.112331" lon="10.545932">
<ele>536.365</ele>
<time>2020-09-10T15:41:02Z</time>
</trkpt>
<trkpt lat="48.112282" lon="10.54597">
<ele>536.365</ele>
<time>2020-09-10T15:41:03Z</time>
</trkpt>
<trkpt lat="48.112236" lon="10.54601">
<ele>536.365</ele>
<time>2020-09-10T15:41:04Z</time>
</trkpt>
<trkpt lat="48.112183" lon="10.546052">
<ele>536.365</ele>
<time>2020-09-10T15:41:05Z</time>
</trkpt>
<trkpt lat="48.112137" lon="10.546097">
<ele>536.365</ele>
<time>2020-09-10T15:41:06Z</time>
</trkpt>
<trkpt lat="48.112087" lon="10.546144">
<ele>536.365</ele>
<time>2020-09-10T15:41:07Z</time>
</trkpt>
<trkpt lat="48.112041" lon="10.546192">
<ele>536.365</ele>
<time>2020-09-10T15:41:08Z</time>
</trkpt>
<trkpt lat="48.111992" lon="10.546238">
<ele>536.365</ele>
<time>2020-09-10T15:41:09Z</time>
</trkpt>
<trkpt lat="48.111946" lon="10.546285">
<ele>536.365</ele>
<time>2020-09-10T15:41:10Z</time>
</trkpt>
<trkpt lat="48.111897" lon="10.546336">
<ele>536.365</ele>
<time>2020-09-10T15:41:11Z</time>
</trkpt>
<trkpt lat="48.111851" lon="10.546391">
<ele>536.365</ele>
<time>2020-09-10T15:41:12Z</time>
</trkpt>
<trkpt lat="48.111805" lon="10.546443">
<ele>536.365</ele>
<time>2020-09-10T15:41:13Z</time>
</trkpt>
<trkpt lat="48.111755" lon="10.546498">
<ele>536.365</ele>
<time>2020-09-10T15:41:14Z</time>
</trkpt>
<trkpt lat="48.11171" lon="10.546556">
<ele>536.365</ele>
<time>2020-09-10T15:41:15Z</time>
</trkpt>
<trkpt lat="48.11166" lon="10.546615">
<ele>536.365</ele>
<time>2020-09-10T15:41:16Z</time>
</trkpt>
<trkpt lat="48.111614" lon="10.546676">
<ele>536.365</ele>
<time>2020-09-10T15:41:17Z</time>
</trkpt>
<trkpt lat="48.111565" lon="10.546735">
<ele>536.365</ele>
<time>2020-09-10T15:41:18Z</time>
</trkpt>
<trkpt lat="48.111523" lon="10.546798">
<ele>536.365</ele>
<time>2020-09-10T15:41:19Z</time>
</trkpt>
<trkpt lat="48.111473" lon="10.54686">
<ele>536.365</ele>
<time>2020-09-10T15:41:20Z</time>
</trkpt>
<trkpt lat="48.111431" lon="10.546924">
<ele>536.365</ele>
<time>2020-09-10T15:41:21Z</time>
</trkpt>
<trkpt lat="48.111389" lon="10.546988">
<ele>536.087</ele>
<time>2020-09-10T15:41:22Z</time>
</trkpt>
<trkpt lat="48.111347" lon="10.547053">
<ele>535.871</ele>
<time>2020-09-10T15:41:23Z</time>
</trkpt>
<trkpt lat="48.111305" lon="10.547118">
<ele>535.71</ele>
<time>2020-09-10T15:41:24Z</time>
</trkpt>
<trkpt lat="48.111263" lon="10.547183">
<ele>535.591</ele>
<time>2020-09-10T15:41:25Z</time>
</trkpt>
<trkpt lat="48.111229" lon="10.547248">
<ele>535.507</ele>
<time>2020-09-10T15:41:26Z</time>
</trkpt>
<trkpt lat="48.111191" lon="10.547313">
<ele>535.455</ele>
<time>2020-09-10T15:41:27Z</time>
</trkpt>
<trkpt lat="48.111153" lon="10.547379">
<ele>535.426</ele>
<time>2020-09-10T15:41:28Z</time>
</trkpt>
<trkpt lat="48.111115" lon="10.547448">
<ele>535.403</ele>
<time>2020-09-10T15:41:29Z</time>
</trkpt>
<trkpt lat="48.111073" lon="10.547515">
<ele>535.403</ele>
<time>2020-09-10T15:41:30Z</time>
</trkpt>
<trkpt lat="48.111034" lon="10.547582">
<ele>535.403</ele>
<time>2020-09-10T15:41:31Z</time>
</trkpt>
<trkpt lat="48.110992" lon="10.547647">
<ele>535.403</ele>
<time>2020-09-10T15:41:32Z</time>
</trkpt>
<trkpt lat="48.11095" lon="10.547711">
<ele>535.403</ele>
<time>2020-09-10T15:41:33Z</time>
</trkpt>
<trkpt lat="48.110909" lon="10.547775">
<ele>535.403</ele>
<time>2020-09-10T15:41:34Z</time>
</trkpt>
<trkpt lat="48.11087" lon="10.54784">
<ele>535.403</ele>
<time>2020-09-10T15:41:35Z</time>
</trkpt>
<trkpt lat="48.110828" lon="10.547905">
<ele>535.403</ele>
<time>2020-09-10T15:41:36Z</time>
</trkpt>
<trkpt lat="48.110786" lon="10.547969">
<ele>535.403</ele>
<time>2020-09-10T15:41:37Z</time>
</trkpt>
<trkpt lat="48.110744" lon="10.548034">
<ele>535.403</ele>
<time>2020-09-10T15:41:38Z</time>
</trkpt>
<trkpt lat="48.110706" lon="10.548097">
<ele>535.403</ele>
<time>2020-09-10T15:41:39Z</time>
</trkpt>
<trkpt lat="48.110664" lon="10.548159">
<ele>535.403</ele>
<time>2020-09-10T15:41:40Z</time>
</trkpt>
<trkpt lat="48.110622" lon="10.548222">
<ele>535.403</ele>
<time>2020-09-10T15:41:41Z</time>
</trkpt>
<trkpt lat="48.11058" lon="10.548286">
<ele>535.403</ele>
<time>2020-09-10T15:41:42Z</time>
</trkpt>
<trkpt lat="48.110542" lon="10.548352">
<ele>535.403</ele>
<time>2020-09-10T15:41:43Z</time>
</trkpt>
<trkpt lat="48.1105" lon="10.548415">
<ele>535.403</ele>
<time>2020-09-10T15:41:44Z</time>
</trkpt>
<trkpt lat="48.110458" lon="10.548475">
<ele>535.403</ele>
<time>2020-09-10T15:41:45Z</time>
</trkpt>
<trkpt lat="48.110416" lon="10.548534">
<ele>535.403</ele>
<time>2020-09-10T15:41:46Z</time>
</trkpt>
<trkpt lat="48.110374" lon="10.548594">
<ele>535.403</ele>
<time>2020-09-10T15:41:47Z</time>
</trkpt>
<trkpt lat="48.110329" lon="10.548648">
<ele>535.403</ele>
<time>2020-09-10T15:41:48Z</time>
</trkpt>
<trkpt lat="48.110287" lon="10.548701">
<ele>535.403</ele>
<time>2020-09-10T15:41:49Z</time>
</trkpt>
<trkpt lat="48.110245" lon="10.548752">
<ele>535.403</ele>
<time>2020-09-10T15:41:50Z</time>
</trkpt>
<trkpt lat="48.110203" lon="10.5488">
<ele>535.403</ele>
<time>2020-09-10T15:41:51Z</time>
</trkpt>
<trkpt lat="48.110157" lon="10.548844">
<ele>535.403</ele>
<time>2020-09-10T15:41:52Z</time>
</trkpt>
<trkpt lat="48.110115" lon="10.548892">
<ele>535.403</ele>
<time>2020-09-10T15:41:53Z</time>
</trkpt>
<trkpt lat="48.110073" lon="10.548939">
<ele>535.403</ele>
<time>2020-09-10T15:41:54Z</time>
</trkpt>
<trkpt lat="48.110031" lon="10.548986">
<ele>535.403</ele>
<time>2020-09-10T15:41:55Z</time>
</trkpt>
<trkpt lat="48.109993" lon="10.549037">
<ele>535.403</ele>
<time>2020-09-10T15:41:56Z</time>
</trkpt>
<trkpt lat="48.109947" lon="10.549087">
<ele>535.403</ele>
<time>2020-09-10T15:41:57Z</time>
</trkpt>
<trkpt lat="48.109905" lon="10.549137">
<ele>535.403</ele>
<time>2020-09-10T15:41:58Z</time>
</trkpt>
<trkpt lat="48.109863" lon="10.549187">
<ele>535.403</ele>
<time>2020-09-10T15:41:59Z</time>
</trkpt>
<trkpt lat="48.109829" lon="10.54924">
<ele>535.403</ele>
<time>2020-09-10T15:42:00Z</time>
</trkpt>
<trkpt lat="48.109791" lon="10.549292">
<ele>535.403</ele>
<time>2020-09-10T15:42:01Z</time>
</trkpt>
<trkpt lat="48.109749" lon="10.549345">
<ele>535.403</ele>
<time>2020-09-10T15:42:02Z</time>
</trkpt>
<trkpt lat="48.109715" lon="10.549399">
<ele>535.403</ele>
<time>2020-09-10T15:42:03Z</time>
</trkpt>
<trkpt lat="48.109673" lon="10.549452">
<ele>535.403</ele>
<time>2020-09-10T15:42:04Z</time>
</trkpt>
<trkpt lat="48.109634" lon="10.549503">
<ele>535.127</ele>
<time>2020-09-10T15:42:05Z</time>
</trkpt>
<trkpt lat="48.109592" lon="10.549553">
<ele>535.117</ele>
<time>2020-09-10T15:42:06Z</time>
</trkpt>
<trkpt lat="48.10955" lon="10.549603">
<ele>535.015</ele>
<time>2020-09-10T15:42:07Z</time>
</trkpt>
<trkpt lat="48.109509" lon="10.549648">
<ele>534.945</ele>
<time>2020-09-10T15:42:08Z</time>
</trkpt>
<trkpt lat="48.109463" lon="10.549693">
<ele>535.077</ele>
<time>2020-09-10T15:42:09Z</time>
</trkpt>
<trkpt lat="48.109417" lon="10.549737">
<ele>535.005</ele>
<time>2020-09-10T15:42:10Z</time>
</trkpt>
<trkpt lat="48.109375" lon="10.549779">
<ele>534.956</ele>
<time>2020-09-10T15:42:11Z</time>
</trkpt>
<trkpt lat="48.109325" lon="10.549816">
<ele>534.929</ele>
<time>2020-09-10T15:42:12Z</time>
</trkpt>
<trkpt lat="48.10928" lon="10.549853">
<ele>534.914</ele>
<time>2020-09-10T15:42:13Z</time>
</trkpt>
<trkpt lat="48.109234" lon="10.549887">
<ele>534.902</ele>
<time>2020-09-10T15:42:14Z</time>
</trkpt>
<trkpt lat="48.109184" lon="10.549919">
<ele>534.879</ele>
<time>2020-09-10T15:42:15Z</time>
</trkpt>
<trkpt lat="48.109135" lon="10.549952">
<ele>534.879</ele>
<time>2020-09-10T15:42:16Z</time>
</trkpt>
<trkpt lat="48.109085" lon="10.549982">
<ele>534.879</ele>
<time>2020-09-10T15:42:17Z</time>
</trkpt>
<trkpt lat="48.109032" lon="10.550012">
<ele>534.879</ele>
<time>2020-09-10T15:42:18Z</time>
</trkpt>
<trkpt lat="48.108982" lon="10.550041">
<ele>534.879</ele>
<time>2020-09-10T15:42:19Z</time>
</trkpt>
<trkpt lat="48.108936" lon="10.550072">
<ele>534.879</ele>
<time>2020-09-10T15:42:20Z</time>
</trkpt>
<trkpt lat="48.108883" lon="10.550099">
<ele>534.879</ele>
<time>2020-09-10T15:42:21Z</time>
</trkpt>
<trkpt lat="48.108833" lon="10.550129">
<ele>534.879</ele>
<time>2020-09-10T15:42:22Z</time>
</trkpt>
<trkpt lat="48.108784" lon="10.550156">
<ele>534.879</ele>
<time>2020-09-10T15:42:23Z</time>
</trkpt>
<trkpt lat="48.10873" lon="10.550181">
<ele>534.879</ele>
<time>2020-09-10T15:42:24Z</time>
</trkpt>
<trkpt lat="48.108681" lon="10.550206">
<ele>534.879</ele>
<time>2020-09-10T15:42:25Z</time>
</trkpt>
<trkpt lat="48.108624" lon="10.550232">
<ele>534.879</ele>
<time>2020-09-10T15:42:26Z</time>
</trkpt>
<trkpt lat="48.108574" lon="10.550254">
<ele>534.879</ele>
<time>2020-09-10T15:42:27Z</time>
</trkpt>
<trkpt lat="48.108521" lon="10.550277">
<ele>534.879</ele>
<time>2020-09-10T15:42:28Z</time>
</trkpt>
<trkpt lat="48.108467" lon="10.550301">
<ele>534.879</ele>
<time>2020-09-10T15:42:29Z</time>
</trkpt>
<trkpt lat="48.108414" lon="10.550322">
<ele>534.879</ele>
<time>2020-09-10T15:42:30Z</time>
</trkpt>
<trkpt lat="48.10836" lon="10.550346">
<ele>534.879</ele>
<time>2020-09-10T15:42:31Z</time>
</trkpt>
<trkpt lat="48.108307" lon="10.550372">
<ele>534.879</ele>
<time>2020-09-10T15:42:32Z</time>
</trkpt>
<trkpt lat="48.108257" lon="10.550397">
<ele>534.879</ele>
<time>2020-09-10T15:42:33Z</time>
</trkpt>
<trkpt lat="48.1082" lon="10.550425">
<ele>535.166</ele>
<time>2020-09-10T15:42:34Z</time>
</trkpt>
<trkpt lat="48.10815" lon="10.550453">
<ele>535.388</ele>
<time>2020-09-10T15:42:35Z</time>
</trkpt>
<trkpt lat="48.108101" lon="10.550487">
<ele>535.555</ele>
<time>2020-09-10T15:42:36Z</time>
</trkpt>
<trkpt lat="48.108055" lon="10.550523">
<ele>535.681</ele>
<time>2020-09-10T15:42:37Z</time>
</trkpt>
<trkpt lat="48.108006" lon="10.550563">
<ele>535.563</ele>
<time>2020-09-10T15:42:38Z</time>
</trkpt>
<trkpt lat="48.107956" lon="10.550605">
<ele>535.463</ele>
<time>2020-09-10T15:42:39Z</time>
</trkpt>
<trkpt lat="48.10791" lon="10.550652">
<ele>535.367</ele>
<time>2020-09-10T15:42:40Z</time>
</trkpt>
<trkpt lat="48.107861" lon="10.5507">
<ele>535.271</ele>
<time>2020-09-10T15:42:41Z</time>
</trkpt>
<trkpt lat="48.107815" lon="10.550752">
<ele>535.212</ele>
<time>2020-09-10T15:42:42Z</time>
</trkpt>
<trkpt lat="48.107773" lon="10.550807">
<ele>535.149</ele>
<time>2020-09-10T15:42:43Z</time>
</trkpt>
<trkpt lat="48.107727" lon="10.550861">
<ele>535.341</ele>
<time>2020-09-10T15:42:44Z</time>
</trkpt>
<trkpt lat="48.107685" lon="10.550919">
<ele>535.507</ele>
<time>2020-09-10T15:42:45Z</time>
</trkpt>
<trkpt lat="48.107643" lon="10.550977">
<ele>535.651</ele>
<time>2020-09-10T15:42:46Z</time>
</trkpt>
<trkpt lat="48.107605" lon="10.551038">
<ele>535.775</ele>
<time>2020-09-10T15:42:47Z</time>
</trkpt>
<trkpt lat="48.107567" lon="10.551102">
<ele>535.863</ele>
<time>2020-09-10T15:42:48Z</time>
</trkpt>
<trkpt lat="48.107533" lon="10.551168">
<ele>535.928</ele>
<time>2020-09-10T15:42:49Z</time>
</trkpt>
<trkpt lat="48.107498" lon="10.551237">
<ele>535.987</ele>
<time>2020-09-10T15:42:50Z</time>
</trkpt>
<trkpt lat="48.107464" lon="10.551309">
<ele>536.016</ele>
<time>2020-09-10T15:42:51Z</time>
</trkpt>
<trkpt lat="48.107433" lon="10.55138">
<ele>536.016</ele>
<time>2020-09-10T15:42:52Z</time>
</trkpt>
<trkpt lat="48.107407" lon="10.551453">
<ele>536.016</ele>
<time>2020-09-10T15:42:53Z</time>
</trkpt>
<trkpt lat="48.107376" lon="10.551528">
<ele>536.016</ele>
<time>2020-09-10T15:42:54Z</time>
</trkpt>
<trkpt lat="48.107349" lon="10.551603">
<ele>536.016</ele>
<time>2020-09-10T15:42:55Z</time>
</trkpt>
<trkpt lat="48.107319" lon="10.551679">
<ele>536.016</ele>
<time>2020-09-10T15:42:56Z</time>
</trkpt>
<trkpt lat="48.107288" lon="10.551753">
<ele>536.016</ele>
<time>2020-09-10T15:42:57Z</time>
</trkpt>
<trkpt lat="48.107262" lon="10.55183">
<ele>536.016</ele>
<time>2020-09-10T15:42:58Z</time>
</trkpt>
<trkpt lat="48.107231" lon="10.551907">
<ele>536.016</ele>
<time>2020-09-10T15:42:59Z</time>
</trkpt>
<trkpt lat="48.107204" lon="10.551981">
<ele>536.016</ele>
<time>2020-09-10T15:43:00Z</time>
</trkpt>
<trkpt lat="48.107178" lon="10.552056">
<ele>536.016</ele>
<time>2020-09-10T15:43:01Z</time>
</trkpt>
<trkpt lat="48.107147" lon="10.55213">
<ele>536.016</ele>
<time>2020-09-10T15:43:02Z</time>
</trkpt>
<trkpt lat="48.107117" lon="10.552205">
<ele>536.016</ele>
<time>2020-09-10T15:43:03Z</time>
</trkpt>
<trkpt lat="48.107086" lon="10.552277">
<ele>535.731</ele>
<time>2020-09-10T15:43:04Z</time>
</trkpt>
<trkpt lat="48.107056" lon="10.55235">
<ele>535.509</ele>
<time>2020-09-10T15:43:05Z</time>
</trkpt>
<trkpt lat="48.107025" lon="10.552422">
<ele>535.339</ele>
<time>2020-09-10T15:43:06Z</time>
</trkpt>
<trkpt lat="48.106995" lon="10.552492">
<ele>535.213</ele>
<time>2020-09-10T15:43:07Z</time>
</trkpt>
<trkpt lat="48.10696" lon="10.55256">
<ele>535.12</ele>
<time>2020-09-10T15:43:08Z</time>
</trkpt>
<trkpt lat="48.10693" lon="10.552629">
<ele>535.054</ele>
<time>2020-09-10T15:43:09Z</time>
</trkpt>
<trkpt lat="48.106895" lon="10.552695">
<ele>534.995</ele>
<time>2020-09-10T15:43:10Z</time>
</trkpt>
<trkpt lat="48.106865" lon="10.552764">
<ele>534.966</ele>
<time>2020-09-10T15:43:11Z</time>
</trkpt>
<trkpt lat="48.106831" lon="10.55283">
<ele>534.966</ele>
<time>2020-09-10T15:43:12Z</time>
</trkpt>
<trkpt lat="48.1068" lon="10.552895">
<ele>534.966</ele>
<time>2020-09-10T15:43:13Z</time>
</trkpt>
<trkpt lat="48.106766" lon="10.552958">
<ele>534.966</ele>
<time>2020-09-10T15:43:14Z</time>
</trkpt>
<trkpt lat="48.106731" lon="10.553023">
<ele>534.966</ele>
<time>2020-09-10T15:43:15Z</time>
</trkpt>
<trkpt lat="48.106697" lon="10.553087">
<ele>534.966</ele>
<time>2020-09-10T15:43:16Z</time>
</trkpt>
<trkpt lat="48.106663" lon="10.553147">
<ele>535.204</ele>
<time>2020-09-10T15:43:17Z</time>
</trkpt>
<trkpt lat="48.106628" lon="10.553208">
<ele>535.393</ele>
<time>2020-09-10T15:43:18Z</time>
</trkpt>
<trkpt lat="48.106598" lon="10.553269">
<ele>535.525</ele>
<time>2020-09-10T15:43:19Z</time>
</trkpt>
<trkpt lat="48.106564" lon="10.553333">
<ele>535.665</ele>
<time>2020-09-10T15:43:20Z</time>
</trkpt>
<trkpt lat="48.106529" lon="10.553395">
<ele>535.774</ele>
<time>2020-09-10T15:43:21Z</time>
</trkpt>
<trkpt lat="48.106499" lon="10.553458">
<ele>535.854</ele>
<time>2020-09-10T15:43:22Z</time>
</trkpt>
<trkpt lat="48.106464" lon="10.55352">
<ele>535.904</ele>
<time>2020-09-10T15:43:23Z</time>
</trkpt>
<trkpt lat="48.10643" lon="10.553579">
<ele>535.928</ele>
<time>2020-09-10T15:43:24Z</time>
</trkpt>
<trkpt lat="48.106392" lon="10.55364">
<ele>535.928</ele>
<time>2020-09-10T15:43:25Z</time>
</trkpt>
<trkpt lat="48.106354" lon="10.553699">
<ele>535.928</ele>
<time>2020-09-10T15:43:26Z</time>
</trkpt>
<trkpt lat="48.106319" lon="10.553759">
<ele>535.928</ele>
<time>2020-09-10T15:43:27Z</time>
</trkpt>
<trkpt lat="48.106281" lon="10.55382">
<ele>535.928</ele>
<time>2020-09-10T15:43:28Z</time>
</trkpt>
<trkpt lat="48.106243" lon="10.553882">
<ele>535.928</ele>
<time>2020-09-10T15:43:29Z</time>
</trkpt>
<trkpt lat="48.106213" lon="10.553944">
<ele>535.928</ele>
<time>2020-09-10T15:43:30Z</time>
</trkpt>
<trkpt lat="48.106174" lon="10.554002">
<ele>535.928</ele>
<time>2020-09-10T15:43:31Z</time>
</trkpt>
<trkpt lat="48.106136" lon="10.55406">
<ele>535.928</ele>
<time>2020-09-10T15:43:32Z</time>
</trkpt>
<trkpt lat="48.106098" lon="10.554117">
<ele>535.928</ele>
<time>2020-09-10T15:43:33Z</time>
</trkpt>
<trkpt lat="48.106056" lon="10.554174">
<ele>535.928</ele>
<time>2020-09-10T15:43:34Z</time>
</trkpt>
<trkpt lat="48.106018" lon="10.554232">
<ele>535.928</ele>
<time>2020-09-10T15:43:35Z</time>
</trkpt>
<trkpt lat="48.105984" lon="10.554292">
<ele>535.928</ele>
<time>2020-09-10T15:43:36Z</time>
</trkpt>
<trkpt lat="48.105942" lon="10.55435">
<ele>535.928</ele>
<time>2020-09-10T15:43:37Z</time>
</trkpt>
<trkpt lat="48.105904" lon="10.554407">
<ele>535.928</ele>
<time>2020-09-10T15:43:38Z</time>
</trkpt>
<trkpt lat="48.105862" lon="10.554465">
<ele>535.928</ele>
<time>2020-09-10T15:43:39Z</time>
</trkpt>
<trkpt lat="48.105824" lon="10.554518">
<ele>536.141</ele>
<time>2020-09-10T15:43:40Z</time>
</trkpt>
<trkpt lat="48.105789" lon="10.554573">
<ele>536.319</ele>
<time>2020-09-10T15:43:41Z</time>
</trkpt>
<trkpt lat="48.105755" lon="10.554628">
<ele>536.465</ele>
<time>2020-09-10T15:43:42Z</time>
</trkpt>
<trkpt lat="48.105717" lon="10.554686">
<ele>536.582</ele>
<time>2020-09-10T15:43:43Z</time>
</trkpt>
<trkpt lat="48.105679" lon="10.554744">
<ele>536.672</ele>
<time>2020-09-10T15:43:44Z</time>
</trkpt>
<trkpt lat="48.10564" lon="10.554801">
<ele>536.739</ele>
<time>2020-09-10T15:43:45Z</time>
</trkpt>
<trkpt lat="48.105602" lon="10.554858">
<ele>536.782</ele>
<time>2020-09-10T15:43:46Z</time>
</trkpt>
<trkpt lat="48.105564" lon="10.554918">
<ele>536.803</ele>
<time>2020-09-10T15:43:47Z</time>
</trkpt>
<trkpt lat="48.105526" lon="10.554981">
<ele>536.588</ele>
<time>2020-09-10T15:43:48Z</time>
</trkpt>
<trkpt lat="48.105492" lon="10.555045">
<ele>536.435</ele>
<time>2020-09-10T15:43:49Z</time>
</trkpt>
<trkpt lat="48.105461" lon="10.55511">
<ele>536.279</ele>
<time>2020-09-10T15:43:50Z</time>
</trkpt>
<trkpt lat="48.105427" lon="10.555177">
<ele>536.156</ele>
<time>2020-09-10T15:43:51Z</time>
</trkpt>
<trkpt lat="48.105396" lon="10.555245">
<ele>536.061</ele>
<time>2020-09-10T15:43:52Z</time>
</trkpt>
<trkpt lat="48.105362" lon="10.555318">
<ele>535.993</ele>
<time>2020-09-10T15:43:53Z</time>
</trkpt>
<trkpt lat="48.105335" lon="10.555395">
<ele>535.949</ele>
<time>2020-09-10T15:43:54Z</time>
</trkpt>
<trkpt lat="48.105305" lon="10.555469">
<ele>535.928</ele>
<time>2020-09-10T15:43:55Z</time>
</trkpt>
<trkpt lat="48.105274" lon="10.555542">
<ele>535.928</ele>
<time>2020-09-10T15:43:56Z</time>
</trkpt>
<trkpt lat="48.105244" lon="10.555615">
<ele>535.928</ele>
<time>2020-09-10T15:43:57Z</time>
</trkpt>
<trkpt lat="48.105213" lon="10.555689">
<ele>535.928</ele>
<time>2020-09-10T15:43:58Z</time>
</trkpt>
<trkpt lat="48.105186" lon="10.555763">
<ele>535.928</ele>
<time>2020-09-10T15:43:59Z</time>
</trkpt>
<trkpt lat="48.105152" lon="10.555837">
<ele>535.928</ele>
<time>2020-09-10T15:44:00Z</time>
</trkpt>
<trkpt lat="48.105125" lon="10.555911">
<ele>535.928</ele>
<time>2020-09-10T15:44:01Z</time>
</trkpt>
<trkpt lat="48.105095" lon="10.555986">
<ele>535.928</ele>
<time>2020-09-10T15:44:02Z</time>
</trkpt>
<trkpt lat="48.105064" lon="10.556057">
<ele>535.928</ele>
<time>2020-09-10T15:44:03Z</time>
</trkpt>
<trkpt lat="48.10503" lon="10.556125">
<ele>535.928</ele>
<time>2020-09-10T15:44:04Z</time>
</trkpt>
<trkpt lat="48.104996" lon="10.556195">
<ele>535.928</ele>
<time>2020-09-10T15:44:05Z</time>
</trkpt>
<trkpt lat="48.104958" lon="10.556261">
<ele>535.928</ele>
<time>2020-09-10T15:44:06Z</time>
</trkpt>
<trkpt lat="48.104923" lon="10.55633">
<ele>535.928</ele>
<time>2020-09-10T15:44:07Z</time>
</trkpt>
<trkpt lat="48.104889" lon="10.556394">
<ele>535.928</ele>
<time>2020-09-10T15:44:08Z</time>
</trkpt>
<trkpt lat="48.104851" lon="10.556458">
<ele>535.928</ele>
<time>2020-09-10T15:44:09Z</time>
</trkpt>
<trkpt lat="48.104813" lon="10.55652">
<ele>535.928</ele>
<time>2020-09-10T15:44:10Z</time>
</trkpt>
<trkpt lat="48.104774" lon="10.556583">
<ele>535.928</ele>
<time>2020-09-10T15:44:11Z</time>
</trkpt>
<trkpt lat="48.104733" lon="10.556642">
<ele>535.928</ele>
<time>2020-09-10T15:44:12Z</time>
</trkpt>
<trkpt lat="48.104694" lon="10.556702">
<ele>535.928</ele>
<time>2020-09-10T15:44:13Z</time>
</trkpt>
<trkpt lat="48.104649" lon="10.556762">
<ele>535.928</ele>
<time>2020-09-10T15:44:14Z</time>
</trkpt>
<trkpt lat="48.104614" lon="10.556822">
<ele>535.928</ele>
<time>2020-09-10T15:44:15Z</time>
</trkpt>
<trkpt lat="48.104572" lon="10.55688">
<ele>535.928</ele>
<time>2020-09-10T15:44:16Z</time>
</trkpt>
<trkpt lat="48.10453" lon="10.556938">
<ele>535.928</ele>
<time>2020-09-10T15:44:17Z</time>
</trkpt>
<trkpt lat="48.104488" lon="10.556996">
<ele>535.928</ele>
<time>2020-09-10T15:44:18Z</time>
</trkpt>
<trkpt lat="48.104443" lon="10.557055">
<ele>535.928</ele>
<time>2020-09-10T15:44:19Z</time>
</trkpt>
<trkpt lat="48.104401" lon="10.557112">
<ele>535.928</ele>
<time>2020-09-10T15:44:20Z</time>
</trkpt>
<trkpt lat="48.104359" lon="10.55717">
<ele>535.928</ele>
<time>2020-09-10T15:44:21Z</time>
</trkpt>
<trkpt lat="48.104317" lon="10.557227">
<ele>535.928</ele>
<time>2020-09-10T15:44:22Z</time>
</trkpt>
<trkpt lat="48.104279" lon="10.557281">
<ele>535.928</ele>
<time>2020-09-10T15:44:23Z</time>
</trkpt>
<trkpt lat="48.104233" lon="10.557343">
<ele>535.928</ele>
<time>2020-09-10T15:44:24Z</time>
</trkpt>
<trkpt lat="48.104191" lon="10.557402">
<ele>535.928</ele>
<time>2020-09-10T15:44:25Z</time>
</trkpt>
<trkpt lat="48.104153" lon="10.557462">
<ele>535.928</ele>
<time>2020-09-10T15:44:26Z</time>
</trkpt>
<trkpt lat="48.104111" lon="10.557522">
<ele>535.928</ele>
<time>2020-09-10T15:44:27Z</time>
</trkpt>
<trkpt lat="48.104073" lon="10.557583">
<ele>535.928</ele>
<time>2020-09-10T15:44:28Z</time>
</trkpt>
<trkpt lat="48.104031" lon="10.557646">
<ele>535.928</ele>
<time>2020-09-10T15:44:29Z</time>
</trkpt>
<trkpt lat="48.103996" lon="10.557702">
<ele>535.928</ele>
<time>2020-09-10T15:44:30Z</time>
</trkpt>
<trkpt lat="48.103958" lon="10.557756">
<ele>535.928</ele>
<time>2020-09-10T15:44:31Z</time>
</trkpt>
<trkpt lat="48.103928" lon="10.557814">
<ele>535.928</ele>
<time>2020-09-10T15:44:32Z</time>
</trkpt>
<trkpt lat="48.103893" lon="10.55787">
<ele>535.928</ele>
<time>2020-09-10T15:44:33Z</time>
</trkpt>
<trkpt lat="48.103859" lon="10.557933">
<ele>535.928</ele>
<time>2020-09-10T15:44:34Z</time>
</trkpt>
<trkpt lat="48.103821" lon="10.557994">
<ele>535.928</ele>
<time>2020-09-10T15:44:35Z</time>
</trkpt>
<trkpt lat="48.103783" lon="10.558052">
<ele>535.928</ele>
<time>2020-09-10T15:44:36Z</time>
</trkpt>
<trkpt lat="48.103745" lon="10.55811">
<ele>535.928</ele>
<time>2020-09-10T15:44:37Z</time>
</trkpt>
<trkpt lat="48.10371" lon="10.558167">
<ele>535.928</ele>
<time>2020-09-10T15:44:38Z</time>
</trkpt>
<trkpt lat="48.103672" lon="10.558228">
<ele>535.928</ele>
<time>2020-09-10T15:44:39Z</time>
</trkpt>
<trkpt lat="48.103638" lon="10.558297">
<ele>535.928</ele>
<time>2020-09-10T15:44:40Z</time>
</trkpt>
<trkpt lat="48.103603" lon="10.558365">
<ele>535.928</ele>
<time>2020-09-10T15:44:41Z</time>
</trkpt>
<trkpt lat="48.103565" lon="10.55843">
<ele>535.928</ele>
<time>2020-09-10T15:44:42Z</time>
</trkpt>
<trkpt lat="48.103531" lon="10.558494">
<ele>535.928</ele>
<time>2020-09-10T15:44:43Z</time>
</trkpt>
<trkpt lat="48.103493" lon="10.558565">
<ele>535.928</ele>
<time>2020-09-10T15:44:44Z</time>
</trkpt>
<trkpt lat="48.103455" lon="10.558628">
<ele>535.928</ele>
<time>2020-09-10T15:44:45Z</time>
</trkpt>
<trkpt lat="48.103409" lon="10.558687">
<ele>535.928</ele>
<time>2020-09-10T15:44:46Z</time>
</trkpt>
<trkpt lat="48.103371" lon="10.558738">
<ele>535.928</ele>
<time>2020-09-10T15:44:47Z</time>
</trkpt>
<trkpt lat="48.103321" lon="10.558788">
<ele>535.928</ele>
<time>2020-09-10T15:44:48Z</time>
</trkpt>
<trkpt lat="48.103271" lon="10.55884">
<ele>535.928</ele>
<time>2020-09-10T15:44:49Z</time>
</trkpt>
<trkpt lat="48.103222" lon="10.558903">
<ele>535.928</ele>
<time>2020-09-10T15:44:50Z</time>
</trkpt>
<trkpt lat="48.10318" lon="10.558964">
<ele>535.928</ele>
<time>2020-09-10T15:44:51Z</time>
</trkpt>
<trkpt lat="48.10313" lon="10.559023">
<ele>535.928</ele>
<time>2020-09-10T15:44:52Z</time>
</trkpt>
<trkpt lat="48.103088" lon="10.559087">
<ele>535.928</ele>
<time>2020-09-10T15:44:53Z</time>
</trkpt>
<trkpt lat="48.103046" lon="10.559156">
<ele>535.928</ele>
<time>2020-09-10T15:44:54Z</time>
</trkpt>
<trkpt lat="48.103001" lon="10.559221">
<ele>535.928</ele>
<time>2020-09-10T15:44:55Z</time>
</trkpt>
<trkpt lat="48.102959" lon="10.55929">
<ele>535.928</ele>
<time>2020-09-10T15:44:56Z</time>
</trkpt>
<trkpt lat="48.102921" lon="10.559361">
<ele>535.689</ele>
<time>2020-09-10T15:44:57Z</time>
</trkpt>
<trkpt lat="48.102886" lon="10.559435">
<ele>535.5</ele>
<time>2020-09-10T15:44:58Z</time>
</trkpt>
<trkpt lat="48.102852" lon="10.55951">
<ele>535.367</ele>
<time>2020-09-10T15:44:59Z</time>
</trkpt>
<trkpt lat="48.102821" lon="10.559592">
<ele>535.225</ele>
<time>2020-09-10T15:45:00Z</time>
</trkpt>
<trkpt lat="48.102791" lon="10.559668">
<ele>535.119</ele>
<time>2020-09-10T15:45:01Z</time>
</trkpt>
<trkpt lat="48.102768" lon="10.559747">
<ele>535.042</ele>
<time>2020-09-10T15:45:02Z</time>
</trkpt>
<trkpt lat="48.102745" lon="10.559834">
<ele>534.99</ele>
<time>2020-09-10T15:45:03Z</time>
</trkpt>
<trkpt lat="48.102722" lon="10.559918">
<ele>534.966</ele>
<time>2020-09-10T15:45:04Z</time>
</trkpt>
<trkpt lat="48.102695" lon="10.56">
<ele>534.966</ele>
<time>2020-09-10T15:45:05Z</time>
</trkpt>
<trkpt lat="48.102673" lon="10.560081">
<ele>534.966</ele>
<time>2020-09-10T15:45:06Z</time>
</trkpt>
<trkpt lat="48.102646" lon="10.560162">
<ele>534.966</ele>
<time>2020-09-10T15:45:07Z</time>
</trkpt>
<trkpt lat="48.102623" lon="10.560246">
<ele>534.966</ele>
<time>2020-09-10T15:45:08Z</time>
</trkpt>
<trkpt lat="48.1026" lon="10.560324">
<ele>534.966</ele>
<time>2020-09-10T15:45:09Z</time>
</trkpt>
<trkpt lat="48.102581" lon="10.560403">
<ele>534.966</ele>
<time>2020-09-10T15:45:10Z</time>
</trkpt>
<trkpt lat="48.102558" lon="10.560483">
<ele>534.966</ele>
<time>2020-09-10T15:45:11Z</time>
</trkpt>
<trkpt lat="48.102543" lon="10.560567">
<ele>534.966</ele>
<time>2020-09-10T15:45:12Z</time>
</trkpt>
<trkpt lat="48.102528" lon="10.560648">
<ele>534.966</ele>
<time>2020-09-10T15:45:13Z</time>
</trkpt>
<trkpt lat="48.102516" lon="10.560727">
<ele>534.966</ele>
<time>2020-09-10T15:45:14Z</time>
</trkpt>
<trkpt lat="48.102505" lon="10.560807">
<ele>534.966</ele>
<time>2020-09-10T15:45:15Z</time>
</trkpt>
<trkpt lat="48.102501" lon="10.560884">
<ele>534.966</ele>
<time>2020-09-10T15:45:16Z</time>
</trkpt>
<trkpt lat="48.102493" lon="10.560963">
<ele>534.966</ele>
<time>2020-09-10T15:45:17Z</time>
</trkpt>
<trkpt lat="48.102486" lon="10.561049">
<ele>534.966</ele>
<time>2020-09-10T15:45:18Z</time>
</trkpt>
<trkpt lat="48.102474" lon="10.561142">
<ele>534.966</ele>
<time>2020-09-10T15:45:19Z</time>
</trkpt>
<trkpt lat="48.102463" lon="10.561231">
<ele>534.966</ele>
<time>2020-09-10T15:45:20Z</time>
</trkpt>
<trkpt lat="48.102455" lon="10.561315">
<ele>534.966</ele>
<time>2020-09-10T15:45:21Z</time>
</trkpt>
<trkpt lat="48.102444" lon="10.561406">
<ele>534.966</ele>
<time>2020-09-10T15:45:22Z</time>
</trkpt>
<trkpt lat="48.102432" lon="10.561497">
<ele>534.966</ele>
<time>2020-09-10T15:45:23Z</time>
</trkpt>
<trkpt lat="48.102436" lon="10.5616">
<ele>534.966</ele>
<time>2020-09-10T15:45:24Z</time>
</trkpt>
<trkpt lat="48.102428" lon="10.561685">
<ele>534.966</ele>
<time>2020-09-10T15:45:25Z</time>
</trkpt>
<trkpt lat="48.102421" lon="10.561765">
<ele>534.966</ele>
<time>2020-09-10T15:45:26Z</time>
</trkpt>
<trkpt lat="48.102413" lon="10.561847">
<ele>534.966</ele>
<time>2020-09-10T15:45:27Z</time>
</trkpt>
<trkpt lat="48.102406" lon="10.561933">
<ele>534.966</ele>
<time>2020-09-10T15:45:28Z</time>
</trkpt>
<trkpt lat="48.102398" lon="10.562018">
<ele>534.966</ele>
<time>2020-09-10T15:45:29Z</time>
</trkpt>
<trkpt lat="48.10239" lon="10.562097">
<ele>534.966</ele>
<time>2020-09-10T15:45:30Z</time>
</trkpt>
<trkpt lat="48.102371" lon="10.562172">
<ele>534.966</ele>
<time>2020-09-10T15:45:31Z</time>
</trkpt>
<trkpt lat="48.10236" lon="10.562243">
<ele>534.966</ele>
<time>2020-09-10T15:45:32Z</time>
</trkpt>
<trkpt lat="48.102345" lon="10.562302">
<ele>534.966</ele>
<time>2020-09-10T15:45:33Z</time>
</trkpt>
<trkpt lat="48.102325" lon="10.562357">
<ele>534.966</ele>
<time>2020-09-10T15:45:34Z</time>
</trkpt>
<trkpt lat="48.102299" lon="10.562416">
<ele>534.966</ele>
<time>2020-09-10T15:45:35Z</time>
</trkpt>
<trkpt lat="48.102268" lon="10.562484">
<ele>534.966</ele>
<time>2020-09-10T15:45:36Z</time>
</trkpt>
<trkpt lat="48.102234" lon="10.562549">
<ele>534.966</ele>
<time>2020-09-10T15:45:37Z</time>
</trkpt>
<trkpt lat="48.1022" lon="10.562613">
<ele>534.966</ele>
<time>2020-09-10T15:45:38Z</time>
</trkpt>
<trkpt lat="48.102169" lon="10.562685">
<ele>534.966</ele>
<time>2020-09-10T15:45:39Z</time>
</trkpt>
<trkpt lat="48.102135" lon="10.56275">
<ele>534.966</ele>
<time>2020-09-10T15:45:40Z</time>
</trkpt>
<trkpt lat="48.102104" lon="10.562825">
<ele>534.966</ele>
<time>2020-09-10T15:45:41Z</time>
</trkpt>
<trkpt lat="48.10207" lon="10.562888">
<ele>534.966</ele>
<time>2020-09-10T15:45:42Z</time>
</trkpt>
<trkpt lat="48.102039" lon="10.562967">
<ele>534.966</ele>
<time>2020-09-10T15:45:43Z</time>
</trkpt>
<trkpt lat="48.102001" lon="10.563032">
<ele>534.966</ele>
<time>2020-09-10T15:45:44Z</time>
</trkpt>
<trkpt lat="48.101967" lon="10.56311">
<ele>534.966</ele>
<time>2020-09-10T15:45:45Z</time>
</trkpt>
<trkpt lat="48.101929" lon="10.563183">
<ele>534.966</ele>
<time>2020-09-10T15:45:46Z</time>
</trkpt>
<trkpt lat="48.101894" lon="10.563256">
<ele>534.966</ele>
<time>2020-09-10T15:45:47Z</time>
</trkpt>
<trkpt lat="48.10186" lon="10.563328">
<ele>534.966</ele>
<time>2020-09-10T15:45:48Z</time>
</trkpt>
<trkpt lat="48.10183" lon="10.563405">
<ele>534.966</ele>
<time>2020-09-10T15:45:49Z</time>
</trkpt>
<trkpt lat="48.101795" lon="10.56348">
<ele>534.966</ele>
<time>2020-09-10T15:45:50Z</time>
</trkpt>
<trkpt lat="48.101761" lon="10.56355">
<ele>534.966</ele>
<time>2020-09-10T15:45:51Z</time>
</trkpt>
<trkpt lat="48.10173" lon="10.563619">
<ele>534.966</ele>
<time>2020-09-10T15:45:52Z</time>
</trkpt>
<trkpt lat="48.1017" lon="10.56369">
<ele>534.966</ele>
<time>2020-09-10T15:45:53Z</time>
</trkpt>
<trkpt lat="48.101665" lon="10.563762">
<ele>534.966</ele>
<time>2020-09-10T15:45:54Z</time>
</trkpt>
<trkpt lat="48.101635" lon="10.56383">
<ele>534.966</ele>
<time>2020-09-10T15:45:55Z</time>
</trkpt>
<trkpt lat="48.101608" lon="10.563906">
<ele>534.966</ele>
<time>2020-09-10T15:45:56Z</time>
</trkpt>
<trkpt lat="48.101585" lon="10.563982">
<ele>534.966</ele>
<time>2020-09-10T15:45:57Z</time>
</trkpt>
<trkpt lat="48.101566" lon="10.564065">
<ele>534.966</ele>
<time>2020-09-10T15:45:58Z</time>
</trkpt>
<trkpt lat="48.101551" lon="10.564147">
<ele>535.18</ele>
<time>2020-09-10T15:45:59Z</time>
</trkpt>
<trkpt lat="48.101532" lon="10.564228">
<ele>535.384</ele>
<time>2020-09-10T15:46:00Z</time>
</trkpt>
<trkpt lat="48.101517" lon="10.56431">
<ele>535.549</ele>
<time>2020-09-10T15:46:01Z</time>
</trkpt>
<trkpt lat="48.101509" lon="10.564395">
<ele>535.683</ele>
<time>2020-09-10T15:46:02Z</time>
</trkpt>
<trkpt lat="48.101498" lon="10.564475">
<ele>535.786</ele>
<time>2020-09-10T15:46:03Z</time>
</trkpt>
<trkpt lat="48.101486" lon="10.564558">
<ele>535.858</ele>
<time>2020-09-10T15:46:04Z</time>
</trkpt>
<trkpt lat="48.101475" lon="10.56464">
<ele>535.906</ele>
<time>2020-09-10T15:46:05Z</time>
</trkpt>
<trkpt lat="48.101463" lon="10.56472">
<ele>535.928</ele>
<time>2020-09-10T15:46:06Z</time>
</trkpt>
<trkpt lat="48.101452" lon="10.564796">
<ele>535.928</ele>
<time>2020-09-10T15:46:07Z</time>
</trkpt>
<trkpt lat="48.10144" lon="10.56488">
<ele>535.928</ele>
<time>2020-09-10T15:46:08Z</time>
</trkpt>
<trkpt lat="48.101429" lon="10.564961">
<ele>535.928</ele>
<time>2020-09-10T15:46:09Z</time>
</trkpt>
<trkpt lat="48.101418" lon="10.565042">
<ele>535.928</ele>
<time>2020-09-10T15:46:10Z</time>
</trkpt>
<trkpt lat="48.101406" lon="10.565122">
<ele>535.928</ele>
<time>2020-09-10T15:46:11Z</time>
</trkpt>
<trkpt lat="48.101395" lon="10.565203">
<ele>535.928</ele>
<time>2020-09-10T15:46:12Z</time>
</trkpt>
<trkpt lat="48.101387" lon="10.565285">
<ele>535.928</ele>
<time>2020-09-10T15:46:13Z</time>
</trkpt>
<trkpt lat="48.101376" lon="10.565371">
<ele>535.928</ele>
<time>2020-09-10T15:46:14Z</time>
</trkpt>
<trkpt lat="48.10136" lon="10.56545">
<ele>535.928</ele>
<time>2020-09-10T15:46:15Z</time>
</trkpt>
<trkpt lat="48.101349" lon="10.565532">
<ele>535.928</ele>
<time>2020-09-10T15:46:16Z</time>
</trkpt>
<trkpt lat="48.101337" lon="10.565614">
<ele>536.148</ele>
<time>2020-09-10T15:46:17Z</time>
</trkpt>
<trkpt lat="48.101322" lon="10.565697">
<ele>536.322</ele>
<time>2020-09-10T15:46:18Z</time>
</trkpt>
<trkpt lat="48.101307" lon="10.565782">
<ele>536.44</ele>
<time>2020-09-10T15:46:19Z</time>
</trkpt>
<trkpt lat="48.101292" lon="10.565863">
<ele>536.567</ele>
<time>2020-09-10T15:46:20Z</time>
</trkpt>
<trkpt lat="48.10128" lon="10.565943">
<ele>536.665</ele>
<time>2020-09-10T15:46:21Z</time>
</trkpt>
<trkpt lat="48.101269" lon="10.56602">
<ele>536.735</ele>
<time>2020-09-10T15:46:22Z</time>
</trkpt>
<trkpt lat="48.101257" lon="10.566097">
<ele>536.781</ele>
<time>2020-09-10T15:46:23Z</time>
</trkpt>
<trkpt lat="48.101242" lon="10.566176">
<ele>536.803</ele>
<time>2020-09-10T15:46:24Z</time>
</trkpt>
<trkpt lat="48.101223" lon="10.566255">
<ele>536.803</ele>
<time>2020-09-10T15:46:25Z</time>
</trkpt>
<trkpt lat="48.101204" lon="10.566337">
<ele>536.803</ele>
<time>2020-09-10T15:46:26Z</time>
</trkpt>
<trkpt lat="48.101185" lon="10.566416">
<ele>536.803</ele>
<time>2020-09-10T15:46:27Z</time>
</trkpt>
<trkpt lat="48.101162" lon="10.566495">
<ele>536.803</ele>
<time>2020-09-10T15:46:28Z</time>
</trkpt>
<trkpt lat="48.101139" lon="10.566575">
<ele>536.803</ele>
<time>2020-09-10T15:46:29Z</time>
</trkpt>
<trkpt lat="48.10112" lon="10.566653">
<ele>536.803</ele>
<time>2020-09-10T15:46:30Z</time>
</trkpt>
<trkpt lat="48.101093" lon="10.56673">
<ele>536.803</ele>
<time>2020-09-10T15:46:31Z</time>
</trkpt>
<trkpt lat="48.101074" lon="10.566815">
<ele>537.111</ele>
<time>2020-09-10T15:46:32Z</time>
</trkpt>
<trkpt lat="48.101051" lon="10.566902">
<ele>537.348</ele>
<time>2020-09-10T15:46:33Z</time>
</trkpt>
<trkpt lat="48.101028" lon="10.566986">
<ele>537.526</ele>
<time>2020-09-10T15:46:34Z</time>
</trkpt>
<trkpt lat="48.101002" lon="10.567067">
<ele>537.658</ele>
<time>2020-09-10T15:46:35Z</time>
</trkpt>
<trkpt lat="48.100983" lon="10.567142">
<ele>537.743</ele>
<time>2020-09-10T15:46:36Z</time>
</trkpt>
<trkpt lat="48.100964" lon="10.56722">
<ele>537.799</ele>
<time>2020-09-10T15:46:37Z</time>
</trkpt>
<trkpt lat="48.100941" lon="10.567296">
<ele>537.829</ele>
<time>2020-09-10T15:46:38Z</time>
</trkpt>
<trkpt lat="48.100922" lon="10.567371">
<ele>537.853</ele>
<time>2020-09-10T15:46:39Z</time>
</trkpt>
<trkpt lat="48.100899" lon="10.567449">
<ele>537.853</ele>
<time>2020-09-10T15:46:40Z</time>
</trkpt>
<trkpt lat="48.100876" lon="10.567529">
<ele>537.853</ele>
<time>2020-09-10T15:46:41Z</time>
</trkpt>
<trkpt lat="48.100857" lon="10.567605">
<ele>537.853</ele>
<time>2020-09-10T15:46:42Z</time>
</trkpt>
<trkpt lat="48.100834" lon="10.567683">
<ele>537.853</ele>
<time>2020-09-10T15:46:43Z</time>
</trkpt>
<trkpt lat="48.100811" lon="10.567761">
<ele>537.853</ele>
<time>2020-09-10T15:46:44Z</time>
</trkpt>
<trkpt lat="48.100788" lon="10.567841">
<ele>537.853</ele>
<time>2020-09-10T15:46:45Z</time>
</trkpt>
<trkpt lat="48.100765" lon="10.567918">
<ele>538.123</ele>
<time>2020-09-10T15:46:46Z</time>
</trkpt>
<trkpt lat="48.100742" lon="10.567995">
<ele>538.337</ele>
<time>2020-09-10T15:46:47Z</time>
</trkpt>
<trkpt lat="48.100719" lon="10.568071">
<ele>538.499</ele>
<time>2020-09-10T15:46:48Z</time>
</trkpt>
<trkpt lat="48.1007" lon="10.568149">
<ele>538.611</ele>
<time>2020-09-10T15:46:49Z</time>
</trkpt>
<trkpt lat="48.100677" lon="10.568224">
<ele>538.733</ele>
<time>2020-09-10T15:46:50Z</time>
</trkpt>
<trkpt lat="48.100662" lon="10.568301">
<ele>538.819</ele>
<time>2020-09-10T15:46:51Z</time>
</trkpt>
<trkpt lat="48.100647" lon="10.568372">
<ele>538.875</ele>
<time>2020-09-10T15:46:52Z</time>
</trkpt>
<trkpt lat="48.100636" lon="10.568436">
<ele>538.902</ele>
<time>2020-09-10T15:46:53Z</time>
</trkpt>
<trkpt lat="48.100609" lon="10.568499">
<ele>538.902</ele>
<time>2020-09-10T15:46:54Z</time>
</trkpt>
<trkpt lat="48.100582" lon="10.56856">
<ele>538.902</ele>
<time>2020-09-10T15:46:55Z</time>
</trkpt>
<trkpt lat="48.100544" lon="10.568613">
<ele>538.902</ele>
<time>2020-09-10T15:46:56Z</time>
</trkpt>
<trkpt lat="48.100502" lon="10.568633">
<ele>538.902</ele>
<time>2020-09-10T15:46:57Z</time>
</trkpt>
<trkpt lat="48.100452" lon="10.568645">
<ele>538.902</ele>
<time>2020-09-10T15:46:58Z</time>
</trkpt>
<trkpt lat="48.100403" lon="10.568649">
<ele>538.902</ele>
<time>2020-09-10T15:46:59Z</time>
</trkpt>
<trkpt lat="48.100346" lon="10.568646">
<ele>538.902</ele>
<time>2020-09-10T15:47:00Z</time>
</trkpt>
<trkpt lat="48.100296" lon="10.568646">
<ele>538.902</ele>
<time>2020-09-10T15:47:01Z</time>
</trkpt>
<trkpt lat="48.100239" lon="10.568651">
<ele>538.902</ele>
<time>2020-09-10T15:47:02Z</time>
</trkpt>
<trkpt lat="48.100178" lon="10.568666">
<ele>538.902</ele>
<time>2020-09-10T15:47:03Z</time>
</trkpt>
<trkpt lat="48.100117" lon="10.568673">
<ele>538.902</ele>
<time>2020-09-10T15:47:04Z</time>
</trkpt>
<trkpt lat="48.100052" lon="10.568683">
<ele>538.659</ele>
<time>2020-09-10T15:47:05Z</time>
</trkpt>
<trkpt lat="48.099995" lon="10.568695">
<ele>538.477</ele>
<time>2020-09-10T15:47:06Z</time>
</trkpt>
<trkpt lat="48.099941" lon="10.568714">
<ele>538.339</ele>
<time>2020-09-10T15:47:07Z</time>
</trkpt>
<trkpt lat="48.099888" lon="10.568735">
<ele>538.236</ele>
<time>2020-09-10T15:47:08Z</time>
</trkpt>
<trkpt lat="48.099827" lon="10.568756">
<ele>538.167</ele>
<time>2020-09-10T15:47:09Z</time>
</trkpt>
<trkpt lat="48.09977" lon="10.568777">
<ele>538.097</ele>
<time>2020-09-10T15:47:10Z</time>
</trkpt>
<trkpt lat="48.099712" lon="10.568802">
<ele>538.051</ele>
<time>2020-09-10T15:47:11Z</time>
</trkpt>
<trkpt lat="48.099659" lon="10.568827">
<ele>538.027</ele>
<time>2020-09-10T15:47:12Z</time>
</trkpt>
<trkpt lat="48.099606" lon="10.568852">
<ele>538.027</ele>
<time>2020-09-10T15:47:13Z</time>
</trkpt>
<trkpt lat="48.099552" lon="10.568875">
<ele>538.027</ele>
<time>2020-09-10T15:47:14Z</time>
</trkpt>
<trkpt lat="48.099495" lon="10.568898">
<ele>538.027</ele>
<time>2020-09-10T15:47:15Z</time>
</trkpt>
<trkpt lat="48.099442" lon="10.568925">
<ele>538.027</ele>
<time>2020-09-10T15:47:16Z</time>
</trkpt>
<trkpt lat="48.099396" lon="10.568947">
<ele>538.027</ele>
<time>2020-09-10T15:47:17Z</time>
</trkpt>
<trkpt lat="48.099339" lon="10.568974">
<ele>538.027</ele>
<time>2020-09-10T15:47:18Z</time>
</trkpt>
<trkpt lat="48.099293" lon="10.568996">
<ele>538.027</ele>
<time>2020-09-10T15:47:19Z</time>
</trkpt>
<trkpt lat="48.099239" lon="10.56902">
<ele>538.027</ele>
<time>2020-09-10T15:47:20Z</time>
</trkpt>
<trkpt lat="48.099194" lon="10.56904">
<ele>538.027</ele>
<time>2020-09-10T15:47:21Z</time>
</trkpt>
<trkpt lat="48.099144" lon="10.56906">
<ele>538.027</ele>
<time>2020-09-10T15:47:22Z</time>
</trkpt>
<trkpt lat="48.099094" lon="10.569078">
<ele>538.027</ele>
<time>2020-09-10T15:47:23Z</time>
</trkpt>
<trkpt lat="48.099037" lon="10.569098">
<ele>538.027</ele>
<time>2020-09-10T15:47:24Z</time>
</trkpt>
<trkpt lat="48.098984" lon="10.569121">
<ele>538.027</ele>
<time>2020-09-10T15:47:25Z</time>
</trkpt>
<trkpt lat="48.09893" lon="10.569143">
<ele>538.027</ele>
<time>2020-09-10T15:47:26Z</time>
</trkpt>
<trkpt lat="48.098877" lon="10.569167">
<ele>538.027</ele>
<time>2020-09-10T15:47:27Z</time>
</trkpt>
<trkpt lat="48.098824" lon="10.569187">
<ele>538.027</ele>
<time>2020-09-10T15:47:28Z</time>
</trkpt>
<trkpt lat="48.09877" lon="10.569208">
<ele>538.027</ele>
<time>2020-09-10T15:47:29Z</time>
</trkpt>
<trkpt lat="48.098717" lon="10.569236">
<ele>538.027</ele>
<time>2020-09-10T15:47:30Z</time>
</trkpt>
<trkpt lat="48.098671" lon="10.56926">
<ele>538.027</ele>
<time>2020-09-10T15:47:31Z</time>
</trkpt>
<trkpt lat="48.098621" lon="10.569282">
<ele>538.027</ele>
<time>2020-09-10T15:47:32Z</time>
</trkpt>
<trkpt lat="48.098576" lon="10.569302">
<ele>538.027</ele>
<time>2020-09-10T15:47:33Z</time>
</trkpt>
<trkpt lat="48.098522" lon="10.569325">
<ele>538.027</ele>
<time>2020-09-10T15:47:34Z</time>
</trkpt>
<trkpt lat="48.098469" lon="10.569351">
<ele>538.027</ele>
<time>2020-09-10T15:47:35Z</time>
</trkpt>
<trkpt lat="48.098419" lon="10.569375">
<ele>538.027</ele>
<time>2020-09-10T15:47:36Z</time>
</trkpt>
<trkpt lat="48.09837" lon="10.569402">
<ele>538.027</ele>
<time>2020-09-10T15:47:37Z</time>
</trkpt>
<trkpt lat="48.098316" lon="10.569427">
<ele>538.027</ele>
<time>2020-09-10T15:47:38Z</time>
</trkpt>
<trkpt lat="48.098263" lon="10.569453">
<ele>538.027</ele>
<time>2020-09-10T15:47:39Z</time>
</trkpt>
<trkpt lat="48.098213" lon="10.569481">
<ele>538.027</ele>
<time>2020-09-10T15:47:40Z</time>
</trkpt>
<trkpt lat="48.09816" lon="10.569512">
<ele>538.027</ele>
<time>2020-09-10T15:47:41Z</time>
</trkpt>
<trkpt lat="48.098106" lon="10.569538">
<ele>538.027</ele>
<time>2020-09-10T15:47:42Z</time>
</trkpt>
<trkpt lat="48.098053" lon="10.569565">
<ele>538.027</ele>
<time>2020-09-10T15:47:43Z</time>
</trkpt>
<trkpt lat="48.098" lon="10.569592">
<ele>538.027</ele>
<time>2020-09-10T15:47:44Z</time>
</trkpt>
<trkpt lat="48.097946" lon="10.569617">
<ele>538.027</ele>
<time>2020-09-10T15:47:45Z</time>
</trkpt>
<trkpt lat="48.097897" lon="10.569643">
<ele>538.027</ele>
<time>2020-09-10T15:47:46Z</time>
</trkpt>
<trkpt lat="48.097836" lon="10.569667">
<ele>538.027</ele>
<time>2020-09-10T15:47:47Z</time>
</trkpt>
<trkpt lat="48.097782" lon="10.569691">
<ele>538.027</ele>
<time>2020-09-10T15:47:48Z</time>
</trkpt>
<trkpt lat="48.097725" lon="10.569715">
<ele>538.027</ele>
<time>2020-09-10T15:47:49Z</time>
</trkpt>
<trkpt lat="48.097672" lon="10.56974">
<ele>538.027</ele>
<time>2020-09-10T15:47:50Z</time>
</trkpt>
<trkpt lat="48.09761" lon="10.569759">
<ele>538.027</ele>
<time>2020-09-10T15:47:51Z</time>
</trkpt>
<trkpt lat="48.097553" lon="10.569783">
<ele>538.027</ele>
<time>2020-09-10T15:47:52Z</time>
</trkpt>
<trkpt lat="48.097504" lon="10.569808">
<ele>538.027</ele>
<time>2020-09-10T15:47:53Z</time>
</trkpt>
<trkpt lat="48.097446" lon="10.569829">
<ele>538.027</ele>
<time>2020-09-10T15:47:54Z</time>
</trkpt>
<trkpt lat="48.097389" lon="10.569848">
<ele>538.027</ele>
<time>2020-09-10T15:47:55Z</time>
</trkpt>
<trkpt lat="48.097336" lon="10.569871">
<ele>538.027</ele>
<time>2020-09-10T15:47:56Z</time>
</trkpt>
<trkpt lat="48.097279" lon="10.569901">
<ele>538.027</ele>
<time>2020-09-10T15:47:57Z</time>
</trkpt>
<trkpt lat="48.097225" lon="10.56993">
<ele>538.027</ele>
<time>2020-09-10T15:47:58Z</time>
</trkpt>
<trkpt lat="48.09716" lon="10.569963">
<ele>538.027</ele>
<time>2020-09-10T15:47:59Z</time>
</trkpt>
<trkpt lat="48.097103" lon="10.56999">
<ele>538.027</ele>
<time>2020-09-10T15:48:00Z</time>
</trkpt>
<trkpt lat="48.097046" lon="10.570015">
<ele>538.027</ele>
<time>2020-09-10T15:48:01Z</time>
</trkpt>
<trkpt lat="48.096985" lon="10.57004">
<ele>538.027</ele>
<time>2020-09-10T15:48:02Z</time>
</trkpt>
<trkpt lat="48.09692" lon="10.570065">
<ele>538.027</ele>
<time>2020-09-10T15:48:03Z</time>
</trkpt>
<trkpt lat="48.096859" lon="10.570093">
<ele>538.027</ele>
<time>2020-09-10T15:48:04Z</time>
</trkpt>
<trkpt lat="48.096798" lon="10.57012">
<ele>538.027</ele>
<time>2020-09-10T15:48:05Z</time>
</trkpt>
<trkpt lat="48.096733" lon="10.570148">
<ele>538.027</ele>
<time>2020-09-10T15:48:06Z</time>
</trkpt>
<trkpt lat="48.096672" lon="10.570173">
<ele>538.027</ele>
<time>2020-09-10T15:48:07Z</time>
</trkpt>
<trkpt lat="48.096611" lon="10.570202">
<ele>538.027</ele>
<time>2020-09-10T15:48:08Z</time>
</trkpt>
<trkpt lat="48.09655" lon="10.570229">
<ele>538.027</ele>
<time>2020-09-10T15:48:09Z</time>
</trkpt>
<trkpt lat="48.096489" lon="10.570254">
<ele>538.027</ele>
<time>2020-09-10T15:48:10Z</time>
</trkpt>
<trkpt lat="48.096428" lon="10.57028">
<ele>538.027</ele>
<time>2020-09-10T15:48:11Z</time>
</trkpt>
<trkpt lat="48.096367" lon="10.570303">
<ele>538.027</ele>
<time>2020-09-10T15:48:12Z</time>
</trkpt>
<trkpt lat="48.096313" lon="10.57033">
<ele>538.027</ele>
<time>2020-09-10T15:48:13Z</time>
</trkpt>
<trkpt lat="48.096256" lon="10.570356">
<ele>538.027</ele>
<time>2020-09-10T15:48:14Z</time>
</trkpt>
<trkpt lat="48.096203" lon="10.570382">
<ele>538.027</ele>
<time>2020-09-10T15:48:15Z</time>
</trkpt>
<trkpt lat="48.096142" lon="10.570405">
<ele>538.027</ele>
<time>2020-09-10T15:48:16Z</time>
</trkpt>
<trkpt lat="48.096085" lon="10.570426">
<ele>538.027</ele>
<time>2020-09-10T15:48:17Z</time>
</trkpt>
<trkpt lat="48.096031" lon="10.570454">
<ele>538.027</ele>
<time>2020-09-10T15:48:18Z</time>
</trkpt>
<trkpt lat="48.09597" lon="10.57048">
<ele>538.22</ele>
<time>2020-09-10T15:48:19Z</time>
</trkpt>
<trkpt lat="48.095913" lon="10.570507">
<ele>538.407</ele>
<time>2020-09-10T15:48:20Z</time>
</trkpt>
<trkpt lat="48.095856" lon="10.570532">
<ele>538.559</ele>
<time>2020-09-10T15:48:21Z</time>
</trkpt>
<trkpt lat="48.095798" lon="10.570557">
<ele>538.68</ele>
<time>2020-09-10T15:48:22Z</time>
</trkpt>
<trkpt lat="48.095737" lon="10.570583">
<ele>538.773</ele>
<time>2020-09-10T15:48:23Z</time>
</trkpt>
<trkpt lat="48.09568" lon="10.570608">
<ele>538.839</ele>
<time>2020-09-10T15:48:24Z</time>
</trkpt>
<trkpt lat="48.095623" lon="10.570633">
<ele>538.882</ele>
<time>2020-09-10T15:48:25Z</time>
</trkpt>
<trkpt lat="48.095566" lon="10.570659">
<ele>538.902</ele>
<time>2020-09-10T15:48:26Z</time>
</trkpt>
<trkpt lat="48.095512" lon="10.570683">
<ele>538.902</ele>
<time>2020-09-10T15:48:27Z</time>
</trkpt>
<trkpt lat="48.095451" lon="10.570704">
<ele>538.902</ele>
<time>2020-09-10T15:48:28Z</time>
</trkpt>
<trkpt lat="48.095398" lon="10.57073">
<ele>538.902</ele>
<time>2020-09-10T15:48:29Z</time>
</trkpt>
<trkpt lat="48.095345" lon="10.570753">
<ele>538.902</ele>
<time>2020-09-10T15:48:30Z</time>
</trkpt>
<trkpt lat="48.095287" lon="10.57078">
<ele>538.902</ele>
<time>2020-09-10T15:48:31Z</time>
</trkpt>
<trkpt lat="48.09523" lon="10.570805">
<ele>538.902</ele>
<time>2020-09-10T15:48:32Z</time>
</trkpt>
<trkpt lat="48.095177" lon="10.570832">
<ele>538.902</ele>
<time>2020-09-10T15:48:33Z</time>
</trkpt>
<trkpt lat="48.095119" lon="10.570857">
<ele>538.902</ele>
<time>2020-09-10T15:48:34Z</time>
</trkpt>
<trkpt lat="48.095062" lon="10.570882">
<ele>538.902</ele>
<time>2020-09-10T15:48:35Z</time>
</trkpt>
<trkpt lat="48.095005" lon="10.570907">
<ele>538.902</ele>
<time>2020-09-10T15:48:36Z</time>
</trkpt>
<trkpt lat="48.094952" lon="10.570933">
<ele>538.902</ele>
<time>2020-09-10T15:48:37Z</time>
</trkpt>
<trkpt lat="48.094894" lon="10.570958">
<ele>538.902</ele>
<time>2020-09-10T15:48:38Z</time>
</trkpt>
<trkpt lat="48.094833" lon="10.570985">
<ele>538.902</ele>
<time>2020-09-10T15:48:39Z</time>
</trkpt>
<trkpt lat="48.094776" lon="10.571009">
<ele>538.902</ele>
<time>2020-09-10T15:48:40Z</time>
</trkpt>
<trkpt lat="48.094723" lon="10.571033">
<ele>538.902</ele>
<time>2020-09-10T15:48:41Z</time>
</trkpt>
<trkpt lat="48.094669" lon="10.571058">
<ele>538.902</ele>
<time>2020-09-10T15:48:42Z</time>
</trkpt>
<trkpt lat="48.094612" lon="10.57108">
<ele>538.902</ele>
<time>2020-09-10T15:48:43Z</time>
</trkpt>
<trkpt lat="48.094559" lon="10.571103">
<ele>538.902</ele>
<time>2020-09-10T15:48:44Z</time>
</trkpt>
<trkpt lat="48.094505" lon="10.571127">
<ele>538.902</ele>
<time>2020-09-10T15:48:45Z</time>
</trkpt>
<trkpt lat="48.094448" lon="10.571151">
<ele>538.902</ele>
<time>2020-09-10T15:48:46Z</time>
</trkpt>
<trkpt lat="48.094395" lon="10.571176">
<ele>538.902</ele>
<time>2020-09-10T15:48:47Z</time>
</trkpt>
<trkpt lat="48.094341" lon="10.571198">
<ele>538.902</ele>
<time>2020-09-10T15:48:48Z</time>
</trkpt>
<trkpt lat="48.09428" lon="10.571223">
<ele>538.902</ele>
<time>2020-09-10T15:48:49Z</time>
</trkpt>
<trkpt lat="48.094223" lon="10.57125">
<ele>538.902</ele>
<time>2020-09-10T15:48:50Z</time>
</trkpt>
<trkpt lat="48.09417" lon="10.571277">
<ele>539.193</ele>
<time>2020-09-10T15:48:51Z</time>
</trkpt>
<trkpt lat="48.094116" lon="10.571301">
<ele>539.416</ele>
<time>2020-09-10T15:48:52Z</time>
</trkpt>
<trkpt lat="48.094059" lon="10.571326">
<ele>539.584</ele>
<time>2020-09-10T15:48:53Z</time>
</trkpt>
<trkpt lat="48.094002" lon="10.571352">
<ele>539.703</ele>
<time>2020-09-10T15:48:54Z</time>
</trkpt>
<trkpt lat="48.093945" lon="10.571375">
<ele>539.79</ele>
<time>2020-09-10T15:48:55Z</time>
</trkpt>
<trkpt lat="48.093887" lon="10.5714">
<ele>539.837</ele>
<time>2020-09-10T15:48:56Z</time>
</trkpt>
<trkpt lat="48.093834" lon="10.571427">
<ele>539.861</ele>
<time>2020-09-10T15:48:57Z</time>
</trkpt>
<trkpt lat="48.093777" lon="10.571453">
<ele>539.864</ele>
<time>2020-09-10T15:48:58Z</time>
</trkpt>
<trkpt lat="48.093719" lon="10.57148">
<ele>539.865</ele>
<time>2020-09-10T15:48:59Z</time>
</trkpt>
<trkpt lat="48.093658" lon="10.571507">
<ele>539.864</ele>
<time>2020-09-10T15:49:00Z</time>
</trkpt>
<trkpt lat="48.093601" lon="10.571532">
<ele>539.864</ele>
<time>2020-09-10T15:49:01Z</time>
</trkpt>
<trkpt lat="48.093544" lon="10.571559">
<ele>539.864</ele>
<time>2020-09-10T15:49:02Z</time>
</trkpt>
<trkpt lat="48.093491" lon="10.571585">
<ele>539.865</ele>
<time>2020-09-10T15:49:03Z</time>
</trkpt>
<trkpt lat="48.093433" lon="10.571609">
<ele>539.864</ele>
<time>2020-09-10T15:49:04Z</time>
</trkpt>
<trkpt lat="48.093372" lon="10.571635">
<ele>539.864</ele>
<time>2020-09-10T15:49:05Z</time>
</trkpt>
<trkpt lat="48.093315" lon="10.571662">
<ele>539.864</ele>
<time>2020-09-10T15:49:06Z</time>
</trkpt>
<trkpt lat="48.093262" lon="10.571689">
<ele>539.864</ele>
<time>2020-09-10T15:49:07Z</time>
</trkpt>
<trkpt lat="48.093204" lon="10.571716">
<ele>539.865</ele>
<time>2020-09-10T15:49:08Z</time>
</trkpt>
<trkpt lat="48.093151" lon="10.571744">
<ele>539.864</ele>
<time>2020-09-10T15:49:09Z</time>
</trkpt>
<trkpt lat="48.093094" lon="10.571767">
<ele>539.864</ele>
<time>2020-09-10T15:49:10Z</time>
</trkpt>
<trkpt lat="48.093037" lon="10.571788">
<ele>539.864</ele>
<time>2020-09-10T15:49:11Z</time>
</trkpt>
<trkpt lat="48.092976" lon="10.571811">
<ele>539.864</ele>
<time>2020-09-10T15:49:12Z</time>
</trkpt>
<trkpt lat="48.092922" lon="10.571834">
<ele>539.865</ele>
<time>2020-09-10T15:49:13Z</time>
</trkpt>
<trkpt lat="48.092869" lon="10.571858">
<ele>539.865</ele>
<time>2020-09-10T15:49:14Z</time>
</trkpt>
<trkpt lat="48.092812" lon="10.571883">
<ele>539.864</ele>
<time>2020-09-10T15:49:15Z</time>
</trkpt>
<trkpt lat="48.092754" lon="10.57191">
<ele>539.865</ele>
<time>2020-09-10T15:49:16Z</time>
</trkpt>
<trkpt lat="48.092701" lon="10.571935">
<ele>539.864</ele>
<time>2020-09-10T15:49:17Z</time>
</trkpt>
<trkpt lat="48.092648" lon="10.571959">
<ele>539.864</ele>
<time>2020-09-10T15:49:18Z</time>
</trkpt>
<trkpt lat="48.09259" lon="10.571983">
<ele>539.864</ele>
<time>2020-09-10T15:49:19Z</time>
</trkpt>
<trkpt lat="48.092537" lon="10.572007">
<ele>539.864</ele>
<time>2020-09-10T15:49:20Z</time>
</trkpt>
<trkpt lat="48.09248" lon="10.572031">
<ele>539.865</ele>
<time>2020-09-10T15:49:21Z</time>
</trkpt>
<trkpt lat="48.092422" lon="10.572056">
<ele>539.865</ele>
<time>2020-09-10T15:49:22Z</time>
</trkpt>
<trkpt lat="48.092365" lon="10.57208">
<ele>539.865</ele>
<time>2020-09-10T15:49:23Z</time>
</trkpt>
<trkpt lat="48.092308" lon="10.572104">
<ele>539.864</ele>
<time>2020-09-10T15:49:24Z</time>
</trkpt>
<trkpt lat="48.092255" lon="10.572129">
<ele>539.864</ele>
<time>2020-09-10T15:49:25Z</time>
</trkpt>
<trkpt lat="48.092194" lon="10.572153">
<ele>539.864</ele>
<time>2020-09-10T15:49:26Z</time>
</trkpt>
<trkpt lat="48.09214" lon="10.572178">
<ele>539.864</ele>
<time>2020-09-10T15:49:27Z</time>
</trkpt>
<trkpt lat="48.092087" lon="10.572205">
<ele>539.864</ele>
<time>2020-09-10T15:49:28Z</time>
</trkpt>
<trkpt lat="48.09203" lon="10.572231">
<ele>539.864</ele>
<time>2020-09-10T15:49:29Z</time>
</trkpt>
<trkpt lat="48.091972" lon="10.572259">
<ele>539.864</ele>
<time>2020-09-10T15:49:30Z</time>
</trkpt>
<trkpt lat="48.091915" lon="10.57228">
<ele>539.865</ele>
<time>2020-09-10T15:49:31Z</time>
</trkpt>
<trkpt lat="48.091858" lon="10.572303">
<ele>539.864</ele>
<time>2020-09-10T15:49:32Z</time>
</trkpt>
<trkpt lat="48.091801" lon="10.572329">
<ele>539.864</ele>
<time>2020-09-10T15:49:33Z</time>
</trkpt>
<trkpt lat="48.091747" lon="10.572355">
<ele>540.126</ele>
<time>2020-09-10T15:49:34Z</time>
</trkpt>
<trkpt lat="48.09169" lon="10.572382">
<ele>540.331</ele>
<time>2020-09-10T15:49:35Z</time>
</trkpt>
<trkpt lat="48.091633" lon="10.572408">
<ele>540.489</ele>
<time>2020-09-10T15:49:36Z</time>
</trkpt>
<trkpt lat="48.091576" lon="10.572435">
<ele>540.601</ele>
<time>2020-09-10T15:49:37Z</time>
</trkpt>
<trkpt lat="48.091518" lon="10.57246">
<ele>540.686</ele>
<time>2020-09-10T15:49:38Z</time>
</trkpt>
<trkpt lat="48.091461" lon="10.572485">
<ele>540.747</ele>
<time>2020-09-10T15:49:39Z</time>
</trkpt>
<trkpt lat="48.091408" lon="10.57251">
<ele>540.801</ele>
<time>2020-09-10T15:49:40Z</time>
</trkpt>
<trkpt lat="48.091351" lon="10.572536">
<ele>540.827</ele>
<time>2020-09-10T15:49:41Z</time>
</trkpt>
<trkpt lat="48.091293" lon="10.572561">
<ele>540.827</ele>
<time>2020-09-10T15:49:42Z</time>
</trkpt>
<trkpt lat="48.091236" lon="10.572588">
<ele>540.827</ele>
<time>2020-09-10T15:49:43Z</time>
</trkpt>
<trkpt lat="48.091183" lon="10.572615">
<ele>540.827</ele>
<time>2020-09-10T15:49:44Z</time>
</trkpt>
<trkpt lat="48.091125" lon="10.572639">
<ele>540.827</ele>
<time>2020-09-10T15:49:45Z</time>
</trkpt>
<trkpt lat="48.091072" lon="10.572663">
<ele>540.827</ele>
<time>2020-09-10T15:49:46Z</time>
</trkpt>
<trkpt lat="48.091019" lon="10.57269">
<ele>540.827</ele>
<time>2020-09-10T15:49:47Z</time>
</trkpt>
<trkpt lat="48.090961" lon="10.572716">
<ele>540.827</ele>
<time>2020-09-10T15:49:48Z</time>
</trkpt>
<trkpt lat="48.090904" lon="10.572742">
<ele>540.827</ele>
<time>2020-09-10T15:49:49Z</time>
</trkpt>
<trkpt lat="48.090851" lon="10.572766">
<ele>540.827</ele>
<time>2020-09-10T15:49:50Z</time>
</trkpt>
<trkpt lat="48.090794" lon="10.572789">
<ele>540.827</ele>
<time>2020-09-10T15:49:51Z</time>
</trkpt>
<trkpt lat="48.090736" lon="10.572815">
<ele>541.081</ele>
<time>2020-09-10T15:49:52Z</time>
</trkpt>
<trkpt lat="48.090683" lon="10.57284">
<ele>541.278</ele>
<time>2020-09-10T15:49:53Z</time>
</trkpt>
<trkpt lat="48.09063" lon="10.572865">
<ele>541.427</ele>
<time>2020-09-10T15:49:54Z</time>
</trkpt>
<trkpt lat="48.090572" lon="10.572893">
<ele>541.534</ele>
<time>2020-09-10T15:49:55Z</time>
</trkpt>
<trkpt lat="48.090515" lon="10.572919">
<ele>541.613</ele>
<time>2020-09-10T15:49:56Z</time>
</trkpt>
<trkpt lat="48.090462" lon="10.572942">
<ele>541.659</ele>
<time>2020-09-10T15:49:57Z</time>
</trkpt>
<trkpt lat="48.090405" lon="10.572965">
<ele>541.682</ele>
<time>2020-09-10T15:49:58Z</time>
</trkpt>
<trkpt lat="48.090351" lon="10.57299">
<ele>541.702</ele>
<time>2020-09-10T15:49:59Z</time>
</trkpt>
<trkpt lat="48.090298" lon="10.573015">
<ele>541.702</ele>
<time>2020-09-10T15:50:00Z</time>
</trkpt>
<trkpt lat="48.09024" lon="10.573042">
<ele>541.702</ele>
<time>2020-09-10T15:50:01Z</time>
</trkpt>
<trkpt lat="48.090187" lon="10.573067">
<ele>541.702</ele>
<time>2020-09-10T15:50:02Z</time>
</trkpt>
<trkpt lat="48.090137" lon="10.573091">
<ele>541.702</ele>
<time>2020-09-10T15:50:03Z</time>
</trkpt>
<trkpt lat="48.090076" lon="10.573115">
<ele>541.702</ele>
<time>2020-09-10T15:50:04Z</time>
</trkpt>
<trkpt lat="48.090023" lon="10.573139">
<ele>541.702</ele>
<time>2020-09-10T15:50:05Z</time>
</trkpt>
<trkpt lat="48.089966" lon="10.573165">
<ele>541.702</ele>
<time>2020-09-10T15:50:06Z</time>
</trkpt>
<trkpt lat="48.089912" lon="10.573187">
<ele>541.702</ele>
<time>2020-09-10T15:50:07Z</time>
</trkpt>
<trkpt lat="48.089855" lon="10.57321">
<ele>541.702</ele>
<time>2020-09-10T15:50:08Z</time>
</trkpt>
<trkpt lat="48.089802" lon="10.573234">
<ele>541.702</ele>
<time>2020-09-10T15:50:09Z</time>
</trkpt>
<trkpt lat="48.089748" lon="10.573256">
<ele>541.702</ele>
<time>2020-09-10T15:50:10Z</time>
</trkpt>
<trkpt lat="48.089687" lon="10.573281">
<ele>541.702</ele>
<time>2020-09-10T15:50:11Z</time>
</trkpt>
<trkpt lat="48.089634" lon="10.573307">
<ele>541.702</ele>
<time>2020-09-10T15:50:12Z</time>
</trkpt>
<trkpt lat="48.089577" lon="10.573332">
<ele>541.702</ele>
<time>2020-09-10T15:50:13Z</time>
</trkpt>
<trkpt lat="48.08952" lon="10.573355">
<ele>541.702</ele>
<time>2020-09-10T15:50:14Z</time>
</trkpt>
<trkpt lat="48.089462" lon="10.573379">
<ele>541.702</ele>
<time>2020-09-10T15:50:15Z</time>
</trkpt>
<trkpt lat="48.089405" lon="10.573403">
<ele>541.702</ele>
<time>2020-09-10T15:50:16Z</time>
</trkpt>
<trkpt lat="48.089352" lon="10.573428">
<ele>541.702</ele>
<time>2020-09-10T15:50:17Z</time>
</trkpt>
<trkpt lat="48.089294" lon="10.573455">
<ele>541.702</ele>
<time>2020-09-10T15:50:18Z</time>
</trkpt>
<trkpt lat="48.089237" lon="10.573483">
<ele>541.702</ele>
<time>2020-09-10T15:50:19Z</time>
</trkpt>
<trkpt lat="48.089184" lon="10.573508">
<ele>541.702</ele>
<time>2020-09-10T15:50:20Z</time>
</trkpt>
<trkpt lat="48.089123" lon="10.573535">
<ele>541.702</ele>
<time>2020-09-10T15:50:21Z</time>
</trkpt>
<trkpt lat="48.089066" lon="10.573562">
<ele>541.702</ele>
<time>2020-09-10T15:50:22Z</time>
</trkpt>
<trkpt lat="48.089008" lon="10.573588">
<ele>541.702</ele>
<time>2020-09-10T15:50:23Z</time>
</trkpt>
<trkpt lat="48.088947" lon="10.573615">
<ele>541.702</ele>
<time>2020-09-10T15:50:24Z</time>
</trkpt>
<trkpt lat="48.08889" lon="10.573638">
<ele>541.702</ele>
<time>2020-09-10T15:50:25Z</time>
</trkpt>
<trkpt lat="48.088833" lon="10.573663">
<ele>541.702</ele>
<time>2020-09-10T15:50:26Z</time>
</trkpt>
<trkpt lat="48.088772" lon="10.573689">
<ele>541.702</ele>
<time>2020-09-10T15:50:27Z</time>
</trkpt>
<trkpt lat="48.088711" lon="10.573715">
<ele>541.702</ele>
<time>2020-09-10T15:50:28Z</time>
</trkpt>
<trkpt lat="48.088657" lon="10.573742">
<ele>541.702</ele>
<time>2020-09-10T15:50:29Z</time>
</trkpt>
<trkpt lat="48.0886" lon="10.573767">
<ele>541.702</ele>
<time>2020-09-10T15:50:30Z</time>
</trkpt>
<trkpt lat="48.088539" lon="10.573793">
<ele>541.702</ele>
<time>2020-09-10T15:50:31Z</time>
</trkpt>
<trkpt lat="48.088478" lon="10.57382">
<ele>541.702</ele>
<time>2020-09-10T15:50:32Z</time>
</trkpt>
<trkpt lat="48.088417" lon="10.573849">
<ele>541.702</ele>
<time>2020-09-10T15:50:33Z</time>
</trkpt>
<trkpt lat="48.08836" lon="10.573874">
<ele>541.702</ele>
<time>2020-09-10T15:50:34Z</time>
</trkpt>
<trkpt lat="48.088303" lon="10.5739">
<ele>541.702</ele>
<time>2020-09-10T15:50:35Z</time>
</trkpt>
<trkpt lat="48.088242" lon="10.573929">
<ele>541.702</ele>
<time>2020-09-10T15:50:36Z</time>
</trkpt>
<trkpt lat="48.088184" lon="10.573956">
<ele>541.702</ele>
<time>2020-09-10T15:50:37Z</time>
</trkpt>
<trkpt lat="48.088123" lon="10.573983">
<ele>541.702</ele>
<time>2020-09-10T15:50:38Z</time>
</trkpt>
<trkpt lat="48.088066" lon="10.574008">
<ele>541.702</ele>
<time>2020-09-10T15:50:39Z</time>
</trkpt>
<trkpt lat="48.088009" lon="10.574034">
<ele>541.702</ele>
<time>2020-09-10T15:50:40Z</time>
</trkpt>
<trkpt lat="48.087948" lon="10.57406">
<ele>541.702</ele>
<time>2020-09-10T15:50:41Z</time>
</trkpt>
<trkpt lat="48.087891" lon="10.574085">
<ele>541.702</ele>
<time>2020-09-10T15:50:42Z</time>
</trkpt>
<trkpt lat="48.08783" lon="10.57411">
<ele>541.702</ele>
<time>2020-09-10T15:50:43Z</time>
</trkpt>
<trkpt lat="48.087772" lon="10.574137">
<ele>541.702</ele>
<time>2020-09-10T15:50:44Z</time>
</trkpt>
<trkpt lat="48.087715" lon="10.574166">
<ele>541.702</ele>
<time>2020-09-10T15:50:45Z</time>
</trkpt>
<trkpt lat="48.087654" lon="10.574197">
<ele>541.702</ele>
<time>2020-09-10T15:50:46Z</time>
</trkpt>
<trkpt lat="48.087597" lon="10.574224">
<ele>541.702</ele>
<time>2020-09-10T15:50:47Z</time>
</trkpt>
<trkpt lat="48.087532" lon="10.57425">
<ele>541.702</ele>
<time>2020-09-10T15:50:48Z</time>
</trkpt>
<trkpt lat="48.087475" lon="10.574275">
<ele>541.702</ele>
<time>2020-09-10T15:50:49Z</time>
</trkpt>
<trkpt lat="48.087414" lon="10.574304">
<ele>541.702</ele>
<time>2020-09-10T15:50:50Z</time>
</trkpt>
<trkpt lat="48.087357" lon="10.574328">
<ele>541.702</ele>
<time>2020-09-10T15:50:51Z</time>
</trkpt>
<trkpt lat="48.087299" lon="10.574354">
<ele>541.702</ele>
<time>2020-09-10T15:50:52Z</time>
</trkpt>
<trkpt lat="48.087238" lon="10.57438">
<ele>541.702</ele>
<time>2020-09-10T15:50:53Z</time>
</trkpt>
<trkpt lat="48.087173" lon="10.574405">
<ele>541.702</ele>
<time>2020-09-10T15:50:54Z</time>
</trkpt>
<trkpt lat="48.087112" lon="10.574431">
<ele>541.702</ele>
<time>2020-09-10T15:50:55Z</time>
</trkpt>
<trkpt lat="48.087055" lon="10.574459">
<ele>541.702</ele>
<time>2020-09-10T15:50:56Z</time>
</trkpt>
<trkpt lat="48.086998" lon="10.574489">
<ele>541.702</ele>
<time>2020-09-10T15:50:57Z</time>
</trkpt>
<trkpt lat="48.086937" lon="10.574517">
<ele>541.809</ele>
<time>2020-09-10T15:50:58Z</time>
</trkpt>
<trkpt lat="48.086876" lon="10.574545">
<ele>541.885</ele>
<time>2020-09-10T15:50:59Z</time>
</trkpt>
<trkpt lat="48.086815" lon="10.574568">
<ele>541.962</ele>
<time>2020-09-10T15:51:00Z</time>
</trkpt>
<trkpt lat="48.086754" lon="10.574592">
<ele>542.025</ele>
<time>2020-09-10T15:51:01Z</time>
</trkpt>
<trkpt lat="48.086693" lon="10.574616">
<ele>542.072</ele>
<time>2020-09-10T15:51:02Z</time>
</trkpt>
<trkpt lat="48.086632" lon="10.574645">
<ele>542.107</ele>
<time>2020-09-10T15:51:03Z</time>
</trkpt>
<trkpt lat="48.086571" lon="10.574672">
<ele>542.129</ele>
<time>2020-09-10T15:51:04Z</time>
</trkpt>
<trkpt lat="48.08651" lon="10.5747">
<ele>542.139</ele>
<time>2020-09-10T15:51:05Z</time>
</trkpt>
<trkpt lat="48.086452" lon="10.574729">
<ele>542.14</ele>
<time>2020-09-10T15:51:06Z</time>
</trkpt>
<trkpt lat="48.086391" lon="10.574757">
<ele>542.14</ele>
<time>2020-09-10T15:51:07Z</time>
</trkpt>
<trkpt lat="48.08633" lon="10.574781">
<ele>542.14</ele>
<time>2020-09-10T15:51:08Z</time>
</trkpt>
<trkpt lat="48.086269" lon="10.574807">
<ele>542.14</ele>
<time>2020-09-10T15:51:09Z</time>
</trkpt>
<trkpt lat="48.086212" lon="10.574832">
<ele>542.14</ele>
<time>2020-09-10T15:51:10Z</time>
</trkpt>
<trkpt lat="48.086155" lon="10.574859">
<ele>542.139</ele>
<time>2020-09-10T15:51:11Z</time>
</trkpt>
<trkpt lat="48.086094" lon="10.574884">
<ele>542.139</ele>
<time>2020-09-10T15:51:12Z</time>
</trkpt>
<trkpt lat="48.086033" lon="10.574913">
<ele>542.14</ele>
<time>2020-09-10T15:51:13Z</time>
</trkpt>
<trkpt lat="48.085972" lon="10.574942">
<ele>542.14</ele>
<time>2020-09-10T15:51:14Z</time>
</trkpt>
<trkpt lat="48.085911" lon="10.574968">
<ele>542.14</ele>
<time>2020-09-10T15:51:15Z</time>
</trkpt>
<trkpt lat="48.08585" lon="10.574995">
<ele>542.14</ele>
<time>2020-09-10T15:51:16Z</time>
</trkpt>
<trkpt lat="48.085793" lon="10.575023">
<ele>542.14</ele>
<time>2020-09-10T15:51:17Z</time>
</trkpt>
<trkpt lat="48.085735" lon="10.575051">
<ele>542.139</ele>
<time>2020-09-10T15:51:18Z</time>
</trkpt>
<trkpt lat="48.085674" lon="10.57508">
<ele>542.139</ele>
<time>2020-09-10T15:51:19Z</time>
</trkpt>
<trkpt lat="48.085609" lon="10.575109">
<ele>542.139</ele>
<time>2020-09-10T15:51:20Z</time>
</trkpt>
<trkpt lat="48.085548" lon="10.575138">
<ele>542.139</ele>
<time>2020-09-10T15:51:21Z</time>
</trkpt>
<trkpt lat="48.085491" lon="10.575167">
<ele>542.14</ele>
<time>2020-09-10T15:51:22Z</time>
</trkpt>
<trkpt lat="48.08543" lon="10.575194">
<ele>542.14</ele>
<time>2020-09-10T15:51:23Z</time>
</trkpt>
<trkpt lat="48.085369" lon="10.57522">
<ele>542.14</ele>
<time>2020-09-10T15:51:24Z</time>
</trkpt>
<trkpt lat="48.085312" lon="10.575249">
<ele>542.394</ele>
<time>2020-09-10T15:51:25Z</time>
</trkpt>
<trkpt lat="48.085251" lon="10.575276">
<ele>542.593</ele>
<time>2020-09-10T15:51:26Z</time>
</trkpt>
<trkpt lat="48.08519" lon="10.575307">
<ele>542.742</ele>
<time>2020-09-10T15:51:27Z</time>
</trkpt>
<trkpt lat="48.085129" lon="10.575335">
<ele>542.858</ele>
<time>2020-09-10T15:51:28Z</time>
</trkpt>
<trkpt lat="48.085072" lon="10.575365">
<ele>542.939</ele>
<time>2020-09-10T15:51:29Z</time>
</trkpt>
<trkpt lat="48.085014" lon="10.575394">
<ele>543.023</ele>
<time>2020-09-10T15:51:30Z</time>
</trkpt>
<trkpt lat="48.084953" lon="10.575425">
<ele>543.076</ele>
<time>2020-09-10T15:51:31Z</time>
</trkpt>
<trkpt lat="48.084892" lon="10.575457">
<ele>543.102</ele>
<time>2020-09-10T15:51:32Z</time>
</trkpt>
<trkpt lat="48.084835" lon="10.575487">
<ele>543.102</ele>
<time>2020-09-10T15:51:33Z</time>
</trkpt>
<trkpt lat="48.084774" lon="10.575515">
<ele>543.102</ele>
<time>2020-09-10T15:51:34Z</time>
</trkpt>
<trkpt lat="48.084717" lon="10.575543">
<ele>543.102</ele>
<time>2020-09-10T15:51:35Z</time>
</trkpt>
<trkpt lat="48.084656" lon="10.575573">
<ele>543.102</ele>
<time>2020-09-10T15:51:36Z</time>
</trkpt>
<trkpt lat="48.084599" lon="10.575602">
<ele>543.102</ele>
<time>2020-09-10T15:51:37Z</time>
</trkpt>
<trkpt lat="48.084541" lon="10.575634">
<ele>543.102</ele>
<time>2020-09-10T15:51:38Z</time>
</trkpt>
<trkpt lat="48.084484" lon="10.575662">
<ele>543.102</ele>
<time>2020-09-10T15:51:39Z</time>
</trkpt>
<trkpt lat="48.084427" lon="10.57569">
<ele>543.102</ele>
<time>2020-09-10T15:51:40Z</time>
</trkpt>
<trkpt lat="48.08437" lon="10.575718">
<ele>543.102</ele>
<time>2020-09-10T15:51:41Z</time>
</trkpt>
<trkpt lat="48.084309" lon="10.575746">
<ele>543.102</ele>
<time>2020-09-10T15:51:42Z</time>
</trkpt>
<trkpt lat="48.084248" lon="10.575773">
<ele>543.102</ele>
<time>2020-09-10T15:51:43Z</time>
</trkpt>
<trkpt lat="48.084194" lon="10.575805">
<ele>543.102</ele>
<time>2020-09-10T15:51:44Z</time>
</trkpt>
<trkpt lat="48.084137" lon="10.575833">
<ele>543.102</ele>
<time>2020-09-10T15:51:45Z</time>
</trkpt>
<trkpt lat="48.084076" lon="10.575862">
<ele>543.102</ele>
<time>2020-09-10T15:51:46Z</time>
</trkpt>
<trkpt lat="48.084019" lon="10.575894">
<ele>543.102</ele>
<time>2020-09-10T15:51:47Z</time>
</trkpt>
<trkpt lat="48.083965" lon="10.575925">
<ele>543.102</ele>
<time>2020-09-10T15:51:48Z</time>
</trkpt>
<trkpt lat="48.083904" lon="10.575955">
<ele>543.102</ele>
<time>2020-09-10T15:51:49Z</time>
</trkpt>
<trkpt lat="48.083847" lon="10.575987">
<ele>543.102</ele>
<time>2020-09-10T15:51:50Z</time>
</trkpt>
<trkpt lat="48.08379" lon="10.576018">
<ele>543.102</ele>
<time>2020-09-10T15:51:51Z</time>
</trkpt>
<trkpt lat="48.083733" lon="10.57605">
<ele>543.102</ele>
<time>2020-09-10T15:51:52Z</time>
</trkpt>
<trkpt lat="48.083675" lon="10.576082">
<ele>543.399</ele>
<time>2020-09-10T15:51:53Z</time>
</trkpt>
<trkpt lat="48.083618" lon="10.576112">
<ele>543.627</ele>
<time>2020-09-10T15:51:54Z</time>
</trkpt>
<trkpt lat="48.083557" lon="10.576143">
<ele>543.799</ele>
<time>2020-09-10T15:51:55Z</time>
</trkpt>
<trkpt lat="48.0835" lon="10.576175">
<ele>543.929</ele>
<time>2020-09-10T15:51:56Z</time>
</trkpt>
<trkpt lat="48.083447" lon="10.576204">
<ele>544.018</ele>
<time>2020-09-10T15:51:57Z</time>
</trkpt>
<trkpt lat="48.083389" lon="10.576235">
<ele>544.077</ele>
<time>2020-09-10T15:51:58Z</time>
</trkpt>
<trkpt lat="48.083332" lon="10.576265">
<ele>544.123</ele>
<time>2020-09-10T15:51:59Z</time>
</trkpt>
<trkpt lat="48.083275" lon="10.576295">
<ele>544.152</ele>
<time>2020-09-10T15:52:00Z</time>
</trkpt>
<trkpt lat="48.083218" lon="10.576325">
<ele>544.152</ele>
<time>2020-09-10T15:52:01Z</time>
</trkpt>
<trkpt lat="48.08316" lon="10.576357">
<ele>544.152</ele>
<time>2020-09-10T15:52:02Z</time>
</trkpt>
<trkpt lat="48.083103" lon="10.57639">
<ele>544.152</ele>
<time>2020-09-10T15:52:03Z</time>
</trkpt>
<trkpt lat="48.083046" lon="10.576424">
<ele>544.152</ele>
<time>2020-09-10T15:52:04Z</time>
</trkpt>
<trkpt lat="48.082989" lon="10.576451">
<ele>544.152</ele>
<time>2020-09-10T15:52:05Z</time>
</trkpt>
<trkpt lat="48.082935" lon="10.576481">
<ele>544.152</ele>
<time>2020-09-10T15:52:06Z</time>
</trkpt>
<trkpt lat="48.082874" lon="10.57651">
<ele>544.152</ele>
<time>2020-09-10T15:52:07Z</time>
</trkpt>
<trkpt lat="48.082821" lon="10.576538">
<ele>544.152</ele>
<time>2020-09-10T15:52:08Z</time>
</trkpt>
<trkpt lat="48.082764" lon="10.576569">
<ele>544.152</ele>
<time>2020-09-10T15:52:09Z</time>
</trkpt>
<trkpt lat="48.082706" lon="10.576598">
<ele>544.152</ele>
<time>2020-09-10T15:52:10Z</time>
</trkpt>
<trkpt lat="48.082649" lon="10.576632">
<ele>544.152</ele>
<time>2020-09-10T15:52:11Z</time>
</trkpt>
<trkpt lat="48.082592" lon="10.576663">
<ele>544.152</ele>
<time>2020-09-10T15:52:12Z</time>
</trkpt>
<trkpt lat="48.082535" lon="10.576692">
<ele>544.152</ele>
<time>2020-09-10T15:52:13Z</time>
</trkpt>
<trkpt lat="48.082478" lon="10.576718">
<ele>544.152</ele>
<time>2020-09-10T15:52:14Z</time>
</trkpt>
<trkpt lat="48.08242" lon="10.576747">
<ele>544.152</ele>
<time>2020-09-10T15:52:15Z</time>
</trkpt>
<trkpt lat="48.082359" lon="10.576775">
<ele>544.152</ele>
<time>2020-09-10T15:52:16Z</time>
</trkpt>
<trkpt lat="48.082302" lon="10.576803">
<ele>544.152</ele>
<time>2020-09-10T15:52:17Z</time>
</trkpt>
<trkpt lat="48.082249" lon="10.576832">
<ele>544.152</ele>
<time>2020-09-10T15:52:18Z</time>
</trkpt>
<trkpt lat="48.082188" lon="10.576861">
<ele>544.152</ele>
<time>2020-09-10T15:52:19Z</time>
</trkpt>
<trkpt lat="48.082134" lon="10.576892">
<ele>544.152</ele>
<time>2020-09-10T15:52:20Z</time>
</trkpt>
<trkpt lat="48.082073" lon="10.576921">
<ele>544.152</ele>
<time>2020-09-10T15:52:21Z</time>
</trkpt>
<trkpt lat="48.08202" lon="10.576952">
<ele>544.152</ele>
<time>2020-09-10T15:52:22Z</time>
</trkpt>
<trkpt lat="48.081955" lon="10.576983">
<ele>544.152</ele>
<time>2020-09-10T15:52:23Z</time>
</trkpt>
<trkpt lat="48.081898" lon="10.577013">
<ele>544.152</ele>
<time>2020-09-10T15:52:24Z</time>
</trkpt>
<trkpt lat="48.081841" lon="10.577042">
<ele>544.407</ele>
<time>2020-09-10T15:52:25Z</time>
</trkpt>
<trkpt lat="48.081783" lon="10.577071">
<ele>544.606</ele>
<time>2020-09-10T15:52:26Z</time>
</trkpt>
<trkpt lat="48.081726" lon="10.577101">
<ele>544.759</ele>
<time>2020-09-10T15:52:27Z</time>
</trkpt>
<trkpt lat="48.081669" lon="10.57713">
<ele>544.874</ele>
<time>2020-09-10T15:52:28Z</time>
</trkpt>
<trkpt lat="48.081612" lon="10.577158">
<ele>544.953</ele>
<time>2020-09-10T15:52:29Z</time>
</trkpt>
<trkpt lat="48.081558" lon="10.577187">
<ele>545.037</ele>
<time>2020-09-10T15:52:30Z</time>
</trkpt>
<trkpt lat="48.081501" lon="10.577215">
<ele>545.088</ele>
<time>2020-09-10T15:52:31Z</time>
</trkpt>
<trkpt lat="48.081444" lon="10.577245">
<ele>545.115</ele>
<time>2020-09-10T15:52:32Z</time>
</trkpt>
<trkpt lat="48.08139" lon="10.577275">
<ele>545.115</ele>
<time>2020-09-10T15:52:33Z</time>
</trkpt>
<trkpt lat="48.081333" lon="10.577305">
<ele>545.115</ele>
<time>2020-09-10T15:52:34Z</time>
</trkpt>
<trkpt lat="48.081276" lon="10.577335">
<ele>545.115</ele>
<time>2020-09-10T15:52:35Z</time>
</trkpt>
<trkpt lat="48.081223" lon="10.577367">
<ele>545.115</ele>
<time>2020-09-10T15:52:36Z</time>
</trkpt>
<trkpt lat="48.081161" lon="10.577398">
<ele>545.115</ele>
<time>2020-09-10T15:52:37Z</time>
</trkpt>
<trkpt lat="48.081108" lon="10.577432">
<ele>545.115</ele>
<time>2020-09-10T15:52:38Z</time>
</trkpt>
<trkpt lat="48.081047" lon="10.577461">
<ele>545.115</ele>
<time>2020-09-10T15:52:39Z</time>
</trkpt>
<trkpt lat="48.080994" lon="10.577492">
<ele>545.115</ele>
<time>2020-09-10T15:52:40Z</time>
</trkpt>
<trkpt lat="48.08094" lon="10.577518">
<ele>545.115</ele>
<time>2020-09-10T15:52:41Z</time>
</trkpt>
<trkpt lat="48.080879" lon="10.577549">
<ele>545.115</ele>
<time>2020-09-10T15:52:42Z</time>
</trkpt>
<trkpt lat="48.080826" lon="10.57758">
<ele>545.115</ele>
<time>2020-09-10T15:52:43Z</time>
</trkpt>
<trkpt lat="48.080769" lon="10.577612">
<ele>545.115</ele>
<time>2020-09-10T15:52:44Z</time>
</trkpt>
<trkpt lat="48.080711" lon="10.577643">
<ele>545.115</ele>
<time>2020-09-10T15:52:45Z</time>
</trkpt>
<trkpt lat="48.08065" lon="10.577675">
<ele>545.115</ele>
<time>2020-09-10T15:52:46Z</time>
</trkpt>
<trkpt lat="48.080593" lon="10.577703">
<ele>545.115</ele>
<time>2020-09-10T15:52:47Z</time>
</trkpt>
<trkpt lat="48.080536" lon="10.577733">
<ele>545.115</ele>
<time>2020-09-10T15:52:48Z</time>
</trkpt>
<trkpt lat="48.080475" lon="10.577765">
<ele>545.115</ele>
<time>2020-09-10T15:52:49Z</time>
</trkpt>
<trkpt lat="48.080421" lon="10.577795">
<ele>545.115</ele>
<time>2020-09-10T15:52:50Z</time>
</trkpt>
<trkpt lat="48.08036" lon="10.577828">
<ele>545.115</ele>
<time>2020-09-10T15:52:51Z</time>
</trkpt>
<trkpt lat="48.080299" lon="10.577862">
<ele>545.115</ele>
<time>2020-09-10T15:52:52Z</time>
</trkpt>
<trkpt lat="48.080242" lon="10.577895">
<ele>545.115</ele>
<time>2020-09-10T15:52:53Z</time>
</trkpt>
<trkpt lat="48.080189" lon="10.577925">
<ele>545.115</ele>
<time>2020-09-10T15:52:54Z</time>
</trkpt>
<trkpt lat="48.080132" lon="10.577956">
<ele>545.115</ele>
<time>2020-09-10T15:52:55Z</time>
</trkpt>
<trkpt lat="48.080074" lon="10.577989">
<ele>545.115</ele>
<time>2020-09-10T15:52:56Z</time>
</trkpt>
<trkpt lat="48.080021" lon="10.578018">
<ele>545.115</ele>
<time>2020-09-10T15:52:57Z</time>
</trkpt>
<trkpt lat="48.079964" lon="10.57805">
<ele>545.115</ele>
<time>2020-09-10T15:52:58Z</time>
</trkpt>
<trkpt lat="48.079903" lon="10.578083">
<ele>545.115</ele>
<time>2020-09-10T15:52:59Z</time>
</trkpt>
<trkpt lat="48.079849" lon="10.578115">
<ele>545.327</ele>
<time>2020-09-10T15:53:00Z</time>
</trkpt>
<trkpt lat="48.079796" lon="10.578147">
<ele>545.507</ele>
<time>2020-09-10T15:53:01Z</time>
</trkpt>
<trkpt lat="48.079742" lon="10.578178">
<ele>545.655</ele>
<time>2020-09-10T15:53:02Z</time>
</trkpt>
<trkpt lat="48.079689" lon="10.578209">
<ele>545.771</ele>
<time>2020-09-10T15:53:03Z</time>
</trkpt>
<trkpt lat="48.079639" lon="10.57824">
<ele>545.862</ele>
<time>2020-09-10T15:53:04Z</time>
</trkpt>
<trkpt lat="48.079586" lon="10.578275">
<ele>545.927</ele>
<time>2020-09-10T15:53:05Z</time>
</trkpt>
<trkpt lat="48.079533" lon="10.578314">
<ele>545.97</ele>
<time>2020-09-10T15:53:06Z</time>
</trkpt>
<trkpt lat="48.079479" lon="10.578348">
<ele>545.991</ele>
<time>2020-09-10T15:53:07Z</time>
</trkpt>
<trkpt lat="48.079426" lon="10.578383">
<ele>545.991</ele>
<time>2020-09-10T15:53:08Z</time>
</trkpt>
<trkpt lat="48.079372" lon="10.578422">
<ele>545.991</ele>
<time>2020-09-10T15:53:09Z</time>
</trkpt>
<trkpt lat="48.079315" lon="10.578457">
<ele>545.991</ele>
<time>2020-09-10T15:53:10Z</time>
</trkpt>
<trkpt lat="48.079262" lon="10.5785">
<ele>545.991</ele>
<time>2020-09-10T15:53:11Z</time>
</trkpt>
<trkpt lat="48.079208" lon="10.578542">
<ele>545.991</ele>
<time>2020-09-10T15:53:12Z</time>
</trkpt>
<trkpt lat="48.079155" lon="10.578585">
<ele>545.991</ele>
<time>2020-09-10T15:53:13Z</time>
</trkpt>
<trkpt lat="48.079098" lon="10.578625">
<ele>545.991</ele>
<time>2020-09-10T15:53:14Z</time>
</trkpt>
<trkpt lat="48.079048" lon="10.578671">
<ele>545.991</ele>
<time>2020-09-10T15:53:15Z</time>
</trkpt>
<trkpt lat="48.078991" lon="10.578718">
<ele>545.991</ele>
<time>2020-09-10T15:53:16Z</time>
</trkpt>
<trkpt lat="48.078941" lon="10.578763">
<ele>545.991</ele>
<time>2020-09-10T15:53:17Z</time>
</trkpt>
<trkpt lat="48.078892" lon="10.578809">
<ele>546.226</ele>
<time>2020-09-10T15:53:18Z</time>
</trkpt>
<trkpt lat="48.078835" lon="10.578853">
<ele>546.391</ele>
<time>2020-09-10T15:53:19Z</time>
</trkpt>
<trkpt lat="48.078785" lon="10.578902">
<ele>546.563</ele>
<time>2020-09-10T15:53:20Z</time>
</trkpt>
<trkpt lat="48.078732" lon="10.578953">
<ele>546.701</ele>
<time>2020-09-10T15:53:21Z</time>
</trkpt>
<trkpt lat="48.078682" lon="10.579003">
<ele>546.805</ele>
<time>2020-09-10T15:53:22Z</time>
</trkpt>
<trkpt lat="48.078632" lon="10.579052">
<ele>546.881</ele>
<time>2020-09-10T15:53:23Z</time>
</trkpt>
<trkpt lat="48.078587" lon="10.579103">
<ele>546.929</ele>
<time>2020-09-10T15:53:24Z</time>
</trkpt>
<trkpt lat="48.078533" lon="10.579154">
<ele>546.953</ele>
<time>2020-09-10T15:53:25Z</time>
</trkpt>
<trkpt lat="48.078487" lon="10.579206">
<ele>546.954</ele>
<time>2020-09-10T15:53:26Z</time>
</trkpt>
<trkpt lat="48.078438" lon="10.579259">
<ele>546.953</ele>
<time>2020-09-10T15:53:27Z</time>
</trkpt>
<trkpt lat="48.078396" lon="10.579311">
<ele>546.954</ele>
<time>2020-09-10T15:53:28Z</time>
</trkpt>
<trkpt lat="48.078346" lon="10.579367">
<ele>546.953</ele>
<time>2020-09-10T15:53:29Z</time>
</trkpt>
<trkpt lat="48.078304" lon="10.579422">
<ele>546.953</ele>
<time>2020-09-10T15:53:30Z</time>
</trkpt>
<trkpt lat="48.078259" lon="10.579476">
<ele>546.953</ele>
<time>2020-09-10T15:53:31Z</time>
</trkpt>
<trkpt lat="48.078213" lon="10.579534">
<ele>546.953</ele>
<time>2020-09-10T15:53:32Z</time>
</trkpt>
<trkpt lat="48.078171" lon="10.57959">
<ele>546.953</ele>
<time>2020-09-10T15:53:33Z</time>
</trkpt>
<trkpt lat="48.078125" lon="10.579646">
<ele>546.953</ele>
<time>2020-09-10T15:53:34Z</time>
</trkpt>
<trkpt lat="48.078079" lon="10.579705">
<ele>546.953</ele>
<time>2020-09-10T15:53:35Z</time>
</trkpt>
<trkpt lat="48.078041" lon="10.579766">
<ele>546.953</ele>
<time>2020-09-10T15:53:36Z</time>
</trkpt>
<trkpt lat="48.077995" lon="10.579828">
<ele>546.953</ele>
<time>2020-09-10T15:53:37Z</time>
</trkpt>
<trkpt lat="48.077953" lon="10.579889">
<ele>546.953</ele>
<time>2020-09-10T15:53:38Z</time>
</trkpt>
<trkpt lat="48.077911" lon="10.579953">
<ele>546.954</ele>
<time>2020-09-10T15:53:39Z</time>
</trkpt>
<trkpt lat="48.077869" lon="10.580017">
<ele>546.954</ele>
<time>2020-09-10T15:53:40Z</time>
</trkpt>
<trkpt lat="48.077827" lon="10.580082">
<ele>546.953</ele>
<time>2020-09-10T15:53:41Z</time>
</trkpt>
<trkpt lat="48.077785" lon="10.580147">
<ele>546.953</ele>
<time>2020-09-10T15:53:42Z</time>
</trkpt>
<trkpt lat="48.077751" lon="10.580215">
<ele>546.953</ele>
<time>2020-09-10T15:53:43Z</time>
</trkpt>
<trkpt lat="48.077713" lon="10.580283">
<ele>546.953</ele>
<time>2020-09-10T15:53:44Z</time>
</trkpt>
<trkpt lat="48.077671" lon="10.580353">
<ele>546.953</ele>
<time>2020-09-10T15:53:45Z</time>
</trkpt>
<trkpt lat="48.077633" lon="10.580421">
<ele>546.953</ele>
<time>2020-09-10T15:53:46Z</time>
</trkpt>
<trkpt lat="48.077595" lon="10.580491">
<ele>546.954</ele>
<time>2020-09-10T15:53:47Z</time>
</trkpt>
<trkpt lat="48.077557" lon="10.580562">
<ele>546.954</ele>
<time>2020-09-10T15:53:48Z</time>
</trkpt>
<trkpt lat="48.077518" lon="10.580633">
<ele>546.953</ele>
<time>2020-09-10T15:53:49Z</time>
</trkpt>
<trkpt lat="48.077484" lon="10.580705">
<ele>546.953</ele>
<time>2020-09-10T15:53:50Z</time>
</trkpt>
<trkpt lat="48.077446" lon="10.580778">
<ele>546.953</ele>
<time>2020-09-10T15:53:51Z</time>
</trkpt>
<trkpt lat="48.077412" lon="10.58085">
<ele>546.954</ele>
<time>2020-09-10T15:53:52Z</time>
</trkpt>
<trkpt lat="48.077377" lon="10.58092">
<ele>547.221</ele>
<time>2020-09-10T15:53:53Z</time>
</trkpt>
<trkpt lat="48.077347" lon="10.580996">
<ele>547.431</ele>
<time>2020-09-10T15:53:54Z</time>
</trkpt>
<trkpt lat="48.077312" lon="10.58107">
<ele>547.59</ele>
<time>2020-09-10T15:53:55Z</time>
</trkpt>
<trkpt lat="48.077282" lon="10.581143">
<ele>547.711</ele>
<time>2020-09-10T15:53:56Z</time>
</trkpt>
<trkpt lat="48.077248" lon="10.581213">
<ele>547.795</ele>
<time>2020-09-10T15:53:57Z</time>
</trkpt>
<trkpt lat="48.077206" lon="10.581266">
<ele>547.847</ele>
<time>2020-09-10T15:53:58Z</time>
</trkpt>
<trkpt lat="48.07716" lon="10.58129">
<ele>547.889</ele>
<time>2020-09-10T15:53:59Z</time>
</trkpt>
<trkpt lat="48.07711" lon="10.581291">
<ele>547.916</ele>
<time>2020-09-10T15:54:00Z</time>
</trkpt>
<trkpt lat="48.077065" lon="10.581274">
<ele>547.916</ele>
<time>2020-09-10T15:54:01Z</time>
</trkpt>
<trkpt lat="48.077023" lon="10.581248">
<ele>547.916</ele>
<time>2020-09-10T15:54:02Z</time>
</trkpt>
<trkpt lat="48.076984" lon="10.581218">
<ele>547.916</ele>
<time>2020-09-10T15:54:03Z</time>
</trkpt>
<trkpt lat="48.076942" lon="10.581186">
<ele>548.141</ele>
<time>2020-09-10T15:54:04Z</time>
</trkpt>
<trkpt lat="48.076904" lon="10.581155">
<ele>548.324</ele>
<time>2020-09-10T15:54:05Z</time>
</trkpt>
<trkpt lat="48.076862" lon="10.581125">
<ele>548.471</ele>
<time>2020-09-10T15:54:06Z</time>
</trkpt>
<trkpt lat="48.076813" lon="10.581094">
<ele>548.585</ele>
<time>2020-09-10T15:54:07Z</time>
</trkpt>
<trkpt lat="48.076771" lon="10.581063">
<ele>548.662</ele>
<time>2020-09-10T15:54:08Z</time>
</trkpt>
<trkpt lat="48.076721" lon="10.58103">
<ele>548.718</ele>
<time>2020-09-10T15:54:09Z</time>
</trkpt>
<trkpt lat="48.076672" lon="10.580996">
<ele>548.769</ele>
<time>2020-09-10T15:54:10Z</time>
</trkpt>
<trkpt lat="48.076622" lon="10.580956">
<ele>548.792</ele>
<time>2020-09-10T15:54:11Z</time>
</trkpt>
<trkpt lat="48.076572" lon="10.58092">
<ele>548.792</ele>
<time>2020-09-10T15:54:12Z</time>
</trkpt>
<trkpt lat="48.076519" lon="10.580887">
<ele>548.792</ele>
<time>2020-09-10T15:54:13Z</time>
</trkpt>
<trkpt lat="48.076473" lon="10.580852">
<ele>548.792</ele>
<time>2020-09-10T15:54:14Z</time>
</trkpt>
<trkpt lat="48.076424" lon="10.580822">
<ele>548.792</ele>
<time>2020-09-10T15:54:15Z</time>
</trkpt>
<trkpt lat="48.07637" lon="10.580794">
<ele>548.792</ele>
<time>2020-09-10T15:54:16Z</time>
</trkpt>
<trkpt lat="48.076313" lon="10.580775">
<ele>548.792</ele>
<time>2020-09-10T15:54:17Z</time>
</trkpt>
<trkpt lat="48.076256" lon="10.580759">
<ele>548.579</ele>
<time>2020-09-10T15:54:18Z</time>
</trkpt>
<trkpt lat="48.076206" lon="10.580744">
<ele>548.426</ele>
<time>2020-09-10T15:54:19Z</time>
</trkpt>
<trkpt lat="48.076153" lon="10.580735">
<ele>548.271</ele>
<time>2020-09-10T15:54:20Z</time>
</trkpt>
<trkpt lat="48.076099" lon="10.580729">
<ele>548.145</ele>
<time>2020-09-10T15:54:21Z</time>
</trkpt>
<trkpt lat="48.076046" lon="10.580727">
<ele>548.049</ele>
<time>2020-09-10T15:54:22Z</time>
</trkpt>
<trkpt lat="48.075993" lon="10.580724">
<ele>547.981</ele>
<time>2020-09-10T15:54:23Z</time>
</trkpt>
<trkpt lat="48.075947" lon="10.580717">
<ele>547.939</ele>
<time>2020-09-10T15:54:24Z</time>
</trkpt>
<trkpt lat="48.075897" lon="10.580709">
<ele>547.916</ele>
<time>2020-09-10T15:54:25Z</time>
</trkpt>
<trkpt lat="48.075848" lon="10.580703">
<ele>547.916</ele>
<time>2020-09-10T15:54:26Z</time>
</trkpt>
<trkpt lat="48.075798" lon="10.580691">
<ele>547.916</ele>
<time>2020-09-10T15:54:27Z</time>
</trkpt>
<trkpt lat="48.075756" lon="10.58067">
<ele>548.124</ele>
<time>2020-09-10T15:54:28Z</time>
</trkpt>
<trkpt lat="48.075706" lon="10.58065">
<ele>548.276</ele>
<time>2020-09-10T15:54:29Z</time>
</trkpt>
<trkpt lat="48.075665" lon="10.580623">
<ele>548.431</ele>
<time>2020-09-10T15:54:30Z</time>
</trkpt>
<trkpt lat="48.075623" lon="10.580598">
<ele>548.558</ele>
<time>2020-09-10T15:54:31Z</time>
</trkpt>
<trkpt lat="48.075584" lon="10.580564">
<ele>548.656</ele>
<time>2020-09-10T15:54:32Z</time>
</trkpt>
<trkpt lat="48.07555" lon="10.580528">
<ele>548.724</ele>
<time>2020-09-10T15:54:33Z</time>
</trkpt>
<trkpt lat="48.07552" lon="10.580491">
<ele>548.769</ele>
<time>2020-09-10T15:54:34Z</time>
</trkpt>
<trkpt lat="48.075481" lon="10.580463">
<ele>548.792</ele>
<time>2020-09-10T15:54:35Z</time>
</trkpt>
<trkpt lat="48.075439" lon="10.58045">
<ele>548.792</ele>
<time>2020-09-10T15:54:36Z</time>
</trkpt>
<trkpt lat="48.075401" lon="10.580453">
<ele>548.792</ele>
<time>2020-09-10T15:54:37Z</time>
</trkpt>
<trkpt lat="48.075359" lon="10.580467">
<ele>548.792</ele>
<time>2020-09-10T15:54:38Z</time>
</trkpt>
<trkpt lat="48.075317" lon="10.580486">
<ele>548.792</ele>
<time>2020-09-10T15:54:39Z</time>
</trkpt>
<trkpt lat="48.075275" lon="10.58051">
<ele>548.792</ele>
<time>2020-09-10T15:54:40Z</time>
</trkpt>
<trkpt lat="48.075237" lon="10.580533">
<ele>548.792</ele>
<time>2020-09-10T15:54:41Z</time>
</trkpt>
<trkpt lat="48.075191" lon="10.580555">
<ele>548.792</ele>
<time>2020-09-10T15:54:42Z</time>
</trkpt>
<trkpt lat="48.075142" lon="10.580575">
<ele>548.792</ele>
<time>2020-09-10T15:54:43Z</time>
</trkpt>
<trkpt lat="48.075096" lon="10.580593">
<ele>548.792</ele>
<time>2020-09-10T15:54:44Z</time>
</trkpt>
<trkpt lat="48.075047" lon="10.580612">
<ele>548.792</ele>
<time>2020-09-10T15:54:45Z</time>
</trkpt>
<trkpt lat="48.074997" lon="10.580628">
<ele>548.792</ele>
<time>2020-09-10T15:54:46Z</time>
</trkpt>
<trkpt lat="48.074947" lon="10.580644">
<ele>548.792</ele>
<time>2020-09-10T15:54:47Z</time>
</trkpt>
<trkpt lat="48.074898" lon="10.58066">
<ele>548.792</ele>
<time>2020-09-10T15:54:48Z</time>
</trkpt>
<trkpt lat="48.074848" lon="10.580677">
<ele>548.792</ele>
<time>2020-09-10T15:54:49Z</time>
</trkpt>
<trkpt lat="48.074791" lon="10.580689">
<ele>548.792</ele>
<time>2020-09-10T15:54:50Z</time>
</trkpt>
<trkpt lat="48.074741" lon="10.580703">
<ele>548.792</ele>
<time>2020-09-10T15:54:51Z</time>
</trkpt>
<trkpt lat="48.074692" lon="10.580715">
<ele>548.792</ele>
<time>2020-09-10T15:54:52Z</time>
</trkpt>
<trkpt lat="48.074593" lon="10.580733">
<ele>548.792</ele>
<time>2020-09-10T15:54:54Z</time>
</trkpt>
<trkpt lat="48.074543" lon="10.58074">
<ele>548.792</ele>
<time>2020-09-10T15:54:55Z</time>
</trkpt>
<trkpt lat="48.074493" lon="10.580749">
<ele>548.792</ele>
<time>2020-09-10T15:54:56Z</time>
</trkpt>
<trkpt lat="48.074444" lon="10.580757">
<ele>548.792</ele>
<time>2020-09-10T15:54:57Z</time>
</trkpt>
<trkpt lat="48.074394" lon="10.58077">
<ele>548.792</ele>
<time>2020-09-10T15:54:58Z</time>
</trkpt>
<trkpt lat="48.074345" lon="10.580778">
<ele>548.792</ele>
<time>2020-09-10T15:54:59Z</time>
</trkpt>
<trkpt lat="48.074295" lon="10.580784">
<ele>548.792</ele>
<time>2020-09-10T15:55:00Z</time>
</trkpt>
<trkpt lat="48.074238" lon="10.580789">
<ele>548.792</ele>
<time>2020-09-10T15:55:01Z</time>
</trkpt>
<trkpt lat="48.074188" lon="10.580792">
<ele>548.792</ele>
<time>2020-09-10T15:55:02Z</time>
</trkpt>
<trkpt lat="48.074131" lon="10.580796">
<ele>548.792</ele>
<time>2020-09-10T15:55:03Z</time>
</trkpt>
<trkpt lat="48.074081" lon="10.580803">
<ele>548.792</ele>
<time>2020-09-10T15:55:04Z</time>
</trkpt>
<trkpt lat="48.074028" lon="10.58081">
<ele>548.792</ele>
<time>2020-09-10T15:55:05Z</time>
</trkpt>
<trkpt lat="48.073971" lon="10.580818">
<ele>548.792</ele>
<time>2020-09-10T15:55:06Z</time>
</trkpt>
<trkpt lat="48.073921" lon="10.580827">
<ele>548.792</ele>
<time>2020-09-10T15:55:07Z</time>
</trkpt>
<trkpt lat="48.073868" lon="10.580832">
<ele>548.792</ele>
<time>2020-09-10T15:55:08Z</time>
</trkpt>
<trkpt lat="48.073811" lon="10.58084">
<ele>548.792</ele>
<time>2020-09-10T15:55:09Z</time>
</trkpt>
<trkpt lat="48.073761" lon="10.58085">
<ele>548.792</ele>
<time>2020-09-10T15:55:10Z</time>
</trkpt>
<trkpt lat="48.073708" lon="10.58086">
<ele>548.792</ele>
<time>2020-09-10T15:55:11Z</time>
</trkpt>
<trkpt lat="48.07365" lon="10.580872">
<ele>548.792</ele>
<time>2020-09-10T15:55:12Z</time>
</trkpt>
<trkpt lat="48.073597" lon="10.580883">
<ele>548.792</ele>
<time>2020-09-10T15:55:13Z</time>
</trkpt>
<trkpt lat="48.073544" lon="10.580894">
<ele>548.792</ele>
<time>2020-09-10T15:55:14Z</time>
</trkpt>
<trkpt lat="48.07349" lon="10.580907">
<ele>548.792</ele>
<time>2020-09-10T15:55:15Z</time>
</trkpt>
<trkpt lat="48.073441" lon="10.580915">
<ele>548.792</ele>
<time>2020-09-10T15:55:16Z</time>
</trkpt>
<trkpt lat="48.073387" lon="10.580923">
<ele>548.792</ele>
<time>2020-09-10T15:55:17Z</time>
</trkpt>
<trkpt lat="48.073334" lon="10.580935">
<ele>548.792</ele>
<time>2020-09-10T15:55:18Z</time>
</trkpt>
<trkpt lat="48.073284" lon="10.580947">
<ele>548.792</ele>
<time>2020-09-10T15:55:19Z</time>
</trkpt>
<trkpt lat="48.073231" lon="10.580956">
<ele>548.792</ele>
<time>2020-09-10T15:55:20Z</time>
</trkpt>
<trkpt lat="48.073181" lon="10.580967">
<ele>548.792</ele>
<time>2020-09-10T15:55:21Z</time>
</trkpt>
<trkpt lat="48.073124" lon="10.580976">
<ele>548.792</ele>
<time>2020-09-10T15:55:22Z</time>
</trkpt>
<trkpt lat="48.073074" lon="10.58099">
<ele>549.071</ele>
<time>2020-09-10T15:55:23Z</time>
</trkpt>
<trkpt lat="48.073025" lon="10.581">
<ele>549.286</ele>
<time>2020-09-10T15:55:24Z</time>
</trkpt>
<trkpt lat="48.072975" lon="10.581008">
<ele>549.452</ele>
<time>2020-09-10T15:55:25Z</time>
</trkpt>
<trkpt lat="48.072929" lon="10.581006">
<ele>549.571</ele>
<time>2020-09-10T15:55:26Z</time>
</trkpt>
<trkpt lat="48.072884" lon="10.581003">
<ele>549.654</ele>
<time>2020-09-10T15:55:27Z</time>
</trkpt>
<trkpt lat="48.072834" lon="10.581">
<ele>549.707</ele>
<time>2020-09-10T15:55:28Z</time>
</trkpt>
<trkpt lat="48.072792" lon="10.580988">
<ele>549.732</ele>
<time>2020-09-10T15:55:29Z</time>
</trkpt>
<trkpt lat="48.072742" lon="10.580975">
<ele>549.756</ele>
<time>2020-09-10T15:55:30Z</time>
</trkpt>
<trkpt lat="48.072697" lon="10.580958">
<ele>549.756</ele>
<time>2020-09-10T15:55:31Z</time>
</trkpt>
<trkpt lat="48.072643" lon="10.580943">
<ele>549.755</ele>
<time>2020-09-10T15:55:32Z</time>
</trkpt>
<trkpt lat="48.072594" lon="10.580927">
<ele>549.756</ele>
<time>2020-09-10T15:55:33Z</time>
</trkpt>
<trkpt lat="48.072536" lon="10.58091">
<ele>549.755</ele>
<time>2020-09-10T15:55:34Z</time>
</trkpt>
<trkpt lat="48.072483" lon="10.580898">
<ele>549.755</ele>
<time>2020-09-10T15:55:35Z</time>
</trkpt>
<trkpt lat="48.07243" lon="10.580887">
<ele>549.755</ele>
<time>2020-09-10T15:55:36Z</time>
</trkpt>
<trkpt lat="48.072376" lon="10.580876">
<ele>549.755</ele>
<time>2020-09-10T15:55:37Z</time>
</trkpt>
<trkpt lat="48.072319" lon="10.580868">
<ele>549.756</ele>
<time>2020-09-10T15:55:38Z</time>
</trkpt>
<trkpt lat="48.072266" lon="10.580864">
<ele>549.756</ele>
<time>2020-09-10T15:55:39Z</time>
</trkpt>
<trkpt lat="48.072208" lon="10.580858">
<ele>549.755</ele>
<time>2020-09-10T15:55:40Z</time>
</trkpt>
<trkpt lat="48.072151" lon="10.580853">
<ele>549.756</ele>
<time>2020-09-10T15:55:41Z</time>
</trkpt>
<trkpt lat="48.072102" lon="10.58085">
<ele>549.755</ele>
<time>2020-09-10T15:55:42Z</time>
</trkpt>
<trkpt lat="48.072052" lon="10.580847">
<ele>549.755</ele>
<time>2020-09-10T15:55:43Z</time>
</trkpt>
<trkpt lat="48.072002" lon="10.580842">
<ele>549.755</ele>
<time>2020-09-10T15:55:44Z</time>
</trkpt>
<trkpt lat="48.071953" lon="10.580833">
<ele>549.755</ele>
<time>2020-09-10T15:55:45Z</time>
</trkpt>
<trkpt lat="48.071907" lon="10.580829">
<ele>549.755</ele>
<time>2020-09-10T15:55:46Z</time>
</trkpt>
<trkpt lat="48.071857" lon="10.580826">
<ele>549.755</ele>
<time>2020-09-10T15:55:47Z</time>
</trkpt>
<trkpt lat="48.071812" lon="10.580817">
<ele>549.756</ele>
<time>2020-09-10T15:55:48Z</time>
</trkpt>
<trkpt lat="48.071762" lon="10.580812">
<ele>549.755</ele>
<time>2020-09-10T15:55:49Z</time>
</trkpt>
<trkpt lat="48.071712" lon="10.580809">
<ele>549.756</ele>
<time>2020-09-10T15:55:50Z</time>
</trkpt>
<trkpt lat="48.071659" lon="10.580805">
<ele>549.755</ele>
<time>2020-09-10T15:55:51Z</time>
</trkpt>
<trkpt lat="48.071613" lon="10.580801">
<ele>549.755</ele>
<time>2020-09-10T15:55:52Z</time>
</trkpt>
<trkpt lat="48.071568" lon="10.580794">
<ele>549.755</ele>
<time>2020-09-10T15:55:53Z</time>
</trkpt>
<trkpt lat="48.071522" lon="10.580789">
<ele>549.755</ele>
<time>2020-09-10T15:55:54Z</time>
</trkpt>
<trkpt lat="48.07148" lon="10.580784">
<ele>549.755</ele>
<time>2020-09-10T15:55:55Z</time>
</trkpt>
<trkpt lat="48.07143" lon="10.580778">
<ele>549.755</ele>
<time>2020-09-10T15:55:56Z</time>
</trkpt>
<trkpt lat="48.071381" lon="10.580773">
<ele>549.755</ele>
<time>2020-09-10T15:55:57Z</time>
</trkpt>
<trkpt lat="48.071335" lon="10.58077">
<ele>549.755</ele>
<time>2020-09-10T15:55:58Z</time>
</trkpt>
<trkpt lat="48.071293" lon="10.580761">
<ele>549.755</ele>
<time>2020-09-10T15:55:59Z</time>
</trkpt>
<trkpt lat="48.071239" lon="10.580753">
<ele>549.755</ele>
<time>2020-09-10T15:56:00Z</time>
</trkpt>
<trkpt lat="48.071198" lon="10.580742">
<ele>549.755</ele>
<time>2020-09-10T15:56:01Z</time>
</trkpt>
<trkpt lat="48.071148" lon="10.580735">
<ele>549.755</ele>
<time>2020-09-10T15:56:02Z</time>
</trkpt>
<trkpt lat="48.071098" lon="10.580725">
<ele>549.755</ele>
<time>2020-09-10T15:56:03Z</time>
</trkpt>
<trkpt lat="48.071045" lon="10.58072">
<ele>549.755</ele>
<time>2020-09-10T15:56:04Z</time>
</trkpt>
<trkpt lat="48.070995" lon="10.580711">
<ele>549.756</ele>
<time>2020-09-10T15:56:05Z</time>
</trkpt>
<trkpt lat="48.070942" lon="10.580705">
<ele>549.755</ele>
<time>2020-09-10T15:56:06Z</time>
</trkpt>
<trkpt lat="48.070885" lon="10.5807">
<ele>549.755</ele>
<time>2020-09-10T15:56:07Z</time>
</trkpt>
<trkpt lat="48.070835" lon="10.580695">
<ele>549.755</ele>
<time>2020-09-10T15:56:08Z</time>
</trkpt>
<trkpt lat="48.070782" lon="10.580693">
<ele>549.756</ele>
<time>2020-09-10T15:56:09Z</time>
</trkpt>
<trkpt lat="48.070732" lon="10.580688">
<ele>549.755</ele>
<time>2020-09-10T15:56:10Z</time>
</trkpt>
<trkpt lat="48.070679" lon="10.580682">
<ele>549.99</ele>
<time>2020-09-10T15:56:11Z</time>
</trkpt>
<trkpt lat="48.070633" lon="10.580679">
<ele>550.184</ele>
<time>2020-09-10T15:56:12Z</time>
</trkpt>
<trkpt lat="48.070583" lon="10.58068">
<ele>550.344</ele>
<time>2020-09-10T15:56:13Z</time>
</trkpt>
<trkpt lat="48.070534" lon="10.580682">
<ele>550.473</ele>
<time>2020-09-10T15:56:14Z</time>
</trkpt>
<trkpt lat="48.07048" lon="10.580688">
<ele>550.572</ele>
<time>2020-09-10T15:56:15Z</time>
</trkpt>
<trkpt lat="48.070438" lon="10.580695">
<ele>550.647</ele>
<time>2020-09-10T15:56:16Z</time>
</trkpt>
<trkpt lat="48.070393" lon="10.580702">
<ele>550.696</ele>
<time>2020-09-10T15:56:17Z</time>
</trkpt>
<trkpt lat="48.070351" lon="10.58071">
<ele>550.719</ele>
<time>2020-09-10T15:56:18Z</time>
</trkpt>
<trkpt lat="48.070309" lon="10.580722">
<ele>550.719</ele>
<time>2020-09-10T15:56:19Z</time>
</trkpt>
<trkpt lat="48.070263" lon="10.580735">
<ele>550.719</ele>
<time>2020-09-10T15:56:20Z</time>
</trkpt>
<trkpt lat="48.070221" lon="10.580749">
<ele>550.719</ele>
<time>2020-09-10T15:56:21Z</time>
</trkpt>
<trkpt lat="48.070187" lon="10.580755">
<ele>550.719</ele>
<time>2020-09-10T15:56:22Z</time>
</trkpt>
<trkpt lat="48.070152" lon="10.580765">
<ele>550.719</ele>
<time>2020-09-10T15:56:23Z</time>
</trkpt>
<trkpt lat="48.070122" lon="10.580773">
<ele>550.719</ele>
<time>2020-09-10T15:56:24Z</time>
</trkpt>
<trkpt lat="48.070091" lon="10.580784">
<ele>550.719</ele>
<time>2020-09-10T15:56:25Z</time>
</trkpt>
<trkpt lat="48.070068" lon="10.580792">
<ele>550.719</ele>
<time>2020-09-10T15:56:26Z</time>
</trkpt>
<trkpt lat="48.070049" lon="10.580798">
<ele>550.719</ele>
<time>2020-09-10T15:56:27Z</time>
</trkpt>
<trkpt lat="48.070023" lon="10.580803">
<ele>550.719</ele>
<time>2020-09-10T15:56:28Z</time>
</trkpt>
<trkpt lat="48.069992" lon="10.580813">
<ele>550.719</ele>
<time>2020-09-10T15:56:29Z</time>
</trkpt>
<trkpt lat="48.069973" lon="10.580827">
<ele>550.719</ele>
<time>2020-09-10T15:56:30Z</time>
</trkpt>
<trkpt lat="48.06995" lon="10.580836">
<ele>550.719</ele>
<time>2020-09-10T15:56:31Z</time>
</trkpt>
<trkpt lat="48.06992" lon="10.580847">
<ele>550.719</ele>
<time>2020-09-10T15:56:32Z</time>
</trkpt>
<trkpt lat="48.069893" lon="10.580853">
<ele>550.719</ele>
<time>2020-09-10T15:56:33Z</time>
</trkpt>
<trkpt lat="48.069862" lon="10.580865">
<ele>550.719</ele>
<time>2020-09-10T15:56:34Z</time>
</trkpt>
<trkpt lat="48.069828" lon="10.580873">
<ele>550.719</ele>
<time>2020-09-10T15:56:35Z</time>
</trkpt>
<trkpt lat="48.069798" lon="10.580885">
<ele>550.719</ele>
<time>2020-09-10T15:56:36Z</time>
</trkpt>
<trkpt lat="48.069763" lon="10.580895">
<ele>550.719</ele>
<time>2020-09-10T15:56:37Z</time>
</trkpt>
<trkpt lat="48.069729" lon="10.580907">
<ele>550.719</ele>
<time>2020-09-10T15:56:38Z</time>
</trkpt>
<trkpt lat="48.069695" lon="10.58092">
<ele>550.719</ele>
<time>2020-09-10T15:56:39Z</time>
</trkpt>
<trkpt lat="48.069653" lon="10.580932">
<ele>550.719</ele>
<time>2020-09-10T15:56:40Z</time>
</trkpt>
<trkpt lat="48.069614" lon="10.580943">
<ele>550.719</ele>
<time>2020-09-10T15:56:41Z</time>
</trkpt>
<trkpt lat="48.069572" lon="10.580956">
<ele>550.719</ele>
<time>2020-09-10T15:56:42Z</time>
</trkpt>
<trkpt lat="48.069534" lon="10.580972">
<ele>550.719</ele>
<time>2020-09-10T15:56:43Z</time>
</trkpt>
<trkpt lat="48.069496" lon="10.580994">
<ele>550.719</ele>
<time>2020-09-10T15:56:44Z</time>
</trkpt>
<trkpt lat="48.069458" lon="10.58101">
<ele>550.719</ele>
<time>2020-09-10T15:56:45Z</time>
</trkpt>
<trkpt lat="48.06942" lon="10.581023">
<ele>550.719</ele>
<time>2020-09-10T15:56:46Z</time>
</trkpt>
<trkpt lat="48.069382" lon="10.581038">
<ele>550.719</ele>
<time>2020-09-10T15:56:47Z</time>
</trkpt>
<trkpt lat="48.069344" lon="10.581039">
<ele>550.719</ele>
<time>2020-09-10T15:56:48Z</time>
</trkpt>
<trkpt lat="48.069309" lon="10.581045">
<ele>550.719</ele>
<time>2020-09-10T15:56:49Z</time>
</trkpt>
<trkpt lat="48.069279" lon="10.581054">
<ele>550.719</ele>
<time>2020-09-10T15:56:50Z</time>
</trkpt>
<trkpt lat="48.069244" lon="10.581065">
<ele>550.719</ele>
<time>2020-09-10T15:56:51Z</time>
</trkpt>
<trkpt lat="48.06921" lon="10.581072">
<ele>550.719</ele>
<time>2020-09-10T15:56:52Z</time>
</trkpt>
<trkpt lat="48.069183" lon="10.581075">
<ele>550.719</ele>
<time>2020-09-10T15:56:53Z</time>
</trkpt>
<trkpt lat="48.069157" lon="10.58107">
<ele>550.719</ele>
<time>2020-09-10T15:56:54Z</time>
</trkpt>
<trkpt lat="48.069141" lon="10.58106">
<ele>550.719</ele>
<time>2020-09-10T15:56:55Z</time>
</trkpt>
<trkpt lat="48.06913" lon="10.581048">
<ele>550.922</ele>
<time>2020-09-10T15:56:56Z</time>
</trkpt>
<trkpt lat="48.069118" lon="10.581041">
<ele>551.088</ele>
<time>2020-09-10T15:56:57Z</time>
</trkpt>
<trkpt lat="48.069111" lon="10.581041">
<ele>551.216</ele>
<time>2020-09-10T15:56:58Z</time>
</trkpt>
<trkpt lat="48.069111" lon="10.581038">
<ele>551.313</ele>
<time>2020-09-10T15:56:59Z</time>
</trkpt>
<trkpt lat="48.069111" lon="10.581036">
<ele>551.489</ele>
<time>2020-09-10T15:57:01Z</time>
</trkpt>
<trkpt lat="48.069103" lon="10.581043">
<ele>551.552</ele>
<time>2020-09-10T15:57:08Z</time>
</trkpt>
<trkpt lat="48.069096" lon="10.581057">
<ele>551.595</ele>
<time>2020-09-10T15:57:09Z</time>
</trkpt>
<trkpt lat="48.069084" lon="10.581077">
<ele>551.595</ele>
<time>2020-09-10T15:57:10Z</time>
</trkpt>
<trkpt lat="48.069077" lon="10.5811">
<ele>551.595</ele>
<time>2020-09-10T15:57:11Z</time>
</trkpt>
<trkpt lat="48.06905" lon="10.581123">
<ele>551.595</ele>
<time>2020-09-10T15:57:12Z</time>
</trkpt>
<trkpt lat="48.069027" lon="10.581143">
<ele>551.595</ele>
<time>2020-09-10T15:57:13Z</time>
</trkpt>
<trkpt lat="48.069" lon="10.581157">
<ele>551.595</ele>
<time>2020-09-10T15:57:14Z</time>
</trkpt>
<trkpt lat="48.068974" lon="10.58117">
<ele>551.595</ele>
<time>2020-09-10T15:57:15Z</time>
</trkpt>
<trkpt lat="48.068943" lon="10.581186">
<ele>551.595</ele>
<time>2020-09-10T15:57:16Z</time>
</trkpt>
<trkpt lat="48.068913" lon="10.581199">
<ele>551.595</ele>
<time>2020-09-10T15:57:17Z</time>
</trkpt>
<trkpt lat="48.068878" lon="10.581211">
<ele>551.595</ele>
<time>2020-09-10T15:57:18Z</time>
</trkpt>
<trkpt lat="48.068848" lon="10.581215">
<ele>551.595</ele>
<time>2020-09-10T15:57:19Z</time>
</trkpt>
<trkpt lat="48.06881" lon="10.581218">
<ele>551.595</ele>
<time>2020-09-10T15:57:20Z</time>
</trkpt>
<trkpt lat="48.068771" lon="10.581222">
<ele>551.595</ele>
<time>2020-09-10T15:57:21Z</time>
</trkpt>
<trkpt lat="48.068733" lon="10.581224">
<ele>551.595</ele>
<time>2020-09-10T15:57:22Z</time>
</trkpt>
<trkpt lat="48.068695" lon="10.581224">
<ele>551.595</ele>
<time>2020-09-10T15:57:23Z</time>
</trkpt>
<trkpt lat="48.068657" lon="10.581222">
<ele>551.595</ele>
<time>2020-09-10T15:57:24Z</time>
</trkpt>
<trkpt lat="48.068623" lon="10.581217">
<ele>551.595</ele>
<time>2020-09-10T15:57:25Z</time>
</trkpt>
<trkpt lat="48.068588" lon="10.58121">
<ele>551.595</ele>
<time>2020-09-10T15:57:26Z</time>
</trkpt>
<trkpt lat="48.068554" lon="10.581202">
<ele>551.595</ele>
<time>2020-09-10T15:57:27Z</time>
</trkpt>
<trkpt lat="48.06852" lon="10.581193">
<ele>551.595</ele>
<time>2020-09-10T15:57:28Z</time>
</trkpt>
<trkpt lat="48.068489" lon="10.581188">
<ele>551.595</ele>
<time>2020-09-10T15:57:29Z</time>
</trkpt>
<trkpt lat="48.068455" lon="10.581193">
<ele>551.595</ele>
<time>2020-09-10T15:57:30Z</time>
</trkpt>
<trkpt lat="48.068428" lon="10.581207">
<ele>551.595</ele>
<time>2020-09-10T15:57:31Z</time>
</trkpt>
<trkpt lat="48.068398" lon="10.581223">
<ele>551.595</ele>
<time>2020-09-10T15:57:32Z</time>
</trkpt>
<trkpt lat="48.068382" lon="10.581244">
<ele>551.595</ele>
<time>2020-09-10T15:57:33Z</time>
</trkpt>
<trkpt lat="48.068367" lon="10.581264">
<ele>551.595</ele>
<time>2020-09-10T15:57:34Z</time>
</trkpt>
<trkpt lat="48.068363" lon="10.581281">
<ele>551.595</ele>
<time>2020-09-10T15:57:35Z</time>
</trkpt>
<trkpt lat="48.068356" lon="10.581298">
<ele>551.595</ele>
<time>2020-09-10T15:57:36Z</time>
</trkpt>
<trkpt lat="48.068352" lon="10.581315">
<ele>551.595</ele>
<time>2020-09-10T15:57:37Z</time>
</trkpt>
<trkpt lat="48.068352" lon="10.581328">
<ele>551.595</ele>
<time>2020-09-10T15:57:38Z</time>
</trkpt>
<trkpt lat="48.068352" lon="10.58133">
<ele>551.595</ele>
<time>2020-09-10T15:57:39Z</time>
</trkpt>
<trkpt lat="48.068352" lon="10.581333">
<ele>551.595</ele>
<time>2020-09-10T15:57:40Z</time>
</trkpt>
<trkpt lat="48.068352" lon="10.581339">
<ele>551.595</ele>
<time>2020-09-10T15:57:41Z</time>
</trkpt>
<trkpt lat="48.068325" lon="10.58129">
<ele>551.595</ele>
<time>2020-09-10T16:15:13Z</time>
</trkpt>
<trkpt lat="48.068321" lon="10.581283">
<ele>551.595</ele>
<time>2020-09-10T16:15:14Z</time>
</trkpt>
<trkpt lat="48.068321" lon="10.581275">
<ele>551.595</ele>
<time>2020-09-10T16:15:15Z</time>
</trkpt>
<trkpt lat="48.068317" lon="10.581266">
<ele>551.595</ele>
<time>2020-09-10T16:15:16Z</time>
</trkpt>
<trkpt lat="48.068317" lon="10.581257">
<ele>551.595</ele>
<time>2020-09-10T16:15:17Z</time>
</trkpt>
<trkpt lat="48.068314" lon="10.581251">
<ele>551.595</ele>
<time>2020-09-10T16:15:18Z</time>
</trkpt>
<trkpt lat="48.06831" lon="10.581246">
<ele>551.595</ele>
<time>2020-09-10T16:15:19Z</time>
</trkpt>
<trkpt lat="48.06831" lon="10.581242">
<ele>551.595</ele>
<time>2020-09-10T16:15:20Z</time>
</trkpt>
<trkpt lat="48.06831" lon="10.581239">
<ele>551.595</ele>
<time>2020-09-10T16:15:21Z</time>
</trkpt>
<trkpt lat="48.068314" lon="10.581211">
<ele>551.595</ele>
<time>2020-09-10T16:15:45Z</time>
</trkpt>
<trkpt lat="48.068314" lon="10.581205">
<ele>551.595</ele>
<time>2020-09-10T16:15:46Z</time>
</trkpt>
<trkpt lat="48.068317" lon="10.581199">
<ele>551.595</ele>
<time>2020-09-10T16:15:47Z</time>
</trkpt>
<trkpt lat="48.068317" lon="10.581195">
<ele>551.595</ele>
<time>2020-09-10T16:15:48Z</time>
</trkpt>
<trkpt lat="48.068317" lon="10.581197">
<ele>551.595</ele>
<time>2020-09-10T16:15:50Z</time>
</trkpt>
<trkpt lat="48.068298" lon="10.581141">
<ele>551.595</ele>
<time>2020-09-10T16:16:31Z</time>
</trkpt>
<trkpt lat="48.068298" lon="10.581123">
<ele>551.595</ele>
<time>2020-09-10T16:16:32Z</time>
</trkpt>
<trkpt lat="48.068298" lon="10.581105">
<ele>551.595</ele>
<time>2020-09-10T16:16:33Z</time>
</trkpt>
<trkpt lat="48.068298" lon="10.58109">
<ele>551.595</ele>
<time>2020-09-10T16:16:34Z</time>
</trkpt>
<trkpt lat="48.068298" lon="10.581073">
<ele>551.595</ele>
<time>2020-09-10T16:16:35Z</time>
</trkpt>
<trkpt lat="48.068295" lon="10.58105">
<ele>551.595</ele>
<time>2020-09-10T16:16:36Z</time>
</trkpt>
<trkpt lat="48.068283" lon="10.581029">
<ele>551.595</ele>
<time>2020-09-10T16:16:37Z</time>
</trkpt>
<trkpt lat="48.068264" lon="10.58101">
<ele>551.595</ele>
<time>2020-09-10T16:16:38Z</time>
</trkpt>
<trkpt lat="48.068237" lon="10.580997">
<ele>551.595</ele>
<time>2020-09-10T16:16:39Z</time>
</trkpt>
<trkpt lat="48.068222" lon="10.580983">
<ele>551.595</ele>
<time>2020-09-10T16:16:40Z</time>
</trkpt>
<trkpt lat="48.068199" lon="10.580968">
<ele>551.595</ele>
<time>2020-09-10T16:16:41Z</time>
</trkpt>
<trkpt lat="48.06818" lon="10.580954">
<ele>551.595</ele>
<time>2020-09-10T16:16:42Z</time>
</trkpt>
<trkpt lat="48.068165" lon="10.580943">
<ele>551.595</ele>
<time>2020-09-10T16:16:43Z</time>
</trkpt>
<trkpt lat="48.068146" lon="10.580936">
<ele>551.595</ele>
<time>2020-09-10T16:16:44Z</time>
</trkpt>
<trkpt lat="48.068127" lon="10.580931">
<ele>551.595</ele>
<time>2020-09-10T16:16:45Z</time>
</trkpt>
<trkpt lat="48.0681" lon="10.580927">
<ele>551.595</ele>
<time>2020-09-10T16:16:46Z</time>
</trkpt>
<trkpt lat="48.068066" lon="10.580925">
<ele>551.595</ele>
<time>2020-09-10T16:16:47Z</time>
</trkpt>
<trkpt lat="48.068035" lon="10.580922">
<ele>551.595</ele>
<time>2020-09-10T16:16:48Z</time>
</trkpt>
<trkpt lat="48.068001" lon="10.580915">
<ele>551.595</ele>
<time>2020-09-10T16:16:49Z</time>
</trkpt>
<trkpt lat="48.067966" lon="10.580908">
<ele>551.595</ele>
<time>2020-09-10T16:16:50Z</time>
</trkpt>
<trkpt lat="48.067932" lon="10.580903">
<ele>551.595</ele>
<time>2020-09-10T16:16:51Z</time>
</trkpt>
<trkpt lat="48.067898" lon="10.580898">
<ele>551.595</ele>
<time>2020-09-10T16:16:52Z</time>
</trkpt>
<trkpt lat="48.06786" lon="10.580899">
<ele>551.595</ele>
<time>2020-09-10T16:16:53Z</time>
</trkpt>
<trkpt lat="48.067825" lon="10.580899">
<ele>551.595</ele>
<time>2020-09-10T16:16:54Z</time>
</trkpt>
<trkpt lat="48.067795" lon="10.580895">
<ele>551.595</ele>
<time>2020-09-10T16:16:55Z</time>
</trkpt>
<trkpt lat="48.06776" lon="10.580891">
<ele>551.595</ele>
<time>2020-09-10T16:16:56Z</time>
</trkpt>
<trkpt lat="48.067726" lon="10.580889">
<ele>551.595</ele>
<time>2020-09-10T16:16:57Z</time>
</trkpt>
<trkpt lat="48.067688" lon="10.580885">
<ele>551.595</ele>
<time>2020-09-10T16:16:58Z</time>
</trkpt>
<trkpt lat="48.067657" lon="10.58088">
<ele>551.595</ele>
<time>2020-09-10T16:16:59Z</time>
</trkpt>
<trkpt lat="48.067619" lon="10.580874">
<ele>551.595</ele>
<time>2020-09-10T16:17:00Z</time>
</trkpt>
<trkpt lat="48.067581" lon="10.580872">
<ele>551.595</ele>
<time>2020-09-10T16:17:01Z</time>
</trkpt>
<trkpt lat="48.067547" lon="10.580872">
<ele>551.595</ele>
<time>2020-09-10T16:17:02Z</time>
</trkpt>
<trkpt lat="48.067505" lon="10.580873">
<ele>551.595</ele>
<time>2020-09-10T16:17:03Z</time>
</trkpt>
<trkpt lat="48.067463" lon="10.580872">
<ele>551.595</ele>
<time>2020-09-10T16:17:04Z</time>
</trkpt>
<trkpt lat="48.067417" lon="10.580872">
<ele>551.595</ele>
<time>2020-09-10T16:17:05Z</time>
</trkpt>
<trkpt lat="48.067383" lon="10.580868">
<ele>551.595</ele>
<time>2020-09-10T16:17:06Z</time>
</trkpt>
<trkpt lat="48.067337" lon="10.580866">
<ele>551.595</ele>
<time>2020-09-10T16:17:07Z</time>
</trkpt>
<trkpt lat="48.067299" lon="10.580865">
<ele>551.877</ele>
<time>2020-09-10T16:17:08Z</time>
</trkpt>
<trkpt lat="48.067257" lon="10.580864">
<ele>552.073</ele>
<time>2020-09-10T16:17:09Z</time>
</trkpt>
<trkpt lat="48.067219" lon="10.580853">
<ele>552.272</ele>
<time>2020-09-10T16:17:10Z</time>
</trkpt>
<trkpt lat="48.067181" lon="10.580849">
<ele>552.43</ele>
<time>2020-09-10T16:17:11Z</time>
</trkpt>
<trkpt lat="48.067135" lon="10.580842">
<ele>552.556</ele>
<time>2020-09-10T16:17:12Z</time>
</trkpt>
<trkpt lat="48.067089" lon="10.580838">
<ele>552.648</ele>
<time>2020-09-10T16:17:13Z</time>
</trkpt>
<trkpt lat="48.067051" lon="10.580833">
<ele>552.707</ele>
<time>2020-09-10T16:17:14Z</time>
</trkpt>
<trkpt lat="48.067005" lon="10.580827">
<ele>552.734</ele>
<time>2020-09-10T16:17:15Z</time>
</trkpt>
<trkpt lat="48.066963" lon="10.580818">
<ele>552.734</ele>
<time>2020-09-10T16:17:16Z</time>
</trkpt>
<trkpt lat="48.066925" lon="10.580807">
<ele>552.734</ele>
<time>2020-09-10T16:17:17Z</time>
</trkpt>
<trkpt lat="48.066875" lon="10.580807">
<ele>552.734</ele>
<time>2020-09-10T16:17:18Z</time>
</trkpt>
<trkpt lat="48.06683" lon="10.580803">
<ele>552.734</ele>
<time>2020-09-10T16:17:19Z</time>
</trkpt>
<trkpt lat="48.066784" lon="10.580793">
<ele>552.734</ele>
<time>2020-09-10T16:17:20Z</time>
</trkpt>
<trkpt lat="48.066742" lon="10.580785">
<ele>552.734</ele>
<time>2020-09-10T16:17:21Z</time>
</trkpt>
<trkpt lat="48.0667" lon="10.580775">
<ele>552.734</ele>
<time>2020-09-10T16:17:22Z</time>
</trkpt>
<trkpt lat="48.066662" lon="10.580765">
<ele>552.734</ele>
<time>2020-09-10T16:17:23Z</time>
</trkpt>
<trkpt lat="48.066624" lon="10.580753">
<ele>552.734</ele>
<time>2020-09-10T16:17:24Z</time>
</trkpt>
<trkpt lat="48.066582" lon="10.580744">
<ele>552.734</ele>
<time>2020-09-10T16:17:25Z</time>
</trkpt>
<trkpt lat="48.066544" lon="10.580735">
<ele>552.734</ele>
<time>2020-09-10T16:17:26Z</time>
</trkpt>
<trkpt lat="48.066502" lon="10.580729">
<ele>552.734</ele>
<time>2020-09-10T16:17:27Z</time>
</trkpt>
<trkpt lat="48.066463" lon="10.580728">
<ele>552.734</ele>
<time>2020-09-10T16:17:28Z</time>
</trkpt>
<trkpt lat="48.066422" lon="10.580728">
<ele>552.734</ele>
<time>2020-09-10T16:17:29Z</time>
</trkpt>
<trkpt lat="48.066376" lon="10.580731">
<ele>552.734</ele>
<time>2020-09-10T16:17:30Z</time>
</trkpt>
<trkpt lat="48.066338" lon="10.580735">
<ele>552.734</ele>
<time>2020-09-10T16:17:31Z</time>
</trkpt>
<trkpt lat="48.066296" lon="10.580736">
<ele>552.734</ele>
<time>2020-09-10T16:17:32Z</time>
</trkpt>
<trkpt lat="48.066257" lon="10.580736">
<ele>552.734</ele>
<time>2020-09-10T16:17:33Z</time>
</trkpt>
<trkpt lat="48.066219" lon="10.580736">
<ele>552.734</ele>
<time>2020-09-10T16:17:34Z</time>
</trkpt>
<trkpt lat="48.066181" lon="10.58074">
<ele>552.734</ele>
<time>2020-09-10T16:17:35Z</time>
</trkpt>
<trkpt lat="48.066143" lon="10.58075">
<ele>552.734</ele>
<time>2020-09-10T16:17:36Z</time>
</trkpt>
<trkpt lat="48.066105" lon="10.580761">
<ele>552.734</ele>
<time>2020-09-10T16:17:37Z</time>
</trkpt>
<trkpt lat="48.066063" lon="10.580773">
<ele>552.734</ele>
<time>2020-09-10T16:17:38Z</time>
</trkpt>
<trkpt lat="48.066021" lon="10.580784">
<ele>552.734</ele>
<time>2020-09-10T16:17:39Z</time>
</trkpt>
<trkpt lat="48.065983" lon="10.580794">
<ele>552.734</ele>
<time>2020-09-10T16:17:40Z</time>
</trkpt>
<trkpt lat="48.065941" lon="10.580807">
<ele>552.734</ele>
<time>2020-09-10T16:17:41Z</time>
</trkpt>
<trkpt lat="48.065903" lon="10.580824">
<ele>552.734</ele>
<time>2020-09-10T16:17:42Z</time>
</trkpt>
<trkpt lat="48.065865" lon="10.580843">
<ele>552.734</ele>
<time>2020-09-10T16:17:43Z</time>
</trkpt>
<trkpt lat="48.065823" lon="10.580864">
<ele>552.734</ele>
<time>2020-09-10T16:17:44Z</time>
</trkpt>
<trkpt lat="48.065788" lon="10.580887">
<ele>552.734</ele>
<time>2020-09-10T16:17:45Z</time>
</trkpt>
<trkpt lat="48.06575" lon="10.580908">
<ele>553.004</ele>
<time>2020-09-10T16:17:46Z</time>
</trkpt>
<trkpt lat="48.065716" lon="10.580931">
<ele>553.215</ele>
<time>2020-09-10T16:17:47Z</time>
</trkpt>
<trkpt lat="48.065678" lon="10.580956">
<ele>553.378</ele>
<time>2020-09-10T16:17:48Z</time>
</trkpt>
<trkpt lat="48.065639" lon="10.580985">
<ele>553.493</ele>
<time>2020-09-10T16:17:49Z</time>
</trkpt>
<trkpt lat="48.065605" lon="10.581013">
<ele>553.615</ele>
<time>2020-09-10T16:17:50Z</time>
</trkpt>
<trkpt lat="48.065567" lon="10.581039">
<ele>553.701</ele>
<time>2020-09-10T16:17:51Z</time>
</trkpt>
<trkpt lat="48.065529" lon="10.581063">
<ele>553.757</ele>
<time>2020-09-10T16:17:52Z</time>
</trkpt>
<trkpt lat="48.065495" lon="10.581088">
<ele>553.785</ele>
<time>2020-09-10T16:17:53Z</time>
</trkpt>
<trkpt lat="48.06546" lon="10.581113">
<ele>553.785</ele>
<time>2020-09-10T16:17:54Z</time>
</trkpt>
<trkpt lat="48.065426" lon="10.581135">
<ele>553.785</ele>
<time>2020-09-10T16:17:55Z</time>
</trkpt>
<trkpt lat="48.065388" lon="10.581157">
<ele>553.785</ele>
<time>2020-09-10T16:17:56Z</time>
</trkpt>
<trkpt lat="48.065353" lon="10.58118">
<ele>553.785</ele>
<time>2020-09-10T16:17:57Z</time>
</trkpt>
<trkpt lat="48.065319" lon="10.58121">
<ele>553.785</ele>
<time>2020-09-10T16:17:58Z</time>
</trkpt>
<trkpt lat="48.065285" lon="10.581237">
<ele>553.785</ele>
<time>2020-09-10T16:17:59Z</time>
</trkpt>
<trkpt lat="48.065247" lon="10.581264">
<ele>553.785</ele>
<time>2020-09-10T16:18:00Z</time>
</trkpt>
<trkpt lat="48.065208" lon="10.581288">
<ele>553.785</ele>
<time>2020-09-10T16:18:01Z</time>
</trkpt>
<trkpt lat="48.065174" lon="10.581316">
<ele>553.785</ele>
<time>2020-09-10T16:18:02Z</time>
</trkpt>
<trkpt lat="48.065136" lon="10.581344">
<ele>553.785</ele>
<time>2020-09-10T16:18:03Z</time>
</trkpt>
<trkpt lat="48.065102" lon="10.581367">
<ele>553.785</ele>
<time>2020-09-10T16:18:04Z</time>
</trkpt>
<trkpt lat="48.065067" lon="10.581388">
<ele>553.785</ele>
<time>2020-09-10T16:18:05Z</time>
</trkpt>
<trkpt lat="48.065033" lon="10.581413">
<ele>553.785</ele>
<time>2020-09-10T16:18:06Z</time>
</trkpt>
<trkpt lat="48.064991" lon="10.581438">
<ele>553.785</ele>
<time>2020-09-10T16:18:07Z</time>
</trkpt>
<trkpt lat="48.064957" lon="10.581463">
<ele>553.785</ele>
<time>2020-09-10T16:18:08Z</time>
</trkpt>
<trkpt lat="48.064919" lon="10.581487">
<ele>553.785</ele>
<time>2020-09-10T16:18:09Z</time>
</trkpt>
<trkpt lat="48.064884" lon="10.581513">
<ele>553.785</ele>
<time>2020-09-10T16:18:10Z</time>
</trkpt>
<trkpt lat="48.06485" lon="10.581538">
<ele>553.785</ele>
<time>2020-09-10T16:18:11Z</time>
</trkpt>
<trkpt lat="48.064816" lon="10.581563">
<ele>553.785</ele>
<time>2020-09-10T16:18:12Z</time>
</trkpt>
<trkpt lat="48.064785" lon="10.581589">
<ele>553.785</ele>
<time>2020-09-10T16:18:13Z</time>
</trkpt>
<trkpt lat="48.064751" lon="10.581614">
<ele>553.785</ele>
<time>2020-09-10T16:18:14Z</time>
</trkpt>
<trkpt lat="48.064716" lon="10.58164">
<ele>554.035</ele>
<time>2020-09-10T16:18:15Z</time>
</trkpt>
<trkpt lat="48.064686" lon="10.581662">
<ele>554.232</ele>
<time>2020-09-10T16:18:16Z</time>
</trkpt>
<trkpt lat="48.064651" lon="10.581685">
<ele>554.386</ele>
<time>2020-09-10T16:18:17Z</time>
</trkpt>
<trkpt lat="48.064617" lon="10.581706">
<ele>554.504</ele>
<time>2020-09-10T16:18:18Z</time>
</trkpt>
<trkpt lat="48.064579" lon="10.581729">
<ele>554.586</ele>
<time>2020-09-10T16:18:19Z</time>
</trkpt>
<trkpt lat="48.064548" lon="10.58175">
<ele>554.671</ele>
<time>2020-09-10T16:18:20Z</time>
</trkpt>
<trkpt lat="48.064507" lon="10.581773">
<ele>554.725</ele>
<time>2020-09-10T16:18:21Z</time>
</trkpt>
<trkpt lat="48.064468" lon="10.581797">
<ele>554.749</ele>
<time>2020-09-10T16:18:22Z</time>
</trkpt>
<trkpt lat="48.06443" lon="10.581823">
<ele>554.749</ele>
<time>2020-09-10T16:18:23Z</time>
</trkpt>
<trkpt lat="48.064396" lon="10.581844">
<ele>554.749</ele>
<time>2020-09-10T16:18:24Z</time>
</trkpt>
<trkpt lat="48.064354" lon="10.581872">
<ele>554.749</ele>
<time>2020-09-10T16:18:25Z</time>
</trkpt>
<trkpt lat="48.06432" lon="10.581902">
<ele>554.749</ele>
<time>2020-09-10T16:18:26Z</time>
</trkpt>
<trkpt lat="48.064285" lon="10.58193">
<ele>554.749</ele>
<time>2020-09-10T16:18:27Z</time>
</trkpt>
<trkpt lat="48.064247" lon="10.581958">
<ele>554.749</ele>
<time>2020-09-10T16:18:28Z</time>
</trkpt>
<trkpt lat="48.064205" lon="10.581986">
<ele>554.749</ele>
<time>2020-09-10T16:18:29Z</time>
</trkpt>
<trkpt lat="48.064171" lon="10.582013">
<ele>554.749</ele>
<time>2020-09-10T16:18:30Z</time>
</trkpt>
<trkpt lat="48.064133" lon="10.582039">
<ele>554.749</ele>
<time>2020-09-10T16:18:31Z</time>
</trkpt>
<trkpt lat="48.064098" lon="10.582064">
<ele>554.749</ele>
<time>2020-09-10T16:18:32Z</time>
</trkpt>
<trkpt lat="48.064064" lon="10.582089">
<ele>554.749</ele>
<time>2020-09-10T16:18:33Z</time>
</trkpt>
<trkpt lat="48.06403" lon="10.582118">
<ele>554.749</ele>
<time>2020-09-10T16:18:34Z</time>
</trkpt>
<trkpt lat="48.063992" lon="10.582146">
<ele>554.749</ele>
<time>2020-09-10T16:18:35Z</time>
</trkpt>
<trkpt lat="48.063957" lon="10.582177">
<ele>554.749</ele>
<time>2020-09-10T16:18:36Z</time>
</trkpt>
<trkpt lat="48.063923" lon="10.582209">
<ele>554.749</ele>
<time>2020-09-10T16:18:37Z</time>
</trkpt>
<trkpt lat="48.063885" lon="10.582244">
<ele>554.749</ele>
<time>2020-09-10T16:18:38Z</time>
</trkpt>
<trkpt lat="48.06385" lon="10.582276">
<ele>554.749</ele>
<time>2020-09-10T16:18:39Z</time>
</trkpt>
<trkpt lat="48.063812" lon="10.58231">
<ele>554.968</ele>
<time>2020-09-10T16:18:40Z</time>
</trkpt>
<trkpt lat="48.063774" lon="10.582347">
<ele>555.149</ele>
<time>2020-09-10T16:18:41Z</time>
</trkpt>
<trkpt lat="48.06374" lon="10.582382">
<ele>555.294</ele>
<time>2020-09-10T16:18:42Z</time>
</trkpt>
<trkpt lat="48.063705" lon="10.582417">
<ele>555.41</ele>
<time>2020-09-10T16:18:43Z</time>
</trkpt>
<trkpt lat="48.063667" lon="10.58245">
<ele>555.497</ele>
<time>2020-09-10T16:18:44Z</time>
</trkpt>
<trkpt lat="48.063633" lon="10.582485">
<ele>555.564</ele>
<time>2020-09-10T16:18:45Z</time>
</trkpt>
<trkpt lat="48.063595" lon="10.58252">
<ele>555.606</ele>
<time>2020-09-10T16:18:46Z</time>
</trkpt>
<trkpt lat="48.063557" lon="10.582553">
<ele>555.626</ele>
<time>2020-09-10T16:18:47Z</time>
</trkpt>
<trkpt lat="48.063515" lon="10.582588">
<ele>555.626</ele>
<time>2020-09-10T16:18:48Z</time>
</trkpt>
<trkpt lat="48.063473" lon="10.582625">
<ele>555.626</ele>
<time>2020-09-10T16:18:49Z</time>
</trkpt>
<trkpt lat="48.063435" lon="10.58266">
<ele>555.626</ele>
<time>2020-09-10T16:18:50Z</time>
</trkpt>
<trkpt lat="48.063396" lon="10.582693">
<ele>555.626</ele>
<time>2020-09-10T16:18:51Z</time>
</trkpt>
<trkpt lat="48.063351" lon="10.582728">
<ele>555.626</ele>
<time>2020-09-10T16:18:52Z</time>
</trkpt>
<trkpt lat="48.063309" lon="10.58276">
<ele>555.626</ele>
<time>2020-09-10T16:18:53Z</time>
</trkpt>
<trkpt lat="48.063263" lon="10.582791">
<ele>555.626</ele>
<time>2020-09-10T16:18:54Z</time>
</trkpt>
<trkpt lat="48.063221" lon="10.582825">
<ele>555.626</ele>
<time>2020-09-10T16:18:55Z</time>
</trkpt>
<trkpt lat="48.063179" lon="10.58286">
<ele>555.626</ele>
<time>2020-09-10T16:18:56Z</time>
</trkpt>
<trkpt lat="48.063126" lon="10.582895">
<ele>555.626</ele>
<time>2020-09-10T16:18:57Z</time>
</trkpt>
<trkpt lat="48.06308" lon="10.582932">
<ele>555.626</ele>
<time>2020-09-10T16:18:58Z</time>
</trkpt>
<trkpt lat="48.06303" lon="10.582967">
<ele>555.626</ele>
<time>2020-09-10T16:18:59Z</time>
</trkpt>
<trkpt lat="48.062981" lon="10.583">
<ele>555.626</ele>
<time>2020-09-10T16:19:00Z</time>
</trkpt>
<trkpt lat="48.062935" lon="10.583036">
<ele>555.626</ele>
<time>2020-09-10T16:19:01Z</time>
</trkpt>
<trkpt lat="48.062885" lon="10.58307">
<ele>555.626</ele>
<time>2020-09-10T16:19:02Z</time>
</trkpt>
<trkpt lat="48.062843" lon="10.583101">
<ele>555.626</ele>
<time>2020-09-10T16:19:03Z</time>
</trkpt>
<trkpt lat="48.062798" lon="10.583132">
<ele>555.626</ele>
<time>2020-09-10T16:19:04Z</time>
</trkpt>
<trkpt lat="48.062756" lon="10.583161">
<ele>555.626</ele>
<time>2020-09-10T16:19:05Z</time>
</trkpt>
<trkpt lat="48.062714" lon="10.583196">
<ele>555.626</ele>
<time>2020-09-10T16:19:06Z</time>
</trkpt>
<trkpt lat="48.062668" lon="10.583227">
<ele>555.626</ele>
<time>2020-09-10T16:19:07Z</time>
</trkpt>
<trkpt lat="48.062622" lon="10.583259">
<ele>555.626</ele>
<time>2020-09-10T16:19:08Z</time>
</trkpt>
<trkpt lat="48.06258" lon="10.58329">
<ele>555.626</ele>
<time>2020-09-10T16:19:09Z</time>
</trkpt>
<trkpt lat="48.062531" lon="10.58332">
<ele>555.626</ele>
<time>2020-09-10T16:19:10Z</time>
</trkpt>
<trkpt lat="48.062489" lon="10.583352">
<ele>555.626</ele>
<time>2020-09-10T16:19:11Z</time>
</trkpt>
<trkpt lat="48.062439" lon="10.583384">
<ele>555.626</ele>
<time>2020-09-10T16:19:12Z</time>
</trkpt>
<trkpt lat="48.062393" lon="10.583409">
<ele>555.626</ele>
<time>2020-09-10T16:19:13Z</time>
</trkpt>
<trkpt lat="48.062347" lon="10.583439">
<ele>555.626</ele>
<time>2020-09-10T16:19:14Z</time>
</trkpt>
<trkpt lat="48.062298" lon="10.58347">
<ele>555.626</ele>
<time>2020-09-10T16:19:15Z</time>
</trkpt>
<trkpt lat="48.062256" lon="10.583504">
<ele>555.626</ele>
<time>2020-09-10T16:19:16Z</time>
</trkpt>
<trkpt lat="48.062214" lon="10.583537">
<ele>555.626</ele>
<time>2020-09-10T16:19:17Z</time>
</trkpt>
<trkpt lat="48.062172" lon="10.58357">
<ele>555.626</ele>
<time>2020-09-10T16:19:18Z</time>
</trkpt>
<trkpt lat="48.062126" lon="10.583602">
<ele>555.626</ele>
<time>2020-09-10T16:19:19Z</time>
</trkpt>
<trkpt lat="48.06208" lon="10.583633">
<ele>555.626</ele>
<time>2020-09-10T16:19:20Z</time>
</trkpt>
<trkpt lat="48.062038" lon="10.583665">
<ele>555.626</ele>
<time>2020-09-10T16:19:21Z</time>
</trkpt>
<trkpt lat="48.061996" lon="10.583694">
<ele>555.626</ele>
<time>2020-09-10T16:19:22Z</time>
</trkpt>
<trkpt lat="48.061951" lon="10.583723">
<ele>555.626</ele>
<time>2020-09-10T16:19:23Z</time>
</trkpt>
<trkpt lat="48.061905" lon="10.583755">
<ele>555.626</ele>
<time>2020-09-10T16:19:24Z</time>
</trkpt>
<trkpt lat="48.061859" lon="10.583784">
<ele>555.626</ele>
<time>2020-09-10T16:19:25Z</time>
</trkpt>
<trkpt lat="48.061813" lon="10.583812">
<ele>555.626</ele>
<time>2020-09-10T16:19:26Z</time>
</trkpt>
<trkpt lat="48.061771" lon="10.58384">
<ele>555.626</ele>
<time>2020-09-10T16:19:27Z</time>
</trkpt>
<trkpt lat="48.061726" lon="10.583868">
<ele>555.859</ele>
<time>2020-09-10T16:19:28Z</time>
</trkpt>
<trkpt lat="48.06168" lon="10.583897">
<ele>556.027</ele>
<time>2020-09-10T16:19:29Z</time>
</trkpt>
<trkpt lat="48.061638" lon="10.583925">
<ele>556.2</ele>
<time>2020-09-10T16:19:30Z</time>
</trkpt>
<trkpt lat="48.061596" lon="10.583952">
<ele>556.334</ele>
<time>2020-09-10T16:19:31Z</time>
</trkpt>
<trkpt lat="48.06155" lon="10.583982">
<ele>556.439</ele>
<time>2020-09-10T16:19:32Z</time>
</trkpt>
<trkpt lat="48.061508" lon="10.58401">
<ele>556.516</ele>
<time>2020-09-10T16:19:33Z</time>
</trkpt>
<trkpt lat="48.061462" lon="10.58404">
<ele>556.566</ele>
<time>2020-09-10T16:19:34Z</time>
</trkpt>
<trkpt lat="48.061417" lon="10.584071">
<ele>556.59</ele>
<time>2020-09-10T16:19:35Z</time>
</trkpt>
<trkpt lat="48.061371" lon="10.584101">
<ele>556.59</ele>
<time>2020-09-10T16:19:36Z</time>
</trkpt>
<trkpt lat="48.061325" lon="10.58413">
<ele>556.59</ele>
<time>2020-09-10T16:19:37Z</time>
</trkpt>
<trkpt lat="48.061283" lon="10.58416">
<ele>556.59</ele>
<time>2020-09-10T16:19:38Z</time>
</trkpt>
<trkpt lat="48.061237" lon="10.58419">
<ele>556.59</ele>
<time>2020-09-10T16:19:39Z</time>
</trkpt>
<trkpt lat="48.061195" lon="10.58422">
<ele>556.59</ele>
<time>2020-09-10T16:19:40Z</time>
</trkpt>
<trkpt lat="48.061153" lon="10.584253">
<ele>556.59</ele>
<time>2020-09-10T16:19:41Z</time>
</trkpt>
<trkpt lat="48.061104" lon="10.584289">
<ele>556.59</ele>
<time>2020-09-10T16:19:42Z</time>
</trkpt>
<trkpt lat="48.061062" lon="10.584323">
<ele>556.59</ele>
<time>2020-09-10T16:19:43Z</time>
</trkpt>
<trkpt lat="48.06102" lon="10.584358">
<ele>556.59</ele>
<time>2020-09-10T16:19:44Z</time>
</trkpt>
<trkpt lat="48.060974" lon="10.584396">
<ele>556.59</ele>
<time>2020-09-10T16:19:45Z</time>
</trkpt>
<trkpt lat="48.060928" lon="10.584435">
<ele>556.59</ele>
<time>2020-09-10T16:19:46Z</time>
</trkpt>
<trkpt lat="48.060879" lon="10.584476">
<ele>556.59</ele>
<time>2020-09-10T16:19:47Z</time>
</trkpt>
<trkpt lat="48.060833" lon="10.584514">
<ele>556.59</ele>
<time>2020-09-10T16:19:48Z</time>
</trkpt>
<trkpt lat="48.060795" lon="10.58455">
<ele>556.59</ele>
<time>2020-09-10T16:19:49Z</time>
</trkpt>
<trkpt lat="48.060757" lon="10.584587">
<ele>556.59</ele>
<time>2020-09-10T16:19:50Z</time>
</trkpt>
<trkpt lat="48.060719" lon="10.58463">
<ele>556.59</ele>
<time>2020-09-10T16:19:51Z</time>
</trkpt>
<trkpt lat="48.060673" lon="10.584679">
<ele>556.59</ele>
<time>2020-09-10T16:19:52Z</time>
</trkpt>
<trkpt lat="48.060635" lon="10.584727">
<ele>556.59</ele>
<time>2020-09-10T16:19:53Z</time>
</trkpt>
<trkpt lat="48.060589" lon="10.584773">
<ele>556.59</ele>
<time>2020-09-10T16:19:54Z</time>
</trkpt>
<trkpt lat="48.060539" lon="10.58482">
<ele>556.59</ele>
<time>2020-09-10T16:19:55Z</time>
</trkpt>
<trkpt lat="48.060493" lon="10.584867">
<ele>556.59</ele>
<time>2020-09-10T16:19:56Z</time>
</trkpt>
<trkpt lat="48.06044" lon="10.584913">
<ele>556.59</ele>
<time>2020-09-10T16:19:57Z</time>
</trkpt>
<trkpt lat="48.060398" lon="10.584957">
<ele>556.59</ele>
<time>2020-09-10T16:19:58Z</time>
</trkpt>
<trkpt lat="48.060352" lon="10.584997">
<ele>556.59</ele>
<time>2020-09-10T16:19:59Z</time>
</trkpt>
<trkpt lat="48.06031" lon="10.585037">
<ele>556.59</ele>
<time>2020-09-10T16:20:00Z</time>
</trkpt>
<trkpt lat="48.060261" lon="10.585073">
<ele>556.59</ele>
<time>2020-09-10T16:20:01Z</time>
</trkpt>
<trkpt lat="48.060211" lon="10.585111">
<ele>556.59</ele>
<time>2020-09-10T16:20:02Z</time>
</trkpt>
<trkpt lat="48.060165" lon="10.585146">
<ele>556.59</ele>
<time>2020-09-10T16:20:03Z</time>
</trkpt>
<trkpt lat="48.060116" lon="10.585183">
<ele>556.59</ele>
<time>2020-09-10T16:20:04Z</time>
</trkpt>
<trkpt lat="48.060074" lon="10.585217">
<ele>556.59</ele>
<time>2020-09-10T16:20:05Z</time>
</trkpt>
<trkpt lat="48.060024" lon="10.58525">
<ele>556.59</ele>
<time>2020-09-10T16:20:06Z</time>
</trkpt>
<trkpt lat="48.059982" lon="10.585282">
<ele>556.59</ele>
<time>2020-09-10T16:20:07Z</time>
</trkpt>
<trkpt lat="48.059933" lon="10.585316">
<ele>556.59</ele>
<time>2020-09-10T16:20:08Z</time>
</trkpt>
<trkpt lat="48.059883" lon="10.585352">
<ele>556.59</ele>
<time>2020-09-10T16:20:09Z</time>
</trkpt>
<trkpt lat="48.059834" lon="10.585385">
<ele>556.59</ele>
<time>2020-09-10T16:20:10Z</time>
</trkpt>
<trkpt lat="48.059788" lon="10.585419">
<ele>556.59</ele>
<time>2020-09-10T16:20:11Z</time>
</trkpt>
<trkpt lat="48.059742" lon="10.585452">
<ele>556.59</ele>
<time>2020-09-10T16:20:12Z</time>
</trkpt>
<trkpt lat="48.059689" lon="10.585485">
<ele>556.59</ele>
<time>2020-09-10T16:20:13Z</time>
</trkpt>
<trkpt lat="48.059647" lon="10.58552">
<ele>556.59</ele>
<time>2020-09-10T16:20:14Z</time>
</trkpt>
<trkpt lat="48.059601" lon="10.585557">
<ele>556.59</ele>
<time>2020-09-10T16:20:15Z</time>
</trkpt>
<trkpt lat="48.059559" lon="10.585595">
<ele>556.834</ele>
<time>2020-09-10T16:20:16Z</time>
</trkpt>
<trkpt lat="48.059513" lon="10.585634">
<ele>557.027</ele>
<time>2020-09-10T16:20:17Z</time>
</trkpt>
<trkpt lat="48.059467" lon="10.585673">
<ele>557.18</ele>
<time>2020-09-10T16:20:18Z</time>
</trkpt>
<trkpt lat="48.059429" lon="10.585713">
<ele>557.283</ele>
<time>2020-09-10T16:20:19Z</time>
</trkpt>
<trkpt lat="48.059387" lon="10.585756">
<ele>557.395</ele>
<time>2020-09-10T16:20:20Z</time>
</trkpt>
<trkpt lat="48.059349" lon="10.585798">
<ele>557.475</ele>
<time>2020-09-10T16:20:21Z</time>
</trkpt>
<trkpt lat="48.059311" lon="10.58584">
<ele>557.528</ele>
<time>2020-09-10T16:20:22Z</time>
</trkpt>
<trkpt lat="48.059273" lon="10.585881">
<ele>557.554</ele>
<time>2020-09-10T16:20:23Z</time>
</trkpt>
<trkpt lat="48.059235" lon="10.585923">
<ele>557.554</ele>
<time>2020-09-10T16:20:24Z</time>
</trkpt>
<trkpt lat="48.059196" lon="10.585967">
<ele>557.554</ele>
<time>2020-09-10T16:20:25Z</time>
</trkpt>
<trkpt lat="48.059158" lon="10.586009">
<ele>557.554</ele>
<time>2020-09-10T16:20:26Z</time>
</trkpt>
<trkpt lat="48.05912" lon="10.586051">
<ele>557.554</ele>
<time>2020-09-10T16:20:27Z</time>
</trkpt>
<trkpt lat="48.059078" lon="10.586093">
<ele>557.554</ele>
<time>2020-09-10T16:20:28Z</time>
</trkpt>
<trkpt lat="48.05904" lon="10.58613">
<ele>557.554</ele>
<time>2020-09-10T16:20:29Z</time>
</trkpt>
<trkpt lat="48.059006" lon="10.586166">
<ele>557.554</ele>
<time>2020-09-10T16:20:30Z</time>
</trkpt>
<trkpt lat="48.05896" lon="10.586204">
<ele>557.554</ele>
<time>2020-09-10T16:20:31Z</time>
</trkpt>
<trkpt lat="48.058918" lon="10.586238">
<ele>557.554</ele>
<time>2020-09-10T16:20:32Z</time>
</trkpt>
<trkpt lat="48.058876" lon="10.586269">
<ele>557.554</ele>
<time>2020-09-10T16:20:33Z</time>
</trkpt>
<trkpt lat="48.05883" lon="10.586298">
<ele>557.554</ele>
<time>2020-09-10T16:20:34Z</time>
</trkpt>
<trkpt lat="48.058784" lon="10.586326">
<ele>557.554</ele>
<time>2020-09-10T16:20:35Z</time>
</trkpt>
<trkpt lat="48.058743" lon="10.586343">
<ele>557.554</ele>
<time>2020-09-10T16:20:36Z</time>
</trkpt>
<trkpt lat="48.058701" lon="10.586365">
<ele>557.554</ele>
<time>2020-09-10T16:20:37Z</time>
</trkpt>
<trkpt lat="48.058655" lon="10.586387">
<ele>557.554</ele>
<time>2020-09-10T16:20:38Z</time>
</trkpt>
<trkpt lat="48.058613" lon="10.586405">
<ele>557.554</ele>
<time>2020-09-10T16:20:39Z</time>
</trkpt>
<trkpt lat="48.058563" lon="10.586425">
<ele>557.554</ele>
<time>2020-09-10T16:20:40Z</time>
</trkpt>
<trkpt lat="48.058517" lon="10.586447">
<ele>557.554</ele>
<time>2020-09-10T16:20:41Z</time>
</trkpt>
<trkpt lat="48.058464" lon="10.586472">
<ele>557.554</ele>
<time>2020-09-10T16:20:42Z</time>
</trkpt>
<trkpt lat="48.058418" lon="10.586492">
<ele>557.554</ele>
<time>2020-09-10T16:20:43Z</time>
</trkpt>
<trkpt lat="48.058361" lon="10.586514">
<ele>557.554</ele>
<time>2020-09-10T16:20:44Z</time>
</trkpt>
<trkpt lat="48.058315" lon="10.586537">
<ele>557.554</ele>
<time>2020-09-10T16:20:45Z</time>
</trkpt>
<trkpt lat="48.058262" lon="10.586558">
<ele>557.554</ele>
<time>2020-09-10T16:20:46Z</time>
</trkpt>
<trkpt lat="48.058208" lon="10.586581">
<ele>557.554</ele>
<time>2020-09-10T16:20:47Z</time>
</trkpt>
<trkpt lat="48.058159" lon="10.586604">
<ele>557.554</ele>
<time>2020-09-10T16:20:48Z</time>
</trkpt>
<trkpt lat="48.058098" lon="10.586627">
<ele>557.554</ele>
<time>2020-09-10T16:20:49Z</time>
</trkpt>
<trkpt lat="48.058048" lon="10.586648">
<ele>557.554</ele>
<time>2020-09-10T16:20:50Z</time>
</trkpt>
<trkpt lat="48.057999" lon="10.586672">
<ele>557.554</ele>
<time>2020-09-10T16:20:51Z</time>
</trkpt>
<trkpt lat="48.057945" lon="10.586694">
<ele>557.554</ele>
<time>2020-09-10T16:20:52Z</time>
</trkpt>
<trkpt lat="48.057896" lon="10.586713">
<ele>557.554</ele>
<time>2020-09-10T16:20:53Z</time>
</trkpt>
<trkpt lat="48.057842" lon="10.586735">
<ele>557.554</ele>
<time>2020-09-10T16:20:54Z</time>
</trkpt>
<trkpt lat="48.057793" lon="10.586755">
<ele>557.554</ele>
<time>2020-09-10T16:20:55Z</time>
</trkpt>
<trkpt lat="48.057735" lon="10.586775">
<ele>557.554</ele>
<time>2020-09-10T16:20:56Z</time>
</trkpt>
<trkpt lat="48.05769" lon="10.586795">
<ele>557.554</ele>
<time>2020-09-10T16:20:57Z</time>
</trkpt>
<trkpt lat="48.05764" lon="10.586812">
<ele>557.554</ele>
<time>2020-09-10T16:20:58Z</time>
</trkpt>
<trkpt lat="48.057594" lon="10.58683">
<ele>557.554</ele>
<time>2020-09-10T16:20:59Z</time>
</trkpt>
<trkpt lat="48.057549" lon="10.586848">
<ele>557.554</ele>
<time>2020-09-10T16:21:00Z</time>
</trkpt>
<trkpt lat="48.057503" lon="10.586866">
<ele>557.554</ele>
<time>2020-09-10T16:21:01Z</time>
</trkpt>
<trkpt lat="48.057453" lon="10.586884">
<ele>557.554</ele>
<time>2020-09-10T16:21:02Z</time>
</trkpt>
<trkpt lat="48.057407" lon="10.586902">
<ele>557.554</ele>
<time>2020-09-10T16:21:03Z</time>
</trkpt>
<trkpt lat="48.057358" lon="10.586919">
<ele>557.812</ele>
<time>2020-09-10T16:21:04Z</time>
</trkpt>
<trkpt lat="48.057312" lon="10.586937">
<ele>558.018</ele>
<time>2020-09-10T16:21:05Z</time>
</trkpt>
<trkpt lat="48.057266" lon="10.586958">
<ele>558.176</ele>
<time>2020-09-10T16:21:06Z</time>
</trkpt>
<trkpt lat="48.057213" lon="10.586986">
<ele>558.293</ele>
<time>2020-09-10T16:21:07Z</time>
</trkpt>
<trkpt lat="48.057159" lon="10.587011">
<ele>558.38</ele>
<time>2020-09-10T16:21:08Z</time>
</trkpt>
<trkpt lat="48.05711" lon="10.587036">
<ele>558.438</ele>
<time>2020-09-10T16:21:09Z</time>
</trkpt>
<trkpt lat="48.05706" lon="10.58706">
<ele>558.492</ele>
<time>2020-09-10T16:21:10Z</time>
</trkpt>
<trkpt lat="48.057014" lon="10.587078">
<ele>558.518</ele>
<time>2020-09-10T16:21:11Z</time>
</trkpt>
<trkpt lat="48.056961" lon="10.587092">
<ele>558.518</ele>
<time>2020-09-10T16:21:12Z</time>
</trkpt>
<trkpt lat="48.056915" lon="10.587107">
<ele>558.518</ele>
<time>2020-09-10T16:21:13Z</time>
</trkpt>
<trkpt lat="48.05687" lon="10.587124">
<ele>558.518</ele>
<time>2020-09-10T16:21:14Z</time>
</trkpt>
<trkpt lat="48.05682" lon="10.58714">
<ele>558.518</ele>
<time>2020-09-10T16:21:15Z</time>
</trkpt>
<trkpt lat="48.05677" lon="10.587155">
<ele>558.518</ele>
<time>2020-09-10T16:21:16Z</time>
</trkpt>
<trkpt lat="48.056721" lon="10.587172">
<ele>558.518</ele>
<time>2020-09-10T16:21:17Z</time>
</trkpt>
<trkpt lat="48.056671" lon="10.587189">
<ele>558.518</ele>
<time>2020-09-10T16:21:18Z</time>
</trkpt>
<trkpt lat="48.056622" lon="10.58721">
<ele>558.518</ele>
<time>2020-09-10T16:21:19Z</time>
</trkpt>
<trkpt lat="48.056568" lon="10.587231">
<ele>558.518</ele>
<time>2020-09-10T16:21:20Z</time>
</trkpt>
<trkpt lat="48.056522" lon="10.587247">
<ele>558.518</ele>
<time>2020-09-10T16:21:21Z</time>
</trkpt>
<trkpt lat="48.056469" lon="10.587264">
<ele>558.518</ele>
<time>2020-09-10T16:21:22Z</time>
</trkpt>
<trkpt lat="48.056419" lon="10.587278">
<ele>558.518</ele>
<time>2020-09-10T16:21:23Z</time>
</trkpt>
<trkpt lat="48.05637" lon="10.58729">
<ele>558.518</ele>
<time>2020-09-10T16:21:24Z</time>
</trkpt>
<trkpt lat="48.056324" lon="10.587296">
<ele>558.518</ele>
<time>2020-09-10T16:21:25Z</time>
</trkpt>
<trkpt lat="48.056274" lon="10.587302">
<ele>558.518</ele>
<time>2020-09-10T16:21:26Z</time>
</trkpt>
<trkpt lat="48.056232" lon="10.587306">
<ele>558.518</ele>
<time>2020-09-10T16:21:27Z</time>
</trkpt>
<trkpt lat="48.056183" lon="10.587313">
<ele>558.518</ele>
<time>2020-09-10T16:21:28Z</time>
</trkpt>
<trkpt lat="48.056133" lon="10.587321">
<ele>558.729</ele>
<time>2020-09-10T16:21:29Z</time>
</trkpt>
<trkpt lat="48.056084" lon="10.58733">
<ele>558.93</ele>
<time>2020-09-10T16:21:30Z</time>
</trkpt>
<trkpt lat="48.056034" lon="10.587341">
<ele>559.102</ele>
<time>2020-09-10T16:21:31Z</time>
</trkpt>
<trkpt lat="48.055984" lon="10.587352">
<ele>559.237</ele>
<time>2020-09-10T16:21:32Z</time>
</trkpt>
<trkpt lat="48.055935" lon="10.58736">
<ele>559.341</ele>
<time>2020-09-10T16:21:33Z</time>
</trkpt>
<trkpt lat="48.055885" lon="10.587369">
<ele>559.415</ele>
<time>2020-09-10T16:21:34Z</time>
</trkpt>
<trkpt lat="48.055836" lon="10.587375">
<ele>559.461</ele>
<time>2020-09-10T16:21:35Z</time>
</trkpt>
<trkpt lat="48.055782" lon="10.587379">
<ele>559.482</ele>
<time>2020-09-10T16:21:36Z</time>
</trkpt>
<trkpt lat="48.055733" lon="10.587386">
<ele>559.482</ele>
<time>2020-09-10T16:21:37Z</time>
</trkpt>
<trkpt lat="48.055679" lon="10.58739">
<ele>559.482</ele>
<time>2020-09-10T16:21:38Z</time>
</trkpt>
<trkpt lat="48.055626" lon="10.587395">
<ele>559.482</ele>
<time>2020-09-10T16:21:39Z</time>
</trkpt>
<trkpt lat="48.055576" lon="10.587399">
<ele>559.482</ele>
<time>2020-09-10T16:21:40Z</time>
</trkpt>
<trkpt lat="48.055527" lon="10.5874">
<ele>559.482</ele>
<time>2020-09-10T16:21:41Z</time>
</trkpt>
<trkpt lat="48.055481" lon="10.5874">
<ele>559.482</ele>
<time>2020-09-10T16:21:42Z</time>
</trkpt>
<trkpt lat="48.055431" lon="10.5874">
<ele>559.482</ele>
<time>2020-09-10T16:21:43Z</time>
</trkpt>
<trkpt lat="48.055382" lon="10.587399">
<ele>559.482</ele>
<time>2020-09-10T16:21:44Z</time>
</trkpt>
<trkpt lat="48.055332" lon="10.587397">
<ele>559.482</ele>
<time>2020-09-10T16:21:45Z</time>
</trkpt>
<trkpt lat="48.055279" lon="10.587395">
<ele>559.482</ele>
<time>2020-09-10T16:21:46Z</time>
</trkpt>
<trkpt lat="48.055222" lon="10.587394">
<ele>559.482</ele>
<time>2020-09-10T16:21:47Z</time>
</trkpt>
<trkpt lat="48.055172" lon="10.587392">
<ele>559.482</ele>
<time>2020-09-10T16:21:48Z</time>
</trkpt>
<trkpt lat="48.055122" lon="10.58739">
<ele>559.482</ele>
<time>2020-09-10T16:21:49Z</time>
</trkpt>
<trkpt lat="48.055065" lon="10.587385">
<ele>559.482</ele>
<time>2020-09-10T16:21:50Z</time>
</trkpt>
<trkpt lat="48.055012" lon="10.587383">
<ele>559.482</ele>
<time>2020-09-10T16:21:51Z</time>
</trkpt>
<trkpt lat="48.054958" lon="10.587381">
<ele>559.482</ele>
<time>2020-09-10T16:21:52Z</time>
</trkpt>
<trkpt lat="48.054905" lon="10.587381">
<ele>559.482</ele>
<time>2020-09-10T16:21:53Z</time>
</trkpt>
<trkpt lat="48.054852" lon="10.587379">
<ele>559.482</ele>
<time>2020-09-10T16:21:54Z</time>
</trkpt>
<trkpt lat="48.054798" lon="10.587379">
<ele>559.482</ele>
<time>2020-09-10T16:21:55Z</time>
</trkpt>
<trkpt lat="48.054745" lon="10.587379">
<ele>559.482</ele>
<time>2020-09-10T16:21:56Z</time>
</trkpt>
<trkpt lat="48.054695" lon="10.587381">
<ele>559.482</ele>
<time>2020-09-10T16:21:57Z</time>
</trkpt>
<trkpt lat="48.054642" lon="10.587379">
<ele>559.482</ele>
<time>2020-09-10T16:21:58Z</time>
</trkpt>
<trkpt lat="48.054592" lon="10.587379">
<ele>559.482</ele>
<time>2020-09-10T16:21:59Z</time>
</trkpt>
<trkpt lat="48.054539" lon="10.587379">
<ele>559.482</ele>
<time>2020-09-10T16:22:00Z</time>
</trkpt>
<trkpt lat="48.054485" lon="10.587385">
<ele>559.482</ele>
<time>2020-09-10T16:22:01Z</time>
</trkpt>
<trkpt lat="48.054436" lon="10.58739">
<ele>559.482</ele>
<time>2020-09-10T16:22:02Z</time>
</trkpt>
<trkpt lat="48.054382" lon="10.587397">
<ele>559.482</ele>
<time>2020-09-10T16:22:03Z</time>
</trkpt>
<trkpt lat="48.054333" lon="10.587402">
<ele>559.482</ele>
<time>2020-09-10T16:22:04Z</time>
</trkpt>
<trkpt lat="48.054279" lon="10.587411">
<ele>559.482</ele>
<time>2020-09-10T16:22:05Z</time>
</trkpt>
<trkpt lat="48.054234" lon="10.587425">
<ele>559.482</ele>
<time>2020-09-10T16:22:06Z</time>
</trkpt>
<trkpt lat="48.054184" lon="10.587442">
<ele>559.699</ele>
<time>2020-09-10T16:22:07Z</time>
</trkpt>
<trkpt lat="48.054142" lon="10.58746">
<ele>559.869</ele>
<time>2020-09-10T16:22:08Z</time>
</trkpt>
<trkpt lat="48.0541" lon="10.587474">
<ele>559.99</ele>
<time>2020-09-10T16:22:09Z</time>
</trkpt>
<trkpt lat="48.05405" lon="10.58748">
<ele>560.117</ele>
<time>2020-09-10T16:22:10Z</time>
</trkpt>
<trkpt lat="48.054012" lon="10.587474">
<ele>560.216</ele>
<time>2020-09-10T16:22:11Z</time>
</trkpt>
<trkpt lat="48.05397" lon="10.587453">
<ele>560.287</ele>
<time>2020-09-10T16:22:12Z</time>
</trkpt>
<trkpt lat="48.053932" lon="10.587427">
<ele>560.335</ele>
<time>2020-09-10T16:22:13Z</time>
</trkpt>
<trkpt lat="48.053894" lon="10.587399">
<ele>560.359</ele>
<time>2020-09-10T16:22:14Z</time>
</trkpt>
<trkpt lat="48.053856" lon="10.587372">
<ele>560.359</ele>
<time>2020-09-10T16:22:15Z</time>
</trkpt>
<trkpt lat="48.053822" lon="10.587352">
<ele>560.359</ele>
<time>2020-09-10T16:22:16Z</time>
</trkpt>
<trkpt lat="48.05378" lon="10.587332">
<ele>560.359</ele>
<time>2020-09-10T16:22:17Z</time>
</trkpt>
<trkpt lat="48.053738" lon="10.587308">
<ele>560.359</ele>
<time>2020-09-10T16:22:18Z</time>
</trkpt>
<trkpt lat="48.053696" lon="10.587287">
<ele>560.593</ele>
<time>2020-09-10T16:22:19Z</time>
</trkpt>
<trkpt lat="48.053654" lon="10.587265">
<ele>560.816</ele>
<time>2020-09-10T16:22:20Z</time>
</trkpt>
<trkpt lat="48.053604" lon="10.587239">
<ele>561.003</ele>
<time>2020-09-10T16:22:21Z</time>
</trkpt>
<trkpt lat="48.053558" lon="10.587216">
<ele>561.149</ele>
<time>2020-09-10T16:22:22Z</time>
</trkpt>
<trkpt lat="48.053516" lon="10.587192">
<ele>561.261</ele>
<time>2020-09-10T16:22:23Z</time>
</trkpt>
<trkpt lat="48.053471" lon="10.587165">
<ele>561.329</ele>
<time>2020-09-10T16:22:24Z</time>
</trkpt>
<trkpt lat="48.053432" lon="10.587136">
<ele>561.666</ele>
<time>2020-09-10T16:22:25Z</time>
</trkpt>
<trkpt lat="48.053398" lon="10.58711">
<ele>561.922</ele>
<time>2020-09-10T16:22:26Z</time>
</trkpt>
<trkpt lat="48.053356" lon="10.587087">
<ele>562.121</ele>
<time>2020-09-10T16:22:27Z</time>
</trkpt>
<trkpt lat="48.053314" lon="10.587063">
<ele>562.256</ele>
<time>2020-09-10T16:22:28Z</time>
</trkpt>
<trkpt lat="48.053272" lon="10.58704">
<ele>562.351</ele>
<time>2020-09-10T16:22:29Z</time>
</trkpt>
<trkpt lat="48.053234" lon="10.587019">
<ele>562.452</ele>
<time>2020-09-10T16:22:30Z</time>
</trkpt>
<trkpt lat="48.053192" lon="10.586996">
<ele>562.519</ele>
<time>2020-09-10T16:22:31Z</time>
</trkpt>
<trkpt lat="48.05315" lon="10.586977">
<ele>562.848</ele>
<time>2020-09-10T16:22:32Z</time>
</trkpt>
<trkpt lat="48.053112" lon="10.586954">
<ele>563.185</ele>
<time>2020-09-10T16:22:33Z</time>
</trkpt>
<trkpt lat="48.05307" lon="10.586931">
<ele>563.165</ele>
<time>2020-09-10T16:22:34Z</time>
</trkpt>
<trkpt lat="48.053032" lon="10.586912">
<ele>563.14</ele>
<time>2020-09-10T16:22:35Z</time>
</trkpt>
<trkpt lat="48.052986" lon="10.586888">
<ele>563.112</ele>
<time>2020-09-10T16:22:36Z</time>
</trkpt>
<trkpt lat="48.05294" lon="10.586864">
<ele>563.075</ele>
<time>2020-09-10T16:22:37Z</time>
</trkpt>
<trkpt lat="48.052895" lon="10.586835">
<ele>563.034</ele>
<time>2020-09-10T16:22:38Z</time>
</trkpt>
<trkpt lat="48.052845" lon="10.586807">
<ele>562.998</ele>
<time>2020-09-10T16:22:39Z</time>
</trkpt>
<trkpt lat="48.052792" lon="10.586779">
<ele>562.968</ele>
<time>2020-09-10T16:22:40Z</time>
</trkpt>
<trkpt lat="48.052738" lon="10.586748">
<ele>562.924</ele>
<time>2020-09-10T16:22:41Z</time>
</trkpt>
<trkpt lat="48.052681" lon="10.586717">
<ele>562.629</ele>
<time>2020-09-10T16:22:42Z</time>
</trkpt>
<trkpt lat="48.052628" lon="10.586685">
<ele>562.334</ele>
<time>2020-09-10T16:22:43Z</time>
</trkpt>
<trkpt lat="48.05257" lon="10.58665">
<ele>562.159</ele>
<time>2020-09-10T16:22:44Z</time>
</trkpt>
<trkpt lat="48.052509" lon="10.586613">
<ele>562.038</ele>
<time>2020-09-10T16:22:45Z</time>
</trkpt>
<trkpt lat="48.052448" lon="10.586576">
<ele>561.971</ele>
<time>2020-09-10T16:22:46Z</time>
</trkpt>
<trkpt lat="48.052387" lon="10.586539">
<ele>561.66</ele>
<time>2020-09-10T16:22:47Z</time>
</trkpt>
<trkpt lat="48.052326" lon="10.586505">
<ele>561.433</ele>
<time>2020-09-10T16:22:48Z</time>
</trkpt>
<trkpt lat="48.052265" lon="10.58647">
<ele>561.277</ele>
<time>2020-09-10T16:22:49Z</time>
</trkpt>
<trkpt lat="48.052204" lon="10.586436">
<ele>561.138</ele>
<time>2020-09-10T16:22:50Z</time>
</trkpt>
<trkpt lat="48.052143" lon="10.586405">
<ele>561.033</ele>
<time>2020-09-10T16:22:51Z</time>
</trkpt>
<trkpt lat="48.052086" lon="10.586373">
<ele>560.958</ele>
<time>2020-09-10T16:22:52Z</time>
</trkpt>
<trkpt lat="48.052021" lon="10.586343">
<ele>560.91</ele>
<time>2020-09-10T16:22:53Z</time>
</trkpt>
<trkpt lat="48.051964" lon="10.586315">
<ele>560.885</ele>
<time>2020-09-10T16:22:54Z</time>
</trkpt>
<trkpt lat="48.051903" lon="10.586286">
<ele>560.885</ele>
<time>2020-09-10T16:22:55Z</time>
</trkpt>
<trkpt lat="48.051846" lon="10.586259">
<ele>560.885</ele>
<time>2020-09-10T16:22:56Z</time>
</trkpt>
<trkpt lat="48.051785" lon="10.586235">
<ele>560.885</ele>
<time>2020-09-10T16:22:57Z</time>
</trkpt>
<trkpt lat="48.051727" lon="10.586212">
<ele>560.885</ele>
<time>2020-09-10T16:22:58Z</time>
</trkpt>
<trkpt lat="48.05167" lon="10.586187">
<ele>560.885</ele>
<time>2020-09-10T16:22:59Z</time>
</trkpt>
<trkpt lat="48.051605" lon="10.586164">
<ele>560.885</ele>
<time>2020-09-10T16:23:00Z</time>
</trkpt>
<trkpt lat="48.051552" lon="10.586143">
<ele>560.885</ele>
<time>2020-09-10T16:23:01Z</time>
</trkpt>
<trkpt lat="48.051495" lon="10.586122">
<ele>560.885</ele>
<time>2020-09-10T16:23:02Z</time>
</trkpt>
<trkpt lat="48.051437" lon="10.5861">
<ele>560.885</ele>
<time>2020-09-10T16:23:03Z</time>
</trkpt>
<trkpt lat="48.051376" lon="10.586079">
<ele>560.885</ele>
<time>2020-09-10T16:23:04Z</time>
</trkpt>
<trkpt lat="48.051319" lon="10.586058">
<ele>560.885</ele>
<time>2020-09-10T16:23:05Z</time>
</trkpt>
<trkpt lat="48.051262" lon="10.586039">
<ele>560.885</ele>
<time>2020-09-10T16:23:06Z</time>
</trkpt>
<trkpt lat="48.051205" lon="10.58602">
<ele>560.885</ele>
<time>2020-09-10T16:23:07Z</time>
</trkpt>
<trkpt lat="48.051147" lon="10.586">
<ele>560.885</ele>
<time>2020-09-10T16:23:08Z</time>
</trkpt>
<trkpt lat="48.051083" lon="10.58598">
<ele>560.885</ele>
<time>2020-09-10T16:23:09Z</time>
</trkpt>
<trkpt lat="48.051025" lon="10.58596">
<ele>561.12</ele>
<time>2020-09-10T16:23:10Z</time>
</trkpt>
<trkpt lat="48.050968" lon="10.585942">
<ele>561.318</ele>
<time>2020-09-10T16:23:11Z</time>
</trkpt>
<trkpt lat="48.050907" lon="10.585921">
<ele>561.481</ele>
<time>2020-09-10T16:23:12Z</time>
</trkpt>
<trkpt lat="48.050846" lon="10.585903">
<ele>561.611</ele>
<time>2020-09-10T16:23:13Z</time>
</trkpt>
<trkpt lat="48.050789" lon="10.585885">
<ele>561.71</ele>
<time>2020-09-10T16:23:14Z</time>
</trkpt>
<trkpt lat="48.050724" lon="10.585871">
<ele>561.782</ele>
<time>2020-09-10T16:23:15Z</time>
</trkpt>
<trkpt lat="48.050667" lon="10.585852">
<ele>561.828</ele>
<time>2020-09-10T16:23:16Z</time>
</trkpt>
<trkpt lat="48.05061" lon="10.585835">
<ele>561.85</ele>
<time>2020-09-10T16:23:17Z</time>
</trkpt>
<trkpt lat="48.050549" lon="10.585818">
<ele>561.85</ele>
<time>2020-09-10T16:23:18Z</time>
</trkpt>
<trkpt lat="48.050488" lon="10.5858">
<ele>561.85</ele>
<time>2020-09-10T16:23:19Z</time>
</trkpt>
<trkpt lat="48.05043" lon="10.585783">
<ele>561.85</ele>
<time>2020-09-10T16:23:20Z</time>
</trkpt>
<trkpt lat="48.050369" lon="10.585767">
<ele>561.85</ele>
<time>2020-09-10T16:23:21Z</time>
</trkpt>
<trkpt lat="48.050308" lon="10.585748">
<ele>561.85</ele>
<time>2020-09-10T16:23:22Z</time>
</trkpt>
<trkpt lat="48.050251" lon="10.585731">
<ele>561.85</ele>
<time>2020-09-10T16:23:23Z</time>
</trkpt>
<trkpt lat="48.050194" lon="10.585713">
<ele>561.85</ele>
<time>2020-09-10T16:23:24Z</time>
</trkpt>
<trkpt lat="48.050137" lon="10.585697">
<ele>561.85</ele>
<time>2020-09-10T16:23:25Z</time>
</trkpt>
<trkpt lat="48.050076" lon="10.58568">
<ele>561.85</ele>
<time>2020-09-10T16:23:26Z</time>
</trkpt>
<trkpt lat="48.050018" lon="10.585664">
<ele>561.85</ele>
<time>2020-09-10T16:23:27Z</time>
</trkpt>
<trkpt lat="48.049961" lon="10.585645">
<ele>561.85</ele>
<time>2020-09-10T16:23:28Z</time>
</trkpt>
<trkpt lat="48.049904" lon="10.585627">
<ele>561.85</ele>
<time>2020-09-10T16:23:29Z</time>
</trkpt>
<trkpt lat="48.049843" lon="10.585608">
<ele>561.85</ele>
<time>2020-09-10T16:23:30Z</time>
</trkpt>
<trkpt lat="48.049789" lon="10.58559">
<ele>561.85</ele>
<time>2020-09-10T16:23:31Z</time>
</trkpt>
<trkpt lat="48.049732" lon="10.585573">
<ele>561.85</ele>
<time>2020-09-10T16:23:32Z</time>
</trkpt>
<trkpt lat="48.049679" lon="10.585555">
<ele>561.85</ele>
<time>2020-09-10T16:23:33Z</time>
</trkpt>
<trkpt lat="48.049618" lon="10.585536">
<ele>561.85</ele>
<time>2020-09-10T16:23:34Z</time>
</trkpt>
<trkpt lat="48.049564" lon="10.58552">
<ele>561.85</ele>
<time>2020-09-10T16:23:35Z</time>
</trkpt>
<trkpt lat="48.049511" lon="10.585505">
<ele>561.85</ele>
<time>2020-09-10T16:23:36Z</time>
</trkpt>
<trkpt lat="48.049454" lon="10.58549">
<ele>561.85</ele>
<time>2020-09-10T16:23:37Z</time>
</trkpt>
<trkpt lat="48.049397" lon="10.585471">
<ele>561.849</ele>
<time>2020-09-10T16:23:38Z</time>
</trkpt>
<trkpt lat="48.049339" lon="10.585454">
<ele>561.85</ele>
<time>2020-09-10T16:23:39Z</time>
</trkpt>
<trkpt lat="48.049286" lon="10.585437">
<ele>561.85</ele>
<time>2020-09-10T16:23:40Z</time>
</trkpt>
<trkpt lat="48.049225" lon="10.585423">
<ele>561.85</ele>
<time>2020-09-10T16:23:41Z</time>
</trkpt>
<trkpt lat="48.049168" lon="10.585406">
<ele>561.85</ele>
<time>2020-09-10T16:23:42Z</time>
</trkpt>
<trkpt lat="48.049114" lon="10.585389">
<ele>561.85</ele>
<time>2020-09-10T16:23:43Z</time>
</trkpt>
<trkpt lat="48.049057" lon="10.585375">
<ele>562.089</ele>
<time>2020-09-10T16:23:44Z</time>
</trkpt>
<trkpt lat="48.048996" lon="10.58536">
<ele>562.275</ele>
<time>2020-09-10T16:23:45Z</time>
</trkpt>
<trkpt lat="48.048943" lon="10.585343">
<ele>562.418</ele>
<time>2020-09-10T16:23:46Z</time>
</trkpt>
<trkpt lat="48.048885" lon="10.585326">
<ele>562.523</ele>
<time>2020-09-10T16:23:47Z</time>
</trkpt>
<trkpt lat="48.048828" lon="10.585308">
<ele>562.6</ele>
<time>2020-09-10T16:23:48Z</time>
</trkpt>
<trkpt lat="48.048767" lon="10.58529">
<ele>562.653</ele>
<time>2020-09-10T16:23:49Z</time>
</trkpt>
<trkpt lat="48.048714" lon="10.585274">
<ele>562.703</ele>
<time>2020-09-10T16:23:50Z</time>
</trkpt>
<trkpt lat="48.04866" lon="10.585257">
<ele>562.727</ele>
<time>2020-09-10T16:23:51Z</time>
</trkpt>
<trkpt lat="48.048603" lon="10.58524">
<ele>562.727</ele>
<time>2020-09-10T16:23:52Z</time>
</trkpt>
<trkpt lat="48.048542" lon="10.585221">
<ele>562.727</ele>
<time>2020-09-10T16:23:53Z</time>
</trkpt>
<trkpt lat="48.048485" lon="10.585205">
<ele>562.727</ele>
<time>2020-09-10T16:23:54Z</time>
</trkpt>
<trkpt lat="48.048428" lon="10.585186">
<ele>562.727</ele>
<time>2020-09-10T16:23:55Z</time>
</trkpt>
<trkpt lat="48.04837" lon="10.58517">
<ele>562.727</ele>
<time>2020-09-10T16:23:56Z</time>
</trkpt>
<trkpt lat="48.048313" lon="10.585152">
<ele>562.727</ele>
<time>2020-09-10T16:23:57Z</time>
</trkpt>
<trkpt lat="48.048252" lon="10.585135">
<ele>562.727</ele>
<time>2020-09-10T16:23:58Z</time>
</trkpt>
<trkpt lat="48.048195" lon="10.58512">
<ele>562.727</ele>
<time>2020-09-10T16:23:59Z</time>
</trkpt>
<trkpt lat="48.048138" lon="10.585102">
<ele>562.727</ele>
<time>2020-09-10T16:24:00Z</time>
</trkpt>
<trkpt lat="48.04808" lon="10.585085">
<ele>562.727</ele>
<time>2020-09-10T16:24:01Z</time>
</trkpt>
<trkpt lat="48.048023" lon="10.585067">
<ele>562.727</ele>
<time>2020-09-10T16:24:02Z</time>
</trkpt>
<trkpt lat="48.047966" lon="10.58505">
<ele>562.727</ele>
<time>2020-09-10T16:24:03Z</time>
</trkpt>
<trkpt lat="48.047909" lon="10.585032">
<ele>562.727</ele>
<time>2020-09-10T16:24:04Z</time>
</trkpt>
<trkpt lat="48.047852" lon="10.585014">
<ele>562.727</ele>
<time>2020-09-10T16:24:05Z</time>
</trkpt>
<trkpt lat="48.047794" lon="10.584998">
<ele>562.727</ele>
<time>2020-09-10T16:24:06Z</time>
</trkpt>
<trkpt lat="48.047737" lon="10.584982">
<ele>562.727</ele>
<time>2020-09-10T16:24:07Z</time>
</trkpt>
<trkpt lat="48.04768" lon="10.584964">
<ele>562.727</ele>
<time>2020-09-10T16:24:08Z</time>
</trkpt>
<trkpt lat="48.047623" lon="10.584945">
<ele>562.727</ele>
<time>2020-09-10T16:24:09Z</time>
</trkpt>
<trkpt lat="48.047562" lon="10.584927">
<ele>562.727</ele>
<time>2020-09-10T16:24:10Z</time>
</trkpt>
<trkpt lat="48.047501" lon="10.584908">
<ele>562.727</ele>
<time>2020-09-10T16:24:11Z</time>
</trkpt>
<trkpt lat="48.047443" lon="10.584892">
<ele>562.727</ele>
<time>2020-09-10T16:24:12Z</time>
</trkpt>
<trkpt lat="48.047386" lon="10.584875">
<ele>562.727</ele>
<time>2020-09-10T16:24:13Z</time>
</trkpt>
<trkpt lat="48.047333" lon="10.584859">
<ele>562.727</ele>
<time>2020-09-10T16:24:14Z</time>
</trkpt>
<trkpt lat="48.047272" lon="10.58484">
<ele>562.727</ele>
<time>2020-09-10T16:24:15Z</time>
</trkpt>
<trkpt lat="48.047215" lon="10.584822">
<ele>562.727</ele>
<time>2020-09-10T16:24:16Z</time>
</trkpt>
<trkpt lat="48.047153" lon="10.584803">
<ele>562.727</ele>
<time>2020-09-10T16:24:17Z</time>
</trkpt>
<trkpt lat="48.047096" lon="10.584786">
<ele>562.727</ele>
<time>2020-09-10T16:24:18Z</time>
</trkpt>
<trkpt lat="48.047039" lon="10.584768">
<ele>562.727</ele>
<time>2020-09-10T16:24:19Z</time>
</trkpt>
<trkpt lat="48.046978" lon="10.584752">
<ele>562.727</ele>
<time>2020-09-10T16:24:20Z</time>
</trkpt>
<trkpt lat="48.046921" lon="10.584733">
<ele>562.727</ele>
<time>2020-09-10T16:24:21Z</time>
</trkpt>
<trkpt lat="48.046864" lon="10.584715">
<ele>562.727</ele>
<time>2020-09-10T16:24:22Z</time>
</trkpt>
<trkpt lat="48.046806" lon="10.584697">
<ele>562.727</ele>
<time>2020-09-10T16:24:23Z</time>
</trkpt>
<trkpt lat="48.046749" lon="10.584681">
<ele>562.989</ele>
<time>2020-09-10T16:24:24Z</time>
</trkpt>
<trkpt lat="48.046692" lon="10.584663">
<ele>563.194</ele>
<time>2020-09-10T16:24:25Z</time>
</trkpt>
<trkpt lat="48.046635" lon="10.584648">
<ele>563.351</ele>
<time>2020-09-10T16:24:26Z</time>
</trkpt>
<trkpt lat="48.046577" lon="10.584632">
<ele>563.467</ele>
<time>2020-09-10T16:24:27Z</time>
</trkpt>
<trkpt lat="48.04652" lon="10.584612">
<ele>563.549</ele>
<time>2020-09-10T16:24:28Z</time>
</trkpt>
<trkpt lat="48.046459" lon="10.584593">
<ele>563.61</ele>
<time>2020-09-10T16:24:29Z</time>
</trkpt>
<trkpt lat="48.046402" lon="10.584577">
<ele>563.665</ele>
<time>2020-09-10T16:24:30Z</time>
</trkpt>
<trkpt lat="48.046349" lon="10.584561">
<ele>563.692</ele>
<time>2020-09-10T16:24:31Z</time>
</trkpt>
<trkpt lat="48.046291" lon="10.584547">
<ele>563.692</ele>
<time>2020-09-10T16:24:32Z</time>
</trkpt>
<trkpt lat="48.04623" lon="10.584528">
<ele>563.692</ele>
<time>2020-09-10T16:24:33Z</time>
</trkpt>
<trkpt lat="48.046173" lon="10.584509">
<ele>563.691</ele>
<time>2020-09-10T16:24:34Z</time>
</trkpt>
<trkpt lat="48.046112" lon="10.584492">
<ele>563.691</ele>
<time>2020-09-10T16:24:35Z</time>
</trkpt>
<trkpt lat="48.046055" lon="10.584478">
<ele>563.692</ele>
<time>2020-09-10T16:24:36Z</time>
</trkpt>
<trkpt lat="48.045998" lon="10.584463">
<ele>563.692</ele>
<time>2020-09-10T16:24:37Z</time>
</trkpt>
<trkpt lat="48.045937" lon="10.58445">
<ele>563.692</ele>
<time>2020-09-10T16:24:38Z</time>
</trkpt>
<trkpt lat="48.045879" lon="10.584436">
<ele>563.692</ele>
<time>2020-09-10T16:24:39Z</time>
</trkpt>
<trkpt lat="48.045822" lon="10.584419">
<ele>563.692</ele>
<time>2020-09-10T16:24:40Z</time>
</trkpt>
<trkpt lat="48.045761" lon="10.584403">
<ele>563.691</ele>
<time>2020-09-10T16:24:41Z</time>
</trkpt>
<trkpt lat="48.045704" lon="10.584383">
<ele>563.691</ele>
<time>2020-09-10T16:24:42Z</time>
</trkpt>
<trkpt lat="48.045643" lon="10.58436">
<ele>563.691</ele>
<time>2020-09-10T16:24:43Z</time>
</trkpt>
<trkpt lat="48.045586" lon="10.584335">
<ele>563.692</ele>
<time>2020-09-10T16:24:44Z</time>
</trkpt>
<trkpt lat="48.045532" lon="10.584309">
<ele>563.691</ele>
<time>2020-09-10T16:24:45Z</time>
</trkpt>
<trkpt lat="48.045475" lon="10.584278">
<ele>563.692</ele>
<time>2020-09-10T16:24:46Z</time>
</trkpt>
<trkpt lat="48.045418" lon="10.584245">
<ele>563.692</ele>
<time>2020-09-10T16:24:47Z</time>
</trkpt>
<trkpt lat="48.045368" lon="10.584208">
<ele>563.692</ele>
<time>2020-09-10T16:24:48Z</time>
</trkpt>
<trkpt lat="48.045311" lon="10.584171">
<ele>563.692</ele>
<time>2020-09-10T16:24:49Z</time>
</trkpt>
<trkpt lat="48.045261" lon="10.584134">
<ele>563.692</ele>
<time>2020-09-10T16:24:50Z</time>
</trkpt>
<trkpt lat="48.045208" lon="10.584094">
<ele>563.692</ele>
<time>2020-09-10T16:24:51Z</time>
</trkpt>
<trkpt lat="48.045155" lon="10.584053">
<ele>563.691</ele>
<time>2020-09-10T16:24:52Z</time>
</trkpt>
<trkpt lat="48.045101" lon="10.584013">
<ele>563.692</ele>
<time>2020-09-10T16:24:53Z</time>
</trkpt>
<trkpt lat="48.045052" lon="10.583973">
<ele>563.691</ele>
<time>2020-09-10T16:24:54Z</time>
</trkpt>
<trkpt lat="48.044994" lon="10.583931">
<ele>563.692</ele>
<time>2020-09-10T16:24:55Z</time>
</trkpt>
<trkpt lat="48.044945" lon="10.58389">
<ele>563.691</ele>
<time>2020-09-10T16:24:56Z</time>
</trkpt>
<trkpt lat="48.044888" lon="10.58385">
<ele>563.692</ele>
<time>2020-09-10T16:24:57Z</time>
</trkpt>
<trkpt lat="48.044838" lon="10.583814">
<ele>563.691</ele>
<time>2020-09-10T16:24:58Z</time>
</trkpt>
<trkpt lat="48.044785" lon="10.583776">
<ele>563.692</ele>
<time>2020-09-10T16:24:59Z</time>
</trkpt>
<trkpt lat="48.044731" lon="10.58374">
<ele>563.692</ele>
<time>2020-09-10T16:25:00Z</time>
</trkpt>
<trkpt lat="48.044682" lon="10.583705">
<ele>564.03</ele>
<time>2020-09-10T16:25:01Z</time>
</trkpt>
<trkpt lat="48.044628" lon="10.583672">
<ele>564.292</ele>
<time>2020-09-10T16:25:02Z</time>
</trkpt>
<trkpt lat="48.044579" lon="10.583638">
<ele>564.491</ele>
<time>2020-09-10T16:25:03Z</time>
</trkpt>
<trkpt lat="48.044529" lon="10.583607">
<ele>564.636</ele>
<time>2020-09-10T16:25:04Z</time>
</trkpt>
<trkpt lat="48.044483" lon="10.583577">
<ele>564.738</ele>
<time>2020-09-10T16:25:05Z</time>
</trkpt>
<trkpt lat="48.044434" lon="10.583547">
<ele>564.798</ele>
<time>2020-09-10T16:25:06Z</time>
</trkpt>
<trkpt lat="48.044384" lon="10.583516">
<ele>564.832</ele>
<time>2020-09-10T16:25:07Z</time>
</trkpt>
<trkpt lat="48.044334" lon="10.583488">
<ele>564.832</ele>
<time>2020-09-10T16:25:08Z</time>
</trkpt>
<trkpt lat="48.044285" lon="10.583462">
<ele>564.832</ele>
<time>2020-09-10T16:25:09Z</time>
</trkpt>
<trkpt lat="48.044235" lon="10.583433">
<ele>564.832</ele>
<time>2020-09-10T16:25:10Z</time>
</trkpt>
<trkpt lat="48.044186" lon="10.583406">
<ele>564.832</ele>
<time>2020-09-10T16:25:11Z</time>
</trkpt>
<trkpt lat="48.044136" lon="10.583378">
<ele>564.832</ele>
<time>2020-09-10T16:25:12Z</time>
</trkpt>
<trkpt lat="48.044086" lon="10.58335">
<ele>564.832</ele>
<time>2020-09-10T16:25:13Z</time>
</trkpt>
<trkpt lat="48.044037" lon="10.58332">
<ele>564.832</ele>
<time>2020-09-10T16:25:14Z</time>
</trkpt>
<trkpt lat="48.043987" lon="10.58329">
<ele>564.832</ele>
<time>2020-09-10T16:25:15Z</time>
</trkpt>
<trkpt lat="48.043938" lon="10.583262">
<ele>564.832</ele>
<time>2020-09-10T16:25:16Z</time>
</trkpt>
<trkpt lat="48.043884" lon="10.583233">
<ele>564.832</ele>
<time>2020-09-10T16:25:17Z</time>
</trkpt>
<trkpt lat="48.043839" lon="10.583205">
<ele>564.832</ele>
<time>2020-09-10T16:25:18Z</time>
</trkpt>
<trkpt lat="48.043789" lon="10.583177">
<ele>564.832</ele>
<time>2020-09-10T16:25:19Z</time>
</trkpt>
<trkpt lat="48.043739" lon="10.583147">
<ele>564.832</ele>
<time>2020-09-10T16:25:20Z</time>
</trkpt>
<trkpt lat="48.04369" lon="10.583117">
<ele>564.832</ele>
<time>2020-09-10T16:25:21Z</time>
</trkpt>
<trkpt lat="48.043644" lon="10.583089">
<ele>565.109</ele>
<time>2020-09-10T16:25:22Z</time>
</trkpt>
<trkpt lat="48.043594" lon="10.583056">
<ele>565.324</ele>
<time>2020-09-10T16:25:23Z</time>
</trkpt>
<trkpt lat="48.043545" lon="10.583025">
<ele>565.488</ele>
<time>2020-09-10T16:25:24Z</time>
</trkpt>
<trkpt lat="48.043495" lon="10.582994">
<ele>565.609</ele>
<time>2020-09-10T16:25:25Z</time>
</trkpt>
<trkpt lat="48.043446" lon="10.582967">
<ele>565.693</ele>
<time>2020-09-10T16:25:26Z</time>
</trkpt>
<trkpt lat="48.043392" lon="10.582938">
<ele>565.746</ele>
<time>2020-09-10T16:25:27Z</time>
</trkpt>
<trkpt lat="48.043346" lon="10.582911">
<ele>565.774</ele>
<time>2020-09-10T16:25:28Z</time>
</trkpt>
<trkpt lat="48.043297" lon="10.582883">
<ele>565.797</ele>
<time>2020-09-10T16:25:29Z</time>
</trkpt>
<trkpt lat="48.043247" lon="10.58286">
<ele>565.797</ele>
<time>2020-09-10T16:25:30Z</time>
</trkpt>
<trkpt lat="48.043201" lon="10.582838">
<ele>565.797</ele>
<time>2020-09-10T16:25:31Z</time>
</trkpt>
<trkpt lat="48.043159" lon="10.582816">
<ele>565.797</ele>
<time>2020-09-10T16:25:32Z</time>
</trkpt>
<trkpt lat="48.043118" lon="10.582795">
<ele>565.797</ele>
<time>2020-09-10T16:25:33Z</time>
</trkpt>
<trkpt lat="48.043076" lon="10.582768">
<ele>565.797</ele>
<time>2020-09-10T16:25:34Z</time>
</trkpt>
<trkpt lat="48.043037" lon="10.582745">
<ele>565.797</ele>
<time>2020-09-10T16:25:35Z</time>
</trkpt>
<trkpt lat="48.043007" lon="10.582725">
<ele>565.797</ele>
<time>2020-09-10T16:25:36Z</time>
</trkpt>
<trkpt lat="48.04298" lon="10.582708">
<ele>565.797</ele>
<time>2020-09-10T16:25:37Z</time>
</trkpt>
<trkpt lat="48.042957" lon="10.582695">
<ele>565.797</ele>
<time>2020-09-10T16:25:38Z</time>
</trkpt>
<trkpt lat="48.042931" lon="10.58268">
<ele>566.01</ele>
<time>2020-09-10T16:25:39Z</time>
</trkpt>
<trkpt lat="48.0429" lon="10.582664">
<ele>566.214</ele>
<time>2020-09-10T16:25:40Z</time>
</trkpt>
<trkpt lat="48.04287" lon="10.582644">
<ele>566.391</ele>
<time>2020-09-10T16:25:41Z</time>
</trkpt>
<trkpt lat="48.042835" lon="10.582628">
<ele>566.546</ele>
<time>2020-09-10T16:25:42Z</time>
</trkpt>
<trkpt lat="48.042801" lon="10.582613">
<ele>566.675</ele>
<time>2020-09-10T16:25:43Z</time>
</trkpt>
<trkpt lat="48.042759" lon="10.582599">
<ele>566.77</ele>
<time>2020-09-10T16:25:44Z</time>
</trkpt>
<trkpt lat="48.042721" lon="10.582585">
<ele>566.826</ele>
<time>2020-09-10T16:25:45Z</time>
</trkpt>
<trkpt lat="48.042686" lon="10.58258">
<ele>566.849</ele>
<time>2020-09-10T16:25:46Z</time>
</trkpt>
<trkpt lat="48.042645" lon="10.58258">
<ele>566.849</ele>
<time>2020-09-10T16:25:47Z</time>
</trkpt>
<trkpt lat="48.042606" lon="10.58258">
<ele>566.849</ele>
<time>2020-09-10T16:25:48Z</time>
</trkpt>
<trkpt lat="48.042564" lon="10.582573">
<ele>566.849</ele>
<time>2020-09-10T16:25:49Z</time>
</trkpt>
<trkpt lat="48.042526" lon="10.582567">
<ele>566.849</ele>
<time>2020-09-10T16:25:50Z</time>
</trkpt>
<trkpt lat="48.04248" lon="10.582559">
<ele>566.849</ele>
<time>2020-09-10T16:25:51Z</time>
</trkpt>
<trkpt lat="48.042442" lon="10.582548">
<ele>566.849</ele>
<time>2020-09-10T16:25:52Z</time>
</trkpt>
<trkpt lat="48.042404" lon="10.582545">
<ele>566.849</ele>
<time>2020-09-10T16:25:53Z</time>
</trkpt>
<trkpt lat="48.042355" lon="10.582541">
<ele>566.849</ele>
<time>2020-09-10T16:25:54Z</time>
</trkpt>
<trkpt lat="48.042309" lon="10.58253">
<ele>566.849</ele>
<time>2020-09-10T16:25:55Z</time>
</trkpt>
<trkpt lat="48.042252" lon="10.582521">
<ele>566.849</ele>
<time>2020-09-10T16:25:56Z</time>
</trkpt>
<trkpt lat="48.042191" lon="10.582501">
<ele>566.849</ele>
<time>2020-09-10T16:25:57Z</time>
</trkpt>
<trkpt lat="48.042133" lon="10.582477">
<ele>566.849</ele>
<time>2020-09-10T16:25:58Z</time>
</trkpt>
<trkpt lat="48.042065" lon="10.582462">
<ele>566.849</ele>
<time>2020-09-10T16:25:59Z</time>
</trkpt>
<trkpt lat="48.042011" lon="10.58246">
<ele>566.849</ele>
<time>2020-09-10T16:26:00Z</time>
</trkpt>
<trkpt lat="48.041931" lon="10.582443">
<ele>566.849</ele>
<time>2020-09-10T16:26:01Z</time>
</trkpt>
<trkpt lat="48.041874" lon="10.582407">
<ele>566.849</ele>
<time>2020-09-10T16:26:02Z</time>
</trkpt>
<trkpt lat="48.041824" lon="10.582366">
<ele>566.849</ele>
<time>2020-09-10T16:26:03Z</time>
</trkpt>
<trkpt lat="48.041779" lon="10.582328">
<ele>566.849</ele>
<time>2020-09-10T16:26:04Z</time>
</trkpt>
<trkpt lat="48.041725" lon="10.582285">
<ele>566.849</ele>
<time>2020-09-10T16:26:05Z</time>
</trkpt>
<trkpt lat="48.041691" lon="10.582238">
<ele>566.849</ele>
<time>2020-09-10T16:26:06Z</time>
</trkpt>
<trkpt lat="48.041653" lon="10.582187">
<ele>566.849</ele>
<time>2020-09-10T16:26:07Z</time>
</trkpt>
<trkpt lat="48.041622" lon="10.582129">
<ele>566.849</ele>
<time>2020-09-10T16:26:08Z</time>
</trkpt>
<trkpt lat="48.041595" lon="10.58206">
<ele>566.849</ele>
<time>2020-09-10T16:26:09Z</time>
</trkpt>
<trkpt lat="48.041565" lon="10.581997">
<ele>566.849</ele>
<time>2020-09-10T16:26:10Z</time>
</trkpt>
<trkpt lat="48.041531" lon="10.581941">
<ele>566.85</ele>
<time>2020-09-10T16:26:11Z</time>
</trkpt>
<trkpt lat="48.041496" lon="10.581882">
<ele>566.849</ele>
<time>2020-09-10T16:26:12Z</time>
</trkpt>
<trkpt lat="48.041477" lon="10.581821">
<ele>566.849</ele>
<time>2020-09-10T16:26:13Z</time>
</trkpt>
<trkpt lat="48.041462" lon="10.581762">
<ele>566.849</ele>
<time>2020-09-10T16:26:14Z</time>
</trkpt>
<trkpt lat="48.041443" lon="10.581701">
<ele>566.849</ele>
<time>2020-09-10T16:26:15Z</time>
</trkpt>
<trkpt lat="48.041428" lon="10.581641">
<ele>567.087</ele>
<time>2020-09-10T16:26:16Z</time>
</trkpt>
<trkpt lat="48.041401" lon="10.581582">
<ele>567.276</ele>
<time>2020-09-10T16:26:17Z</time>
</trkpt>
<trkpt lat="48.041382" lon="10.581518">
<ele>567.43</ele>
<time>2020-09-10T16:26:18Z</time>
</trkpt>
<trkpt lat="48.041359" lon="10.581456">
<ele>567.536</ele>
<time>2020-09-10T16:26:19Z</time>
</trkpt>
<trkpt lat="48.041336" lon="10.581393">
<ele>567.651</ele>
<time>2020-09-10T16:26:20Z</time>
</trkpt>
<trkpt lat="48.041313" lon="10.581333">
<ele>567.739</ele>
<time>2020-09-10T16:26:21Z</time>
</trkpt>
<trkpt lat="48.041286" lon="10.581275">
<ele>567.791</ele>
<time>2020-09-10T16:26:22Z</time>
</trkpt>
<trkpt lat="48.041256" lon="10.581217">
<ele>567.814</ele>
<time>2020-09-10T16:26:23Z</time>
</trkpt>
<trkpt lat="48.041225" lon="10.581161">
<ele>567.814</ele>
<time>2020-09-10T16:26:24Z</time>
</trkpt>
<trkpt lat="48.041191" lon="10.581107">
<ele>567.814</ele>
<time>2020-09-10T16:26:25Z</time>
</trkpt>
<trkpt lat="48.041157" lon="10.581054">
<ele>567.814</ele>
<time>2020-09-10T16:26:26Z</time>
</trkpt>
<trkpt lat="48.041119" lon="10.581002">
<ele>567.814</ele>
<time>2020-09-10T16:26:27Z</time>
</trkpt>
<trkpt lat="48.041077" lon="10.580954">
<ele>567.814</ele>
<time>2020-09-10T16:26:28Z</time>
</trkpt>
<trkpt lat="48.041039" lon="10.580907">
<ele>567.814</ele>
<time>2020-09-10T16:26:29Z</time>
</trkpt>
<trkpt lat="48.040993" lon="10.580862">
<ele>567.814</ele>
<time>2020-09-10T16:26:30Z</time>
</trkpt>
<trkpt lat="48.040947" lon="10.58082">
<ele>567.814</ele>
<time>2020-09-10T16:26:31Z</time>
</trkpt>
<trkpt lat="48.040905" lon="10.580778">
<ele>567.814</ele>
<time>2020-09-10T16:26:32Z</time>
</trkpt>
<trkpt lat="48.040859" lon="10.580736">
<ele>567.814</ele>
<time>2020-09-10T16:26:33Z</time>
</trkpt>
<trkpt lat="48.040813" lon="10.5807">
<ele>567.814</ele>
<time>2020-09-10T16:26:34Z</time>
</trkpt>
<trkpt lat="48.040771" lon="10.580665">
<ele>567.814</ele>
<time>2020-09-10T16:26:35Z</time>
</trkpt>
<trkpt lat="48.040726" lon="10.580631">
<ele>568.061</ele>
<time>2020-09-10T16:26:36Z</time>
</trkpt>
<trkpt lat="48.04068" lon="10.580598">
<ele>568.253</ele>
<time>2020-09-10T16:26:37Z</time>
</trkpt>
<trkpt lat="48.040634" lon="10.580564">
<ele>568.404</ele>
<time>2020-09-10T16:26:38Z</time>
</trkpt>
<trkpt lat="48.040588" lon="10.580533">
<ele>568.508</ele>
<time>2020-09-10T16:26:39Z</time>
</trkpt>
<trkpt lat="48.040546" lon="10.580502">
<ele>568.62</ele>
<time>2020-09-10T16:26:40Z</time>
</trkpt>
<trkpt lat="48.040501" lon="10.58047">
<ele>568.703</ele>
<time>2020-09-10T16:26:41Z</time>
</trkpt>
<trkpt lat="48.040455" lon="10.580439">
<ele>568.755</ele>
<time>2020-09-10T16:26:42Z</time>
</trkpt>
<trkpt lat="48.040409" lon="10.580409">
<ele>568.78</ele>
<time>2020-09-10T16:26:43Z</time>
</trkpt>
<trkpt lat="48.040363" lon="10.580376">
<ele>568.78</ele>
<time>2020-09-10T16:26:44Z</time>
</trkpt>
<trkpt lat="48.040318" lon="10.580338">
<ele>568.78</ele>
<time>2020-09-10T16:26:45Z</time>
</trkpt>
<trkpt lat="48.040268" lon="10.5803">
<ele>569.054</ele>
<time>2020-09-10T16:26:46Z</time>
</trkpt>
<trkpt lat="48.040222" lon="10.580262">
<ele>569.271</ele>
<time>2020-09-10T16:26:47Z</time>
</trkpt>
<trkpt lat="48.040176" lon="10.580216">
<ele>569.437</ele>
<time>2020-09-10T16:26:48Z</time>
</trkpt>
<trkpt lat="48.040127" lon="10.580173">
<ele>569.546</ele>
<time>2020-09-10T16:26:49Z</time>
</trkpt>
<trkpt lat="48.040089" lon="10.580129">
<ele>569.667</ele>
<time>2020-09-10T16:26:50Z</time>
</trkpt>
<trkpt lat="48.040047" lon="10.580078">
<ele>569.754</ele>
<time>2020-09-10T16:26:51Z</time>
</trkpt>
<trkpt lat="48.040009" lon="10.580026">
<ele>569.807</ele>
<time>2020-09-10T16:26:52Z</time>
</trkpt>
<trkpt lat="48.039974" lon="10.579973">
<ele>569.833</ele>
<time>2020-09-10T16:26:53Z</time>
</trkpt>
<trkpt lat="48.03994" lon="10.579917">
<ele>569.833</ele>
<time>2020-09-10T16:26:54Z</time>
</trkpt>
<trkpt lat="48.039906" lon="10.579858">
<ele>569.833</ele>
<time>2020-09-10T16:26:55Z</time>
</trkpt>
<trkpt lat="48.039875" lon="10.5798">
<ele>569.833</ele>
<time>2020-09-10T16:26:56Z</time>
</trkpt>
<trkpt lat="48.039845" lon="10.579741">
<ele>569.833</ele>
<time>2020-09-10T16:26:57Z</time>
</trkpt>
<trkpt lat="48.039818" lon="10.57968">
<ele>569.833</ele>
<time>2020-09-10T16:26:58Z</time>
</trkpt>
<trkpt lat="48.039791" lon="10.579617">
<ele>569.833</ele>
<time>2020-09-10T16:26:59Z</time>
</trkpt>
<trkpt lat="48.039768" lon="10.579554">
<ele>569.833</ele>
<time>2020-09-10T16:27:00Z</time>
</trkpt>
<trkpt lat="48.039745" lon="10.579489">
<ele>570.121</ele>
<time>2020-09-10T16:27:01Z</time>
</trkpt>
<trkpt lat="48.039722" lon="10.57942">
<ele>570.343</ele>
<time>2020-09-10T16:27:02Z</time>
</trkpt>
<trkpt lat="48.039703" lon="10.579349">
<ele>570.508</ele>
<time>2020-09-10T16:27:03Z</time>
</trkpt>
<trkpt lat="48.039673" lon="10.579268">
<ele>570.632</ele>
<time>2020-09-10T16:27:04Z</time>
</trkpt>
<trkpt lat="48.039654" lon="10.579196">
<ele>570.719</ele>
<time>2020-09-10T16:27:05Z</time>
</trkpt>
<trkpt lat="48.039635" lon="10.579128">
<ele>570.771</ele>
<time>2020-09-10T16:27:06Z</time>
</trkpt>
<trkpt lat="48.039612" lon="10.579063">
<ele>570.798</ele>
<time>2020-09-10T16:27:07Z</time>
</trkpt>
<trkpt lat="48.039593" lon="10.579">
<ele>570.798</ele>
<time>2020-09-10T16:27:08Z</time>
</trkpt>
<trkpt lat="48.039574" lon="10.578937">
<ele>570.798</ele>
<time>2020-09-10T16:27:09Z</time>
</trkpt>
<trkpt lat="48.039555" lon="10.578877">
<ele>570.798</ele>
<time>2020-09-10T16:27:10Z</time>
</trkpt>
<trkpt lat="48.039532" lon="10.578821">
<ele>570.798</ele>
<time>2020-09-10T16:27:11Z</time>
</trkpt>
<trkpt lat="48.039497" lon="10.578773">
<ele>570.798</ele>
<time>2020-09-10T16:27:12Z</time>
</trkpt>
<trkpt lat="48.039455" lon="10.578735">
<ele>570.798</ele>
<time>2020-09-10T16:27:13Z</time>
</trkpt>
<trkpt lat="48.039413" lon="10.57871">
<ele>570.798</ele>
<time>2020-09-10T16:27:14Z</time>
</trkpt>
<trkpt lat="48.039375" lon="10.578697">
<ele>570.798</ele>
<time>2020-09-10T16:27:15Z</time>
</trkpt>
<trkpt lat="48.039333" lon="10.578695">
<ele>570.798</ele>
<time>2020-09-10T16:27:16Z</time>
</trkpt>
<trkpt lat="48.039288" lon="10.578702">
<ele>570.798</ele>
<time>2020-09-10T16:27:17Z</time>
</trkpt>
<trkpt lat="48.039249" lon="10.578718">
<ele>570.798</ele>
<time>2020-09-10T16:27:18Z</time>
</trkpt>
<trkpt lat="48.039215" lon="10.57874">
<ele>570.798</ele>
<time>2020-09-10T16:27:19Z</time>
</trkpt>
<trkpt lat="48.039185" lon="10.578772">
<ele>570.798</ele>
<time>2020-09-10T16:27:20Z</time>
</trkpt>
<trkpt lat="48.03915" lon="10.578816">
<ele>570.798</ele>
<time>2020-09-10T16:27:21Z</time>
</trkpt>
<trkpt lat="48.03912" lon="10.578869">
<ele>570.798</ele>
<time>2020-09-10T16:27:22Z</time>
</trkpt>
<trkpt lat="48.039093" lon="10.578925">
<ele>570.798</ele>
<time>2020-09-10T16:27:23Z</time>
</trkpt>
<trkpt lat="48.039066" lon="10.578986">
<ele>570.798</ele>
<time>2020-09-10T16:27:24Z</time>
</trkpt>
<trkpt lat="48.03904" lon="10.579054">
<ele>570.798</ele>
<time>2020-09-10T16:27:25Z</time>
</trkpt>
<trkpt lat="48.039013" lon="10.579121">
<ele>570.798</ele>
<time>2020-09-10T16:27:26Z</time>
</trkpt>
<trkpt lat="48.038982" lon="10.579185">
<ele>570.798</ele>
<time>2020-09-10T16:27:27Z</time>
</trkpt>
<trkpt lat="48.038956" lon="10.579255">
<ele>570.798</ele>
<time>2020-09-10T16:27:28Z</time>
</trkpt>
<trkpt lat="48.038921" lon="10.579326">
<ele>570.798</ele>
<time>2020-09-10T16:27:29Z</time>
</trkpt>
<trkpt lat="48.038891" lon="10.579391">
<ele>570.798</ele>
<time>2020-09-10T16:27:30Z</time>
</trkpt>
<trkpt lat="48.038857" lon="10.579455">
<ele>570.798</ele>
<time>2020-09-10T16:27:31Z</time>
</trkpt>
<trkpt lat="48.038822" lon="10.57952">
<ele>570.798</ele>
<time>2020-09-10T16:27:32Z</time>
</trkpt>
<trkpt lat="48.038784" lon="10.579583">
<ele>570.798</ele>
<time>2020-09-10T16:27:33Z</time>
</trkpt>
<trkpt lat="48.038738" lon="10.57964">
<ele>570.798</ele>
<time>2020-09-10T16:27:34Z</time>
</trkpt>
<trkpt lat="48.038696" lon="10.579695">
<ele>570.798</ele>
<time>2020-09-10T16:27:35Z</time>
</trkpt>
<trkpt lat="48.038654" lon="10.579747">
<ele>570.798</ele>
<time>2020-09-10T16:27:36Z</time>
</trkpt>
<trkpt lat="48.038609" lon="10.579799">
<ele>570.798</ele>
<time>2020-09-10T16:27:37Z</time>
</trkpt>
<trkpt lat="48.038563" lon="10.579848">
<ele>570.798</ele>
<time>2020-09-10T16:27:38Z</time>
</trkpt>
<trkpt lat="48.038521" lon="10.579896">
<ele>570.798</ele>
<time>2020-09-10T16:27:39Z</time>
</trkpt>
<trkpt lat="48.038483" lon="10.579946">
<ele>570.798</ele>
<time>2020-09-10T16:27:40Z</time>
</trkpt>
<trkpt lat="48.038441" lon="10.579996">
<ele>570.798</ele>
<time>2020-09-10T16:27:41Z</time>
</trkpt>
<trkpt lat="48.038403" lon="10.580042">
<ele>570.798</ele>
<time>2020-09-10T16:27:42Z</time>
</trkpt>
<trkpt lat="48.038357" lon="10.580095">
<ele>570.798</ele>
<time>2020-09-10T16:27:43Z</time>
</trkpt>
<trkpt lat="48.038311" lon="10.580143">
<ele>570.798</ele>
<time>2020-09-10T16:27:44Z</time>
</trkpt>
<trkpt lat="48.038269" lon="10.580187">
<ele>570.798</ele>
<time>2020-09-10T16:27:45Z</time>
</trkpt>
<trkpt lat="48.038231" lon="10.580223">
<ele>570.798</ele>
<time>2020-09-10T16:27:46Z</time>
</trkpt>
<trkpt lat="48.038193" lon="10.580254">
<ele>570.798</ele>
<time>2020-09-10T16:27:47Z</time>
</trkpt>
<trkpt lat="48.038147" lon="10.580283">
<ele>570.798</ele>
<time>2020-09-10T16:27:48Z</time>
</trkpt>
<trkpt lat="48.038105" lon="10.580302">
<ele>570.798</ele>
<time>2020-09-10T16:27:49Z</time>
</trkpt>
<trkpt lat="48.038063" lon="10.580294">
<ele>570.798</ele>
<time>2020-09-10T16:27:50Z</time>
</trkpt>
<trkpt lat="48.038025" lon="10.580262">
<ele>570.798</ele>
<time>2020-09-10T16:27:51Z</time>
</trkpt>
<trkpt lat="48.038006" lon="10.580216">
<ele>570.798</ele>
<time>2020-09-10T16:27:52Z</time>
</trkpt>
<trkpt lat="48.037983" lon="10.580167">
<ele>570.798</ele>
<time>2020-09-10T16:27:53Z</time>
</trkpt>
<trkpt lat="48.037968" lon="10.58011">
<ele>570.798</ele>
<time>2020-09-10T16:27:54Z</time>
</trkpt>
<trkpt lat="48.037952" lon="10.580049">
<ele>570.798</ele>
<time>2020-09-10T16:27:55Z</time>
</trkpt>
<trkpt lat="48.037937" lon="10.579984">
<ele>570.798</ele>
<time>2020-09-10T16:27:56Z</time>
</trkpt>
<trkpt lat="48.03791" lon="10.579931">
<ele>570.798</ele>
<time>2020-09-10T16:27:57Z</time>
</trkpt>
<trkpt lat="48.037876" lon="10.579896">
<ele>570.798</ele>
<time>2020-09-10T16:27:58Z</time>
</trkpt>
<trkpt lat="48.037834" lon="10.57987">
<ele>570.798</ele>
<time>2020-09-10T16:27:59Z</time>
</trkpt>
<trkpt lat="48.037788" lon="10.579847">
<ele>570.798</ele>
<time>2020-09-10T16:28:00Z</time>
</trkpt>
<trkpt lat="48.037746" lon="10.579823">
<ele>570.798</ele>
<time>2020-09-10T16:28:01Z</time>
</trkpt>
<trkpt lat="48.037704" lon="10.579797">
<ele>570.798</ele>
<time>2020-09-10T16:28:02Z</time>
</trkpt>
<trkpt lat="48.037659" lon="10.579777">
<ele>570.798</ele>
<time>2020-09-10T16:28:03Z</time>
</trkpt>
<trkpt lat="48.037613" lon="10.57976">
<ele>570.798</ele>
<time>2020-09-10T16:28:04Z</time>
</trkpt>
<trkpt lat="48.037567" lon="10.579745">
<ele>570.798</ele>
<time>2020-09-10T16:28:05Z</time>
</trkpt>
<trkpt lat="48.037521" lon="10.579728">
<ele>570.798</ele>
<time>2020-09-10T16:28:06Z</time>
</trkpt>
<trkpt lat="48.037472" lon="10.579715">
<ele>570.798</ele>
<time>2020-09-10T16:28:07Z</time>
</trkpt>
<trkpt lat="48.037422" lon="10.579703">
<ele>570.798</ele>
<time>2020-09-10T16:28:08Z</time>
</trkpt>
<trkpt lat="48.03738" lon="10.57969">
<ele>570.798</ele>
<time>2020-09-10T16:28:09Z</time>
</trkpt>
<trkpt lat="48.037331" lon="10.579674">
<ele>570.798</ele>
<time>2020-09-10T16:28:10Z</time>
</trkpt>
<trkpt lat="48.037289" lon="10.579657">
<ele>570.798</ele>
<time>2020-09-10T16:28:11Z</time>
</trkpt>
<trkpt lat="48.037243" lon="10.579637">
<ele>570.798</ele>
<time>2020-09-10T16:28:12Z</time>
</trkpt>
<trkpt lat="48.037193" lon="10.579617">
<ele>571.069</ele>
<time>2020-09-10T16:28:13Z</time>
</trkpt>
<trkpt lat="48.037144" lon="10.579597">
<ele>571.279</ele>
<time>2020-09-10T16:28:14Z</time>
</trkpt>
<trkpt lat="48.037098" lon="10.579578">
<ele>571.44</ele>
<time>2020-09-10T16:28:15Z</time>
</trkpt>
<trkpt lat="48.037045" lon="10.579563">
<ele>571.56</ele>
<time>2020-09-10T16:28:16Z</time>
</trkpt>
<trkpt lat="48.036995" lon="10.579546">
<ele>571.646</ele>
<time>2020-09-10T16:28:17Z</time>
</trkpt>
<trkpt lat="48.036945" lon="10.579527">
<ele>571.697</ele>
<time>2020-09-10T16:28:18Z</time>
</trkpt>
<trkpt lat="48.0369" lon="10.579508">
<ele>571.738</ele>
<time>2020-09-10T16:28:19Z</time>
</trkpt>
<trkpt lat="48.036854" lon="10.579495">
<ele>571.764</ele>
<time>2020-09-10T16:28:20Z</time>
</trkpt>
<trkpt lat="48.036808" lon="10.579483">
<ele>571.764</ele>
<time>2020-09-10T16:28:21Z</time>
</trkpt>
<trkpt lat="48.036766" lon="10.579472">
<ele>571.764</ele>
<time>2020-09-10T16:28:22Z</time>
</trkpt>
<trkpt lat="48.03672" lon="10.579464">
<ele>572.026</ele>
<time>2020-09-10T16:28:23Z</time>
</trkpt>
<trkpt lat="48.036674" lon="10.579453">
<ele>572.234</ele>
<time>2020-09-10T16:28:24Z</time>
</trkpt>
<trkpt lat="48.036629" lon="10.579438">
<ele>572.395</ele>
<time>2020-09-10T16:28:25Z</time>
</trkpt>
<trkpt lat="48.036583" lon="10.57942">
<ele>572.517</ele>
<time>2020-09-10T16:28:26Z</time>
</trkpt>
<trkpt lat="48.036541" lon="10.579401">
<ele>572.603</ele>
<time>2020-09-10T16:28:27Z</time>
</trkpt>
<trkpt lat="48.03651" lon="10.579376">
<ele>572.66</ele>
<time>2020-09-10T16:28:28Z</time>
</trkpt>
<trkpt lat="48.036484" lon="10.579345">
<ele>572.702</ele>
<time>2020-09-10T16:28:29Z</time>
</trkpt>
<trkpt lat="48.036453" lon="10.579315">
<ele>572.951</ele>
<time>2020-09-10T16:28:30Z</time>
</trkpt>
<trkpt lat="48.036423" lon="10.579297">
<ele>573.138</ele>
<time>2020-09-10T16:28:31Z</time>
</trkpt>
<trkpt lat="48.036388" lon="10.579287">
<ele>573.295</ele>
<time>2020-09-10T16:28:32Z</time>
</trkpt>
<trkpt lat="48.036354" lon="10.579288">
<ele>573.431</ele>
<time>2020-09-10T16:28:33Z</time>
</trkpt>
<trkpt lat="48.036324" lon="10.579303">
<ele>573.538</ele>
<time>2020-09-10T16:28:34Z</time>
</trkpt>
<trkpt lat="48.036293" lon="10.579322">
<ele>573.619</ele>
<time>2020-09-10T16:28:35Z</time>
</trkpt>
<trkpt lat="48.036263" lon="10.579345">
<ele>573.672</ele>
<time>2020-09-10T16:28:36Z</time>
</trkpt>
<trkpt lat="48.036224" lon="10.579378">
<ele>573.695</ele>
<time>2020-09-10T16:28:37Z</time>
</trkpt>
<trkpt lat="48.036194" lon="10.579413">
<ele>573.695</ele>
<time>2020-09-10T16:28:38Z</time>
</trkpt>
<trkpt lat="48.036167" lon="10.57946">
<ele>573.695</ele>
<time>2020-09-10T16:28:39Z</time>
</trkpt>
<trkpt lat="48.036144" lon="10.579506">
<ele>573.695</ele>
<time>2020-09-10T16:28:40Z</time>
</trkpt>
<trkpt lat="48.036118" lon="10.579552">
<ele>573.695</ele>
<time>2020-09-10T16:28:41Z</time>
</trkpt>
<trkpt lat="48.036087" lon="10.579602">
<ele>573.695</ele>
<time>2020-09-10T16:28:42Z</time>
</trkpt>
<trkpt lat="48.036053" lon="10.579663">
<ele>573.695</ele>
<time>2020-09-10T16:28:43Z</time>
</trkpt>
<trkpt lat="48.036011" lon="10.57972">
<ele>573.695</ele>
<time>2020-09-10T16:28:44Z</time>
</trkpt>
<trkpt lat="48.035984" lon="10.579772">
<ele>573.695</ele>
<time>2020-09-10T16:28:45Z</time>
</trkpt>
<trkpt lat="48.035938" lon="10.579833">
<ele>573.695</ele>
<time>2020-09-10T16:28:46Z</time>
</trkpt>
<trkpt lat="48.0359" lon="10.579898">
<ele>573.695</ele>
<time>2020-09-10T16:28:47Z</time>
</trkpt>
<trkpt lat="48.035858" lon="10.579963">
<ele>573.695</ele>
<time>2020-09-10T16:28:48Z</time>
</trkpt>
<trkpt lat="48.035816" lon="10.580026">
<ele>573.695</ele>
<time>2020-09-10T16:28:49Z</time>
</trkpt>
<trkpt lat="48.035789" lon="10.580073">
<ele>573.695</ele>
<time>2020-09-10T16:28:50Z</time>
</trkpt>
<trkpt lat="48.035759" lon="10.580132">
<ele>573.695</ele>
<time>2020-09-10T16:28:51Z</time>
</trkpt>
<trkpt lat="48.035728" lon="10.580203">
<ele>573.695</ele>
<time>2020-09-10T16:28:52Z</time>
</trkpt>
<trkpt lat="48.035679" lon="10.580279">
<ele>573.695</ele>
<time>2020-09-10T16:28:53Z</time>
</trkpt>
<trkpt lat="48.035633" lon="10.580353">
<ele>573.695</ele>
<time>2020-09-10T16:28:54Z</time>
</trkpt>
<trkpt lat="48.035595" lon="10.580432">
<ele>573.695</ele>
<time>2020-09-10T16:28:55Z</time>
</trkpt>
<trkpt lat="48.035553" lon="10.580505">
<ele>573.459</ele>
<time>2020-09-10T16:28:56Z</time>
</trkpt>
<trkpt lat="48.035515" lon="10.580573">
<ele>573.273</ele>
<time>2020-09-10T16:28:57Z</time>
</trkpt>
<trkpt lat="48.035473" lon="10.580646">
<ele>573.13</ele>
<time>2020-09-10T16:28:58Z</time>
</trkpt>
<trkpt lat="48.035435" lon="10.580715">
<ele>573.049</ele>
<time>2020-09-10T16:28:59Z</time>
</trkpt>
<trkpt lat="48.035389" lon="10.58078">
<ele>572.958</ele>
<time>2020-09-10T16:29:00Z</time>
</trkpt>
<trkpt lat="48.035351" lon="10.580843">
<ele>572.89</ele>
<time>2020-09-10T16:29:01Z</time>
</trkpt>
<trkpt lat="48.035309" lon="10.580912">
<ele>572.841</ele>
<time>2020-09-10T16:29:02Z</time>
</trkpt>
<trkpt lat="48.035263" lon="10.580988">
<ele>572.817</ele>
<time>2020-09-10T16:29:03Z</time>
</trkpt>
<trkpt lat="48.035225" lon="10.581063">
<ele>572.817</ele>
<time>2020-09-10T16:29:04Z</time>
</trkpt>
<trkpt lat="48.035194" lon="10.581141">
<ele>572.817</ele>
<time>2020-09-10T16:29:05Z</time>
</trkpt>
<trkpt lat="48.035152" lon="10.581222">
<ele>572.817</ele>
<time>2020-09-10T16:29:06Z</time>
</trkpt>
<trkpt lat="48.035118" lon="10.581306">
<ele>572.817</ele>
<time>2020-09-10T16:29:07Z</time>
</trkpt>
<trkpt lat="48.035091" lon="10.581388">
<ele>572.817</ele>
<time>2020-09-10T16:29:08Z</time>
</trkpt>
<trkpt lat="48.035069" lon="10.58147">
<ele>572.817</ele>
<time>2020-09-10T16:29:09Z</time>
</trkpt>
<trkpt lat="48.035042" lon="10.581552">
<ele>572.817</ele>
<time>2020-09-10T16:29:10Z</time>
</trkpt>
<trkpt lat="48.035019" lon="10.581633">
<ele>572.817</ele>
<time>2020-09-10T16:29:11Z</time>
</trkpt>
<trkpt lat="48.034996" lon="10.581715">
<ele>572.817</ele>
<time>2020-09-10T16:29:12Z</time>
</trkpt>
<trkpt lat="48.034973" lon="10.581797">
<ele>572.817</ele>
<time>2020-09-10T16:29:13Z</time>
</trkpt>
<trkpt lat="48.03495" lon="10.581873">
<ele>572.817</ele>
<time>2020-09-10T16:29:14Z</time>
</trkpt>
<trkpt lat="48.034931" lon="10.581946">
<ele>572.817</ele>
<time>2020-09-10T16:29:15Z</time>
</trkpt>
<trkpt lat="48.034912" lon="10.582018">
<ele>572.817</ele>
<time>2020-09-10T16:29:16Z</time>
</trkpt>
<trkpt lat="48.034897" lon="10.582088">
<ele>572.817</ele>
<time>2020-09-10T16:29:17Z</time>
</trkpt>
<trkpt lat="48.034882" lon="10.582158">
<ele>572.817</ele>
<time>2020-09-10T16:29:18Z</time>
</trkpt>
<trkpt lat="48.034859" lon="10.582228">
<ele>572.817</ele>
<time>2020-09-10T16:29:19Z</time>
</trkpt>
<trkpt lat="48.034832" lon="10.5823">
<ele>572.817</ele>
<time>2020-09-10T16:29:20Z</time>
</trkpt>
<trkpt lat="48.034801" lon="10.582368">
<ele>572.817</ele>
<time>2020-09-10T16:29:21Z</time>
</trkpt>
<trkpt lat="48.034763" lon="10.582433">
<ele>572.817</ele>
<time>2020-09-10T16:29:22Z</time>
</trkpt>
<trkpt lat="48.034718" lon="10.58249">
<ele>572.539</ele>
<time>2020-09-10T16:29:23Z</time>
</trkpt>
<trkpt lat="48.034672" lon="10.58254">
<ele>572.322</ele>
<time>2020-09-10T16:29:24Z</time>
</trkpt>
<trkpt lat="48.034618" lon="10.582588">
<ele>572.16</ele>
<time>2020-09-10T16:29:25Z</time>
</trkpt>
<trkpt lat="48.034569" lon="10.582632">
<ele>572.045</ele>
<time>2020-09-10T16:29:26Z</time>
</trkpt>
<trkpt lat="48.034515" lon="10.582672">
<ele>571.966</ele>
<time>2020-09-10T16:29:27Z</time>
</trkpt>
<trkpt lat="48.034462" lon="10.582709">
<ele>571.918</ele>
<time>2020-09-10T16:29:28Z</time>
</trkpt>
<trkpt lat="48.034409" lon="10.582751">
<ele>571.877</ele>
<time>2020-09-10T16:29:29Z</time>
</trkpt>
<trkpt lat="48.034359" lon="10.582791">
<ele>571.852</ele>
<time>2020-09-10T16:29:30Z</time>
</trkpt>
<trkpt lat="48.034309" lon="10.582831">
<ele>571.851</ele>
<time>2020-09-10T16:29:31Z</time>
</trkpt>
<trkpt lat="48.03426" lon="10.582871">
<ele>571.852</ele>
<time>2020-09-10T16:29:32Z</time>
</trkpt>
<trkpt lat="48.03421" lon="10.582913">
<ele>571.852</ele>
<time>2020-09-10T16:29:33Z</time>
</trkpt>
<trkpt lat="48.034164" lon="10.582954">
<ele>571.852</ele>
<time>2020-09-10T16:29:34Z</time>
</trkpt>
<trkpt lat="48.034115" lon="10.583">
<ele>571.852</ele>
<time>2020-09-10T16:29:35Z</time>
</trkpt>
<trkpt lat="48.034065" lon="10.583038">
<ele>571.851</ele>
<time>2020-09-10T16:29:36Z</time>
</trkpt>
<trkpt lat="48.034019" lon="10.583078">
<ele>571.852</ele>
<time>2020-09-10T16:29:37Z</time>
</trkpt>
<trkpt lat="48.03397" lon="10.583117">
<ele>571.852</ele>
<time>2020-09-10T16:29:38Z</time>
</trkpt>
<trkpt lat="48.03392" lon="10.583157">
<ele>571.851</ele>
<time>2020-09-10T16:29:39Z</time>
</trkpt>
<trkpt lat="48.033871" lon="10.583198">
<ele>571.852</ele>
<time>2020-09-10T16:29:40Z</time>
</trkpt>
<trkpt lat="48.033825" lon="10.583241">
<ele>571.852</ele>
<time>2020-09-10T16:29:41Z</time>
</trkpt>
<trkpt lat="48.033775" lon="10.583283">
<ele>571.851</ele>
<time>2020-09-10T16:29:42Z</time>
</trkpt>
<trkpt lat="48.033726" lon="10.583322">
<ele>571.852</ele>
<time>2020-09-10T16:29:43Z</time>
</trkpt>
<trkpt lat="48.033676" lon="10.583359">
<ele>571.852</ele>
<time>2020-09-10T16:29:44Z</time>
</trkpt>
<trkpt lat="48.03363" lon="10.583395">
<ele>571.851</ele>
<time>2020-09-10T16:29:45Z</time>
</trkpt>
<trkpt lat="48.033581" lon="10.58343">
<ele>571.852</ele>
<time>2020-09-10T16:29:46Z</time>
</trkpt>
<trkpt lat="48.033535" lon="10.583462">
<ele>571.852</ele>
<time>2020-09-10T16:29:47Z</time>
</trkpt>
<trkpt lat="48.033485" lon="10.583495">
<ele>571.852</ele>
<time>2020-09-10T16:29:48Z</time>
</trkpt>
<trkpt lat="48.033436" lon="10.583529">
<ele>571.852</ele>
<time>2020-09-10T16:29:49Z</time>
</trkpt>
<trkpt lat="48.033382" lon="10.58356">
<ele>571.851</ele>
<time>2020-09-10T16:29:50Z</time>
</trkpt>
<trkpt lat="48.033337" lon="10.583591">
<ele>571.852</ele>
<time>2020-09-10T16:29:51Z</time>
</trkpt>
<trkpt lat="48.033291" lon="10.583623">
<ele>571.852</ele>
<time>2020-09-10T16:29:52Z</time>
</trkpt>
<trkpt lat="48.033241" lon="10.583654">
<ele>571.851</ele>
<time>2020-09-10T16:29:53Z</time>
</trkpt>
<trkpt lat="48.033188" lon="10.583683">
<ele>571.852</ele>
<time>2020-09-10T16:29:54Z</time>
</trkpt>
<trkpt lat="48.033142" lon="10.583703">
<ele>571.852</ele>
<time>2020-09-10T16:29:55Z</time>
</trkpt>
<trkpt lat="48.033085" lon="10.583718">
<ele>571.851</ele>
<time>2020-09-10T16:29:56Z</time>
</trkpt>
<trkpt lat="48.033035" lon="10.583728">
<ele>571.852</ele>
<time>2020-09-10T16:29:57Z</time>
</trkpt>
<trkpt lat="48.032982" lon="10.583735">
<ele>571.852</ele>
<time>2020-09-10T16:29:58Z</time>
</trkpt>
<trkpt lat="48.032928" lon="10.58374">
<ele>571.852</ele>
<time>2020-09-10T16:29:59Z</time>
</trkpt>
<trkpt lat="48.032875" lon="10.583745">
<ele>571.852</ele>
<time>2020-09-10T16:30:00Z</time>
</trkpt>
<trkpt lat="48.032825" lon="10.583749">
<ele>571.852</ele>
<time>2020-09-10T16:30:01Z</time>
</trkpt>
<trkpt lat="48.032776" lon="10.583751">
<ele>571.852</ele>
<time>2020-09-10T16:30:02Z</time>
</trkpt>
<trkpt lat="48.03273" lon="10.583751">
<ele>571.851</ele>
<time>2020-09-10T16:30:03Z</time>
</trkpt>
<trkpt lat="48.032692" lon="10.583749">
<ele>571.852</ele>
<time>2020-09-10T16:30:04Z</time>
</trkpt>
<trkpt lat="48.032661" lon="10.583749">
<ele>571.852</ele>
<time>2020-09-10T16:30:05Z</time>
</trkpt>
<trkpt lat="48.032635" lon="10.583753">
<ele>571.852</ele>
<time>2020-09-10T16:30:06Z</time>
</trkpt>
<trkpt lat="48.032616" lon="10.583756">
<ele>571.852</ele>
<time>2020-09-10T16:30:07Z</time>
</trkpt>
<trkpt lat="48.032597" lon="10.583763">
<ele>571.852</ele>
<time>2020-09-10T16:30:08Z</time>
</trkpt>
<trkpt lat="48.032578" lon="10.583763">
<ele>571.852</ele>
<time>2020-09-10T16:30:09Z</time>
</trkpt>
<trkpt lat="48.03257" lon="10.583765">
<ele>571.852</ele>
<time>2020-09-10T16:30:10Z</time>
</trkpt>
<trkpt lat="48.032566" lon="10.583767">
<ele>571.851</ele>
<time>2020-09-10T16:30:11Z</time>
</trkpt>
<trkpt lat="48.032566" lon="10.583763">
<ele>571.852</ele>
<time>2020-09-10T16:30:13Z</time>
</trkpt>
<trkpt lat="48.032551" lon="10.583788">
<ele>571.852</ele>
<time>2020-09-10T16:31:48Z</time>
</trkpt>
<trkpt lat="48.032539" lon="10.583792">
<ele>571.852</ele>
<time>2020-09-10T16:31:49Z</time>
</trkpt>
<trkpt lat="48.032532" lon="10.583793">
<ele>571.851</ele>
<time>2020-09-10T16:31:50Z</time>
</trkpt>
<trkpt lat="48.032524" lon="10.583792">
<ele>571.851</ele>
<time>2020-09-10T16:31:51Z</time>
</trkpt>
<trkpt lat="48.032501" lon="10.583795">
<ele>571.852</ele>
<time>2020-09-10T16:31:52Z</time>
</trkpt>
<trkpt lat="48.032471" lon="10.583793">
<ele>571.851</ele>
<time>2020-09-10T16:31:53Z</time>
</trkpt>
<trkpt lat="48.032436" lon="10.583793">
<ele>571.852</ele>
<time>2020-09-10T16:31:54Z</time>
</trkpt>
<trkpt lat="48.032402" lon="10.583797">
<ele>571.852</ele>
<time>2020-09-10T16:31:55Z</time>
</trkpt>
<trkpt lat="48.032368" lon="10.583801">
<ele>571.851</ele>
<time>2020-09-10T16:31:56Z</time>
</trkpt>
<trkpt lat="48.032333" lon="10.583805">
<ele>571.852</ele>
<time>2020-09-10T16:31:57Z</time>
</trkpt>
<trkpt lat="48.032299" lon="10.583808">
<ele>571.851</ele>
<time>2020-09-10T16:31:58Z</time>
</trkpt>
<trkpt lat="48.032261" lon="10.58381">
<ele>571.852</ele>
<time>2020-09-10T16:31:59Z</time>
</trkpt>
<trkpt lat="48.032219" lon="10.583808">
<ele>571.852</ele>
<time>2020-09-10T16:32:00Z</time>
</trkpt>
<trkpt lat="48.032177" lon="10.58381">
<ele>571.852</ele>
<time>2020-09-10T16:32:01Z</time>
</trkpt>
<trkpt lat="48.032139" lon="10.583814">
<ele>571.852</ele>
<time>2020-09-10T16:32:02Z</time>
</trkpt>
<trkpt lat="48.032101" lon="10.583818">
<ele>571.852</ele>
<time>2020-09-10T16:32:03Z</time>
</trkpt>
<trkpt lat="48.032055" lon="10.583822">
<ele>571.852</ele>
<time>2020-09-10T16:32:04Z</time>
</trkpt>
<trkpt lat="48.032013" lon="10.583823">
<ele>571.852</ele>
<time>2020-09-10T16:32:05Z</time>
</trkpt>
<trkpt lat="48.031971" lon="10.583825">
<ele>571.852</ele>
<time>2020-09-10T16:32:06Z</time>
</trkpt>
<trkpt lat="48.031929" lon="10.583828">
<ele>571.852</ele>
<time>2020-09-10T16:32:07Z</time>
</trkpt>
<trkpt lat="48.031887" lon="10.583832">
<ele>571.851</ele>
<time>2020-09-10T16:32:08Z</time>
</trkpt>
<trkpt lat="48.031845" lon="10.583837">
<ele>571.852</ele>
<time>2020-09-10T16:32:09Z</time>
</trkpt>
<trkpt lat="48.031799" lon="10.583841">
<ele>571.852</ele>
<time>2020-09-10T16:32:10Z</time>
</trkpt>
<trkpt lat="48.031754" lon="10.583849">
<ele>572.095</ele>
<time>2020-09-10T16:32:11Z</time>
</trkpt>
<trkpt lat="48.031712" lon="10.583858">
<ele>572.287</ele>
<time>2020-09-10T16:32:12Z</time>
</trkpt>
<trkpt lat="48.031666" lon="10.583861">
<ele>572.419</ele>
<time>2020-09-10T16:32:13Z</time>
</trkpt>
<trkpt lat="48.03162" lon="10.583863">
<ele>572.561</ele>
<time>2020-09-10T16:32:14Z</time>
</trkpt>
<trkpt lat="48.031578" lon="10.583863">
<ele>572.668</ele>
<time>2020-09-10T16:32:15Z</time>
</trkpt>
<trkpt lat="48.031532" lon="10.583868">
<ele>572.744</ele>
<time>2020-09-10T16:32:16Z</time>
</trkpt>
<trkpt lat="48.03149" lon="10.583872">
<ele>572.793</ele>
<time>2020-09-10T16:32:17Z</time>
</trkpt>
<trkpt lat="48.031445" lon="10.583875">
<ele>572.817</ele>
<time>2020-09-10T16:32:18Z</time>
</trkpt>
<trkpt lat="48.031399" lon="10.583877">
<ele>572.817</ele>
<time>2020-09-10T16:32:19Z</time>
</trkpt>
<trkpt lat="48.031353" lon="10.583879">
<ele>572.817</ele>
<time>2020-09-10T16:32:20Z</time>
</trkpt>
<trkpt lat="48.031311" lon="10.583883">
<ele>572.817</ele>
<time>2020-09-10T16:32:21Z</time>
</trkpt>
<trkpt lat="48.031265" lon="10.583885">
<ele>572.817</ele>
<time>2020-09-10T16:32:22Z</time>
</trkpt>
<trkpt lat="48.031219" lon="10.583887">
<ele>572.817</ele>
<time>2020-09-10T16:32:23Z</time>
</trkpt>
<trkpt lat="48.031174" lon="10.583889">
<ele>572.817</ele>
<time>2020-09-10T16:32:24Z</time>
</trkpt>
<trkpt lat="48.031132" lon="10.583892">
<ele>572.817</ele>
<time>2020-09-10T16:32:25Z</time>
</trkpt>
<trkpt lat="48.031078" lon="10.583895">
<ele>572.817</ele>
<time>2020-09-10T16:32:26Z</time>
</trkpt>
<trkpt lat="48.031029" lon="10.583901">
<ele>572.817</ele>
<time>2020-09-10T16:32:27Z</time>
</trkpt>
<trkpt lat="48.030979" lon="10.583906">
<ele>572.817</ele>
<time>2020-09-10T16:32:28Z</time>
</trkpt>
<trkpt lat="48.03093" lon="10.583914">
<ele>572.817</ele>
<time>2020-09-10T16:32:29Z</time>
</trkpt>
<trkpt lat="48.030876" lon="10.583919">
<ele>573.048</ele>
<time>2020-09-10T16:32:30Z</time>
</trkpt>
<trkpt lat="48.030827" lon="10.583923">
<ele>573.228</ele>
<time>2020-09-10T16:32:31Z</time>
</trkpt>
<trkpt lat="48.030773" lon="10.58393">
<ele>573.365</ele>
<time>2020-09-10T16:32:32Z</time>
</trkpt>
<trkpt lat="48.030724" lon="10.583935">
<ele>573.457</ele>
<time>2020-09-10T16:32:33Z</time>
</trkpt>
<trkpt lat="48.03067" lon="10.583941">
<ele>573.554</ele>
<time>2020-09-10T16:32:34Z</time>
</trkpt>
<trkpt lat="48.030617" lon="10.583945">
<ele>573.627</ele>
<time>2020-09-10T16:32:35Z</time>
</trkpt>
<trkpt lat="48.030567" lon="10.58395">
<ele>573.673</ele>
<time>2020-09-10T16:32:36Z</time>
</trkpt>
<trkpt lat="48.030514" lon="10.583955">
<ele>573.695</ele>
<time>2020-09-10T16:32:37Z</time>
</trkpt>
<trkpt lat="48.030464" lon="10.583961">
<ele>573.959</ele>
<time>2020-09-10T16:32:38Z</time>
</trkpt>
<trkpt lat="48.030415" lon="10.583966">
<ele>574.162</ele>
<time>2020-09-10T16:32:39Z</time>
</trkpt>
<trkpt lat="48.030369" lon="10.583971">
<ele>574.318</ele>
<time>2020-09-10T16:32:40Z</time>
</trkpt>
<trkpt lat="48.030319" lon="10.58398">
<ele>574.431</ele>
<time>2020-09-10T16:32:41Z</time>
</trkpt>
<trkpt lat="48.03027" lon="10.583988">
<ele>574.516</ele>
<time>2020-09-10T16:32:42Z</time>
</trkpt>
<trkpt lat="48.030224" lon="10.583998">
<ele>574.579</ele>
<time>2020-09-10T16:32:43Z</time>
</trkpt>
<trkpt lat="48.030182" lon="10.584012">
<ele>574.634</ele>
<time>2020-09-10T16:32:44Z</time>
</trkpt>
<trkpt lat="48.030132" lon="10.584025">
<ele>574.661</ele>
<time>2020-09-10T16:32:45Z</time>
</trkpt>
<trkpt lat="48.030087" lon="10.584038">
<ele>574.661</ele>
<time>2020-09-10T16:32:46Z</time>
</trkpt>
<trkpt lat="48.030033" lon="10.58405">
<ele>574.958</ele>
<time>2020-09-10T16:32:47Z</time>
</trkpt>
<trkpt lat="48.02998" lon="10.584065">
<ele>575.19</ele>
<time>2020-09-10T16:32:48Z</time>
</trkpt>
<trkpt lat="48.029926" lon="10.58408">
<ele>575.366</ele>
<time>2020-09-10T16:32:49Z</time>
</trkpt>
<trkpt lat="48.029877" lon="10.584097">
<ele>575.495</ele>
<time>2020-09-10T16:32:50Z</time>
</trkpt>
<trkpt lat="48.029823" lon="10.584111">
<ele>575.591</ele>
<time>2020-09-10T16:32:51Z</time>
</trkpt>
<trkpt lat="48.02977" lon="10.584128">
<ele>575.644</ele>
<time>2020-09-10T16:32:52Z</time>
</trkpt>
<trkpt lat="48.029716" lon="10.584145">
<ele>575.687</ele>
<time>2020-09-10T16:32:53Z</time>
</trkpt>
<trkpt lat="48.029663" lon="10.584162">
<ele>575.714</ele>
<time>2020-09-10T16:32:54Z</time>
</trkpt>
<trkpt lat="48.02961" lon="10.584176">
<ele>575.715</ele>
<time>2020-09-10T16:32:55Z</time>
</trkpt>
<trkpt lat="48.029556" lon="10.584193">
<ele>575.715</ele>
<time>2020-09-10T16:32:56Z</time>
</trkpt>
<trkpt lat="48.029499" lon="10.584211">
<ele>575.715</ele>
<time>2020-09-10T16:32:57Z</time>
</trkpt>
<trkpt lat="48.029446" lon="10.584232">
<ele>575.715</ele>
<time>2020-09-10T16:32:58Z</time>
</trkpt>
<trkpt lat="48.029392" lon="10.584251">
<ele>575.714</ele>
<time>2020-09-10T16:32:59Z</time>
</trkpt>
<trkpt lat="48.029335" lon="10.58427">
<ele>575.715</ele>
<time>2020-09-10T16:33:00Z</time>
</trkpt>
<trkpt lat="48.029274" lon="10.584287">
<ele>575.715</ele>
<time>2020-09-10T16:33:01Z</time>
</trkpt>
<trkpt lat="48.029217" lon="10.584304">
<ele>575.715</ele>
<time>2020-09-10T16:33:02Z</time>
</trkpt>
<trkpt lat="48.02916" lon="10.584323">
<ele>575.715</ele>
<time>2020-09-10T16:33:03Z</time>
</trkpt>
<trkpt lat="48.029102" lon="10.58434">
<ele>575.715</ele>
<time>2020-09-10T16:33:04Z</time>
</trkpt>
<trkpt lat="48.029045" lon="10.584354">
<ele>575.449</ele>
<time>2020-09-10T16:33:05Z</time>
</trkpt>
<trkpt lat="48.02898" lon="10.584371">
<ele>575.245</ele>
<time>2020-09-10T16:33:06Z</time>
</trkpt>
<trkpt lat="48.028915" lon="10.584388">
<ele>575.093</ele>
<time>2020-09-10T16:33:07Z</time>
</trkpt>
<trkpt lat="48.028858" lon="10.584405">
<ele>574.984</ele>
<time>2020-09-10T16:33:08Z</time>
</trkpt>
<trkpt lat="48.028797" lon="10.584423">
<ele>574.907</ele>
<time>2020-09-10T16:33:09Z</time>
</trkpt>
<trkpt lat="48.02874" lon="10.584442">
<ele>574.86</ele>
<time>2020-09-10T16:33:10Z</time>
</trkpt>
<trkpt lat="48.028679" lon="10.58446">
<ele>574.839</ele>
<time>2020-09-10T16:33:11Z</time>
</trkpt>
<trkpt lat="48.028618" lon="10.584478">
<ele>574.836</ele>
<time>2020-09-10T16:33:12Z</time>
</trkpt>
<trkpt lat="48.028557" lon="10.584496">
<ele>574.836</ele>
<time>2020-09-10T16:33:13Z</time>
</trkpt>
<trkpt lat="48.028496" lon="10.584516">
<ele>574.836</ele>
<time>2020-09-10T16:33:14Z</time>
</trkpt>
<trkpt lat="48.028435" lon="10.584535">
<ele>574.836</ele>
<time>2020-09-10T16:33:15Z</time>
</trkpt>
<trkpt lat="48.028374" lon="10.584555">
<ele>574.836</ele>
<time>2020-09-10T16:33:16Z</time>
</trkpt>
<trkpt lat="48.028316" lon="10.584574">
<ele>574.836</ele>
<time>2020-09-10T16:33:17Z</time>
</trkpt>
<trkpt lat="48.028255" lon="10.58459">
<ele>574.836</ele>
<time>2020-09-10T16:33:18Z</time>
</trkpt>
<trkpt lat="48.028198" lon="10.584607">
<ele>574.836</ele>
<time>2020-09-10T16:33:19Z</time>
</trkpt>
<trkpt lat="48.028137" lon="10.584623">
<ele>574.836</ele>
<time>2020-09-10T16:33:20Z</time>
</trkpt>
<trkpt lat="48.02808" lon="10.584641">
<ele>574.836</ele>
<time>2020-09-10T16:33:21Z</time>
</trkpt>
<trkpt lat="48.028023" lon="10.584657">
<ele>574.836</ele>
<time>2020-09-10T16:33:22Z</time>
</trkpt>
<trkpt lat="48.027966" lon="10.584672">
<ele>574.836</ele>
<time>2020-09-10T16:33:23Z</time>
</trkpt>
<trkpt lat="48.027908" lon="10.584688">
<ele>574.836</ele>
<time>2020-09-10T16:33:24Z</time>
</trkpt>
<trkpt lat="48.027851" lon="10.584706">
<ele>574.836</ele>
<time>2020-09-10T16:33:25Z</time>
</trkpt>
<trkpt lat="48.027794" lon="10.584725">
<ele>574.836</ele>
<time>2020-09-10T16:33:26Z</time>
</trkpt>
<trkpt lat="48.02774" lon="10.584743">
<ele>575.081</ele>
<time>2020-09-10T16:33:27Z</time>
</trkpt>
<trkpt lat="48.027683" lon="10.584761">
<ele>575.272</ele>
<time>2020-09-10T16:33:28Z</time>
</trkpt>
<trkpt lat="48.027626" lon="10.584777">
<ele>575.417</ele>
<time>2020-09-10T16:33:29Z</time>
</trkpt>
<trkpt lat="48.027569" lon="10.584794">
<ele>575.526</ele>
<time>2020-09-10T16:33:30Z</time>
</trkpt>
<trkpt lat="48.027512" lon="10.584811">
<ele>575.601</ele>
<time>2020-09-10T16:33:31Z</time>
</trkpt>
<trkpt lat="48.027451" lon="10.584828">
<ele>575.652</ele>
<time>2020-09-10T16:33:32Z</time>
</trkpt>
<trkpt lat="48.027393" lon="10.584845">
<ele>575.69</ele>
<time>2020-09-10T16:33:33Z</time>
</trkpt>
<trkpt lat="48.027336" lon="10.584862">
<ele>575.715</ele>
<time>2020-09-10T16:33:34Z</time>
</trkpt>
<trkpt lat="48.027279" lon="10.584878">
<ele>575.715</ele>
<time>2020-09-10T16:33:35Z</time>
</trkpt>
<trkpt lat="48.027218" lon="10.584897">
<ele>575.715</ele>
<time>2020-09-10T16:33:36Z</time>
</trkpt>
<trkpt lat="48.027157" lon="10.584915">
<ele>575.714</ele>
<time>2020-09-10T16:33:37Z</time>
</trkpt>
<trkpt lat="48.027096" lon="10.584935">
<ele>575.715</ele>
<time>2020-09-10T16:33:38Z</time>
</trkpt>
<trkpt lat="48.027035" lon="10.584951">
<ele>575.714</ele>
<time>2020-09-10T16:33:39Z</time>
</trkpt>
<trkpt lat="48.026978" lon="10.58497">
<ele>575.714</ele>
<time>2020-09-10T16:33:40Z</time>
</trkpt>
<trkpt lat="48.02692" lon="10.584989">
<ele>575.715</ele>
<time>2020-09-10T16:33:41Z</time>
</trkpt>
<trkpt lat="48.026863" lon="10.585007">
<ele>575.715</ele>
<time>2020-09-10T16:33:42Z</time>
</trkpt>
<trkpt lat="48.026806" lon="10.585023">
<ele>575.715</ele>
<time>2020-09-10T16:33:43Z</time>
</trkpt>
<trkpt lat="48.026752" lon="10.585041">
<ele>575.715</ele>
<time>2020-09-10T16:33:44Z</time>
</trkpt>
<trkpt lat="48.026695" lon="10.585062">
<ele>575.715</ele>
<time>2020-09-10T16:33:45Z</time>
</trkpt>
<trkpt lat="48.02663" lon="10.58508">
<ele>575.714</ele>
<time>2020-09-10T16:33:46Z</time>
</trkpt>
<trkpt lat="48.026573" lon="10.585095">
<ele>575.715</ele>
<time>2020-09-10T16:33:47Z</time>
</trkpt>
<trkpt lat="48.026512" lon="10.585111">
<ele>575.714</ele>
<time>2020-09-10T16:33:48Z</time>
</trkpt>
<trkpt lat="48.026455" lon="10.585127">
<ele>575.714</ele>
<time>2020-09-10T16:33:49Z</time>
</trkpt>
<trkpt lat="48.026398" lon="10.585142">
<ele>575.714</ele>
<time>2020-09-10T16:33:50Z</time>
</trkpt>
<trkpt lat="48.026337" lon="10.58516">
<ele>575.714</ele>
<time>2020-09-10T16:33:51Z</time>
</trkpt>
<trkpt lat="48.026279" lon="10.585178">
<ele>575.715</ele>
<time>2020-09-10T16:33:52Z</time>
</trkpt>
<trkpt lat="48.026226" lon="10.585196">
<ele>575.715</ele>
<time>2020-09-10T16:33:53Z</time>
</trkpt>
<trkpt lat="48.026165" lon="10.585215">
<ele>575.715</ele>
<time>2020-09-10T16:33:54Z</time>
</trkpt>
<trkpt lat="48.026108" lon="10.58523">
<ele>575.714</ele>
<time>2020-09-10T16:33:55Z</time>
</trkpt>
<trkpt lat="48.026051" lon="10.585249">
<ele>575.715</ele>
<time>2020-09-10T16:33:56Z</time>
</trkpt>
<trkpt lat="48.025993" lon="10.585267">
<ele>575.714</ele>
<time>2020-09-10T16:33:57Z</time>
</trkpt>
<trkpt lat="48.02594" lon="10.585284">
<ele>575.715</ele>
<time>2020-09-10T16:33:58Z</time>
</trkpt>
<trkpt lat="48.025883" lon="10.585301">
<ele>575.715</ele>
<time>2020-09-10T16:33:59Z</time>
</trkpt>
<trkpt lat="48.025829" lon="10.585316">
<ele>575.715</ele>
<time>2020-09-10T16:34:00Z</time>
</trkpt>
<trkpt lat="48.025772" lon="10.585328">
<ele>575.714</ele>
<time>2020-09-10T16:34:01Z</time>
</trkpt>
<trkpt lat="48.025715" lon="10.58534">
<ele>575.714</ele>
<time>2020-09-10T16:34:02Z</time>
</trkpt>
<trkpt lat="48.025658" lon="10.585354">
<ele>575.715</ele>
<time>2020-09-10T16:34:03Z</time>
</trkpt>
<trkpt lat="48.0256" lon="10.58537">
<ele>575.715</ele>
<time>2020-09-10T16:34:04Z</time>
</trkpt>
<trkpt lat="48.025547" lon="10.585387">
<ele>575.715</ele>
<time>2020-09-10T16:34:05Z</time>
</trkpt>
<trkpt lat="48.02549" lon="10.585406">
<ele>575.715</ele>
<time>2020-09-10T16:34:06Z</time>
</trkpt>
<trkpt lat="48.025429" lon="10.585424">
<ele>575.715</ele>
<time>2020-09-10T16:34:07Z</time>
</trkpt>
<trkpt lat="48.025375" lon="10.585442">
<ele>575.715</ele>
<time>2020-09-10T16:34:08Z</time>
</trkpt>
<trkpt lat="48.025318" lon="10.58546">
<ele>575.714</ele>
<time>2020-09-10T16:34:09Z</time>
</trkpt>
<trkpt lat="48.025261" lon="10.585479">
<ele>575.715</ele>
<time>2020-09-10T16:34:10Z</time>
</trkpt>
<trkpt lat="48.0252" lon="10.585495">
<ele>575.715</ele>
<time>2020-09-10T16:34:11Z</time>
</trkpt>
<trkpt lat="48.025143" lon="10.585513">
<ele>575.715</ele>
<time>2020-09-10T16:34:12Z</time>
</trkpt>
<trkpt lat="48.025085" lon="10.585531">
<ele>575.715</ele>
<time>2020-09-10T16:34:13Z</time>
</trkpt>
<trkpt lat="48.025032" lon="10.585548">
<ele>575.715</ele>
<time>2020-09-10T16:34:14Z</time>
</trkpt>
<trkpt lat="48.024975" lon="10.585567">
<ele>575.715</ele>
<time>2020-09-10T16:34:15Z</time>
</trkpt>
<trkpt lat="48.024918" lon="10.585584">
<ele>575.715</ele>
<time>2020-09-10T16:34:16Z</time>
</trkpt>
<trkpt lat="48.024864" lon="10.5856">
<ele>575.715</ele>
<time>2020-09-10T16:34:17Z</time>
</trkpt>
<trkpt lat="48.024807" lon="10.585617">
<ele>575.714</ele>
<time>2020-09-10T16:34:18Z</time>
</trkpt>
<trkpt lat="48.02475" lon="10.585633">
<ele>575.715</ele>
<time>2020-09-10T16:34:19Z</time>
</trkpt>
<trkpt lat="48.024693" lon="10.58565">
<ele>575.715</ele>
<time>2020-09-10T16:34:20Z</time>
</trkpt>
<trkpt lat="48.024639" lon="10.585668">
<ele>575.715</ele>
<time>2020-09-10T16:34:21Z</time>
</trkpt>
<trkpt lat="48.024582" lon="10.585687">
<ele>575.715</ele>
<time>2020-09-10T16:34:22Z</time>
</trkpt>
<trkpt lat="48.024525" lon="10.585702">
<ele>575.715</ele>
<time>2020-09-10T16:34:23Z</time>
</trkpt>
<trkpt lat="48.024467" lon="10.585716">
<ele>575.715</ele>
<time>2020-09-10T16:34:24Z</time>
</trkpt>
<trkpt lat="48.02441" lon="10.585732">
<ele>575.714</ele>
<time>2020-09-10T16:34:25Z</time>
</trkpt>
<trkpt lat="48.024353" lon="10.585747">
<ele>575.714</ele>
<time>2020-09-10T16:34:26Z</time>
</trkpt>
<trkpt lat="48.0243" lon="10.585764">
<ele>575.715</ele>
<time>2020-09-10T16:34:27Z</time>
</trkpt>
<trkpt lat="48.024242" lon="10.58578">
<ele>575.715</ele>
<time>2020-09-10T16:34:28Z</time>
</trkpt>
<trkpt lat="48.024185" lon="10.585797">
<ele>575.715</ele>
<time>2020-09-10T16:34:29Z</time>
</trkpt>
<trkpt lat="48.024132" lon="10.585814">
<ele>575.715</ele>
<time>2020-09-10T16:34:30Z</time>
</trkpt>
<trkpt lat="48.024078" lon="10.585832">
<ele>575.714</ele>
<time>2020-09-10T16:34:31Z</time>
</trkpt>
<trkpt lat="48.024025" lon="10.585848">
<ele>575.715</ele>
<time>2020-09-10T16:34:32Z</time>
</trkpt>
<trkpt lat="48.023964" lon="10.585863">
<ele>575.715</ele>
<time>2020-09-10T16:34:33Z</time>
</trkpt>
<trkpt lat="48.023907" lon="10.585878">
<ele>575.714</ele>
<time>2020-09-10T16:34:34Z</time>
</trkpt>
<trkpt lat="48.023853" lon="10.585894">
<ele>575.715</ele>
<time>2020-09-10T16:34:35Z</time>
</trkpt>
<trkpt lat="48.023796" lon="10.585911">
<ele>575.715</ele>
<time>2020-09-10T16:34:36Z</time>
</trkpt>
<trkpt lat="48.023739" lon="10.585928">
<ele>575.715</ele>
<time>2020-09-10T16:34:37Z</time>
</trkpt>
<trkpt lat="48.023682" lon="10.585948">
<ele>575.715</ele>
<time>2020-09-10T16:34:38Z</time>
</trkpt>
<trkpt lat="48.023621" lon="10.585965">
<ele>575.715</ele>
<time>2020-09-10T16:34:39Z</time>
</trkpt>
<trkpt lat="48.023567" lon="10.585981">
<ele>575.964</ele>
<time>2020-09-10T16:34:40Z</time>
</trkpt>
<trkpt lat="48.023506" lon="10.585999">
<ele>576.16</ele>
<time>2020-09-10T16:34:41Z</time>
</trkpt>
<trkpt lat="48.023445" lon="10.586014">
<ele>576.31</ele>
<time>2020-09-10T16:34:42Z</time>
</trkpt>
<trkpt lat="48.023392" lon="10.586028">
<ele>576.414</ele>
<time>2020-09-10T16:34:43Z</time>
</trkpt>
<trkpt lat="48.023338" lon="10.586047">
<ele>576.525</ele>
<time>2020-09-10T16:34:44Z</time>
</trkpt>
<trkpt lat="48.023281" lon="10.586065">
<ele>576.604</ele>
<time>2020-09-10T16:34:45Z</time>
</trkpt>
<trkpt lat="48.023228" lon="10.586091">
<ele>576.655</ele>
<time>2020-09-10T16:34:46Z</time>
</trkpt>
<trkpt lat="48.023178" lon="10.586123">
<ele>576.68</ele>
<time>2020-09-10T16:34:47Z</time>
</trkpt>
<trkpt lat="48.023129" lon="10.586164">
<ele>576.68</ele>
<time>2020-09-10T16:34:48Z</time>
</trkpt>
<trkpt lat="48.023075" lon="10.586212">
<ele>576.68</ele>
<time>2020-09-10T16:34:49Z</time>
</trkpt>
<trkpt lat="48.023026" lon="10.586259">
<ele>576.68</ele>
<time>2020-09-10T16:34:50Z</time>
</trkpt>
<trkpt lat="48.022976" lon="10.586305">
<ele>576.68</ele>
<time>2020-09-10T16:34:51Z</time>
</trkpt>
<trkpt lat="48.022923" lon="10.586351">
<ele>576.681</ele>
<time>2020-09-10T16:34:52Z</time>
</trkpt>
<trkpt lat="48.022877" lon="10.586401">
<ele>576.68</ele>
<time>2020-09-10T16:34:53Z</time>
</trkpt>
<trkpt lat="48.022823" lon="10.58645">
<ele>576.68</ele>
<time>2020-09-10T16:34:54Z</time>
</trkpt>
<trkpt lat="48.022778" lon="10.5865">
<ele>576.68</ele>
<time>2020-09-10T16:34:55Z</time>
</trkpt>
<trkpt lat="48.022728" lon="10.58655">
<ele>576.68</ele>
<time>2020-09-10T16:34:56Z</time>
</trkpt>
<trkpt lat="48.022682" lon="10.586598">
<ele>576.68</ele>
<time>2020-09-10T16:34:57Z</time>
</trkpt>
<trkpt lat="48.022629" lon="10.586646">
<ele>576.68</ele>
<time>2020-09-10T16:34:58Z</time>
</trkpt>
<trkpt lat="48.022579" lon="10.586692">
<ele>576.68</ele>
<time>2020-09-10T16:34:59Z</time>
</trkpt>
<trkpt lat="48.02253" lon="10.586734">
<ele>576.68</ele>
<time>2020-09-10T16:35:00Z</time>
</trkpt>
<trkpt lat="48.022488" lon="10.586779">
<ele>576.68</ele>
<time>2020-09-10T16:35:01Z</time>
</trkpt>
<trkpt lat="48.022438" lon="10.586824">
<ele>576.68</ele>
<time>2020-09-10T16:35:02Z</time>
</trkpt>
<trkpt lat="48.022392" lon="10.586868">
<ele>576.68</ele>
<time>2020-09-10T16:35:03Z</time>
</trkpt>
<trkpt lat="48.022346" lon="10.586912">
<ele>576.68</ele>
<time>2020-09-10T16:35:04Z</time>
</trkpt>
<trkpt lat="48.022297" lon="10.586958">
<ele>576.68</ele>
<time>2020-09-10T16:35:05Z</time>
</trkpt>
<trkpt lat="48.022251" lon="10.587005">
<ele>576.68</ele>
<time>2020-09-10T16:35:06Z</time>
</trkpt>
<trkpt lat="48.022202" lon="10.587057">
<ele>576.68</ele>
<time>2020-09-10T16:35:07Z</time>
</trkpt>
<trkpt lat="48.02216" lon="10.58711">
<ele>576.68</ele>
<time>2020-09-10T16:35:08Z</time>
</trkpt>
<trkpt lat="48.022114" lon="10.587168">
<ele>576.68</ele>
<time>2020-09-10T16:35:09Z</time>
</trkpt>
<trkpt lat="48.022076" lon="10.587236">
<ele>576.68</ele>
<time>2020-09-10T16:35:10Z</time>
</trkpt>
<trkpt lat="48.022041" lon="10.587305">
<ele>576.68</ele>
<time>2020-09-10T16:35:11Z</time>
</trkpt>
<trkpt lat="48.022003" lon="10.587377">
<ele>576.68</ele>
<time>2020-09-10T16:35:12Z</time>
</trkpt>
<trkpt lat="48.021969" lon="10.587448">
<ele>576.68</ele>
<time>2020-09-10T16:35:13Z</time>
</trkpt>
<trkpt lat="48.021931" lon="10.587515">
<ele>576.68</ele>
<time>2020-09-10T16:35:14Z</time>
</trkpt>
<trkpt lat="48.021885" lon="10.587579">
<ele>576.68</ele>
<time>2020-09-10T16:35:15Z</time>
</trkpt>
<trkpt lat="48.021843" lon="10.587639">
<ele>576.68</ele>
<time>2020-09-10T16:35:16Z</time>
</trkpt>
<trkpt lat="48.021801" lon="10.587696">
<ele>576.68</ele>
<time>2020-09-10T16:35:17Z</time>
</trkpt>
<trkpt lat="48.021755" lon="10.587752">
<ele>576.68</ele>
<time>2020-09-10T16:35:18Z</time>
</trkpt>
<trkpt lat="48.021709" lon="10.587809">
<ele>576.68</ele>
<time>2020-09-10T16:35:19Z</time>
</trkpt>
<trkpt lat="48.021667" lon="10.587861">
<ele>576.68</ele>
<time>2020-09-10T16:35:20Z</time>
</trkpt>
<trkpt lat="48.021618" lon="10.587916">
<ele>576.68</ele>
<time>2020-09-10T16:35:21Z</time>
</trkpt>
<trkpt lat="48.021576" lon="10.587972">
<ele>576.894</ele>
<time>2020-09-10T16:35:22Z</time>
</trkpt>
<trkpt lat="48.021526" lon="10.588025">
<ele>577.045</ele>
<time>2020-09-10T16:35:23Z</time>
</trkpt>
<trkpt lat="48.021481" lon="10.588078">
<ele>577.202</ele>
<time>2020-09-10T16:35:24Z</time>
</trkpt>
<trkpt lat="48.021435" lon="10.58813">
<ele>577.327</ele>
<time>2020-09-10T16:35:25Z</time>
</trkpt>
<trkpt lat="48.021385" lon="10.588181">
<ele>577.425</ele>
<time>2020-09-10T16:35:26Z</time>
</trkpt>
<trkpt lat="48.021336" lon="10.58823">
<ele>577.47</ele>
<time>2020-09-10T16:35:27Z</time>
</trkpt>
<trkpt lat="48.021286" lon="10.588277">
<ele>577.243</ele>
<time>2020-09-10T16:35:28Z</time>
</trkpt>
<trkpt lat="48.021236" lon="10.588324">
<ele>577.045</ele>
<time>2020-09-10T16:35:29Z</time>
</trkpt>
<trkpt lat="48.021187" lon="10.588368">
<ele>576.874</ele>
<time>2020-09-10T16:35:30Z</time>
</trkpt>
<trkpt lat="48.021137" lon="10.588413">
<ele>576.746</ele>
<time>2020-09-10T16:35:31Z</time>
</trkpt>
<trkpt lat="48.021088" lon="10.58846">
<ele>576.658</ele>
<time>2020-09-10T16:35:32Z</time>
</trkpt>
<trkpt lat="48.021038" lon="10.588507">
<ele>576.592</ele>
<time>2020-09-10T16:35:33Z</time>
</trkpt>
<trkpt lat="48.020985" lon="10.588552">
<ele>576.533</ele>
<time>2020-09-10T16:35:34Z</time>
</trkpt>
<trkpt lat="48.020931" lon="10.588593">
<ele>576.505</ele>
<time>2020-09-10T16:35:35Z</time>
</trkpt>
<trkpt lat="48.020882" lon="10.588626">
<ele>576.504</ele>
<time>2020-09-10T16:35:36Z</time>
</trkpt>
<trkpt lat="48.020828" lon="10.588655">
<ele>576.505</ele>
<time>2020-09-10T16:35:37Z</time>
</trkpt>
<trkpt lat="48.020767" lon="10.588675">
<ele>576.505</ele>
<time>2020-09-10T16:35:38Z</time>
</trkpt>
<trkpt lat="48.020718" lon="10.588685">
<ele>576.505</ele>
<time>2020-09-10T16:35:39Z</time>
</trkpt>
<trkpt lat="48.020664" lon="10.588696">
<ele>576.726</ele>
<time>2020-09-10T16:35:40Z</time>
</trkpt>
<trkpt lat="48.020607" lon="10.588707">
<ele>576.902</ele>
<time>2020-09-10T16:35:41Z</time>
</trkpt>
<trkpt lat="48.020554" lon="10.58872">
<ele>577.039</ele>
<time>2020-09-10T16:35:42Z</time>
</trkpt>
<trkpt lat="48.0205" lon="10.588735">
<ele>577.134</ele>
<time>2020-09-10T16:35:43Z</time>
</trkpt>
<trkpt lat="48.020443" lon="10.58875">
<ele>577.239</ele>
<time>2020-09-10T16:35:44Z</time>
</trkpt>
<trkpt lat="48.02039" lon="10.588764">
<ele>577.312</ele>
<time>2020-09-10T16:35:45Z</time>
</trkpt>
<trkpt lat="48.020336" lon="10.588778">
<ele>577.36</ele>
<time>2020-09-10T16:35:46Z</time>
</trkpt>
<trkpt lat="48.020279" lon="10.588794">
<ele>577.383</ele>
<time>2020-09-10T16:35:47Z</time>
</trkpt>
<trkpt lat="48.020229" lon="10.588804">
<ele>577.383</ele>
<time>2020-09-10T16:35:48Z</time>
</trkpt>
<trkpt lat="48.020176" lon="10.588815">
<ele>577.383</ele>
<time>2020-09-10T16:35:49Z</time>
</trkpt>
<trkpt lat="48.020134" lon="10.588823">
<ele>577.383</ele>
<time>2020-09-10T16:35:50Z</time>
</trkpt>
<trkpt lat="48.020088" lon="10.588834">
<ele>577.383</ele>
<time>2020-09-10T16:35:51Z</time>
</trkpt>
<trkpt lat="48.020042" lon="10.588845">
<ele>577.383</ele>
<time>2020-09-10T16:35:52Z</time>
</trkpt>
<trkpt lat="48.019997" lon="10.588857">
<ele>577.383</ele>
<time>2020-09-10T16:35:53Z</time>
</trkpt>
<trkpt lat="48.019955" lon="10.588871">
<ele>577.383</ele>
<time>2020-09-10T16:35:54Z</time>
</trkpt>
<trkpt lat="48.019917" lon="10.588897">
<ele>577.383</ele>
<time>2020-09-10T16:35:55Z</time>
</trkpt>
<trkpt lat="48.019875" lon="10.588928">
<ele>577.383</ele>
<time>2020-09-10T16:35:56Z</time>
</trkpt>
<trkpt lat="48.019836" lon="10.588968">
<ele>577.383</ele>
<time>2020-09-10T16:35:57Z</time>
</trkpt>
<trkpt lat="48.019794" lon="10.589004">
<ele>577.383</ele>
<time>2020-09-10T16:35:58Z</time>
</trkpt>
<trkpt lat="48.019749" lon="10.589039">
<ele>577.383</ele>
<time>2020-09-10T16:35:59Z</time>
</trkpt>
<trkpt lat="48.019695" lon="10.589072">
<ele>577.383</ele>
<time>2020-09-10T16:36:00Z</time>
</trkpt>
<trkpt lat="48.019646" lon="10.589098">
<ele>577.383</ele>
<time>2020-09-10T16:36:01Z</time>
</trkpt>
<trkpt lat="48.019592" lon="10.589128">
<ele>577.383</ele>
<time>2020-09-10T16:36:02Z</time>
</trkpt>
<trkpt lat="48.019543" lon="10.589158">
<ele>577.383</ele>
<time>2020-09-10T16:36:03Z</time>
</trkpt>
<trkpt lat="48.019493" lon="10.589187">
<ele>577.383</ele>
<time>2020-09-10T16:36:04Z</time>
</trkpt>
<trkpt lat="48.01944" lon="10.589212">
<ele>577.383</ele>
<time>2020-09-10T16:36:05Z</time>
</trkpt>
<trkpt lat="48.01939" lon="10.589233">
<ele>577.383</ele>
<time>2020-09-10T16:36:06Z</time>
</trkpt>
<trkpt lat="48.019341" lon="10.589258">
<ele>577.383</ele>
<time>2020-09-10T16:36:07Z</time>
</trkpt>
<trkpt lat="48.019291" lon="10.589286">
<ele>577.383</ele>
<time>2020-09-10T16:36:08Z</time>
</trkpt>
<trkpt lat="48.019238" lon="10.589312">
<ele>577.383</ele>
<time>2020-09-10T16:36:09Z</time>
</trkpt>
<trkpt lat="48.019188" lon="10.589342">
<ele>577.383</ele>
<time>2020-09-10T16:36:10Z</time>
</trkpt>
<trkpt lat="48.019135" lon="10.589372">
<ele>577.383</ele>
<time>2020-09-10T16:36:11Z</time>
</trkpt>
<trkpt lat="48.019081" lon="10.589405">
<ele>577.383</ele>
<time>2020-09-10T16:36:12Z</time>
</trkpt>
<trkpt lat="48.019024" lon="10.589437">
<ele>577.383</ele>
<time>2020-09-10T16:36:13Z</time>
</trkpt>
<trkpt lat="48.01897" lon="10.589468">
<ele>577.383</ele>
<time>2020-09-10T16:36:14Z</time>
</trkpt>
<trkpt lat="48.018917" lon="10.589499">
<ele>577.383</ele>
<time>2020-09-10T16:36:15Z</time>
</trkpt>
<trkpt lat="48.018864" lon="10.589533">
<ele>577.383</ele>
<time>2020-09-10T16:36:16Z</time>
</trkpt>
<trkpt lat="48.018806" lon="10.589571">
<ele>577.383</ele>
<time>2020-09-10T16:36:17Z</time>
</trkpt>
<trkpt lat="48.018745" lon="10.589606">
<ele>577.383</ele>
<time>2020-09-10T16:36:18Z</time>
</trkpt>
<trkpt lat="48.018688" lon="10.589643">
<ele>577.666</ele>
<time>2020-09-10T16:36:19Z</time>
</trkpt>
<trkpt lat="48.018631" lon="10.589675">
<ele>577.886</ele>
<time>2020-09-10T16:36:20Z</time>
</trkpt>
<trkpt lat="48.01857" lon="10.589701">
<ele>578.054</ele>
<time>2020-09-10T16:36:21Z</time>
</trkpt>
<trkpt lat="48.018505" lon="10.58972">
<ele>578.182</ele>
<time>2020-09-10T16:36:22Z</time>
</trkpt>
<trkpt lat="48.018444" lon="10.589732">
<ele>578.268</ele>
<time>2020-09-10T16:36:23Z</time>
</trkpt>
<trkpt lat="48.018379" lon="10.589742">
<ele>578.355</ele>
<time>2020-09-10T16:36:24Z</time>
</trkpt>
<trkpt lat="48.018314" lon="10.58975">
<ele>578.41</ele>
<time>2020-09-10T16:36:25Z</time>
</trkpt>
<trkpt lat="48.018253" lon="10.589753">
<ele>578.437</ele>
<time>2020-09-10T16:36:26Z</time>
</trkpt>
<trkpt lat="48.018188" lon="10.589757">
<ele>578.437</ele>
<time>2020-09-10T16:36:27Z</time>
</trkpt>
<trkpt lat="48.018124" lon="10.589758">
<ele>578.437</ele>
<time>2020-09-10T16:36:28Z</time>
</trkpt>
<trkpt lat="48.018059" lon="10.58976">
<ele>578.437</ele>
<time>2020-09-10T16:36:29Z</time>
</trkpt>
<trkpt lat="48.017994" lon="10.589762">
<ele>578.437</ele>
<time>2020-09-10T16:36:30Z</time>
</trkpt>
<trkpt lat="48.017929" lon="10.589768">
<ele>578.437</ele>
<time>2020-09-10T16:36:31Z</time>
</trkpt>
<trkpt lat="48.017864" lon="10.589774">
<ele>578.437</ele>
<time>2020-09-10T16:36:32Z</time>
</trkpt>
<trkpt lat="48.017803" lon="10.589787">
<ele>578.437</ele>
<time>2020-09-10T16:36:33Z</time>
</trkpt>
<trkpt lat="48.017746" lon="10.589799">
<ele>578.437</ele>
<time>2020-09-10T16:36:34Z</time>
</trkpt>
<trkpt lat="48.017685" lon="10.589815">
<ele>578.437</ele>
<time>2020-09-10T16:36:35Z</time>
</trkpt>
<trkpt lat="48.017628" lon="10.589831">
<ele>578.437</ele>
<time>2020-09-10T16:36:36Z</time>
</trkpt>
<trkpt lat="48.017567" lon="10.589849">
<ele>578.727</ele>
<time>2020-09-10T16:36:37Z</time>
</trkpt>
<trkpt lat="48.017506" lon="10.589867">
<ele>578.958</ele>
<time>2020-09-10T16:36:38Z</time>
</trkpt>
<trkpt lat="48.017448" lon="10.589881">
<ele>579.134</ele>
<time>2020-09-10T16:36:39Z</time>
</trkpt>
<trkpt lat="48.017391" lon="10.5899">
<ele>579.266</ele>
<time>2020-09-10T16:36:40Z</time>
</trkpt>
<trkpt lat="48.017334" lon="10.589914">
<ele>579.358</ele>
<time>2020-09-10T16:36:41Z</time>
</trkpt>
<trkpt lat="48.017277" lon="10.589933">
<ele>579.415</ele>
<time>2020-09-10T16:36:42Z</time>
</trkpt>
<trkpt lat="48.01722" lon="10.589952">
<ele>579.461</ele>
<time>2020-09-10T16:36:43Z</time>
</trkpt>
<trkpt lat="48.017162" lon="10.589972">
<ele>579.491</ele>
<time>2020-09-10T16:36:44Z</time>
</trkpt>
<trkpt lat="48.017105" lon="10.589994">
<ele>579.491</ele>
<time>2020-09-10T16:36:45Z</time>
</trkpt>
<trkpt lat="48.017048" lon="10.590018">
<ele>579.491</ele>
<time>2020-09-10T16:36:46Z</time>
</trkpt>
<trkpt lat="48.016987" lon="10.59004">
<ele>579.491</ele>
<time>2020-09-10T16:36:47Z</time>
</trkpt>
<trkpt lat="48.016926" lon="10.590059">
<ele>579.491</ele>
<time>2020-09-10T16:36:48Z</time>
</trkpt>
<trkpt lat="48.016865" lon="10.590078">
<ele>579.491</ele>
<time>2020-09-10T16:36:49Z</time>
</trkpt>
<trkpt lat="48.016808" lon="10.590101">
<ele>579.491</ele>
<time>2020-09-10T16:36:50Z</time>
</trkpt>
<trkpt lat="48.016754" lon="10.590122">
<ele>579.491</ele>
<time>2020-09-10T16:36:51Z</time>
</trkpt>
<trkpt lat="48.016693" lon="10.590141">
<ele>579.491</ele>
<time>2020-09-10T16:36:52Z</time>
</trkpt>
<trkpt lat="48.016636" lon="10.590165">
<ele>579.491</ele>
<time>2020-09-10T16:36:53Z</time>
</trkpt>
<trkpt lat="48.016579" lon="10.590187">
<ele>579.491</ele>
<time>2020-09-10T16:36:54Z</time>
</trkpt>
<trkpt lat="48.016518" lon="10.590206">
<ele>579.491</ele>
<time>2020-09-10T16:36:55Z</time>
</trkpt>
<trkpt lat="48.01646" lon="10.590227">
<ele>579.491</ele>
<time>2020-09-10T16:36:56Z</time>
</trkpt>
<trkpt lat="48.016399" lon="10.590247">
<ele>579.491</ele>
<time>2020-09-10T16:36:57Z</time>
</trkpt>
<trkpt lat="48.016346" lon="10.590266">
<ele>579.491</ele>
<time>2020-09-10T16:36:58Z</time>
</trkpt>
<trkpt lat="48.016285" lon="10.590288">
<ele>579.491</ele>
<time>2020-09-10T16:36:59Z</time>
</trkpt>
<trkpt lat="48.016228" lon="10.59031">
<ele>579.491</ele>
<time>2020-09-10T16:37:00Z</time>
</trkpt>
<trkpt lat="48.016167" lon="10.59033">
<ele>579.491</ele>
<time>2020-09-10T16:37:01Z</time>
</trkpt>
<trkpt lat="48.016109" lon="10.590352">
<ele>579.491</ele>
<time>2020-09-10T16:37:02Z</time>
</trkpt>
<trkpt lat="48.016056" lon="10.590369">
<ele>579.491</ele>
<time>2020-09-10T16:37:03Z</time>
</trkpt>
<trkpt lat="48.016003" lon="10.590388">
<ele>579.491</ele>
<time>2020-09-10T16:37:04Z</time>
</trkpt>
<trkpt lat="48.015945" lon="10.590406">
<ele>579.491</ele>
<time>2020-09-10T16:37:05Z</time>
</trkpt>
<trkpt lat="48.015892" lon="10.590426">
<ele>579.491</ele>
<time>2020-09-10T16:37:06Z</time>
</trkpt>
<trkpt lat="48.015835" lon="10.590445">
<ele>579.491</ele>
<time>2020-09-10T16:37:07Z</time>
</trkpt>
<trkpt lat="48.015778" lon="10.590466">
<ele>579.491</ele>
<time>2020-09-10T16:37:08Z</time>
</trkpt>
<trkpt lat="48.015724" lon="10.590487">
<ele>579.491</ele>
<time>2020-09-10T16:37:09Z</time>
</trkpt>
<trkpt lat="48.015675" lon="10.590508">
<ele>579.491</ele>
<time>2020-09-10T16:37:10Z</time>
</trkpt>
<trkpt lat="48.015614" lon="10.590532">
<ele>579.491</ele>
<time>2020-09-10T16:37:11Z</time>
</trkpt>
<trkpt lat="48.01556" lon="10.590551">
<ele>579.491</ele>
<time>2020-09-10T16:37:12Z</time>
</trkpt>
<trkpt lat="48.015503" lon="10.590573">
<ele>579.491</ele>
<time>2020-09-10T16:37:13Z</time>
</trkpt>
<trkpt lat="48.01545" lon="10.590593">
<ele>579.491</ele>
<time>2020-09-10T16:37:14Z</time>
</trkpt>
<trkpt lat="48.015388" lon="10.590616">
<ele>579.491</ele>
<time>2020-09-10T16:37:15Z</time>
</trkpt>
<trkpt lat="48.015335" lon="10.590637">
<ele>579.491</ele>
<time>2020-09-10T16:37:16Z</time>
</trkpt>
<trkpt lat="48.015278" lon="10.590658">
<ele>579.491</ele>
<time>2020-09-10T16:37:17Z</time>
</trkpt>
<trkpt lat="48.015221" lon="10.590677">
<ele>579.491</ele>
<time>2020-09-10T16:37:18Z</time>
</trkpt>
<trkpt lat="48.015163" lon="10.590695">
<ele>579.491</ele>
<time>2020-09-10T16:37:19Z</time>
</trkpt>
<trkpt lat="48.01511" lon="10.590712">
<ele>579.491</ele>
<time>2020-09-10T16:37:20Z</time>
</trkpt>
<trkpt lat="48.015053" lon="10.59073">
<ele>579.491</ele>
<time>2020-09-10T16:37:21Z</time>
</trkpt>
<trkpt lat="48.014992" lon="10.590752">
<ele>579.726</ele>
<time>2020-09-10T16:37:22Z</time>
</trkpt>
<trkpt lat="48.014938" lon="10.590772">
<ele>579.893</ele>
<time>2020-09-10T16:37:23Z</time>
</trkpt>
<trkpt lat="48.014885" lon="10.590792">
<ele>580.066</ele>
<time>2020-09-10T16:37:24Z</time>
</trkpt>
<trkpt lat="48.014832" lon="10.590812">
<ele>580.201</ele>
<time>2020-09-10T16:37:25Z</time>
</trkpt>
<trkpt lat="48.014774" lon="10.590832">
<ele>580.308</ele>
<time>2020-09-10T16:37:26Z</time>
</trkpt>
<trkpt lat="48.014721" lon="10.590853">
<ele>580.384</ele>
<time>2020-09-10T16:37:27Z</time>
</trkpt>
<trkpt lat="48.014668" lon="10.590878">
<ele>580.433</ele>
<time>2020-09-10T16:37:28Z</time>
</trkpt>
<trkpt lat="48.01461" lon="10.590907">
<ele>580.457</ele>
<time>2020-09-10T16:37:29Z</time>
</trkpt>
<trkpt lat="48.014557" lon="10.590935">
<ele>580.457</ele>
<time>2020-09-10T16:37:30Z</time>
</trkpt>
<trkpt lat="48.0145" lon="10.590963">
<ele>580.679</ele>
<time>2020-09-10T16:37:31Z</time>
</trkpt>
<trkpt lat="48.014442" lon="10.590992">
<ele>580.855</ele>
<time>2020-09-10T16:37:32Z</time>
</trkpt>
<trkpt lat="48.014389" lon="10.591019">
<ele>580.974</ele>
<time>2020-09-10T16:37:33Z</time>
</trkpt>
<trkpt lat="48.014336" lon="10.591045">
<ele>581.103</ele>
<time>2020-09-10T16:37:34Z</time>
</trkpt>
<trkpt lat="48.014275" lon="10.591071">
<ele>581.199</ele>
<time>2020-09-10T16:37:35Z</time>
</trkpt>
<trkpt lat="48.014217" lon="10.591098">
<ele>581.269</ele>
<time>2020-09-10T16:37:36Z</time>
</trkpt>
<trkpt lat="48.01416" lon="10.591127">
<ele>581.315</ele>
<time>2020-09-10T16:37:37Z</time>
</trkpt>
<trkpt lat="48.014107" lon="10.591157">
<ele>581.336</ele>
<time>2020-09-10T16:37:38Z</time>
</trkpt>
<trkpt lat="48.014046" lon="10.591187">
<ele>581.336</ele>
<time>2020-09-10T16:37:39Z</time>
</trkpt>
<trkpt lat="48.013992" lon="10.591215">
<ele>581.336</ele>
<time>2020-09-10T16:37:40Z</time>
</trkpt>
<trkpt lat="48.013939" lon="10.591242">
<ele>581.336</ele>
<time>2020-09-10T16:37:41Z</time>
</trkpt>
<trkpt lat="48.013885" lon="10.591267">
<ele>581.336</ele>
<time>2020-09-10T16:37:42Z</time>
</trkpt>
<trkpt lat="48.013832" lon="10.591289">
<ele>581.336</ele>
<time>2020-09-10T16:37:43Z</time>
</trkpt>
<trkpt lat="48.013779" lon="10.591304">
<ele>581.336</ele>
<time>2020-09-10T16:37:44Z</time>
</trkpt>
<trkpt lat="48.013721" lon="10.591313">
<ele>581.336</ele>
<time>2020-09-10T16:37:45Z</time>
</trkpt>
<trkpt lat="48.01366" lon="10.591318">
<ele>581.336</ele>
<time>2020-09-10T16:37:46Z</time>
</trkpt>
<trkpt lat="48.013603" lon="10.591315">
<ele>581.336</ele>
<time>2020-09-10T16:37:47Z</time>
</trkpt>
<trkpt lat="48.013546" lon="10.591307">
<ele>581.336</ele>
<time>2020-09-10T16:37:48Z</time>
</trkpt>
<trkpt lat="48.013489" lon="10.591295">
<ele>581.336</ele>
<time>2020-09-10T16:37:49Z</time>
</trkpt>
<trkpt lat="48.013428" lon="10.591285">
<ele>581.336</ele>
<time>2020-09-10T16:37:50Z</time>
</trkpt>
<trkpt lat="48.013367" lon="10.59127">
<ele>581.336</ele>
<time>2020-09-10T16:37:51Z</time>
</trkpt>
<trkpt lat="48.013309" lon="10.591253">
<ele>581.336</ele>
<time>2020-09-10T16:37:52Z</time>
</trkpt>
<trkpt lat="48.01326" lon="10.591238">
<ele>581.336</ele>
<time>2020-09-10T16:37:53Z</time>
</trkpt>
<trkpt lat="48.013203" lon="10.591224">
<ele>581.336</ele>
<time>2020-09-10T16:37:54Z</time>
</trkpt>
<trkpt lat="48.013161" lon="10.591207">
<ele>581.336</ele>
<time>2020-09-10T16:37:55Z</time>
</trkpt>
<trkpt lat="48.013111" lon="10.591188">
<ele>581.336</ele>
<time>2020-09-10T16:37:56Z</time>
</trkpt>
<trkpt lat="48.013065" lon="10.591169">
<ele>581.617</ele>
<time>2020-09-10T16:37:57Z</time>
</trkpt>
<trkpt lat="48.013027" lon="10.591157">
<ele>581.838</ele>
<time>2020-09-10T16:37:58Z</time>
</trkpt>
<trkpt lat="48.012985" lon="10.591145">
<ele>582.014</ele>
<time>2020-09-10T16:37:59Z</time>
</trkpt>
<trkpt lat="48.012943" lon="10.59113">
<ele>582.147</ele>
<time>2020-09-10T16:38:00Z</time>
</trkpt>
<trkpt lat="48.012897" lon="10.591124">
<ele>582.243</ele>
<time>2020-09-10T16:38:01Z</time>
</trkpt>
<trkpt lat="48.012852" lon="10.591115">
<ele>582.307</ele>
<time>2020-09-10T16:38:02Z</time>
</trkpt>
<trkpt lat="48.012806" lon="10.591105">
<ele>582.36</ele>
<time>2020-09-10T16:38:03Z</time>
</trkpt>
<trkpt lat="48.012756" lon="10.591098">
<ele>582.628</ele>
<time>2020-09-10T16:38:04Z</time>
</trkpt>
<trkpt lat="48.012711" lon="10.591092">
<ele>582.831</ele>
<time>2020-09-10T16:38:05Z</time>
</trkpt>
<trkpt lat="48.012661" lon="10.591088">
<ele>583.001</ele>
<time>2020-09-10T16:38:06Z</time>
</trkpt>
<trkpt lat="48.012611" lon="10.591094">
<ele>583.126</ele>
<time>2020-09-10T16:38:07Z</time>
</trkpt>
<trkpt lat="48.012562" lon="10.591102">
<ele>583.223</ele>
<time>2020-09-10T16:38:08Z</time>
</trkpt>
<trkpt lat="48.012516" lon="10.591113">
<ele>583.289</ele>
<time>2020-09-10T16:38:09Z</time>
</trkpt>
<trkpt lat="48.012474" lon="10.591127">
<ele>583.335</ele>
<time>2020-09-10T16:38:10Z</time>
</trkpt>
<trkpt lat="48.012432" lon="10.591138">
<ele>583.357</ele>
<time>2020-09-10T16:38:11Z</time>
</trkpt>
<trkpt lat="48.01239" lon="10.59115">
<ele>583.357</ele>
<time>2020-09-10T16:38:12Z</time>
</trkpt>
<trkpt lat="48.012348" lon="10.591162">
<ele>583.357</ele>
<time>2020-09-10T16:38:13Z</time>
</trkpt>
<trkpt lat="48.012306" lon="10.591171">
<ele>583.357</ele>
<time>2020-09-10T16:38:14Z</time>
</trkpt>
<trkpt lat="48.012264" lon="10.591178">
<ele>583.357</ele>
<time>2020-09-10T16:38:15Z</time>
</trkpt>
<trkpt lat="48.012222" lon="10.591185">
<ele>583.357</ele>
<time>2020-09-10T16:38:16Z</time>
</trkpt>
<trkpt lat="48.01218" lon="10.591199">
<ele>583.357</ele>
<time>2020-09-10T16:38:17Z</time>
</trkpt>
<trkpt lat="48.012138" lon="10.591211">
<ele>583.357</ele>
<time>2020-09-10T16:38:18Z</time>
</trkpt>
<trkpt lat="48.012077" lon="10.591233">
<ele>583.357</ele>
<time>2020-09-10T16:38:19Z</time>
</trkpt>
<trkpt lat="48.012009" lon="10.591255">
<ele>583.357</ele>
<time>2020-09-10T16:38:20Z</time>
</trkpt>
<trkpt lat="48.011963" lon="10.591276">
<ele>583.357</ele>
<time>2020-09-10T16:38:21Z</time>
</trkpt>
<trkpt lat="48.011909" lon="10.591293">
<ele>583.357</ele>
<time>2020-09-10T16:38:22Z</time>
</trkpt>
<trkpt lat="48.01186" lon="10.591306">
<ele>583.357</ele>
<time>2020-09-10T16:38:23Z</time>
</trkpt>
<trkpt lat="48.01181" lon="10.591322">
<ele>583.357</ele>
<time>2020-09-10T16:38:24Z</time>
</trkpt>
<trkpt lat="48.011761" lon="10.59134">
<ele>583.357</ele>
<time>2020-09-10T16:38:25Z</time>
</trkpt>
<trkpt lat="48.011711" lon="10.59136">
<ele>583.357</ele>
<time>2020-09-10T16:38:26Z</time>
</trkpt>
<trkpt lat="48.011662" lon="10.591385">
<ele>583.357</ele>
<time>2020-09-10T16:38:27Z</time>
</trkpt>
<trkpt lat="48.011608" lon="10.591411">
<ele>583.357</ele>
<time>2020-09-10T16:38:28Z</time>
</trkpt>
<trkpt lat="48.011562" lon="10.591434">
<ele>583.357</ele>
<time>2020-09-10T16:38:29Z</time>
</trkpt>
<trkpt lat="48.01152" lon="10.591454">
<ele>583.357</ele>
<time>2020-09-10T16:38:30Z</time>
</trkpt>
<trkpt lat="48.011478" lon="10.591478">
<ele>583.357</ele>
<time>2020-09-10T16:38:31Z</time>
</trkpt>
<trkpt lat="48.011433" lon="10.591498">
<ele>583.357</ele>
<time>2020-09-10T16:38:32Z</time>
</trkpt>
<trkpt lat="48.011379" lon="10.591516">
<ele>583.357</ele>
<time>2020-09-10T16:38:33Z</time>
</trkpt>
<trkpt lat="48.01133" lon="10.591534">
<ele>583.357</ele>
<time>2020-09-10T16:38:34Z</time>
</trkpt>
<trkpt lat="48.01128" lon="10.591549">
<ele>583.357</ele>
<time>2020-09-10T16:38:35Z</time>
</trkpt>
<trkpt lat="48.011227" lon="10.591572">
<ele>583.357</ele>
<time>2020-09-10T16:38:36Z</time>
</trkpt>
<trkpt lat="48.011173" lon="10.59159">
<ele>583.357</ele>
<time>2020-09-10T16:38:37Z</time>
</trkpt>
<trkpt lat="48.011116" lon="10.591605">
<ele>583.357</ele>
<time>2020-09-10T16:38:38Z</time>
</trkpt>
<trkpt lat="48.011066" lon="10.591621">
<ele>583.357</ele>
<time>2020-09-10T16:38:39Z</time>
</trkpt>
<trkpt lat="48.011017" lon="10.591643">
<ele>583.357</ele>
<time>2020-09-10T16:38:40Z</time>
</trkpt>
<trkpt lat="48.010963" lon="10.591668">
<ele>583.357</ele>
<time>2020-09-10T16:38:41Z</time>
</trkpt>
<trkpt lat="48.010914" lon="10.591689">
<ele>583.357</ele>
<time>2020-09-10T16:38:42Z</time>
</trkpt>
<trkpt lat="48.010864" lon="10.591697">
<ele>583.357</ele>
<time>2020-09-10T16:38:43Z</time>
</trkpt>
<trkpt lat="48.010822" lon="10.59169">
<ele>583.357</ele>
<time>2020-09-10T16:38:44Z</time>
</trkpt>
<trkpt lat="48.010777" lon="10.591685">
<ele>583.357</ele>
<time>2020-09-10T16:38:45Z</time>
</trkpt>
<trkpt lat="48.010723" lon="10.591685">
<ele>583.357</ele>
<time>2020-09-10T16:38:46Z</time>
</trkpt>
<trkpt lat="48.010666" lon="10.591681">
<ele>583.357</ele>
<time>2020-09-10T16:38:47Z</time>
</trkpt>
<trkpt lat="48.010616" lon="10.591679">
<ele>583.357</ele>
<time>2020-09-10T16:38:48Z</time>
</trkpt>
<trkpt lat="48.010559" lon="10.591681">
<ele>583.357</ele>
<time>2020-09-10T16:38:49Z</time>
</trkpt>
<trkpt lat="48.010506" lon="10.591687">
<ele>583.357</ele>
<time>2020-09-10T16:38:50Z</time>
</trkpt>
<trkpt lat="48.010452" lon="10.59169">
<ele>583.357</ele>
<time>2020-09-10T16:38:51Z</time>
</trkpt>
<trkpt lat="48.010403" lon="10.591693">
<ele>583.357</ele>
<time>2020-09-10T16:38:52Z</time>
</trkpt>
<trkpt lat="48.010357" lon="10.591698">
<ele>583.357</ele>
<time>2020-09-10T16:38:53Z</time>
</trkpt>
<trkpt lat="48.010307" lon="10.591703">
<ele>583.357</ele>
<time>2020-09-10T16:38:54Z</time>
</trkpt>
<trkpt lat="48.010262" lon="10.59171">
<ele>583.357</ele>
<time>2020-09-10T16:38:55Z</time>
</trkpt>
<trkpt lat="48.010216" lon="10.591719">
<ele>583.357</ele>
<time>2020-09-10T16:38:56Z</time>
</trkpt>
<trkpt lat="48.01017" lon="10.591737">
<ele>583.357</ele>
<time>2020-09-10T16:38:57Z</time>
</trkpt>
<trkpt lat="48.010136" lon="10.591745">
<ele>583.357</ele>
<time>2020-09-10T16:38:58Z</time>
</trkpt>
<trkpt lat="48.010098" lon="10.591754">
<ele>583.357</ele>
<time>2020-09-10T16:38:59Z</time>
</trkpt>
<trkpt lat="48.010052" lon="10.591764">
<ele>583.357</ele>
<time>2020-09-10T16:39:00Z</time>
</trkpt>
<trkpt lat="48.010006" lon="10.591777">
<ele>583.357</ele>
<time>2020-09-10T16:39:01Z</time>
</trkpt>
<trkpt lat="48.009964" lon="10.59179">
<ele>583.357</ele>
<time>2020-09-10T16:39:02Z</time>
</trkpt>
<trkpt lat="48.009922" lon="10.591805">
<ele>583.357</ele>
<time>2020-09-10T16:39:03Z</time>
</trkpt>
<trkpt lat="48.00988" lon="10.59182">
<ele>583.357</ele>
<time>2020-09-10T16:39:04Z</time>
</trkpt>
<trkpt lat="48.009838" lon="10.591833">
<ele>583.357</ele>
<time>2020-09-10T16:39:05Z</time>
</trkpt>
<trkpt lat="48.009792" lon="10.591845">
<ele>583.357</ele>
<time>2020-09-10T16:39:06Z</time>
</trkpt>
<trkpt lat="48.009754" lon="10.591853">
<ele>583.357</ele>
<time>2020-09-10T16:39:07Z</time>
</trkpt>
<trkpt lat="48.009712" lon="10.591865">
<ele>583.663</ele>
<time>2020-09-10T16:39:08Z</time>
</trkpt>
<trkpt lat="48.009674" lon="10.591875">
<ele>583.9</ele>
<time>2020-09-10T16:39:09Z</time>
</trkpt>
<trkpt lat="48.009628" lon="10.591886">
<ele>584.092</ele>
<time>2020-09-10T16:39:10Z</time>
</trkpt>
<trkpt lat="48.00959" lon="10.591895">
<ele>584.231</ele>
<time>2020-09-10T16:39:11Z</time>
</trkpt>
<trkpt lat="48.009552" lon="10.591913">
<ele>584.327</ele>
<time>2020-09-10T16:39:12Z</time>
</trkpt>
<trkpt lat="48.009518" lon="10.591928">
<ele>584.4</ele>
<time>2020-09-10T16:39:13Z</time>
</trkpt>
<trkpt lat="48.00948" lon="10.591951">
<ele>584.467</ele>
<time>2020-09-10T16:39:14Z</time>
</trkpt>
<trkpt lat="48.009438" lon="10.591973">
<ele>584.499</ele>
<time>2020-09-10T16:39:15Z</time>
</trkpt>
<trkpt lat="48.009399" lon="10.591985">
<ele>584.5</ele>
<time>2020-09-10T16:39:16Z</time>
</trkpt>
<trkpt lat="48.009357" lon="10.591993">
<ele>584.499</ele>
<time>2020-09-10T16:39:17Z</time>
</trkpt>
<trkpt lat="48.009319" lon="10.592008">
<ele>584.499</ele>
<time>2020-09-10T16:39:18Z</time>
</trkpt>
<trkpt lat="48.009281" lon="10.592024">
<ele>584.499</ele>
<time>2020-09-10T16:39:19Z</time>
</trkpt>
<trkpt lat="48.009247" lon="10.592035">
<ele>584.499</ele>
<time>2020-09-10T16:39:20Z</time>
</trkpt>
<trkpt lat="48.009205" lon="10.59205">
<ele>584.74</ele>
<time>2020-09-10T16:39:21Z</time>
</trkpt>
<trkpt lat="48.009159" lon="10.592064">
<ele>584.932</ele>
<time>2020-09-10T16:39:22Z</time>
</trkpt>
<trkpt lat="48.009106" lon="10.59209">
<ele>585.064</ele>
<time>2020-09-10T16:39:23Z</time>
</trkpt>
<trkpt lat="48.00906" lon="10.592106">
<ele>585.213</ele>
<time>2020-09-10T16:39:24Z</time>
</trkpt>
<trkpt lat="48.009014" lon="10.59212">
<ele>585.322</ele>
<time>2020-09-10T16:39:25Z</time>
</trkpt>
<trkpt lat="48.008968" lon="10.59213">
<ele>585.397</ele>
<time>2020-09-10T16:39:26Z</time>
</trkpt>
<trkpt lat="48.008926" lon="10.592154">
<ele>585.444</ele>
<time>2020-09-10T16:39:27Z</time>
</trkpt>
<trkpt lat="48.008884" lon="10.592179">
<ele>585.466</ele>
<time>2020-09-10T16:39:28Z</time>
</trkpt>
<trkpt lat="48.008835" lon="10.592207">
<ele>585.466</ele>
<time>2020-09-10T16:39:29Z</time>
</trkpt>
<trkpt lat="48.008793" lon="10.592223">
<ele>585.466</ele>
<time>2020-09-10T16:39:30Z</time>
</trkpt>
<trkpt lat="48.008743" lon="10.592238">
<ele>585.466</ele>
<time>2020-09-10T16:39:31Z</time>
</trkpt>
<trkpt lat="48.008694" lon="10.592246">
<ele>585.466</ele>
<time>2020-09-10T16:39:32Z</time>
</trkpt>
<trkpt lat="48.00864" lon="10.592252">
<ele>585.466</ele>
<time>2020-09-10T16:39:33Z</time>
</trkpt>
<trkpt lat="48.008595" lon="10.592253">
<ele>585.466</ele>
<time>2020-09-10T16:39:34Z</time>
</trkpt>
<trkpt lat="48.008549" lon="10.592263">
<ele>585.466</ele>
<time>2020-09-10T16:39:35Z</time>
</trkpt>
<trkpt lat="48.008507" lon="10.592278">
<ele>585.466</ele>
<time>2020-09-10T16:39:36Z</time>
</trkpt>
<trkpt lat="48.008461" lon="10.592295">
<ele>585.466</ele>
<time>2020-09-10T16:39:37Z</time>
</trkpt>
<trkpt lat="48.008415" lon="10.592319">
<ele>585.466</ele>
<time>2020-09-10T16:39:38Z</time>
</trkpt>
<trkpt lat="48.008369" lon="10.592343">
<ele>585.466</ele>
<time>2020-09-10T16:39:39Z</time>
</trkpt>
<trkpt lat="48.008327" lon="10.592363">
<ele>585.466</ele>
<time>2020-09-10T16:39:40Z</time>
</trkpt>
<trkpt lat="48.008286" lon="10.592381">
<ele>585.466</ele>
<time>2020-09-10T16:39:41Z</time>
</trkpt>
<trkpt lat="48.008244" lon="10.592395">
<ele>585.466</ele>
<time>2020-09-10T16:39:42Z</time>
</trkpt>
<trkpt lat="48.008205" lon="10.59241">
<ele>585.466</ele>
<time>2020-09-10T16:39:43Z</time>
</trkpt>
<trkpt lat="48.008163" lon="10.59242">
<ele>585.466</ele>
<time>2020-09-10T16:39:44Z</time>
</trkpt>
<trkpt lat="48.008121" lon="10.59243">
<ele>585.466</ele>
<time>2020-09-10T16:39:45Z</time>
</trkpt>
<trkpt lat="48.008087" lon="10.59244">
<ele>585.466</ele>
<time>2020-09-10T16:39:46Z</time>
</trkpt>
<trkpt lat="48.008053" lon="10.592443">
<ele>585.466</ele>
<time>2020-09-10T16:39:47Z</time>
</trkpt>
<trkpt lat="48.008015" lon="10.592445">
<ele>585.696</ele>
<time>2020-09-10T16:39:48Z</time>
</trkpt>
<trkpt lat="48.00798" lon="10.592445">
<ele>585.88</ele>
<time>2020-09-10T16:39:49Z</time>
</trkpt>
<trkpt lat="48.007942" lon="10.592447">
<ele>586.025</ele>
<time>2020-09-10T16:39:50Z</time>
</trkpt>
<trkpt lat="48.007908" lon="10.592463">
<ele>586.132</ele>
<time>2020-09-10T16:39:51Z</time>
</trkpt>
<trkpt lat="48.007885" lon="10.592462">
<ele>586.209</ele>
<time>2020-09-10T16:39:52Z</time>
</trkpt>
<trkpt lat="48.007854" lon="10.592464">
<ele>586.267</ele>
<time>2020-09-10T16:39:53Z</time>
</trkpt>
<trkpt lat="48.007832" lon="10.592456">
<ele>586.322</ele>
<time>2020-09-10T16:39:54Z</time>
</trkpt>
<trkpt lat="48.007809" lon="10.592454">
<ele>586.345</ele>
<time>2020-09-10T16:39:55Z</time>
</trkpt>
<trkpt lat="48.007767" lon="10.592448">
<ele>586.345</ele>
<time>2020-09-10T16:39:56Z</time>
</trkpt>
<trkpt lat="48.007725" lon="10.592431">
<ele>586.345</ele>
<time>2020-09-10T16:39:57Z</time>
</trkpt>
<trkpt lat="48.007683" lon="10.592422">
<ele>586.345</ele>
<time>2020-09-10T16:39:58Z</time>
</trkpt>
<trkpt lat="48.007641" lon="10.592412">
<ele>586.345</ele>
<time>2020-09-10T16:39:59Z</time>
</trkpt>
<trkpt lat="48.007599" lon="10.592405">
<ele>586.345</ele>
<time>2020-09-10T16:40:00Z</time>
</trkpt>
<trkpt lat="48.007565" lon="10.592397">
<ele>586.345</ele>
<time>2020-09-10T16:40:01Z</time>
</trkpt>
<trkpt lat="48.007534" lon="10.592388">
<ele>586.121</ele>
<time>2020-09-10T16:40:02Z</time>
</trkpt>
<trkpt lat="48.007504" lon="10.592384">
<ele>585.974</ele>
<time>2020-09-10T16:40:03Z</time>
</trkpt>
<trkpt lat="48.007469" lon="10.592382">
<ele>585.837</ele>
<time>2020-09-10T16:40:04Z</time>
</trkpt>
<trkpt lat="48.00745" lon="10.592379">
<ele>585.721</ele>
<time>2020-09-10T16:40:05Z</time>
</trkpt>
<trkpt lat="48.007423" lon="10.592382">
<ele>585.624</ele>
<time>2020-09-10T16:40:06Z</time>
</trkpt>
<trkpt lat="48.007385" lon="10.592386">
<ele>585.545</ele>
<time>2020-09-10T16:40:07Z</time>
</trkpt>
<trkpt lat="48.007339" lon="10.592388">
<ele>585.493</ele>
<time>2020-09-10T16:40:08Z</time>
</trkpt>
<trkpt lat="48.007301" lon="10.592384">
<ele>585.466</ele>
<time>2020-09-10T16:40:09Z</time>
</trkpt>
<trkpt lat="48.007259" lon="10.592375">
<ele>585.466</ele>
<time>2020-09-10T16:40:10Z</time>
</trkpt>
<trkpt lat="48.007225" lon="10.592358">
<ele>585.466</ele>
<time>2020-09-10T16:40:11Z</time>
</trkpt>
<trkpt lat="48.007183" lon="10.59234">
<ele>585.466</ele>
<time>2020-09-10T16:40:12Z</time>
</trkpt>
<trkpt lat="48.007141" lon="10.592323">
<ele>585.466</ele>
<time>2020-09-10T16:40:13Z</time>
</trkpt>
<trkpt lat="48.007107" lon="10.592312">
<ele>585.466</ele>
<time>2020-09-10T16:40:14Z</time>
</trkpt>
<trkpt lat="48.00708" lon="10.592305">
<ele>585.466</ele>
<time>2020-09-10T16:40:15Z</time>
</trkpt>
<trkpt lat="48.007053" lon="10.592299">
<ele>585.466</ele>
<time>2020-09-10T16:40:16Z</time>
</trkpt>
<trkpt lat="48.007023" lon="10.592281">
<ele>585.466</ele>
<time>2020-09-10T16:40:17Z</time>
</trkpt>
<trkpt lat="48.006996" lon="10.592258">
<ele>585.466</ele>
<time>2020-09-10T16:40:18Z</time>
</trkpt>
<trkpt lat="48.006973" lon="10.592225">
<ele>585.466</ele>
<time>2020-09-10T16:40:19Z</time>
</trkpt>
<trkpt lat="48.006943" lon="10.592194">
<ele>585.466</ele>
<time>2020-09-10T16:40:20Z</time>
</trkpt>
<trkpt lat="48.006916" lon="10.592163">
<ele>585.466</ele>
<time>2020-09-10T16:40:21Z</time>
</trkpt>
<trkpt lat="48.006878" lon="10.592145">
<ele>585.466</ele>
<time>2020-09-10T16:40:22Z</time>
</trkpt>
<trkpt lat="48.006844" lon="10.592132">
<ele>585.466</ele>
<time>2020-09-10T16:40:23Z</time>
</trkpt>
<trkpt lat="48.006813" lon="10.592127">
<ele>585.466</ele>
<time>2020-09-10T16:40:24Z</time>
</trkpt>
<trkpt lat="48.006786" lon="10.592122">
<ele>585.466</ele>
<time>2020-09-10T16:40:25Z</time>
</trkpt>
<trkpt lat="48.006763" lon="10.59211">
<ele>585.466</ele>
<time>2020-09-10T16:40:26Z</time>
</trkpt>
<trkpt lat="48.006744" lon="10.592092">
<ele>585.466</ele>
<time>2020-09-10T16:40:27Z</time>
</trkpt>
<trkpt lat="48.006714" lon="10.592065">
<ele>585.466</ele>
<time>2020-09-10T16:40:28Z</time>
</trkpt>
<trkpt lat="48.006691" lon="10.592037">
<ele>585.466</ele>
<time>2020-09-10T16:40:29Z</time>
</trkpt>
<trkpt lat="48.006664" lon="10.592008">
<ele>585.466</ele>
<time>2020-09-10T16:40:30Z</time>
</trkpt>
<trkpt lat="48.006641" lon="10.591983">
<ele>585.466</ele>
<time>2020-09-10T16:40:31Z</time>
</trkpt>
<trkpt lat="48.006615" lon="10.591962">
<ele>585.466</ele>
<time>2020-09-10T16:40:32Z</time>
</trkpt>
<trkpt lat="48.00658" lon="10.591942">
<ele>585.466</ele>
<time>2020-09-10T16:40:33Z</time>
</trkpt>
<trkpt lat="48.006542" lon="10.591922">
<ele>585.466</ele>
<time>2020-09-10T16:40:34Z</time>
</trkpt>
<trkpt lat="48.0065" lon="10.591902">
<ele>585.466</ele>
<time>2020-09-10T16:40:35Z</time>
</trkpt>
<trkpt lat="48.006466" lon="10.591886">
<ele>585.466</ele>
<time>2020-09-10T16:40:36Z</time>
</trkpt>
<trkpt lat="48.006424" lon="10.591859">
<ele>585.466</ele>
<time>2020-09-10T16:40:37Z</time>
</trkpt>
<trkpt lat="48.006386" lon="10.591824">
<ele>585.466</ele>
<time>2020-09-10T16:40:38Z</time>
</trkpt>
<trkpt lat="48.006344" lon="10.591796">
<ele>585.466</ele>
<time>2020-09-10T16:40:39Z</time>
</trkpt>
<trkpt lat="48.006302" lon="10.591768">
<ele>585.466</ele>
<time>2020-09-10T16:40:40Z</time>
</trkpt>
<trkpt lat="48.00626" lon="10.591728">
<ele>585.466</ele>
<time>2020-09-10T16:40:41Z</time>
</trkpt>
<trkpt lat="48.006222" lon="10.591695">
<ele>585.466</ele>
<time>2020-09-10T16:40:42Z</time>
</trkpt>
<trkpt lat="48.006195" lon="10.591661">
<ele>585.466</ele>
<time>2020-09-10T16:40:43Z</time>
</trkpt>
<trkpt lat="48.006157" lon="10.591635">
<ele>585.466</ele>
<time>2020-09-10T16:40:44Z</time>
</trkpt>
<trkpt lat="48.006126" lon="10.591603">
<ele>585.466</ele>
<time>2020-09-10T16:40:45Z</time>
</trkpt>
<trkpt lat="48.006088" lon="10.591568">
<ele>585.466</ele>
<time>2020-09-10T16:40:46Z</time>
</trkpt>
<trkpt lat="48.00605" lon="10.591535">
<ele>585.466</ele>
<time>2020-09-10T16:40:47Z</time>
</trkpt>
<trkpt lat="48.006008" lon="10.591507">
<ele>585.466</ele>
<time>2020-09-10T16:40:48Z</time>
</trkpt>
<trkpt lat="48.005962" lon="10.591481">
<ele>585.699</ele>
<time>2020-09-10T16:40:49Z</time>
</trkpt>
<trkpt lat="48.005917" lon="10.59146">
<ele>585.89</ele>
<time>2020-09-10T16:40:50Z</time>
</trkpt>
<trkpt lat="48.005867" lon="10.591435">
<ele>586.036</ele>
<time>2020-09-10T16:40:51Z</time>
</trkpt>
<trkpt lat="48.005825" lon="10.591404">
<ele>586.139</ele>
<time>2020-09-10T16:40:52Z</time>
</trkpt>
<trkpt lat="48.005775" lon="10.591375">
<ele>586.206</ele>
<time>2020-09-10T16:40:53Z</time>
</trkpt>
<trkpt lat="48.00573" lon="10.591335">
<ele>586.279</ele>
<time>2020-09-10T16:40:54Z</time>
</trkpt>
<trkpt lat="48.005684" lon="10.591298">
<ele>586.324</ele>
<time>2020-09-10T16:40:55Z</time>
</trkpt>
<trkpt lat="48.005638" lon="10.591264">
<ele>586.345</ele>
<time>2020-09-10T16:40:56Z</time>
</trkpt>
<trkpt lat="48.0056" lon="10.591228">
<ele>586.346</ele>
<time>2020-09-10T16:40:57Z</time>
</trkpt>
<trkpt lat="48.005562" lon="10.591195">
<ele>586.345</ele>
<time>2020-09-10T16:40:58Z</time>
</trkpt>
<trkpt lat="48.00552" lon="10.591159">
<ele>586.345</ele>
<time>2020-09-10T16:40:59Z</time>
</trkpt>
<trkpt lat="48.005482" lon="10.591124">
<ele>586.345</ele>
<time>2020-09-10T16:41:00Z</time>
</trkpt>
<trkpt lat="48.00544" lon="10.59109">
<ele>586.345</ele>
<time>2020-09-10T16:41:01Z</time>
</trkpt>
<trkpt lat="48.005402" lon="10.591057">
<ele>586.345</ele>
<time>2020-09-10T16:41:02Z</time>
</trkpt>
<trkpt lat="48.005356" lon="10.591028">
<ele>586.345</ele>
<time>2020-09-10T16:41:03Z</time>
</trkpt>
<trkpt lat="48.005314" lon="10.591002">
<ele>586.345</ele>
<time>2020-09-10T16:41:04Z</time>
</trkpt>
<trkpt lat="48.005276" lon="10.590975">
<ele>586.345</ele>
<time>2020-09-10T16:41:05Z</time>
</trkpt>
<trkpt lat="48.005234" lon="10.59095">
<ele>586.345</ele>
<time>2020-09-10T16:41:06Z</time>
</trkpt>
<trkpt lat="48.005188" lon="10.59093">
<ele>586.345</ele>
<time>2020-09-10T16:41:07Z</time>
</trkpt>
<trkpt lat="48.005154" lon="10.590897">
<ele>586.345</ele>
<time>2020-09-10T16:41:08Z</time>
</trkpt>
<trkpt lat="48.005116" lon="10.59088">
<ele>586.345</ele>
<time>2020-09-10T16:41:09Z</time>
</trkpt>
<trkpt lat="48.005081" lon="10.590863">
<ele>586.345</ele>
<time>2020-09-10T16:41:10Z</time>
</trkpt>
<trkpt lat="48.005047" lon="10.59085">
<ele>586.345</ele>
<time>2020-09-10T16:41:11Z</time>
</trkpt>
<trkpt lat="48.005009" lon="10.59084">
<ele>586.345</ele>
<time>2020-09-10T16:41:12Z</time>
</trkpt>
<trkpt lat="48.004967" lon="10.590832">
<ele>586.345</ele>
<time>2020-09-10T16:41:13Z</time>
</trkpt>
<trkpt lat="48.004929" lon="10.590817">
<ele>586.345</ele>
<time>2020-09-10T16:41:14Z</time>
</trkpt>
<trkpt lat="48.004887" lon="10.590805">
<ele>586.345</ele>
<time>2020-09-10T16:41:15Z</time>
</trkpt>
<trkpt lat="48.004848" lon="10.590788">
<ele>586.345</ele>
<time>2020-09-10T16:41:16Z</time>
</trkpt>
<trkpt lat="48.004822" lon="10.590765">
<ele>586.345</ele>
<time>2020-09-10T16:41:17Z</time>
</trkpt>
<trkpt lat="48.004787" lon="10.590745">
<ele>586.345</ele>
<time>2020-09-10T16:41:18Z</time>
</trkpt>
<trkpt lat="48.004749" lon="10.590732">
<ele>586.345</ele>
<time>2020-09-10T16:41:19Z</time>
</trkpt>
<trkpt lat="48.004707" lon="10.590714">
<ele>586.345</ele>
<time>2020-09-10T16:41:20Z</time>
</trkpt>
<trkpt lat="48.004665" lon="10.590693">
<ele>586.345</ele>
<time>2020-09-10T16:41:21Z</time>
</trkpt>
<trkpt lat="48.004642" lon="10.590673">
<ele>586.345</ele>
<time>2020-09-10T16:41:22Z</time>
</trkpt>
<trkpt lat="48.00462" lon="10.590656">
<ele>586.345</ele>
<time>2020-09-10T16:41:23Z</time>
</trkpt>
<trkpt lat="48.004597" lon="10.590647">
<ele>586.345</ele>
<time>2020-09-10T16:41:24Z</time>
</trkpt>
<trkpt lat="48.004574" lon="10.59064">
<ele>586.345</ele>
<time>2020-09-10T16:41:25Z</time>
</trkpt>
<trkpt lat="48.004539" lon="10.590625">
<ele>586.345</ele>
<time>2020-09-10T16:41:26Z</time>
</trkpt>
<trkpt lat="48.004505" lon="10.590604">
<ele>586.345</ele>
<time>2020-09-10T16:41:27Z</time>
</trkpt>
<trkpt lat="48.004471" lon="10.590576">
<ele>586.345</ele>
<time>2020-09-10T16:41:28Z</time>
</trkpt>
<trkpt lat="48.004448" lon="10.590547">
<ele>586.345</ele>
<time>2020-09-10T16:41:29Z</time>
</trkpt>
<trkpt lat="48.004417" lon="10.590527">
<ele>586.345</ele>
<time>2020-09-10T16:41:30Z</time>
</trkpt>
<trkpt lat="48.004387" lon="10.590509">
<ele>586.345</ele>
<time>2020-09-10T16:41:31Z</time>
</trkpt>
<trkpt lat="48.004356" lon="10.590493">
<ele>586.345</ele>
<time>2020-09-10T16:41:32Z</time>
</trkpt>
<trkpt lat="48.00433" lon="10.590475">
<ele>586.345</ele>
<time>2020-09-10T16:41:33Z</time>
</trkpt>
<trkpt lat="48.004299" lon="10.590457">
<ele>586.345</ele>
<time>2020-09-10T16:41:34Z</time>
</trkpt>
<trkpt lat="48.004269" lon="10.590434">
<ele>586.345</ele>
<time>2020-09-10T16:41:35Z</time>
</trkpt>
<trkpt lat="48.004238" lon="10.590411">
<ele>586.345</ele>
<time>2020-09-10T16:41:36Z</time>
</trkpt>
<trkpt lat="48.004208" lon="10.590388">
<ele>586.345</ele>
<time>2020-09-10T16:41:37Z</time>
</trkpt>
<trkpt lat="48.004185" lon="10.590369">
<ele>586.345</ele>
<time>2020-09-10T16:41:38Z</time>
</trkpt>
<trkpt lat="48.004158" lon="10.59035">
<ele>586.345</ele>
<time>2020-09-10T16:41:39Z</time>
</trkpt>
<trkpt lat="48.004135" lon="10.590331">
<ele>586.345</ele>
<time>2020-09-10T16:41:40Z</time>
</trkpt>
<trkpt lat="48.004108" lon="10.590313">
<ele>586.576</ele>
<time>2020-09-10T16:41:41Z</time>
</trkpt>
<trkpt lat="48.004082" lon="10.590296">
<ele>586.765</ele>
<time>2020-09-10T16:41:42Z</time>
</trkpt>
<trkpt lat="48.004051" lon="10.590273">
<ele>586.894</ele>
<time>2020-09-10T16:41:43Z</time>
</trkpt>
<trkpt lat="48.004028" lon="10.590256">
<ele>587.039</ele>
<time>2020-09-10T16:41:44Z</time>
</trkpt>
<trkpt lat="48.004005" lon="10.590235">
<ele>587.152</ele>
<time>2020-09-10T16:41:45Z</time>
</trkpt>
<trkpt lat="48.003986" lon="10.590215">
<ele>587.236</ele>
<time>2020-09-10T16:41:46Z</time>
</trkpt>
<trkpt lat="48.003963" lon="10.59019">
<ele>587.288</ele>
<time>2020-09-10T16:41:47Z</time>
</trkpt>
<trkpt lat="48.003937" lon="10.590168">
<ele>587.312</ele>
<time>2020-09-10T16:41:48Z</time>
</trkpt>
<trkpt lat="48.00391" lon="10.590152">
<ele>587.312</ele>
<time>2020-09-10T16:41:49Z</time>
</trkpt>
<trkpt lat="48.00388" lon="10.59014">
<ele>587.312</ele>
<time>2020-09-10T16:41:50Z</time>
</trkpt>
<trkpt lat="48.003853" lon="10.590123">
<ele>587.312</ele>
<time>2020-09-10T16:41:51Z</time>
</trkpt>
<trkpt lat="48.003826" lon="10.590109">
<ele>587.312</ele>
<time>2020-09-10T16:41:52Z</time>
</trkpt>
<trkpt lat="48.003799" lon="10.590088">
<ele>587.312</ele>
<time>2020-09-10T16:41:53Z</time>
</trkpt>
<trkpt lat="48.003765" lon="10.59007">
<ele>587.312</ele>
<time>2020-09-10T16:41:54Z</time>
</trkpt>
<trkpt lat="48.003735" lon="10.590051">
<ele>587.312</ele>
<time>2020-09-10T16:41:55Z</time>
</trkpt>
<trkpt lat="48.003712" lon="10.590028">
<ele>587.312</ele>
<time>2020-09-10T16:41:56Z</time>
</trkpt>
<trkpt lat="48.003689" lon="10.590015">
<ele>587.312</ele>
<time>2020-09-10T16:41:57Z</time>
</trkpt>
<trkpt lat="48.003658" lon="10.590012">
<ele>587.312</ele>
<time>2020-09-10T16:41:58Z</time>
</trkpt>
<trkpt lat="48.003628" lon="10.590011">
<ele>587.312</ele>
<time>2020-09-10T16:41:59Z</time>
</trkpt>
<trkpt lat="48.003593" lon="10.590011">
<ele>587.312</ele>
<time>2020-09-10T16:42:00Z</time>
</trkpt>
<trkpt lat="48.003551" lon="10.590018">
<ele>587.312</ele>
<time>2020-09-10T16:42:01Z</time>
</trkpt>
<trkpt lat="48.00351" lon="10.590021">
<ele>587.312</ele>
<time>2020-09-10T16:42:02Z</time>
</trkpt>
<trkpt lat="48.003468" lon="10.590032">
<ele>587.312</ele>
<time>2020-09-10T16:42:03Z</time>
</trkpt>
<trkpt lat="48.003429" lon="10.590042">
<ele>587.312</ele>
<time>2020-09-10T16:42:04Z</time>
</trkpt>
<trkpt lat="48.003399" lon="10.590052">
<ele>587.312</ele>
<time>2020-09-10T16:42:05Z</time>
</trkpt>
<trkpt lat="48.003372" lon="10.590068">
<ele>587.312</ele>
<time>2020-09-10T16:42:06Z</time>
</trkpt>
<trkpt lat="48.003345" lon="10.590098">
<ele>587.312</ele>
<time>2020-09-10T16:42:07Z</time>
</trkpt>
<trkpt lat="48.003323" lon="10.590137">
<ele>587.312</ele>
<time>2020-09-10T16:42:08Z</time>
</trkpt>
<trkpt lat="48.003296" lon="10.590178">
<ele>587.312</ele>
<time>2020-09-10T16:42:09Z</time>
</trkpt>
<trkpt lat="48.003281" lon="10.590215">
<ele>587.312</ele>
<time>2020-09-10T16:42:10Z</time>
</trkpt>
<trkpt lat="48.003258" lon="10.590239">
<ele>587.312</ele>
<time>2020-09-10T16:42:11Z</time>
</trkpt>
<trkpt lat="48.003231" lon="10.590252">
<ele>587.312</ele>
<time>2020-09-10T16:42:12Z</time>
</trkpt>
<trkpt lat="48.003204" lon="10.590241">
<ele>587.103</ele>
<time>2020-09-10T16:42:13Z</time>
</trkpt>
<trkpt lat="48.003178" lon="10.590214">
<ele>586.905</ele>
<time>2020-09-10T16:42:14Z</time>
</trkpt>
<trkpt lat="48.003155" lon="10.59018">
<ele>586.745</ele>
<time>2020-09-10T16:42:15Z</time>
</trkpt>
<trkpt lat="48.003136" lon="10.590145">
<ele>586.609</ele>
<time>2020-09-10T16:42:16Z</time>
</trkpt>
<trkpt lat="48.003113" lon="10.590118">
<ele>586.5</ele>
<time>2020-09-10T16:42:17Z</time>
</trkpt>
<trkpt lat="48.00309" lon="10.590085">
<ele>586.415</ele>
<time>2020-09-10T16:42:18Z</time>
</trkpt>
<trkpt lat="48.003063" lon="10.590052">
<ele>586.365</ele>
<time>2020-09-10T16:42:19Z</time>
</trkpt>
<trkpt lat="48.003021" lon="10.590027">
<ele>586.345</ele>
<time>2020-09-10T16:42:20Z</time>
</trkpt>
<trkpt lat="48.002995" lon="10.590003">
<ele>586.346</ele>
<time>2020-09-10T16:42:21Z</time>
</trkpt>
<trkpt lat="48.002953" lon="10.58999">
<ele>586.345</ele>
<time>2020-09-10T16:42:22Z</time>
</trkpt>
<trkpt lat="48.002918" lon="10.589978">
<ele>586.345</ele>
<time>2020-09-10T16:42:23Z</time>
</trkpt>
<trkpt lat="48.00288" lon="10.589963">
<ele>586.345</ele>
<time>2020-09-10T16:42:24Z</time>
</trkpt>
<trkpt lat="48.002838" lon="10.589946">
<ele>586.345</ele>
<time>2020-09-10T16:42:25Z</time>
</trkpt>
<trkpt lat="48.0028" lon="10.589921">
<ele>586.345</ele>
<time>2020-09-10T16:42:26Z</time>
</trkpt>
<trkpt lat="48.002773" lon="10.589897">
<ele>586.345</ele>
<time>2020-09-10T16:42:27Z</time>
</trkpt>
<trkpt lat="48.002747" lon="10.589865">
<ele>586.345</ele>
<time>2020-09-10T16:42:28Z</time>
</trkpt>
<trkpt lat="48.00272" lon="10.589833">
<ele>586.345</ele>
<time>2020-09-10T16:42:29Z</time>
</trkpt>
<trkpt lat="48.002689" lon="10.589804">
<ele>586.345</ele>
<time>2020-09-10T16:42:30Z</time>
</trkpt>
<trkpt lat="48.002655" lon="10.589782">
<ele>586.345</ele>
<time>2020-09-10T16:42:31Z</time>
</trkpt>
<trkpt lat="48.002605" lon="10.589758">
<ele>586.626</ele>
<time>2020-09-10T16:42:32Z</time>
</trkpt>
<trkpt lat="48.002579" lon="10.589732">
<ele>586.82</ele>
<time>2020-09-10T16:42:33Z</time>
</trkpt>
<trkpt lat="48.002541" lon="10.589693">
<ele>587.037</ele>
<time>2020-09-10T16:42:34Z</time>
</trkpt>
<trkpt lat="48.002506" lon="10.589655">
<ele>587.207</ele>
<time>2020-09-10T16:42:35Z</time>
</trkpt>
<trkpt lat="48.002476" lon="10.589613">
<ele>587.328</ele>
<time>2020-09-10T16:42:36Z</time>
</trkpt>
<trkpt lat="48.002441" lon="10.589575">
<ele>587.41</ele>
<time>2020-09-10T16:42:37Z</time>
</trkpt>
<trkpt lat="48.002407" lon="10.589537">
<ele>587.462</ele>
<time>2020-09-10T16:42:38Z</time>
</trkpt>
<trkpt lat="48.002377" lon="10.589498">
<ele>587.488</ele>
<time>2020-09-10T16:42:39Z</time>
</trkpt>
<trkpt lat="48.002338" lon="10.589461">
<ele>587.488</ele>
<time>2020-09-10T16:42:40Z</time>
</trkpt>
<trkpt lat="48.0023" lon="10.589428">
<ele>587.488</ele>
<time>2020-09-10T16:42:41Z</time>
</trkpt>
<trkpt lat="48.002258" lon="10.589399">
<ele>587.488</ele>
<time>2020-09-10T16:42:42Z</time>
</trkpt>
<trkpt lat="48.002213" lon="10.589372">
<ele>587.488</ele>
<time>2020-09-10T16:42:43Z</time>
</trkpt>
<trkpt lat="48.002167" lon="10.589351">
<ele>587.488</ele>
<time>2020-09-10T16:42:44Z</time>
</trkpt>
<trkpt lat="48.002117" lon="10.589328">
<ele>587.488</ele>
<time>2020-09-10T16:42:45Z</time>
</trkpt>
<trkpt lat="48.002079" lon="10.589314">
<ele>587.488</ele>
<time>2020-09-10T16:42:46Z</time>
</trkpt>
<trkpt lat="48.002033" lon="10.589302">
<ele>587.488</ele>
<time>2020-09-10T16:42:47Z</time>
</trkpt>
<trkpt lat="48.001984" lon="10.58929">
<ele>587.488</ele>
<time>2020-09-10T16:42:48Z</time>
</trkpt>
<trkpt lat="48.001942" lon="10.58928">
<ele>587.488</ele>
<time>2020-09-10T16:42:49Z</time>
</trkpt>
<trkpt lat="48.001896" lon="10.589277">
<ele>587.488</ele>
<time>2020-09-10T16:42:50Z</time>
</trkpt>
<trkpt lat="48.001854" lon="10.58928">
<ele>587.488</ele>
<time>2020-09-10T16:42:51Z</time>
</trkpt>
<trkpt lat="48.001816" lon="10.58929">
<ele>587.488</ele>
<time>2020-09-10T16:42:52Z</time>
</trkpt>
<trkpt lat="48.001781" lon="10.589302">
<ele>587.488</ele>
<time>2020-09-10T16:42:53Z</time>
</trkpt>
<trkpt lat="48.001743" lon="10.589315">
<ele>587.488</ele>
<time>2020-09-10T16:42:54Z</time>
</trkpt>
<trkpt lat="48.001705" lon="10.58933">
<ele>587.488</ele>
<time>2020-09-10T16:42:55Z</time>
</trkpt>
<trkpt lat="48.001675" lon="10.58934">
<ele>587.224</ele>
<time>2020-09-10T16:42:56Z</time>
</trkpt>
<trkpt lat="48.001648" lon="10.589352">
<ele>587.014</ele>
<time>2020-09-10T16:42:57Z</time>
</trkpt>
<trkpt lat="48.001621" lon="10.589361">
<ele>586.849</ele>
<time>2020-09-10T16:42:58Z</time>
</trkpt>
<trkpt lat="48.001595" lon="10.58937">
<ele>586.722</ele>
<time>2020-09-10T16:42:59Z</time>
</trkpt>
<trkpt lat="48.001583" lon="10.589375">
<ele>586.631</ele>
<time>2020-09-10T16:43:00Z</time>
</trkpt>
<trkpt lat="48.001575" lon="10.589378">
<ele>586.575</ele>
<time>2020-09-10T16:43:01Z</time>
</trkpt>
<trkpt lat="48.001568" lon="10.589383">
<ele>586.55</ele>
<time>2020-09-10T16:43:02Z</time>
</trkpt>
<trkpt lat="48.001556" lon="10.589367">
<ele>586.521</ele>
<time>2020-09-10T16:43:14Z</time>
</trkpt>
<trkpt lat="48.001553" lon="10.589359">
<ele>586.521</ele>
<time>2020-09-10T16:43:15Z</time>
</trkpt>
<trkpt lat="48.001549" lon="10.589355">
<ele>586.521</ele>
<time>2020-09-10T16:43:16Z</time>
</trkpt>
<trkpt lat="48.001545" lon="10.589354">
<ele>586.521</ele>
<time>2020-09-10T16:43:17Z</time>
</trkpt>
<trkpt lat="48.00153" lon="10.589343">
<ele>586.521</ele>
<time>2020-09-10T16:43:49Z</time>
</trkpt>
<trkpt lat="48.00153" lon="10.589358">
<ele>586.521</ele>
<time>2020-09-10T16:43:50Z</time>
</trkpt>
<trkpt lat="48.001526" lon="10.589367">
<ele>586.521</ele>
<time>2020-09-10T16:43:51Z</time>
</trkpt>
<trkpt lat="48.001526" lon="10.589368">
<ele>586.521</ele>
<time>2020-09-10T16:43:53Z</time>
</trkpt>
<trkpt lat="48.00153" lon="10.589405">
<ele>586.521</ele>
<time>2020-09-10T16:43:58Z</time>
</trkpt>
<trkpt lat="48.00153" lon="10.589424">
<ele>586.521</ele>
<time>2020-09-10T16:43:59Z</time>
</trkpt>
<trkpt lat="48.001534" lon="10.589447">
<ele>586.521</ele>
<time>2020-09-10T16:44:00Z</time>
</trkpt>
<trkpt lat="48.001537" lon="10.589475">
<ele>586.521</ele>
<time>2020-09-10T16:44:01Z</time>
</trkpt>
<trkpt lat="48.001537" lon="10.589506">
<ele>586.521</ele>
<time>2020-09-10T16:44:02Z</time>
</trkpt>
<trkpt lat="48.001534" lon="10.589545">
<ele>586.521</ele>
<time>2020-09-10T16:44:03Z</time>
</trkpt>
<trkpt lat="48.00153" lon="10.589588">
<ele>586.521</ele>
<time>2020-09-10T16:44:04Z</time>
</trkpt>
<trkpt lat="48.001534" lon="10.589632">
<ele>586.521</ele>
<time>2020-09-10T16:44:05Z</time>
</trkpt>
<trkpt lat="48.00153" lon="10.58968">
<ele>586.521</ele>
<time>2020-09-10T16:44:06Z</time>
</trkpt>
<trkpt lat="48.00153" lon="10.58973">
<ele>586.521</ele>
<time>2020-09-10T16:44:07Z</time>
</trkpt>
<trkpt lat="48.001534" lon="10.58978">
<ele>586.521</ele>
<time>2020-09-10T16:44:08Z</time>
</trkpt>
<trkpt lat="48.001534" lon="10.589831">
<ele>586.521</ele>
<time>2020-09-10T16:44:09Z</time>
</trkpt>
<trkpt lat="48.001541" lon="10.589883">
<ele>586.521</ele>
<time>2020-09-10T16:44:10Z</time>
</trkpt>
<trkpt lat="48.001545" lon="10.589933">
<ele>586.521</ele>
<time>2020-09-10T16:44:11Z</time>
</trkpt>
<trkpt lat="48.001553" lon="10.589983">
<ele>586.521</ele>
<time>2020-09-10T16:44:12Z</time>
</trkpt>
<trkpt lat="48.00156" lon="10.590028">
<ele>586.521</ele>
<time>2020-09-10T16:44:13Z</time>
</trkpt>
<trkpt lat="48.001564" lon="10.590075">
<ele>586.521</ele>
<time>2020-09-10T16:44:14Z</time>
</trkpt>
<trkpt lat="48.001564" lon="10.59013">
<ele>586.521</ele>
<time>2020-09-10T16:44:15Z</time>
</trkpt>
<trkpt lat="48.001564" lon="10.590183">
<ele>586.521</ele>
<time>2020-09-10T16:44:16Z</time>
</trkpt>
<trkpt lat="48.00156" lon="10.590233">
<ele>586.521</ele>
<time>2020-09-10T16:44:17Z</time>
</trkpt>
<trkpt lat="48.001556" lon="10.590281">
<ele>586.521</ele>
<time>2020-09-10T16:44:18Z</time>
</trkpt>
<trkpt lat="48.001549" lon="10.590333">
<ele>586.521</ele>
<time>2020-09-10T16:44:19Z</time>
</trkpt>
<trkpt lat="48.001541" lon="10.590386">
<ele>586.521</ele>
<time>2020-09-10T16:44:20Z</time>
</trkpt>
<trkpt lat="48.001537" lon="10.590438">
<ele>586.521</ele>
<time>2020-09-10T16:44:21Z</time>
</trkpt>
<trkpt lat="48.001534" lon="10.590491">
<ele>586.521</ele>
<time>2020-09-10T16:44:22Z</time>
</trkpt>
<trkpt lat="48.00153" lon="10.590549">
<ele>586.521</ele>
<time>2020-09-10T16:44:23Z</time>
</trkpt>
<trkpt lat="48.001537" lon="10.590604">
<ele>586.521</ele>
<time>2020-09-10T16:44:24Z</time>
</trkpt>
<trkpt lat="48.001545" lon="10.59066">
<ele>586.521</ele>
<time>2020-09-10T16:44:25Z</time>
</trkpt>
<trkpt lat="48.001545" lon="10.590714">
<ele>586.521</ele>
<time>2020-09-10T16:44:26Z</time>
</trkpt>
<trkpt lat="48.001541" lon="10.590763">
<ele>586.521</ele>
<time>2020-09-10T16:44:27Z</time>
</trkpt>
<trkpt lat="48.00153" lon="10.590816">
<ele>586.521</ele>
<time>2020-09-10T16:44:28Z</time>
</trkpt>
<trkpt lat="48.001526" lon="10.590868">
<ele>586.521</ele>
<time>2020-09-10T16:44:29Z</time>
</trkpt>
<trkpt lat="48.001514" lon="10.590924">
<ele>586.521</ele>
<time>2020-09-10T16:44:30Z</time>
</trkpt>
<trkpt lat="48.001511" lon="10.590981">
<ele>586.521</ele>
<time>2020-09-10T16:44:31Z</time>
</trkpt>
<trkpt lat="48.001514" lon="10.591037">
<ele>586.521</ele>
<time>2020-09-10T16:44:32Z</time>
</trkpt>
<trkpt lat="48.00153" lon="10.591085">
<ele>586.521</ele>
<time>2020-09-10T16:44:33Z</time>
</trkpt>
<trkpt lat="48.001545" lon="10.59113">
<ele>586.521</ele>
<time>2020-09-10T16:44:34Z</time>
</trkpt>
<trkpt lat="48.001564" lon="10.591162">
<ele>586.521</ele>
<time>2020-09-10T16:44:35Z</time>
</trkpt>
<trkpt lat="48.001587" lon="10.591187">
<ele>586.521</ele>
<time>2020-09-10T16:44:36Z</time>
</trkpt>
<trkpt lat="48.001614" lon="10.591201">
<ele>586.521</ele>
<time>2020-09-10T16:44:37Z</time>
</trkpt>
<trkpt lat="48.00164" lon="10.591211">
<ele>586.521</ele>
<time>2020-09-10T16:44:38Z</time>
</trkpt>
<trkpt lat="48.001675" lon="10.591222">
<ele>586.521</ele>
<time>2020-09-10T16:44:39Z</time>
</trkpt>
<trkpt lat="48.001701" lon="10.591228">
<ele>586.521</ele>
<time>2020-09-10T16:44:40Z</time>
</trkpt>
<trkpt lat="48.001732" lon="10.591235">
<ele>586.521</ele>
<time>2020-09-10T16:44:41Z</time>
</trkpt>
<trkpt lat="48.001762" lon="10.591238">
<ele>586.521</ele>
<time>2020-09-10T16:44:42Z</time>
</trkpt>
<trkpt lat="48.001793" lon="10.591247">
<ele>586.521</ele>
<time>2020-09-10T16:44:43Z</time>
</trkpt>
<trkpt lat="48.001823" lon="10.591253">
<ele>586.521</ele>
<time>2020-09-10T16:44:44Z</time>
</trkpt>
<trkpt lat="48.001854" lon="10.591258">
<ele>586.521</ele>
<time>2020-09-10T16:44:45Z</time>
</trkpt>
<trkpt lat="48.001892" lon="10.59126">
<ele>586.521</ele>
<time>2020-09-10T16:44:46Z</time>
</trkpt>
<trkpt lat="48.001934" lon="10.591257">
<ele>586.521</ele>
<time>2020-09-10T16:44:47Z</time>
</trkpt>
<trkpt lat="48.001972" lon="10.591255">
<ele>586.521</ele>
<time>2020-09-10T16:44:48Z</time>
</trkpt>
<trkpt lat="48.00201" lon="10.591249">
<ele>586.521</ele>
<time>2020-09-10T16:44:49Z</time>
</trkpt>
<trkpt lat="48.002048" lon="10.591249">
<ele>586.521</ele>
<time>2020-09-10T16:44:50Z</time>
</trkpt>
<trkpt lat="48.002087" lon="10.591249">
<ele>586.521</ele>
<time>2020-09-10T16:44:51Z</time>
</trkpt>
<trkpt lat="48.002125" lon="10.591247">
<ele>586.521</ele>
<time>2020-09-10T16:44:52Z</time>
</trkpt>
<trkpt lat="48.002159" lon="10.591245">
<ele>586.521</ele>
<time>2020-09-10T16:44:53Z</time>
</trkpt>
<trkpt lat="48.002193" lon="10.591245">
<ele>586.521</ele>
<time>2020-09-10T16:44:54Z</time>
</trkpt>
<trkpt lat="48.002232" lon="10.591242">
<ele>586.521</ele>
<time>2020-09-10T16:44:55Z</time>
</trkpt>
<trkpt lat="48.00227" lon="10.59123">
<ele>586.521</ele>
<time>2020-09-10T16:44:56Z</time>
</trkpt>
<trkpt lat="48.002308" lon="10.591227">
<ele>586.521</ele>
<time>2020-09-10T16:44:57Z</time>
</trkpt>
<trkpt lat="48.002342" lon="10.591224">
<ele>586.521</ele>
<time>2020-09-10T16:44:58Z</time>
</trkpt>
<trkpt lat="48.002384" lon="10.591224">
<ele>586.521</ele>
<time>2020-09-10T16:44:59Z</time>
</trkpt>
<trkpt lat="48.002422" lon="10.591226">
<ele>586.521</ele>
<time>2020-09-10T16:45:00Z</time>
</trkpt>
<trkpt lat="48.002464" lon="10.591224">
<ele>586.521</ele>
<time>2020-09-10T16:45:01Z</time>
</trkpt>
<trkpt lat="48.002502" lon="10.59122">
<ele>586.521</ele>
<time>2020-09-10T16:45:02Z</time>
</trkpt>
<trkpt lat="48.002541" lon="10.591215">
<ele>586.521</ele>
<time>2020-09-10T16:45:03Z</time>
</trkpt>
<trkpt lat="48.002579" lon="10.591213">
<ele>586.521</ele>
<time>2020-09-10T16:45:04Z</time>
</trkpt>
<trkpt lat="48.002617" lon="10.591209">
<ele>586.521</ele>
<time>2020-09-10T16:45:05Z</time>
</trkpt>
<trkpt lat="48.002663" lon="10.591205">
<ele>586.521</ele>
<time>2020-09-10T16:45:06Z</time>
</trkpt>
<trkpt lat="48.002701" lon="10.591201">
<ele>586.521</ele>
<time>2020-09-10T16:45:07Z</time>
</trkpt>
<trkpt lat="48.002739" lon="10.591205">
<ele>586.521</ele>
<time>2020-09-10T16:45:08Z</time>
</trkpt>
<trkpt lat="48.002785" lon="10.591207">
<ele>586.521</ele>
<time>2020-09-10T16:45:09Z</time>
</trkpt>
<trkpt lat="48.002827" lon="10.591211">
<ele>586.521</ele>
<time>2020-09-10T16:45:10Z</time>
</trkpt>
<trkpt lat="48.002865" lon="10.591215">
<ele>586.521</ele>
<time>2020-09-10T16:45:11Z</time>
</trkpt>
<trkpt lat="48.002899" lon="10.591222">
<ele>586.521</ele>
<time>2020-09-10T16:45:12Z</time>
</trkpt>
<trkpt lat="48.00293" lon="10.591233">
<ele>586.521</ele>
<time>2020-09-10T16:45:13Z</time>
</trkpt>
<trkpt lat="48.00296" lon="10.591236">
<ele>586.521</ele>
<time>2020-09-10T16:45:14Z</time>
</trkpt>
<trkpt lat="48.002987" lon="10.591242">
<ele>586.521</ele>
<time>2020-09-10T16:45:15Z</time>
</trkpt>
<trkpt lat="48.003002" lon="10.591247">
<ele>586.521</ele>
<time>2020-09-10T16:45:16Z</time>
</trkpt>
<trkpt lat="48.003021" lon="10.59126">
<ele>586.521</ele>
<time>2020-09-10T16:45:17Z</time>
</trkpt>
<trkpt lat="48.003033" lon="10.591283">
<ele>586.521</ele>
<time>2020-09-10T16:45:18Z</time>
</trkpt>
<trkpt lat="48.003048" lon="10.591315">
<ele>586.521</ele>
<time>2020-09-10T16:45:19Z</time>
</trkpt>
<trkpt lat="48.003063" lon="10.591352">
<ele>586.521</ele>
<time>2020-09-10T16:45:20Z</time>
</trkpt>
<trkpt lat="48.003078" lon="10.591388">
<ele>586.521</ele>
<time>2020-09-10T16:45:21Z</time>
</trkpt>
<trkpt lat="48.003094" lon="10.591421">
<ele>586.521</ele>
<time>2020-09-10T16:45:22Z</time>
</trkpt>
<trkpt lat="48.003105" lon="10.591445">
<ele>586.521</ele>
<time>2020-09-10T16:45:23Z</time>
</trkpt>
<trkpt lat="48.00312" lon="10.591461">
<ele>586.521</ele>
<time>2020-09-10T16:45:24Z</time>
</trkpt>
<trkpt lat="48.003132" lon="10.591474">
<ele>586.521</ele>
<time>2020-09-10T16:45:25Z</time>
</trkpt>
<trkpt lat="48.003136" lon="10.591481">
<ele>586.521</ele>
<time>2020-09-10T16:45:26Z</time>
</trkpt>
<trkpt lat="48.003136" lon="10.591486">
<ele>586.521</ele>
<time>2020-09-10T16:45:27Z</time>
</trkpt>
<trkpt lat="48.003139" lon="10.591492">
<ele>586.345</ele>
<time>2020-09-10T16:45:28Z</time>
</trkpt>
<trkpt lat="48.003151" lon="10.591495">
<ele>586.197</ele>
<time>2020-09-10T16:45:29Z</time>
</trkpt>
<trkpt lat="48.003162" lon="10.591507">
<ele>586.036</ele>
<time>2020-09-10T16:45:33Z</time>
</trkpt>
<trkpt lat="48.00317" lon="10.591515">
<ele>585.884</ele>
<time>2020-09-10T16:45:34Z</time>
</trkpt>
<trkpt lat="48.003181" lon="10.591521">
<ele>585.752</ele>
<time>2020-09-10T16:45:35Z</time>
</trkpt>
<trkpt lat="48.003193" lon="10.591525">
<ele>585.644</ele>
<time>2020-09-10T16:45:36Z</time>
</trkpt>
<trkpt lat="48.003204" lon="10.591527">
<ele>585.572</ele>
<time>2020-09-10T16:45:37Z</time>
</trkpt>
<trkpt lat="48.00322" lon="10.591534">
<ele>585.554</ele>
<time>2020-09-10T16:45:38Z</time>
</trkpt>
<trkpt lat="48.003227" lon="10.591535">
<ele>585.554</ele>
<time>2020-09-10T16:45:39Z</time>
</trkpt>
<trkpt lat="48.003242" lon="10.591545">
<ele>585.554</ele>
<time>2020-09-10T16:45:40Z</time>
</trkpt>
<trkpt lat="48.003258" lon="10.591558">
<ele>585.554</ele>
<time>2020-09-10T16:45:41Z</time>
</trkpt>
<trkpt lat="48.003265" lon="10.591577">
<ele>585.554</ele>
<time>2020-09-10T16:45:42Z</time>
</trkpt>
<trkpt lat="48.003277" lon="10.591586">
<ele>585.554</ele>
<time>2020-09-10T16:45:43Z</time>
</trkpt>
<trkpt lat="48.003288" lon="10.591595">
<ele>585.554</ele>
<time>2020-09-10T16:45:44Z</time>
</trkpt>
<trkpt lat="48.003296" lon="10.591601">
<ele>585.554</ele>
<time>2020-09-10T16:45:45Z</time>
</trkpt>
<trkpt lat="48.003311" lon="10.591612">
<ele>585.554</ele>
<time>2020-09-10T16:45:46Z</time>
</trkpt>
<trkpt lat="48.003323" lon="10.591621">
<ele>585.554</ele>
<time>2020-09-10T16:45:47Z</time>
</trkpt>
<trkpt lat="48.003334" lon="10.591633">
<ele>585.554</ele>
<time>2020-09-10T16:45:48Z</time>
</trkpt>
<trkpt lat="48.003345" lon="10.591641">
<ele>585.554</ele>
<time>2020-09-10T16:45:49Z</time>
</trkpt>
<trkpt lat="48.003357" lon="10.591649">
<ele>585.554</ele>
<time>2020-09-10T16:45:50Z</time>
</trkpt>
<trkpt lat="48.003365" lon="10.591649">
<ele>585.554</ele>
<time>2020-09-10T16:45:51Z</time>
</trkpt>
<trkpt lat="48.003372" lon="10.591655">
<ele>585.554</ele>
<time>2020-09-10T16:45:52Z</time>
</trkpt>
<trkpt lat="48.003384" lon="10.591658">
<ele>585.554</ele>
<time>2020-09-10T16:45:53Z</time>
</trkpt>
<trkpt lat="48.003391" lon="10.59166">
<ele>585.554</ele>
<time>2020-09-10T16:45:54Z</time>
</trkpt>
<trkpt lat="48.003399" lon="10.591661">
<ele>585.554</ele>
<time>2020-09-10T16:45:55Z</time>
</trkpt>
<trkpt lat="48.003403" lon="10.591665">
<ele>585.554</ele>
<time>2020-09-10T16:45:56Z</time>
</trkpt>
<trkpt lat="48.003414" lon="10.59167">
<ele>585.554</ele>
<time>2020-09-10T16:45:57Z</time>
</trkpt>
<trkpt lat="48.003422" lon="10.591674">
<ele>585.554</ele>
<time>2020-09-10T16:45:58Z</time>
</trkpt>
<trkpt lat="48.003429" lon="10.591681">
<ele>585.554</ele>
<time>2020-09-10T16:45:59Z</time>
</trkpt>
<trkpt lat="48.003437" lon="10.591693">
<ele>585.554</ele>
<time>2020-09-10T16:46:00Z</time>
</trkpt>
<trkpt lat="48.003448" lon="10.591706">
<ele>585.554</ele>
<time>2020-09-10T16:46:01Z</time>
</trkpt>
<trkpt lat="48.003452" lon="10.591717">
<ele>585.554</ele>
<time>2020-09-10T16:46:02Z</time>
</trkpt>
<trkpt lat="48.00346" lon="10.591719">
<ele>585.554</ele>
<time>2020-09-10T16:46:03Z</time>
</trkpt>
<trkpt lat="48.003479" lon="10.591726">
<ele>585.554</ele>
<time>2020-09-10T16:46:04Z</time>
</trkpt>
<trkpt lat="48.003487" lon="10.591728">
<ele>585.554</ele>
<time>2020-09-10T16:46:05Z</time>
</trkpt>
<trkpt lat="48.003502" lon="10.591739">
<ele>585.554</ele>
<time>2020-09-10T16:46:06Z</time>
</trkpt>
<trkpt lat="48.00351" lon="10.591745">
<ele>585.554</ele>
<time>2020-09-10T16:46:07Z</time>
</trkpt>
<trkpt lat="48.003513" lon="10.591762">
<ele>585.554</ele>
<time>2020-09-10T16:46:08Z</time>
</trkpt>
<trkpt lat="48.003517" lon="10.591771">
<ele>585.554</ele>
<time>2020-09-10T16:46:09Z</time>
</trkpt>
<trkpt lat="48.003517" lon="10.591788">
<ele>585.554</ele>
<time>2020-09-10T16:46:10Z</time>
</trkpt>
<trkpt lat="48.003521" lon="10.5918">
<ele>585.554</ele>
<time>2020-09-10T16:46:11Z</time>
</trkpt>
<trkpt lat="48.003529" lon="10.591808">
<ele>585.554</ele>
<time>2020-09-10T16:46:12Z</time>
</trkpt>
<trkpt lat="48.003536" lon="10.591817">
<ele>585.554</ele>
<time>2020-09-10T16:46:15Z</time>
</trkpt>
<trkpt lat="48.003544" lon="10.59182">
<ele>585.554</ele>
<time>2020-09-10T16:46:16Z</time>
</trkpt>
<trkpt lat="48.003548" lon="10.591822">
<ele>585.554</ele>
<time>2020-09-10T16:46:17Z</time>
</trkpt>
<trkpt lat="48.003548" lon="10.591825">
<ele>585.554</ele>
<time>2020-09-10T16:46:18Z</time>
</trkpt>
<trkpt lat="48.003551" lon="10.591828">
<ele>585.554</ele>
<time>2020-09-10T16:46:19Z</time>
</trkpt>
<trkpt lat="48.003555" lon="10.591829">
<ele>585.554</ele>
<time>2020-09-10T16:46:20Z</time>
</trkpt>
<trkpt lat="48.003563" lon="10.591827">
<ele>585.554</ele>
<time>2020-09-10T16:46:21Z</time>
</trkpt>
<trkpt lat="48.003567" lon="10.59182">
<ele>585.554</ele>
<time>2020-09-10T16:46:22Z</time>
</trkpt>
<trkpt lat="48.003578" lon="10.591813">
<ele>585.554</ele>
<time>2020-09-10T16:46:23Z</time>
</trkpt>
<trkpt lat="48.003582" lon="10.59181">
<ele>585.554</ele>
<time>2020-09-10T16:46:24Z</time>
</trkpt>
<trkpt lat="48.003582" lon="10.591805">
<ele>585.554</ele>
<time>2020-09-10T16:46:25Z</time>
</trkpt>
<trkpt lat="48.003586" lon="10.591802">
<ele>585.554</ele>
<time>2020-09-10T16:46:26Z</time>
</trkpt>
<trkpt lat="48.003593" lon="10.59179">
<ele>585.554</ele>
<time>2020-09-10T16:46:27Z</time>
</trkpt>
<trkpt lat="48.003597" lon="10.591785">
<ele>585.554</ele>
<time>2020-09-10T16:46:28Z</time>
</trkpt>
<trkpt lat="48.003605" lon="10.591775">
<ele>585.554</ele>
<time>2020-09-10T16:46:29Z</time>
</trkpt>
<trkpt lat="48.003578" lon="10.59174">
<ele>585.554</ele>
<time>2020-09-10T16:47:00Z</time>
</trkpt>
<trkpt lat="48.003578" lon="10.591737">
<ele>585.554</ele>
<time>2020-09-10T16:47:01Z</time>
</trkpt>
<trkpt lat="48.003582" lon="10.591726">
<ele>585.554</ele>
<time>2020-09-10T16:47:02Z</time>
</trkpt>
<trkpt lat="48.003582" lon="10.591712">
<ele>585.554</ele>
<time>2020-09-10T16:47:03Z</time>
</trkpt>
<trkpt lat="48.003574" lon="10.591698">
<ele>585.554</ele>
<time>2020-09-10T16:47:04Z</time>
</trkpt>
<trkpt lat="48.003574" lon="10.591681">
<ele>585.554</ele>
<time>2020-09-10T16:47:05Z</time>
</trkpt>
<trkpt lat="48.003571" lon="10.591666">
<ele>585.554</ele>
<time>2020-09-10T16:47:06Z</time>
</trkpt>
<trkpt lat="48.003567" lon="10.591654">
<ele>585.554</ele>
<time>2020-09-10T16:47:07Z</time>
</trkpt>
<trkpt lat="48.003555" lon="10.59165">
<ele>585.554</ele>
<time>2020-09-10T16:47:08Z</time>
</trkpt>
<trkpt lat="48.003551" lon="10.591655">
<ele>585.554</ele>
<time>2020-09-10T16:47:09Z</time>
</trkpt>
<trkpt lat="48.003551" lon="10.59166">
<ele>585.554</ele>
<time>2020-09-10T16:47:10Z</time>
</trkpt>
<trkpt lat="48.003555" lon="10.591661">
<ele>585.554</ele>
<time>2020-09-10T16:47:11Z</time>
</trkpt>
<trkpt lat="48.003544" lon="10.591595">
<ele>584.763</ele>
<time>2020-09-10T16:47:19Z</time>
</trkpt>
<trkpt lat="48.003574" lon="10.591674">
<ele>584.763</ele>
<time>2020-09-10T16:47:23Z</time>
</trkpt>
<trkpt lat="48.003571" lon="10.591681">
<ele>584.763</ele>
<time>2020-09-10T16:47:24Z</time>
</trkpt>
<trkpt lat="48.003571" lon="10.591683">
<ele>584.763</ele>
<time>2020-09-10T16:47:25Z</time>
</trkpt>
<trkpt lat="48.003571" lon="10.591685">
<ele>584.763</ele>
<time>2020-09-10T16:47:26Z</time>
</trkpt>
<trkpt lat="48.003567" lon="10.591706">
<ele>584.763</ele>
<time>2020-09-10T16:47:34Z</time>
</trkpt>
<trkpt lat="48.003563" lon="10.591721">
<ele>584.763</ele>
<time>2020-09-10T16:47:35Z</time>
</trkpt>
<trkpt lat="48.003555" lon="10.591731">
<ele>584.763</ele>
<time>2020-09-10T16:47:36Z</time>
</trkpt>
<trkpt lat="48.003551" lon="10.591748">
<ele>584.763</ele>
<time>2020-09-10T16:47:37Z</time>
</trkpt>
<trkpt lat="48.00354" lon="10.591755">
<ele>584.763</ele>
<time>2020-09-10T16:47:38Z</time>
</trkpt>
<trkpt lat="48.003525" lon="10.591752">
<ele>584.763</ele>
<time>2020-09-10T16:47:39Z</time>
</trkpt>
<trkpt lat="48.003517" lon="10.59175">
<ele>584.763</ele>
<time>2020-09-10T16:47:40Z</time>
</trkpt>
<trkpt lat="48.003506" lon="10.591747">
<ele>584.763</ele>
<time>2020-09-10T16:47:41Z</time>
</trkpt>
<trkpt lat="48.003494" lon="10.591745">
<ele>584.763</ele>
<time>2020-09-10T16:47:42Z</time>
</trkpt>
<trkpt lat="48.003487" lon="10.591745">
<ele>584.763</ele>
<time>2020-09-10T16:47:43Z</time>
</trkpt>
<trkpt lat="48.003475" lon="10.591748">
<ele>584.763</ele>
<time>2020-09-10T16:47:44Z</time>
</trkpt>
<trkpt lat="48.003464" lon="10.591755">
<ele>584.763</ele>
<time>2020-09-10T16:47:45Z</time>
</trkpt>
<trkpt lat="48.003445" lon="10.591755">
<ele>584.763</ele>
<time>2020-09-10T16:47:46Z</time>
</trkpt>
<trkpt lat="48.003426" lon="10.591752">
<ele>584.763</ele>
<time>2020-09-10T16:47:47Z</time>
</trkpt>
<trkpt lat="48.00341" lon="10.591747">
<ele>584.763</ele>
<time>2020-09-10T16:47:48Z</time>
</trkpt>
<trkpt lat="48.003395" lon="10.59174">
<ele>584.763</ele>
<time>2020-09-10T16:47:49Z</time>
</trkpt>
<trkpt lat="48.003387" lon="10.591733">
<ele>584.763</ele>
<time>2020-09-10T16:47:50Z</time>
</trkpt>
<trkpt lat="48.003376" lon="10.591728">
<ele>584.763</ele>
<time>2020-09-10T16:47:51Z</time>
</trkpt>
<trkpt lat="48.003368" lon="10.591723">
<ele>584.763</ele>
<time>2020-09-10T16:47:52Z</time>
</trkpt>
<trkpt lat="48.003361" lon="10.59171">
<ele>584.763</ele>
<time>2020-09-10T16:47:53Z</time>
</trkpt>
<trkpt lat="48.003349" lon="10.591698">
<ele>584.763</ele>
<time>2020-09-10T16:47:54Z</time>
</trkpt>
<trkpt lat="48.003349" lon="10.591687">
<ele>584.763</ele>
<time>2020-09-10T16:47:55Z</time>
</trkpt>
<trkpt lat="48.003338" lon="10.591665">
<ele>584.763</ele>
<time>2020-09-10T16:47:56Z</time>
</trkpt>
<trkpt lat="48.003326" lon="10.591652">
<ele>584.763</ele>
<time>2020-09-10T16:47:57Z</time>
</trkpt>
<trkpt lat="48.003323" lon="10.591637">
<ele>584.763</ele>
<time>2020-09-10T16:47:58Z</time>
</trkpt>
<trkpt lat="48.003307" lon="10.591633">
<ele>584.763</ele>
<time>2020-09-10T16:47:59Z</time>
</trkpt>
<trkpt lat="48.003292" lon="10.591626">
<ele>584.763</ele>
<time>2020-09-10T16:48:00Z</time>
</trkpt>
<trkpt lat="48.003281" lon="10.591621">
<ele>584.763</ele>
<time>2020-09-10T16:48:01Z</time>
</trkpt>
<trkpt lat="48.003265" lon="10.591614">
<ele>584.763</ele>
<time>2020-09-10T16:48:02Z</time>
</trkpt>
<trkpt lat="48.003258" lon="10.591607">
<ele>584.763</ele>
<time>2020-09-10T16:48:03Z</time>
</trkpt>
<trkpt lat="48.003254" lon="10.591599">
<ele>584.763</ele>
<time>2020-09-10T16:48:04Z</time>
</trkpt>
<trkpt lat="48.00325" lon="10.59159">
<ele>584.763</ele>
<time>2020-09-10T16:48:05Z</time>
</trkpt>
<trkpt lat="48.003235" lon="10.591584">
<ele>584.763</ele>
<time>2020-09-10T16:48:06Z</time>
</trkpt>
<trkpt lat="48.003231" lon="10.591574">
<ele>584.763</ele>
<time>2020-09-10T16:48:07Z</time>
</trkpt>
<trkpt lat="48.003223" lon="10.591565">
<ele>584.763</ele>
<time>2020-09-10T16:48:08Z</time>
</trkpt>
<trkpt lat="48.003212" lon="10.591557">
<ele>584.763</ele>
<time>2020-09-10T16:48:09Z</time>
</trkpt>
<trkpt lat="48.003197" lon="10.591551">
<ele>584.763</ele>
<time>2020-09-10T16:48:10Z</time>
</trkpt>
<trkpt lat="48.003189" lon="10.591551">
<ele>584.763</ele>
<time>2020-09-10T16:48:11Z</time>
</trkpt>
<trkpt lat="48.003178" lon="10.591549">
<ele>584.763</ele>
<time>2020-09-10T16:48:12Z</time>
</trkpt>
<trkpt lat="48.003162" lon="10.591543">
<ele>584.763</ele>
<time>2020-09-10T16:48:13Z</time>
</trkpt>
<trkpt lat="48.003151" lon="10.591537">
<ele>584.763</ele>
<time>2020-09-10T16:48:14Z</time>
</trkpt>
<trkpt lat="48.003143" lon="10.591534">
<ele>584.763</ele>
<time>2020-09-10T16:48:15Z</time>
</trkpt>
<trkpt lat="48.003128" lon="10.591527">
<ele>584.763</ele>
<time>2020-09-10T16:48:16Z</time>
</trkpt>
<trkpt lat="48.003124" lon="10.591523">
<ele>584.763</ele>
<time>2020-09-10T16:48:17Z</time>
</trkpt>
<trkpt lat="48.003117" lon="10.591521">
<ele>584.763</ele>
<time>2020-09-10T16:48:18Z</time>
</trkpt>
<trkpt lat="48.003109" lon="10.591521">
<ele>584.763</ele>
<time>2020-09-10T16:48:19Z</time>
</trkpt>
<trkpt lat="48.003101" lon="10.591519">
<ele>584.763</ele>
<time>2020-09-10T16:48:20Z</time>
</trkpt>
<trkpt lat="48.003098" lon="10.591521">
<ele>584.763</ele>
<time>2020-09-10T16:48:21Z</time>
</trkpt>
<trkpt lat="48.003098" lon="10.591518">
<ele>584.763</ele>
<time>2020-09-10T16:48:22Z</time>
</trkpt>
<trkpt lat="48.003094" lon="10.591516">
<ele>584.763</ele>
<time>2020-09-10T16:48:23Z</time>
</trkpt>
<trkpt lat="48.003094" lon="10.591512">
<ele>584.763</ele>
<time>2020-09-10T16:48:24Z</time>
</trkpt>
<trkpt lat="48.003094" lon="10.591507">
<ele>584.763</ele>
<time>2020-09-10T16:48:25Z</time>
</trkpt>
<trkpt lat="48.003086" lon="10.591502">
<ele>584.763</ele>
<time>2020-09-10T16:48:26Z</time>
</trkpt>
<trkpt lat="48.003075" lon="10.59149">
<ele>584.763</ele>
<time>2020-09-10T16:48:27Z</time>
</trkpt>
<trkpt lat="48.003067" lon="10.591481">
<ele>584.763</ele>
<time>2020-09-10T16:48:28Z</time>
</trkpt>
<trkpt lat="48.003059" lon="10.591467">
<ele>584.763</ele>
<time>2020-09-10T16:48:29Z</time>
</trkpt>
<trkpt lat="48.003059" lon="10.591446">
<ele>584.763</ele>
<time>2020-09-10T16:48:30Z</time>
</trkpt>
<trkpt lat="48.003059" lon="10.59142">
<ele>584.763</ele>
<time>2020-09-10T16:48:31Z</time>
</trkpt>
<trkpt lat="48.003056" lon="10.591392">
<ele>584.763</ele>
<time>2020-09-10T16:48:32Z</time>
</trkpt>
<trkpt lat="48.003059" lon="10.591356">
<ele>584.763</ele>
<time>2020-09-10T16:48:33Z</time>
</trkpt>
<trkpt lat="48.003063" lon="10.591325">
<ele>584.763</ele>
<time>2020-09-10T16:48:34Z</time>
</trkpt>
<trkpt lat="48.003071" lon="10.59129">
<ele>584.763</ele>
<time>2020-09-10T16:48:35Z</time>
</trkpt>
<trkpt lat="48.003078" lon="10.591243">
<ele>584.763</ele>
<time>2020-09-10T16:48:36Z</time>
</trkpt>
<trkpt lat="48.003071" lon="10.591192">
<ele>584.763</ele>
<time>2020-09-10T16:48:37Z</time>
</trkpt>
<trkpt lat="48.003063" lon="10.591145">
<ele>584.763</ele>
<time>2020-09-10T16:48:38Z</time>
</trkpt>
<trkpt lat="48.003063" lon="10.591111">
<ele>584.763</ele>
<time>2020-09-10T16:48:39Z</time>
</trkpt>
<trkpt lat="48.003048" lon="10.59109">
<ele>584.763</ele>
<time>2020-09-10T16:48:40Z</time>
</trkpt>
<trkpt lat="48.003033" lon="10.591063">
<ele>584.763</ele>
<time>2020-09-10T16:48:41Z</time>
</trkpt>
<trkpt lat="48.003048" lon="10.591029">
<ele>584.763</ele>
<time>2020-09-10T16:48:42Z</time>
</trkpt>
<trkpt lat="48.003063" lon="10.590985">
<ele>584.763</ele>
<time>2020-09-10T16:48:43Z</time>
</trkpt>
<trkpt lat="48.003075" lon="10.590943">
<ele>584.763</ele>
<time>2020-09-10T16:48:44Z</time>
</trkpt>
<trkpt lat="48.003082" lon="10.590888">
<ele>584.763</ele>
<time>2020-09-10T16:48:45Z</time>
</trkpt>
<trkpt lat="48.00309" lon="10.590821">
<ele>584.763</ele>
<time>2020-09-10T16:48:46Z</time>
</trkpt>
<trkpt lat="48.003098" lon="10.590769">
<ele>584.763</ele>
<time>2020-09-10T16:48:47Z</time>
</trkpt>
<trkpt lat="48.003113" lon="10.590704">
<ele>584.763</ele>
<time>2020-09-10T16:48:48Z</time>
</trkpt>
<trkpt lat="48.003113" lon="10.590633">
<ele>584.763</ele>
<time>2020-09-10T16:48:49Z</time>
</trkpt>
<trkpt lat="48.003128" lon="10.59057">
<ele>584.763</ele>
<time>2020-09-10T16:48:50Z</time>
</trkpt>
<trkpt lat="48.003143" lon="10.590518">
<ele>584.763</ele>
<time>2020-09-10T16:48:51Z</time>
</trkpt>
<trkpt lat="48.003139" lon="10.59047">
<ele>584.763</ele>
<time>2020-09-10T16:48:52Z</time>
</trkpt>
<trkpt lat="48.003136" lon="10.590432">
<ele>584.763</ele>
<time>2020-09-10T16:48:53Z</time>
</trkpt>
<trkpt lat="48.003124" lon="10.59039">
<ele>584.763</ele>
<time>2020-09-10T16:48:54Z</time>
</trkpt>
<trkpt lat="48.003109" lon="10.590353">
<ele>584.763</ele>
<time>2020-09-10T16:48:55Z</time>
</trkpt>
<trkpt lat="48.003101" lon="10.590322">
<ele>584.763</ele>
<time>2020-09-10T16:48:56Z</time>
</trkpt>
<trkpt lat="48.003086" lon="10.59029">
<ele>584.763</ele>
<time>2020-09-10T16:48:57Z</time>
</trkpt>
<trkpt lat="48.003056" lon="10.590248">
<ele>584.763</ele>
<time>2020-09-10T16:48:58Z</time>
</trkpt>
<trkpt lat="48.003033" lon="10.590205">
<ele>584.763</ele>
<time>2020-09-10T16:48:59Z</time>
</trkpt>
<trkpt lat="48.003044" lon="10.590141">
<ele>584.763</ele>
<time>2020-09-10T16:49:00Z</time>
</trkpt>
<trkpt lat="48.00304" lon="10.590092">
<ele>584.977</ele>
<time>2020-09-10T16:49:01Z</time>
</trkpt>
<trkpt lat="48.003029" lon="10.590049">
<ele>585.168</ele>
<time>2020-09-10T16:49:02Z</time>
</trkpt>
<trkpt lat="48.003017" lon="10.590003">
<ele>585.324</ele>
<time>2020-09-10T16:49:03Z</time>
</trkpt>
<trkpt lat="48.003002" lon="10.589958">
<ele>585.442</ele>
<time>2020-09-10T16:49:04Z</time>
</trkpt>
<trkpt lat="48.002995" lon="10.589911">
<ele>585.516</ele>
<time>2020-09-10T16:49:05Z</time>
</trkpt>
<trkpt lat="48.002964" lon="10.58987">
<ele>585.572</ele>
<time>2020-09-10T16:49:06Z</time>
</trkpt>
<trkpt lat="48.00296" lon="10.58982">
<ele>585.621</ele>
<time>2020-09-10T16:49:07Z</time>
</trkpt>
<trkpt lat="48.002941" lon="10.58978">
<ele>585.642</ele>
<time>2020-09-10T16:49:08Z</time>
</trkpt>
<trkpt lat="48.002937" lon="10.58973">
<ele>585.642</ele>
<time>2020-09-10T16:49:09Z</time>
</trkpt>
<trkpt lat="48.00293" lon="10.589678">
<ele>585.642</ele>
<time>2020-09-10T16:49:10Z</time>
</trkpt>
<trkpt lat="48.002926" lon="10.589638">
<ele>585.642</ele>
<time>2020-09-10T16:49:11Z</time>
</trkpt>
<trkpt lat="48.002922" lon="10.589601">
<ele>585.642</ele>
<time>2020-09-10T16:49:12Z</time>
</trkpt>
<trkpt lat="48.002922" lon="10.589559">
<ele>585.966</ele>
<time>2020-09-10T16:49:13Z</time>
</trkpt>
<trkpt lat="48.002911" lon="10.589517">
<ele>586.215</ele>
<time>2020-09-10T16:49:14Z</time>
</trkpt>
<trkpt lat="48.002899" lon="10.589468">
<ele>586.431</ele>
<time>2020-09-10T16:49:15Z</time>
</trkpt>
<trkpt lat="48.002895" lon="10.589418">
<ele>586.577</ele>
<time>2020-09-10T16:49:16Z</time>
</trkpt>
<trkpt lat="48.002888" lon="10.589376">
<ele>586.677</ele>
<time>2020-09-10T16:49:17Z</time>
</trkpt>
<trkpt lat="48.002884" lon="10.589334">
<ele>586.744</ele>
<time>2020-09-10T16:49:18Z</time>
</trkpt>
<trkpt lat="48.002869" lon="10.58929">
<ele>586.777</ele>
<time>2020-09-10T16:49:19Z</time>
</trkpt>
<trkpt lat="48.002861" lon="10.589244">
<ele>586.786</ele>
<time>2020-09-10T16:49:20Z</time>
</trkpt>
<trkpt lat="48.002842" lon="10.589196">
<ele>587.023</ele>
<time>2020-09-10T16:49:21Z</time>
</trkpt>
<trkpt lat="48.002834" lon="10.589156">
<ele>587.243</ele>
<time>2020-09-10T16:49:22Z</time>
</trkpt>
<trkpt lat="48.002834" lon="10.589107">
<ele>587.422</ele>
<time>2020-09-10T16:49:23Z</time>
</trkpt>
<trkpt lat="48.002819" lon="10.589055">
<ele>587.574</ele>
<time>2020-09-10T16:49:24Z</time>
</trkpt>
<trkpt lat="48.002804" lon="10.589008">
<ele>587.693</ele>
<time>2020-09-10T16:49:25Z</time>
</trkpt>
<trkpt lat="48.002796" lon="10.58896">
<ele>587.769</ele>
<time>2020-09-10T16:49:26Z</time>
</trkpt>
<trkpt lat="48.002785" lon="10.588915">
<ele>587.812</ele>
<time>2020-09-10T16:49:27Z</time>
</trkpt>
<trkpt lat="48.002766" lon="10.588877">
<ele>588.075</ele>
<time>2020-09-10T16:49:28Z</time>
</trkpt>
<trkpt lat="48.002754" lon="10.588838">
<ele>588.283</ele>
<time>2020-09-10T16:49:29Z</time>
</trkpt>
<trkpt lat="48.002735" lon="10.588796">
<ele>588.437</ele>
<time>2020-09-10T16:49:30Z</time>
</trkpt>
<trkpt lat="48.002716" lon="10.588739">
<ele>588.531</ele>
<time>2020-09-10T16:49:31Z</time>
</trkpt>
<trkpt lat="48.002716" lon="10.588694">
<ele>588.638</ele>
<time>2020-09-10T16:49:32Z</time>
</trkpt>
<trkpt lat="48.002701" lon="10.588649">
<ele>588.986</ele>
<time>2020-09-10T16:49:33Z</time>
</trkpt>
<trkpt lat="48.002697" lon="10.588603">
<ele>589.257</ele>
<time>2020-09-10T16:49:34Z</time>
</trkpt>
<trkpt lat="48.002682" lon="10.588558">
<ele>589.466</ele>
<time>2020-09-10T16:49:35Z</time>
</trkpt>
<trkpt lat="48.00267" lon="10.588509">
<ele>589.7</ele>
<time>2020-09-10T16:49:36Z</time>
</trkpt>
<trkpt lat="48.002663" lon="10.588456">
<ele>589.786</ele>
<time>2020-09-10T16:49:37Z</time>
</trkpt>
<trkpt lat="48.002663" lon="10.588393">
<ele>589.837</ele>
<time>2020-09-10T16:49:38Z</time>
</trkpt>
<trkpt lat="48.002655" lon="10.588347">
<ele>589.864</ele>
<time>2020-09-10T16:49:39Z</time>
</trkpt>
<trkpt lat="48.00264" lon="10.588297">
<ele>590.107</ele>
<time>2020-09-10T16:49:40Z</time>
</trkpt>
<trkpt lat="48.002632" lon="10.588248">
<ele>590.275</ele>
<time>2020-09-10T16:49:41Z</time>
</trkpt>
<trkpt lat="48.002621" lon="10.588199">
<ele>590.448</ele>
<time>2020-09-10T16:49:42Z</time>
</trkpt>
<trkpt lat="48.002609" lon="10.588153">
<ele>590.578</ele>
<time>2020-09-10T16:49:43Z</time>
</trkpt>
<trkpt lat="48.002598" lon="10.588104">
<ele>590.678</ele>
<time>2020-09-10T16:49:44Z</time>
</trkpt>
<trkpt lat="48.002586" lon="10.588057">
<ele>590.753</ele>
<time>2020-09-10T16:49:45Z</time>
</trkpt>
<trkpt lat="48.002579" lon="10.588014">
<ele>590.803</ele>
<time>2020-09-10T16:49:46Z</time>
</trkpt>
<trkpt lat="48.002571" lon="10.587965">
<ele>590.831</ele>
<time>2020-09-10T16:49:47Z</time>
</trkpt>
<trkpt lat="48.002567" lon="10.587925">
<ele>591.051</ele>
<time>2020-09-10T16:49:48Z</time>
</trkpt>
<trkpt lat="48.00256" lon="10.587872">
<ele>591.226</ele>
<time>2020-09-10T16:49:49Z</time>
</trkpt>
<trkpt lat="48.002552" lon="10.587827">
<ele>591.367</ele>
<time>2020-09-10T16:49:50Z</time>
</trkpt>
<trkpt lat="48.002541" lon="10.587773">
<ele>591.464</ele>
<time>2020-09-10T16:49:51Z</time>
</trkpt>
<trkpt lat="48.002537" lon="10.587725">
<ele>591.564</ele>
<time>2020-09-10T16:49:52Z</time>
</trkpt>
<trkpt lat="48.002522" lon="10.587671">
<ele>591.641</ele>
<time>2020-09-10T16:49:53Z</time>
</trkpt>
<trkpt lat="48.002514" lon="10.587612">
<ele>591.689</ele>
<time>2020-09-10T16:49:54Z</time>
</trkpt>
<trkpt lat="48.002506" lon="10.58756">
<ele>591.979</ele>
<time>2020-09-10T16:49:55Z</time>
</trkpt>
<trkpt lat="48.002506" lon="10.587512">
<ele>592.252</ele>
<time>2020-09-10T16:49:56Z</time>
</trkpt>
<trkpt lat="48.002506" lon="10.587467">
<ele>592.42</ele>
<time>2020-09-10T16:49:57Z</time>
</trkpt>
<trkpt lat="48.002502" lon="10.58742">
<ele>592.551</ele>
<time>2020-09-10T16:49:58Z</time>
</trkpt>
<trkpt lat="48.002483" lon="10.587367">
<ele>592.634</ele>
<time>2020-09-10T16:49:59Z</time>
</trkpt>
<trkpt lat="48.00246" lon="10.58731">
<ele>592.693</ele>
<time>2020-09-10T16:50:00Z</time>
</trkpt>
<trkpt lat="48.002438" lon="10.587254">
<ele>592.736</ele>
<time>2020-09-10T16:50:01Z</time>
</trkpt>
<trkpt lat="48.002422" lon="10.587195">
<ele>592.767</ele>
<time>2020-09-10T16:50:02Z</time>
</trkpt>
<trkpt lat="48.002407" lon="10.587138">
<ele>592.767</ele>
<time>2020-09-10T16:50:03Z</time>
</trkpt>
<trkpt lat="48.002396" lon="10.587085">
<ele>592.767</ele>
<time>2020-09-10T16:50:04Z</time>
</trkpt>
<trkpt lat="48.00238" lon="10.587035">
<ele>593.049</ele>
<time>2020-09-10T16:50:05Z</time>
</trkpt>
<trkpt lat="48.002373" lon="10.586989">
<ele>593.248</ele>
<time>2020-09-10T16:50:06Z</time>
</trkpt>
<trkpt lat="48.002361" lon="10.586946">
<ele>593.395</ele>
<time>2020-09-10T16:50:07Z</time>
</trkpt>
<trkpt lat="48.002346" lon="10.586905">
<ele>593.509</ele>
<time>2020-09-10T16:50:08Z</time>
</trkpt>
<trkpt lat="48.002338" lon="10.586862">
<ele>593.6</ele>
<time>2020-09-10T16:50:09Z</time>
</trkpt>
<trkpt lat="48.002323" lon="10.586818">
<ele>593.657</ele>
<time>2020-09-10T16:50:10Z</time>
</trkpt>
<trkpt lat="48.002316" lon="10.586772">
<ele>593.705</ele>
<time>2020-09-10T16:50:11Z</time>
</trkpt>
<trkpt lat="48.002304" lon="10.586721">
<ele>593.735</ele>
<time>2020-09-10T16:50:12Z</time>
</trkpt>
<trkpt lat="48.002289" lon="10.586676">
<ele>593.735</ele>
<time>2020-09-10T16:50:13Z</time>
</trkpt>
<trkpt lat="48.002277" lon="10.586627">
<ele>593.735</ele>
<time>2020-09-10T16:50:14Z</time>
</trkpt>
<trkpt lat="48.002262" lon="10.586579">
<ele>594.04</ele>
<time>2020-09-10T16:50:15Z</time>
</trkpt>
<trkpt lat="48.002247" lon="10.586532">
<ele>594.274</ele>
<time>2020-09-10T16:50:16Z</time>
</trkpt>
<trkpt lat="48.002228" lon="10.58649">
<ele>594.447</ele>
<time>2020-09-10T16:50:17Z</time>
</trkpt>
<trkpt lat="48.002205" lon="10.586452">
<ele>594.567</ele>
<time>2020-09-10T16:50:18Z</time>
</trkpt>
<trkpt lat="48.002178" lon="10.586409">
<ele>594.654</ele>
<time>2020-09-10T16:50:19Z</time>
</trkpt>
<trkpt lat="48.002148" lon="10.586363">
<ele>594.715</ele>
<time>2020-09-10T16:50:20Z</time>
</trkpt>
<trkpt lat="48.00211" lon="10.586322">
<ele>594.763</ele>
<time>2020-09-10T16:50:21Z</time>
</trkpt>
<trkpt lat="48.002079" lon="10.586278">
<ele>594.791</ele>
<time>2020-09-10T16:50:22Z</time>
</trkpt>
<trkpt lat="48.002048" lon="10.586238">
<ele>594.791</ele>
<time>2020-09-10T16:50:23Z</time>
</trkpt>
<trkpt lat="48.002022" lon="10.586195">
<ele>595.135</ele>
<time>2020-09-10T16:50:24Z</time>
</trkpt>
<trkpt lat="48.001991" lon="10.586156">
<ele>595.392</ele>
<time>2020-09-10T16:50:25Z</time>
</trkpt>
<trkpt lat="48.001965" lon="10.58612">
<ele>595.578</ele>
<time>2020-09-10T16:50:26Z</time>
</trkpt>
<trkpt lat="48.001934" lon="10.586083">
<ele>595.715</ele>
<time>2020-09-10T16:50:27Z</time>
</trkpt>
<trkpt lat="48.001907" lon="10.586045">
<ele>595.811</ele>
<time>2020-09-10T16:50:28Z</time>
</trkpt>
<trkpt lat="48.001884" lon="10.586005">
<ele>595.869</ele>
<time>2020-09-10T16:50:29Z</time>
</trkpt>
<trkpt lat="48.001854" lon="10.585965">
<ele>595.906</ele>
<time>2020-09-10T16:50:30Z</time>
</trkpt>
<trkpt lat="48.001827" lon="10.585923">
<ele>595.935</ele>
<time>2020-09-10T16:50:31Z</time>
</trkpt>
<trkpt lat="48.001804" lon="10.585883">
<ele>595.935</ele>
<time>2020-09-10T16:50:32Z</time>
</trkpt>
<trkpt lat="48.001781" lon="10.585854">
<ele>595.935</ele>
<time>2020-09-10T16:50:33Z</time>
</trkpt>
<trkpt lat="48.001755" lon="10.58582">
<ele>595.935</ele>
<time>2020-09-10T16:50:34Z</time>
</trkpt>
<trkpt lat="48.00172" lon="10.585774">
<ele>595.935</ele>
<time>2020-09-10T16:50:35Z</time>
</trkpt>
<trkpt lat="48.00169" lon="10.585733">
<ele>595.935</ele>
<time>2020-09-10T16:50:36Z</time>
</trkpt>
<trkpt lat="48.001659" lon="10.585691">
<ele>595.935</ele>
<time>2020-09-10T16:50:37Z</time>
</trkpt>
<trkpt lat="48.001625" lon="10.585649">
<ele>595.935</ele>
<time>2020-09-10T16:50:38Z</time>
</trkpt>
<trkpt lat="48.001595" lon="10.585608">
<ele>595.935</ele>
<time>2020-09-10T16:50:39Z</time>
</trkpt>
<trkpt lat="48.001564" lon="10.585571">
<ele>595.935</ele>
<time>2020-09-10T16:50:40Z</time>
</trkpt>
<trkpt lat="48.001534" lon="10.585531">
<ele>595.935</ele>
<time>2020-09-10T16:50:41Z</time>
</trkpt>
<trkpt lat="48.001507" lon="10.585493">
<ele>595.935</ele>
<time>2020-09-10T16:50:42Z</time>
</trkpt>
<trkpt lat="48.001476" lon="10.58545">
<ele>595.935</ele>
<time>2020-09-10T16:50:43Z</time>
</trkpt>
<trkpt lat="48.001446" lon="10.585408">
<ele>595.935</ele>
<time>2020-09-10T16:50:44Z</time>
</trkpt>
<trkpt lat="48.001415" lon="10.585368">
<ele>595.935</ele>
<time>2020-09-10T16:50:45Z</time>
</trkpt>
<trkpt lat="48.001389" lon="10.58533">
<ele>595.935</ele>
<time>2020-09-10T16:50:46Z</time>
</trkpt>
<trkpt lat="48.001366" lon="10.585293">
<ele>595.935</ele>
<time>2020-09-10T16:50:47Z</time>
</trkpt>
<trkpt lat="48.001343" lon="10.585255">
<ele>595.935</ele>
<time>2020-09-10T16:50:48Z</time>
</trkpt>
<trkpt lat="48.00132" lon="10.585218">
<ele>595.935</ele>
<time>2020-09-10T16:50:49Z</time>
</trkpt>
<trkpt lat="48.001289" lon="10.585178">
<ele>595.935</ele>
<time>2020-09-10T16:50:50Z</time>
</trkpt>
<trkpt lat="48.001266" lon="10.585142">
<ele>595.935</ele>
<time>2020-09-10T16:50:51Z</time>
</trkpt>
<trkpt lat="48.001236" lon="10.585107">
<ele>595.935</ele>
<time>2020-09-10T16:50:52Z</time>
</trkpt>
<trkpt lat="48.001202" lon="10.585072">
<ele>595.935</ele>
<time>2020-09-10T16:50:53Z</time>
</trkpt>
<trkpt lat="48.001167" lon="10.585029">
<ele>596.224</ele>
<time>2020-09-10T16:50:54Z</time>
</trkpt>
<trkpt lat="48.001137" lon="10.584991">
<ele>596.449</ele>
<time>2020-09-10T16:50:55Z</time>
</trkpt>
<trkpt lat="48.001106" lon="10.584953">
<ele>596.611</ele>
<time>2020-09-10T16:50:56Z</time>
</trkpt>
<trkpt lat="48.001072" lon="10.58492">
<ele>596.731</ele>
<time>2020-09-10T16:50:57Z</time>
</trkpt>
<trkpt lat="48.001041" lon="10.584882">
<ele>596.804</ele>
<time>2020-09-10T16:50:58Z</time>
</trkpt>
<trkpt lat="48.001022" lon="10.584844">
<ele>596.86</ele>
<time>2020-09-10T16:50:59Z</time>
</trkpt>
<trkpt lat="48.001007" lon="10.5848">
<ele>596.883</ele>
<time>2020-09-10T16:51:00Z</time>
</trkpt>
<trkpt lat="48.000984" lon="10.584757">
<ele>596.903</ele>
<time>2020-09-10T16:51:01Z</time>
</trkpt>
<trkpt lat="48.000954" lon="10.584715">
<ele>596.903</ele>
<time>2020-09-10T16:51:02Z</time>
</trkpt>
<trkpt lat="48.000927" lon="10.584666">
<ele>596.903</ele>
<time>2020-09-10T16:51:03Z</time>
</trkpt>
<trkpt lat="48.000904" lon="10.584622">
<ele>596.903</ele>
<time>2020-09-10T16:51:04Z</time>
</trkpt>
<trkpt lat="48.000877" lon="10.584575">
<ele>596.903</ele>
<time>2020-09-10T16:51:05Z</time>
</trkpt>
<trkpt lat="48.000851" lon="10.584534">
<ele>596.903</ele>
<time>2020-09-10T16:51:06Z</time>
</trkpt>
<trkpt lat="48.000828" lon="10.58449">
<ele>596.903</ele>
<time>2020-09-10T16:51:07Z</time>
</trkpt>
<trkpt lat="48.000801" lon="10.584442">
<ele>596.903</ele>
<time>2020-09-10T16:51:08Z</time>
</trkpt>
<trkpt lat="48.000778" lon="10.58439">
<ele>597.123</ele>
<time>2020-09-10T16:51:09Z</time>
</trkpt>
<trkpt lat="48.000759" lon="10.584342">
<ele>597.296</ele>
<time>2020-09-10T16:51:10Z</time>
</trkpt>
<trkpt lat="48.000732" lon="10.584295">
<ele>597.415</ele>
<time>2020-09-10T16:51:11Z</time>
</trkpt>
<trkpt lat="48.000702" lon="10.584251">
<ele>597.549</ele>
<time>2020-09-10T16:51:12Z</time>
</trkpt>
<trkpt lat="48.000675" lon="10.584206">
<ele>597.647</ele>
<time>2020-09-10T16:51:13Z</time>
</trkpt>
<trkpt lat="48.000648" lon="10.584157">
<ele>597.72</ele>
<time>2020-09-10T16:51:14Z</time>
</trkpt>
<trkpt lat="48.000629" lon="10.584102">
<ele>597.763</ele>
<time>2020-09-10T16:51:15Z</time>
</trkpt>
<trkpt lat="48.000607" lon="10.584052">
<ele>597.784</ele>
<time>2020-09-10T16:51:16Z</time>
</trkpt>
<trkpt lat="48.000584" lon="10.584006">
<ele>597.784</ele>
<time>2020-09-10T16:51:17Z</time>
</trkpt>
<trkpt lat="48.000565" lon="10.583961">
<ele>597.784</ele>
<time>2020-09-10T16:51:18Z</time>
</trkpt>
<trkpt lat="48.000542" lon="10.58392">
<ele>597.784</ele>
<time>2020-09-10T16:51:19Z</time>
</trkpt>
<trkpt lat="48.000519" lon="10.583879">
<ele>597.784</ele>
<time>2020-09-10T16:51:20Z</time>
</trkpt>
<trkpt lat="48.000496" lon="10.58384">
<ele>597.784</ele>
<time>2020-09-10T16:51:21Z</time>
</trkpt>
<trkpt lat="48.000473" lon="10.583801">
<ele>598.072</ele>
<time>2020-09-10T16:51:22Z</time>
</trkpt>
<trkpt lat="48.000446" lon="10.583765">
<ele>598.318</ele>
<time>2020-09-10T16:51:23Z</time>
</trkpt>
<trkpt lat="48.000416" lon="10.58373">
<ele>598.532</ele>
<time>2020-09-10T16:51:24Z</time>
</trkpt>
<trkpt lat="48.000385" lon="10.583694">
<ele>598.704</ele>
<time>2020-09-10T16:51:25Z</time>
</trkpt>
<trkpt lat="48.000355" lon="10.583654">
<ele>598.833</ele>
<time>2020-09-10T16:51:26Z</time>
</trkpt>
<trkpt lat="48.000324" lon="10.583614">
<ele>598.927</ele>
<time>2020-09-10T16:51:27Z</time>
</trkpt>
<trkpt lat="48.000298" lon="10.583577">
<ele>598.987</ele>
<time>2020-09-10T16:51:28Z</time>
</trkpt>
<trkpt lat="48.000271" lon="10.583537">
<ele>599.016</ele>
<time>2020-09-10T16:51:29Z</time>
</trkpt>
<trkpt lat="48.000244" lon="10.583493">
<ele>599.016</ele>
<time>2020-09-10T16:51:30Z</time>
</trkpt>
<trkpt lat="48.000214" lon="10.583451">
<ele>599.016</ele>
<time>2020-09-10T16:51:31Z</time>
</trkpt>
<trkpt lat="48.000183" lon="10.583413">
<ele>599.016</ele>
<time>2020-09-10T16:51:32Z</time>
</trkpt>
<trkpt lat="48.000153" lon="10.583367">
<ele>599.016</ele>
<time>2020-09-10T16:51:33Z</time>
</trkpt>
<trkpt lat="48.000122" lon="10.583327">
<ele>599.016</ele>
<time>2020-09-10T16:51:34Z</time>
</trkpt>
<trkpt lat="48.000092" lon="10.583287">
<ele>599.016</ele>
<time>2020-09-10T16:51:35Z</time>
</trkpt>
<trkpt lat="48.000061" lon="10.583248">
<ele>599.016</ele>
<time>2020-09-10T16:51:36Z</time>
</trkpt>
<trkpt lat="48.000031" lon="10.58321">
<ele>599.016</ele>
<time>2020-09-10T16:51:37Z</time>
</trkpt>
<trkpt lat="48" lon="10.583173">
<ele>599.016</ele>
<time>2020-09-10T16:51:38Z</time>
</trkpt>
<trkpt lat="47.999969" lon="10.583138">
<ele>599.016</ele>
<time>2020-09-10T16:51:39Z</time>
</trkpt>
<trkpt lat="47.999939" lon="10.583101">
<ele>599.016</ele>
<time>2020-09-10T16:51:40Z</time>
</trkpt>
<trkpt lat="47.999908" lon="10.583065">
<ele>599.016</ele>
<time>2020-09-10T16:51:41Z</time>
</trkpt>
<trkpt lat="47.999878" lon="10.583026">
<ele>599.016</ele>
<time>2020-09-10T16:51:42Z</time>
</trkpt>
<trkpt lat="47.999851" lon="10.582988">
<ele>599.277</ele>
<time>2020-09-10T16:51:43Z</time>
</trkpt>
<trkpt lat="47.999817" lon="10.582949">
<ele>599.482</ele>
<time>2020-09-10T16:51:44Z</time>
</trkpt>
<trkpt lat="47.999786" lon="10.582911">
<ele>599.635</ele>
<time>2020-09-10T16:51:45Z</time>
</trkpt>
<trkpt lat="47.999752" lon="10.58287">
<ele>599.745</ele>
<time>2020-09-10T16:51:46Z</time>
</trkpt>
<trkpt lat="47.999722" lon="10.58283">
<ele>599.83</ele>
<time>2020-09-10T16:51:47Z</time>
</trkpt>
<trkpt lat="47.999695" lon="10.582785">
<ele>599.871</ele>
<time>2020-09-10T16:51:48Z</time>
</trkpt>
<trkpt lat="47.999664" lon="10.582742">
<ele>599.892</ele>
<time>2020-09-10T16:51:49Z</time>
</trkpt>
<trkpt lat="47.999634" lon="10.582697">
<ele>599.897</ele>
<time>2020-09-10T16:51:50Z</time>
</trkpt>
<trkpt lat="47.999599" lon="10.582657">
<ele>599.897</ele>
<time>2020-09-10T16:51:51Z</time>
</trkpt>
<trkpt lat="47.999565" lon="10.58262">
<ele>599.897</ele>
<time>2020-09-10T16:51:52Z</time>
</trkpt>
<trkpt lat="47.999531" lon="10.582585">
<ele>599.897</ele>
<time>2020-09-10T16:51:53Z</time>
</trkpt>
<trkpt lat="47.999496" lon="10.582553">
<ele>599.897</ele>
<time>2020-09-10T16:51:54Z</time>
</trkpt>
<trkpt lat="47.999466" lon="10.582521">
<ele>599.897</ele>
<time>2020-09-10T16:51:55Z</time>
</trkpt>
<trkpt lat="47.999439" lon="10.582494">
<ele>599.897</ele>
<time>2020-09-10T16:51:56Z</time>
</trkpt>
<trkpt lat="47.999409" lon="10.582458">
<ele>599.897</ele>
<time>2020-09-10T16:51:57Z</time>
</trkpt>
<trkpt lat="47.999378" lon="10.582423">
<ele>599.897</ele>
<time>2020-09-10T16:51:58Z</time>
</trkpt>
<trkpt lat="47.999344" lon="10.582396">
<ele>599.897</ele>
<time>2020-09-10T16:51:59Z</time>
</trkpt>
<trkpt lat="47.999317" lon="10.582376">
<ele>599.897</ele>
<time>2020-09-10T16:52:00Z</time>
</trkpt>
<trkpt lat="47.999298" lon="10.582374">
<ele>599.897</ele>
<time>2020-09-10T16:52:01Z</time>
</trkpt>
<trkpt lat="47.999271" lon="10.582376">
<ele>599.897</ele>
<time>2020-09-10T16:52:02Z</time>
</trkpt>
<trkpt lat="47.999252" lon="10.582397">
<ele>599.897</ele>
<time>2020-09-10T16:52:03Z</time>
</trkpt>
<trkpt lat="47.999241" lon="10.582423">
<ele>599.897</ele>
<time>2020-09-10T16:52:04Z</time>
</trkpt>
<trkpt lat="47.999226" lon="10.58245">
<ele>599.897</ele>
<time>2020-09-10T16:52:05Z</time>
</trkpt>
<trkpt lat="47.999214" lon="10.582477">
<ele>599.897</ele>
<time>2020-09-10T16:52:06Z</time>
</trkpt>
<trkpt lat="47.999203" lon="10.582499">
<ele>599.897</ele>
<time>2020-09-10T16:52:07Z</time>
</trkpt>
<trkpt lat="47.999187" lon="10.582519">
<ele>599.897</ele>
<time>2020-09-10T16:52:08Z</time>
</trkpt>
<trkpt lat="47.99918" lon="10.582537">
<ele>599.897</ele>
<time>2020-09-10T16:52:09Z</time>
</trkpt>
<trkpt lat="47.999172" lon="10.582546">
<ele>599.897</ele>
<time>2020-09-10T16:52:10Z</time>
</trkpt>
<trkpt lat="47.999168" lon="10.582561">
<ele>599.897</ele>
<time>2020-09-10T16:52:11Z</time>
</trkpt>
<trkpt lat="47.999161" lon="10.582565">
<ele>599.897</ele>
<time>2020-09-10T16:52:12Z</time>
</trkpt>
<trkpt lat="47.999161" lon="10.582573">
<ele>599.897</ele>
<time>2020-09-10T16:52:13Z</time>
</trkpt>
<trkpt lat="47.999165" lon="10.58258">
<ele>599.897</ele>
<time>2020-09-10T16:52:14Z</time>
</trkpt>
<trkpt lat="47.999168" lon="10.582585">
<ele>599.897</ele>
<time>2020-09-10T16:52:15Z</time>
</trkpt>
<trkpt lat="47.999161" lon="10.582601">
<ele>599.897</ele>
<time>2020-09-10T16:52:18Z</time>
</trkpt>
<trkpt lat="47.999153" lon="10.582613">
<ele>599.897</ele>
<time>2020-09-10T16:52:19Z</time>
</trkpt>
<trkpt lat="47.999149" lon="10.582634">
<ele>599.897</ele>
<time>2020-09-10T16:52:20Z</time>
</trkpt>
<trkpt lat="47.999134" lon="10.58266">
<ele>599.897</ele>
<time>2020-09-10T16:52:21Z</time>
</trkpt>
<trkpt lat="47.999111" lon="10.582704">
<ele>599.507</ele>
<time>2020-09-10T16:52:22Z</time>
</trkpt>
<trkpt lat="47.999084" lon="10.582762">
<ele>599.315</ele>
<time>2020-09-10T16:52:23Z</time>
</trkpt>
<trkpt lat="47.999046" lon="10.582816">
<ele>598.74</ele>
<time>2020-09-10T16:52:24Z</time>
</trkpt>
<trkpt lat="47.999016" lon="10.582877">
<ele>598.427</ele>
<time>2020-09-10T16:52:25Z</time>
</trkpt>
<trkpt lat="47.998985" lon="10.582933">
<ele>598.249</ele>
<time>2020-09-10T16:52:26Z</time>
</trkpt>
<trkpt lat="47.998959" lon="10.582987">
<ele>598.118</ele>
<time>2020-09-10T16:52:27Z</time>
</trkpt>
<trkpt lat="47.99894" lon="10.583028">
<ele>598.047</ele>
<time>2020-09-10T16:52:28Z</time>
</trkpt>
<trkpt lat="47.998928" lon="10.583059">
<ele>598.003</ele>
<time>2020-09-10T16:52:29Z</time>
</trkpt>
<trkpt lat="47.99892" lon="10.583089">
<ele>597.977</ele>
<time>2020-09-10T16:52:30Z</time>
</trkpt>
<trkpt lat="47.998917" lon="10.583108">
<ele>597.96</ele>
<time>2020-09-10T16:52:31Z</time>
</trkpt>
<trkpt lat="47.998909" lon="10.583132">
<ele>597.96</ele>
<time>2020-09-10T16:52:32Z</time>
</trkpt>
<trkpt lat="47.998901" lon="10.58315">
<ele>597.96</ele>
<time>2020-09-10T16:52:33Z</time>
</trkpt>
<trkpt lat="47.998886" lon="10.583161">
<ele>597.757</ele>
<time>2020-09-10T16:52:34Z</time>
</trkpt>
<trkpt lat="47.998878" lon="10.583158">
<ele>597.566</ele>
<time>2020-09-10T16:52:35Z</time>
</trkpt>
<trkpt lat="47.998875" lon="10.583158">
<ele>597.384</ele>
<time>2020-09-10T16:52:36Z</time>
</trkpt>
<trkpt lat="47.998871" lon="10.583158">
<ele>597.223</ele>
<time>2020-09-10T16:52:37Z</time>
</trkpt>
<trkpt lat="47.998867" lon="10.583157">
<ele>597.097</ele>
<time>2020-09-10T16:52:38Z</time>
</trkpt>
<trkpt lat="47.998863" lon="10.583158">
<ele>597.001</ele>
<time>2020-09-10T16:52:39Z</time>
</trkpt>
<trkpt lat="47.998863" lon="10.583158">
<ele>597.001</ele>
</trkpt>
</trkseg>
</trk>
</gpx>